<?xml version="1.0" encoding="UTF-8" standalone="no" ?>
<gpx xmlns="http://www.topografix.com/GPX/1/1" xmlns:xsi="http://www.w3.org/2001/XMLSchema-instance" xsi:schemaLocation="http://www.topografix.com/GPX/1/1 http://www.topografix.com/GPX/1/1/gpx.xsd" version="1.1" creator="VisuGPX - https://www.visugpx.com">
  <metadata>
    <name>Tour du Lac de Monteynard (route)</name>
    <desc><![CDATA[Tour du lac de Monteynard par la route. ]]></desc>
  </metadata>
  <trk>
    <name><![CDATA[Vacances Savel - Tour du lac (route)]]></name>
    <extensions>
      <line xmlns="http://www.topografix.com/GPX/gpx_style/0/2">
        <color>0000FF</color>
        <width>4</width>
      </line>
    </extensions>
    <trkseg>
      <trkpt lat="44.88334" lon="5.68707">
        <ele>505.6</ele>
        <time>2023-08-03T07:59:48Z</time>
      </trkpt>
      <trkpt lat="44.88333" lon="5.68709">
        <ele>505.5</ele>
        <time>2023-08-03T07:59:49Z</time>
      </trkpt>
      <trkpt lat="44.88332" lon="5.68712">
        <ele>505.4</ele>
        <time>2023-08-03T07:59:50Z</time>
      </trkpt>
      <trkpt lat="44.88331" lon="5.68715">
        <ele>505.3</ele>
        <time>2023-08-03T07:59:51Z</time>
      </trkpt>
      <trkpt lat="44.88329" lon="5.68717">
        <ele>505.2</ele>
        <time>2023-08-03T07:59:52Z</time>
      </trkpt>
      <trkpt lat="44.88328" lon="5.6872">
        <ele>505.1</ele>
        <time>2023-08-03T07:59:53Z</time>
      </trkpt>
      <trkpt lat="44.88326" lon="5.68723">
        <ele>505</ele>
        <time>2023-08-03T07:59:54Z</time>
      </trkpt>
      <trkpt lat="44.88325" lon="5.68724">
        <ele>504.9</ele>
        <time>2023-08-03T07:59:55Z</time>
      </trkpt>
      <trkpt lat="44.88318" lon="5.68729">
        <ele>504.6</ele>
        <time>2023-08-03T07:59:58Z</time>
      </trkpt>
      <trkpt lat="44.88315" lon="5.68729">
        <ele>504.4</ele>
        <time>2023-08-03T07:59:59Z</time>
      </trkpt>
      <trkpt lat="44.88313" lon="5.68729">
        <ele>503.9</ele>
        <time>2023-08-03T08:00:00Z</time>
      </trkpt>
      <trkpt lat="44.8831" lon="5.68729">
        <ele>503.4</ele>
        <time>2023-08-03T08:00:01Z</time>
      </trkpt>
      <trkpt lat="44.88296" lon="5.6873">
        <ele>501.1</ele>
        <time>2023-08-03T08:00:05Z</time>
      </trkpt>
      <trkpt lat="44.88292" lon="5.68732">
        <ele>500.3</ele>
        <time>2023-08-03T08:00:06Z</time>
      </trkpt>
      <trkpt lat="44.88288" lon="5.68735">
        <ele>499.6</ele>
        <time>2023-08-03T08:00:07Z</time>
      </trkpt>
      <trkpt lat="44.88282" lon="5.68743">
        <ele>498.2</ele>
        <time>2023-08-03T08:00:09Z</time>
      </trkpt>
      <trkpt lat="44.88275" lon="5.68751">
        <ele>496.7</ele>
        <time>2023-08-03T08:00:11Z</time>
      </trkpt>
      <trkpt lat="44.88272" lon="5.68755">
        <ele>495.9</ele>
        <time>2023-08-03T08:00:12Z</time>
      </trkpt>
      <trkpt lat="44.88258" lon="5.68773">
        <ele>493.1</ele>
        <time>2023-08-03T08:00:16Z</time>
      </trkpt>
      <trkpt lat="44.88248" lon="5.68786">
        <ele>493.9</ele>
        <time>2023-08-03T08:00:19Z</time>
      </trkpt>
      <trkpt lat="44.8823" lon="5.68808">
        <ele>497.4</ele>
        <time>2023-08-03T08:00:25Z</time>
      </trkpt>
      <trkpt lat="44.88227" lon="5.68812">
        <ele>498</ele>
        <time>2023-08-03T08:00:26Z</time>
      </trkpt>
      <trkpt lat="44.88214" lon="5.68834">
        <ele>500.8</ele>
        <time>2023-08-03T08:00:31Z</time>
      </trkpt>
      <trkpt lat="44.88212" lon="5.68839">
        <ele>501.3</ele>
        <time>2023-08-03T08:00:32Z</time>
      </trkpt>
      <trkpt lat="44.88203" lon="5.68863">
        <ele>504</ele>
        <time>2023-08-03T08:00:37Z</time>
      </trkpt>
      <trkpt lat="44.88199" lon="5.68878">
        <ele>505.7</ele>
        <time>2023-08-03T08:00:40Z</time>
      </trkpt>
      <trkpt lat="44.88198" lon="5.68884">
        <ele>505.7</ele>
        <time>2023-08-03T08:00:41Z</time>
      </trkpt>
      <trkpt lat="44.88191" lon="5.68911">
        <ele>505.3</ele>
        <time>2023-08-03T08:00:46Z</time>
      </trkpt>
      <trkpt lat="44.88191" lon="5.68917">
        <ele>505.2</ele>
        <time>2023-08-03T08:00:47Z</time>
      </trkpt>
      <trkpt lat="44.88187" lon="5.68935">
        <ele>505.1</ele>
        <time>2023-08-03T08:00:51Z</time>
      </trkpt>
      <trkpt lat="44.88186" lon="5.68943">
        <ele>505.1</ele>
        <time>2023-08-03T08:00:52Z</time>
      </trkpt>
      <trkpt lat="44.88185" lon="5.68956">
        <ele>505.1</ele>
        <time>2023-08-03T08:00:54Z</time>
      </trkpt>
      <trkpt lat="44.88181" lon="5.68968">
        <ele>505.1</ele>
        <time>2023-08-03T08:00:56Z</time>
      </trkpt>
      <trkpt lat="44.88178" lon="5.68974">
        <ele>505.1</ele>
        <time>2023-08-03T08:00:57Z</time>
      </trkpt>
      <trkpt lat="44.88175" lon="5.68978">
        <ele>505.1</ele>
        <time>2023-08-03T08:00:58Z</time>
      </trkpt>
      <trkpt lat="44.88167" lon="5.68984">
        <ele>505</ele>
        <time>2023-08-03T08:01:00Z</time>
      </trkpt>
      <trkpt lat="44.88163" lon="5.68986">
        <ele>505</ele>
        <time>2023-08-03T08:01:01Z</time>
      </trkpt>
      <trkpt lat="44.88159" lon="5.68988">
        <ele>505</ele>
        <time>2023-08-03T08:01:02Z</time>
      </trkpt>
      <trkpt lat="44.88155" lon="5.68989">
        <ele>505</ele>
        <time>2023-08-03T08:01:03Z</time>
      </trkpt>
      <trkpt lat="44.88146" lon="5.68989">
        <ele>505.1</ele>
        <time>2023-08-03T08:01:05Z</time>
      </trkpt>
      <trkpt lat="44.88141" lon="5.6899">
        <ele>505.1</ele>
        <time>2023-08-03T08:01:06Z</time>
      </trkpt>
      <trkpt lat="44.88101" lon="5.6899">
        <ele>505.2</ele>
        <time>2023-08-03T08:01:15Z</time>
      </trkpt>
      <trkpt lat="44.88049" lon="5.68995">
        <ele>504.9</ele>
        <time>2023-08-03T08:01:26Z</time>
      </trkpt>
      <trkpt lat="44.88011" lon="5.69005">
        <ele>504.5</ele>
        <time>2023-08-03T08:01:33Z</time>
      </trkpt>
      <trkpt lat="44.88005" lon="5.69007">
        <ele>504.5</ele>
        <time>2023-08-03T08:01:34Z</time>
      </trkpt>
      <trkpt lat="44.87974" lon="5.69018">
        <ele>504.4</ele>
        <time>2023-08-03T08:01:39Z</time>
      </trkpt>
      <trkpt lat="44.87968" lon="5.69021">
        <ele>504.3</ele>
        <time>2023-08-03T08:01:40Z</time>
      </trkpt>
      <trkpt lat="44.87962" lon="5.69023">
        <ele>504.3</ele>
        <time>2023-08-03T08:01:41Z</time>
      </trkpt>
      <trkpt lat="44.87946" lon="5.69035">
        <ele>504.2</ele>
        <time>2023-08-03T08:01:43Z</time>
      </trkpt>
      <trkpt lat="44.8794" lon="5.69039">
        <ele>504.2</ele>
        <time>2023-08-03T08:01:45Z</time>
      </trkpt>
      <trkpt lat="44.87913" lon="5.69056">
        <ele>504.3</ele>
        <time>2023-08-03T08:01:50Z</time>
      </trkpt>
      <trkpt lat="44.87908" lon="5.6906">
        <ele>504.4</ele>
        <time>2023-08-03T08:01:51Z</time>
      </trkpt>
      <trkpt lat="44.87898" lon="5.69067">
        <ele>504.5</ele>
        <time>2023-08-03T08:01:53Z</time>
      </trkpt>
      <trkpt lat="44.87844" lon="5.69103">
        <ele>504.7</ele>
        <time>2023-08-03T08:02:02Z</time>
      </trkpt>
      <trkpt lat="44.87799" lon="5.69132">
        <ele>504.6</ele>
        <time>2023-08-03T08:02:11Z</time>
      </trkpt>
      <trkpt lat="44.87794" lon="5.69136">
        <ele>504.6</ele>
        <time>2023-08-03T08:02:12Z</time>
      </trkpt>
      <trkpt lat="44.87751" lon="5.69168">
        <ele>504.8</ele>
        <time>2023-08-03T08:02:20Z</time>
      </trkpt>
      <trkpt lat="44.87737" lon="5.69184">
        <ele>504.8</ele>
        <time>2023-08-03T08:02:23Z</time>
      </trkpt>
      <trkpt lat="44.8773" lon="5.69198">
        <ele>504.8</ele>
        <time>2023-08-03T08:02:25Z</time>
      </trkpt>
      <trkpt lat="44.87719" lon="5.69239">
        <ele>504.4</ele>
        <time>2023-08-03T08:02:29Z</time>
      </trkpt>
      <trkpt lat="44.87718" lon="5.69249">
        <ele>504.2</ele>
        <time>2023-08-03T08:02:30Z</time>
      </trkpt>
      <trkpt lat="44.87711" lon="5.69287">
        <ele>503.4</ele>
        <time>2023-08-03T08:02:34Z</time>
      </trkpt>
      <trkpt lat="44.87709" lon="5.69296">
        <ele>503.3</ele>
        <time>2023-08-03T08:02:35Z</time>
      </trkpt>
      <trkpt lat="44.87694" lon="5.69362">
        <ele>504.2</ele>
        <time>2023-08-03T08:02:42Z</time>
      </trkpt>
      <trkpt lat="44.87692" lon="5.69378">
        <ele>504.5</ele>
        <time>2023-08-03T08:02:44Z</time>
      </trkpt>
      <trkpt lat="44.87693" lon="5.69395">
        <ele>504.9</ele>
        <time>2023-08-03T08:02:46Z</time>
      </trkpt>
      <trkpt lat="44.877" lon="5.69426">
        <ele>505.7</ele>
        <time>2023-08-03T08:02:50Z</time>
      </trkpt>
      <trkpt lat="44.87702" lon="5.69432">
        <ele>505.9</ele>
        <time>2023-08-03T08:02:51Z</time>
      </trkpt>
      <trkpt lat="44.87723" lon="5.69474">
        <ele>507</ele>
        <time>2023-08-03T08:02:58Z</time>
      </trkpt>
      <trkpt lat="44.87744" lon="5.69512">
        <ele>508.3</ele>
        <time>2023-08-03T08:03:05Z</time>
      </trkpt>
      <trkpt lat="44.87745" lon="5.69525">
        <ele>508.8</ele>
        <time>2023-08-03T08:03:07Z</time>
      </trkpt>
      <trkpt lat="44.87744" lon="5.69531">
        <ele>508.8</ele>
        <time>2023-08-03T08:03:08Z</time>
      </trkpt>
      <trkpt lat="44.87742" lon="5.69537">
        <ele>508.8</ele>
        <time>2023-08-03T08:03:09Z</time>
      </trkpt>
      <trkpt lat="44.87735" lon="5.69547">
        <ele>508.8</ele>
        <time>2023-08-03T08:03:11Z</time>
      </trkpt>
      <trkpt lat="44.87731" lon="5.6955">
        <ele>508.8</ele>
        <time>2023-08-03T08:03:12Z</time>
      </trkpt>
      <trkpt lat="44.87717" lon="5.69555">
        <ele>508.9</ele>
        <time>2023-08-03T08:03:16Z</time>
      </trkpt>
      <trkpt lat="44.87706" lon="5.69555">
        <ele>509.2</ele>
        <time>2023-08-03T08:03:20Z</time>
      </trkpt>
      <trkpt lat="44.87701" lon="5.69554">
        <ele>509.3</ele>
        <time>2023-08-03T08:03:22Z</time>
      </trkpt>
      <trkpt lat="44.87693" lon="5.69552">
        <ele>509.5</ele>
        <time>2023-08-03T08:03:25Z</time>
      </trkpt>
      <trkpt lat="44.87686" lon="5.69552">
        <ele>509.7</ele>
        <time>2023-08-03T08:03:28Z</time>
      </trkpt>
      <trkpt lat="44.87678" lon="5.69552">
        <ele>509.9</ele>
        <time>2023-08-03T08:03:31Z</time>
      </trkpt>
      <trkpt lat="44.87663" lon="5.69557">
        <ele>510.5</ele>
        <time>2023-08-03T08:03:37Z</time>
      </trkpt>
      <trkpt lat="44.87651" lon="5.69568">
        <ele>512.7</ele>
        <time>2023-08-03T08:03:43Z</time>
      </trkpt>
      <trkpt lat="44.87649" lon="5.69571">
        <ele>513.2</ele>
        <time>2023-08-03T08:03:44Z</time>
      </trkpt>
      <trkpt lat="44.87638" lon="5.69596">
        <ele>516.2</ele>
        <time>2023-08-03T08:03:52Z</time>
      </trkpt>
      <trkpt lat="44.87637" lon="5.69599">
        <ele>516.6</ele>
        <time>2023-08-03T08:03:53Z</time>
      </trkpt>
      <trkpt lat="44.87631" lon="5.69622">
        <ele>518.8</ele>
        <time>2023-08-03T08:04:00Z</time>
      </trkpt>
      <trkpt lat="44.87629" lon="5.69646">
        <ele>520.2</ele>
        <time>2023-08-03T08:04:07Z</time>
      </trkpt>
      <trkpt lat="44.87636" lon="5.69667">
        <ele>521.7</ele>
        <time>2023-08-03T08:04:14Z</time>
      </trkpt>
      <trkpt lat="44.87645" lon="5.69688">
        <ele>523.1</ele>
        <time>2023-08-03T08:04:21Z</time>
      </trkpt>
      <trkpt lat="44.87642" lon="5.69703">
        <ele>524</ele>
        <time>2023-08-03T08:04:26Z</time>
      </trkpt>
      <trkpt lat="44.87629" lon="5.69717">
        <ele>525.3</ele>
        <time>2023-08-03T08:04:33Z</time>
      </trkpt>
      <trkpt lat="44.87613" lon="5.69737">
        <ele>526.9</ele>
        <time>2023-08-03T08:04:42Z</time>
      </trkpt>
      <trkpt lat="44.87606" lon="5.69763">
        <ele>528.3</ele>
        <time>2023-08-03T08:04:50Z</time>
      </trkpt>
      <trkpt lat="44.87608" lon="5.698">
        <ele>530.1</ele>
        <time>2023-08-03T08:05:00Z</time>
      </trkpt>
      <trkpt lat="44.87607" lon="5.69822">
        <ele>531.3</ele>
        <time>2023-08-03T08:05:07Z</time>
      </trkpt>
      <trkpt lat="44.87603" lon="5.69844">
        <ele>532.9</ele>
        <time>2023-08-03T08:05:14Z</time>
      </trkpt>
      <trkpt lat="44.87603" lon="5.69861">
        <ele>534</ele>
        <time>2023-08-03T08:05:19Z</time>
      </trkpt>
      <trkpt lat="44.87603" lon="5.69864">
        <ele>534.2</ele>
        <time>2023-08-03T08:05:20Z</time>
      </trkpt>
      <trkpt lat="44.87611" lon="5.69893">
        <ele>535.8</ele>
        <time>2023-08-03T08:05:28Z</time>
      </trkpt>
      <trkpt lat="44.87616" lon="5.69913">
        <ele>536.8</ele>
        <time>2023-08-03T08:05:34Z</time>
      </trkpt>
      <trkpt lat="44.87608" lon="5.69926">
        <ele>537.7</ele>
        <time>2023-08-03T08:05:39Z</time>
      </trkpt>
      <trkpt lat="44.87593" lon="5.69925">
        <ele>538.7</ele>
        <time>2023-08-03T08:05:45Z</time>
      </trkpt>
      <trkpt lat="44.87571" lon="5.69912">
        <ele>540.5</ele>
        <time>2023-08-03T08:05:54Z</time>
      </trkpt>
      <trkpt lat="44.87556" lon="5.69898">
        <ele>541.8</ele>
        <time>2023-08-03T08:06:01Z</time>
      </trkpt>
      <trkpt lat="44.87553" lon="5.69893">
        <ele>542.2</ele>
        <time>2023-08-03T08:06:03Z</time>
      </trkpt>
      <trkpt lat="44.87547" lon="5.69886">
        <ele>542.9</ele>
        <time>2023-08-03T08:06:06Z</time>
      </trkpt>
      <trkpt lat="44.87534" lon="5.69876">
        <ele>544.3</ele>
        <time>2023-08-03T08:06:12Z</time>
      </trkpt>
      <trkpt lat="44.87529" lon="5.69873">
        <ele>544.8</ele>
        <time>2023-08-03T08:06:14Z</time>
      </trkpt>
      <trkpt lat="44.87511" lon="5.69874">
        <ele>546.3</ele>
        <time>2023-08-03T08:06:21Z</time>
      </trkpt>
      <trkpt lat="44.87495" lon="5.69891">
        <ele>547.8</ele>
        <time>2023-08-03T08:06:29Z</time>
      </trkpt>
      <trkpt lat="44.87483" lon="5.69916">
        <ele>549.2</ele>
        <time>2023-08-03T08:06:37Z</time>
      </trkpt>
      <trkpt lat="44.8747" lon="5.69944">
        <ele>550.6</ele>
        <time>2023-08-03T08:06:46Z</time>
      </trkpt>
      <trkpt lat="44.87459" lon="5.69964">
        <ele>551.7</ele>
        <time>2023-08-03T08:06:53Z</time>
      </trkpt>
      <trkpt lat="44.87451" lon="5.69978">
        <ele>552.6</ele>
        <time>2023-08-03T08:06:58Z</time>
      </trkpt>
      <trkpt lat="44.87438" lon="5.69995">
        <ele>554</ele>
        <time>2023-08-03T08:07:05Z</time>
      </trkpt>
      <trkpt lat="44.87436" lon="5.69998">
        <ele>554.2</ele>
        <time>2023-08-03T08:07:06Z</time>
      </trkpt>
      <trkpt lat="44.87415" lon="5.70018">
        <ele>556.3</ele>
        <time>2023-08-03T08:07:16Z</time>
      </trkpt>
      <trkpt lat="44.87413" lon="5.7002">
        <ele>556.5</ele>
        <time>2023-08-03T08:07:17Z</time>
      </trkpt>
      <trkpt lat="44.87395" lon="5.70031">
        <ele>557.9</ele>
        <time>2023-08-03T08:07:24Z</time>
      </trkpt>
      <trkpt lat="44.8739" lon="5.70033">
        <ele>558.3</ele>
        <time>2023-08-03T08:07:26Z</time>
      </trkpt>
      <trkpt lat="44.8737" lon="5.70041">
        <ele>559.9</ele>
        <time>2023-08-03T08:07:34Z</time>
      </trkpt>
      <trkpt lat="44.87343" lon="5.7005">
        <ele>562.1</ele>
        <time>2023-08-03T08:07:44Z</time>
      </trkpt>
      <trkpt lat="44.87302" lon="5.70059">
        <ele>565.4</ele>
        <time>2023-08-03T08:07:59Z</time>
      </trkpt>
      <trkpt lat="44.8728" lon="5.70068">
        <ele>567.3</ele>
        <time>2023-08-03T08:08:08Z</time>
      </trkpt>
      <trkpt lat="44.87275" lon="5.70076">
        <ele>567.9</ele>
        <time>2023-08-03T08:08:11Z</time>
      </trkpt>
      <trkpt lat="44.87274" lon="5.70081">
        <ele>568.2</ele>
        <time>2023-08-03T08:08:12Z</time>
      </trkpt>
      <trkpt lat="44.87278" lon="5.70096">
        <ele>568.8</ele>
        <time>2023-08-03T08:08:16Z</time>
      </trkpt>
      <trkpt lat="44.8729" lon="5.70099">
        <ele>569.4</ele>
        <time>2023-08-03T08:08:20Z</time>
      </trkpt>
      <trkpt lat="44.87299" lon="5.70094">
        <ele>569.6</ele>
        <time>2023-08-03T08:08:23Z</time>
      </trkpt>
      <trkpt lat="44.87311" lon="5.70088">
        <ele>570.1</ele>
        <time>2023-08-03T08:08:27Z</time>
      </trkpt>
      <trkpt lat="44.87317" lon="5.70086">
        <ele>570.5</ele>
        <time>2023-08-03T08:08:29Z</time>
      </trkpt>
      <trkpt lat="44.87335" lon="5.70083">
        <ele>571.6</ele>
        <time>2023-08-03T08:08:35Z</time>
      </trkpt>
      <trkpt lat="44.8734" lon="5.70082">
        <ele>572</ele>
        <time>2023-08-03T08:08:37Z</time>
      </trkpt>
      <trkpt lat="44.87349" lon="5.70082">
        <ele>572.6</ele>
        <time>2023-08-03T08:08:40Z</time>
      </trkpt>
      <trkpt lat="44.87357" lon="5.70082">
        <ele>573.2</ele>
        <time>2023-08-03T08:08:43Z</time>
      </trkpt>
      <trkpt lat="44.8738" lon="5.70084">
        <ele>575</ele>
        <time>2023-08-03T08:08:51Z</time>
      </trkpt>
      <trkpt lat="44.87389" lon="5.70085">
        <ele>575.7</ele>
        <time>2023-08-03T08:08:54Z</time>
      </trkpt>
      <trkpt lat="44.87404" lon="5.70086">
        <ele>577</ele>
        <time>2023-08-03T08:08:59Z</time>
      </trkpt>
      <trkpt lat="44.87406" lon="5.70086">
        <ele>577.2</ele>
        <time>2023-08-03T08:09:00Z</time>
      </trkpt>
      <trkpt lat="44.87419" lon="5.70086">
        <ele>578.3</ele>
        <time>2023-08-03T08:09:04Z</time>
      </trkpt>
      <trkpt lat="44.87433" lon="5.70086">
        <ele>579.5</ele>
        <time>2023-08-03T08:09:09Z</time>
      </trkpt>
      <trkpt lat="44.87439" lon="5.70086">
        <ele>580</ele>
        <time>2023-08-03T08:09:11Z</time>
      </trkpt>
      <trkpt lat="44.87442" lon="5.70087">
        <ele>580.2</ele>
        <time>2023-08-03T08:09:12Z</time>
      </trkpt>
      <trkpt lat="44.87457" lon="5.70087">
        <ele>581.5</ele>
        <time>2023-08-03T08:09:17Z</time>
      </trkpt>
      <trkpt lat="44.87465" lon="5.70088">
        <ele>582.1</ele>
        <time>2023-08-03T08:09:20Z</time>
      </trkpt>
      <trkpt lat="44.87468" lon="5.70088">
        <ele>582.4</ele>
        <time>2023-08-03T08:09:21Z</time>
      </trkpt>
      <trkpt lat="44.87477" lon="5.70089">
        <ele>583.1</ele>
        <time>2023-08-03T08:09:24Z</time>
      </trkpt>
      <trkpt lat="44.87485" lon="5.70089">
        <ele>583.7</ele>
        <time>2023-08-03T08:09:27Z</time>
      </trkpt>
      <trkpt lat="44.87494" lon="5.7009">
        <ele>584.3</ele>
        <time>2023-08-03T08:09:30Z</time>
      </trkpt>
      <trkpt lat="44.875" lon="5.7009">
        <ele>584.8</ele>
        <time>2023-08-03T08:09:32Z</time>
      </trkpt>
      <trkpt lat="44.87505" lon="5.7009">
        <ele>585.2</ele>
        <time>2023-08-03T08:09:34Z</time>
      </trkpt>
      <trkpt lat="44.87517" lon="5.7009">
        <ele>586.1</ele>
        <time>2023-08-03T08:09:38Z</time>
      </trkpt>
      <trkpt lat="44.87523" lon="5.7009">
        <ele>586.5</ele>
        <time>2023-08-03T08:09:40Z</time>
      </trkpt>
      <trkpt lat="44.87526" lon="5.7009">
        <ele>586.8</ele>
        <time>2023-08-03T08:09:41Z</time>
      </trkpt>
      <trkpt lat="44.87532" lon="5.7009">
        <ele>587.3</ele>
        <time>2023-08-03T08:09:43Z</time>
      </trkpt>
      <trkpt lat="44.87544" lon="5.70088">
        <ele>588.2</ele>
        <time>2023-08-03T08:09:47Z</time>
      </trkpt>
      <trkpt lat="44.8755" lon="5.70087">
        <ele>588.7</ele>
        <time>2023-08-03T08:09:49Z</time>
      </trkpt>
      <trkpt lat="44.87556" lon="5.70086">
        <ele>589.2</ele>
        <time>2023-08-03T08:09:51Z</time>
      </trkpt>
      <trkpt lat="44.87565" lon="5.70088">
        <ele>590</ele>
        <time>2023-08-03T08:09:54Z</time>
      </trkpt>
      <trkpt lat="44.87567" lon="5.7009">
        <ele>590.2</ele>
        <time>2023-08-03T08:09:55Z</time>
      </trkpt>
      <trkpt lat="44.87568" lon="5.70099">
        <ele>590.6</ele>
        <time>2023-08-03T08:09:57Z</time>
      </trkpt>
      <trkpt lat="44.87564" lon="5.70104">
        <ele>591</ele>
        <time>2023-08-03T08:09:59Z</time>
      </trkpt>
      <trkpt lat="44.87554" lon="5.70106">
        <ele>591.6</ele>
        <time>2023-08-03T08:10:02Z</time>
      </trkpt>
      <trkpt lat="44.87547" lon="5.70106">
        <ele>592</ele>
        <time>2023-08-03T08:10:04Z</time>
      </trkpt>
      <trkpt lat="44.8754" lon="5.70106">
        <ele>592.3</ele>
        <time>2023-08-03T08:10:06Z</time>
      </trkpt>
      <trkpt lat="44.87527" lon="5.70106">
        <ele>593</ele>
        <time>2023-08-03T08:10:10Z</time>
      </trkpt>
      <trkpt lat="44.87521" lon="5.70107">
        <ele>593.3</ele>
        <time>2023-08-03T08:10:12Z</time>
      </trkpt>
      <trkpt lat="44.87518" lon="5.70108">
        <ele>593.5</ele>
        <time>2023-08-03T08:10:13Z</time>
      </trkpt>
      <trkpt lat="44.87506" lon="5.7011">
        <ele>594.3</ele>
        <time>2023-08-03T08:10:17Z</time>
      </trkpt>
      <trkpt lat="44.87498" lon="5.70112">
        <ele>594.9</ele>
        <time>2023-08-03T08:10:20Z</time>
      </trkpt>
      <trkpt lat="44.87495" lon="5.70113">
        <ele>595.1</ele>
        <time>2023-08-03T08:10:21Z</time>
      </trkpt>
      <trkpt lat="44.87486" lon="5.70116">
        <ele>595.8</ele>
        <time>2023-08-03T08:10:24Z</time>
      </trkpt>
      <trkpt lat="44.87477" lon="5.70118">
        <ele>596.4</ele>
        <time>2023-08-03T08:10:27Z</time>
      </trkpt>
      <trkpt lat="44.87474" lon="5.70119">
        <ele>596.7</ele>
        <time>2023-08-03T08:10:28Z</time>
      </trkpt>
      <trkpt lat="44.87468" lon="5.7012">
        <ele>597.1</ele>
        <time>2023-08-03T08:10:30Z</time>
      </trkpt>
      <trkpt lat="44.87453" lon="5.70124">
        <ele>598.4</ele>
        <time>2023-08-03T08:10:35Z</time>
      </trkpt>
      <trkpt lat="44.87446" lon="5.70126">
        <ele>599</ele>
        <time>2023-08-03T08:10:37Z</time>
      </trkpt>
      <trkpt lat="44.87441" lon="5.70127">
        <ele>599.4</ele>
        <time>2023-08-03T08:10:39Z</time>
      </trkpt>
      <trkpt lat="44.87438" lon="5.70128">
        <ele>599.7</ele>
        <time>2023-08-03T08:10:40Z</time>
      </trkpt>
      <trkpt lat="44.87432" lon="5.7013">
        <ele>600.2</ele>
        <time>2023-08-03T08:10:42Z</time>
      </trkpt>
      <trkpt lat="44.87416" lon="5.70135">
        <ele>601.5</ele>
        <time>2023-08-03T08:10:47Z</time>
      </trkpt>
      <trkpt lat="44.87413" lon="5.70136">
        <ele>601.7</ele>
        <time>2023-08-03T08:10:48Z</time>
      </trkpt>
      <trkpt lat="44.87401" lon="5.7014">
        <ele>602.8</ele>
        <time>2023-08-03T08:10:52Z</time>
      </trkpt>
      <trkpt lat="44.8739" lon="5.70149">
        <ele>603.8</ele>
        <time>2023-08-03T08:10:56Z</time>
      </trkpt>
      <trkpt lat="44.87384" lon="5.7016">
        <ele>604.6</ele>
        <time>2023-08-03T08:10:59Z</time>
      </trkpt>
      <trkpt lat="44.87381" lon="5.70172">
        <ele>605.3</ele>
        <time>2023-08-03T08:11:02Z</time>
      </trkpt>
      <trkpt lat="44.87381" lon="5.70189">
        <ele>606.3</ele>
        <time>2023-08-03T08:11:06Z</time>
      </trkpt>
      <trkpt lat="44.87381" lon="5.70203">
        <ele>607</ele>
        <time>2023-08-03T08:11:09Z</time>
      </trkpt>
      <trkpt lat="44.87382" lon="5.70212">
        <ele>607.3</ele>
        <time>2023-08-03T08:11:11Z</time>
      </trkpt>
      <trkpt lat="44.87383" lon="5.7023">
        <ele>608</ele>
        <time>2023-08-03T08:11:15Z</time>
      </trkpt>
      <trkpt lat="44.87386" lon="5.70257">
        <ele>609.2</ele>
        <time>2023-08-03T08:11:21Z</time>
      </trkpt>
      <trkpt lat="44.87387" lon="5.70261">
        <ele>609.4</ele>
        <time>2023-08-03T08:11:22Z</time>
      </trkpt>
      <trkpt lat="44.87402" lon="5.70287">
        <ele>611.3</ele>
        <time>2023-08-03T08:11:30Z</time>
      </trkpt>
      <trkpt lat="44.87426" lon="5.70317">
        <ele>613.5</ele>
        <time>2023-08-03T08:11:40Z</time>
      </trkpt>
      <trkpt lat="44.87451" lon="5.70351">
        <ele>615.6</ele>
        <time>2023-08-03T08:11:51Z</time>
      </trkpt>
      <trkpt lat="44.87459" lon="5.70364">
        <ele>616.5</ele>
        <time>2023-08-03T08:11:55Z</time>
      </trkpt>
      <trkpt lat="44.8748" lon="5.70398">
        <ele>618.5</ele>
        <time>2023-08-03T08:12:05Z</time>
      </trkpt>
      <trkpt lat="44.87482" lon="5.70402">
        <ele>618.7</ele>
        <time>2023-08-03T08:12:06Z</time>
      </trkpt>
      <trkpt lat="44.87499" lon="5.70431">
        <ele>620.6</ele>
        <time>2023-08-03T08:12:15Z</time>
      </trkpt>
      <trkpt lat="44.87521" lon="5.70471">
        <ele>623.2</ele>
        <time>2023-08-03T08:12:27Z</time>
      </trkpt>
      <trkpt lat="44.87536" lon="5.70515">
        <ele>625.6</ele>
        <time>2023-08-03T08:12:38Z</time>
      </trkpt>
      <trkpt lat="44.87551" lon="5.70567">
        <ele>628.1</ele>
        <time>2023-08-03T08:12:51Z</time>
      </trkpt>
      <trkpt lat="44.8756" lon="5.70596">
        <ele>629.8</ele>
        <time>2023-08-03T08:12:58Z</time>
      </trkpt>
      <trkpt lat="44.87573" lon="5.70633">
        <ele>632.2</ele>
        <time>2023-08-03T08:13:08Z</time>
      </trkpt>
      <trkpt lat="44.87574" lon="5.7066">
        <ele>633.5</ele>
        <time>2023-08-03T08:13:14Z</time>
      </trkpt>
      <trkpt lat="44.87565" lon="5.70684">
        <ele>634.7</ele>
        <time>2023-08-03T08:13:20Z</time>
      </trkpt>
      <trkpt lat="44.8755" lon="5.70729">
        <ele>637</ele>
        <time>2023-08-03T08:13:31Z</time>
      </trkpt>
      <trkpt lat="44.87538" lon="5.70764">
        <ele>639.2</ele>
        <time>2023-08-03T08:13:40Z</time>
      </trkpt>
      <trkpt lat="44.87532" lon="5.70798">
        <ele>641.1</ele>
        <time>2023-08-03T08:13:48Z</time>
      </trkpt>
      <trkpt lat="44.8753" lon="5.70857">
        <ele>643.7</ele>
        <time>2023-08-03T08:14:01Z</time>
      </trkpt>
      <trkpt lat="44.87526" lon="5.70889">
        <ele>645.2</ele>
        <time>2023-08-03T08:14:08Z</time>
      </trkpt>
      <trkpt lat="44.87522" lon="5.70921">
        <ele>647</ele>
        <time>2023-08-03T08:14:16Z</time>
      </trkpt>
      <trkpt lat="44.87518" lon="5.70932">
        <ele>647.6</ele>
        <time>2023-08-03T08:14:19Z</time>
      </trkpt>
      <trkpt lat="44.87511" lon="5.70941">
        <ele>648.4</ele>
        <time>2023-08-03T08:14:22Z</time>
      </trkpt>
      <trkpt lat="44.87492" lon="5.70957">
        <ele>650.1</ele>
        <time>2023-08-03T08:14:29Z</time>
      </trkpt>
      <trkpt lat="44.87481" lon="5.70966">
        <ele>651.2</ele>
        <time>2023-08-03T08:14:33Z</time>
      </trkpt>
      <trkpt lat="44.87469" lon="5.70975">
        <ele>652.2</ele>
        <time>2023-08-03T08:14:37Z</time>
      </trkpt>
      <trkpt lat="44.87461" lon="5.70982">
        <ele>652.9</ele>
        <time>2023-08-03T08:14:40Z</time>
      </trkpt>
      <trkpt lat="44.87448" lon="5.70994">
        <ele>654</ele>
        <time>2023-08-03T08:14:45Z</time>
      </trkpt>
      <trkpt lat="44.87446" lon="5.70997">
        <ele>654.2</ele>
        <time>2023-08-03T08:14:46Z</time>
      </trkpt>
      <trkpt lat="44.87435" lon="5.71007">
        <ele>655</ele>
        <time>2023-08-03T08:14:50Z</time>
      </trkpt>
      <trkpt lat="44.8743" lon="5.71012">
        <ele>655.4</ele>
        <time>2023-08-03T08:14:52Z</time>
      </trkpt>
      <trkpt lat="44.87427" lon="5.71016">
        <ele>655.5</ele>
        <time>2023-08-03T08:14:53Z</time>
      </trkpt>
      <trkpt lat="44.87413" lon="5.71041">
        <ele>655.4</ele>
        <time>2023-08-03T08:14:59Z</time>
      </trkpt>
      <trkpt lat="44.87409" lon="5.7105">
        <ele>655.1</ele>
        <time>2023-08-03T08:15:01Z</time>
      </trkpt>
      <trkpt lat="44.87406" lon="5.71062">
        <ele>654.8</ele>
        <time>2023-08-03T08:15:03Z</time>
      </trkpt>
      <trkpt lat="44.87403" lon="5.71075">
        <ele>654.5</ele>
        <time>2023-08-03T08:15:05Z</time>
      </trkpt>
      <trkpt lat="44.87402" lon="5.71083">
        <ele>654.3</ele>
        <time>2023-08-03T08:15:06Z</time>
      </trkpt>
      <trkpt lat="44.87403" lon="5.71106">
        <ele>653.9</ele>
        <time>2023-08-03T08:15:09Z</time>
      </trkpt>
      <trkpt lat="44.87403" lon="5.71114">
        <ele>653.7</ele>
        <time>2023-08-03T08:15:10Z</time>
      </trkpt>
      <trkpt lat="44.87402" lon="5.71122">
        <ele>653.6</ele>
        <time>2023-08-03T08:15:11Z</time>
      </trkpt>
      <trkpt lat="44.87401" lon="5.7113">
        <ele>653.5</ele>
        <time>2023-08-03T08:15:12Z</time>
      </trkpt>
      <trkpt lat="44.87396" lon="5.71155">
        <ele>653.1</ele>
        <time>2023-08-03T08:15:15Z</time>
      </trkpt>
      <trkpt lat="44.87394" lon="5.71163">
        <ele>653</ele>
        <time>2023-08-03T08:15:16Z</time>
      </trkpt>
      <trkpt lat="44.87381" lon="5.71204">
        <ele>652.6</ele>
        <time>2023-08-03T08:15:21Z</time>
      </trkpt>
      <trkpt lat="44.87378" lon="5.71212">
        <ele>652.6</ele>
        <time>2023-08-03T08:15:22Z</time>
      </trkpt>
      <trkpt lat="44.87369" lon="5.71236">
        <ele>652.4</ele>
        <time>2023-08-03T08:15:25Z</time>
      </trkpt>
      <trkpt lat="44.87364" lon="5.71261">
        <ele>652.5</ele>
        <time>2023-08-03T08:15:28Z</time>
      </trkpt>
      <trkpt lat="44.87348" lon="5.7132">
        <ele>653.3</ele>
        <time>2023-08-03T08:15:35Z</time>
      </trkpt>
      <trkpt lat="44.87326" lon="5.71372">
        <ele>654.2</ele>
        <time>2023-08-03T08:15:42Z</time>
      </trkpt>
      <trkpt lat="44.87321" lon="5.71386">
        <ele>654.2</ele>
        <time>2023-08-03T08:15:44Z</time>
      </trkpt>
      <trkpt lat="44.87319" lon="5.71393">
        <ele>654.3</ele>
        <time>2023-08-03T08:15:45Z</time>
      </trkpt>
      <trkpt lat="44.87316" lon="5.71414">
        <ele>654.7</ele>
        <time>2023-08-03T08:15:48Z</time>
      </trkpt>
      <trkpt lat="44.87315" lon="5.71469">
        <ele>656.2</ele>
        <time>2023-08-03T08:15:55Z</time>
      </trkpt>
      <trkpt lat="44.87325" lon="5.71524">
        <ele>658</ele>
        <time>2023-08-03T08:16:03Z</time>
      </trkpt>
      <trkpt lat="44.87327" lon="5.7153">
        <ele>658.2</ele>
        <time>2023-08-03T08:16:04Z</time>
      </trkpt>
      <trkpt lat="44.87338" lon="5.71568">
        <ele>659.3</ele>
        <time>2023-08-03T08:16:10Z</time>
      </trkpt>
      <trkpt lat="44.87341" lon="5.71579">
        <ele>659.7</ele>
        <time>2023-08-03T08:16:12Z</time>
      </trkpt>
      <trkpt lat="44.87347" lon="5.716">
        <ele>660.5</ele>
        <time>2023-08-03T08:16:16Z</time>
      </trkpt>
      <trkpt lat="44.87353" lon="5.71635">
        <ele>661.9</ele>
        <time>2023-08-03T08:16:23Z</time>
      </trkpt>
      <trkpt lat="44.87351" lon="5.71666">
        <ele>663</ele>
        <time>2023-08-03T08:16:29Z</time>
      </trkpt>
      <trkpt lat="44.87347" lon="5.71687">
        <ele>663.8</ele>
        <time>2023-08-03T08:16:33Z</time>
      </trkpt>
      <trkpt lat="44.87344" lon="5.71697">
        <ele>664.2</ele>
        <time>2023-08-03T08:16:35Z</time>
      </trkpt>
      <trkpt lat="44.87332" lon="5.71746">
        <ele>666</ele>
        <time>2023-08-03T08:16:44Z</time>
      </trkpt>
      <trkpt lat="44.87326" lon="5.71781">
        <ele>667.3</ele>
        <time>2023-08-03T08:16:50Z</time>
      </trkpt>
      <trkpt lat="44.87325" lon="5.71792">
        <ele>667.7</ele>
        <time>2023-08-03T08:16:52Z</time>
      </trkpt>
      <trkpt lat="44.8733" lon="5.71833">
        <ele>669.2</ele>
        <time>2023-08-03T08:16:59Z</time>
      </trkpt>
      <trkpt lat="44.87349" lon="5.71887">
        <ele>671.2</ele>
        <time>2023-08-03T08:17:09Z</time>
      </trkpt>
      <trkpt lat="44.8737" lon="5.71932">
        <ele>672.8</ele>
        <time>2023-08-03T08:17:18Z</time>
      </trkpt>
      <trkpt lat="44.87395" lon="5.71989">
        <ele>674.2</ele>
        <time>2023-08-03T08:17:29Z</time>
      </trkpt>
      <trkpt lat="44.87405" lon="5.72023">
        <ele>675.7</ele>
        <time>2023-08-03T08:17:35Z</time>
      </trkpt>
      <trkpt lat="44.87406" lon="5.72029">
        <ele>675.9</ele>
        <time>2023-08-03T08:17:36Z</time>
      </trkpt>
      <trkpt lat="44.87414" lon="5.72078">
        <ele>677.9</ele>
        <time>2023-08-03T08:17:44Z</time>
      </trkpt>
      <trkpt lat="44.87422" lon="5.72131">
        <ele>679.8</ele>
        <time>2023-08-03T08:17:53Z</time>
      </trkpt>
      <trkpt lat="44.87424" lon="5.7215">
        <ele>680.3</ele>
        <time>2023-08-03T08:17:56Z</time>
      </trkpt>
      <trkpt lat="44.87422" lon="5.72169">
        <ele>680.7</ele>
        <time>2023-08-03T08:17:59Z</time>
      </trkpt>
      <trkpt lat="44.87419" lon="5.72193">
        <ele>681.5</ele>
        <time>2023-08-03T08:18:03Z</time>
      </trkpt>
      <trkpt lat="44.87417" lon="5.72205">
        <ele>681.9</ele>
        <time>2023-08-03T08:18:05Z</time>
      </trkpt>
      <trkpt lat="44.87415" lon="5.72216">
        <ele>682.3</ele>
        <time>2023-08-03T08:18:07Z</time>
      </trkpt>
      <trkpt lat="44.87409" lon="5.72256">
        <ele>683.5</ele>
        <time>2023-08-03T08:18:14Z</time>
      </trkpt>
      <trkpt lat="44.87407" lon="5.72261">
        <ele>683.7</ele>
        <time>2023-08-03T08:18:15Z</time>
      </trkpt>
      <trkpt lat="44.87404" lon="5.72268">
        <ele>683.9</ele>
        <time>2023-08-03T08:18:16Z</time>
      </trkpt>
      <trkpt lat="44.87392" lon="5.72292">
        <ele>684.8</ele>
        <time>2023-08-03T08:18:21Z</time>
      </trkpt>
      <trkpt lat="44.87368" lon="5.72327">
        <ele>686.5</ele>
        <time>2023-08-03T08:18:29Z</time>
      </trkpt>
      <trkpt lat="44.87365" lon="5.72332">
        <ele>686.8</ele>
        <time>2023-08-03T08:18:30Z</time>
      </trkpt>
      <trkpt lat="44.87359" lon="5.72341">
        <ele>687.2</ele>
        <time>2023-08-03T08:18:32Z</time>
      </trkpt>
      <trkpt lat="44.87352" lon="5.72357">
        <ele>687.9</ele>
        <time>2023-08-03T08:18:35Z</time>
      </trkpt>
      <trkpt lat="44.8735" lon="5.72369">
        <ele>688.3</ele>
        <time>2023-08-03T08:18:37Z</time>
      </trkpt>
      <trkpt lat="44.8735" lon="5.72381">
        <ele>688.6</ele>
        <time>2023-08-03T08:18:39Z</time>
      </trkpt>
      <trkpt lat="44.87355" lon="5.72432">
        <ele>690.1</ele>
        <time>2023-08-03T08:18:47Z</time>
      </trkpt>
      <trkpt lat="44.87356" lon="5.72438">
        <ele>690.2</ele>
        <time>2023-08-03T08:18:48Z</time>
      </trkpt>
      <trkpt lat="44.87361" lon="5.72449">
        <ele>690.5</ele>
        <time>2023-08-03T08:18:50Z</time>
      </trkpt>
      <trkpt lat="44.87367" lon="5.72458">
        <ele>690.9</ele>
        <time>2023-08-03T08:18:52Z</time>
      </trkpt>
      <trkpt lat="44.87375" lon="5.72463">
        <ele>691.2</ele>
        <time>2023-08-03T08:18:54Z</time>
      </trkpt>
      <trkpt lat="44.87388" lon="5.72467">
        <ele>691.5</ele>
        <time>2023-08-03T08:18:57Z</time>
      </trkpt>
      <trkpt lat="44.87402" lon="5.72468">
        <ele>691.7</ele>
        <time>2023-08-03T08:19:00Z</time>
      </trkpt>
      <trkpt lat="44.87412" lon="5.72471">
        <ele>691.8</ele>
        <time>2023-08-03T08:19:02Z</time>
      </trkpt>
      <trkpt lat="44.87417" lon="5.72474">
        <ele>691.8</ele>
        <time>2023-08-03T08:19:03Z</time>
      </trkpt>
      <trkpt lat="44.87422" lon="5.72478">
        <ele>691.9</ele>
        <time>2023-08-03T08:19:04Z</time>
      </trkpt>
      <trkpt lat="44.8743" lon="5.72489">
        <ele>692.2</ele>
        <time>2023-08-03T08:19:06Z</time>
      </trkpt>
      <trkpt lat="44.87433" lon="5.72495">
        <ele>692.3</ele>
        <time>2023-08-03T08:19:07Z</time>
      </trkpt>
      <trkpt lat="44.87441" lon="5.72514">
        <ele>692.7</ele>
        <time>2023-08-03T08:19:10Z</time>
      </trkpt>
      <trkpt lat="44.87462" lon="5.72558">
        <ele>693.3</ele>
        <time>2023-08-03T08:19:17Z</time>
      </trkpt>
      <trkpt lat="44.87475" lon="5.72584">
        <ele>693.7</ele>
        <time>2023-08-03T08:19:21Z</time>
      </trkpt>
      <trkpt lat="44.87493" lon="5.72623">
        <ele>694.3</ele>
        <time>2023-08-03T08:19:27Z</time>
      </trkpt>
      <trkpt lat="44.87506" lon="5.72651">
        <ele>694.3</ele>
        <time>2023-08-03T08:19:31Z</time>
      </trkpt>
      <trkpt lat="44.87518" lon="5.7268">
        <ele>694</ele>
        <time>2023-08-03T08:19:35Z</time>
      </trkpt>
      <trkpt lat="44.87523" lon="5.72697">
        <ele>694</ele>
        <time>2023-08-03T08:19:37Z</time>
      </trkpt>
      <trkpt lat="44.87527" lon="5.72715">
        <ele>694.2</ele>
        <time>2023-08-03T08:19:39Z</time>
      </trkpt>
      <trkpt lat="44.87528" lon="5.72733">
        <ele>694.4</ele>
        <time>2023-08-03T08:19:41Z</time>
      </trkpt>
      <trkpt lat="44.87525" lon="5.72748">
        <ele>694.7</ele>
        <time>2023-08-03T08:19:43Z</time>
      </trkpt>
      <trkpt lat="44.87522" lon="5.72755">
        <ele>694.7</ele>
        <time>2023-08-03T08:19:44Z</time>
      </trkpt>
      <trkpt lat="44.87519" lon="5.72762">
        <ele>694.7</ele>
        <time>2023-08-03T08:19:45Z</time>
      </trkpt>
      <trkpt lat="44.87508" lon="5.7278">
        <ele>694.6</ele>
        <time>2023-08-03T08:19:48Z</time>
      </trkpt>
      <trkpt lat="44.8748" lon="5.72821">
        <ele>694.2</ele>
        <time>2023-08-03T08:19:54Z</time>
      </trkpt>
      <trkpt lat="44.87465" lon="5.72843">
        <ele>693.9</ele>
        <time>2023-08-03T08:19:57Z</time>
      </trkpt>
      <trkpt lat="44.87446" lon="5.72875">
        <ele>693.6</ele>
        <time>2023-08-03T08:20:01Z</time>
      </trkpt>
      <trkpt lat="44.87422" lon="5.72915">
        <ele>693.4</ele>
        <time>2023-08-03T08:20:06Z</time>
      </trkpt>
      <trkpt lat="44.87419" lon="5.72924">
        <ele>693.4</ele>
        <time>2023-08-03T08:20:07Z</time>
      </trkpt>
      <trkpt lat="44.87419" lon="5.72933">
        <ele>693.3</ele>
        <time>2023-08-03T08:20:08Z</time>
      </trkpt>
      <trkpt lat="44.87423" lon="5.7295">
        <ele>693</ele>
        <time>2023-08-03T08:20:10Z</time>
      </trkpt>
      <trkpt lat="44.87433" lon="5.72963">
        <ele>692.6</ele>
        <time>2023-08-03T08:20:12Z</time>
      </trkpt>
      <trkpt lat="44.87439" lon="5.72969">
        <ele>692.5</ele>
        <time>2023-08-03T08:20:13Z</time>
      </trkpt>
      <trkpt lat="44.87459" lon="5.72982">
        <ele>692.2</ele>
        <time>2023-08-03T08:20:16Z</time>
      </trkpt>
      <trkpt lat="44.8748" lon="5.72994">
        <ele>691.8</ele>
        <time>2023-08-03T08:20:19Z</time>
      </trkpt>
      <trkpt lat="44.87488" lon="5.72997">
        <ele>691.6</ele>
        <time>2023-08-03T08:20:20Z</time>
      </trkpt>
      <trkpt lat="44.87503" lon="5.73001">
        <ele>691.3</ele>
        <time>2023-08-03T08:20:22Z</time>
      </trkpt>
      <trkpt lat="44.87511" lon="5.73001">
        <ele>691.2</ele>
        <time>2023-08-03T08:20:23Z</time>
      </trkpt>
      <trkpt lat="44.8756" lon="5.72992">
        <ele>690.4</ele>
        <time>2023-08-03T08:20:29Z</time>
      </trkpt>
      <trkpt lat="44.87568" lon="5.7299">
        <ele>690.2</ele>
        <time>2023-08-03T08:20:30Z</time>
      </trkpt>
      <trkpt lat="44.87616" lon="5.72978">
        <ele>689.4</ele>
        <time>2023-08-03T08:20:36Z</time>
      </trkpt>
      <trkpt lat="44.87663" lon="5.72966">
        <ele>688.5</ele>
        <time>2023-08-03T08:20:42Z</time>
      </trkpt>
      <trkpt lat="44.87671" lon="5.72966">
        <ele>688.3</ele>
        <time>2023-08-03T08:20:43Z</time>
      </trkpt>
      <trkpt lat="44.87722" lon="5.72965">
        <ele>687.5</ele>
        <time>2023-08-03T08:20:49Z</time>
      </trkpt>
      <trkpt lat="44.87765" lon="5.7297">
        <ele>686.8</ele>
        <time>2023-08-03T08:20:54Z</time>
      </trkpt>
      <trkpt lat="44.87808" lon="5.72979">
        <ele>686.3</ele>
        <time>2023-08-03T08:20:59Z</time>
      </trkpt>
      <trkpt lat="44.87816" lon="5.72982">
        <ele>686.2</ele>
        <time>2023-08-03T08:21:00Z</time>
      </trkpt>
      <trkpt lat="44.87833" lon="5.72988">
        <ele>686.2</ele>
        <time>2023-08-03T08:21:02Z</time>
      </trkpt>
      <trkpt lat="44.87848" lon="5.72997">
        <ele>686.5</ele>
        <time>2023-08-03T08:21:04Z</time>
      </trkpt>
      <trkpt lat="44.87855" lon="5.73003">
        <ele>686.6</ele>
        <time>2023-08-03T08:21:05Z</time>
      </trkpt>
      <trkpt lat="44.8786" lon="5.73011">
        <ele>686.7</ele>
        <time>2023-08-03T08:21:06Z</time>
      </trkpt>
      <trkpt lat="44.87863" lon="5.73029">
        <ele>686.6</ele>
        <time>2023-08-03T08:21:08Z</time>
      </trkpt>
      <trkpt lat="44.87856" lon="5.73044">
        <ele>686.6</ele>
        <time>2023-08-03T08:21:10Z</time>
      </trkpt>
      <trkpt lat="44.87845" lon="5.73055">
        <ele>686.6</ele>
        <time>2023-08-03T08:21:12Z</time>
      </trkpt>
      <trkpt lat="44.87831" lon="5.73063">
        <ele>686.6</ele>
        <time>2023-08-03T08:21:14Z</time>
      </trkpt>
      <trkpt lat="44.8779" lon="5.73071">
        <ele>686.6</ele>
        <time>2023-08-03T08:21:20Z</time>
      </trkpt>
      <trkpt lat="44.8777" lon="5.73074">
        <ele>686.7</ele>
        <time>2023-08-03T08:21:23Z</time>
      </trkpt>
      <trkpt lat="44.87758" lon="5.73082">
        <ele>686.8</ele>
        <time>2023-08-03T08:21:25Z</time>
      </trkpt>
      <trkpt lat="44.87746" lon="5.73094">
        <ele>686.8</ele>
        <time>2023-08-03T08:21:27Z</time>
      </trkpt>
      <trkpt lat="44.87743" lon="5.73099">
        <ele>686.9</ele>
        <time>2023-08-03T08:21:28Z</time>
      </trkpt>
      <trkpt lat="44.87734" lon="5.73113">
        <ele>686.9</ele>
        <time>2023-08-03T08:21:30Z</time>
      </trkpt>
      <trkpt lat="44.87717" lon="5.7314">
        <ele>687.1</ele>
        <time>2023-08-03T08:21:34Z</time>
      </trkpt>
      <trkpt lat="44.877" lon="5.73168">
        <ele>687.4</ele>
        <time>2023-08-03T08:21:38Z</time>
      </trkpt>
      <trkpt lat="44.87696" lon="5.73184">
        <ele>687.5</ele>
        <time>2023-08-03T08:21:40Z</time>
      </trkpt>
      <trkpt lat="44.87695" lon="5.73193">
        <ele>687.5</ele>
        <time>2023-08-03T08:21:41Z</time>
      </trkpt>
      <trkpt lat="44.87695" lon="5.73246">
        <ele>687.7</ele>
        <time>2023-08-03T08:21:47Z</time>
      </trkpt>
      <trkpt lat="44.87694" lon="5.73255">
        <ele>687.7</ele>
        <time>2023-08-03T08:21:48Z</time>
      </trkpt>
      <trkpt lat="44.87689" lon="5.73282">
        <ele>687.8</ele>
        <time>2023-08-03T08:21:51Z</time>
      </trkpt>
      <trkpt lat="44.87686" lon="5.7329">
        <ele>687.8</ele>
        <time>2023-08-03T08:21:52Z</time>
      </trkpt>
      <trkpt lat="44.8768" lon="5.73307">
        <ele>687.8</ele>
        <time>2023-08-03T08:21:54Z</time>
      </trkpt>
      <trkpt lat="44.87678" lon="5.73325">
        <ele>687.8</ele>
        <time>2023-08-03T08:21:56Z</time>
      </trkpt>
      <trkpt lat="44.87678" lon="5.73334">
        <ele>687.8</ele>
        <time>2023-08-03T08:21:57Z</time>
      </trkpt>
      <trkpt lat="44.87678" lon="5.73353">
        <ele>687.8</ele>
        <time>2023-08-03T08:21:59Z</time>
      </trkpt>
      <trkpt lat="44.87675" lon="5.73373">
        <ele>687.8</ele>
        <time>2023-08-03T08:22:01Z</time>
      </trkpt>
      <trkpt lat="44.87672" lon="5.73382">
        <ele>687.8</ele>
        <time>2023-08-03T08:22:02Z</time>
      </trkpt>
      <trkpt lat="44.87668" lon="5.7339">
        <ele>687.8</ele>
        <time>2023-08-03T08:22:03Z</time>
      </trkpt>
      <trkpt lat="44.87662" lon="5.73396">
        <ele>687.8</ele>
        <time>2023-08-03T08:22:04Z</time>
      </trkpt>
      <trkpt lat="44.87643" lon="5.73412">
        <ele>687.9</ele>
        <time>2023-08-03T08:22:07Z</time>
      </trkpt>
      <trkpt lat="44.87635" lon="5.73429">
        <ele>687.9</ele>
        <time>2023-08-03T08:22:09Z</time>
      </trkpt>
      <trkpt lat="44.87624" lon="5.73479">
        <ele>688.5</ele>
        <time>2023-08-03T08:22:14Z</time>
      </trkpt>
      <trkpt lat="44.87617" lon="5.73497">
        <ele>688.8</ele>
        <time>2023-08-03T08:22:16Z</time>
      </trkpt>
      <trkpt lat="44.87613" lon="5.73504">
        <ele>689</ele>
        <time>2023-08-03T08:22:17Z</time>
      </trkpt>
      <trkpt lat="44.87608" lon="5.7351">
        <ele>689.3</ele>
        <time>2023-08-03T08:22:18Z</time>
      </trkpt>
      <trkpt lat="44.87596" lon="5.73516">
        <ele>689.8</ele>
        <time>2023-08-03T08:22:20Z</time>
      </trkpt>
      <trkpt lat="44.8759" lon="5.73516">
        <ele>690</ele>
        <time>2023-08-03T08:22:21Z</time>
      </trkpt>
      <trkpt lat="44.87584" lon="5.73513">
        <ele>690.2</ele>
        <time>2023-08-03T08:22:22Z</time>
      </trkpt>
      <trkpt lat="44.87579" lon="5.73508">
        <ele>690.4</ele>
        <time>2023-08-03T08:22:23Z</time>
      </trkpt>
      <trkpt lat="44.87575" lon="5.73503">
        <ele>690.6</ele>
        <time>2023-08-03T08:22:24Z</time>
      </trkpt>
      <trkpt lat="44.87568" lon="5.73491">
        <ele>691</ele>
        <time>2023-08-03T08:22:26Z</time>
      </trkpt>
      <trkpt lat="44.87565" lon="5.73484">
        <ele>691.2</ele>
        <time>2023-08-03T08:22:27Z</time>
      </trkpt>
      <trkpt lat="44.87562" lon="5.73477">
        <ele>691.4</ele>
        <time>2023-08-03T08:22:28Z</time>
      </trkpt>
      <trkpt lat="44.8756" lon="5.73471">
        <ele>691.7</ele>
        <time>2023-08-03T08:22:29Z</time>
      </trkpt>
      <trkpt lat="44.87556" lon="5.73465">
        <ele>691.9</ele>
        <time>2023-08-03T08:22:30Z</time>
      </trkpt>
      <trkpt lat="44.87546" lon="5.73449">
        <ele>692.5</ele>
        <time>2023-08-03T08:22:33Z</time>
      </trkpt>
      <trkpt lat="44.87542" lon="5.73445">
        <ele>692.6</ele>
        <time>2023-08-03T08:22:34Z</time>
      </trkpt>
      <trkpt lat="44.87536" lon="5.73442">
        <ele>692.8</ele>
        <time>2023-08-03T08:22:35Z</time>
      </trkpt>
      <trkpt lat="44.87526" lon="5.73438">
        <ele>693.1</ele>
        <time>2023-08-03T08:22:37Z</time>
      </trkpt>
      <trkpt lat="44.87521" lon="5.73438">
        <ele>693.3</ele>
        <time>2023-08-03T08:22:38Z</time>
      </trkpt>
      <trkpt lat="44.8751" lon="5.73439">
        <ele>693.4</ele>
        <time>2023-08-03T08:22:40Z</time>
      </trkpt>
      <trkpt lat="44.87504" lon="5.73441">
        <ele>693.5</ele>
        <time>2023-08-03T08:22:41Z</time>
      </trkpt>
      <trkpt lat="44.87498" lon="5.73444">
        <ele>693.6</ele>
        <time>2023-08-03T08:22:42Z</time>
      </trkpt>
      <trkpt lat="44.87487" lon="5.73451">
        <ele>693.7</ele>
        <time>2023-08-03T08:22:44Z</time>
      </trkpt>
      <trkpt lat="44.87477" lon="5.73458">
        <ele>693.9</ele>
        <time>2023-08-03T08:22:46Z</time>
      </trkpt>
      <trkpt lat="44.87458" lon="5.73475">
        <ele>694.3</ele>
        <time>2023-08-03T08:22:50Z</time>
      </trkpt>
      <trkpt lat="44.8745" lon="5.73485">
        <ele>694.5</ele>
        <time>2023-08-03T08:22:52Z</time>
      </trkpt>
      <trkpt lat="44.87445" lon="5.7349">
        <ele>694.6</ele>
        <time>2023-08-03T08:22:53Z</time>
      </trkpt>
      <trkpt lat="44.87433" lon="5.73503">
        <ele>695</ele>
        <time>2023-08-03T08:22:56Z</time>
      </trkpt>
      <trkpt lat="44.87417" lon="5.7352">
        <ele>695.3</ele>
        <time>2023-08-03T08:23:00Z</time>
      </trkpt>
      <trkpt lat="44.874" lon="5.73537">
        <ele>695.7</ele>
        <time>2023-08-03T08:23:04Z</time>
      </trkpt>
      <trkpt lat="44.87387" lon="5.73551">
        <ele>696</ele>
        <time>2023-08-03T08:23:07Z</time>
      </trkpt>
      <trkpt lat="44.87378" lon="5.73559">
        <ele>696.2</ele>
        <time>2023-08-03T08:23:09Z</time>
      </trkpt>
      <trkpt lat="44.87374" lon="5.73564">
        <ele>696.3</ele>
        <time>2023-08-03T08:23:10Z</time>
      </trkpt>
      <trkpt lat="44.87364" lon="5.73576">
        <ele>696.6</ele>
        <time>2023-08-03T08:23:13Z</time>
      </trkpt>
      <trkpt lat="44.87352" lon="5.7359">
        <ele>697.1</ele>
        <time>2023-08-03T08:23:16Z</time>
      </trkpt>
      <trkpt lat="44.87336" lon="5.73611">
        <ele>697.8</ele>
        <time>2023-08-03T08:23:20Z</time>
      </trkpt>
      <trkpt lat="44.87323" lon="5.7363">
        <ele>696.8</ele>
        <time>2023-08-03T08:23:24Z</time>
      </trkpt>
      <trkpt lat="44.87321" lon="5.7363">
        <ele>696.6</ele>
        <time>2023-08-03T08:23:25Z</time>
      </trkpt>
      <trkpt lat="44.87324" lon="5.73619">
        <ele>695.6</ele>
        <time>2023-08-03T08:23:28Z</time>
      </trkpt>
      <trkpt lat="44.87337" lon="5.736">
        <ele>693.5</ele>
        <time>2023-08-03T08:23:32Z</time>
      </trkpt>
      <trkpt lat="44.87356" lon="5.73564">
        <ele>690.3</ele>
        <time>2023-08-03T08:23:37Z</time>
      </trkpt>
      <trkpt lat="44.87361" lon="5.73557">
        <ele>689.7</ele>
        <time>2023-08-03T08:23:38Z</time>
      </trkpt>
      <trkpt lat="44.87366" lon="5.7355">
        <ele>689</ele>
        <time>2023-08-03T08:23:39Z</time>
      </trkpt>
      <trkpt lat="44.87383" lon="5.73529">
        <ele>686.8</ele>
        <time>2023-08-03T08:23:42Z</time>
      </trkpt>
      <trkpt lat="44.87394" lon="5.73505">
        <ele>684.6</ele>
        <time>2023-08-03T08:23:45Z</time>
      </trkpt>
      <trkpt lat="44.87396" lon="5.73498">
        <ele>683.9</ele>
        <time>2023-08-03T08:23:46Z</time>
      </trkpt>
      <trkpt lat="44.87397" lon="5.73489">
        <ele>682.8</ele>
        <time>2023-08-03T08:23:47Z</time>
      </trkpt>
      <trkpt lat="44.87392" lon="5.73475">
        <ele>681.2</ele>
        <time>2023-08-03T08:23:49Z</time>
      </trkpt>
      <trkpt lat="44.87387" lon="5.73468">
        <ele>680.4</ele>
        <time>2023-08-03T08:23:50Z</time>
      </trkpt>
      <trkpt lat="44.87381" lon="5.73462">
        <ele>679.4</ele>
        <time>2023-08-03T08:23:51Z</time>
      </trkpt>
      <trkpt lat="44.87367" lon="5.73451">
        <ele>677.5</ele>
        <time>2023-08-03T08:23:53Z</time>
      </trkpt>
      <trkpt lat="44.87353" lon="5.7344">
        <ele>675.6</ele>
        <time>2023-08-03T08:23:55Z</time>
      </trkpt>
      <trkpt lat="44.87345" lon="5.73436">
        <ele>674.7</ele>
        <time>2023-08-03T08:23:56Z</time>
      </trkpt>
      <trkpt lat="44.87337" lon="5.73432">
        <ele>673.8</ele>
        <time>2023-08-03T08:23:57Z</time>
      </trkpt>
      <trkpt lat="44.87305" lon="5.73422">
        <ele>670.1</ele>
        <time>2023-08-03T08:24:01Z</time>
      </trkpt>
      <trkpt lat="44.87289" lon="5.73413">
        <ele>668.1</ele>
        <time>2023-08-03T08:24:03Z</time>
      </trkpt>
      <trkpt lat="44.87273" lon="5.73401">
        <ele>666</ele>
        <time>2023-08-03T08:24:05Z</time>
      </trkpt>
      <trkpt lat="44.87247" lon="5.73384">
        <ele>663.1</ele>
        <time>2023-08-03T08:24:08Z</time>
      </trkpt>
      <trkpt lat="44.87228" lon="5.73378">
        <ele>661.3</ele>
        <time>2023-08-03T08:24:10Z</time>
      </trkpt>
      <trkpt lat="44.87219" lon="5.73378">
        <ele>660.6</ele>
        <time>2023-08-03T08:24:11Z</time>
      </trkpt>
      <trkpt lat="44.87209" lon="5.73379">
        <ele>659.9</ele>
        <time>2023-08-03T08:24:12Z</time>
      </trkpt>
      <trkpt lat="44.87183" lon="5.73387">
        <ele>658.5</ele>
        <time>2023-08-03T08:24:15Z</time>
      </trkpt>
      <trkpt lat="44.87171" lon="5.73395">
        <ele>658.3</ele>
        <time>2023-08-03T08:24:17Z</time>
      </trkpt>
      <trkpt lat="44.87167" lon="5.73399">
        <ele>658.1</ele>
        <time>2023-08-03T08:24:18Z</time>
      </trkpt>
      <trkpt lat="44.87163" lon="5.73405">
        <ele>658</ele>
        <time>2023-08-03T08:24:19Z</time>
      </trkpt>
      <trkpt lat="44.87161" lon="5.7342">
        <ele>657.5</ele>
        <time>2023-08-03T08:24:21Z</time>
      </trkpt>
      <trkpt lat="44.8716" lon="5.73428">
        <ele>657.2</ele>
        <time>2023-08-03T08:24:22Z</time>
      </trkpt>
      <trkpt lat="44.87159" lon="5.73437">
        <ele>656.9</ele>
        <time>2023-08-03T08:24:23Z</time>
      </trkpt>
      <trkpt lat="44.87162" lon="5.73455">
        <ele>656.4</ele>
        <time>2023-08-03T08:24:25Z</time>
      </trkpt>
      <trkpt lat="44.8718" lon="5.73488">
        <ele>655</ele>
        <time>2023-08-03T08:24:29Z</time>
      </trkpt>
      <trkpt lat="44.87195" lon="5.73511">
        <ele>653.8</ele>
        <time>2023-08-03T08:24:32Z</time>
      </trkpt>
      <trkpt lat="44.87197" lon="5.73521">
        <ele>653.4</ele>
        <time>2023-08-03T08:24:33Z</time>
      </trkpt>
      <trkpt lat="44.87198" lon="5.73531">
        <ele>652.8</ele>
        <time>2023-08-03T08:24:34Z</time>
      </trkpt>
      <trkpt lat="44.87194" lon="5.73549">
        <ele>651.4</ele>
        <time>2023-08-03T08:24:36Z</time>
      </trkpt>
      <trkpt lat="44.87183" lon="5.73566">
        <ele>649.4</ele>
        <time>2023-08-03T08:24:38Z</time>
      </trkpt>
      <trkpt lat="44.87176" lon="5.73574">
        <ele>648.4</ele>
        <time>2023-08-03T08:24:39Z</time>
      </trkpt>
      <trkpt lat="44.87151" lon="5.73603">
        <ele>645.1</ele>
        <time>2023-08-03T08:24:43Z</time>
      </trkpt>
      <trkpt lat="44.87149" lon="5.73613">
        <ele>644.5</ele>
        <time>2023-08-03T08:24:44Z</time>
      </trkpt>
      <trkpt lat="44.87147" lon="5.73624">
        <ele>643.9</ele>
        <time>2023-08-03T08:24:45Z</time>
      </trkpt>
      <trkpt lat="44.87146" lon="5.73659">
        <ele>642.1</ele>
        <time>2023-08-03T08:24:48Z</time>
      </trkpt>
      <trkpt lat="44.87145" lon="5.73671">
        <ele>641.4</ele>
        <time>2023-08-03T08:24:49Z</time>
      </trkpt>
      <trkpt lat="44.87141" lon="5.73696">
        <ele>639.9</ele>
        <time>2023-08-03T08:24:51Z</time>
      </trkpt>
      <trkpt lat="44.87137" lon="5.73708">
        <ele>639.2</ele>
        <time>2023-08-03T08:24:52Z</time>
      </trkpt>
      <trkpt lat="44.87113" lon="5.7377">
        <ele>635.6</ele>
        <time>2023-08-03T08:24:57Z</time>
      </trkpt>
      <trkpt lat="44.87107" lon="5.73797">
        <ele>633.8</ele>
        <time>2023-08-03T08:24:59Z</time>
      </trkpt>
      <trkpt lat="44.87106" lon="5.73811">
        <ele>632.9</ele>
        <time>2023-08-03T08:25:00Z</time>
      </trkpt>
      <trkpt lat="44.87102" lon="5.7384">
        <ele>631.3</ele>
        <time>2023-08-03T08:25:02Z</time>
      </trkpt>
      <trkpt lat="44.87095" lon="5.73868">
        <ele>629.7</ele>
        <time>2023-08-03T08:25:04Z</time>
      </trkpt>
      <trkpt lat="44.87073" lon="5.73939">
        <ele>625.9</ele>
        <time>2023-08-03T08:25:09Z</time>
      </trkpt>
      <trkpt lat="44.87064" lon="5.73966">
        <ele>623.7</ele>
        <time>2023-08-03T08:25:11Z</time>
      </trkpt>
      <trkpt lat="44.87032" lon="5.74032">
        <ele>617.5</ele>
        <time>2023-08-03T08:25:16Z</time>
      </trkpt>
      <trkpt lat="44.87023" lon="5.74057">
        <ele>615.7</ele>
        <time>2023-08-03T08:25:18Z</time>
      </trkpt>
      <trkpt lat="44.87021" lon="5.74068">
        <ele>614.8</ele>
        <time>2023-08-03T08:25:19Z</time>
      </trkpt>
      <trkpt lat="44.8702" lon="5.74079">
        <ele>613.9</ele>
        <time>2023-08-03T08:25:20Z</time>
      </trkpt>
      <trkpt lat="44.87022" lon="5.74101">
        <ele>611.9</ele>
        <time>2023-08-03T08:25:22Z</time>
      </trkpt>
      <trkpt lat="44.87023" lon="5.74112">
        <ele>611</ele>
        <time>2023-08-03T08:25:23Z</time>
      </trkpt>
      <trkpt lat="44.87017" lon="5.74132">
        <ele>609.1</ele>
        <time>2023-08-03T08:25:25Z</time>
      </trkpt>
      <trkpt lat="44.86995" lon="5.74154">
        <ele>605.4</ele>
        <time>2023-08-03T08:25:28Z</time>
      </trkpt>
      <trkpt lat="44.86988" lon="5.74162">
        <ele>604.3</ele>
        <time>2023-08-03T08:25:29Z</time>
      </trkpt>
      <trkpt lat="44.86974" lon="5.74176">
        <ele>602.2</ele>
        <time>2023-08-03T08:25:31Z</time>
      </trkpt>
      <trkpt lat="44.86969" lon="5.74184">
        <ele>601.2</ele>
        <time>2023-08-03T08:25:32Z</time>
      </trkpt>
      <trkpt lat="44.86965" lon="5.74192">
        <ele>600.2</ele>
        <time>2023-08-03T08:25:33Z</time>
      </trkpt>
      <trkpt lat="44.86964" lon="5.74211">
        <ele>598.2</ele>
        <time>2023-08-03T08:25:35Z</time>
      </trkpt>
      <trkpt lat="44.86967" lon="5.74222">
        <ele>597</ele>
        <time>2023-08-03T08:25:36Z</time>
      </trkpt>
      <trkpt lat="44.8697" lon="5.74233">
        <ele>595.8</ele>
        <time>2023-08-03T08:25:37Z</time>
      </trkpt>
      <trkpt lat="44.86986" lon="5.74282">
        <ele>592.4</ele>
        <time>2023-08-03T08:25:41Z</time>
      </trkpt>
      <trkpt lat="44.86997" lon="5.74307">
        <ele>591.7</ele>
        <time>2023-08-03T08:25:43Z</time>
      </trkpt>
      <trkpt lat="44.87017" lon="5.74349">
        <ele>591.4</ele>
        <time>2023-08-03T08:25:47Z</time>
      </trkpt>
      <trkpt lat="44.87026" lon="5.74368">
        <ele>591</ele>
        <time>2023-08-03T08:25:49Z</time>
      </trkpt>
      <trkpt lat="44.8703" lon="5.74378">
        <ele>590.7</ele>
        <time>2023-08-03T08:25:50Z</time>
      </trkpt>
      <trkpt lat="44.87041" lon="5.74409">
        <ele>589.7</ele>
        <time>2023-08-03T08:25:53Z</time>
      </trkpt>
      <trkpt lat="44.87049" lon="5.74429">
        <ele>589</ele>
        <time>2023-08-03T08:25:55Z</time>
      </trkpt>
      <trkpt lat="44.87058" lon="5.74447">
        <ele>588.5</ele>
        <time>2023-08-03T08:25:57Z</time>
      </trkpt>
      <trkpt lat="44.87064" lon="5.74454">
        <ele>588.3</ele>
        <time>2023-08-03T08:25:58Z</time>
      </trkpt>
      <trkpt lat="44.87074" lon="5.74466">
        <ele>588.1</ele>
        <time>2023-08-03T08:26:00Z</time>
      </trkpt>
      <trkpt lat="44.8708" lon="5.74482">
        <ele>588.2</ele>
        <time>2023-08-03T08:26:02Z</time>
      </trkpt>
      <trkpt lat="44.87079" lon="5.74495">
        <ele>588.4</ele>
        <time>2023-08-03T08:26:04Z</time>
      </trkpt>
      <trkpt lat="44.87076" lon="5.74502">
        <ele>588.6</ele>
        <time>2023-08-03T08:26:05Z</time>
      </trkpt>
      <trkpt lat="44.87075" lon="5.74509">
        <ele>588.8</ele>
        <time>2023-08-03T08:26:06Z</time>
      </trkpt>
      <trkpt lat="44.87073" lon="5.74523">
        <ele>589.1</ele>
        <time>2023-08-03T08:26:08Z</time>
      </trkpt>
      <trkpt lat="44.87073" lon="5.7453">
        <ele>589.2</ele>
        <time>2023-08-03T08:26:09Z</time>
      </trkpt>
      <trkpt lat="44.87073" lon="5.74555">
        <ele>589.5</ele>
        <time>2023-08-03T08:26:13Z</time>
      </trkpt>
      <trkpt lat="44.87072" lon="5.74567">
        <ele>589.4</ele>
        <time>2023-08-03T08:26:15Z</time>
      </trkpt>
      <trkpt lat="44.87065" lon="5.74602">
        <ele>589</ele>
        <time>2023-08-03T08:26:20Z</time>
      </trkpt>
      <trkpt lat="44.8705" lon="5.74664">
        <ele>588.7</ele>
        <time>2023-08-03T08:26:27Z</time>
      </trkpt>
      <trkpt lat="44.87048" lon="5.74673">
        <ele>588.6</ele>
        <time>2023-08-03T08:26:28Z</time>
      </trkpt>
      <trkpt lat="44.87044" lon="5.74708">
        <ele>588.3</ele>
        <time>2023-08-03T08:26:32Z</time>
      </trkpt>
      <trkpt lat="44.87042" lon="5.74727">
        <ele>588.1</ele>
        <time>2023-08-03T08:26:34Z</time>
      </trkpt>
      <trkpt lat="44.87043" lon="5.74745">
        <ele>588</ele>
        <time>2023-08-03T08:26:36Z</time>
      </trkpt>
      <trkpt lat="44.87045" lon="5.74752">
        <ele>588.2</ele>
        <time>2023-08-03T08:26:37Z</time>
      </trkpt>
      <trkpt lat="44.87052" lon="5.74759">
        <ele>588.8</ele>
        <time>2023-08-03T08:26:40Z</time>
      </trkpt>
      <trkpt lat="44.87056" lon="5.74762">
        <ele>589.1</ele>
        <time>2023-08-03T08:26:43Z</time>
      </trkpt>
      <trkpt lat="44.87057" lon="5.74766">
        <ele>589.4</ele>
        <time>2023-08-03T08:26:45Z</time>
      </trkpt>
      <trkpt lat="44.87063" lon="5.74785">
        <ele>590.5</ele>
        <time>2023-08-03T08:26:51Z</time>
      </trkpt>
      <trkpt lat="44.87064" lon="5.74789">
        <ele>590.8</ele>
        <time>2023-08-03T08:26:52Z</time>
      </trkpt>
      <trkpt lat="44.87071" lon="5.7481">
        <ele>592.4</ele>
        <time>2023-08-03T08:26:58Z</time>
      </trkpt>
      <trkpt lat="44.87072" lon="5.74814">
        <ele>592.7</ele>
        <time>2023-08-03T08:26:59Z</time>
      </trkpt>
      <trkpt lat="44.8708" lon="5.74837">
        <ele>594.8</ele>
        <time>2023-08-03T08:27:06Z</time>
      </trkpt>
      <trkpt lat="44.87081" lon="5.74841">
        <ele>595.1</ele>
        <time>2023-08-03T08:27:07Z</time>
      </trkpt>
      <trkpt lat="44.87093" lon="5.74874">
        <ele>598.4</ele>
        <time>2023-08-03T08:27:17Z</time>
      </trkpt>
      <trkpt lat="44.87098" lon="5.7489">
        <ele>599.7</ele>
        <time>2023-08-03T08:27:22Z</time>
      </trkpt>
      <trkpt lat="44.87098" lon="5.74903">
        <ele>599.6</ele>
        <time>2023-08-03T08:27:26Z</time>
      </trkpt>
      <trkpt lat="44.87091" lon="5.74931">
        <ele>596.4</ele>
        <time>2023-08-03T08:27:31Z</time>
      </trkpt>
      <trkpt lat="44.87088" lon="5.74951">
        <ele>594.3</ele>
        <time>2023-08-03T08:27:33Z</time>
      </trkpt>
      <trkpt lat="44.87087" lon="5.74974">
        <ele>591.9</ele>
        <time>2023-08-03T08:27:35Z</time>
      </trkpt>
      <trkpt lat="44.87087" lon="5.74998">
        <ele>589.3</ele>
        <time>2023-08-03T08:27:37Z</time>
      </trkpt>
      <trkpt lat="44.87085" lon="5.75033">
        <ele>586.1</ele>
        <time>2023-08-03T08:27:40Z</time>
      </trkpt>
      <trkpt lat="44.87085" lon="5.75044">
        <ele>585.4</ele>
        <time>2023-08-03T08:27:41Z</time>
      </trkpt>
      <trkpt lat="44.87085" lon="5.75065">
        <ele>584.2</ele>
        <time>2023-08-03T08:27:43Z</time>
      </trkpt>
      <trkpt lat="44.87085" lon="5.75076">
        <ele>583.6</ele>
        <time>2023-08-03T08:27:44Z</time>
      </trkpt>
      <trkpt lat="44.87087" lon="5.751">
        <ele>582.3</ele>
        <time>2023-08-03T08:27:46Z</time>
      </trkpt>
      <trkpt lat="44.8709" lon="5.75125">
        <ele>580.8</ele>
        <time>2023-08-03T08:27:48Z</time>
      </trkpt>
      <trkpt lat="44.87093" lon="5.75164">
        <ele>578.3</ele>
        <time>2023-08-03T08:27:51Z</time>
      </trkpt>
      <trkpt lat="44.87094" lon="5.75179">
        <ele>577.5</ele>
        <time>2023-08-03T08:27:52Z</time>
      </trkpt>
      <trkpt lat="44.87095" lon="5.75193">
        <ele>576.6</ele>
        <time>2023-08-03T08:27:53Z</time>
      </trkpt>
      <trkpt lat="44.87103" lon="5.75247">
        <ele>573.5</ele>
        <time>2023-08-03T08:27:57Z</time>
      </trkpt>
      <trkpt lat="44.87118" lon="5.75325">
        <ele>571.2</ele>
        <time>2023-08-03T08:28:03Z</time>
      </trkpt>
      <trkpt lat="44.8712" lon="5.75337">
        <ele>571.2</ele>
        <time>2023-08-03T08:28:04Z</time>
      </trkpt>
      <trkpt lat="44.87133" lon="5.75388">
        <ele>572.2</ele>
        <time>2023-08-03T08:28:09Z</time>
      </trkpt>
      <trkpt lat="44.87136" lon="5.75404">
        <ele>572.7</ele>
        <time>2023-08-03T08:28:11Z</time>
      </trkpt>
      <trkpt lat="44.8714" lon="5.75417">
        <ele>573</ele>
        <time>2023-08-03T08:28:13Z</time>
      </trkpt>
      <trkpt lat="44.87157" lon="5.75447">
        <ele>573.9</ele>
        <time>2023-08-03T08:28:19Z</time>
      </trkpt>
      <trkpt lat="44.8716" lon="5.75452">
        <ele>574</ele>
        <time>2023-08-03T08:28:20Z</time>
      </trkpt>
      <trkpt lat="44.87165" lon="5.75463">
        <ele>574.1</ele>
        <time>2023-08-03T08:28:22Z</time>
      </trkpt>
      <trkpt lat="44.87171" lon="5.75481">
        <ele>574.3</ele>
        <time>2023-08-03T08:28:25Z</time>
      </trkpt>
      <trkpt lat="44.87181" lon="5.75516">
        <ele>574.5</ele>
        <time>2023-08-03T08:28:30Z</time>
      </trkpt>
      <trkpt lat="44.87189" lon="5.75551">
        <ele>575.1</ele>
        <time>2023-08-03T08:28:35Z</time>
      </trkpt>
      <trkpt lat="44.87192" lon="5.75566">
        <ele>575.5</ele>
        <time>2023-08-03T08:28:37Z</time>
      </trkpt>
      <trkpt lat="44.872" lon="5.756">
        <ele>576.8</ele>
        <time>2023-08-03T08:28:42Z</time>
      </trkpt>
      <trkpt lat="44.87203" lon="5.75607">
        <ele>577.1</ele>
        <time>2023-08-03T08:28:43Z</time>
      </trkpt>
      <trkpt lat="44.87214" lon="5.75636">
        <ele>578.6</ele>
        <time>2023-08-03T08:28:48Z</time>
      </trkpt>
      <trkpt lat="44.87222" lon="5.75651">
        <ele>579.5</ele>
        <time>2023-08-03T08:28:51Z</time>
      </trkpt>
      <trkpt lat="44.87238" lon="5.75686">
        <ele>581.8</ele>
        <time>2023-08-03T08:28:58Z</time>
      </trkpt>
      <trkpt lat="44.87251" lon="5.7571">
        <ele>583.9</ele>
        <time>2023-08-03T08:29:05Z</time>
      </trkpt>
      <trkpt lat="44.87257" lon="5.75727">
        <ele>585.5</ele>
        <time>2023-08-03T08:29:10Z</time>
      </trkpt>
      <trkpt lat="44.87263" lon="5.7574">
        <ele>586.7</ele>
        <time>2023-08-03T08:29:14Z</time>
      </trkpt>
      <trkpt lat="44.87273" lon="5.75761">
        <ele>588.9</ele>
        <time>2023-08-03T08:29:21Z</time>
      </trkpt>
      <trkpt lat="44.87276" lon="5.75768">
        <ele>589.7</ele>
        <time>2023-08-03T08:29:24Z</time>
      </trkpt>
      <trkpt lat="44.8728" lon="5.75776">
        <ele>590.5</ele>
        <time>2023-08-03T08:29:27Z</time>
      </trkpt>
      <trkpt lat="44.87284" lon="5.75791">
        <ele>592</ele>
        <time>2023-08-03T08:29:33Z</time>
      </trkpt>
      <trkpt lat="44.87286" lon="5.75802">
        <ele>593</ele>
        <time>2023-08-03T08:29:37Z</time>
      </trkpt>
      <trkpt lat="44.87289" lon="5.75818">
        <ele>594.4</ele>
        <time>2023-08-03T08:29:42Z</time>
      </trkpt>
      <trkpt lat="44.87289" lon="5.75821">
        <ele>594.6</ele>
        <time>2023-08-03T08:29:43Z</time>
      </trkpt>
      <trkpt lat="44.87289" lon="5.75827">
        <ele>595</ele>
        <time>2023-08-03T08:29:45Z</time>
      </trkpt>
      <trkpt lat="44.87289" lon="5.75839">
        <ele>595.9</ele>
        <time>2023-08-03T08:29:49Z</time>
      </trkpt>
      <trkpt lat="44.87289" lon="5.75842">
        <ele>596.1</ele>
        <time>2023-08-03T08:29:50Z</time>
      </trkpt>
      <trkpt lat="44.87287" lon="5.75854">
        <ele>596.8</ele>
        <time>2023-08-03T08:29:54Z</time>
      </trkpt>
      <trkpt lat="44.87286" lon="5.75864">
        <ele>597.3</ele>
        <time>2023-08-03T08:29:56Z</time>
      </trkpt>
      <trkpt lat="44.8729" lon="5.75885">
        <ele>598.4</ele>
        <time>2023-08-03T08:30:01Z</time>
      </trkpt>
      <trkpt lat="44.8729" lon="5.75889">
        <ele>598.6</ele>
        <time>2023-08-03T08:30:02Z</time>
      </trkpt>
      <trkpt lat="44.87294" lon="5.75908">
        <ele>599.7</ele>
        <time>2023-08-03T08:30:07Z</time>
      </trkpt>
      <trkpt lat="44.87294" lon="5.75912">
        <ele>599.9</ele>
        <time>2023-08-03T08:30:08Z</time>
      </trkpt>
      <trkpt lat="44.87297" lon="5.75923">
        <ele>600.7</ele>
        <time>2023-08-03T08:30:11Z</time>
      </trkpt>
      <trkpt lat="44.87301" lon="5.75942">
        <ele>602.3</ele>
        <time>2023-08-03T08:30:16Z</time>
      </trkpt>
      <trkpt lat="44.87302" lon="5.75946">
        <ele>602.6</ele>
        <time>2023-08-03T08:30:17Z</time>
      </trkpt>
      <trkpt lat="44.87306" lon="5.75957">
        <ele>603.4</ele>
        <time>2023-08-03T08:30:20Z</time>
      </trkpt>
      <trkpt lat="44.87314" lon="5.7597">
        <ele>604.4</ele>
        <time>2023-08-03T08:30:24Z</time>
      </trkpt>
      <trkpt lat="44.87316" lon="5.75972">
        <ele>604.6</ele>
        <time>2023-08-03T08:30:25Z</time>
      </trkpt>
      <trkpt lat="44.87327" lon="5.75987">
        <ele>605.6</ele>
        <time>2023-08-03T08:30:30Z</time>
      </trkpt>
      <trkpt lat="44.87333" lon="5.75995">
        <ele>606.3</ele>
        <time>2023-08-03T08:30:33Z</time>
      </trkpt>
      <trkpt lat="44.87335" lon="5.75998">
        <ele>606.5</ele>
        <time>2023-08-03T08:30:34Z</time>
      </trkpt>
      <trkpt lat="44.87345" lon="5.76012">
        <ele>607.7</ele>
        <time>2023-08-03T08:30:39Z</time>
      </trkpt>
      <trkpt lat="44.87349" lon="5.76019">
        <ele>608.3</ele>
        <time>2023-08-03T08:30:41Z</time>
      </trkpt>
      <trkpt lat="44.87354" lon="5.76028">
        <ele>609.2</ele>
        <time>2023-08-03T08:30:44Z</time>
      </trkpt>
      <trkpt lat="44.87356" lon="5.76031">
        <ele>609.6</ele>
        <time>2023-08-03T08:30:45Z</time>
      </trkpt>
      <trkpt lat="44.87364" lon="5.76045">
        <ele>611.2</ele>
        <time>2023-08-03T08:30:51Z</time>
      </trkpt>
      <trkpt lat="44.8737" lon="5.76059">
        <ele>612.9</ele>
        <time>2023-08-03T08:30:57Z</time>
      </trkpt>
      <trkpt lat="44.87373" lon="5.76063">
        <ele>613.5</ele>
        <time>2023-08-03T08:30:59Z</time>
      </trkpt>
      <trkpt lat="44.8738" lon="5.76073">
        <ele>614.9</ele>
        <time>2023-08-03T08:31:04Z</time>
      </trkpt>
      <trkpt lat="44.87384" lon="5.76079">
        <ele>615.8</ele>
        <time>2023-08-03T08:31:07Z</time>
      </trkpt>
      <trkpt lat="44.87391" lon="5.76085">
        <ele>616.9</ele>
        <time>2023-08-03T08:31:11Z</time>
      </trkpt>
      <trkpt lat="44.87393" lon="5.76086">
        <ele>617.2</ele>
        <time>2023-08-03T08:31:12Z</time>
      </trkpt>
      <trkpt lat="44.87402" lon="5.76093">
        <ele>618.6</ele>
        <time>2023-08-03T08:31:17Z</time>
      </trkpt>
      <trkpt lat="44.87407" lon="5.76099">
        <ele>619.5</ele>
        <time>2023-08-03T08:31:20Z</time>
      </trkpt>
      <trkpt lat="44.87408" lon="5.76104">
        <ele>620</ele>
        <time>2023-08-03T08:31:22Z</time>
      </trkpt>
      <trkpt lat="44.87408" lon="5.76116">
        <ele>621.1</ele>
        <time>2023-08-03T08:31:26Z</time>
      </trkpt>
      <trkpt lat="44.87408" lon="5.76119">
        <ele>621.3</ele>
        <time>2023-08-03T08:31:27Z</time>
      </trkpt>
      <trkpt lat="44.87407" lon="5.76122">
        <ele>621.6</ele>
        <time>2023-08-03T08:31:28Z</time>
      </trkpt>
      <trkpt lat="44.87405" lon="5.76132">
        <ele>622.4</ele>
        <time>2023-08-03T08:31:31Z</time>
      </trkpt>
      <trkpt lat="44.87405" lon="5.76136">
        <ele>622.7</ele>
        <time>2023-08-03T08:31:32Z</time>
      </trkpt>
      <trkpt lat="44.87405" lon="5.7614">
        <ele>622.9</ele>
        <time>2023-08-03T08:31:33Z</time>
      </trkpt>
      <trkpt lat="44.87408" lon="5.76151">
        <ele>623.7</ele>
        <time>2023-08-03T08:31:36Z</time>
      </trkpt>
      <trkpt lat="44.87411" lon="5.76161">
        <ele>624.5</ele>
        <time>2023-08-03T08:31:39Z</time>
      </trkpt>
      <trkpt lat="44.87414" lon="5.76178">
        <ele>625.6</ele>
        <time>2023-08-03T08:31:44Z</time>
      </trkpt>
      <trkpt lat="44.87414" lon="5.76187">
        <ele>626.1</ele>
        <time>2023-08-03T08:31:47Z</time>
      </trkpt>
      <trkpt lat="44.87414" lon="5.76196">
        <ele>626.7</ele>
        <time>2023-08-03T08:31:50Z</time>
      </trkpt>
      <trkpt lat="44.87412" lon="5.76209">
        <ele>627.6</ele>
        <time>2023-08-03T08:31:54Z</time>
      </trkpt>
      <trkpt lat="44.87412" lon="5.76215">
        <ele>628.1</ele>
        <time>2023-08-03T08:31:56Z</time>
      </trkpt>
      <trkpt lat="44.87411" lon="5.76229">
        <ele>629.2</ele>
        <time>2023-08-03T08:32:01Z</time>
      </trkpt>
      <trkpt lat="44.8741" lon="5.76241">
        <ele>630.1</ele>
        <time>2023-08-03T08:32:05Z</time>
      </trkpt>
      <trkpt lat="44.8741" lon="5.76249">
        <ele>630.8</ele>
        <time>2023-08-03T08:32:08Z</time>
      </trkpt>
      <trkpt lat="44.87412" lon="5.76261">
        <ele>631.8</ele>
        <time>2023-08-03T08:32:12Z</time>
      </trkpt>
      <trkpt lat="44.87414" lon="5.76268">
        <ele>632.3</ele>
        <time>2023-08-03T08:32:14Z</time>
      </trkpt>
      <trkpt lat="44.87416" lon="5.76271">
        <ele>632.6</ele>
        <time>2023-08-03T08:32:15Z</time>
      </trkpt>
      <trkpt lat="44.8742" lon="5.7628">
        <ele>633.4</ele>
        <time>2023-08-03T08:32:18Z</time>
      </trkpt>
      <trkpt lat="44.87425" lon="5.76291">
        <ele>634.1</ele>
        <time>2023-08-03T08:32:22Z</time>
      </trkpt>
      <trkpt lat="44.87428" lon="5.76297">
        <ele>634.6</ele>
        <time>2023-08-03T08:32:24Z</time>
      </trkpt>
      <trkpt lat="44.87434" lon="5.76309">
        <ele>635.5</ele>
        <time>2023-08-03T08:32:28Z</time>
      </trkpt>
      <trkpt lat="44.87436" lon="5.76317">
        <ele>636</ele>
        <time>2023-08-03T08:32:30Z</time>
      </trkpt>
      <trkpt lat="44.87435" lon="5.76328">
        <ele>636.7</ele>
        <time>2023-08-03T08:32:33Z</time>
      </trkpt>
      <trkpt lat="44.8743" lon="5.76345">
        <ele>637.9</ele>
        <time>2023-08-03T08:32:39Z</time>
      </trkpt>
      <trkpt lat="44.87427" lon="5.76353">
        <ele>638.5</ele>
        <time>2023-08-03T08:32:42Z</time>
      </trkpt>
      <trkpt lat="44.87426" lon="5.76366">
        <ele>639.4</ele>
        <time>2023-08-03T08:32:46Z</time>
      </trkpt>
      <trkpt lat="44.87426" lon="5.7639">
        <ele>640.8</ele>
        <time>2023-08-03T08:32:53Z</time>
      </trkpt>
      <trkpt lat="44.87432" lon="5.76413">
        <ele>642</ele>
        <time>2023-08-03T08:32:59Z</time>
      </trkpt>
      <trkpt lat="44.87433" lon="5.76417">
        <ele>642.2</ele>
        <time>2023-08-03T08:33:00Z</time>
      </trkpt>
      <trkpt lat="44.87438" lon="5.76446">
        <ele>643.5</ele>
        <time>2023-08-03T08:33:07Z</time>
      </trkpt>
      <trkpt lat="44.87451" lon="5.76477">
        <ele>645</ele>
        <time>2023-08-03T08:33:16Z</time>
      </trkpt>
      <trkpt lat="44.87456" lon="5.76486">
        <ele>645.3</ele>
        <time>2023-08-03T08:33:19Z</time>
      </trkpt>
      <trkpt lat="44.8746" lon="5.76492">
        <ele>645.4</ele>
        <time>2023-08-03T08:33:21Z</time>
      </trkpt>
      <trkpt lat="44.87468" lon="5.76502">
        <ele>645.5</ele>
        <time>2023-08-03T08:33:25Z</time>
      </trkpt>
      <trkpt lat="44.87472" lon="5.7651">
        <ele>645.4</ele>
        <time>2023-08-03T08:33:27Z</time>
      </trkpt>
      <trkpt lat="44.87474" lon="5.76537">
        <ele>644.6</ele>
        <time>2023-08-03T08:33:32Z</time>
      </trkpt>
      <trkpt lat="44.87473" lon="5.76544">
        <ele>644.3</ele>
        <time>2023-08-03T08:33:33Z</time>
      </trkpt>
      <trkpt lat="44.87469" lon="5.76557">
        <ele>643.4</ele>
        <time>2023-08-03T08:33:35Z</time>
      </trkpt>
      <trkpt lat="44.87457" lon="5.76591">
        <ele>641.2</ele>
        <time>2023-08-03T08:33:39Z</time>
      </trkpt>
      <trkpt lat="44.87456" lon="5.76626">
        <ele>639.6</ele>
        <time>2023-08-03T08:33:42Z</time>
      </trkpt>
      <trkpt lat="44.87455" lon="5.76638">
        <ele>639.2</ele>
        <time>2023-08-03T08:33:43Z</time>
      </trkpt>
      <trkpt lat="44.87448" lon="5.76672">
        <ele>638</ele>
        <time>2023-08-03T08:33:46Z</time>
      </trkpt>
      <trkpt lat="44.87436" lon="5.76755">
        <ele>634.8</ele>
        <time>2023-08-03T08:33:53Z</time>
      </trkpt>
      <trkpt lat="44.87435" lon="5.76768">
        <ele>634.4</ele>
        <time>2023-08-03T08:33:54Z</time>
      </trkpt>
      <trkpt lat="44.87435" lon="5.76781">
        <ele>634.1</ele>
        <time>2023-08-03T08:33:55Z</time>
      </trkpt>
      <trkpt lat="44.87435" lon="5.76794">
        <ele>633.8</ele>
        <time>2023-08-03T08:33:56Z</time>
      </trkpt>
      <trkpt lat="44.87435" lon="5.7682">
        <ele>633.4</ele>
        <time>2023-08-03T08:33:58Z</time>
      </trkpt>
      <trkpt lat="44.87435" lon="5.76832">
        <ele>633.2</ele>
        <time>2023-08-03T08:33:59Z</time>
      </trkpt>
      <trkpt lat="44.87437" lon="5.76856">
        <ele>632.9</ele>
        <time>2023-08-03T08:34:01Z</time>
      </trkpt>
      <trkpt lat="44.87439" lon="5.76867">
        <ele>632.7</ele>
        <time>2023-08-03T08:34:02Z</time>
      </trkpt>
      <trkpt lat="44.87448" lon="5.76935">
        <ele>630.3</ele>
        <time>2023-08-03T08:34:08Z</time>
      </trkpt>
      <trkpt lat="44.87451" lon="5.76986">
        <ele>627.3</ele>
        <time>2023-08-03T08:34:12Z</time>
      </trkpt>
      <trkpt lat="44.87449" lon="5.77018">
        <ele>625.2</ele>
        <time>2023-08-03T08:34:15Z</time>
      </trkpt>
      <trkpt lat="44.8745" lon="5.77028">
        <ele>624.6</ele>
        <time>2023-08-03T08:34:16Z</time>
      </trkpt>
      <trkpt lat="44.87452" lon="5.77038">
        <ele>623.9</ele>
        <time>2023-08-03T08:34:17Z</time>
      </trkpt>
      <trkpt lat="44.87462" lon="5.77055">
        <ele>622.3</ele>
        <time>2023-08-03T08:34:19Z</time>
      </trkpt>
      <trkpt lat="44.87481" lon="5.77072">
        <ele>619.8</ele>
        <time>2023-08-03T08:34:22Z</time>
      </trkpt>
      <trkpt lat="44.87488" lon="5.77076">
        <ele>619</ele>
        <time>2023-08-03T08:34:23Z</time>
      </trkpt>
      <trkpt lat="44.87526" lon="5.77094">
        <ele>615.3</ele>
        <time>2023-08-03T08:34:28Z</time>
      </trkpt>
      <trkpt lat="44.87533" lon="5.77097">
        <ele>614.6</ele>
        <time>2023-08-03T08:34:29Z</time>
      </trkpt>
      <trkpt lat="44.8754" lon="5.771">
        <ele>613.8</ele>
        <time>2023-08-03T08:34:30Z</time>
      </trkpt>
      <trkpt lat="44.87553" lon="5.7711">
        <ele>612.3</ele>
        <time>2023-08-03T08:34:32Z</time>
      </trkpt>
      <trkpt lat="44.87569" lon="5.77117">
        <ele>610.1</ele>
        <time>2023-08-03T08:34:34Z</time>
      </trkpt>
      <trkpt lat="44.87577" lon="5.77118">
        <ele>609</ele>
        <time>2023-08-03T08:34:35Z</time>
      </trkpt>
      <trkpt lat="44.87615" lon="5.77116">
        <ele>604.8</ele>
        <time>2023-08-03T08:34:39Z</time>
      </trkpt>
      <trkpt lat="44.87624" lon="5.77116">
        <ele>604</ele>
        <time>2023-08-03T08:34:40Z</time>
      </trkpt>
      <trkpt lat="44.8765" lon="5.77122">
        <ele>602.1</ele>
        <time>2023-08-03T08:34:44Z</time>
      </trkpt>
      <trkpt lat="44.87653" lon="5.77125">
        <ele>601.3</ele>
        <time>2023-08-03T08:34:45Z</time>
      </trkpt>
      <trkpt lat="44.87653" lon="5.7713">
        <ele>601</ele>
        <time>2023-08-03T08:34:46Z</time>
      </trkpt>
      <trkpt lat="44.87647" lon="5.77138">
        <ele>600.5</ele>
        <time>2023-08-03T08:34:48Z</time>
      </trkpt>
      <trkpt lat="44.87643" lon="5.7714">
        <ele>600.3</ele>
        <time>2023-08-03T08:34:49Z</time>
      </trkpt>
      <trkpt lat="44.8762" lon="5.77153">
        <ele>599.1</ele>
        <time>2023-08-03T08:34:53Z</time>
      </trkpt>
      <trkpt lat="44.87615" lon="5.77156">
        <ele>598.8</ele>
        <time>2023-08-03T08:34:54Z</time>
      </trkpt>
      <trkpt lat="44.87582" lon="5.77175">
        <ele>596.7</ele>
        <time>2023-08-03T08:34:59Z</time>
      </trkpt>
      <trkpt lat="44.87558" lon="5.77187">
        <ele>594.9</ele>
        <time>2023-08-03T08:35:02Z</time>
      </trkpt>
      <trkpt lat="44.87549" lon="5.7719">
        <ele>594.2</ele>
        <time>2023-08-03T08:35:03Z</time>
      </trkpt>
      <trkpt lat="44.87522" lon="5.77203">
        <ele>592.1</ele>
        <time>2023-08-03T08:35:06Z</time>
      </trkpt>
      <trkpt lat="44.87503" lon="5.77209">
        <ele>590.9</ele>
        <time>2023-08-03T08:35:08Z</time>
      </trkpt>
      <trkpt lat="44.87458" lon="5.77211">
        <ele>587.1</ele>
        <time>2023-08-03T08:35:13Z</time>
      </trkpt>
      <trkpt lat="44.87435" lon="5.77209">
        <ele>583.7</ele>
        <time>2023-08-03T08:35:16Z</time>
      </trkpt>
      <trkpt lat="44.87429" lon="5.77208">
        <ele>582.7</ele>
        <time>2023-08-03T08:35:17Z</time>
      </trkpt>
      <trkpt lat="44.87423" lon="5.77208">
        <ele>581.9</ele>
        <time>2023-08-03T08:35:18Z</time>
      </trkpt>
      <trkpt lat="44.87417" lon="5.77215">
        <ele>580.7</ele>
        <time>2023-08-03T08:35:20Z</time>
      </trkpt>
      <trkpt lat="44.87423" lon="5.77229">
        <ele>579.1</ele>
        <time>2023-08-03T08:35:22Z</time>
      </trkpt>
      <trkpt lat="44.87434" lon="5.77244">
        <ele>577.2</ele>
        <time>2023-08-03T08:35:24Z</time>
      </trkpt>
      <trkpt lat="44.87441" lon="5.7725">
        <ele>576.2</ele>
        <time>2023-08-03T08:35:25Z</time>
      </trkpt>
      <trkpt lat="44.87473" lon="5.77271">
        <ele>572.3</ele>
        <time>2023-08-03T08:35:29Z</time>
      </trkpt>
      <trkpt lat="44.87481" lon="5.77275">
        <ele>571.4</ele>
        <time>2023-08-03T08:35:30Z</time>
      </trkpt>
      <trkpt lat="44.87489" lon="5.77277">
        <ele>570.4</ele>
        <time>2023-08-03T08:35:31Z</time>
      </trkpt>
      <trkpt lat="44.87507" lon="5.77276">
        <ele>568.4</ele>
        <time>2023-08-03T08:35:33Z</time>
      </trkpt>
      <trkpt lat="44.87519" lon="5.77277">
        <ele>566.8</ele>
        <time>2023-08-03T08:35:35Z</time>
      </trkpt>
      <trkpt lat="44.87522" lon="5.7728">
        <ele>566.3</ele>
        <time>2023-08-03T08:35:36Z</time>
      </trkpt>
      <trkpt lat="44.87523" lon="5.77283">
        <ele>566.1</ele>
        <time>2023-08-03T08:35:37Z</time>
      </trkpt>
      <trkpt lat="44.87522" lon="5.77284">
        <ele>565.9</ele>
        <time>2023-08-03T08:35:38Z</time>
      </trkpt>
      <trkpt lat="44.87513" lon="5.77287">
        <ele>564.7</ele>
        <time>2023-08-03T08:35:40Z</time>
      </trkpt>
      <trkpt lat="44.87507" lon="5.77289">
        <ele>564.1</ele>
        <time>2023-08-03T08:35:41Z</time>
      </trkpt>
      <trkpt lat="44.87484" lon="5.77295">
        <ele>561.4</ele>
        <time>2023-08-03T08:35:44Z</time>
      </trkpt>
      <trkpt lat="44.87458" lon="5.77291">
        <ele>558.1</ele>
        <time>2023-08-03T08:35:47Z</time>
      </trkpt>
      <trkpt lat="44.87449" lon="5.77291">
        <ele>556.9</ele>
        <time>2023-08-03T08:35:48Z</time>
      </trkpt>
      <trkpt lat="44.8744" lon="5.77293">
        <ele>555.7</ele>
        <time>2023-08-03T08:35:49Z</time>
      </trkpt>
      <trkpt lat="44.87422" lon="5.77299">
        <ele>553.3</ele>
        <time>2023-08-03T08:35:51Z</time>
      </trkpt>
      <trkpt lat="44.87401" lon="5.77313">
        <ele>550.6</ele>
        <time>2023-08-03T08:35:54Z</time>
      </trkpt>
      <trkpt lat="44.87396" lon="5.77313">
        <ele>549.9</ele>
        <time>2023-08-03T08:35:55Z</time>
      </trkpt>
      <trkpt lat="44.87391" lon="5.77308">
        <ele>549.2</ele>
        <time>2023-08-03T08:35:56Z</time>
      </trkpt>
      <trkpt lat="44.87386" lon="5.77296">
        <ele>547.8</ele>
        <time>2023-08-03T08:35:58Z</time>
      </trkpt>
      <trkpt lat="44.87381" lon="5.77299">
        <ele>547</ele>
        <time>2023-08-03T08:36:00Z</time>
      </trkpt>
      <trkpt lat="44.8738" lon="5.77314">
        <ele>545.4</ele>
        <time>2023-08-03T08:36:02Z</time>
      </trkpt>
      <trkpt lat="44.8738" lon="5.77324">
        <ele>544.4</ele>
        <time>2023-08-03T08:36:03Z</time>
      </trkpt>
      <trkpt lat="44.87383" lon="5.77333">
        <ele>543.4</ele>
        <time>2023-08-03T08:36:04Z</time>
      </trkpt>
      <trkpt lat="44.87387" lon="5.77341">
        <ele>542.4</ele>
        <time>2023-08-03T08:36:05Z</time>
      </trkpt>
      <trkpt lat="44.87393" lon="5.77347">
        <ele>541.5</ele>
        <time>2023-08-03T08:36:06Z</time>
      </trkpt>
      <trkpt lat="44.87407" lon="5.77352">
        <ele>539.6</ele>
        <time>2023-08-03T08:36:08Z</time>
      </trkpt>
      <trkpt lat="44.87428" lon="5.77349">
        <ele>537.1</ele>
        <time>2023-08-03T08:36:11Z</time>
      </trkpt>
      <trkpt lat="44.87433" lon="5.77354">
        <ele>536.3</ele>
        <time>2023-08-03T08:36:13Z</time>
      </trkpt>
      <trkpt lat="44.87433" lon="5.77359">
        <ele>535.8</ele>
        <time>2023-08-03T08:36:14Z</time>
      </trkpt>
      <trkpt lat="44.87429" lon="5.77365">
        <ele>535.1</ele>
        <time>2023-08-03T08:36:15Z</time>
      </trkpt>
      <trkpt lat="44.87415" lon="5.77373">
        <ele>533</ele>
        <time>2023-08-03T08:36:17Z</time>
      </trkpt>
      <trkpt lat="44.87407" lon="5.77376">
        <ele>531.9</ele>
        <time>2023-08-03T08:36:18Z</time>
      </trkpt>
      <trkpt lat="44.87389" lon="5.77375">
        <ele>529.7</ele>
        <time>2023-08-03T08:36:20Z</time>
      </trkpt>
      <trkpt lat="44.87371" lon="5.77366">
        <ele>527.6</ele>
        <time>2023-08-03T08:36:22Z</time>
      </trkpt>
      <trkpt lat="44.87363" lon="5.77359">
        <ele>526.6</ele>
        <time>2023-08-03T08:36:23Z</time>
      </trkpt>
      <trkpt lat="44.87356" lon="5.7735">
        <ele>525.6</ele>
        <time>2023-08-03T08:36:24Z</time>
      </trkpt>
      <trkpt lat="44.87348" lon="5.77328">
        <ele>523.8</ele>
        <time>2023-08-03T08:36:26Z</time>
      </trkpt>
      <trkpt lat="44.87346" lon="5.77315">
        <ele>522.7</ele>
        <time>2023-08-03T08:36:27Z</time>
      </trkpt>
      <trkpt lat="44.87346" lon="5.77305">
        <ele>521.8</ele>
        <time>2023-08-03T08:36:28Z</time>
      </trkpt>
      <trkpt lat="44.87346" lon="5.77297">
        <ele>521</ele>
        <time>2023-08-03T08:36:29Z</time>
      </trkpt>
      <trkpt lat="44.87344" lon="5.7729">
        <ele>520.3</ele>
        <time>2023-08-03T08:36:30Z</time>
      </trkpt>
      <trkpt lat="44.87338" lon="5.77294">
        <ele>519.2</ele>
        <time>2023-08-03T08:36:32Z</time>
      </trkpt>
      <trkpt lat="44.87336" lon="5.77303">
        <ele>518.2</ele>
        <time>2023-08-03T08:36:33Z</time>
      </trkpt>
      <trkpt lat="44.87335" lon="5.77325">
        <ele>516.4</ele>
        <time>2023-08-03T08:36:35Z</time>
      </trkpt>
      <trkpt lat="44.87329" lon="5.77339">
        <ele>515.5</ele>
        <time>2023-08-03T08:36:37Z</time>
      </trkpt>
      <trkpt lat="44.87325" lon="5.77344">
        <ele>515.2</ele>
        <time>2023-08-03T08:36:38Z</time>
      </trkpt>
      <trkpt lat="44.87319" lon="5.77344">
        <ele>515</ele>
        <time>2023-08-03T08:36:39Z</time>
      </trkpt>
      <trkpt lat="44.87313" lon="5.77343">
        <ele>514.9</ele>
        <time>2023-08-03T08:36:40Z</time>
      </trkpt>
      <trkpt lat="44.87292" lon="5.7734">
        <ele>514.8</ele>
        <time>2023-08-03T08:36:45Z</time>
      </trkpt>
      <trkpt lat="44.87276" lon="5.77337">
        <ele>514.8</ele>
        <time>2023-08-03T08:36:50Z</time>
      </trkpt>
      <trkpt lat="44.87271" lon="5.77336">
        <ele>514.8</ele>
        <time>2023-08-03T08:36:51Z</time>
      </trkpt>
      <trkpt lat="44.87264" lon="5.77329">
        <ele>515</ele>
        <time>2023-08-03T08:36:53Z</time>
      </trkpt>
      <trkpt lat="44.8726" lon="5.77311">
        <ele>515.4</ele>
        <time>2023-08-03T08:36:57Z</time>
      </trkpt>
      <trkpt lat="44.87262" lon="5.77293">
        <ele>515.8</ele>
        <time>2023-08-03T08:37:02Z</time>
      </trkpt>
      <trkpt lat="44.87261" lon="5.7729">
        <ele>515.9</ele>
        <time>2023-08-03T08:37:03Z</time>
      </trkpt>
      <trkpt lat="44.87258" lon="5.77292">
        <ele>516</ele>
        <time>2023-08-03T08:37:05Z</time>
      </trkpt>
      <trkpt lat="44.87258" lon="5.77295">
        <ele>516.1</ele>
        <time>2023-08-03T08:37:06Z</time>
      </trkpt>
      <trkpt lat="44.87261" lon="5.77304">
        <ele>516.5</ele>
        <time>2023-08-03T08:37:09Z</time>
      </trkpt>
      <trkpt lat="44.87262" lon="5.77308">
        <ele>516.6</ele>
        <time>2023-08-03T08:37:11Z</time>
      </trkpt>
      <trkpt lat="44.8726" lon="5.77302">
        <ele>516.8</ele>
        <time>2023-08-03T08:39:53Z</time>
      </trkpt>
      <trkpt lat="44.87261" lon="5.773">
        <ele>516.9</ele>
        <time>2023-08-03T08:39:54Z</time>
      </trkpt>
      <trkpt lat="44.87262" lon="5.77299">
        <ele>517</ele>
        <time>2023-08-03T08:39:55Z</time>
      </trkpt>
      <trkpt lat="44.87263" lon="5.77299">
        <ele>517.1</ele>
        <time>2023-08-03T08:39:56Z</time>
      </trkpt>
      <trkpt lat="44.87263" lon="5.77289">
        <ele>517.5</ele>
        <time>2023-08-03T08:48:37Z</time>
      </trkpt>
      <trkpt lat="44.87264" lon="5.77284">
        <ele>517.7</ele>
        <time>2023-08-03T08:48:39Z</time>
      </trkpt>
      <trkpt lat="44.87264" lon="5.77271">
        <ele>518.3</ele>
        <time>2023-08-03T08:48:43Z</time>
      </trkpt>
      <trkpt lat="44.87263" lon="5.77265">
        <ele>518.6</ele>
        <time>2023-08-03T08:48:46Z</time>
      </trkpt>
      <trkpt lat="44.87263" lon="5.77265">
        <ele>518.6</ele>
        <time>2023-08-03T08:48:47Z</time>
      </trkpt>
      <trkpt lat="44.87263" lon="5.77265">
        <ele>518.6</ele>
        <time>2023-08-03T08:48:58Z</time>
      </trkpt>
      <trkpt lat="44.87263" lon="5.77265">
        <ele>518.6</ele>
        <time>2023-08-03T08:49:00Z</time>
      </trkpt>
      <trkpt lat="44.87261" lon="5.77263">
        <ele>518.8</ele>
        <time>2023-08-03T08:49:13Z</time>
      </trkpt>
      <trkpt lat="44.87259" lon="5.77261">
        <ele>518.9</ele>
        <time>2023-08-03T08:49:14Z</time>
      </trkpt>
      <trkpt lat="44.87258" lon="5.77255">
        <ele>519.2</ele>
        <time>2023-08-03T08:49:16Z</time>
      </trkpt>
      <trkpt lat="44.87252" lon="5.77233">
        <ele>520.2</ele>
        <time>2023-08-03T08:49:23Z</time>
      </trkpt>
      <trkpt lat="44.87236" lon="5.77211">
        <ele>521.6</ele>
        <time>2023-08-03T08:49:31Z</time>
      </trkpt>
      <trkpt lat="44.87234" lon="5.77208">
        <ele>521.8</ele>
        <time>2023-08-03T08:49:32Z</time>
      </trkpt>
      <trkpt lat="44.87233" lon="5.77205">
        <ele>522</ele>
        <time>2023-08-03T08:49:33Z</time>
      </trkpt>
      <trkpt lat="44.87226" lon="5.77193">
        <ele>522.7</ele>
        <time>2023-08-03T08:49:37Z</time>
      </trkpt>
      <trkpt lat="44.87223" lon="5.77188">
        <ele>523.1</ele>
        <time>2023-08-03T08:49:39Z</time>
      </trkpt>
      <trkpt lat="44.87222" lon="5.77186">
        <ele>523.3</ele>
        <time>2023-08-03T08:49:40Z</time>
      </trkpt>
      <trkpt lat="44.87215" lon="5.77178">
        <ele>523.9</ele>
        <time>2023-08-03T08:49:43Z</time>
      </trkpt>
      <trkpt lat="44.8721" lon="5.77168">
        <ele>524.6</ele>
        <time>2023-08-03T08:49:47Z</time>
      </trkpt>
      <trkpt lat="44.87204" lon="5.7716">
        <ele>525.2</ele>
        <time>2023-08-03T08:49:51Z</time>
      </trkpt>
      <trkpt lat="44.872" lon="5.77152">
        <ele>525.7</ele>
        <time>2023-08-03T08:49:54Z</time>
      </trkpt>
      <trkpt lat="44.87198" lon="5.77149">
        <ele>525.9</ele>
        <time>2023-08-03T08:49:55Z</time>
      </trkpt>
      <trkpt lat="44.87191" lon="5.77135">
        <ele>526.8</ele>
        <time>2023-08-03T08:50:00Z</time>
      </trkpt>
      <trkpt lat="44.8719" lon="5.77128">
        <ele>527.2</ele>
        <time>2023-08-03T08:50:02Z</time>
      </trkpt>
      <trkpt lat="44.8719" lon="5.77119">
        <ele>527.6</ele>
        <time>2023-08-03T08:50:04Z</time>
      </trkpt>
      <trkpt lat="44.87191" lon="5.77101">
        <ele>528.3</ele>
        <time>2023-08-03T08:50:08Z</time>
      </trkpt>
      <trkpt lat="44.87192" lon="5.77095">
        <ele>528.4</ele>
        <time>2023-08-03T08:50:09Z</time>
      </trkpt>
      <trkpt lat="44.87194" lon="5.77083">
        <ele>528.8</ele>
        <time>2023-08-03T08:50:12Z</time>
      </trkpt>
      <trkpt lat="44.87196" lon="5.7707">
        <ele>529.1</ele>
        <time>2023-08-03T08:50:15Z</time>
      </trkpt>
      <trkpt lat="44.87198" lon="5.77053">
        <ele>529.7</ele>
        <time>2023-08-03T08:50:19Z</time>
      </trkpt>
      <trkpt lat="44.87199" lon="5.77049">
        <ele>529.9</ele>
        <time>2023-08-03T08:50:20Z</time>
      </trkpt>
      <trkpt lat="44.87204" lon="5.77035">
        <ele>530.4</ele>
        <time>2023-08-03T08:50:23Z</time>
      </trkpt>
      <trkpt lat="44.87206" lon="5.77027">
        <ele>530.8</ele>
        <time>2023-08-03T08:50:25Z</time>
      </trkpt>
      <trkpt lat="44.87209" lon="5.77014">
        <ele>531.3</ele>
        <time>2023-08-03T08:50:28Z</time>
      </trkpt>
      <trkpt lat="44.8721" lon="5.7701">
        <ele>531.5</ele>
        <time>2023-08-03T08:50:29Z</time>
      </trkpt>
      <trkpt lat="44.87211" lon="5.77005">
        <ele>531.7</ele>
        <time>2023-08-03T08:50:30Z</time>
      </trkpt>
      <trkpt lat="44.87213" lon="5.76996">
        <ele>532.1</ele>
        <time>2023-08-03T08:50:32Z</time>
      </trkpt>
      <trkpt lat="44.87215" lon="5.76982">
        <ele>532.7</ele>
        <time>2023-08-03T08:50:35Z</time>
      </trkpt>
      <trkpt lat="44.87214" lon="5.76972">
        <ele>533.1</ele>
        <time>2023-08-03T08:50:37Z</time>
      </trkpt>
      <trkpt lat="44.87213" lon="5.76962">
        <ele>533.6</ele>
        <time>2023-08-03T08:50:39Z</time>
      </trkpt>
      <trkpt lat="44.87211" lon="5.76953">
        <ele>533.9</ele>
        <time>2023-08-03T08:50:41Z</time>
      </trkpt>
      <trkpt lat="44.8721" lon="5.76947">
        <ele>534.2</ele>
        <time>2023-08-03T08:50:42Z</time>
      </trkpt>
      <trkpt lat="44.87208" lon="5.76943">
        <ele>534.4</ele>
        <time>2023-08-03T08:50:43Z</time>
      </trkpt>
      <trkpt lat="44.87206" lon="5.76939">
        <ele>534.5</ele>
        <time>2023-08-03T08:50:44Z</time>
      </trkpt>
      <trkpt lat="44.872" lon="5.76933">
        <ele>534.9</ele>
        <time>2023-08-03T08:50:46Z</time>
      </trkpt>
      <trkpt lat="44.87197" lon="5.76932">
        <ele>535</ele>
        <time>2023-08-03T08:50:47Z</time>
      </trkpt>
      <trkpt lat="44.87193" lon="5.7693">
        <ele>535.2</ele>
        <time>2023-08-03T08:50:48Z</time>
      </trkpt>
      <trkpt lat="44.87187" lon="5.7693">
        <ele>535.5</ele>
        <time>2023-08-03T08:50:50Z</time>
      </trkpt>
      <trkpt lat="44.87183" lon="5.76932">
        <ele>535.7</ele>
        <time>2023-08-03T08:50:51Z</time>
      </trkpt>
      <trkpt lat="44.8718" lon="5.76933">
        <ele>535.8</ele>
        <time>2023-08-03T08:50:52Z</time>
      </trkpt>
      <trkpt lat="44.87173" lon="5.76938">
        <ele>535.9</ele>
        <time>2023-08-03T08:50:54Z</time>
      </trkpt>
      <trkpt lat="44.87168" lon="5.76944">
        <ele>536.1</ele>
        <time>2023-08-03T08:50:56Z</time>
      </trkpt>
      <trkpt lat="44.87166" lon="5.76947">
        <ele>536.1</ele>
        <time>2023-08-03T08:50:57Z</time>
      </trkpt>
      <trkpt lat="44.87163" lon="5.76951">
        <ele>536.2</ele>
        <time>2023-08-03T08:50:58Z</time>
      </trkpt>
      <trkpt lat="44.87155" lon="5.76963">
        <ele>536.4</ele>
        <time>2023-08-03T08:51:01Z</time>
      </trkpt>
      <trkpt lat="44.87153" lon="5.76968">
        <ele>536.4</ele>
        <time>2023-08-03T08:51:02Z</time>
      </trkpt>
      <trkpt lat="44.8715" lon="5.76972">
        <ele>536.5</ele>
        <time>2023-08-03T08:51:03Z</time>
      </trkpt>
      <trkpt lat="44.87142" lon="5.76986">
        <ele>536.7</ele>
        <time>2023-08-03T08:51:06Z</time>
      </trkpt>
      <trkpt lat="44.8714" lon="5.7699">
        <ele>536.8</ele>
        <time>2023-08-03T08:51:07Z</time>
      </trkpt>
      <trkpt lat="44.87136" lon="5.76999">
        <ele>536.9</ele>
        <time>2023-08-03T08:51:09Z</time>
      </trkpt>
      <trkpt lat="44.8713" lon="5.77016">
        <ele>537.2</ele>
        <time>2023-08-03T08:51:12Z</time>
      </trkpt>
      <trkpt lat="44.87128" lon="5.77022">
        <ele>537.3</ele>
        <time>2023-08-03T08:51:13Z</time>
      </trkpt>
      <trkpt lat="44.87126" lon="5.77033">
        <ele>537.4</ele>
        <time>2023-08-03T08:51:15Z</time>
      </trkpt>
      <trkpt lat="44.87122" lon="5.77049">
        <ele>537.4</ele>
        <time>2023-08-03T08:51:18Z</time>
      </trkpt>
      <trkpt lat="44.87121" lon="5.77054">
        <ele>537.4</ele>
        <time>2023-08-03T08:51:19Z</time>
      </trkpt>
      <trkpt lat="44.87119" lon="5.7706">
        <ele>537.4</ele>
        <time>2023-08-03T08:51:20Z</time>
      </trkpt>
      <trkpt lat="44.87116" lon="5.77071">
        <ele>537.8</ele>
        <time>2023-08-03T08:51:22Z</time>
      </trkpt>
      <trkpt lat="44.87114" lon="5.77076">
        <ele>538.1</ele>
        <time>2023-08-03T08:51:23Z</time>
      </trkpt>
      <trkpt lat="44.87113" lon="5.77086">
        <ele>538.7</ele>
        <time>2023-08-03T08:51:25Z</time>
      </trkpt>
      <trkpt lat="44.87109" lon="5.77104">
        <ele>539.9</ele>
        <time>2023-08-03T08:51:29Z</time>
      </trkpt>
      <trkpt lat="44.87107" lon="5.77112">
        <ele>540.6</ele>
        <time>2023-08-03T08:51:31Z</time>
      </trkpt>
      <trkpt lat="44.87104" lon="5.77125">
        <ele>541.5</ele>
        <time>2023-08-03T08:51:34Z</time>
      </trkpt>
      <trkpt lat="44.87098" lon="5.77137">
        <ele>542.5</ele>
        <time>2023-08-03T08:51:38Z</time>
      </trkpt>
      <trkpt lat="44.87095" lon="5.77144">
        <ele>543.1</ele>
        <time>2023-08-03T08:51:40Z</time>
      </trkpt>
      <trkpt lat="44.87093" lon="5.77147">
        <ele>543.3</ele>
        <time>2023-08-03T08:51:41Z</time>
      </trkpt>
      <trkpt lat="44.87088" lon="5.77155">
        <ele>544.1</ele>
        <time>2023-08-03T08:51:44Z</time>
      </trkpt>
      <trkpt lat="44.87086" lon="5.77158">
        <ele>544.4</ele>
        <time>2023-08-03T08:51:45Z</time>
      </trkpt>
      <trkpt lat="44.87083" lon="5.77165">
        <ele>544.9</ele>
        <time>2023-08-03T08:51:47Z</time>
      </trkpt>
      <trkpt lat="44.87077" lon="5.77178">
        <ele>546.1</ele>
        <time>2023-08-03T08:51:51Z</time>
      </trkpt>
      <trkpt lat="44.87076" lon="5.77185">
        <ele>546.5</ele>
        <time>2023-08-03T08:51:53Z</time>
      </trkpt>
      <trkpt lat="44.87074" lon="5.77193">
        <ele>547.2</ele>
        <time>2023-08-03T08:51:55Z</time>
      </trkpt>
      <trkpt lat="44.87069" lon="5.7721">
        <ele>548.7</ele>
        <time>2023-08-03T08:52:00Z</time>
      </trkpt>
      <trkpt lat="44.87067" lon="5.77216">
        <ele>549.2</ele>
        <time>2023-08-03T08:52:02Z</time>
      </trkpt>
      <trkpt lat="44.87061" lon="5.77224">
        <ele>550.2</ele>
        <time>2023-08-03T08:52:05Z</time>
      </trkpt>
      <trkpt lat="44.87055" lon="5.77236">
        <ele>551.3</ele>
        <time>2023-08-03T08:52:09Z</time>
      </trkpt>
      <trkpt lat="44.87052" lon="5.77242">
        <ele>551.9</ele>
        <time>2023-08-03T08:52:11Z</time>
      </trkpt>
      <trkpt lat="44.87048" lon="5.77261">
        <ele>553.3</ele>
        <time>2023-08-03T08:52:16Z</time>
      </trkpt>
      <trkpt lat="44.87048" lon="5.77265">
        <ele>553.5</ele>
        <time>2023-08-03T08:52:17Z</time>
      </trkpt>
      <trkpt lat="44.8705" lon="5.77288">
        <ele>555.3</ele>
        <time>2023-08-03T08:52:23Z</time>
      </trkpt>
      <trkpt lat="44.87051" lon="5.77296">
        <ele>555.9</ele>
        <time>2023-08-03T08:52:25Z</time>
      </trkpt>
      <trkpt lat="44.87052" lon="5.77312">
        <ele>557.3</ele>
        <time>2023-08-03T08:52:29Z</time>
      </trkpt>
      <trkpt lat="44.87052" lon="5.77316">
        <ele>557.7</ele>
        <time>2023-08-03T08:52:30Z</time>
      </trkpt>
      <trkpt lat="44.87052" lon="5.7732">
        <ele>558.1</ele>
        <time>2023-08-03T08:52:31Z</time>
      </trkpt>
      <trkpt lat="44.8705" lon="5.77323">
        <ele>558.5</ele>
        <time>2023-08-03T08:52:32Z</time>
      </trkpt>
      <trkpt lat="44.87048" lon="5.77324">
        <ele>558.8</ele>
        <time>2023-08-03T08:52:33Z</time>
      </trkpt>
      <trkpt lat="44.87044" lon="5.77323">
        <ele>558.8</ele>
        <time>2023-08-03T08:52:35Z</time>
      </trkpt>
      <trkpt lat="44.8704" lon="5.77316">
        <ele>559.3</ele>
        <time>2023-08-03T08:52:37Z</time>
      </trkpt>
      <trkpt lat="44.87038" lon="5.77308">
        <ele>559.8</ele>
        <time>2023-08-03T08:52:39Z</time>
      </trkpt>
      <trkpt lat="44.87035" lon="5.77297">
        <ele>560.4</ele>
        <time>2023-08-03T08:52:42Z</time>
      </trkpt>
      <trkpt lat="44.8703" lon="5.77287">
        <ele>561</ele>
        <time>2023-08-03T08:52:45Z</time>
      </trkpt>
      <trkpt lat="44.87024" lon="5.77275">
        <ele>561.7</ele>
        <time>2023-08-03T08:52:49Z</time>
      </trkpt>
      <trkpt lat="44.87018" lon="5.77266">
        <ele>562.3</ele>
        <time>2023-08-03T08:52:52Z</time>
      </trkpt>
      <trkpt lat="44.87016" lon="5.77263">
        <ele>562.5</ele>
        <time>2023-08-03T08:52:53Z</time>
      </trkpt>
      <trkpt lat="44.87014" lon="5.7726">
        <ele>562.7</ele>
        <time>2023-08-03T08:52:54Z</time>
      </trkpt>
      <trkpt lat="44.87009" lon="5.77251">
        <ele>563.3</ele>
        <time>2023-08-03T08:52:57Z</time>
      </trkpt>
      <trkpt lat="44.87004" lon="5.77242">
        <ele>564</ele>
        <time>2023-08-03T08:53:00Z</time>
      </trkpt>
      <trkpt lat="44.86998" lon="5.77228">
        <ele>565</ele>
        <time>2023-08-03T08:53:04Z</time>
      </trkpt>
      <trkpt lat="44.86996" lon="5.77219">
        <ele>565.7</ele>
        <time>2023-08-03T08:53:07Z</time>
      </trkpt>
      <trkpt lat="44.86995" lon="5.77216">
        <ele>565.9</ele>
        <time>2023-08-03T08:53:08Z</time>
      </trkpt>
      <trkpt lat="44.86994" lon="5.77211">
        <ele>566.4</ele>
        <time>2023-08-03T08:53:10Z</time>
      </trkpt>
      <trkpt lat="44.86993" lon="5.77209">
        <ele>566.6</ele>
        <time>2023-08-03T08:53:11Z</time>
      </trkpt>
      <trkpt lat="44.86988" lon="5.77196">
        <ele>567.6</ele>
        <time>2023-08-03T08:53:15Z</time>
      </trkpt>
      <trkpt lat="44.86986" lon="5.7719">
        <ele>568.1</ele>
        <time>2023-08-03T08:53:17Z</time>
      </trkpt>
      <trkpt lat="44.86985" lon="5.77187">
        <ele>568.3</ele>
        <time>2023-08-03T08:53:18Z</time>
      </trkpt>
      <trkpt lat="44.86982" lon="5.7718">
        <ele>568.7</ele>
        <time>2023-08-03T08:53:20Z</time>
      </trkpt>
      <trkpt lat="44.86978" lon="5.77174">
        <ele>569.2</ele>
        <time>2023-08-03T08:53:22Z</time>
      </trkpt>
      <trkpt lat="44.86971" lon="5.77162">
        <ele>570.1</ele>
        <time>2023-08-03T08:53:26Z</time>
      </trkpt>
      <trkpt lat="44.86966" lon="5.77152">
        <ele>570.7</ele>
        <time>2023-08-03T08:53:29Z</time>
      </trkpt>
      <trkpt lat="44.86958" lon="5.7714">
        <ele>571.7</ele>
        <time>2023-08-03T08:53:33Z</time>
      </trkpt>
      <trkpt lat="44.8695" lon="5.77123">
        <ele>573</ele>
        <time>2023-08-03T08:53:38Z</time>
      </trkpt>
      <trkpt lat="44.86947" lon="5.77117">
        <ele>573.6</ele>
        <time>2023-08-03T08:53:40Z</time>
      </trkpt>
      <trkpt lat="44.86941" lon="5.77103">
        <ele>574.7</ele>
        <time>2023-08-03T08:53:44Z</time>
      </trkpt>
      <trkpt lat="44.8694" lon="5.771">
        <ele>574.9</ele>
        <time>2023-08-03T08:53:45Z</time>
      </trkpt>
      <trkpt lat="44.86939" lon="5.77093">
        <ele>575.4</ele>
        <time>2023-08-03T08:53:47Z</time>
      </trkpt>
      <trkpt lat="44.86937" lon="5.77086">
        <ele>575.9</ele>
        <time>2023-08-03T08:53:49Z</time>
      </trkpt>
      <trkpt lat="44.86937" lon="5.77082">
        <ele>576.2</ele>
        <time>2023-08-03T08:53:50Z</time>
      </trkpt>
      <trkpt lat="44.86936" lon="5.77078">
        <ele>576.4</ele>
        <time>2023-08-03T08:53:51Z</time>
      </trkpt>
      <trkpt lat="44.86933" lon="5.77066">
        <ele>577.2</ele>
        <time>2023-08-03T08:53:54Z</time>
      </trkpt>
      <trkpt lat="44.86931" lon="5.77049">
        <ele>578.3</ele>
        <time>2023-08-03T08:53:58Z</time>
      </trkpt>
      <trkpt lat="44.8693" lon="5.77045">
        <ele>578.6</ele>
        <time>2023-08-03T08:53:59Z</time>
      </trkpt>
      <trkpt lat="44.86929" lon="5.77033">
        <ele>579.4</ele>
        <time>2023-08-03T08:54:02Z</time>
      </trkpt>
      <trkpt lat="44.86928" lon="5.77025">
        <ele>579.9</ele>
        <time>2023-08-03T08:54:04Z</time>
      </trkpt>
      <trkpt lat="44.86927" lon="5.77021">
        <ele>580.2</ele>
        <time>2023-08-03T08:54:05Z</time>
      </trkpt>
      <trkpt lat="44.86925" lon="5.77016">
        <ele>580.6</ele>
        <time>2023-08-03T08:54:06Z</time>
      </trkpt>
      <trkpt lat="44.86926" lon="5.77012">
        <ele>580.8</ele>
        <time>2023-08-03T08:54:07Z</time>
      </trkpt>
      <trkpt lat="44.86926" lon="5.77009">
        <ele>581.1</ele>
        <time>2023-08-03T08:54:08Z</time>
      </trkpt>
      <trkpt lat="44.86927" lon="5.77004">
        <ele>581.4</ele>
        <time>2023-08-03T08:54:09Z</time>
      </trkpt>
      <trkpt lat="44.86926" lon="5.77">
        <ele>581.7</ele>
        <time>2023-08-03T08:54:10Z</time>
      </trkpt>
      <trkpt lat="44.86927" lon="5.76989">
        <ele>582.4</ele>
        <time>2023-08-03T08:54:13Z</time>
      </trkpt>
      <trkpt lat="44.86925" lon="5.76978">
        <ele>583.3</ele>
        <time>2023-08-03T08:54:16Z</time>
      </trkpt>
      <trkpt lat="44.86925" lon="5.7697">
        <ele>583.8</ele>
        <time>2023-08-03T08:54:18Z</time>
      </trkpt>
      <trkpt lat="44.86923" lon="5.76959">
        <ele>584.6</ele>
        <time>2023-08-03T08:54:21Z</time>
      </trkpt>
      <trkpt lat="44.86921" lon="5.76951">
        <ele>585.1</ele>
        <time>2023-08-03T08:54:23Z</time>
      </trkpt>
      <trkpt lat="44.8692" lon="5.76947">
        <ele>585.3</ele>
        <time>2023-08-03T08:54:24Z</time>
      </trkpt>
      <trkpt lat="44.86918" lon="5.76943">
        <ele>585.6</ele>
        <time>2023-08-03T08:54:25Z</time>
      </trkpt>
      <trkpt lat="44.86915" lon="5.76932">
        <ele>586.2</ele>
        <time>2023-08-03T08:54:28Z</time>
      </trkpt>
      <trkpt lat="44.86913" lon="5.76924">
        <ele>586.7</ele>
        <time>2023-08-03T08:54:30Z</time>
      </trkpt>
      <trkpt lat="44.86911" lon="5.76916">
        <ele>587.2</ele>
        <time>2023-08-03T08:54:32Z</time>
      </trkpt>
      <trkpt lat="44.8691" lon="5.76908">
        <ele>587.7</ele>
        <time>2023-08-03T08:54:34Z</time>
      </trkpt>
      <trkpt lat="44.86908" lon="5.769">
        <ele>588.2</ele>
        <time>2023-08-03T08:54:36Z</time>
      </trkpt>
      <trkpt lat="44.86907" lon="5.76888">
        <ele>589</ele>
        <time>2023-08-03T08:54:39Z</time>
      </trkpt>
      <trkpt lat="44.86906" lon="5.76881">
        <ele>589.5</ele>
        <time>2023-08-03T08:54:41Z</time>
      </trkpt>
      <trkpt lat="44.86905" lon="5.76873">
        <ele>590</ele>
        <time>2023-08-03T08:54:43Z</time>
      </trkpt>
      <trkpt lat="44.86905" lon="5.76866">
        <ele>590.6</ele>
        <time>2023-08-03T08:54:45Z</time>
      </trkpt>
      <trkpt lat="44.86905" lon="5.76862">
        <ele>590.8</ele>
        <time>2023-08-03T08:54:46Z</time>
      </trkpt>
      <trkpt lat="44.86906" lon="5.76854">
        <ele>591.4</ele>
        <time>2023-08-03T08:54:48Z</time>
      </trkpt>
      <trkpt lat="44.86906" lon="5.76851">
        <ele>591.7</ele>
        <time>2023-08-03T08:54:49Z</time>
      </trkpt>
      <trkpt lat="44.86906" lon="5.76842">
        <ele>592.3</ele>
        <time>2023-08-03T08:54:51Z</time>
      </trkpt>
      <trkpt lat="44.86906" lon="5.76834">
        <ele>592.8</ele>
        <time>2023-08-03T08:54:53Z</time>
      </trkpt>
      <trkpt lat="44.86907" lon="5.76826">
        <ele>593.4</ele>
        <time>2023-08-03T08:54:55Z</time>
      </trkpt>
      <trkpt lat="44.86907" lon="5.76818">
        <ele>593.9</ele>
        <time>2023-08-03T08:54:57Z</time>
      </trkpt>
      <trkpt lat="44.86908" lon="5.76809">
        <ele>594.4</ele>
        <time>2023-08-03T08:54:59Z</time>
      </trkpt>
      <trkpt lat="44.86909" lon="5.76801">
        <ele>595</ele>
        <time>2023-08-03T08:55:01Z</time>
      </trkpt>
      <trkpt lat="44.86911" lon="5.76789">
        <ele>595.7</ele>
        <time>2023-08-03T08:55:04Z</time>
      </trkpt>
      <trkpt lat="44.86911" lon="5.76785">
        <ele>596</ele>
        <time>2023-08-03T08:55:05Z</time>
      </trkpt>
      <trkpt lat="44.86912" lon="5.76782">
        <ele>596.2</ele>
        <time>2023-08-03T08:55:06Z</time>
      </trkpt>
      <trkpt lat="44.86913" lon="5.76773">
        <ele>596.8</ele>
        <time>2023-08-03T08:55:08Z</time>
      </trkpt>
      <trkpt lat="44.86914" lon="5.7676">
        <ele>597.6</ele>
        <time>2023-08-03T08:55:11Z</time>
      </trkpt>
      <trkpt lat="44.86914" lon="5.76751">
        <ele>598.2</ele>
        <time>2023-08-03T08:55:13Z</time>
      </trkpt>
      <trkpt lat="44.86914" lon="5.76744">
        <ele>598.7</ele>
        <time>2023-08-03T08:55:15Z</time>
      </trkpt>
      <trkpt lat="44.86914" lon="5.76736">
        <ele>599.3</ele>
        <time>2023-08-03T08:55:17Z</time>
      </trkpt>
      <trkpt lat="44.86913" lon="5.76729">
        <ele>600</ele>
        <time>2023-08-03T08:55:19Z</time>
      </trkpt>
      <trkpt lat="44.86912" lon="5.7672">
        <ele>600.6</ele>
        <time>2023-08-03T08:55:21Z</time>
      </trkpt>
      <trkpt lat="44.86912" lon="5.76713">
        <ele>601.2</ele>
        <time>2023-08-03T08:55:23Z</time>
      </trkpt>
      <trkpt lat="44.86911" lon="5.76705">
        <ele>601.9</ele>
        <time>2023-08-03T08:55:25Z</time>
      </trkpt>
      <trkpt lat="44.8691" lon="5.76701">
        <ele>602.2</ele>
        <time>2023-08-03T08:55:26Z</time>
      </trkpt>
      <trkpt lat="44.86909" lon="5.76698">
        <ele>602.5</ele>
        <time>2023-08-03T08:55:27Z</time>
      </trkpt>
      <trkpt lat="44.86905" lon="5.76687">
        <ele>602.9</ele>
        <time>2023-08-03T08:55:30Z</time>
      </trkpt>
      <trkpt lat="44.86904" lon="5.76683">
        <ele>603.1</ele>
        <time>2023-08-03T08:55:31Z</time>
      </trkpt>
      <trkpt lat="44.86903" lon="5.76679">
        <ele>603.3</ele>
        <time>2023-08-03T08:55:32Z</time>
      </trkpt>
      <trkpt lat="44.86901" lon="5.76667">
        <ele>603.8</ele>
        <time>2023-08-03T08:55:35Z</time>
      </trkpt>
      <trkpt lat="44.869" lon="5.76659">
        <ele>604.3</ele>
        <time>2023-08-03T08:55:37Z</time>
      </trkpt>
      <trkpt lat="44.869" lon="5.76655">
        <ele>604.6</ele>
        <time>2023-08-03T08:55:38Z</time>
      </trkpt>
      <trkpt lat="44.869" lon="5.76651">
        <ele>604.8</ele>
        <time>2023-08-03T08:55:39Z</time>
      </trkpt>
      <trkpt lat="44.86901" lon="5.76643">
        <ele>605.3</ele>
        <time>2023-08-03T08:55:41Z</time>
      </trkpt>
      <trkpt lat="44.869" lon="5.76639">
        <ele>605.6</ele>
        <time>2023-08-03T08:55:42Z</time>
      </trkpt>
      <trkpt lat="44.86901" lon="5.76626">
        <ele>606.4</ele>
        <time>2023-08-03T08:55:45Z</time>
      </trkpt>
      <trkpt lat="44.86899" lon="5.76612">
        <ele>607.3</ele>
        <time>2023-08-03T08:55:49Z</time>
      </trkpt>
      <trkpt lat="44.86896" lon="5.76601">
        <ele>608</ele>
        <time>2023-08-03T08:55:52Z</time>
      </trkpt>
      <trkpt lat="44.86887" lon="5.76588">
        <ele>609</ele>
        <time>2023-08-03T08:55:56Z</time>
      </trkpt>
      <trkpt lat="44.86882" lon="5.76584">
        <ele>609.5</ele>
        <time>2023-08-03T08:55:58Z</time>
      </trkpt>
      <trkpt lat="44.86872" lon="5.76581">
        <ele>610.1</ele>
        <time>2023-08-03T08:56:01Z</time>
      </trkpt>
      <trkpt lat="44.86869" lon="5.7658">
        <ele>610.3</ele>
        <time>2023-08-03T08:56:02Z</time>
      </trkpt>
      <trkpt lat="44.8685" lon="5.76579">
        <ele>611.2</ele>
        <time>2023-08-03T08:56:08Z</time>
      </trkpt>
      <trkpt lat="44.86839" lon="5.76578">
        <ele>611.6</ele>
        <time>2023-08-03T08:56:11Z</time>
      </trkpt>
      <trkpt lat="44.86832" lon="5.76578">
        <ele>611.9</ele>
        <time>2023-08-03T08:56:13Z</time>
      </trkpt>
      <trkpt lat="44.86826" lon="5.76578">
        <ele>612.1</ele>
        <time>2023-08-03T08:56:15Z</time>
      </trkpt>
      <trkpt lat="44.86816" lon="5.76577">
        <ele>612.6</ele>
        <time>2023-08-03T08:56:18Z</time>
      </trkpt>
      <trkpt lat="44.86802" lon="5.76576">
        <ele>613.4</ele>
        <time>2023-08-03T08:56:23Z</time>
      </trkpt>
      <trkpt lat="44.86796" lon="5.76575">
        <ele>613.8</ele>
        <time>2023-08-03T08:56:25Z</time>
      </trkpt>
      <trkpt lat="44.86774" lon="5.76574">
        <ele>615.3</ele>
        <time>2023-08-03T08:56:32Z</time>
      </trkpt>
      <trkpt lat="44.86764" lon="5.76574">
        <ele>615.9</ele>
        <time>2023-08-03T08:56:35Z</time>
      </trkpt>
      <trkpt lat="44.86746" lon="5.76577">
        <ele>617.2</ele>
        <time>2023-08-03T08:56:41Z</time>
      </trkpt>
      <trkpt lat="44.86712" lon="5.76583">
        <ele>619.5</ele>
        <time>2023-08-03T08:56:52Z</time>
      </trkpt>
      <trkpt lat="44.86691" lon="5.76586">
        <ele>621</ele>
        <time>2023-08-03T08:56:59Z</time>
      </trkpt>
      <trkpt lat="44.86688" lon="5.76586">
        <ele>621.3</ele>
        <time>2023-08-03T08:57:00Z</time>
      </trkpt>
      <trkpt lat="44.86679" lon="5.76588">
        <ele>622.1</ele>
        <time>2023-08-03T08:57:04Z</time>
      </trkpt>
      <trkpt lat="44.86663" lon="5.76592">
        <ele>623.7</ele>
        <time>2023-08-03T08:57:10Z</time>
      </trkpt>
      <trkpt lat="44.86637" lon="5.76606">
        <ele>626.8</ele>
        <time>2023-08-03T08:57:20Z</time>
      </trkpt>
      <trkpt lat="44.86618" lon="5.76626">
        <ele>629.7</ele>
        <time>2023-08-03T08:57:29Z</time>
      </trkpt>
      <trkpt lat="44.86606" lon="5.76644">
        <ele>631.9</ele>
        <time>2023-08-03T08:57:36Z</time>
      </trkpt>
      <trkpt lat="44.86601" lon="5.76661">
        <ele>633.4</ele>
        <time>2023-08-03T08:57:42Z</time>
      </trkpt>
      <trkpt lat="44.86597" lon="5.76671">
        <ele>634.4</ele>
        <time>2023-08-03T08:57:46Z</time>
      </trkpt>
      <trkpt lat="44.86597" lon="5.76674">
        <ele>634.6</ele>
        <time>2023-08-03T08:57:47Z</time>
      </trkpt>
      <trkpt lat="44.86596" lon="5.76677">
        <ele>634.9</ele>
        <time>2023-08-03T08:57:48Z</time>
      </trkpt>
      <trkpt lat="44.86595" lon="5.76691">
        <ele>636</ele>
        <time>2023-08-03T08:57:51Z</time>
      </trkpt>
      <trkpt lat="44.86594" lon="5.76694">
        <ele>636.2</ele>
        <time>2023-08-03T08:57:52Z</time>
      </trkpt>
      <trkpt lat="44.86593" lon="5.76697">
        <ele>636.5</ele>
        <time>2023-08-03T08:57:53Z</time>
      </trkpt>
      <trkpt lat="44.86592" lon="5.76702">
        <ele>637</ele>
        <time>2023-08-03T08:57:56Z</time>
      </trkpt>
      <trkpt lat="44.86591" lon="5.76706">
        <ele>637.3</ele>
        <time>2023-08-03T08:57:58Z</time>
      </trkpt>
      <trkpt lat="44.86591" lon="5.76707">
        <ele>637.4</ele>
        <time>2023-08-03T08:58:00Z</time>
      </trkpt>
      <trkpt lat="44.8659" lon="5.76712">
        <ele>637.8</ele>
        <time>2023-08-03T08:58:02Z</time>
      </trkpt>
      <trkpt lat="44.86589" lon="5.76717">
        <ele>638.3</ele>
        <time>2023-08-03T08:58:04Z</time>
      </trkpt>
      <trkpt lat="44.86588" lon="5.76727">
        <ele>639.1</ele>
        <time>2023-08-03T08:58:07Z</time>
      </trkpt>
      <trkpt lat="44.86588" lon="5.76731">
        <ele>639.4</ele>
        <time>2023-08-03T08:58:08Z</time>
      </trkpt>
      <trkpt lat="44.86588" lon="5.76734">
        <ele>639.6</ele>
        <time>2023-08-03T08:58:09Z</time>
      </trkpt>
      <trkpt lat="44.8659" lon="5.76741">
        <ele>640.1</ele>
        <time>2023-08-03T08:58:11Z</time>
      </trkpt>
      <trkpt lat="44.8659" lon="5.76747">
        <ele>640.6</ele>
        <time>2023-08-03T08:58:13Z</time>
      </trkpt>
      <trkpt lat="44.86591" lon="5.7675">
        <ele>640.8</ele>
        <time>2023-08-03T08:58:14Z</time>
      </trkpt>
      <trkpt lat="44.86591" lon="5.76753">
        <ele>641</ele>
        <time>2023-08-03T08:58:15Z</time>
      </trkpt>
      <trkpt lat="44.8659" lon="5.7676">
        <ele>641.5</ele>
        <time>2023-08-03T08:58:17Z</time>
      </trkpt>
      <trkpt lat="44.86589" lon="5.76764">
        <ele>641.8</ele>
        <time>2023-08-03T08:58:18Z</time>
      </trkpt>
      <trkpt lat="44.86589" lon="5.76771">
        <ele>642.3</ele>
        <time>2023-08-03T08:58:20Z</time>
      </trkpt>
      <trkpt lat="44.86589" lon="5.76775">
        <ele>642.6</ele>
        <time>2023-08-03T08:58:21Z</time>
      </trkpt>
      <trkpt lat="44.8659" lon="5.76785">
        <ele>643.3</ele>
        <time>2023-08-03T08:58:23Z</time>
      </trkpt>
      <trkpt lat="44.86588" lon="5.76798">
        <ele>644.3</ele>
        <time>2023-08-03T08:58:26Z</time>
      </trkpt>
      <trkpt lat="44.86587" lon="5.76811">
        <ele>645.2</ele>
        <time>2023-08-03T08:58:29Z</time>
      </trkpt>
      <trkpt lat="44.86587" lon="5.76821">
        <ele>645.9</ele>
        <time>2023-08-03T08:58:31Z</time>
      </trkpt>
      <trkpt lat="44.86585" lon="5.76827">
        <ele>646.3</ele>
        <time>2023-08-03T08:58:33Z</time>
      </trkpt>
      <trkpt lat="44.86584" lon="5.76831">
        <ele>646.7</ele>
        <time>2023-08-03T08:58:34Z</time>
      </trkpt>
      <trkpt lat="44.86585" lon="5.76836">
        <ele>647</ele>
        <time>2023-08-03T08:58:35Z</time>
      </trkpt>
      <trkpt lat="44.86584" lon="5.76844">
        <ele>647.6</ele>
        <time>2023-08-03T08:58:37Z</time>
      </trkpt>
      <trkpt lat="44.86584" lon="5.76856">
        <ele>648.4</ele>
        <time>2023-08-03T08:58:40Z</time>
      </trkpt>
      <trkpt lat="44.86583" lon="5.76861">
        <ele>648.8</ele>
        <time>2023-08-03T08:58:41Z</time>
      </trkpt>
      <trkpt lat="44.86583" lon="5.7687">
        <ele>649.4</ele>
        <time>2023-08-03T08:58:43Z</time>
      </trkpt>
      <trkpt lat="44.86584" lon="5.76874">
        <ele>649.7</ele>
        <time>2023-08-03T08:58:44Z</time>
      </trkpt>
      <trkpt lat="44.86584" lon="5.76877">
        <ele>650</ele>
        <time>2023-08-03T08:58:45Z</time>
      </trkpt>
      <trkpt lat="44.86583" lon="5.76881">
        <ele>650.2</ele>
        <time>2023-08-03T08:58:46Z</time>
      </trkpt>
      <trkpt lat="44.86582" lon="5.76889">
        <ele>650.8</ele>
        <time>2023-08-03T08:58:48Z</time>
      </trkpt>
      <trkpt lat="44.86581" lon="5.76898">
        <ele>651.6</ele>
        <time>2023-08-03T08:58:50Z</time>
      </trkpt>
      <trkpt lat="44.8658" lon="5.76903">
        <ele>652</ele>
        <time>2023-08-03T08:58:51Z</time>
      </trkpt>
      <trkpt lat="44.86579" lon="5.76907">
        <ele>652.3</ele>
        <time>2023-08-03T08:58:52Z</time>
      </trkpt>
      <trkpt lat="44.86578" lon="5.76911">
        <ele>652.6</ele>
        <time>2023-08-03T08:58:53Z</time>
      </trkpt>
      <trkpt lat="44.86574" lon="5.76918">
        <ele>653.3</ele>
        <time>2023-08-03T08:58:55Z</time>
      </trkpt>
      <trkpt lat="44.86573" lon="5.7692">
        <ele>653.5</ele>
        <time>2023-08-03T08:58:56Z</time>
      </trkpt>
      <trkpt lat="44.86573" lon="5.76922">
        <ele>653.6</ele>
        <time>2023-08-03T08:58:57Z</time>
      </trkpt>
      <trkpt lat="44.86572" lon="5.76928">
        <ele>654.1</ele>
        <time>2023-08-03T08:58:59Z</time>
      </trkpt>
      <trkpt lat="44.8657" lon="5.76942">
        <ele>655</ele>
        <time>2023-08-03T08:59:02Z</time>
      </trkpt>
      <trkpt lat="44.86572" lon="5.76954">
        <ele>655.8</ele>
        <time>2023-08-03T08:59:05Z</time>
      </trkpt>
      <trkpt lat="44.86577" lon="5.7697">
        <ele>656.9</ele>
        <time>2023-08-03T08:59:08Z</time>
      </trkpt>
      <trkpt lat="44.86579" lon="5.76975">
        <ele>657.3</ele>
        <time>2023-08-03T08:59:09Z</time>
      </trkpt>
      <trkpt lat="44.86581" lon="5.7698">
        <ele>657.7</ele>
        <time>2023-08-03T08:59:10Z</time>
      </trkpt>
      <trkpt lat="44.86587" lon="5.7699">
        <ele>658.5</ele>
        <time>2023-08-03T08:59:13Z</time>
      </trkpt>
      <trkpt lat="44.86587" lon="5.77002">
        <ele>659.3</ele>
        <time>2023-08-03T08:59:16Z</time>
      </trkpt>
      <trkpt lat="44.8659" lon="5.77006">
        <ele>659.6</ele>
        <time>2023-08-03T08:59:18Z</time>
      </trkpt>
      <trkpt lat="44.86591" lon="5.77009">
        <ele>659.8</ele>
        <time>2023-08-03T08:59:19Z</time>
      </trkpt>
      <trkpt lat="44.86591" lon="5.77014">
        <ele>660.2</ele>
        <time>2023-08-03T08:59:21Z</time>
      </trkpt>
      <trkpt lat="44.86593" lon="5.77021">
        <ele>660.6</ele>
        <time>2023-08-03T08:59:24Z</time>
      </trkpt>
      <trkpt lat="44.86593" lon="5.77027">
        <ele>661</ele>
        <time>2023-08-03T08:59:26Z</time>
      </trkpt>
      <trkpt lat="44.86592" lon="5.7703">
        <ele>661.2</ele>
        <time>2023-08-03T08:59:27Z</time>
      </trkpt>
      <trkpt lat="44.86592" lon="5.77034">
        <ele>661.4</ele>
        <time>2023-08-03T08:59:28Z</time>
      </trkpt>
      <trkpt lat="44.86591" lon="5.77043">
        <ele>662</ele>
        <time>2023-08-03T08:59:31Z</time>
      </trkpt>
      <trkpt lat="44.8659" lon="5.7705">
        <ele>662.4</ele>
        <time>2023-08-03T08:59:33Z</time>
      </trkpt>
      <trkpt lat="44.86589" lon="5.77061">
        <ele>663.1</ele>
        <time>2023-08-03T08:59:36Z</time>
      </trkpt>
      <trkpt lat="44.86588" lon="5.77076">
        <ele>664.1</ele>
        <time>2023-08-03T08:59:40Z</time>
      </trkpt>
      <trkpt lat="44.86587" lon="5.77087">
        <ele>664.2</ele>
        <time>2023-08-03T08:59:43Z</time>
      </trkpt>
      <trkpt lat="44.86586" lon="5.77095">
        <ele>664.5</ele>
        <time>2023-08-03T08:59:45Z</time>
      </trkpt>
      <trkpt lat="44.86589" lon="5.77106">
        <ele>665.1</ele>
        <time>2023-08-03T08:59:48Z</time>
      </trkpt>
      <trkpt lat="44.86591" lon="5.7711">
        <ele>665.3</ele>
        <time>2023-08-03T08:59:49Z</time>
      </trkpt>
      <trkpt lat="44.86596" lon="5.77125">
        <ele>666</ele>
        <time>2023-08-03T08:59:53Z</time>
      </trkpt>
      <trkpt lat="44.866" lon="5.77136">
        <ele>666.5</ele>
        <time>2023-08-03T08:59:56Z</time>
      </trkpt>
      <trkpt lat="44.86603" lon="5.77144">
        <ele>666.9</ele>
        <time>2023-08-03T08:59:58Z</time>
      </trkpt>
      <trkpt lat="44.86604" lon="5.77148">
        <ele>667.1</ele>
        <time>2023-08-03T08:59:59Z</time>
      </trkpt>
      <trkpt lat="44.8661" lon="5.77169">
        <ele>668</ele>
        <time>2023-08-03T09:00:04Z</time>
      </trkpt>
      <trkpt lat="44.86612" lon="5.77181">
        <ele>668.5</ele>
        <time>2023-08-03T09:00:07Z</time>
      </trkpt>
      <trkpt lat="44.86613" lon="5.77189">
        <ele>668.9</ele>
        <time>2023-08-03T09:00:09Z</time>
      </trkpt>
      <trkpt lat="44.86614" lon="5.77207">
        <ele>669.8</ele>
        <time>2023-08-03T09:00:13Z</time>
      </trkpt>
      <trkpt lat="44.86614" lon="5.77211">
        <ele>670.1</ele>
        <time>2023-08-03T09:00:14Z</time>
      </trkpt>
      <trkpt lat="44.86615" lon="5.77229">
        <ele>671.2</ele>
        <time>2023-08-03T09:00:18Z</time>
      </trkpt>
      <trkpt lat="44.86616" lon="5.77237">
        <ele>671.7</ele>
        <time>2023-08-03T09:00:20Z</time>
      </trkpt>
      <trkpt lat="44.86618" lon="5.77249">
        <ele>672.5</ele>
        <time>2023-08-03T09:00:23Z</time>
      </trkpt>
      <trkpt lat="44.86622" lon="5.7726">
        <ele>673.3</ele>
        <time>2023-08-03T09:00:26Z</time>
      </trkpt>
      <trkpt lat="44.86626" lon="5.77273">
        <ele>674.3</ele>
        <time>2023-08-03T09:00:29Z</time>
      </trkpt>
      <trkpt lat="44.8663" lon="5.77287">
        <ele>675.4</ele>
        <time>2023-08-03T09:00:33Z</time>
      </trkpt>
      <trkpt lat="44.8663" lon="5.7729">
        <ele>675.7</ele>
        <time>2023-08-03T09:00:34Z</time>
      </trkpt>
      <trkpt lat="44.86632" lon="5.77304">
        <ele>676.8</ele>
        <time>2023-08-03T09:00:38Z</time>
      </trkpt>
      <trkpt lat="44.86633" lon="5.77307">
        <ele>677.1</ele>
        <time>2023-08-03T09:00:39Z</time>
      </trkpt>
      <trkpt lat="44.86635" lon="5.77316">
        <ele>677.9</ele>
        <time>2023-08-03T09:00:42Z</time>
      </trkpt>
      <trkpt lat="44.86637" lon="5.77322">
        <ele>678.4</ele>
        <time>2023-08-03T09:00:44Z</time>
      </trkpt>
      <trkpt lat="44.86638" lon="5.77325">
        <ele>678.7</ele>
        <time>2023-08-03T09:00:45Z</time>
      </trkpt>
      <trkpt lat="44.8664" lon="5.77334">
        <ele>679.4</ele>
        <time>2023-08-03T09:00:48Z</time>
      </trkpt>
      <trkpt lat="44.86641" lon="5.77337">
        <ele>679.7</ele>
        <time>2023-08-03T09:00:49Z</time>
      </trkpt>
      <trkpt lat="44.86642" lon="5.7734">
        <ele>680</ele>
        <time>2023-08-03T09:00:50Z</time>
      </trkpt>
      <trkpt lat="44.86647" lon="5.77351">
        <ele>681</ele>
        <time>2023-08-03T09:00:54Z</time>
      </trkpt>
      <trkpt lat="44.8665" lon="5.77357">
        <ele>681.4</ele>
        <time>2023-08-03T09:00:56Z</time>
      </trkpt>
      <trkpt lat="44.86655" lon="5.77365">
        <ele>682.2</ele>
        <time>2023-08-03T09:00:59Z</time>
      </trkpt>
      <trkpt lat="44.86659" lon="5.77368">
        <ele>682.5</ele>
        <time>2023-08-03T09:01:00Z</time>
      </trkpt>
      <trkpt lat="44.86663" lon="5.77375">
        <ele>683.1</ele>
        <time>2023-08-03T09:01:02Z</time>
      </trkpt>
      <trkpt lat="44.86668" lon="5.77385">
        <ele>683.8</ele>
        <time>2023-08-03T09:01:05Z</time>
      </trkpt>
      <trkpt lat="44.86669" lon="5.77388">
        <ele>684</ele>
        <time>2023-08-03T09:01:06Z</time>
      </trkpt>
      <trkpt lat="44.86672" lon="5.77391">
        <ele>684.3</ele>
        <time>2023-08-03T09:01:07Z</time>
      </trkpt>
      <trkpt lat="44.86676" lon="5.77396">
        <ele>684.8</ele>
        <time>2023-08-03T09:01:09Z</time>
      </trkpt>
      <trkpt lat="44.86675" lon="5.77401">
        <ele>685</ele>
        <time>2023-08-03T09:01:10Z</time>
      </trkpt>
      <trkpt lat="44.8668" lon="5.77408">
        <ele>685.5</ele>
        <time>2023-08-03T09:01:12Z</time>
      </trkpt>
      <trkpt lat="44.86684" lon="5.7742">
        <ele>686.2</ele>
        <time>2023-08-03T09:01:15Z</time>
      </trkpt>
      <trkpt lat="44.86687" lon="5.77427">
        <ele>686.6</ele>
        <time>2023-08-03T09:01:17Z</time>
      </trkpt>
      <trkpt lat="44.86687" lon="5.77434">
        <ele>686.8</ele>
        <time>2023-08-03T09:01:19Z</time>
      </trkpt>
      <trkpt lat="44.86685" lon="5.77446">
        <ele>687.3</ele>
        <time>2023-08-03T09:01:22Z</time>
      </trkpt>
      <trkpt lat="44.86683" lon="5.77466">
        <ele>688</ele>
        <time>2023-08-03T09:01:26Z</time>
      </trkpt>
      <trkpt lat="44.86681" lon="5.7748">
        <ele>688.5</ele>
        <time>2023-08-03T09:01:29Z</time>
      </trkpt>
      <trkpt lat="44.86679" lon="5.7749">
        <ele>688.9</ele>
        <time>2023-08-03T09:01:31Z</time>
      </trkpt>
      <trkpt lat="44.86678" lon="5.775">
        <ele>689.3</ele>
        <time>2023-08-03T09:01:33Z</time>
      </trkpt>
      <trkpt lat="44.86675" lon="5.77515">
        <ele>690</ele>
        <time>2023-08-03T09:01:36Z</time>
      </trkpt>
      <trkpt lat="44.86671" lon="5.77534">
        <ele>691</ele>
        <time>2023-08-03T09:01:40Z</time>
      </trkpt>
      <trkpt lat="44.86666" lon="5.77545">
        <ele>692.6</ele>
        <time>2023-08-03T09:01:43Z</time>
      </trkpt>
      <trkpt lat="44.86663" lon="5.77547">
        <ele>692.9</ele>
        <time>2023-08-03T09:01:44Z</time>
      </trkpt>
      <trkpt lat="44.8666" lon="5.77545">
        <ele>693.2</ele>
        <time>2023-08-03T09:01:46Z</time>
      </trkpt>
      <trkpt lat="44.86658" lon="5.77534">
        <ele>694</ele>
        <time>2023-08-03T09:01:49Z</time>
      </trkpt>
      <trkpt lat="44.86657" lon="5.77525">
        <ele>694.6</ele>
        <time>2023-08-03T09:01:51Z</time>
      </trkpt>
      <trkpt lat="44.86655" lon="5.77504">
        <ele>696.1</ele>
        <time>2023-08-03T09:01:56Z</time>
      </trkpt>
      <trkpt lat="44.86654" lon="5.77496">
        <ele>696.6</ele>
        <time>2023-08-03T09:01:58Z</time>
      </trkpt>
      <trkpt lat="44.86653" lon="5.77484">
        <ele>697.5</ele>
        <time>2023-08-03T09:02:01Z</time>
      </trkpt>
      <trkpt lat="44.86652" lon="5.77472">
        <ele>698.5</ele>
        <time>2023-08-03T09:02:04Z</time>
      </trkpt>
      <trkpt lat="44.8665" lon="5.77462">
        <ele>699.5</ele>
        <time>2023-08-03T09:02:07Z</time>
      </trkpt>
      <trkpt lat="44.8665" lon="5.77449">
        <ele>700.9</ele>
        <time>2023-08-03T09:02:11Z</time>
      </trkpt>
      <trkpt lat="44.86647" lon="5.77439">
        <ele>702</ele>
        <time>2023-08-03T09:02:14Z</time>
      </trkpt>
      <trkpt lat="44.86645" lon="5.7743">
        <ele>703</ele>
        <time>2023-08-03T09:02:17Z</time>
      </trkpt>
      <trkpt lat="44.86643" lon="5.77425">
        <ele>703.5</ele>
        <time>2023-08-03T09:02:19Z</time>
      </trkpt>
      <trkpt lat="44.86637" lon="5.77414">
        <ele>704.7</ele>
        <time>2023-08-03T09:02:23Z</time>
      </trkpt>
      <trkpt lat="44.86633" lon="5.77409">
        <ele>705.3</ele>
        <time>2023-08-03T09:02:25Z</time>
      </trkpt>
      <trkpt lat="44.86623" lon="5.77401">
        <ele>706.4</ele>
        <time>2023-08-03T09:02:29Z</time>
      </trkpt>
      <trkpt lat="44.86621" lon="5.77401">
        <ele>706.6</ele>
        <time>2023-08-03T09:02:30Z</time>
      </trkpt>
      <trkpt lat="44.86604" lon="5.77396">
        <ele>707.9</ele>
        <time>2023-08-03T09:02:37Z</time>
      </trkpt>
      <trkpt lat="44.86585" lon="5.77396">
        <ele>709.3</ele>
        <time>2023-08-03T09:02:44Z</time>
      </trkpt>
      <trkpt lat="44.8658" lon="5.77396">
        <ele>709.7</ele>
        <time>2023-08-03T09:02:46Z</time>
      </trkpt>
      <trkpt lat="44.86547" lon="5.77396">
        <ele>712.4</ele>
        <time>2023-08-03T09:02:58Z</time>
      </trkpt>
      <trkpt lat="44.86544" lon="5.77395">
        <ele>712.6</ele>
        <time>2023-08-03T09:02:59Z</time>
      </trkpt>
      <trkpt lat="44.86524" lon="5.7739">
        <ele>714.2</ele>
        <time>2023-08-03T09:03:06Z</time>
      </trkpt>
      <trkpt lat="44.86522" lon="5.77389">
        <ele>714.6</ele>
        <time>2023-08-03T09:03:07Z</time>
      </trkpt>
      <trkpt lat="44.8649" lon="5.77375">
        <ele>717.8</ele>
        <time>2023-08-03T09:03:19Z</time>
      </trkpt>
      <trkpt lat="44.86471" lon="5.77366">
        <ele>719.7</ele>
        <time>2023-08-03T09:03:26Z</time>
      </trkpt>
      <trkpt lat="44.86468" lon="5.77364">
        <ele>719.9</ele>
        <time>2023-08-03T09:03:27Z</time>
      </trkpt>
      <trkpt lat="44.8645" lon="5.77351">
        <ele>722</ele>
        <time>2023-08-03T09:03:34Z</time>
      </trkpt>
      <trkpt lat="44.86438" lon="5.77344">
        <ele>723.3</ele>
        <time>2023-08-03T09:03:39Z</time>
      </trkpt>
      <trkpt lat="44.86429" lon="5.77336">
        <ele>724.3</ele>
        <time>2023-08-03T09:03:43Z</time>
      </trkpt>
      <trkpt lat="44.86425" lon="5.77331">
        <ele>724.8</ele>
        <time>2023-08-03T09:03:45Z</time>
      </trkpt>
      <trkpt lat="44.86413" lon="5.77317">
        <ele>726.4</ele>
        <time>2023-08-03T09:03:51Z</time>
      </trkpt>
      <trkpt lat="44.864" lon="5.77296">
        <ele>728.2</ele>
        <time>2023-08-03T09:03:57Z</time>
      </trkpt>
      <trkpt lat="44.86392" lon="5.77283">
        <ele>729.4</ele>
        <time>2023-08-03T09:04:01Z</time>
      </trkpt>
      <trkpt lat="44.8638" lon="5.7727">
        <ele>730.6</ele>
        <time>2023-08-03T09:04:06Z</time>
      </trkpt>
      <trkpt lat="44.86353" lon="5.77241">
        <ele>733.4</ele>
        <time>2023-08-03T09:04:17Z</time>
      </trkpt>
      <trkpt lat="44.86345" lon="5.77229">
        <ele>734.4</ele>
        <time>2023-08-03T09:04:22Z</time>
      </trkpt>
      <trkpt lat="44.86336" lon="5.77213">
        <ele>735.7</ele>
        <time>2023-08-03T09:04:28Z</time>
      </trkpt>
      <trkpt lat="44.86327" lon="5.77197">
        <ele>737.2</ele>
        <time>2023-08-03T09:04:35Z</time>
      </trkpt>
      <trkpt lat="44.86322" lon="5.7719">
        <ele>737.9</ele>
        <time>2023-08-03T09:04:39Z</time>
      </trkpt>
      <trkpt lat="44.86321" lon="5.77188">
        <ele>738.1</ele>
        <time>2023-08-03T09:04:40Z</time>
      </trkpt>
      <trkpt lat="44.86314" lon="5.77176">
        <ele>739.3</ele>
        <time>2023-08-03T09:04:46Z</time>
      </trkpt>
      <trkpt lat="44.86309" lon="5.77168">
        <ele>740.1</ele>
        <time>2023-08-03T09:04:51Z</time>
      </trkpt>
      <trkpt lat="44.86308" lon="5.77163">
        <ele>740.5</ele>
        <time>2023-08-03T09:04:53Z</time>
      </trkpt>
      <trkpt lat="44.86307" lon="5.77162">
        <ele>740.7</ele>
        <time>2023-08-03T09:04:54Z</time>
      </trkpt>
      <trkpt lat="44.86307" lon="5.77161">
        <ele>740.8</ele>
        <time>2023-08-03T09:04:55Z</time>
      </trkpt>
      <trkpt lat="44.86305" lon="5.77157">
        <ele>741.1</ele>
        <time>2023-08-03T09:04:57Z</time>
      </trkpt>
      <trkpt lat="44.86303" lon="5.77153">
        <ele>741.6</ele>
        <time>2023-08-03T09:04:59Z</time>
      </trkpt>
      <trkpt lat="44.86302" lon="5.77151">
        <ele>741.7</ele>
        <time>2023-08-03T09:05:00Z</time>
      </trkpt>
      <trkpt lat="44.86294" lon="5.77135">
        <ele>743.4</ele>
        <time>2023-08-03T09:05:05Z</time>
      </trkpt>
      <trkpt lat="44.86291" lon="5.7713">
        <ele>743.9</ele>
        <time>2023-08-03T09:05:06Z</time>
      </trkpt>
      <trkpt lat="44.86284" lon="5.77118">
        <ele>745</ele>
        <time>2023-08-03T09:05:09Z</time>
      </trkpt>
      <trkpt lat="44.8628" lon="5.7711">
        <ele>745.6</ele>
        <time>2023-08-03T09:05:11Z</time>
      </trkpt>
      <trkpt lat="44.86277" lon="5.77105">
        <ele>746.1</ele>
        <time>2023-08-03T09:05:12Z</time>
      </trkpt>
      <trkpt lat="44.86272" lon="5.77092">
        <ele>747.1</ele>
        <time>2023-08-03T09:05:15Z</time>
      </trkpt>
      <trkpt lat="44.86268" lon="5.77078">
        <ele>748.1</ele>
        <time>2023-08-03T09:05:18Z</time>
      </trkpt>
      <trkpt lat="44.86264" lon="5.77063">
        <ele>749</ele>
        <time>2023-08-03T09:05:21Z</time>
      </trkpt>
      <trkpt lat="44.8626" lon="5.77055">
        <ele>749.6</ele>
        <time>2023-08-03T09:05:23Z</time>
      </trkpt>
      <trkpt lat="44.86259" lon="5.77049">
        <ele>749.9</ele>
        <time>2023-08-03T09:05:24Z</time>
      </trkpt>
      <trkpt lat="44.8626" lon="5.77045">
        <ele>750.2</ele>
        <time>2023-08-03T09:05:25Z</time>
      </trkpt>
      <trkpt lat="44.8626" lon="5.77038">
        <ele>750.6</ele>
        <time>2023-08-03T09:05:27Z</time>
      </trkpt>
      <trkpt lat="44.86261" lon="5.77033">
        <ele>750.9</ele>
        <time>2023-08-03T09:05:28Z</time>
      </trkpt>
      <trkpt lat="44.86263" lon="5.77026">
        <ele>751.3</ele>
        <time>2023-08-03T09:05:30Z</time>
      </trkpt>
      <trkpt lat="44.86261" lon="5.7701">
        <ele>752.3</ele>
        <time>2023-08-03T09:05:34Z</time>
      </trkpt>
      <trkpt lat="44.86261" lon="5.77005">
        <ele>752.5</ele>
        <time>2023-08-03T09:05:35Z</time>
      </trkpt>
      <trkpt lat="44.86261" lon="5.76994">
        <ele>753.3</ele>
        <time>2023-08-03T09:05:38Z</time>
      </trkpt>
      <trkpt lat="44.86261" lon="5.76983">
        <ele>754.1</ele>
        <time>2023-08-03T09:05:42Z</time>
      </trkpt>
      <trkpt lat="44.86261" lon="5.76982">
        <ele>754.2</ele>
        <time>2023-08-03T09:05:43Z</time>
      </trkpt>
      <trkpt lat="44.86261" lon="5.76977">
        <ele>754.6</ele>
        <time>2023-08-03T09:05:45Z</time>
      </trkpt>
      <trkpt lat="44.86262" lon="5.76971">
        <ele>755.1</ele>
        <time>2023-08-03T09:05:47Z</time>
      </trkpt>
      <trkpt lat="44.86262" lon="5.76961">
        <ele>755.9</ele>
        <time>2023-08-03T09:05:50Z</time>
      </trkpt>
      <trkpt lat="44.86255" lon="5.76947">
        <ele>757.2</ele>
        <time>2023-08-03T09:05:54Z</time>
      </trkpt>
      <trkpt lat="44.86252" lon="5.76941">
        <ele>757.7</ele>
        <time>2023-08-03T09:05:56Z</time>
      </trkpt>
      <trkpt lat="44.86249" lon="5.76935">
        <ele>758.3</ele>
        <time>2023-08-03T09:05:58Z</time>
      </trkpt>
      <trkpt lat="44.86243" lon="5.76927">
        <ele>759</ele>
        <time>2023-08-03T09:06:01Z</time>
      </trkpt>
      <trkpt lat="44.86236" lon="5.76919">
        <ele>759.9</ele>
        <time>2023-08-03T09:06:03Z</time>
      </trkpt>
      <trkpt lat="44.86234" lon="5.76916">
        <ele>760.2</ele>
        <time>2023-08-03T09:06:04Z</time>
      </trkpt>
      <trkpt lat="44.86226" lon="5.76907">
        <ele>761.2</ele>
        <time>2023-08-03T09:06:07Z</time>
      </trkpt>
      <trkpt lat="44.86219" lon="5.76899">
        <ele>762</ele>
        <time>2023-08-03T09:06:10Z</time>
      </trkpt>
      <trkpt lat="44.86214" lon="5.76889">
        <ele>762.8</ele>
        <time>2023-08-03T09:06:14Z</time>
      </trkpt>
      <trkpt lat="44.8621" lon="5.76877">
        <ele>763.7</ele>
        <time>2023-08-03T09:06:17Z</time>
      </trkpt>
      <trkpt lat="44.8621" lon="5.7685">
        <ele>765.2</ele>
        <time>2023-08-03T09:06:23Z</time>
      </trkpt>
      <trkpt lat="44.8621" lon="5.76847">
        <ele>765.3</ele>
        <time>2023-08-03T09:06:24Z</time>
      </trkpt>
      <trkpt lat="44.86216" lon="5.76827">
        <ele>766.3</ele>
        <time>2023-08-03T09:06:29Z</time>
      </trkpt>
      <trkpt lat="44.86218" lon="5.7682">
        <ele>766.6</ele>
        <time>2023-08-03T09:06:31Z</time>
      </trkpt>
      <trkpt lat="44.86222" lon="5.76803">
        <ele>767.4</ele>
        <time>2023-08-03T09:06:35Z</time>
      </trkpt>
      <trkpt lat="44.86225" lon="5.76794">
        <ele>767.8</ele>
        <time>2023-08-03T09:06:37Z</time>
      </trkpt>
      <trkpt lat="44.86231" lon="5.76775">
        <ele>769.1</ele>
        <time>2023-08-03T09:06:42Z</time>
      </trkpt>
      <trkpt lat="44.86233" lon="5.76767">
        <ele>769.6</ele>
        <time>2023-08-03T09:06:44Z</time>
      </trkpt>
      <trkpt lat="44.86235" lon="5.76759">
        <ele>770.1</ele>
        <time>2023-08-03T09:06:46Z</time>
      </trkpt>
      <trkpt lat="44.86236" lon="5.76754">
        <ele>770.5</ele>
        <time>2023-08-03T09:06:47Z</time>
      </trkpt>
      <trkpt lat="44.86236" lon="5.76739">
        <ele>771.6</ele>
        <time>2023-08-03T09:06:51Z</time>
      </trkpt>
      <trkpt lat="44.86234" lon="5.76713">
        <ele>773.2</ele>
        <time>2023-08-03T09:06:57Z</time>
      </trkpt>
      <trkpt lat="44.86233" lon="5.76709">
        <ele>773.4</ele>
        <time>2023-08-03T09:06:58Z</time>
      </trkpt>
      <trkpt lat="44.86226" lon="5.76679">
        <ele>775.2</ele>
        <time>2023-08-03T09:07:05Z</time>
      </trkpt>
      <trkpt lat="44.86216" lon="5.76652">
        <ele>777.2</ele>
        <time>2023-08-03T09:07:12Z</time>
      </trkpt>
      <trkpt lat="44.86209" lon="5.76637">
        <ele>778.4</ele>
        <time>2023-08-03T09:07:16Z</time>
      </trkpt>
      <trkpt lat="44.862" lon="5.76621">
        <ele>779.9</ele>
        <time>2023-08-03T09:07:21Z</time>
      </trkpt>
      <trkpt lat="44.86187" lon="5.76604">
        <ele>781.8</ele>
        <time>2023-08-03T09:07:27Z</time>
      </trkpt>
      <trkpt lat="44.86179" lon="5.76598">
        <ele>782.8</ele>
        <time>2023-08-03T09:07:30Z</time>
      </trkpt>
      <trkpt lat="44.86171" lon="5.76595">
        <ele>783.7</ele>
        <time>2023-08-03T09:07:33Z</time>
      </trkpt>
      <trkpt lat="44.86162" lon="5.76595">
        <ele>784.6</ele>
        <time>2023-08-03T09:07:36Z</time>
      </trkpt>
      <trkpt lat="44.86146" lon="5.76602">
        <ele>786.1</ele>
        <time>2023-08-03T09:07:42Z</time>
      </trkpt>
      <trkpt lat="44.86144" lon="5.76604">
        <ele>786.3</ele>
        <time>2023-08-03T09:07:43Z</time>
      </trkpt>
      <trkpt lat="44.86133" lon="5.76617">
        <ele>787.4</ele>
        <time>2023-08-03T09:07:48Z</time>
      </trkpt>
      <trkpt lat="44.86124" lon="5.76627">
        <ele>788.2</ele>
        <time>2023-08-03T09:07:52Z</time>
      </trkpt>
      <trkpt lat="44.86112" lon="5.76644">
        <ele>789.7</ele>
        <time>2023-08-03T09:07:58Z</time>
      </trkpt>
      <trkpt lat="44.86103" lon="5.7666">
        <ele>791</ele>
        <time>2023-08-03T09:08:03Z</time>
      </trkpt>
      <trkpt lat="44.86096" lon="5.76673">
        <ele>792.1</ele>
        <time>2023-08-03T09:08:07Z</time>
      </trkpt>
      <trkpt lat="44.86092" lon="5.76685">
        <ele>792.9</ele>
        <time>2023-08-03T09:08:10Z</time>
      </trkpt>
      <trkpt lat="44.8608" lon="5.767">
        <ele>794</ele>
        <time>2023-08-03T09:08:16Z</time>
      </trkpt>
      <trkpt lat="44.8606" lon="5.76709">
        <ele>795.3</ele>
        <time>2023-08-03T09:08:23Z</time>
      </trkpt>
      <trkpt lat="44.86057" lon="5.7671">
        <ele>795.5</ele>
        <time>2023-08-03T09:08:24Z</time>
      </trkpt>
      <trkpt lat="44.86035" lon="5.7671">
        <ele>796.8</ele>
        <time>2023-08-03T09:08:31Z</time>
      </trkpt>
      <trkpt lat="44.86028" lon="5.76711">
        <ele>797.2</ele>
        <time>2023-08-03T09:08:33Z</time>
      </trkpt>
      <trkpt lat="44.86017" lon="5.76711">
        <ele>797.8</ele>
        <time>2023-08-03T09:08:36Z</time>
      </trkpt>
      <trkpt lat="44.85994" lon="5.76709">
        <ele>799.3</ele>
        <time>2023-08-03T09:08:43Z</time>
      </trkpt>
      <trkpt lat="44.85987" lon="5.76708">
        <ele>799.7</ele>
        <time>2023-08-03T09:08:45Z</time>
      </trkpt>
      <trkpt lat="44.85964" lon="5.76703">
        <ele>801.3</ele>
        <time>2023-08-03T09:08:52Z</time>
      </trkpt>
      <trkpt lat="44.85954" lon="5.767">
        <ele>802</ele>
        <time>2023-08-03T09:08:55Z</time>
      </trkpt>
      <trkpt lat="44.85923" lon="5.76689">
        <ele>804</ele>
        <time>2023-08-03T09:09:04Z</time>
      </trkpt>
      <trkpt lat="44.8592" lon="5.76687">
        <ele>804.2</ele>
        <time>2023-08-03T09:09:05Z</time>
      </trkpt>
      <trkpt lat="44.85892" lon="5.7668">
        <ele>805.9</ele>
        <time>2023-08-03T09:09:13Z</time>
      </trkpt>
      <trkpt lat="44.85886" lon="5.76678">
        <ele>806.3</ele>
        <time>2023-08-03T09:09:15Z</time>
      </trkpt>
      <trkpt lat="44.85869" lon="5.76671">
        <ele>807.3</ele>
        <time>2023-08-03T09:09:20Z</time>
      </trkpt>
      <trkpt lat="44.85853" lon="5.76664">
        <ele>808.4</ele>
        <time>2023-08-03T09:09:25Z</time>
      </trkpt>
      <trkpt lat="44.85837" lon="5.76652">
        <ele>809.5</ele>
        <time>2023-08-03T09:09:31Z</time>
      </trkpt>
      <trkpt lat="44.85828" lon="5.76642">
        <ele>810.2</ele>
        <time>2023-08-03T09:09:34Z</time>
      </trkpt>
      <trkpt lat="44.85807" lon="5.76607">
        <ele>812.2</ele>
        <time>2023-08-03T09:09:43Z</time>
      </trkpt>
      <trkpt lat="44.85801" lon="5.76593">
        <ele>812.9</ele>
        <time>2023-08-03T09:09:46Z</time>
      </trkpt>
      <trkpt lat="44.85792" lon="5.7657">
        <ele>814.2</ele>
        <time>2023-08-03T09:09:51Z</time>
      </trkpt>
      <trkpt lat="44.85788" lon="5.7656">
        <ele>814.8</ele>
        <time>2023-08-03T09:09:53Z</time>
      </trkpt>
      <trkpt lat="44.85781" lon="5.76532">
        <ele>816.4</ele>
        <time>2023-08-03T09:09:59Z</time>
      </trkpt>
      <trkpt lat="44.8578" lon="5.76527">
        <ele>816.6</ele>
        <time>2023-08-03T09:10:00Z</time>
      </trkpt>
      <trkpt lat="44.85778" lon="5.76498">
        <ele>818.1</ele>
        <time>2023-08-03T09:10:06Z</time>
      </trkpt>
      <trkpt lat="44.85772" lon="5.76445">
        <ele>820.8</ele>
        <time>2023-08-03T09:10:17Z</time>
      </trkpt>
      <trkpt lat="44.85761" lon="5.76421">
        <ele>822</ele>
        <time>2023-08-03T09:10:23Z</time>
      </trkpt>
      <trkpt lat="44.85734" lon="5.76402">
        <ele>822.8</ele>
        <time>2023-08-03T09:10:31Z</time>
      </trkpt>
      <trkpt lat="44.85696" lon="5.76382">
        <ele>823.3</ele>
        <time>2023-08-03T09:10:40Z</time>
      </trkpt>
      <trkpt lat="44.85683" lon="5.76374">
        <ele>823.5</ele>
        <time>2023-08-03T09:10:43Z</time>
      </trkpt>
      <trkpt lat="44.85654" lon="5.76358">
        <ele>823.8</ele>
        <time>2023-08-03T09:10:50Z</time>
      </trkpt>
      <trkpt lat="44.85631" lon="5.76345">
        <ele>824.1</ele>
        <time>2023-08-03T09:10:55Z</time>
      </trkpt>
      <trkpt lat="44.85616" lon="5.76336">
        <ele>824.2</ele>
        <time>2023-08-03T09:10:58Z</time>
      </trkpt>
      <trkpt lat="44.85584" lon="5.76319">
        <ele>824.2</ele>
        <time>2023-08-03T09:11:04Z</time>
      </trkpt>
      <trkpt lat="44.85537" lon="5.76294">
        <ele>824.3</ele>
        <time>2023-08-03T09:11:12Z</time>
      </trkpt>
      <trkpt lat="44.85482" lon="5.76262">
        <ele>824.2</ele>
        <time>2023-08-03T09:11:21Z</time>
      </trkpt>
      <trkpt lat="44.85443" lon="5.7624">
        <ele>824.1</ele>
        <time>2023-08-03T09:11:27Z</time>
      </trkpt>
      <trkpt lat="44.85436" lon="5.76237">
        <ele>824.1</ele>
        <time>2023-08-03T09:11:28Z</time>
      </trkpt>
      <trkpt lat="44.85422" lon="5.7623">
        <ele>824.2</ele>
        <time>2023-08-03T09:11:30Z</time>
      </trkpt>
      <trkpt lat="44.85391" lon="5.76209">
        <ele>824.1</ele>
        <time>2023-08-03T09:11:35Z</time>
      </trkpt>
      <trkpt lat="44.85384" lon="5.76205">
        <ele>824.1</ele>
        <time>2023-08-03T09:11:36Z</time>
      </trkpt>
      <trkpt lat="44.85358" lon="5.76194">
        <ele>824.1</ele>
        <time>2023-08-03T09:11:40Z</time>
      </trkpt>
      <trkpt lat="44.85351" lon="5.7619">
        <ele>824.1</ele>
        <time>2023-08-03T09:11:41Z</time>
      </trkpt>
      <trkpt lat="44.85341" lon="5.76174">
        <ele>823.8</ele>
        <time>2023-08-03T09:11:43Z</time>
      </trkpt>
      <trkpt lat="44.85336" lon="5.76155">
        <ele>823.7</ele>
        <time>2023-08-03T09:11:45Z</time>
      </trkpt>
      <trkpt lat="44.85328" lon="5.76125">
        <ele>823.5</ele>
        <time>2023-08-03T09:11:48Z</time>
      </trkpt>
      <trkpt lat="44.85311" lon="5.76066">
        <ele>823.3</ele>
        <time>2023-08-03T09:11:54Z</time>
      </trkpt>
      <trkpt lat="44.85303" lon="5.76027">
        <ele>823.1</ele>
        <time>2023-08-03T09:11:58Z</time>
      </trkpt>
      <trkpt lat="44.85302" lon="5.76017">
        <ele>823</ele>
        <time>2023-08-03T09:11:59Z</time>
      </trkpt>
      <trkpt lat="44.85305" lon="5.75976">
        <ele>822.8</ele>
        <time>2023-08-03T09:12:03Z</time>
      </trkpt>
      <trkpt lat="44.85309" lon="5.75967">
        <ele>822.8</ele>
        <time>2023-08-03T09:12:04Z</time>
      </trkpt>
      <trkpt lat="44.85314" lon="5.75959">
        <ele>822.7</ele>
        <time>2023-08-03T09:12:05Z</time>
      </trkpt>
      <trkpt lat="44.8532" lon="5.75953">
        <ele>822.7</ele>
        <time>2023-08-03T09:12:06Z</time>
      </trkpt>
      <trkpt lat="44.85326" lon="5.75946">
        <ele>822.7</ele>
        <time>2023-08-03T09:12:07Z</time>
      </trkpt>
      <trkpt lat="44.85334" lon="5.7593">
        <ele>822.6</ele>
        <time>2023-08-03T09:12:09Z</time>
      </trkpt>
      <trkpt lat="44.85337" lon="5.75921">
        <ele>822.6</ele>
        <time>2023-08-03T09:12:10Z</time>
      </trkpt>
      <trkpt lat="44.85339" lon="5.75911">
        <ele>822.6</ele>
        <time>2023-08-03T09:12:11Z</time>
      </trkpt>
      <trkpt lat="44.85346" lon="5.75872">
        <ele>822.4</ele>
        <time>2023-08-03T09:12:15Z</time>
      </trkpt>
      <trkpt lat="44.85348" lon="5.75862">
        <ele>822.4</ele>
        <time>2023-08-03T09:12:16Z</time>
      </trkpt>
      <trkpt lat="44.85351" lon="5.75842">
        <ele>822.4</ele>
        <time>2023-08-03T09:12:18Z</time>
      </trkpt>
      <trkpt lat="44.85353" lon="5.75822">
        <ele>822.5</ele>
        <time>2023-08-03T09:12:20Z</time>
      </trkpt>
      <trkpt lat="44.85352" lon="5.75802">
        <ele>822.4</ele>
        <time>2023-08-03T09:12:22Z</time>
      </trkpt>
      <trkpt lat="44.85347" lon="5.75773">
        <ele>822.1</ele>
        <time>2023-08-03T09:12:25Z</time>
      </trkpt>
      <trkpt lat="44.85341" lon="5.75753">
        <ele>821.7</ele>
        <time>2023-08-03T09:12:27Z</time>
      </trkpt>
      <trkpt lat="44.8534" lon="5.75731">
        <ele>821.2</ele>
        <time>2023-08-03T09:12:29Z</time>
      </trkpt>
      <trkpt lat="44.85342" lon="5.75721">
        <ele>821</ele>
        <time>2023-08-03T09:12:30Z</time>
      </trkpt>
      <trkpt lat="44.85345" lon="5.75711">
        <ele>820.8</ele>
        <time>2023-08-03T09:12:31Z</time>
      </trkpt>
      <trkpt lat="44.85349" lon="5.75702">
        <ele>820.6</ele>
        <time>2023-08-03T09:12:32Z</time>
      </trkpt>
      <trkpt lat="44.85358" lon="5.75683">
        <ele>820.2</ele>
        <time>2023-08-03T09:12:34Z</time>
      </trkpt>
      <trkpt lat="44.85365" lon="5.75663">
        <ele>819.8</ele>
        <time>2023-08-03T09:12:36Z</time>
      </trkpt>
      <trkpt lat="44.8537" lon="5.7564">
        <ele>819.5</ele>
        <time>2023-08-03T09:12:38Z</time>
      </trkpt>
      <trkpt lat="44.85371" lon="5.75627">
        <ele>819.4</ele>
        <time>2023-08-03T09:12:39Z</time>
      </trkpt>
      <trkpt lat="44.85371" lon="5.75603">
        <ele>819.3</ele>
        <time>2023-08-03T09:12:41Z</time>
      </trkpt>
      <trkpt lat="44.8537" lon="5.75592">
        <ele>819.3</ele>
        <time>2023-08-03T09:12:42Z</time>
      </trkpt>
      <trkpt lat="44.85366" lon="5.75557">
        <ele>819.1</ele>
        <time>2023-08-03T09:12:45Z</time>
      </trkpt>
      <trkpt lat="44.85364" lon="5.75524">
        <ele>818.9</ele>
        <time>2023-08-03T09:12:48Z</time>
      </trkpt>
      <trkpt lat="44.85363" lon="5.75502">
        <ele>818.8</ele>
        <time>2023-08-03T09:12:50Z</time>
      </trkpt>
      <trkpt lat="44.85363" lon="5.75481">
        <ele>818.5</ele>
        <time>2023-08-03T09:12:52Z</time>
      </trkpt>
      <trkpt lat="44.85364" lon="5.75448">
        <ele>818.2</ele>
        <time>2023-08-03T09:12:55Z</time>
      </trkpt>
      <trkpt lat="44.85364" lon="5.75426">
        <ele>818</ele>
        <time>2023-08-03T09:12:57Z</time>
      </trkpt>
      <trkpt lat="44.85365" lon="5.75405">
        <ele>817.9</ele>
        <time>2023-08-03T09:12:59Z</time>
      </trkpt>
      <trkpt lat="44.85365" lon="5.75394">
        <ele>817.8</ele>
        <time>2023-08-03T09:13:00Z</time>
      </trkpt>
      <trkpt lat="44.85366" lon="5.75372">
        <ele>817.7</ele>
        <time>2023-08-03T09:13:02Z</time>
      </trkpt>
      <trkpt lat="44.85367" lon="5.7534">
        <ele>817.4</ele>
        <time>2023-08-03T09:13:05Z</time>
      </trkpt>
      <trkpt lat="44.85368" lon="5.75307">
        <ele>816.9</ele>
        <time>2023-08-03T09:13:08Z</time>
      </trkpt>
      <trkpt lat="44.85368" lon="5.75284">
        <ele>816.5</ele>
        <time>2023-08-03T09:13:10Z</time>
      </trkpt>
      <trkpt lat="44.85368" lon="5.75273">
        <ele>816.3</ele>
        <time>2023-08-03T09:13:11Z</time>
      </trkpt>
      <trkpt lat="44.85368" lon="5.7525">
        <ele>815.8</ele>
        <time>2023-08-03T09:13:13Z</time>
      </trkpt>
      <trkpt lat="44.85367" lon="5.75226">
        <ele>815.2</ele>
        <time>2023-08-03T09:13:15Z</time>
      </trkpt>
      <trkpt lat="44.85366" lon="5.75191">
        <ele>814.5</ele>
        <time>2023-08-03T09:13:18Z</time>
      </trkpt>
      <trkpt lat="44.85365" lon="5.75167">
        <ele>814</ele>
        <time>2023-08-03T09:13:20Z</time>
      </trkpt>
      <trkpt lat="44.85365" lon="5.75155">
        <ele>813.7</ele>
        <time>2023-08-03T09:13:21Z</time>
      </trkpt>
      <trkpt lat="44.85364" lon="5.75131">
        <ele>813.3</ele>
        <time>2023-08-03T09:13:23Z</time>
      </trkpt>
      <trkpt lat="44.85363" lon="5.75107">
        <ele>812.7</ele>
        <time>2023-08-03T09:13:25Z</time>
      </trkpt>
      <trkpt lat="44.85362" lon="5.75083">
        <ele>812</ele>
        <time>2023-08-03T09:13:27Z</time>
      </trkpt>
      <trkpt lat="44.85358" lon="5.75047">
        <ele>810.8</ele>
        <time>2023-08-03T09:13:30Z</time>
      </trkpt>
      <trkpt lat="44.85354" lon="5.75022">
        <ele>810.1</ele>
        <time>2023-08-03T09:13:32Z</time>
      </trkpt>
      <trkpt lat="44.85348" lon="5.74997">
        <ele>809.3</ele>
        <time>2023-08-03T09:13:34Z</time>
      </trkpt>
      <trkpt lat="44.8534" lon="5.74959">
        <ele>808.2</ele>
        <time>2023-08-03T09:13:37Z</time>
      </trkpt>
      <trkpt lat="44.85335" lon="5.74933">
        <ele>807.2</ele>
        <time>2023-08-03T09:13:39Z</time>
      </trkpt>
      <trkpt lat="44.85318" lon="5.74854">
        <ele>804.1</ele>
        <time>2023-08-03T09:13:45Z</time>
      </trkpt>
      <trkpt lat="44.85312" lon="5.74842">
        <ele>803.5</ele>
        <time>2023-08-03T09:13:46Z</time>
      </trkpt>
      <trkpt lat="44.85305" lon="5.74832">
        <ele>802.9</ele>
        <time>2023-08-03T09:13:47Z</time>
      </trkpt>
      <trkpt lat="44.85296" lon="5.74825">
        <ele>802.2</ele>
        <time>2023-08-03T09:13:48Z</time>
      </trkpt>
      <trkpt lat="44.85287" lon="5.74819">
        <ele>801.5</ele>
        <time>2023-08-03T09:13:49Z</time>
      </trkpt>
      <trkpt lat="44.85256" lon="5.74802">
        <ele>799.2</ele>
        <time>2023-08-03T09:13:52Z</time>
      </trkpt>
      <trkpt lat="44.85247" lon="5.74794">
        <ele>798.4</ele>
        <time>2023-08-03T09:13:53Z</time>
      </trkpt>
      <trkpt lat="44.8523" lon="5.74773">
        <ele>796.8</ele>
        <time>2023-08-03T09:13:55Z</time>
      </trkpt>
      <trkpt lat="44.85212" lon="5.74734">
        <ele>794.4</ele>
        <time>2023-08-03T09:13:58Z</time>
      </trkpt>
      <trkpt lat="44.85195" lon="5.74717">
        <ele>792.9</ele>
        <time>2023-08-03T09:14:00Z</time>
      </trkpt>
      <trkpt lat="44.85185" lon="5.74712">
        <ele>792.1</ele>
        <time>2023-08-03T09:14:01Z</time>
      </trkpt>
      <trkpt lat="44.85153" lon="5.74695">
        <ele>789.6</ele>
        <time>2023-08-03T09:14:04Z</time>
      </trkpt>
      <trkpt lat="44.85144" lon="5.74686">
        <ele>788.8</ele>
        <time>2023-08-03T09:14:05Z</time>
      </trkpt>
      <trkpt lat="44.85136" lon="5.74675">
        <ele>788</ele>
        <time>2023-08-03T09:14:06Z</time>
      </trkpt>
      <trkpt lat="44.85124" lon="5.74646">
        <ele>786.2</ele>
        <time>2023-08-03T09:14:08Z</time>
      </trkpt>
      <trkpt lat="44.85118" lon="5.74595">
        <ele>783.3</ele>
        <time>2023-08-03T09:14:11Z</time>
      </trkpt>
      <trkpt lat="44.85115" lon="5.74579">
        <ele>782.4</ele>
        <time>2023-08-03T09:14:12Z</time>
      </trkpt>
      <trkpt lat="44.85103" lon="5.74547">
        <ele>780.6</ele>
        <time>2023-08-03T09:14:14Z</time>
      </trkpt>
      <trkpt lat="44.85086" lon="5.74523">
        <ele>778.7</ele>
        <time>2023-08-03T09:14:16Z</time>
      </trkpt>
      <trkpt lat="44.85076" lon="5.74513">
        <ele>777.8</ele>
        <time>2023-08-03T09:14:17Z</time>
      </trkpt>
      <trkpt lat="44.85045" lon="5.74482">
        <ele>775.1</ele>
        <time>2023-08-03T09:14:20Z</time>
      </trkpt>
      <trkpt lat="44.85037" lon="5.74469">
        <ele>774.2</ele>
        <time>2023-08-03T09:14:21Z</time>
      </trkpt>
      <trkpt lat="44.8503" lon="5.74454">
        <ele>773.3</ele>
        <time>2023-08-03T09:14:22Z</time>
      </trkpt>
      <trkpt lat="44.85022" lon="5.74422">
        <ele>771.5</ele>
        <time>2023-08-03T09:14:24Z</time>
      </trkpt>
      <trkpt lat="44.85023" lon="5.74387">
        <ele>769.7</ele>
        <time>2023-08-03T09:14:26Z</time>
      </trkpt>
      <trkpt lat="44.85026" lon="5.74371">
        <ele>768.8</ele>
        <time>2023-08-03T09:14:27Z</time>
      </trkpt>
      <trkpt lat="44.85032" lon="5.74356">
        <ele>767.9</ele>
        <time>2023-08-03T09:14:28Z</time>
      </trkpt>
      <trkpt lat="44.85045" lon="5.74328">
        <ele>765.9</ele>
        <time>2023-08-03T09:14:30Z</time>
      </trkpt>
      <trkpt lat="44.85054" lon="5.74315">
        <ele>765</ele>
        <time>2023-08-03T09:14:31Z</time>
      </trkpt>
      <trkpt lat="44.85073" lon="5.74292">
        <ele>763</ele>
        <time>2023-08-03T09:14:33Z</time>
      </trkpt>
      <trkpt lat="44.85126" lon="5.74244">
        <ele>758.3</ele>
        <time>2023-08-03T09:14:38Z</time>
      </trkpt>
      <trkpt lat="44.85137" lon="5.74235">
        <ele>757.5</ele>
        <time>2023-08-03T09:14:39Z</time>
      </trkpt>
      <trkpt lat="44.8518" lon="5.74198">
        <ele>753.8</ele>
        <time>2023-08-03T09:14:43Z</time>
      </trkpt>
      <trkpt lat="44.8519" lon="5.74185">
        <ele>752.8</ele>
        <time>2023-08-03T09:14:44Z</time>
      </trkpt>
      <trkpt lat="44.85204" lon="5.74156">
        <ele>751.1</ele>
        <time>2023-08-03T09:14:46Z</time>
      </trkpt>
      <trkpt lat="44.85208" lon="5.74138">
        <ele>750.2</ele>
        <time>2023-08-03T09:14:47Z</time>
      </trkpt>
      <trkpt lat="44.85222" lon="5.7407">
        <ele>746.1</ele>
        <time>2023-08-03T09:14:51Z</time>
      </trkpt>
      <trkpt lat="44.85248" lon="5.7401">
        <ele>742.8</ele>
        <time>2023-08-03T09:14:55Z</time>
      </trkpt>
      <trkpt lat="44.85253" lon="5.73996">
        <ele>742.2</ele>
        <time>2023-08-03T09:14:56Z</time>
      </trkpt>
      <trkpt lat="44.85257" lon="5.73965">
        <ele>741.7</ele>
        <time>2023-08-03T09:14:58Z</time>
      </trkpt>
      <trkpt lat="44.85251" lon="5.73936">
        <ele>741.6</ele>
        <time>2023-08-03T09:15:00Z</time>
      </trkpt>
      <trkpt lat="44.85247" lon="5.73922">
        <ele>741.6</ele>
        <time>2023-08-03T09:15:01Z</time>
      </trkpt>
      <trkpt lat="44.85242" lon="5.73909">
        <ele>741.5</ele>
        <time>2023-08-03T09:15:02Z</time>
      </trkpt>
      <trkpt lat="44.85236" lon="5.73898">
        <ele>741.5</ele>
        <time>2023-08-03T09:15:03Z</time>
      </trkpt>
      <trkpt lat="44.85229" lon="5.7389">
        <ele>741.4</ele>
        <time>2023-08-03T09:15:04Z</time>
      </trkpt>
      <trkpt lat="44.8521" lon="5.7388">
        <ele>741.5</ele>
        <time>2023-08-03T09:15:06Z</time>
      </trkpt>
      <trkpt lat="44.85201" lon="5.73876">
        <ele>741.6</ele>
        <time>2023-08-03T09:15:07Z</time>
      </trkpt>
      <trkpt lat="44.85184" lon="5.73869">
        <ele>741.7</ele>
        <time>2023-08-03T09:15:09Z</time>
      </trkpt>
      <trkpt lat="44.85167" lon="5.7386">
        <ele>741.9</ele>
        <time>2023-08-03T09:15:11Z</time>
      </trkpt>
      <trkpt lat="44.8513" lon="5.73831">
        <ele>742</ele>
        <time>2023-08-03T09:15:16Z</time>
      </trkpt>
      <trkpt lat="44.85122" lon="5.73827">
        <ele>742.1</ele>
        <time>2023-08-03T09:15:17Z</time>
      </trkpt>
      <trkpt lat="44.85108" lon="5.7382">
        <ele>742.1</ele>
        <time>2023-08-03T09:15:19Z</time>
      </trkpt>
      <trkpt lat="44.851" lon="5.73816">
        <ele>742.2</ele>
        <time>2023-08-03T09:15:20Z</time>
      </trkpt>
      <trkpt lat="44.8507" lon="5.73806">
        <ele>742.4</ele>
        <time>2023-08-03T09:15:24Z</time>
      </trkpt>
      <trkpt lat="44.85041" lon="5.73796">
        <ele>742.7</ele>
        <time>2023-08-03T09:15:28Z</time>
      </trkpt>
      <trkpt lat="44.85034" lon="5.73793">
        <ele>742.8</ele>
        <time>2023-08-03T09:15:29Z</time>
      </trkpt>
      <trkpt lat="44.85004" lon="5.73781">
        <ele>743</ele>
        <time>2023-08-03T09:15:33Z</time>
      </trkpt>
      <trkpt lat="44.8499" lon="5.73772">
        <ele>743.1</ele>
        <time>2023-08-03T09:15:35Z</time>
      </trkpt>
      <trkpt lat="44.84976" lon="5.73764">
        <ele>743.1</ele>
        <time>2023-08-03T09:15:37Z</time>
      </trkpt>
      <trkpt lat="44.84955" lon="5.73751">
        <ele>743.2</ele>
        <time>2023-08-03T09:15:40Z</time>
      </trkpt>
      <trkpt lat="44.84929" lon="5.73737">
        <ele>743.4</ele>
        <time>2023-08-03T09:15:44Z</time>
      </trkpt>
      <trkpt lat="44.84922" lon="5.73735">
        <ele>743.4</ele>
        <time>2023-08-03T09:15:45Z</time>
      </trkpt>
      <trkpt lat="44.84911" lon="5.73731">
        <ele>743.5</ele>
        <time>2023-08-03T09:15:47Z</time>
      </trkpt>
      <trkpt lat="44.84898" lon="5.73727">
        <ele>743.6</ele>
        <time>2023-08-03T09:15:49Z</time>
      </trkpt>
      <trkpt lat="44.84892" lon="5.73725">
        <ele>743.6</ele>
        <time>2023-08-03T09:15:50Z</time>
      </trkpt>
      <trkpt lat="44.84879" lon="5.73722">
        <ele>743.8</ele>
        <time>2023-08-03T09:15:52Z</time>
      </trkpt>
      <trkpt lat="44.84858" lon="5.73719">
        <ele>743.9</ele>
        <time>2023-08-03T09:15:55Z</time>
      </trkpt>
      <trkpt lat="44.84842" lon="5.73708">
        <ele>743.9</ele>
        <time>2023-08-03T09:15:57Z</time>
      </trkpt>
      <trkpt lat="44.84836" lon="5.737">
        <ele>744</ele>
        <time>2023-08-03T09:15:58Z</time>
      </trkpt>
      <trkpt lat="44.8483" lon="5.7369">
        <ele>744.1</ele>
        <time>2023-08-03T09:15:59Z</time>
      </trkpt>
      <trkpt lat="44.84825" lon="5.7368">
        <ele>744.2</ele>
        <time>2023-08-03T09:16:00Z</time>
      </trkpt>
      <trkpt lat="44.8482" lon="5.7367">
        <ele>744.5</ele>
        <time>2023-08-03T09:16:01Z</time>
      </trkpt>
      <trkpt lat="44.84808" lon="5.73638">
        <ele>745.8</ele>
        <time>2023-08-03T09:16:05Z</time>
      </trkpt>
      <trkpt lat="44.84804" lon="5.73632">
        <ele>746.1</ele>
        <time>2023-08-03T09:16:06Z</time>
      </trkpt>
      <trkpt lat="44.84795" lon="5.73617">
        <ele>747</ele>
        <time>2023-08-03T09:16:09Z</time>
      </trkpt>
      <trkpt lat="44.84789" lon="5.73612">
        <ele>747.4</ele>
        <time>2023-08-03T09:16:10Z</time>
      </trkpt>
      <trkpt lat="44.84777" lon="5.73594">
        <ele>748.4</ele>
        <time>2023-08-03T09:16:14Z</time>
      </trkpt>
      <trkpt lat="44.84767" lon="5.73582">
        <ele>749.2</ele>
        <time>2023-08-03T09:16:17Z</time>
      </trkpt>
      <trkpt lat="44.84743" lon="5.73548">
        <ele>751.3</ele>
        <time>2023-08-03T09:16:25Z</time>
      </trkpt>
      <trkpt lat="44.84726" lon="5.73517">
        <ele>753.5</ele>
        <time>2023-08-03T09:16:33Z</time>
      </trkpt>
      <trkpt lat="44.84722" lon="5.73511">
        <ele>754</ele>
        <time>2023-08-03T09:16:35Z</time>
      </trkpt>
      <trkpt lat="44.84715" lon="5.73496">
        <ele>755.1</ele>
        <time>2023-08-03T09:16:39Z</time>
      </trkpt>
      <trkpt lat="44.84711" lon="5.73489">
        <ele>755.6</ele>
        <time>2023-08-03T09:16:41Z</time>
      </trkpt>
      <trkpt lat="44.84709" lon="5.73485">
        <ele>755.9</ele>
        <time>2023-08-03T09:16:42Z</time>
      </trkpt>
      <trkpt lat="44.84704" lon="5.7346">
        <ele>757.4</ele>
        <time>2023-08-03T09:16:48Z</time>
      </trkpt>
      <trkpt lat="44.84705" lon="5.73447">
        <ele>757.9</ele>
        <time>2023-08-03T09:16:51Z</time>
      </trkpt>
      <trkpt lat="44.84707" lon="5.73429">
        <ele>758.5</ele>
        <time>2023-08-03T09:16:55Z</time>
      </trkpt>
      <trkpt lat="44.84702" lon="5.73417">
        <ele>759</ele>
        <time>2023-08-03T09:16:58Z</time>
      </trkpt>
      <trkpt lat="44.84698" lon="5.73411">
        <ele>759.3</ele>
        <time>2023-08-03T09:17:00Z</time>
      </trkpt>
      <trkpt lat="44.84692" lon="5.73402">
        <ele>759.6</ele>
        <time>2023-08-03T09:17:03Z</time>
      </trkpt>
      <trkpt lat="44.84685" lon="5.73392">
        <ele>760</ele>
        <time>2023-08-03T09:17:06Z</time>
      </trkpt>
      <trkpt lat="44.84681" lon="5.73386">
        <ele>760.3</ele>
        <time>2023-08-03T09:17:08Z</time>
      </trkpt>
      <trkpt lat="44.84676" lon="5.73379">
        <ele>760.7</ele>
        <time>2023-08-03T09:17:10Z</time>
      </trkpt>
      <trkpt lat="44.84669" lon="5.73368">
        <ele>761.2</ele>
        <time>2023-08-03T09:17:13Z</time>
      </trkpt>
      <trkpt lat="44.8466" lon="5.73354">
        <ele>762</ele>
        <time>2023-08-03T09:17:17Z</time>
      </trkpt>
      <trkpt lat="44.84657" lon="5.7335">
        <ele>762.2</ele>
        <time>2023-08-03T09:17:18Z</time>
      </trkpt>
      <trkpt lat="44.84651" lon="5.7334">
        <ele>762.8</ele>
        <time>2023-08-03T09:17:21Z</time>
      </trkpt>
      <trkpt lat="44.84646" lon="5.73326">
        <ele>763.4</ele>
        <time>2023-08-03T09:17:24Z</time>
      </trkpt>
      <trkpt lat="44.84643" lon="5.73317">
        <ele>763.9</ele>
        <time>2023-08-03T09:17:26Z</time>
      </trkpt>
      <trkpt lat="44.84641" lon="5.73308">
        <ele>764.4</ele>
        <time>2023-08-03T09:17:28Z</time>
      </trkpt>
      <trkpt lat="44.84638" lon="5.73294">
        <ele>765.1</ele>
        <time>2023-08-03T09:17:31Z</time>
      </trkpt>
      <trkpt lat="44.84635" lon="5.73276">
        <ele>766.1</ele>
        <time>2023-08-03T09:17:35Z</time>
      </trkpt>
      <trkpt lat="44.84635" lon="5.73272">
        <ele>766.4</ele>
        <time>2023-08-03T09:17:36Z</time>
      </trkpt>
      <trkpt lat="44.8463" lon="5.73245">
        <ele>767.8</ele>
        <time>2023-08-03T09:17:42Z</time>
      </trkpt>
      <trkpt lat="44.84628" lon="5.73237">
        <ele>768.3</ele>
        <time>2023-08-03T09:17:44Z</time>
      </trkpt>
      <trkpt lat="44.84626" lon="5.73225">
        <ele>769</ele>
        <time>2023-08-03T09:17:47Z</time>
      </trkpt>
      <trkpt lat="44.84623" lon="5.73204">
        <ele>770.2</ele>
        <time>2023-08-03T09:17:52Z</time>
      </trkpt>
      <trkpt lat="44.84618" lon="5.73178">
        <ele>771.6</ele>
        <time>2023-08-03T09:17:59Z</time>
      </trkpt>
      <trkpt lat="44.84618" lon="5.73175">
        <ele>771.8</ele>
        <time>2023-08-03T09:18:00Z</time>
      </trkpt>
      <trkpt lat="44.84615" lon="5.73159">
        <ele>772.7</ele>
        <time>2023-08-03T09:18:04Z</time>
      </trkpt>
      <trkpt lat="44.84613" lon="5.7314">
        <ele>773.6</ele>
        <time>2023-08-03T09:18:09Z</time>
      </trkpt>
      <trkpt lat="44.84609" lon="5.73116">
        <ele>774.9</ele>
        <time>2023-08-03T09:18:15Z</time>
      </trkpt>
      <trkpt lat="44.84608" lon="5.73112">
        <ele>775.1</ele>
        <time>2023-08-03T09:18:16Z</time>
      </trkpt>
      <trkpt lat="44.84603" lon="5.73076">
        <ele>777.1</ele>
        <time>2023-08-03T09:18:25Z</time>
      </trkpt>
      <trkpt lat="44.84601" lon="5.73068">
        <ele>777.6</ele>
        <time>2023-08-03T09:18:27Z</time>
      </trkpt>
      <trkpt lat="44.84598" lon="5.73048">
        <ele>778.7</ele>
        <time>2023-08-03T09:18:32Z</time>
      </trkpt>
      <trkpt lat="44.84593" lon="5.73022">
        <ele>780.1</ele>
        <time>2023-08-03T09:18:38Z</time>
      </trkpt>
      <trkpt lat="44.84592" lon="5.73019">
        <ele>780.4</ele>
        <time>2023-08-03T09:18:39Z</time>
      </trkpt>
      <trkpt lat="44.8459" lon="5.73007">
        <ele>781</ele>
        <time>2023-08-03T09:18:42Z</time>
      </trkpt>
      <trkpt lat="44.84587" lon="5.72986">
        <ele>782.2</ele>
        <time>2023-08-03T09:18:47Z</time>
      </trkpt>
      <trkpt lat="44.84586" lon="5.72978">
        <ele>782.6</ele>
        <time>2023-08-03T09:18:49Z</time>
      </trkpt>
      <trkpt lat="44.84583" lon="5.72962">
        <ele>783.5</ele>
        <time>2023-08-03T09:18:53Z</time>
      </trkpt>
      <trkpt lat="44.8458" lon="5.72942">
        <ele>784.6</ele>
        <time>2023-08-03T09:18:58Z</time>
      </trkpt>
      <trkpt lat="44.84578" lon="5.72923">
        <ele>785.7</ele>
        <time>2023-08-03T09:19:03Z</time>
      </trkpt>
      <trkpt lat="44.84574" lon="5.72904">
        <ele>786.8</ele>
        <time>2023-08-03T09:19:08Z</time>
      </trkpt>
      <trkpt lat="44.84573" lon="5.72899">
        <ele>787.1</ele>
        <time>2023-08-03T09:19:09Z</time>
      </trkpt>
      <trkpt lat="44.84567" lon="5.7288">
        <ele>788.2</ele>
        <time>2023-08-03T09:19:14Z</time>
      </trkpt>
      <trkpt lat="44.84558" lon="5.72857">
        <ele>789.7</ele>
        <time>2023-08-03T09:19:20Z</time>
      </trkpt>
      <trkpt lat="44.84557" lon="5.72853">
        <ele>789.9</ele>
        <time>2023-08-03T09:19:21Z</time>
      </trkpt>
      <trkpt lat="44.84551" lon="5.72838">
        <ele>790.9</ele>
        <time>2023-08-03T09:19:25Z</time>
      </trkpt>
      <trkpt lat="44.84545" lon="5.72819">
        <ele>792.2</ele>
        <time>2023-08-03T09:19:30Z</time>
      </trkpt>
      <trkpt lat="44.84544" lon="5.72816">
        <ele>792.4</ele>
        <time>2023-08-03T09:19:31Z</time>
      </trkpt>
      <trkpt lat="44.84538" lon="5.72791">
        <ele>793.9</ele>
        <time>2023-08-03T09:19:37Z</time>
      </trkpt>
      <trkpt lat="44.84537" lon="5.7278">
        <ele>794.5</ele>
        <time>2023-08-03T09:19:40Z</time>
      </trkpt>
      <trkpt lat="44.84536" lon="5.72764">
        <ele>795.5</ele>
        <time>2023-08-03T09:19:44Z</time>
      </trkpt>
      <trkpt lat="44.84537" lon="5.72747">
        <ele>796.4</ele>
        <time>2023-08-03T09:19:48Z</time>
      </trkpt>
      <trkpt lat="44.84537" lon="5.72735">
        <ele>797.1</ele>
        <time>2023-08-03T09:19:51Z</time>
      </trkpt>
      <trkpt lat="44.84538" lon="5.72715">
        <ele>798.2</ele>
        <time>2023-08-03T09:19:56Z</time>
      </trkpt>
      <trkpt lat="44.84539" lon="5.72699">
        <ele>799.1</ele>
        <time>2023-08-03T09:20:00Z</time>
      </trkpt>
      <trkpt lat="44.84541" lon="5.7265">
        <ele>801.9</ele>
        <time>2023-08-03T09:20:12Z</time>
      </trkpt>
      <trkpt lat="44.84546" lon="5.72618">
        <ele>804</ele>
        <time>2023-08-03T09:20:20Z</time>
      </trkpt>
      <trkpt lat="44.84547" lon="5.72614">
        <ele>804.2</ele>
        <time>2023-08-03T09:20:21Z</time>
      </trkpt>
      <trkpt lat="44.84554" lon="5.72601">
        <ele>805.1</ele>
        <time>2023-08-03T09:20:25Z</time>
      </trkpt>
      <trkpt lat="44.84558" lon="5.72596">
        <ele>805.5</ele>
        <time>2023-08-03T09:20:27Z</time>
      </trkpt>
      <trkpt lat="44.84566" lon="5.72589">
        <ele>806.2</ele>
        <time>2023-08-03T09:20:30Z</time>
      </trkpt>
      <trkpt lat="44.84575" lon="5.72585">
        <ele>807</ele>
        <time>2023-08-03T09:20:33Z</time>
      </trkpt>
      <trkpt lat="44.8459" lon="5.72573">
        <ele>808.4</ele>
        <time>2023-08-03T09:20:38Z</time>
      </trkpt>
      <trkpt lat="44.84592" lon="5.7257">
        <ele>808.7</ele>
        <time>2023-08-03T09:20:39Z</time>
      </trkpt>
      <trkpt lat="44.8459" lon="5.72551">
        <ele>809.7</ele>
        <time>2023-08-03T09:20:43Z</time>
      </trkpt>
      <trkpt lat="44.84582" lon="5.72546">
        <ele>810.2</ele>
        <time>2023-08-03T09:20:46Z</time>
      </trkpt>
      <trkpt lat="44.84568" lon="5.72544">
        <ele>810.9</ele>
        <time>2023-08-03T09:20:50Z</time>
      </trkpt>
      <trkpt lat="44.84546" lon="5.72554">
        <ele>812</ele>
        <time>2023-08-03T09:20:56Z</time>
      </trkpt>
      <trkpt lat="44.84525" lon="5.7256">
        <ele>813</ele>
        <time>2023-08-03T09:21:02Z</time>
      </trkpt>
      <trkpt lat="44.84496" lon="5.72552">
        <ele>814.7</ele>
        <time>2023-08-03T09:21:10Z</time>
      </trkpt>
      <trkpt lat="44.84462" lon="5.72542">
        <ele>817.3</ele>
        <time>2023-08-03T09:21:20Z</time>
      </trkpt>
      <trkpt lat="44.84435" lon="5.72524">
        <ele>819.8</ele>
        <time>2023-08-03T09:21:29Z</time>
      </trkpt>
      <trkpt lat="44.84413" lon="5.72497">
        <ele>822.2</ele>
        <time>2023-08-03T09:21:38Z</time>
      </trkpt>
      <trkpt lat="44.844" lon="5.72475">
        <ele>823.9</ele>
        <time>2023-08-03T09:21:45Z</time>
      </trkpt>
      <trkpt lat="44.84391" lon="5.72457">
        <ele>825.1</ele>
        <time>2023-08-03T09:21:51Z</time>
      </trkpt>
      <trkpt lat="44.8438" lon="5.72437">
        <ele>826.4</ele>
        <time>2023-08-03T09:21:58Z</time>
      </trkpt>
      <trkpt lat="44.84364" lon="5.72416">
        <ele>828</ele>
        <time>2023-08-03T09:22:06Z</time>
      </trkpt>
      <trkpt lat="44.84362" lon="5.72413">
        <ele>828.3</ele>
        <time>2023-08-03T09:22:07Z</time>
      </trkpt>
      <trkpt lat="44.8435" lon="5.72397">
        <ele>829.7</ele>
        <time>2023-08-03T09:22:14Z</time>
      </trkpt>
      <trkpt lat="44.8434" lon="5.72369">
        <ele>831.4</ele>
        <time>2023-08-03T09:22:22Z</time>
      </trkpt>
      <trkpt lat="44.84334" lon="5.7235">
        <ele>832.6</ele>
        <time>2023-08-03T09:22:28Z</time>
      </trkpt>
      <trkpt lat="44.84335" lon="5.72329">
        <ele>833.9</ele>
        <time>2023-08-03T09:22:34Z</time>
      </trkpt>
      <trkpt lat="44.84335" lon="5.72325">
        <ele>834.1</ele>
        <time>2023-08-03T09:22:35Z</time>
      </trkpt>
      <trkpt lat="44.84335" lon="5.72307">
        <ele>835.3</ele>
        <time>2023-08-03T09:22:40Z</time>
      </trkpt>
      <trkpt lat="44.84335" lon="5.72303">
        <ele>835.5</ele>
        <time>2023-08-03T09:22:41Z</time>
      </trkpt>
      <trkpt lat="44.84331" lon="5.72284">
        <ele>836.7</ele>
        <time>2023-08-03T09:22:46Z</time>
      </trkpt>
      <trkpt lat="44.84322" lon="5.72276">
        <ele>837.4</ele>
        <time>2023-08-03T09:22:49Z</time>
      </trkpt>
      <trkpt lat="44.84311" lon="5.72278">
        <ele>838</ele>
        <time>2023-08-03T09:22:52Z</time>
      </trkpt>
      <trkpt lat="44.84309" lon="5.72281">
        <ele>838.1</ele>
        <time>2023-08-03T09:22:53Z</time>
      </trkpt>
      <trkpt lat="44.84303" lon="5.72301">
        <ele>838.7</ele>
        <time>2023-08-03T09:22:58Z</time>
      </trkpt>
      <trkpt lat="44.84292" lon="5.7233">
        <ele>839.6</ele>
        <time>2023-08-03T09:23:04Z</time>
      </trkpt>
      <trkpt lat="44.84275" lon="5.72338">
        <ele>840.3</ele>
        <time>2023-08-03T09:23:09Z</time>
      </trkpt>
      <trkpt lat="44.84251" lon="5.72328">
        <ele>841.5</ele>
        <time>2023-08-03T09:23:16Z</time>
      </trkpt>
      <trkpt lat="44.84228" lon="5.7231">
        <ele>843.2</ele>
        <time>2023-08-03T09:23:24Z</time>
      </trkpt>
      <trkpt lat="44.84208" lon="5.72292">
        <ele>845.4</ele>
        <time>2023-08-03T09:23:31Z</time>
      </trkpt>
      <trkpt lat="44.84202" lon="5.72286">
        <ele>846</ele>
        <time>2023-08-03T09:23:33Z</time>
      </trkpt>
      <trkpt lat="44.84196" lon="5.72281">
        <ele>846.6</ele>
        <time>2023-08-03T09:23:35Z</time>
      </trkpt>
      <trkpt lat="44.84173" lon="5.7226">
        <ele>848.8</ele>
        <time>2023-08-03T09:23:43Z</time>
      </trkpt>
      <trkpt lat="44.84144" lon="5.72233">
        <ele>850.8</ele>
        <time>2023-08-03T09:23:53Z</time>
      </trkpt>
      <trkpt lat="44.84119" lon="5.72199">
        <ele>852.2</ele>
        <time>2023-08-03T09:24:02Z</time>
      </trkpt>
      <trkpt lat="44.84085" lon="5.72152">
        <ele>853.8</ele>
        <time>2023-08-03T09:24:13Z</time>
      </trkpt>
      <trkpt lat="44.84056" lon="5.72106">
        <ele>855.3</ele>
        <time>2023-08-03T09:24:23Z</time>
      </trkpt>
      <trkpt lat="44.84025" lon="5.7206">
        <ele>856.3</ele>
        <time>2023-08-03T09:24:32Z</time>
      </trkpt>
      <trkpt lat="44.83991" lon="5.72012">
        <ele>856.9</ele>
        <time>2023-08-03T09:24:41Z</time>
      </trkpt>
      <trkpt lat="44.83978" lon="5.71989">
        <ele>857.3</ele>
        <time>2023-08-03T09:24:45Z</time>
      </trkpt>
      <trkpt lat="44.83975" lon="5.71974">
        <ele>857.4</ele>
        <time>2023-08-03T09:24:47Z</time>
      </trkpt>
      <trkpt lat="44.83979" lon="5.71961">
        <ele>857.4</ele>
        <time>2023-08-03T09:24:49Z</time>
      </trkpt>
      <trkpt lat="44.83982" lon="5.71956">
        <ele>857.4</ele>
        <time>2023-08-03T09:24:50Z</time>
      </trkpt>
      <trkpt lat="44.83994" lon="5.7194">
        <ele>857.4</ele>
        <time>2023-08-03T09:24:53Z</time>
      </trkpt>
      <trkpt lat="44.8401" lon="5.71916">
        <ele>857.6</ele>
        <time>2023-08-03T09:24:57Z</time>
      </trkpt>
      <trkpt lat="44.84013" lon="5.7191">
        <ele>857.7</ele>
        <time>2023-08-03T09:24:58Z</time>
      </trkpt>
      <trkpt lat="44.84026" lon="5.71887">
        <ele>858.1</ele>
        <time>2023-08-03T09:25:02Z</time>
      </trkpt>
      <trkpt lat="44.84031" lon="5.71874">
        <ele>858.3</ele>
        <time>2023-08-03T09:25:04Z</time>
      </trkpt>
      <trkpt lat="44.84034" lon="5.71868">
        <ele>858.4</ele>
        <time>2023-08-03T09:25:05Z</time>
      </trkpt>
      <trkpt lat="44.8404" lon="5.71849">
        <ele>858.8</ele>
        <time>2023-08-03T09:25:08Z</time>
      </trkpt>
      <trkpt lat="44.84047" lon="5.71825">
        <ele>859.3</ele>
        <time>2023-08-03T09:25:12Z</time>
      </trkpt>
      <trkpt lat="44.84048" lon="5.71819">
        <ele>859.4</ele>
        <time>2023-08-03T09:25:13Z</time>
      </trkpt>
      <trkpt lat="44.84051" lon="5.71808">
        <ele>859.7</ele>
        <time>2023-08-03T09:25:15Z</time>
      </trkpt>
      <trkpt lat="44.84056" lon="5.7178">
        <ele>860.4</ele>
        <time>2023-08-03T09:25:19Z</time>
      </trkpt>
      <trkpt lat="44.84057" lon="5.71766">
        <ele>860.7</ele>
        <time>2023-08-03T09:25:21Z</time>
      </trkpt>
      <trkpt lat="44.84058" lon="5.71745">
        <ele>861.3</ele>
        <time>2023-08-03T09:25:24Z</time>
      </trkpt>
      <trkpt lat="44.84058" lon="5.71731">
        <ele>861.8</ele>
        <time>2023-08-03T09:25:26Z</time>
      </trkpt>
      <trkpt lat="44.84057" lon="5.71711">
        <ele>862.5</ele>
        <time>2023-08-03T09:25:29Z</time>
      </trkpt>
      <trkpt lat="44.84057" lon="5.71698">
        <ele>863</ele>
        <time>2023-08-03T09:25:31Z</time>
      </trkpt>
      <trkpt lat="44.84056" lon="5.71678">
        <ele>863.7</ele>
        <time>2023-08-03T09:25:34Z</time>
      </trkpt>
      <trkpt lat="44.84056" lon="5.71657">
        <ele>864.5</ele>
        <time>2023-08-03T09:25:37Z</time>
      </trkpt>
      <trkpt lat="44.84055" lon="5.71631">
        <ele>865.4</ele>
        <time>2023-08-03T09:25:41Z</time>
      </trkpt>
      <trkpt lat="44.84055" lon="5.71611">
        <ele>866.1</ele>
        <time>2023-08-03T09:25:44Z</time>
      </trkpt>
      <trkpt lat="44.84054" lon="5.71593">
        <ele>866.7</ele>
        <time>2023-08-03T09:25:47Z</time>
      </trkpt>
      <trkpt lat="44.84054" lon="5.7157">
        <ele>867.6</ele>
        <time>2023-08-03T09:25:51Z</time>
      </trkpt>
      <trkpt lat="44.84054" lon="5.71565">
        <ele>867.7</ele>
        <time>2023-08-03T09:25:52Z</time>
      </trkpt>
      <trkpt lat="44.84053" lon="5.71538">
        <ele>868.6</ele>
        <time>2023-08-03T09:25:56Z</time>
      </trkpt>
      <trkpt lat="44.84052" lon="5.71514">
        <ele>869.4</ele>
        <time>2023-08-03T09:26:00Z</time>
      </trkpt>
      <trkpt lat="44.84051" lon="5.71482">
        <ele>870.5</ele>
        <time>2023-08-03T09:26:05Z</time>
      </trkpt>
      <trkpt lat="44.84051" lon="5.71476">
        <ele>870.7</ele>
        <time>2023-08-03T09:26:06Z</time>
      </trkpt>
      <trkpt lat="44.84051" lon="5.71458">
        <ele>871.2</ele>
        <time>2023-08-03T09:26:09Z</time>
      </trkpt>
      <trkpt lat="44.8405" lon="5.71438">
        <ele>871.8</ele>
        <time>2023-08-03T09:26:12Z</time>
      </trkpt>
      <trkpt lat="44.8405" lon="5.71413">
        <ele>872.5</ele>
        <time>2023-08-03T09:26:16Z</time>
      </trkpt>
      <trkpt lat="44.84049" lon="5.71399">
        <ele>873</ele>
        <time>2023-08-03T09:26:18Z</time>
      </trkpt>
      <trkpt lat="44.84049" lon="5.71386">
        <ele>873.5</ele>
        <time>2023-08-03T09:26:20Z</time>
      </trkpt>
      <trkpt lat="44.84047" lon="5.71354">
        <ele>874.5</ele>
        <time>2023-08-03T09:26:25Z</time>
      </trkpt>
      <trkpt lat="44.84047" lon="5.71322">
        <ele>875.5</ele>
        <time>2023-08-03T09:26:30Z</time>
      </trkpt>
      <trkpt lat="44.84047" lon="5.71317">
        <ele>875.7</ele>
        <time>2023-08-03T09:26:31Z</time>
      </trkpt>
      <trkpt lat="44.84047" lon="5.71297">
        <ele>876.4</ele>
        <time>2023-08-03T09:26:34Z</time>
      </trkpt>
      <trkpt lat="44.84046" lon="5.71271">
        <ele>877.2</ele>
        <time>2023-08-03T09:26:38Z</time>
      </trkpt>
      <trkpt lat="44.84045" lon="5.71253">
        <ele>877.9</ele>
        <time>2023-08-03T09:26:41Z</time>
      </trkpt>
      <trkpt lat="44.84044" lon="5.7124">
        <ele>878.3</ele>
        <time>2023-08-03T09:26:43Z</time>
      </trkpt>
      <trkpt lat="44.84041" lon="5.71196">
        <ele>879.9</ele>
        <time>2023-08-03T09:26:50Z</time>
      </trkpt>
      <trkpt lat="44.8404" lon="5.7119">
        <ele>880.1</ele>
        <time>2023-08-03T09:26:51Z</time>
      </trkpt>
      <trkpt lat="44.84028" lon="5.71142">
        <ele>882</ele>
        <time>2023-08-03T09:26:59Z</time>
      </trkpt>
      <trkpt lat="44.84014" lon="5.71096">
        <ele>883.9</ele>
        <time>2023-08-03T09:27:07Z</time>
      </trkpt>
      <trkpt lat="44.8401" lon="5.71078">
        <ele>884.7</ele>
        <time>2023-08-03T09:27:10Z</time>
      </trkpt>
      <trkpt lat="44.84008" lon="5.71047">
        <ele>885.5</ele>
        <time>2023-08-03T09:27:15Z</time>
      </trkpt>
      <trkpt lat="44.84009" lon="5.71034">
        <ele>885.7</ele>
        <time>2023-08-03T09:27:17Z</time>
      </trkpt>
      <trkpt lat="44.84018" lon="5.70994">
        <ele>885.6</ele>
        <time>2023-08-03T09:27:24Z</time>
      </trkpt>
      <trkpt lat="44.84019" lon="5.70987">
        <ele>885.4</ele>
        <time>2023-08-03T09:27:25Z</time>
      </trkpt>
      <trkpt lat="44.84027" lon="5.70959">
        <ele>884</ele>
        <time>2023-08-03T09:27:29Z</time>
      </trkpt>
      <trkpt lat="44.84032" lon="5.70942">
        <ele>883.1</ele>
        <time>2023-08-03T09:27:31Z</time>
      </trkpt>
      <trkpt lat="44.84037" lon="5.70909">
        <ele>881.5</ele>
        <time>2023-08-03T09:27:34Z</time>
      </trkpt>
      <trkpt lat="44.84036" lon="5.70872">
        <ele>879.7</ele>
        <time>2023-08-03T09:27:37Z</time>
      </trkpt>
      <trkpt lat="44.84035" lon="5.70862">
        <ele>879.2</ele>
        <time>2023-08-03T09:27:38Z</time>
      </trkpt>
      <trkpt lat="44.84027" lon="5.70823">
        <ele>877.3</ele>
        <time>2023-08-03T09:27:41Z</time>
      </trkpt>
      <trkpt lat="44.84023" lon="5.70809">
        <ele>876.7</ele>
        <time>2023-08-03T09:27:42Z</time>
      </trkpt>
      <trkpt lat="44.84013" lon="5.70766">
        <ele>874.6</ele>
        <time>2023-08-03T09:27:45Z</time>
      </trkpt>
      <trkpt lat="44.8401" lon="5.7075">
        <ele>873.8</ele>
        <time>2023-08-03T09:27:46Z</time>
      </trkpt>
      <trkpt lat="44.84008" lon="5.70718">
        <ele>872.1</ele>
        <time>2023-08-03T09:27:48Z</time>
      </trkpt>
      <trkpt lat="44.84008" lon="5.70684">
        <ele>870.4</ele>
        <time>2023-08-03T09:27:50Z</time>
      </trkpt>
      <trkpt lat="44.84008" lon="5.70649">
        <ele>868.6</ele>
        <time>2023-08-03T09:27:52Z</time>
      </trkpt>
      <trkpt lat="44.84008" lon="5.70596">
        <ele>866.1</ele>
        <time>2023-08-03T09:27:55Z</time>
      </trkpt>
      <trkpt lat="44.84008" lon="5.70578">
        <ele>865.3</ele>
        <time>2023-08-03T09:27:56Z</time>
      </trkpt>
      <trkpt lat="44.84008" lon="5.70523">
        <ele>862.4</ele>
        <time>2023-08-03T09:27:59Z</time>
      </trkpt>
      <trkpt lat="44.84009" lon="5.70504">
        <ele>861.5</ele>
        <time>2023-08-03T09:28:00Z</time>
      </trkpt>
      <trkpt lat="44.84011" lon="5.70466">
        <ele>859.6</ele>
        <time>2023-08-03T09:28:02Z</time>
      </trkpt>
      <trkpt lat="44.84014" lon="5.70447">
        <ele>858.7</ele>
        <time>2023-08-03T09:28:03Z</time>
      </trkpt>
      <trkpt lat="44.84017" lon="5.70429">
        <ele>857.8</ele>
        <time>2023-08-03T09:28:04Z</time>
      </trkpt>
      <trkpt lat="44.84022" lon="5.70411">
        <ele>856.9</ele>
        <time>2023-08-03T09:28:05Z</time>
      </trkpt>
      <trkpt lat="44.84028" lon="5.70393">
        <ele>856</ele>
        <time>2023-08-03T09:28:06Z</time>
      </trkpt>
      <trkpt lat="44.84049" lon="5.70343">
        <ele>853.2</ele>
        <time>2023-08-03T09:28:09Z</time>
      </trkpt>
      <trkpt lat="44.84077" lon="5.70275">
        <ele>849.6</ele>
        <time>2023-08-03T09:28:13Z</time>
      </trkpt>
      <trkpt lat="44.84097" lon="5.70227">
        <ele>847.1</ele>
        <time>2023-08-03T09:28:16Z</time>
      </trkpt>
      <trkpt lat="44.84113" lon="5.7019">
        <ele>845</ele>
        <time>2023-08-03T09:28:18Z</time>
      </trkpt>
      <trkpt lat="44.8412" lon="5.70173">
        <ele>844.1</ele>
        <time>2023-08-03T09:28:19Z</time>
      </trkpt>
      <trkpt lat="44.84141" lon="5.70124">
        <ele>841.4</ele>
        <time>2023-08-03T09:28:22Z</time>
      </trkpt>
      <trkpt lat="44.84169" lon="5.70057">
        <ele>837.7</ele>
        <time>2023-08-03T09:28:26Z</time>
      </trkpt>
      <trkpt lat="44.84183" lon="5.70024">
        <ele>835.8</ele>
        <time>2023-08-03T09:28:28Z</time>
      </trkpt>
      <trkpt lat="44.8419" lon="5.70006">
        <ele>834.9</ele>
        <time>2023-08-03T09:28:29Z</time>
      </trkpt>
      <trkpt lat="44.84217" lon="5.69937">
        <ele>831.2</ele>
        <time>2023-08-03T09:28:33Z</time>
      </trkpt>
      <trkpt lat="44.84242" lon="5.69889">
        <ele>828.2</ele>
        <time>2023-08-03T09:28:36Z</time>
      </trkpt>
      <trkpt lat="44.84251" lon="5.69875">
        <ele>827.2</ele>
        <time>2023-08-03T09:28:37Z</time>
      </trkpt>
      <trkpt lat="44.84272" lon="5.69849">
        <ele>825.1</ele>
        <time>2023-08-03T09:28:39Z</time>
      </trkpt>
      <trkpt lat="44.84309" lon="5.69819">
        <ele>822.1</ele>
        <time>2023-08-03T09:28:42Z</time>
      </trkpt>
      <trkpt lat="44.84322" lon="5.6981">
        <ele>821.1</ele>
        <time>2023-08-03T09:28:43Z</time>
      </trkpt>
      <trkpt lat="44.84347" lon="5.69792">
        <ele>819.2</ele>
        <time>2023-08-03T09:28:45Z</time>
      </trkpt>
      <trkpt lat="44.84384" lon="5.69764">
        <ele>816.4</ele>
        <time>2023-08-03T09:28:48Z</time>
      </trkpt>
      <trkpt lat="44.84434" lon="5.69729">
        <ele>812.8</ele>
        <time>2023-08-03T09:28:52Z</time>
      </trkpt>
      <trkpt lat="44.84446" lon="5.6972">
        <ele>811.9</ele>
        <time>2023-08-03T09:28:53Z</time>
      </trkpt>
      <trkpt lat="44.84495" lon="5.69683">
        <ele>808.3</ele>
        <time>2023-08-03T09:28:57Z</time>
      </trkpt>
      <trkpt lat="44.84532" lon="5.69655">
        <ele>805.4</ele>
        <time>2023-08-03T09:29:00Z</time>
      </trkpt>
      <trkpt lat="44.84568" lon="5.69628">
        <ele>802.5</ele>
        <time>2023-08-03T09:29:03Z</time>
      </trkpt>
      <trkpt lat="44.84617" lon="5.69591">
        <ele>799</ele>
        <time>2023-08-03T09:29:07Z</time>
      </trkpt>
      <trkpt lat="44.8463" lon="5.69582">
        <ele>798.1</ele>
        <time>2023-08-03T09:29:08Z</time>
      </trkpt>
      <trkpt lat="44.84667" lon="5.69555">
        <ele>795.5</ele>
        <time>2023-08-03T09:29:11Z</time>
      </trkpt>
      <trkpt lat="44.8469" lon="5.69535">
        <ele>793.6</ele>
        <time>2023-08-03T09:29:13Z</time>
      </trkpt>
      <trkpt lat="44.8472" lon="5.69495">
        <ele>790.8</ele>
        <time>2023-08-03T09:29:16Z</time>
      </trkpt>
      <trkpt lat="44.84744" lon="5.69447">
        <ele>788.3</ele>
        <time>2023-08-03T09:29:19Z</time>
      </trkpt>
      <trkpt lat="44.84751" lon="5.69431">
        <ele>787.4</ele>
        <time>2023-08-03T09:29:20Z</time>
      </trkpt>
      <trkpt lat="44.84779" lon="5.69387">
        <ele>784.7</ele>
        <time>2023-08-03T09:29:23Z</time>
      </trkpt>
      <trkpt lat="44.84789" lon="5.69374">
        <ele>783.8</ele>
        <time>2023-08-03T09:29:24Z</time>
      </trkpt>
      <trkpt lat="44.84822" lon="5.69341">
        <ele>780.9</ele>
        <time>2023-08-03T09:29:27Z</time>
      </trkpt>
      <trkpt lat="44.84845" lon="5.6932">
        <ele>779</ele>
        <time>2023-08-03T09:29:29Z</time>
      </trkpt>
      <trkpt lat="44.84891" lon="5.69277">
        <ele>775.1</ele>
        <time>2023-08-03T09:29:33Z</time>
      </trkpt>
      <trkpt lat="44.84913" lon="5.69256">
        <ele>773.1</ele>
        <time>2023-08-03T09:29:35Z</time>
      </trkpt>
      <trkpt lat="44.84959" lon="5.69215">
        <ele>769.5</ele>
        <time>2023-08-03T09:29:39Z</time>
      </trkpt>
      <trkpt lat="44.84971" lon="5.69208">
        <ele>768.5</ele>
        <time>2023-08-03T09:29:40Z</time>
      </trkpt>
      <trkpt lat="44.84985" lon="5.69204">
        <ele>767.5</ele>
        <time>2023-08-03T09:29:41Z</time>
      </trkpt>
      <trkpt lat="44.85013" lon="5.69207">
        <ele>765.5</ele>
        <time>2023-08-03T09:29:43Z</time>
      </trkpt>
      <trkpt lat="44.8504" lon="5.69217">
        <ele>763.5</ele>
        <time>2023-08-03T09:29:45Z</time>
      </trkpt>
      <trkpt lat="44.85054" lon="5.69219">
        <ele>762.6</ele>
        <time>2023-08-03T09:29:46Z</time>
      </trkpt>
      <trkpt lat="44.85068" lon="5.69219">
        <ele>761.7</ele>
        <time>2023-08-03T09:29:47Z</time>
      </trkpt>
      <trkpt lat="44.85094" lon="5.69212">
        <ele>759.9</ele>
        <time>2023-08-03T09:29:49Z</time>
      </trkpt>
      <trkpt lat="44.85145" lon="5.69187">
        <ele>756.3</ele>
        <time>2023-08-03T09:29:53Z</time>
      </trkpt>
      <trkpt lat="44.85157" lon="5.69177">
        <ele>755.4</ele>
        <time>2023-08-03T09:29:54Z</time>
      </trkpt>
      <trkpt lat="44.85167" lon="5.69165">
        <ele>754.3</ele>
        <time>2023-08-03T09:29:55Z</time>
      </trkpt>
      <trkpt lat="44.85182" lon="5.69136">
        <ele>752.6</ele>
        <time>2023-08-03T09:29:57Z</time>
      </trkpt>
      <trkpt lat="44.85193" lon="5.69102">
        <ele>750.8</ele>
        <time>2023-08-03T09:29:59Z</time>
      </trkpt>
      <trkpt lat="44.85205" lon="5.69069">
        <ele>749.2</ele>
        <time>2023-08-03T09:30:01Z</time>
      </trkpt>
      <trkpt lat="44.85211" lon="5.69053">
        <ele>748.4</ele>
        <time>2023-08-03T09:30:02Z</time>
      </trkpt>
      <trkpt lat="44.85229" lon="5.69025">
        <ele>746.6</ele>
        <time>2023-08-03T09:30:04Z</time>
      </trkpt>
      <trkpt lat="44.85271" lon="5.68976">
        <ele>743.9</ele>
        <time>2023-08-03T09:30:08Z</time>
      </trkpt>
      <trkpt lat="44.85282" lon="5.68965">
        <ele>743</ele>
        <time>2023-08-03T09:30:09Z</time>
      </trkpt>
      <trkpt lat="44.85326" lon="5.6892">
        <ele>739.3</ele>
        <time>2023-08-03T09:30:13Z</time>
      </trkpt>
      <trkpt lat="44.85337" lon="5.68908">
        <ele>738.3</ele>
        <time>2023-08-03T09:30:14Z</time>
      </trkpt>
      <trkpt lat="44.85372" lon="5.68875">
        <ele>735.6</ele>
        <time>2023-08-03T09:30:17Z</time>
      </trkpt>
      <trkpt lat="44.85416" lon="5.68828">
        <ele>732.1</ele>
        <time>2023-08-03T09:30:21Z</time>
      </trkpt>
      <trkpt lat="44.8545" lon="5.68794">
        <ele>729.3</ele>
        <time>2023-08-03T09:30:24Z</time>
      </trkpt>
      <trkpt lat="44.85495" lon="5.68748">
        <ele>725.9</ele>
        <time>2023-08-03T09:30:28Z</time>
      </trkpt>
      <trkpt lat="44.85519" lon="5.68723">
        <ele>724</ele>
        <time>2023-08-03T09:30:30Z</time>
      </trkpt>
      <trkpt lat="44.85528" lon="5.68715">
        <ele>723.3</ele>
        <time>2023-08-03T09:30:31Z</time>
      </trkpt>
      <trkpt lat="44.85574" lon="5.68671">
        <ele>719.2</ele>
        <time>2023-08-03T09:30:35Z</time>
      </trkpt>
      <trkpt lat="44.85587" lon="5.68657">
        <ele>718</ele>
        <time>2023-08-03T09:30:36Z</time>
      </trkpt>
      <trkpt lat="44.85627" lon="5.68608">
        <ele>714.5</ele>
        <time>2023-08-03T09:30:40Z</time>
      </trkpt>
      <trkpt lat="44.85668" lon="5.68557">
        <ele>711</ele>
        <time>2023-08-03T09:30:44Z</time>
      </trkpt>
      <trkpt lat="44.85679" lon="5.68546">
        <ele>710.2</ele>
        <time>2023-08-03T09:30:45Z</time>
      </trkpt>
      <trkpt lat="44.8572" lon="5.68498">
        <ele>706.5</ele>
        <time>2023-08-03T09:30:49Z</time>
      </trkpt>
      <trkpt lat="44.85762" lon="5.68448">
        <ele>702.5</ele>
        <time>2023-08-03T09:30:53Z</time>
      </trkpt>
      <trkpt lat="44.85772" lon="5.68436">
        <ele>701.5</ele>
        <time>2023-08-03T09:30:54Z</time>
      </trkpt>
      <trkpt lat="44.8579" lon="5.68408">
        <ele>699.7</ele>
        <time>2023-08-03T09:30:56Z</time>
      </trkpt>
      <trkpt lat="44.85798" lon="5.68391">
        <ele>698.7</ele>
        <time>2023-08-03T09:30:57Z</time>
      </trkpt>
      <trkpt lat="44.85804" lon="5.68377">
        <ele>697.7</ele>
        <time>2023-08-03T09:30:58Z</time>
      </trkpt>
      <trkpt lat="44.85811" lon="5.68363">
        <ele>696.5</ele>
        <time>2023-08-03T09:30:59Z</time>
      </trkpt>
      <trkpt lat="44.85818" lon="5.68354">
        <ele>695.6</ele>
        <time>2023-08-03T09:31:00Z</time>
      </trkpt>
      <trkpt lat="44.85831" lon="5.68343">
        <ele>694.3</ele>
        <time>2023-08-03T09:31:01Z</time>
      </trkpt>
      <trkpt lat="44.85852" lon="5.68336">
        <ele>692.9</ele>
        <time>2023-08-03T09:31:03Z</time>
      </trkpt>
      <trkpt lat="44.85915" lon="5.6834">
        <ele>689.5</ele>
        <time>2023-08-03T09:31:08Z</time>
      </trkpt>
      <trkpt lat="44.85976" lon="5.68345">
        <ele>684.3</ele>
        <time>2023-08-03T09:31:13Z</time>
      </trkpt>
      <trkpt lat="44.85987" lon="5.68344">
        <ele>683.2</ele>
        <time>2023-08-03T09:31:14Z</time>
      </trkpt>
      <trkpt lat="44.85997" lon="5.6834">
        <ele>682.3</ele>
        <time>2023-08-03T09:31:15Z</time>
      </trkpt>
      <trkpt lat="44.86007" lon="5.68332">
        <ele>681.3</ele>
        <time>2023-08-03T09:31:16Z</time>
      </trkpt>
      <trkpt lat="44.86015" lon="5.6832">
        <ele>680.4</ele>
        <time>2023-08-03T09:31:17Z</time>
      </trkpt>
      <trkpt lat="44.8602" lon="5.68305">
        <ele>679.4</ele>
        <time>2023-08-03T09:31:18Z</time>
      </trkpt>
      <trkpt lat="44.86023" lon="5.68289">
        <ele>678.4</ele>
        <time>2023-08-03T09:31:19Z</time>
      </trkpt>
      <trkpt lat="44.86024" lon="5.68273">
        <ele>677.4</ele>
        <time>2023-08-03T09:31:20Z</time>
      </trkpt>
      <trkpt lat="44.86025" lon="5.68238">
        <ele>675.3</ele>
        <time>2023-08-03T09:31:22Z</time>
      </trkpt>
      <trkpt lat="44.86034" lon="5.68206">
        <ele>673.3</ele>
        <time>2023-08-03T09:31:24Z</time>
      </trkpt>
      <trkpt lat="44.86053" lon="5.68182">
        <ele>671.5</ele>
        <time>2023-08-03T09:31:26Z</time>
      </trkpt>
      <trkpt lat="44.86064" lon="5.68174">
        <ele>670.5</ele>
        <time>2023-08-03T09:31:27Z</time>
      </trkpt>
      <trkpt lat="44.86076" lon="5.68168">
        <ele>669.5</ele>
        <time>2023-08-03T09:31:28Z</time>
      </trkpt>
      <trkpt lat="44.86088" lon="5.68164">
        <ele>668.3</ele>
        <time>2023-08-03T09:31:29Z</time>
      </trkpt>
      <trkpt lat="44.861" lon="5.68161">
        <ele>667.1</ele>
        <time>2023-08-03T09:31:30Z</time>
      </trkpt>
      <trkpt lat="44.86151" lon="5.68142">
        <ele>662.6</ele>
        <time>2023-08-03T09:31:34Z</time>
      </trkpt>
      <trkpt lat="44.86164" lon="5.68135">
        <ele>661.4</ele>
        <time>2023-08-03T09:31:35Z</time>
      </trkpt>
      <trkpt lat="44.86187" lon="5.68115">
        <ele>659.1</ele>
        <time>2023-08-03T09:31:37Z</time>
      </trkpt>
      <trkpt lat="44.86198" lon="5.68102">
        <ele>658</ele>
        <time>2023-08-03T09:31:38Z</time>
      </trkpt>
      <trkpt lat="44.86235" lon="5.68043">
        <ele>654.2</ele>
        <time>2023-08-03T09:31:42Z</time>
      </trkpt>
      <trkpt lat="44.86243" lon="5.68027">
        <ele>653.5</ele>
        <time>2023-08-03T09:31:43Z</time>
      </trkpt>
      <trkpt lat="44.8626" lon="5.67995">
        <ele>652.5</ele>
        <time>2023-08-03T09:31:45Z</time>
      </trkpt>
      <trkpt lat="44.86298" lon="5.67918">
        <ele>649</ele>
        <time>2023-08-03T09:31:50Z</time>
      </trkpt>
      <trkpt lat="44.86325" lon="5.67851">
        <ele>645</ele>
        <time>2023-08-03T09:31:54Z</time>
      </trkpt>
      <trkpt lat="44.86332" lon="5.67834">
        <ele>644.1</ele>
        <time>2023-08-03T09:31:55Z</time>
      </trkpt>
      <trkpt lat="44.86347" lon="5.67801">
        <ele>642</ele>
        <time>2023-08-03T09:31:57Z</time>
      </trkpt>
      <trkpt lat="44.86377" lon="5.67732">
        <ele>637.4</ele>
        <time>2023-08-03T09:32:01Z</time>
      </trkpt>
      <trkpt lat="44.864" lon="5.6768">
        <ele>633.7</ele>
        <time>2023-08-03T09:32:04Z</time>
      </trkpt>
      <trkpt lat="44.86408" lon="5.67662">
        <ele>632.6</ele>
        <time>2023-08-03T09:32:05Z</time>
      </trkpt>
      <trkpt lat="44.86429" lon="5.6761">
        <ele>629.6</ele>
        <time>2023-08-03T09:32:08Z</time>
      </trkpt>
      <trkpt lat="44.86434" lon="5.67594">
        <ele>628.6</ele>
        <time>2023-08-03T09:32:09Z</time>
      </trkpt>
      <trkpt lat="44.86437" lon="5.67578">
        <ele>627.7</ele>
        <time>2023-08-03T09:32:10Z</time>
      </trkpt>
      <trkpt lat="44.86439" lon="5.67563">
        <ele>627.1</ele>
        <time>2023-08-03T09:32:11Z</time>
      </trkpt>
      <trkpt lat="44.86439" lon="5.67551">
        <ele>626.7</ele>
        <time>2023-08-03T09:32:12Z</time>
      </trkpt>
      <trkpt lat="44.86441" lon="5.67542">
        <ele>626.4</ele>
        <time>2023-08-03T09:32:13Z</time>
      </trkpt>
      <trkpt lat="44.86444" lon="5.67535">
        <ele>626.1</ele>
        <time>2023-08-03T09:32:14Z</time>
      </trkpt>
      <trkpt lat="44.86452" lon="5.67536">
        <ele>625.7</ele>
        <time>2023-08-03T09:32:16Z</time>
      </trkpt>
      <trkpt lat="44.86455" lon="5.67544">
        <ele>625.3</ele>
        <time>2023-08-03T09:32:17Z</time>
      </trkpt>
      <trkpt lat="44.86456" lon="5.67553">
        <ele>624.8</ele>
        <time>2023-08-03T09:32:18Z</time>
      </trkpt>
      <trkpt lat="44.86458" lon="5.67575">
        <ele>623.5</ele>
        <time>2023-08-03T09:32:20Z</time>
      </trkpt>
      <trkpt lat="44.86462" lon="5.676">
        <ele>621.8</ele>
        <time>2023-08-03T09:32:22Z</time>
      </trkpt>
      <trkpt lat="44.86464" lon="5.67613">
        <ele>621</ele>
        <time>2023-08-03T09:32:23Z</time>
      </trkpt>
      <trkpt lat="44.86473" lon="5.67657">
        <ele>618.4</ele>
        <time>2023-08-03T09:32:26Z</time>
      </trkpt>
      <trkpt lat="44.86481" lon="5.67703">
        <ele>616.1</ele>
        <time>2023-08-03T09:32:29Z</time>
      </trkpt>
      <trkpt lat="44.86488" lon="5.67726">
        <ele>614.8</ele>
        <time>2023-08-03T09:32:31Z</time>
      </trkpt>
      <trkpt lat="44.86493" lon="5.67732">
        <ele>614.3</ele>
        <time>2023-08-03T09:32:32Z</time>
      </trkpt>
      <trkpt lat="44.86501" lon="5.67733">
        <ele>613.7</ele>
        <time>2023-08-03T09:32:33Z</time>
      </trkpt>
      <trkpt lat="44.86512" lon="5.67716">
        <ele>612.3</ele>
        <time>2023-08-03T09:32:35Z</time>
      </trkpt>
      <trkpt lat="44.86516" lon="5.67703">
        <ele>611.7</ele>
        <time>2023-08-03T09:32:36Z</time>
      </trkpt>
      <trkpt lat="44.86522" lon="5.67677">
        <ele>610.3</ele>
        <time>2023-08-03T09:32:38Z</time>
      </trkpt>
      <trkpt lat="44.86525" lon="5.67663">
        <ele>609.6</ele>
        <time>2023-08-03T09:32:39Z</time>
      </trkpt>
      <trkpt lat="44.86529" lon="5.67649">
        <ele>608.8</ele>
        <time>2023-08-03T09:32:40Z</time>
      </trkpt>
      <trkpt lat="44.8654" lon="5.6762">
        <ele>607.3</ele>
        <time>2023-08-03T09:32:42Z</time>
      </trkpt>
      <trkpt lat="44.86553" lon="5.67592">
        <ele>606</ele>
        <time>2023-08-03T09:32:44Z</time>
      </trkpt>
      <trkpt lat="44.86578" lon="5.67533">
        <ele>603.1</ele>
        <time>2023-08-03T09:32:48Z</time>
      </trkpt>
      <trkpt lat="44.86602" lon="5.67471">
        <ele>600</ele>
        <time>2023-08-03T09:32:52Z</time>
      </trkpt>
      <trkpt lat="44.86606" lon="5.67454">
        <ele>598.9</ele>
        <time>2023-08-03T09:32:53Z</time>
      </trkpt>
      <trkpt lat="44.86607" lon="5.67436">
        <ele>597.9</ele>
        <time>2023-08-03T09:32:54Z</time>
      </trkpt>
      <trkpt lat="44.86607" lon="5.67419">
        <ele>597</ele>
        <time>2023-08-03T09:32:55Z</time>
      </trkpt>
      <trkpt lat="44.86605" lon="5.67403">
        <ele>596.1</ele>
        <time>2023-08-03T09:32:56Z</time>
      </trkpt>
      <trkpt lat="44.86601" lon="5.67376">
        <ele>594.7</ele>
        <time>2023-08-03T09:32:58Z</time>
      </trkpt>
      <trkpt lat="44.86602" lon="5.67366">
        <ele>594.1</ele>
        <time>2023-08-03T09:32:59Z</time>
      </trkpt>
      <trkpt lat="44.86607" lon="5.67361">
        <ele>593.5</ele>
        <time>2023-08-03T09:33:00Z</time>
      </trkpt>
      <trkpt lat="44.86621" lon="5.67363">
        <ele>592</ele>
        <time>2023-08-03T09:33:02Z</time>
      </trkpt>
      <trkpt lat="44.86629" lon="5.67381">
        <ele>590.3</ele>
        <time>2023-08-03T09:33:04Z</time>
      </trkpt>
      <trkpt lat="44.86633" lon="5.67393">
        <ele>589.4</ele>
        <time>2023-08-03T09:33:05Z</time>
      </trkpt>
      <trkpt lat="44.86642" lon="5.67418">
        <ele>587.5</ele>
        <time>2023-08-03T09:33:07Z</time>
      </trkpt>
      <trkpt lat="44.86657" lon="5.67459">
        <ele>584.9</ele>
        <time>2023-08-03T09:33:10Z</time>
      </trkpt>
      <trkpt lat="44.86667" lon="5.67487">
        <ele>583.1</ele>
        <time>2023-08-03T09:33:12Z</time>
      </trkpt>
      <trkpt lat="44.86673" lon="5.67502">
        <ele>582.2</ele>
        <time>2023-08-03T09:33:13Z</time>
      </trkpt>
      <trkpt lat="44.86696" lon="5.67562">
        <ele>578.9</ele>
        <time>2023-08-03T09:33:17Z</time>
      </trkpt>
      <trkpt lat="44.867" lon="5.67579">
        <ele>578.3</ele>
        <time>2023-08-03T09:33:18Z</time>
      </trkpt>
      <trkpt lat="44.86704" lon="5.67596">
        <ele>577.9</ele>
        <time>2023-08-03T09:33:19Z</time>
      </trkpt>
      <trkpt lat="44.86705" lon="5.67613">
        <ele>577.6</ele>
        <time>2023-08-03T09:33:20Z</time>
      </trkpt>
      <trkpt lat="44.86704" lon="5.67641">
        <ele>577.1</ele>
        <time>2023-08-03T09:33:22Z</time>
      </trkpt>
      <trkpt lat="44.86706" lon="5.67652">
        <ele>576.7</ele>
        <time>2023-08-03T09:33:23Z</time>
      </trkpt>
      <trkpt lat="44.8671" lon="5.67661">
        <ele>576.2</ele>
        <time>2023-08-03T09:33:24Z</time>
      </trkpt>
      <trkpt lat="44.86715" lon="5.67664">
        <ele>575.7</ele>
        <time>2023-08-03T09:33:25Z</time>
      </trkpt>
      <trkpt lat="44.86721" lon="5.67663">
        <ele>575.2</ele>
        <time>2023-08-03T09:33:26Z</time>
      </trkpt>
      <trkpt lat="44.86725" lon="5.67657">
        <ele>574.5</ele>
        <time>2023-08-03T09:33:27Z</time>
      </trkpt>
      <trkpt lat="44.86728" lon="5.67648">
        <ele>573.9</ele>
        <time>2023-08-03T09:33:28Z</time>
      </trkpt>
      <trkpt lat="44.8673" lon="5.67637">
        <ele>573.2</ele>
        <time>2023-08-03T09:33:29Z</time>
      </trkpt>
      <trkpt lat="44.86732" lon="5.6761">
        <ele>571.7</ele>
        <time>2023-08-03T09:33:31Z</time>
      </trkpt>
      <trkpt lat="44.86732" lon="5.67595">
        <ele>571</ele>
        <time>2023-08-03T09:33:32Z</time>
      </trkpt>
      <trkpt lat="44.86728" lon="5.67566">
        <ele>569.7</ele>
        <time>2023-08-03T09:33:34Z</time>
      </trkpt>
      <trkpt lat="44.86721" lon="5.67519">
        <ele>567.4</ele>
        <time>2023-08-03T09:33:37Z</time>
      </trkpt>
      <trkpt lat="44.86719" lon="5.67502">
        <ele>566.6</ele>
        <time>2023-08-03T09:33:38Z</time>
      </trkpt>
      <trkpt lat="44.86719" lon="5.67485">
        <ele>565.7</ele>
        <time>2023-08-03T09:33:39Z</time>
      </trkpt>
      <trkpt lat="44.8672" lon="5.67453">
        <ele>564.1</ele>
        <time>2023-08-03T09:33:41Z</time>
      </trkpt>
      <trkpt lat="44.86722" lon="5.67393">
        <ele>561.2</ele>
        <time>2023-08-03T09:33:44Z</time>
      </trkpt>
      <trkpt lat="44.86724" lon="5.67355">
        <ele>559.2</ele>
        <time>2023-08-03T09:33:46Z</time>
      </trkpt>
      <trkpt lat="44.86727" lon="5.67317">
        <ele>557</ele>
        <time>2023-08-03T09:33:48Z</time>
      </trkpt>
      <trkpt lat="44.86737" lon="5.67262">
        <ele>553.8</ele>
        <time>2023-08-03T09:33:51Z</time>
      </trkpt>
      <trkpt lat="44.8675" lon="5.67229">
        <ele>552.4</ele>
        <time>2023-08-03T09:33:53Z</time>
      </trkpt>
      <trkpt lat="44.86757" lon="5.67214">
        <ele>551.2</ele>
        <time>2023-08-03T09:33:54Z</time>
      </trkpt>
      <trkpt lat="44.86764" lon="5.672">
        <ele>550.2</ele>
        <time>2023-08-03T09:33:55Z</time>
      </trkpt>
      <trkpt lat="44.86771" lon="5.67187">
        <ele>549.4</ele>
        <time>2023-08-03T09:33:56Z</time>
      </trkpt>
      <trkpt lat="44.86781" lon="5.67163">
        <ele>548.5</ele>
        <time>2023-08-03T09:33:58Z</time>
      </trkpt>
      <trkpt lat="44.86792" lon="5.67139">
        <ele>548</ele>
        <time>2023-08-03T09:34:01Z</time>
      </trkpt>
      <trkpt lat="44.86796" lon="5.6713">
        <ele>548</ele>
        <time>2023-08-03T09:34:02Z</time>
      </trkpt>
      <trkpt lat="44.86813" lon="5.6709">
        <ele>548</ele>
        <time>2023-08-03T09:34:08Z</time>
      </trkpt>
      <trkpt lat="44.86814" lon="5.67087">
        <ele>548</ele>
        <time>2023-08-03T09:34:09Z</time>
      </trkpt>
      <trkpt lat="44.86816" lon="5.67082">
        <ele>548</ele>
        <time>2023-08-03T09:36:07Z</time>
      </trkpt>
      <trkpt lat="44.86816" lon="5.6708">
        <ele>548.1</ele>
        <time>2023-08-03T09:36:08Z</time>
      </trkpt>
      <trkpt lat="44.8682" lon="5.6707">
        <ele>548.1</ele>
        <time>2023-08-03T09:36:12Z</time>
      </trkpt>
      <trkpt lat="44.86824" lon="5.67062">
        <ele>548.2</ele>
        <time>2023-08-03T09:36:15Z</time>
      </trkpt>
      <trkpt lat="44.86826" lon="5.67057">
        <ele>548.2</ele>
        <time>2023-08-03T09:36:16Z</time>
      </trkpt>
      <trkpt lat="44.86833" lon="5.67039">
        <ele>548.4</ele>
        <time>2023-08-03T09:36:20Z</time>
      </trkpt>
      <trkpt lat="44.86835" lon="5.67034">
        <ele>548.4</ele>
        <time>2023-08-03T09:36:21Z</time>
      </trkpt>
      <trkpt lat="44.86841" lon="5.67019">
        <ele>548.7</ele>
        <time>2023-08-03T09:36:24Z</time>
      </trkpt>
      <trkpt lat="44.8685" lon="5.66997">
        <ele>549.3</ele>
        <time>2023-08-03T09:36:29Z</time>
      </trkpt>
      <trkpt lat="44.86851" lon="5.66993">
        <ele>549.4</ele>
        <time>2023-08-03T09:36:30Z</time>
      </trkpt>
      <trkpt lat="44.86853" lon="5.6698">
        <ele>549.9</ele>
        <time>2023-08-03T09:36:33Z</time>
      </trkpt>
      <trkpt lat="44.86855" lon="5.66972">
        <ele>550.3</ele>
        <time>2023-08-03T09:36:35Z</time>
      </trkpt>
      <trkpt lat="44.86858" lon="5.66956">
        <ele>551.2</ele>
        <time>2023-08-03T09:36:39Z</time>
      </trkpt>
      <trkpt lat="44.86861" lon="5.66938">
        <ele>552.2</ele>
        <time>2023-08-03T09:36:44Z</time>
      </trkpt>
      <trkpt lat="44.86862" lon="5.66926">
        <ele>552.8</ele>
        <time>2023-08-03T09:36:47Z</time>
      </trkpt>
      <trkpt lat="44.86865" lon="5.6691">
        <ele>553.7</ele>
        <time>2023-08-03T09:36:51Z</time>
      </trkpt>
      <trkpt lat="44.86866" lon="5.66897">
        <ele>554.3</ele>
        <time>2023-08-03T09:36:54Z</time>
      </trkpt>
      <trkpt lat="44.86867" lon="5.66889">
        <ele>554.7</ele>
        <time>2023-08-03T09:36:56Z</time>
      </trkpt>
      <trkpt lat="44.86868" lon="5.66877">
        <ele>555.4</ele>
        <time>2023-08-03T09:36:59Z</time>
      </trkpt>
      <trkpt lat="44.86869" lon="5.6687">
        <ele>555.7</ele>
        <time>2023-08-03T09:37:01Z</time>
      </trkpt>
      <trkpt lat="44.86869" lon="5.66855">
        <ele>556.5</ele>
        <time>2023-08-03T09:37:05Z</time>
      </trkpt>
      <trkpt lat="44.86868" lon="5.66844">
        <ele>557.1</ele>
        <time>2023-08-03T09:37:08Z</time>
      </trkpt>
      <trkpt lat="44.86868" lon="5.66836">
        <ele>557.5</ele>
        <time>2023-08-03T09:37:10Z</time>
      </trkpt>
      <trkpt lat="44.86868" lon="5.66828">
        <ele>558</ele>
        <time>2023-08-03T09:37:12Z</time>
      </trkpt>
      <trkpt lat="44.86869" lon="5.66824">
        <ele>558.2</ele>
        <time>2023-08-03T09:37:13Z</time>
      </trkpt>
      <trkpt lat="44.86871" lon="5.66822">
        <ele>558.4</ele>
        <time>2023-08-03T09:37:14Z</time>
      </trkpt>
      <trkpt lat="44.86873" lon="5.6682">
        <ele>559</ele>
        <time>2023-08-03T09:37:15Z</time>
      </trkpt>
      <trkpt lat="44.86876" lon="5.66824">
        <ele>559.3</ele>
        <time>2023-08-03T09:37:17Z</time>
      </trkpt>
      <trkpt lat="44.86877" lon="5.66835">
        <ele>559.8</ele>
        <time>2023-08-03T09:37:20Z</time>
      </trkpt>
      <trkpt lat="44.86878" lon="5.66843">
        <ele>560.1</ele>
        <time>2023-08-03T09:37:22Z</time>
      </trkpt>
      <trkpt lat="44.86879" lon="5.66847">
        <ele>560.3</ele>
        <time>2023-08-03T09:37:23Z</time>
      </trkpt>
      <trkpt lat="44.8688" lon="5.66854">
        <ele>560.6</ele>
        <time>2023-08-03T09:37:25Z</time>
      </trkpt>
      <trkpt lat="44.86883" lon="5.66865">
        <ele>561.1</ele>
        <time>2023-08-03T09:37:28Z</time>
      </trkpt>
      <trkpt lat="44.86886" lon="5.66876">
        <ele>561.6</ele>
        <time>2023-08-03T09:37:31Z</time>
      </trkpt>
      <trkpt lat="44.86887" lon="5.66879">
        <ele>561.7</ele>
        <time>2023-08-03T09:37:32Z</time>
      </trkpt>
      <trkpt lat="44.8689" lon="5.66887">
        <ele>562.1</ele>
        <time>2023-08-03T09:37:34Z</time>
      </trkpt>
      <trkpt lat="44.86893" lon="5.66893">
        <ele>562.4</ele>
        <time>2023-08-03T09:37:36Z</time>
      </trkpt>
      <trkpt lat="44.86896" lon="5.669">
        <ele>562.7</ele>
        <time>2023-08-03T09:37:38Z</time>
      </trkpt>
      <trkpt lat="44.86901" lon="5.6691">
        <ele>563.3</ele>
        <time>2023-08-03T09:37:41Z</time>
      </trkpt>
      <trkpt lat="44.86902" lon="5.66914">
        <ele>563.5</ele>
        <time>2023-08-03T09:37:42Z</time>
      </trkpt>
      <trkpt lat="44.86903" lon="5.66917">
        <ele>563.7</ele>
        <time>2023-08-03T09:37:43Z</time>
      </trkpt>
      <trkpt lat="44.86907" lon="5.66927">
        <ele>564.3</ele>
        <time>2023-08-03T09:37:46Z</time>
      </trkpt>
      <trkpt lat="44.86909" lon="5.66935">
        <ele>564.7</ele>
        <time>2023-08-03T09:37:48Z</time>
      </trkpt>
      <trkpt lat="44.8691" lon="5.66943">
        <ele>565.1</ele>
        <time>2023-08-03T09:37:50Z</time>
      </trkpt>
      <trkpt lat="44.86911" lon="5.66947">
        <ele>565.3</ele>
        <time>2023-08-03T09:37:51Z</time>
      </trkpt>
      <trkpt lat="44.86911" lon="5.6696">
        <ele>566</ele>
        <time>2023-08-03T09:37:54Z</time>
      </trkpt>
      <trkpt lat="44.86911" lon="5.66972">
        <ele>566.5</ele>
        <time>2023-08-03T09:37:57Z</time>
      </trkpt>
      <trkpt lat="44.86911" lon="5.66976">
        <ele>566.7</ele>
        <time>2023-08-03T09:37:58Z</time>
      </trkpt>
      <trkpt lat="44.8691" lon="5.6698">
        <ele>566.9</ele>
        <time>2023-08-03T09:37:59Z</time>
      </trkpt>
      <trkpt lat="44.86909" lon="5.66993">
        <ele>567.5</ele>
        <time>2023-08-03T09:38:02Z</time>
      </trkpt>
      <trkpt lat="44.86909" lon="5.67001">
        <ele>567.9</ele>
        <time>2023-08-03T09:38:04Z</time>
      </trkpt>
      <trkpt lat="44.86908" lon="5.67009">
        <ele>568.3</ele>
        <time>2023-08-03T09:38:06Z</time>
      </trkpt>
      <trkpt lat="44.86908" lon="5.67013">
        <ele>568.5</ele>
        <time>2023-08-03T09:38:07Z</time>
      </trkpt>
      <trkpt lat="44.86908" lon="5.67016">
        <ele>568.7</ele>
        <time>2023-08-03T09:38:08Z</time>
      </trkpt>
      <trkpt lat="44.86908" lon="5.67028">
        <ele>569.4</ele>
        <time>2023-08-03T09:38:11Z</time>
      </trkpt>
      <trkpt lat="44.86911" lon="5.67039">
        <ele>570.1</ele>
        <time>2023-08-03T09:38:14Z</time>
      </trkpt>
      <trkpt lat="44.86918" lon="5.67044">
        <ele>570.7</ele>
        <time>2023-08-03T09:38:17Z</time>
      </trkpt>
      <trkpt lat="44.86921" lon="5.67043">
        <ele>570.9</ele>
        <time>2023-08-03T09:38:18Z</time>
      </trkpt>
      <trkpt lat="44.86926" lon="5.6704">
        <ele>571.2</ele>
        <time>2023-08-03T09:38:20Z</time>
      </trkpt>
      <trkpt lat="44.86931" lon="5.67035">
        <ele>571.5</ele>
        <time>2023-08-03T09:38:22Z</time>
      </trkpt>
      <trkpt lat="44.86932" lon="5.6703">
        <ele>571.7</ele>
        <time>2023-08-03T09:38:23Z</time>
      </trkpt>
      <trkpt lat="44.86934" lon="5.67022">
        <ele>571.9</ele>
        <time>2023-08-03T09:38:25Z</time>
      </trkpt>
      <trkpt lat="44.86935" lon="5.67009">
        <ele>572.3</ele>
        <time>2023-08-03T09:38:28Z</time>
      </trkpt>
      <trkpt lat="44.86935" lon="5.66997">
        <ele>572.7</ele>
        <time>2023-08-03T09:38:31Z</time>
      </trkpt>
      <trkpt lat="44.86935" lon="5.66984">
        <ele>573.2</ele>
        <time>2023-08-03T09:38:34Z</time>
      </trkpt>
      <trkpt lat="44.86935" lon="5.6698">
        <ele>573.4</ele>
        <time>2023-08-03T09:38:35Z</time>
      </trkpt>
      <trkpt lat="44.86935" lon="5.66971">
        <ele>573.7</ele>
        <time>2023-08-03T09:38:37Z</time>
      </trkpt>
      <trkpt lat="44.86936" lon="5.66962">
        <ele>574.1</ele>
        <time>2023-08-03T09:38:39Z</time>
      </trkpt>
      <trkpt lat="44.86936" lon="5.66949">
        <ele>574.7</ele>
        <time>2023-08-03T09:38:42Z</time>
      </trkpt>
      <trkpt lat="44.86936" lon="5.66945">
        <ele>574.9</ele>
        <time>2023-08-03T09:38:43Z</time>
      </trkpt>
      <trkpt lat="44.86936" lon="5.66935">
        <ele>575.4</ele>
        <time>2023-08-03T09:38:45Z</time>
      </trkpt>
      <trkpt lat="44.86936" lon="5.66927">
        <ele>575.8</ele>
        <time>2023-08-03T09:38:47Z</time>
      </trkpt>
      <trkpt lat="44.86937" lon="5.66918">
        <ele>576.3</ele>
        <time>2023-08-03T09:38:49Z</time>
      </trkpt>
      <trkpt lat="44.86937" lon="5.6691">
        <ele>576.8</ele>
        <time>2023-08-03T09:38:51Z</time>
      </trkpt>
      <trkpt lat="44.86937" lon="5.669">
        <ele>577.3</ele>
        <time>2023-08-03T09:38:53Z</time>
      </trkpt>
      <trkpt lat="44.86936" lon="5.66896">
        <ele>577.6</ele>
        <time>2023-08-03T09:38:54Z</time>
      </trkpt>
      <trkpt lat="44.86936" lon="5.66882">
        <ele>578.4</ele>
        <time>2023-08-03T09:38:57Z</time>
      </trkpt>
      <trkpt lat="44.86937" lon="5.66874">
        <ele>578.8</ele>
        <time>2023-08-03T09:38:59Z</time>
      </trkpt>
      <trkpt lat="44.86938" lon="5.66865">
        <ele>579.3</ele>
        <time>2023-08-03T09:39:01Z</time>
      </trkpt>
      <trkpt lat="44.86939" lon="5.66861">
        <ele>579.6</ele>
        <time>2023-08-03T09:39:02Z</time>
      </trkpt>
      <trkpt lat="44.8694" lon="5.66857">
        <ele>579.6</ele>
        <time>2023-08-03T09:39:03Z</time>
      </trkpt>
      <trkpt lat="44.86943" lon="5.66848">
        <ele>579</ele>
        <time>2023-08-03T09:39:05Z</time>
      </trkpt>
      <trkpt lat="44.86945" lon="5.66844">
        <ele>579.3</ele>
        <time>2023-08-03T09:39:06Z</time>
      </trkpt>
      <trkpt lat="44.86949" lon="5.66838">
        <ele>579.8</ele>
        <time>2023-08-03T09:39:08Z</time>
      </trkpt>
      <trkpt lat="44.86952" lon="5.66832">
        <ele>580.3</ele>
        <time>2023-08-03T09:39:10Z</time>
      </trkpt>
      <trkpt lat="44.86961" lon="5.66824">
        <ele>581.1</ele>
        <time>2023-08-03T09:39:14Z</time>
      </trkpt>
      <trkpt lat="44.86969" lon="5.66822">
        <ele>581.8</ele>
        <time>2023-08-03T09:39:17Z</time>
      </trkpt>
      <trkpt lat="44.86977" lon="5.6682">
        <ele>582.4</ele>
        <time>2023-08-03T09:39:20Z</time>
      </trkpt>
      <trkpt lat="44.87008" lon="5.66816">
        <ele>584.7</ele>
        <time>2023-08-03T09:39:31Z</time>
      </trkpt>
      <trkpt lat="44.87027" lon="5.66814">
        <ele>586.2</ele>
        <time>2023-08-03T09:39:38Z</time>
      </trkpt>
      <trkpt lat="44.87033" lon="5.66814">
        <ele>586.7</ele>
        <time>2023-08-03T09:39:40Z</time>
      </trkpt>
      <trkpt lat="44.87036" lon="5.66814">
        <ele>586.9</ele>
        <time>2023-08-03T09:39:41Z</time>
      </trkpt>
      <trkpt lat="44.87065" lon="5.66814">
        <ele>589.6</ele>
        <time>2023-08-03T09:39:51Z</time>
      </trkpt>
      <trkpt lat="44.87091" lon="5.66815">
        <ele>592.3</ele>
        <time>2023-08-03T09:40:00Z</time>
      </trkpt>
      <trkpt lat="44.87102" lon="5.66804">
        <ele>593.7</ele>
        <time>2023-08-03T09:40:05Z</time>
      </trkpt>
      <trkpt lat="44.87101" lon="5.66787">
        <ele>594.8</ele>
        <time>2023-08-03T09:40:09Z</time>
      </trkpt>
      <trkpt lat="44.87097" lon="5.6678">
        <ele>595.2</ele>
        <time>2023-08-03T09:40:11Z</time>
      </trkpt>
      <trkpt lat="44.87086" lon="5.6677">
        <ele>595.7</ele>
        <time>2023-08-03T09:40:15Z</time>
      </trkpt>
      <trkpt lat="44.87071" lon="5.66761">
        <ele>596.5</ele>
        <time>2023-08-03T09:40:20Z</time>
      </trkpt>
      <trkpt lat="44.87062" lon="5.66754">
        <ele>597.1</ele>
        <time>2023-08-03T09:40:23Z</time>
      </trkpt>
      <trkpt lat="44.87054" lon="5.66747">
        <ele>597.7</ele>
        <time>2023-08-03T09:40:26Z</time>
      </trkpt>
      <trkpt lat="44.87045" lon="5.66733">
        <ele>598.7</ele>
        <time>2023-08-03T09:40:30Z</time>
      </trkpt>
      <trkpt lat="44.87043" lon="5.66724">
        <ele>599.3</ele>
        <time>2023-08-03T09:40:32Z</time>
      </trkpt>
      <trkpt lat="44.87041" lon="5.66711">
        <ele>600</ele>
        <time>2023-08-03T09:40:35Z</time>
      </trkpt>
      <trkpt lat="44.8704" lon="5.66707">
        <ele>600.3</ele>
        <time>2023-08-03T09:40:36Z</time>
      </trkpt>
      <trkpt lat="44.8704" lon="5.66693">
        <ele>601.1</ele>
        <time>2023-08-03T09:40:39Z</time>
      </trkpt>
      <trkpt lat="44.8704" lon="5.66678">
        <ele>602</ele>
        <time>2023-08-03T09:40:42Z</time>
      </trkpt>
      <trkpt lat="44.87042" lon="5.66669">
        <ele>602.5</ele>
        <time>2023-08-03T09:40:44Z</time>
      </trkpt>
      <trkpt lat="44.87045" lon="5.66661">
        <ele>603.1</ele>
        <time>2023-08-03T09:40:46Z</time>
      </trkpt>
      <trkpt lat="44.87051" lon="5.66648">
        <ele>604</ele>
        <time>2023-08-03T09:40:50Z</time>
      </trkpt>
      <trkpt lat="44.87053" lon="5.66643">
        <ele>604.3</ele>
        <time>2023-08-03T09:40:51Z</time>
      </trkpt>
      <trkpt lat="44.87053" lon="5.66635">
        <ele>604.6</ele>
        <time>2023-08-03T09:40:53Z</time>
      </trkpt>
      <trkpt lat="44.87053" lon="5.66631">
        <ele>604.8</ele>
        <time>2023-08-03T09:40:54Z</time>
      </trkpt>
      <trkpt lat="44.87051" lon="5.66622">
        <ele>605</ele>
        <time>2023-08-03T09:40:56Z</time>
      </trkpt>
      <trkpt lat="44.87043" lon="5.66611">
        <ele>605.4</ele>
        <time>2023-08-03T09:40:59Z</time>
      </trkpt>
      <trkpt lat="44.87041" lon="5.66608">
        <ele>605.5</ele>
        <time>2023-08-03T09:41:00Z</time>
      </trkpt>
      <trkpt lat="44.87031" lon="5.66601">
        <ele>605.9</ele>
        <time>2023-08-03T09:41:03Z</time>
      </trkpt>
      <trkpt lat="44.87022" lon="5.66597">
        <ele>606.2</ele>
        <time>2023-08-03T09:41:06Z</time>
      </trkpt>
      <trkpt lat="44.87009" lon="5.66591">
        <ele>606.8</ele>
        <time>2023-08-03T09:41:10Z</time>
      </trkpt>
      <trkpt lat="44.87" lon="5.66585">
        <ele>607.1</ele>
        <time>2023-08-03T09:41:13Z</time>
      </trkpt>
      <trkpt lat="44.86994" lon="5.66582">
        <ele>607.4</ele>
        <time>2023-08-03T09:41:15Z</time>
      </trkpt>
      <trkpt lat="44.86985" lon="5.66576">
        <ele>607.9</ele>
        <time>2023-08-03T09:41:18Z</time>
      </trkpt>
      <trkpt lat="44.86974" lon="5.6657">
        <ele>608.6</ele>
        <time>2023-08-03T09:41:22Z</time>
      </trkpt>
      <trkpt lat="44.86967" lon="5.66567">
        <ele>609.1</ele>
        <time>2023-08-03T09:41:24Z</time>
      </trkpt>
      <trkpt lat="44.86958" lon="5.66562">
        <ele>609.8</ele>
        <time>2023-08-03T09:41:27Z</time>
      </trkpt>
      <trkpt lat="44.8695" lon="5.66555">
        <ele>610.6</ele>
        <time>2023-08-03T09:41:30Z</time>
      </trkpt>
      <trkpt lat="44.86947" lon="5.66552">
        <ele>610.8</ele>
        <time>2023-08-03T09:41:31Z</time>
      </trkpt>
      <trkpt lat="44.86942" lon="5.66547">
        <ele>611.3</ele>
        <time>2023-08-03T09:41:33Z</time>
      </trkpt>
      <trkpt lat="44.86935" lon="5.6654">
        <ele>611.9</ele>
        <time>2023-08-03T09:41:36Z</time>
      </trkpt>
      <trkpt lat="44.86931" lon="5.66534">
        <ele>612.4</ele>
        <time>2023-08-03T09:41:38Z</time>
      </trkpt>
      <trkpt lat="44.86929" lon="5.6653">
        <ele>612.7</ele>
        <time>2023-08-03T09:41:39Z</time>
      </trkpt>
      <trkpt lat="44.86925" lon="5.66523">
        <ele>613.2</ele>
        <time>2023-08-03T09:41:41Z</time>
      </trkpt>
      <trkpt lat="44.8692" lon="5.66513">
        <ele>613.9</ele>
        <time>2023-08-03T09:41:44Z</time>
      </trkpt>
      <trkpt lat="44.86918" lon="5.66509">
        <ele>614.2</ele>
        <time>2023-08-03T09:41:45Z</time>
      </trkpt>
      <trkpt lat="44.86914" lon="5.665">
        <ele>614.8</ele>
        <time>2023-08-03T09:41:47Z</time>
      </trkpt>
      <trkpt lat="44.86913" lon="5.66496">
        <ele>615.1</ele>
        <time>2023-08-03T09:41:48Z</time>
      </trkpt>
      <trkpt lat="44.86911" lon="5.66491">
        <ele>615.3</ele>
        <time>2023-08-03T09:41:49Z</time>
      </trkpt>
      <trkpt lat="44.86909" lon="5.66483">
        <ele>615.9</ele>
        <time>2023-08-03T09:41:51Z</time>
      </trkpt>
      <trkpt lat="44.86907" lon="5.66475">
        <ele>616.4</ele>
        <time>2023-08-03T09:41:53Z</time>
      </trkpt>
      <trkpt lat="44.86904" lon="5.66467">
        <ele>616.8</ele>
        <time>2023-08-03T09:41:55Z</time>
      </trkpt>
      <trkpt lat="44.86901" lon="5.66459">
        <ele>617.3</ele>
        <time>2023-08-03T09:41:57Z</time>
      </trkpt>
      <trkpt lat="44.86898" lon="5.66451">
        <ele>617.8</ele>
        <time>2023-08-03T09:41:59Z</time>
      </trkpt>
      <trkpt lat="44.86897" lon="5.66447">
        <ele>618.1</ele>
        <time>2023-08-03T09:42:00Z</time>
      </trkpt>
      <trkpt lat="44.86896" lon="5.66443">
        <ele>618.4</ele>
        <time>2023-08-03T09:42:01Z</time>
      </trkpt>
      <trkpt lat="44.86894" lon="5.66434">
        <ele>618.9</ele>
        <time>2023-08-03T09:42:03Z</time>
      </trkpt>
      <trkpt lat="44.86893" lon="5.66425">
        <ele>619.5</ele>
        <time>2023-08-03T09:42:05Z</time>
      </trkpt>
      <trkpt lat="44.86891" lon="5.66413">
        <ele>620.4</ele>
        <time>2023-08-03T09:42:08Z</time>
      </trkpt>
      <trkpt lat="44.8689" lon="5.66405">
        <ele>621</ele>
        <time>2023-08-03T09:42:10Z</time>
      </trkpt>
      <trkpt lat="44.8689" lon="5.664">
        <ele>621.4</ele>
        <time>2023-08-03T09:42:11Z</time>
      </trkpt>
      <trkpt lat="44.86893" lon="5.66387">
        <ele>622.2</ele>
        <time>2023-08-03T09:42:14Z</time>
      </trkpt>
      <trkpt lat="44.86897" lon="5.66379">
        <ele>622.6</ele>
        <time>2023-08-03T09:42:16Z</time>
      </trkpt>
      <trkpt lat="44.86899" lon="5.66376">
        <ele>622.8</ele>
        <time>2023-08-03T09:42:17Z</time>
      </trkpt>
      <trkpt lat="44.86903" lon="5.66369">
        <ele>623.2</ele>
        <time>2023-08-03T09:42:19Z</time>
      </trkpt>
      <trkpt lat="44.86908" lon="5.66362">
        <ele>623.7</ele>
        <time>2023-08-03T09:42:21Z</time>
      </trkpt>
      <trkpt lat="44.86918" lon="5.66349">
        <ele>624.5</ele>
        <time>2023-08-03T09:42:25Z</time>
      </trkpt>
      <trkpt lat="44.86922" lon="5.66342">
        <ele>624.9</ele>
        <time>2023-08-03T09:42:27Z</time>
      </trkpt>
      <trkpt lat="44.86929" lon="5.66331">
        <ele>625.6</ele>
        <time>2023-08-03T09:42:30Z</time>
      </trkpt>
      <trkpt lat="44.86938" lon="5.66316">
        <ele>626.6</ele>
        <time>2023-08-03T09:42:34Z</time>
      </trkpt>
      <trkpt lat="44.86941" lon="5.66308">
        <ele>627.1</ele>
        <time>2023-08-03T09:42:36Z</time>
      </trkpt>
      <trkpt lat="44.86945" lon="5.66296">
        <ele>628</ele>
        <time>2023-08-03T09:42:39Z</time>
      </trkpt>
      <trkpt lat="44.86948" lon="5.66277">
        <ele>629.2</ele>
        <time>2023-08-03T09:42:43Z</time>
      </trkpt>
      <trkpt lat="44.86948" lon="5.66271">
        <ele>629.6</ele>
        <time>2023-08-03T09:42:44Z</time>
      </trkpt>
      <trkpt lat="44.86951" lon="5.66249">
        <ele>630.9</ele>
        <time>2023-08-03T09:42:49Z</time>
      </trkpt>
      <trkpt lat="44.86954" lon="5.6624">
        <ele>631.5</ele>
        <time>2023-08-03T09:42:51Z</time>
      </trkpt>
      <trkpt lat="44.86956" lon="5.66237">
        <ele>631.7</ele>
        <time>2023-08-03T09:42:52Z</time>
      </trkpt>
      <trkpt lat="44.86967" lon="5.66218">
        <ele>633</ele>
        <time>2023-08-03T09:42:57Z</time>
      </trkpt>
      <trkpt lat="44.86982" lon="5.66199">
        <ele>634.6</ele>
        <time>2023-08-03T09:43:03Z</time>
      </trkpt>
      <trkpt lat="44.8699" lon="5.66191">
        <ele>635.5</ele>
        <time>2023-08-03T09:43:06Z</time>
      </trkpt>
      <trkpt lat="44.86996" lon="5.66187">
        <ele>636.1</ele>
        <time>2023-08-03T09:43:08Z</time>
      </trkpt>
      <trkpt lat="44.87019" lon="5.66169">
        <ele>638.7</ele>
        <time>2023-08-03T09:43:16Z</time>
      </trkpt>
      <trkpt lat="44.87023" lon="5.66149">
        <ele>640.1</ele>
        <time>2023-08-03T09:43:20Z</time>
      </trkpt>
      <trkpt lat="44.87016" lon="5.66128">
        <ele>641.1</ele>
        <time>2023-08-03T09:43:24Z</time>
      </trkpt>
      <trkpt lat="44.87002" lon="5.66113">
        <ele>641.6</ele>
        <time>2023-08-03T09:43:29Z</time>
      </trkpt>
      <trkpt lat="44.86997" lon="5.66107">
        <ele>641.7</ele>
        <time>2023-08-03T09:43:31Z</time>
      </trkpt>
      <trkpt lat="44.86987" lon="5.66095">
        <ele>642.2</ele>
        <time>2023-08-03T09:43:35Z</time>
      </trkpt>
      <trkpt lat="44.86982" lon="5.6609">
        <ele>642.6</ele>
        <time>2023-08-03T09:43:37Z</time>
      </trkpt>
      <trkpt lat="44.8696" lon="5.66071">
        <ele>644.3</ele>
        <time>2023-08-03T09:43:45Z</time>
      </trkpt>
      <trkpt lat="44.86954" lon="5.66067">
        <ele>644.9</ele>
        <time>2023-08-03T09:43:47Z</time>
      </trkpt>
      <trkpt lat="44.86942" lon="5.6606">
        <ele>645.8</ele>
        <time>2023-08-03T09:43:51Z</time>
      </trkpt>
      <trkpt lat="44.86929" lon="5.66053">
        <ele>646.9</ele>
        <time>2023-08-03T09:43:55Z</time>
      </trkpt>
      <trkpt lat="44.86923" lon="5.6605">
        <ele>647.4</ele>
        <time>2023-08-03T09:43:57Z</time>
      </trkpt>
      <trkpt lat="44.86916" lon="5.66047">
        <ele>648.1</ele>
        <time>2023-08-03T09:43:59Z</time>
      </trkpt>
      <trkpt lat="44.86886" lon="5.66036">
        <ele>650.9</ele>
        <time>2023-08-03T09:44:08Z</time>
      </trkpt>
      <trkpt lat="44.8688" lon="5.66032">
        <ele>651.6</ele>
        <time>2023-08-03T09:44:10Z</time>
      </trkpt>
      <trkpt lat="44.8687" lon="5.66019">
        <ele>653</ele>
        <time>2023-08-03T09:44:14Z</time>
      </trkpt>
      <trkpt lat="44.86869" lon="5.66012">
        <ele>653.5</ele>
        <time>2023-08-03T09:44:16Z</time>
      </trkpt>
      <trkpt lat="44.86869" lon="5.66001">
        <ele>654.5</ele>
        <time>2023-08-03T09:44:19Z</time>
      </trkpt>
      <trkpt lat="44.86878" lon="5.65977">
        <ele>655.7</ele>
        <time>2023-08-03T09:44:26Z</time>
      </trkpt>
      <trkpt lat="44.86888" lon="5.65959">
        <ele>656.5</ele>
        <time>2023-08-03T09:44:32Z</time>
      </trkpt>
      <trkpt lat="44.86899" lon="5.65939">
        <ele>657.5</ele>
        <time>2023-08-03T09:44:38Z</time>
      </trkpt>
      <trkpt lat="44.86912" lon="5.65919">
        <ele>658.9</ele>
        <time>2023-08-03T09:44:44Z</time>
      </trkpt>
      <trkpt lat="44.86916" lon="5.65915">
        <ele>659.2</ele>
        <time>2023-08-03T09:44:45Z</time>
      </trkpt>
      <trkpt lat="44.86938" lon="5.65891">
        <ele>661.6</ele>
        <time>2023-08-03T09:44:54Z</time>
      </trkpt>
      <trkpt lat="44.86956" lon="5.65869">
        <ele>663.6</ele>
        <time>2023-08-03T09:45:01Z</time>
      </trkpt>
      <trkpt lat="44.86976" lon="5.65847">
        <ele>666.1</ele>
        <time>2023-08-03T09:45:09Z</time>
      </trkpt>
      <trkpt lat="44.86997" lon="5.65824">
        <ele>668.7</ele>
        <time>2023-08-03T09:45:17Z</time>
      </trkpt>
      <trkpt lat="44.87" lon="5.65821">
        <ele>669</ele>
        <time>2023-08-03T09:45:18Z</time>
      </trkpt>
      <trkpt lat="44.87014" lon="5.6581">
        <ele>670.6</ele>
        <time>2023-08-03T09:45:23Z</time>
      </trkpt>
      <trkpt lat="44.87035" lon="5.65802">
        <ele>672.9</ele>
        <time>2023-08-03T09:45:30Z</time>
      </trkpt>
      <trkpt lat="44.87041" lon="5.65798">
        <ele>673.5</ele>
        <time>2023-08-03T09:45:32Z</time>
      </trkpt>
      <trkpt lat="44.87049" lon="5.65789">
        <ele>674.5</ele>
        <time>2023-08-03T09:45:35Z</time>
      </trkpt>
      <trkpt lat="44.87052" lon="5.65765">
        <ele>675.9</ele>
        <time>2023-08-03T09:45:40Z</time>
      </trkpt>
      <trkpt lat="44.87052" lon="5.65759">
        <ele>676.2</ele>
        <time>2023-08-03T09:45:41Z</time>
      </trkpt>
      <trkpt lat="44.87054" lon="5.65737">
        <ele>677.3</ele>
        <time>2023-08-03T09:45:46Z</time>
      </trkpt>
      <trkpt lat="44.87061" lon="5.65717">
        <ele>678.5</ele>
        <time>2023-08-03T09:45:51Z</time>
      </trkpt>
      <trkpt lat="44.87073" lon="5.65705">
        <ele>679.4</ele>
        <time>2023-08-03T09:45:56Z</time>
      </trkpt>
      <trkpt lat="44.87089" lon="5.65692">
        <ele>680.7</ele>
        <time>2023-08-03T09:46:02Z</time>
      </trkpt>
      <trkpt lat="44.87106" lon="5.65671">
        <ele>682.4</ele>
        <time>2023-08-03T09:46:09Z</time>
      </trkpt>
      <trkpt lat="44.87111" lon="5.65658">
        <ele>683.2</ele>
        <time>2023-08-03T09:46:12Z</time>
      </trkpt>
      <trkpt lat="44.8712" lon="5.6564">
        <ele>684.6</ele>
        <time>2023-08-03T09:46:17Z</time>
      </trkpt>
      <trkpt lat="44.87122" lon="5.65637">
        <ele>684.9</ele>
        <time>2023-08-03T09:46:18Z</time>
      </trkpt>
      <trkpt lat="44.87129" lon="5.65621">
        <ele>686.2</ele>
        <time>2023-08-03T09:46:22Z</time>
      </trkpt>
      <trkpt lat="44.87137" lon="5.65608">
        <ele>687.4</ele>
        <time>2023-08-03T09:46:26Z</time>
      </trkpt>
      <trkpt lat="44.87146" lon="5.65594">
        <ele>688.7</ele>
        <time>2023-08-03T09:46:30Z</time>
      </trkpt>
      <trkpt lat="44.87154" lon="5.65586">
        <ele>689.5</ele>
        <time>2023-08-03T09:46:33Z</time>
      </trkpt>
      <trkpt lat="44.87163" lon="5.65583">
        <ele>690.3</ele>
        <time>2023-08-03T09:46:36Z</time>
      </trkpt>
      <trkpt lat="44.87171" lon="5.6558">
        <ele>690.9</ele>
        <time>2023-08-03T09:46:39Z</time>
      </trkpt>
      <trkpt lat="44.87174" lon="5.6558">
        <ele>691.1</ele>
        <time>2023-08-03T09:46:40Z</time>
      </trkpt>
      <trkpt lat="44.8718" lon="5.65577">
        <ele>691.5</ele>
        <time>2023-08-03T09:46:43Z</time>
      </trkpt>
      <trkpt lat="44.87186" lon="5.65577">
        <ele>691.9</ele>
        <time>2023-08-03T09:46:45Z</time>
      </trkpt>
      <trkpt lat="44.8719" lon="5.65578">
        <ele>692.2</ele>
        <time>2023-08-03T09:46:47Z</time>
      </trkpt>
      <trkpt lat="44.87196" lon="5.65576">
        <ele>692.6</ele>
        <time>2023-08-03T09:46:49Z</time>
      </trkpt>
      <trkpt lat="44.87198" lon="5.65573">
        <ele>692.8</ele>
        <time>2023-08-03T09:46:50Z</time>
      </trkpt>
      <trkpt lat="44.87204" lon="5.6557">
        <ele>693.3</ele>
        <time>2023-08-03T09:46:52Z</time>
      </trkpt>
      <trkpt lat="44.87206" lon="5.65568">
        <ele>693.4</ele>
        <time>2023-08-03T09:46:53Z</time>
      </trkpt>
      <trkpt lat="44.87209" lon="5.65567">
        <ele>693.7</ele>
        <time>2023-08-03T09:46:54Z</time>
      </trkpt>
      <trkpt lat="44.87215" lon="5.65563">
        <ele>694.3</ele>
        <time>2023-08-03T09:46:56Z</time>
      </trkpt>
      <trkpt lat="44.87221" lon="5.65553">
        <ele>695</ele>
        <time>2023-08-03T09:46:59Z</time>
      </trkpt>
      <trkpt lat="44.87228" lon="5.6555">
        <ele>695.7</ele>
        <time>2023-08-03T09:47:02Z</time>
      </trkpt>
      <trkpt lat="44.87232" lon="5.65545">
        <ele>696.1</ele>
        <time>2023-08-03T09:47:04Z</time>
      </trkpt>
      <trkpt lat="44.87236" lon="5.6554">
        <ele>696.6</ele>
        <time>2023-08-03T09:47:06Z</time>
      </trkpt>
      <trkpt lat="44.87243" lon="5.65535">
        <ele>697.4</ele>
        <time>2023-08-03T09:47:09Z</time>
      </trkpt>
      <trkpt lat="44.87248" lon="5.65532">
        <ele>697.8</ele>
        <time>2023-08-03T09:47:11Z</time>
      </trkpt>
      <trkpt lat="44.8725" lon="5.65531">
        <ele>698.1</ele>
        <time>2023-08-03T09:47:12Z</time>
      </trkpt>
      <trkpt lat="44.87252" lon="5.6553">
        <ele>698.3</ele>
        <time>2023-08-03T09:47:13Z</time>
      </trkpt>
      <trkpt lat="44.87257" lon="5.6553">
        <ele>698.6</ele>
        <time>2023-08-03T09:47:15Z</time>
      </trkpt>
      <trkpt lat="44.87259" lon="5.6553">
        <ele>698.8</ele>
        <time>2023-08-03T09:47:16Z</time>
      </trkpt>
      <trkpt lat="44.87261" lon="5.65531">
        <ele>699</ele>
        <time>2023-08-03T09:47:17Z</time>
      </trkpt>
      <trkpt lat="44.8727" lon="5.6553">
        <ele>699.7</ele>
        <time>2023-08-03T09:47:20Z</time>
      </trkpt>
      <trkpt lat="44.87274" lon="5.65531">
        <ele>700</ele>
        <time>2023-08-03T09:47:22Z</time>
      </trkpt>
      <trkpt lat="44.87279" lon="5.6553">
        <ele>700.4</ele>
        <time>2023-08-03T09:47:24Z</time>
      </trkpt>
      <trkpt lat="44.87285" lon="5.6553">
        <ele>700.9</ele>
        <time>2023-08-03T09:47:26Z</time>
      </trkpt>
      <trkpt lat="44.87289" lon="5.65532">
        <ele>701.2</ele>
        <time>2023-08-03T09:47:27Z</time>
      </trkpt>
      <trkpt lat="44.87292" lon="5.65533">
        <ele>701.5</ele>
        <time>2023-08-03T09:47:28Z</time>
      </trkpt>
      <trkpt lat="44.87302" lon="5.65535">
        <ele>702.3</ele>
        <time>2023-08-03T09:47:31Z</time>
      </trkpt>
      <trkpt lat="44.87308" lon="5.65535">
        <ele>702.8</ele>
        <time>2023-08-03T09:47:33Z</time>
      </trkpt>
      <trkpt lat="44.87311" lon="5.65536">
        <ele>703.1</ele>
        <time>2023-08-03T09:47:34Z</time>
      </trkpt>
      <trkpt lat="44.87318" lon="5.65538">
        <ele>703.6</ele>
        <time>2023-08-03T09:47:36Z</time>
      </trkpt>
      <trkpt lat="44.87325" lon="5.65539">
        <ele>704.2</ele>
        <time>2023-08-03T09:47:38Z</time>
      </trkpt>
      <trkpt lat="44.87331" lon="5.6554">
        <ele>704.8</ele>
        <time>2023-08-03T09:47:40Z</time>
      </trkpt>
      <trkpt lat="44.87344" lon="5.65542">
        <ele>706</ele>
        <time>2023-08-03T09:47:44Z</time>
      </trkpt>
      <trkpt lat="44.8735" lon="5.65541">
        <ele>706.6</ele>
        <time>2023-08-03T09:47:46Z</time>
      </trkpt>
      <trkpt lat="44.87353" lon="5.65542">
        <ele>706.9</ele>
        <time>2023-08-03T09:47:47Z</time>
      </trkpt>
      <trkpt lat="44.8737" lon="5.6554">
        <ele>708.8</ele>
        <time>2023-08-03T09:47:53Z</time>
      </trkpt>
      <trkpt lat="44.87377" lon="5.6553">
        <ele>709.1</ele>
        <time>2023-08-03T09:47:56Z</time>
      </trkpt>
      <trkpt lat="44.87378" lon="5.65526">
        <ele>709.2</ele>
        <time>2023-08-03T09:47:57Z</time>
      </trkpt>
      <trkpt lat="44.87378" lon="5.65522">
        <ele>709.2</ele>
        <time>2023-08-03T09:47:58Z</time>
      </trkpt>
      <trkpt lat="44.87373" lon="5.65508">
        <ele>709.3</ele>
        <time>2023-08-03T09:48:01Z</time>
      </trkpt>
      <trkpt lat="44.87368" lon="5.65499">
        <ele>709.5</ele>
        <time>2023-08-03T09:48:03Z</time>
      </trkpt>
      <trkpt lat="44.87351" lon="5.65484">
        <ele>710.4</ele>
        <time>2023-08-03T09:48:09Z</time>
      </trkpt>
      <trkpt lat="44.87336" lon="5.65459">
        <ele>711.7</ele>
        <time>2023-08-03T09:48:16Z</time>
      </trkpt>
      <trkpt lat="44.87312" lon="5.65413">
        <ele>714.2</ele>
        <time>2023-08-03T09:48:28Z</time>
      </trkpt>
      <trkpt lat="44.87297" lon="5.65384">
        <ele>715.8</ele>
        <time>2023-08-03T09:48:35Z</time>
      </trkpt>
      <trkpt lat="44.87284" lon="5.6536">
        <ele>717.2</ele>
        <time>2023-08-03T09:48:41Z</time>
      </trkpt>
      <trkpt lat="44.87277" lon="5.65347">
        <ele>717.9</ele>
        <time>2023-08-03T09:48:44Z</time>
      </trkpt>
      <trkpt lat="44.87266" lon="5.65326">
        <ele>719.1</ele>
        <time>2023-08-03T09:48:49Z</time>
      </trkpt>
      <trkpt lat="44.87258" lon="5.65308">
        <ele>720</ele>
        <time>2023-08-03T09:48:53Z</time>
      </trkpt>
      <trkpt lat="44.87255" lon="5.65297">
        <ele>720.4</ele>
        <time>2023-08-03T09:48:55Z</time>
      </trkpt>
      <trkpt lat="44.87255" lon="5.65274">
        <ele>721.2</ele>
        <time>2023-08-03T09:48:59Z</time>
      </trkpt>
      <trkpt lat="44.87257" lon="5.65264">
        <ele>721.6</ele>
        <time>2023-08-03T09:49:01Z</time>
      </trkpt>
      <trkpt lat="44.87262" lon="5.65242">
        <ele>722.3</ele>
        <time>2023-08-03T09:49:05Z</time>
      </trkpt>
      <trkpt lat="44.87277" lon="5.65188">
        <ele>723.2</ele>
        <time>2023-08-03T09:49:15Z</time>
      </trkpt>
      <trkpt lat="44.87296" lon="5.65147">
        <ele>724.2</ele>
        <time>2023-08-03T09:49:23Z</time>
      </trkpt>
      <trkpt lat="44.87305" lon="5.65135">
        <ele>724.6</ele>
        <time>2023-08-03T09:49:26Z</time>
      </trkpt>
      <trkpt lat="44.8732" lon="5.65121">
        <ele>725.1</ele>
        <time>2023-08-03T09:49:30Z</time>
      </trkpt>
      <trkpt lat="44.87324" lon="5.65117">
        <ele>725.2</ele>
        <time>2023-08-03T09:49:31Z</time>
      </trkpt>
      <trkpt lat="44.87344" lon="5.651">
        <ele>726</ele>
        <time>2023-08-03T09:49:36Z</time>
      </trkpt>
      <trkpt lat="44.87355" lon="5.65089">
        <ele>726.4</ele>
        <time>2023-08-03T09:49:39Z</time>
      </trkpt>
      <trkpt lat="44.87368" lon="5.65074">
        <ele>727</ele>
        <time>2023-08-03T09:49:43Z</time>
      </trkpt>
      <trkpt lat="44.87373" lon="5.65064">
        <ele>727.3</ele>
        <time>2023-08-03T09:49:45Z</time>
      </trkpt>
      <trkpt lat="44.87378" lon="5.65054">
        <ele>727.5</ele>
        <time>2023-08-03T09:49:47Z</time>
      </trkpt>
      <trkpt lat="44.87386" lon="5.65038">
        <ele>728</ele>
        <time>2023-08-03T09:49:50Z</time>
      </trkpt>
      <trkpt lat="44.87392" lon="5.65022">
        <ele>728.3</ele>
        <time>2023-08-03T09:49:53Z</time>
      </trkpt>
      <trkpt lat="44.87395" lon="5.65015">
        <ele>728.4</ele>
        <time>2023-08-03T09:49:54Z</time>
      </trkpt>
      <trkpt lat="44.87404" lon="5.64998">
        <ele>729</ele>
        <time>2023-08-03T09:49:57Z</time>
      </trkpt>
      <trkpt lat="44.8741" lon="5.64987">
        <ele>729.4</ele>
        <time>2023-08-03T09:49:59Z</time>
      </trkpt>
      <trkpt lat="44.87414" lon="5.64982">
        <ele>729.5</ele>
        <time>2023-08-03T09:50:00Z</time>
      </trkpt>
      <trkpt lat="44.87418" lon="5.64978">
        <ele>729.7</ele>
        <time>2023-08-03T09:50:01Z</time>
      </trkpt>
      <trkpt lat="44.87432" lon="5.6497">
        <ele>730</ele>
        <time>2023-08-03T09:50:04Z</time>
      </trkpt>
      <trkpt lat="44.87437" lon="5.64969">
        <ele>730.1</ele>
        <time>2023-08-03T09:50:05Z</time>
      </trkpt>
      <trkpt lat="44.87442" lon="5.64968">
        <ele>730.1</ele>
        <time>2023-08-03T09:50:06Z</time>
      </trkpt>
      <trkpt lat="44.87451" lon="5.64968">
        <ele>730.3</ele>
        <time>2023-08-03T09:50:08Z</time>
      </trkpt>
      <trkpt lat="44.87457" lon="5.6497">
        <ele>730.4</ele>
        <time>2023-08-03T09:50:09Z</time>
      </trkpt>
      <trkpt lat="44.87462" lon="5.64972">
        <ele>730.5</ele>
        <time>2023-08-03T09:50:10Z</time>
      </trkpt>
      <trkpt lat="44.87485" lon="5.64984">
        <ele>730.9</ele>
        <time>2023-08-03T09:50:15Z</time>
      </trkpt>
      <trkpt lat="44.87504" lon="5.64995">
        <ele>731.3</ele>
        <time>2023-08-03T09:50:19Z</time>
      </trkpt>
      <trkpt lat="44.87538" lon="5.65015">
        <ele>732</ele>
        <time>2023-08-03T09:50:26Z</time>
      </trkpt>
      <trkpt lat="44.87557" lon="5.65025">
        <ele>732.4</ele>
        <time>2023-08-03T09:50:30Z</time>
      </trkpt>
      <trkpt lat="44.87592" lon="5.65045">
        <ele>733.2</ele>
        <time>2023-08-03T09:50:37Z</time>
      </trkpt>
      <trkpt lat="44.87601" lon="5.65051">
        <ele>733.4</ele>
        <time>2023-08-03T09:50:39Z</time>
      </trkpt>
      <trkpt lat="44.87621" lon="5.65062">
        <ele>734</ele>
        <time>2023-08-03T09:50:43Z</time>
      </trkpt>
      <trkpt lat="44.87647" lon="5.65072">
        <ele>734.6</ele>
        <time>2023-08-03T09:50:48Z</time>
      </trkpt>
      <trkpt lat="44.87652" lon="5.65073">
        <ele>734.7</ele>
        <time>2023-08-03T09:50:49Z</time>
      </trkpt>
      <trkpt lat="44.87689" lon="5.65072">
        <ele>735.5</ele>
        <time>2023-08-03T09:50:56Z</time>
      </trkpt>
      <trkpt lat="44.87744" lon="5.65065">
        <ele>736.6</ele>
        <time>2023-08-03T09:51:06Z</time>
      </trkpt>
      <trkpt lat="44.87786" lon="5.65055">
        <ele>737.6</ele>
        <time>2023-08-03T09:51:14Z</time>
      </trkpt>
      <trkpt lat="44.87808" lon="5.65037">
        <ele>738.2</ele>
        <time>2023-08-03T09:51:19Z</time>
      </trkpt>
      <trkpt lat="44.87812" lon="5.65031">
        <ele>738.3</ele>
        <time>2023-08-03T09:51:20Z</time>
      </trkpt>
      <trkpt lat="44.87826" lon="5.65007">
        <ele>738.7</ele>
        <time>2023-08-03T09:51:24Z</time>
      </trkpt>
      <trkpt lat="44.87832" lon="5.64994">
        <ele>739</ele>
        <time>2023-08-03T09:51:26Z</time>
      </trkpt>
      <trkpt lat="44.87842" lon="5.64968">
        <ele>739.4</ele>
        <time>2023-08-03T09:51:30Z</time>
      </trkpt>
      <trkpt lat="44.87847" lon="5.64954">
        <ele>739.7</ele>
        <time>2023-08-03T09:51:32Z</time>
      </trkpt>
      <trkpt lat="44.87855" lon="5.64934">
        <ele>740.2</ele>
        <time>2023-08-03T09:51:35Z</time>
      </trkpt>
      <trkpt lat="44.87861" lon="5.64921">
        <ele>740.5</ele>
        <time>2023-08-03T09:51:37Z</time>
      </trkpt>
      <trkpt lat="44.87868" lon="5.64909">
        <ele>740.7</ele>
        <time>2023-08-03T09:51:39Z</time>
      </trkpt>
      <trkpt lat="44.87871" lon="5.64904">
        <ele>740.8</ele>
        <time>2023-08-03T09:51:40Z</time>
      </trkpt>
      <trkpt lat="44.87881" lon="5.64893">
        <ele>741.1</ele>
        <time>2023-08-03T09:51:42Z</time>
      </trkpt>
      <trkpt lat="44.87886" lon="5.6489">
        <ele>741.2</ele>
        <time>2023-08-03T09:51:43Z</time>
      </trkpt>
      <trkpt lat="44.87896" lon="5.64885">
        <ele>741.5</ele>
        <time>2023-08-03T09:51:45Z</time>
      </trkpt>
      <trkpt lat="44.87907" lon="5.64883">
        <ele>741.7</ele>
        <time>2023-08-03T09:51:47Z</time>
      </trkpt>
      <trkpt lat="44.87912" lon="5.64883">
        <ele>741.7</ele>
        <time>2023-08-03T09:51:48Z</time>
      </trkpt>
      <trkpt lat="44.87934" lon="5.64889">
        <ele>742.1</ele>
        <time>2023-08-03T09:51:52Z</time>
      </trkpt>
      <trkpt lat="44.87944" lon="5.64892">
        <ele>742.3</ele>
        <time>2023-08-03T09:51:54Z</time>
      </trkpt>
      <trkpt lat="44.87955" lon="5.64897">
        <ele>742.5</ele>
        <time>2023-08-03T09:51:56Z</time>
      </trkpt>
      <trkpt lat="44.8796" lon="5.64899">
        <ele>742.6</ele>
        <time>2023-08-03T09:51:57Z</time>
      </trkpt>
      <trkpt lat="44.87976" lon="5.64905">
        <ele>743.1</ele>
        <time>2023-08-03T09:52:00Z</time>
      </trkpt>
      <trkpt lat="44.87987" lon="5.64906">
        <ele>743.4</ele>
        <time>2023-08-03T09:52:02Z</time>
      </trkpt>
      <trkpt lat="44.87997" lon="5.64907">
        <ele>743.6</ele>
        <time>2023-08-03T09:52:04Z</time>
      </trkpt>
      <trkpt lat="44.88019" lon="5.64903">
        <ele>744.1</ele>
        <time>2023-08-03T09:52:08Z</time>
      </trkpt>
      <trkpt lat="44.8803" lon="5.64899">
        <ele>744.3</ele>
        <time>2023-08-03T09:52:10Z</time>
      </trkpt>
      <trkpt lat="44.8804" lon="5.64891">
        <ele>744.4</ele>
        <time>2023-08-03T09:52:12Z</time>
      </trkpt>
      <trkpt lat="44.88061" lon="5.64878">
        <ele>744.5</ele>
        <time>2023-08-03T09:52:16Z</time>
      </trkpt>
      <trkpt lat="44.88072" lon="5.64873">
        <ele>744.6</ele>
        <time>2023-08-03T09:52:18Z</time>
      </trkpt>
      <trkpt lat="44.88077" lon="5.64871">
        <ele>744.7</ele>
        <time>2023-08-03T09:52:19Z</time>
      </trkpt>
      <trkpt lat="44.88089" lon="5.6487">
        <ele>744.9</ele>
        <time>2023-08-03T09:52:21Z</time>
      </trkpt>
      <trkpt lat="44.88112" lon="5.64873">
        <ele>745.4</ele>
        <time>2023-08-03T09:52:25Z</time>
      </trkpt>
      <trkpt lat="44.88129" lon="5.64873">
        <ele>745.8</ele>
        <time>2023-08-03T09:52:28Z</time>
      </trkpt>
      <trkpt lat="44.88135" lon="5.64873">
        <ele>745.9</ele>
        <time>2023-08-03T09:52:29Z</time>
      </trkpt>
      <trkpt lat="44.88146" lon="5.6487">
        <ele>746.2</ele>
        <time>2023-08-03T09:52:31Z</time>
      </trkpt>
      <trkpt lat="44.8815" lon="5.64868">
        <ele>746.3</ele>
        <time>2023-08-03T09:52:32Z</time>
      </trkpt>
      <trkpt lat="44.88156" lon="5.64864">
        <ele>746.4</ele>
        <time>2023-08-03T09:52:33Z</time>
      </trkpt>
      <trkpt lat="44.88161" lon="5.6486">
        <ele>746.5</ele>
        <time>2023-08-03T09:52:34Z</time>
      </trkpt>
      <trkpt lat="44.8818" lon="5.64841">
        <ele>747</ele>
        <time>2023-08-03T09:52:38Z</time>
      </trkpt>
      <trkpt lat="44.88197" lon="5.6482">
        <ele>747.6</ele>
        <time>2023-08-03T09:52:42Z</time>
      </trkpt>
      <trkpt lat="44.88228" lon="5.6478">
        <ele>748.5</ele>
        <time>2023-08-03T09:52:49Z</time>
      </trkpt>
      <trkpt lat="44.88252" lon="5.64746">
        <ele>749.2</ele>
        <time>2023-08-03T09:52:55Z</time>
      </trkpt>
      <trkpt lat="44.8826" lon="5.64735">
        <ele>749.5</ele>
        <time>2023-08-03T09:52:57Z</time>
      </trkpt>
      <trkpt lat="44.88264" lon="5.6473">
        <ele>749.6</ele>
        <time>2023-08-03T09:52:58Z</time>
      </trkpt>
      <trkpt lat="44.88281" lon="5.64707">
        <ele>750.2</ele>
        <time>2023-08-03T09:53:02Z</time>
      </trkpt>
      <trkpt lat="44.88293" lon="5.64691">
        <ele>750.6</ele>
        <time>2023-08-03T09:53:05Z</time>
      </trkpt>
      <trkpt lat="44.88296" lon="5.64687">
        <ele>750.7</ele>
        <time>2023-08-03T09:53:06Z</time>
      </trkpt>
      <trkpt lat="44.88309" lon="5.6467">
        <ele>751.1</ele>
        <time>2023-08-03T09:53:09Z</time>
      </trkpt>
      <trkpt lat="44.88322" lon="5.64655">
        <ele>751.4</ele>
        <time>2023-08-03T09:53:12Z</time>
      </trkpt>
      <trkpt lat="44.8833" lon="5.64646">
        <ele>751.6</ele>
        <time>2023-08-03T09:53:14Z</time>
      </trkpt>
      <trkpt lat="44.88335" lon="5.64642">
        <ele>751.7</ele>
        <time>2023-08-03T09:53:15Z</time>
      </trkpt>
      <trkpt lat="44.88354" lon="5.64626">
        <ele>752.2</ele>
        <time>2023-08-03T09:53:19Z</time>
      </trkpt>
      <trkpt lat="44.88372" lon="5.6461">
        <ele>752.7</ele>
        <time>2023-08-03T09:53:23Z</time>
      </trkpt>
      <trkpt lat="44.88376" lon="5.64607">
        <ele>752.7</ele>
        <time>2023-08-03T09:53:24Z</time>
      </trkpt>
      <trkpt lat="44.88397" lon="5.6459">
        <ele>753.3</ele>
        <time>2023-08-03T09:53:28Z</time>
      </trkpt>
      <trkpt lat="44.88402" lon="5.64586">
        <ele>753.5</ele>
        <time>2023-08-03T09:53:29Z</time>
      </trkpt>
      <trkpt lat="44.88422" lon="5.64569">
        <ele>754</ele>
        <time>2023-08-03T09:53:33Z</time>
      </trkpt>
      <trkpt lat="44.88427" lon="5.64565">
        <ele>754.2</ele>
        <time>2023-08-03T09:53:34Z</time>
      </trkpt>
      <trkpt lat="44.88445" lon="5.64546">
        <ele>754.8</ele>
        <time>2023-08-03T09:53:38Z</time>
      </trkpt>
      <trkpt lat="44.88453" lon="5.64534">
        <ele>755.1</ele>
        <time>2023-08-03T09:53:40Z</time>
      </trkpt>
      <trkpt lat="44.88458" lon="5.64523">
        <ele>755.4</ele>
        <time>2023-08-03T09:53:42Z</time>
      </trkpt>
      <trkpt lat="44.88462" lon="5.64514">
        <ele>755.5</ele>
        <time>2023-08-03T09:53:43Z</time>
      </trkpt>
      <trkpt lat="44.88465" lon="5.64499">
        <ele>755.8</ele>
        <time>2023-08-03T09:53:45Z</time>
      </trkpt>
      <trkpt lat="44.88467" lon="5.64491">
        <ele>755.9</ele>
        <time>2023-08-03T09:53:46Z</time>
      </trkpt>
      <trkpt lat="44.88468" lon="5.64451">
        <ele>756.5</ele>
        <time>2023-08-03T09:53:51Z</time>
      </trkpt>
      <trkpt lat="44.88468" lon="5.64379">
        <ele>757.5</ele>
        <time>2023-08-03T09:54:00Z</time>
      </trkpt>
      <trkpt lat="44.88472" lon="5.64345">
        <ele>758.1</ele>
        <time>2023-08-03T09:54:04Z</time>
      </trkpt>
      <trkpt lat="44.88477" lon="5.64329">
        <ele>758.4</ele>
        <time>2023-08-03T09:54:06Z</time>
      </trkpt>
      <trkpt lat="44.8849" lon="5.64303">
        <ele>759.1</ele>
        <time>2023-08-03T09:54:10Z</time>
      </trkpt>
      <trkpt lat="44.88496" lon="5.64291">
        <ele>759.3</ele>
        <time>2023-08-03T09:54:12Z</time>
      </trkpt>
      <trkpt lat="44.88512" lon="5.64266">
        <ele>759.8</ele>
        <time>2023-08-03T09:54:16Z</time>
      </trkpt>
      <trkpt lat="44.88531" lon="5.64236">
        <ele>760.5</ele>
        <time>2023-08-03T09:54:21Z</time>
      </trkpt>
      <trkpt lat="44.88543" lon="5.64218">
        <ele>760.8</ele>
        <time>2023-08-03T09:54:24Z</time>
      </trkpt>
      <trkpt lat="44.88547" lon="5.64212">
        <ele>761</ele>
        <time>2023-08-03T09:54:25Z</time>
      </trkpt>
      <trkpt lat="44.8857" lon="5.64178">
        <ele>761.8</ele>
        <time>2023-08-03T09:54:31Z</time>
      </trkpt>
      <trkpt lat="44.88574" lon="5.64172">
        <ele>762</ele>
        <time>2023-08-03T09:54:32Z</time>
      </trkpt>
      <trkpt lat="44.88582" lon="5.64159">
        <ele>762.4</ele>
        <time>2023-08-03T09:54:34Z</time>
      </trkpt>
      <trkpt lat="44.88589" lon="5.64147">
        <ele>762.8</ele>
        <time>2023-08-03T09:54:36Z</time>
      </trkpt>
      <trkpt lat="44.88594" lon="5.64134">
        <ele>763.2</ele>
        <time>2023-08-03T09:54:38Z</time>
      </trkpt>
      <trkpt lat="44.88597" lon="5.64127">
        <ele>763.3</ele>
        <time>2023-08-03T09:54:39Z</time>
      </trkpt>
      <trkpt lat="44.88601" lon="5.64113">
        <ele>763.7</ele>
        <time>2023-08-03T09:54:41Z</time>
      </trkpt>
      <trkpt lat="44.88604" lon="5.64098">
        <ele>764</ele>
        <time>2023-08-03T09:54:43Z</time>
      </trkpt>
      <trkpt lat="44.88605" lon="5.64084">
        <ele>764.2</ele>
        <time>2023-08-03T09:54:45Z</time>
      </trkpt>
      <trkpt lat="44.88606" lon="5.64076">
        <ele>764.4</ele>
        <time>2023-08-03T09:54:46Z</time>
      </trkpt>
      <trkpt lat="44.88607" lon="5.6403">
        <ele>765.2</ele>
        <time>2023-08-03T09:54:52Z</time>
      </trkpt>
      <trkpt lat="44.88607" lon="5.6402">
        <ele>765.4</ele>
        <time>2023-08-03T09:54:53Z</time>
      </trkpt>
      <trkpt lat="44.88609" lon="5.63953">
        <ele>766.3</ele>
        <time>2023-08-03T09:55:02Z</time>
      </trkpt>
      <trkpt lat="44.88613" lon="5.63932">
        <ele>766.5</ele>
        <time>2023-08-03T09:55:05Z</time>
      </trkpt>
      <trkpt lat="44.88618" lon="5.6392">
        <ele>766.7</ele>
        <time>2023-08-03T09:55:07Z</time>
      </trkpt>
      <trkpt lat="44.88622" lon="5.63914">
        <ele>766.9</ele>
        <time>2023-08-03T09:55:08Z</time>
      </trkpt>
      <trkpt lat="44.88633" lon="5.63898">
        <ele>767.7</ele>
        <time>2023-08-03T09:55:11Z</time>
      </trkpt>
      <trkpt lat="44.88644" lon="5.63885">
        <ele>768.5</ele>
        <time>2023-08-03T09:55:14Z</time>
      </trkpt>
      <trkpt lat="44.88653" lon="5.63878">
        <ele>769.1</ele>
        <time>2023-08-03T09:55:16Z</time>
      </trkpt>
      <trkpt lat="44.88658" lon="5.63874">
        <ele>769.4</ele>
        <time>2023-08-03T09:55:17Z</time>
      </trkpt>
      <trkpt lat="44.88671" lon="5.63864">
        <ele>770.3</ele>
        <time>2023-08-03T09:55:20Z</time>
      </trkpt>
      <trkpt lat="44.88679" lon="5.6386">
        <ele>770.8</ele>
        <time>2023-08-03T09:55:22Z</time>
      </trkpt>
      <trkpt lat="44.88687" lon="5.63856">
        <ele>771.4</ele>
        <time>2023-08-03T09:55:24Z</time>
      </trkpt>
      <trkpt lat="44.88696" lon="5.63854">
        <ele>771.9</ele>
        <time>2023-08-03T09:55:26Z</time>
      </trkpt>
      <trkpt lat="44.88709" lon="5.63853">
        <ele>772.7</ele>
        <time>2023-08-03T09:55:29Z</time>
      </trkpt>
      <trkpt lat="44.88726" lon="5.63851">
        <ele>773.2</ele>
        <time>2023-08-03T09:55:33Z</time>
      </trkpt>
      <trkpt lat="44.8873" lon="5.63851">
        <ele>773.2</ele>
        <time>2023-08-03T09:55:34Z</time>
      </trkpt>
      <trkpt lat="44.88743" lon="5.6385">
        <ele>773.5</ele>
        <time>2023-08-03T09:55:37Z</time>
      </trkpt>
      <trkpt lat="44.88747" lon="5.63848">
        <ele>773.5</ele>
        <time>2023-08-03T09:55:38Z</time>
      </trkpt>
      <trkpt lat="44.88756" lon="5.63844">
        <ele>773.7</ele>
        <time>2023-08-03T09:55:40Z</time>
      </trkpt>
      <trkpt lat="44.88764" lon="5.63839">
        <ele>773.8</ele>
        <time>2023-08-03T09:55:42Z</time>
      </trkpt>
      <trkpt lat="44.88772" lon="5.63833">
        <ele>774.1</ele>
        <time>2023-08-03T09:55:44Z</time>
      </trkpt>
      <trkpt lat="44.8878" lon="5.63827">
        <ele>774.5</ele>
        <time>2023-08-03T09:55:46Z</time>
      </trkpt>
      <trkpt lat="44.88784" lon="5.63824">
        <ele>774.7</ele>
        <time>2023-08-03T09:55:47Z</time>
      </trkpt>
      <trkpt lat="44.88803" lon="5.6381">
        <ele>775.6</ele>
        <time>2023-08-03T09:55:52Z</time>
      </trkpt>
      <trkpt lat="44.88807" lon="5.63807">
        <ele>775.8</ele>
        <time>2023-08-03T09:55:53Z</time>
      </trkpt>
      <trkpt lat="44.88811" lon="5.63805">
        <ele>776</ele>
        <time>2023-08-03T09:55:54Z</time>
      </trkpt>
      <trkpt lat="44.88822" lon="5.63796">
        <ele>776.6</ele>
        <time>2023-08-03T09:55:57Z</time>
      </trkpt>
      <trkpt lat="44.88825" lon="5.63793">
        <ele>776.7</ele>
        <time>2023-08-03T09:55:58Z</time>
      </trkpt>
      <trkpt lat="44.88833" lon="5.63788">
        <ele>777.1</ele>
        <time>2023-08-03T09:56:00Z</time>
      </trkpt>
      <trkpt lat="44.88845" lon="5.63778">
        <ele>777.7</ele>
        <time>2023-08-03T09:56:03Z</time>
      </trkpt>
      <trkpt lat="44.88863" lon="5.63763">
        <ele>778.7</ele>
        <time>2023-08-03T09:56:08Z</time>
      </trkpt>
      <trkpt lat="44.88877" lon="5.63751">
        <ele>779.6</ele>
        <time>2023-08-03T09:56:12Z</time>
      </trkpt>
      <trkpt lat="44.88884" lon="5.63744">
        <ele>780</ele>
        <time>2023-08-03T09:56:14Z</time>
      </trkpt>
      <trkpt lat="44.88888" lon="5.6374">
        <ele>780.3</ele>
        <time>2023-08-03T09:56:15Z</time>
      </trkpt>
      <trkpt lat="44.88899" lon="5.6373">
        <ele>780.9</ele>
        <time>2023-08-03T09:56:18Z</time>
      </trkpt>
      <trkpt lat="44.88921" lon="5.63708">
        <ele>782.1</ele>
        <time>2023-08-03T09:56:24Z</time>
      </trkpt>
      <trkpt lat="44.88925" lon="5.63704">
        <ele>782.3</ele>
        <time>2023-08-03T09:56:25Z</time>
      </trkpt>
      <trkpt lat="44.88949" lon="5.63679">
        <ele>783.7</ele>
        <time>2023-08-03T09:56:32Z</time>
      </trkpt>
      <trkpt lat="44.88971" lon="5.63655">
        <ele>785</ele>
        <time>2023-08-03T09:56:39Z</time>
      </trkpt>
      <trkpt lat="44.88994" lon="5.63632">
        <ele>786.3</ele>
        <time>2023-08-03T09:56:46Z</time>
      </trkpt>
      <trkpt lat="44.89022" lon="5.63603">
        <ele>788</ele>
        <time>2023-08-03T09:56:55Z</time>
      </trkpt>
      <trkpt lat="44.8905" lon="5.63578">
        <ele>789.5</ele>
        <time>2023-08-03T09:57:03Z</time>
      </trkpt>
      <trkpt lat="44.8906" lon="5.63569">
        <ele>790</ele>
        <time>2023-08-03T09:57:06Z</time>
      </trkpt>
      <trkpt lat="44.89067" lon="5.63562">
        <ele>790.4</ele>
        <time>2023-08-03T09:57:08Z</time>
      </trkpt>
      <trkpt lat="44.89071" lon="5.63559">
        <ele>790.6</ele>
        <time>2023-08-03T09:57:09Z</time>
      </trkpt>
      <trkpt lat="44.89093" lon="5.63539">
        <ele>791.8</ele>
        <time>2023-08-03T09:57:15Z</time>
      </trkpt>
      <trkpt lat="44.891" lon="5.63532">
        <ele>792.2</ele>
        <time>2023-08-03T09:57:17Z</time>
      </trkpt>
      <trkpt lat="44.89117" lon="5.63514">
        <ele>793.2</ele>
        <time>2023-08-03T09:57:22Z</time>
      </trkpt>
      <trkpt lat="44.89157" lon="5.63478">
        <ele>795.4</ele>
        <time>2023-08-03T09:57:33Z</time>
      </trkpt>
      <trkpt lat="44.89178" lon="5.63458">
        <ele>796.6</ele>
        <time>2023-08-03T09:57:39Z</time>
      </trkpt>
      <trkpt lat="44.89185" lon="5.63452">
        <ele>797</ele>
        <time>2023-08-03T09:57:41Z</time>
      </trkpt>
      <trkpt lat="44.89204" lon="5.63436">
        <ele>798</ele>
        <time>2023-08-03T09:57:46Z</time>
      </trkpt>
      <trkpt lat="44.89216" lon="5.6343">
        <ele>798.6</ele>
        <time>2023-08-03T09:57:49Z</time>
      </trkpt>
      <trkpt lat="44.89225" lon="5.6343">
        <ele>798.9</ele>
        <time>2023-08-03T09:57:51Z</time>
      </trkpt>
      <trkpt lat="44.89233" lon="5.63432">
        <ele>799.3</ele>
        <time>2023-08-03T09:57:53Z</time>
      </trkpt>
      <trkpt lat="44.89252" lon="5.63443">
        <ele>800.2</ele>
        <time>2023-08-03T09:57:58Z</time>
      </trkpt>
      <trkpt lat="44.89257" lon="5.63451">
        <ele>800.5</ele>
        <time>2023-08-03T09:58:00Z</time>
      </trkpt>
      <trkpt lat="44.89263" lon="5.63459">
        <ele>800.9</ele>
        <time>2023-08-03T09:58:02Z</time>
      </trkpt>
      <trkpt lat="44.89266" lon="5.63464">
        <ele>801.1</ele>
        <time>2023-08-03T09:58:03Z</time>
      </trkpt>
      <trkpt lat="44.89291" lon="5.63503">
        <ele>802.6</ele>
        <time>2023-08-03T09:58:11Z</time>
      </trkpt>
      <trkpt lat="44.89308" lon="5.63526">
        <ele>803.6</ele>
        <time>2023-08-03T09:58:16Z</time>
      </trkpt>
      <trkpt lat="44.89322" lon="5.6354">
        <ele>804.5</ele>
        <time>2023-08-03T09:58:20Z</time>
      </trkpt>
      <trkpt lat="44.89354" lon="5.63563">
        <ele>806.5</ele>
        <time>2023-08-03T09:58:28Z</time>
      </trkpt>
      <trkpt lat="44.89384" lon="5.6357">
        <ele>808.1</ele>
        <time>2023-08-03T09:58:35Z</time>
      </trkpt>
      <trkpt lat="44.89408" lon="5.63559">
        <ele>809.5</ele>
        <time>2023-08-03T09:58:41Z</time>
      </trkpt>
      <trkpt lat="44.89411" lon="5.63558">
        <ele>809.6</ele>
        <time>2023-08-03T09:58:42Z</time>
      </trkpt>
      <trkpt lat="44.89448" lon="5.63547">
        <ele>811.1</ele>
        <time>2023-08-03T09:58:51Z</time>
      </trkpt>
      <trkpt lat="44.89482" lon="5.63539">
        <ele>812.6</ele>
        <time>2023-08-03T09:58:59Z</time>
      </trkpt>
      <trkpt lat="44.89486" lon="5.63538">
        <ele>812.9</ele>
        <time>2023-08-03T09:59:00Z</time>
      </trkpt>
      <trkpt lat="44.89524" lon="5.6353">
        <ele>815</ele>
        <time>2023-08-03T09:59:09Z</time>
      </trkpt>
      <trkpt lat="44.89565" lon="5.63524">
        <ele>817.5</ele>
        <time>2023-08-03T09:59:19Z</time>
      </trkpt>
      <trkpt lat="44.89601" lon="5.63512">
        <ele>819.6</ele>
        <time>2023-08-03T09:59:28Z</time>
      </trkpt>
      <trkpt lat="44.89613" lon="5.63505">
        <ele>820.3</ele>
        <time>2023-08-03T09:59:31Z</time>
      </trkpt>
      <trkpt lat="44.89624" lon="5.63496">
        <ele>820.9</ele>
        <time>2023-08-03T09:59:34Z</time>
      </trkpt>
      <trkpt lat="44.89652" lon="5.63468">
        <ele>822.6</ele>
        <time>2023-08-03T09:59:42Z</time>
      </trkpt>
      <trkpt lat="44.8968" lon="5.63442">
        <ele>824.2</ele>
        <time>2023-08-03T09:59:50Z</time>
      </trkpt>
      <trkpt lat="44.89698" lon="5.63426">
        <ele>825.4</ele>
        <time>2023-08-03T09:59:56Z</time>
      </trkpt>
      <trkpt lat="44.89712" lon="5.63411">
        <ele>826.3</ele>
        <time>2023-08-03T10:00:01Z</time>
      </trkpt>
      <trkpt lat="44.89733" lon="5.63386">
        <ele>827.7</ele>
        <time>2023-08-03T10:00:09Z</time>
      </trkpt>
      <trkpt lat="44.89734" lon="5.63381">
        <ele>827.9</ele>
        <time>2023-08-03T10:00:10Z</time>
      </trkpt>
      <trkpt lat="44.89735" lon="5.63358">
        <ele>828.8</ele>
        <time>2023-08-03T10:00:15Z</time>
      </trkpt>
      <trkpt lat="44.89735" lon="5.63348">
        <ele>829.2</ele>
        <time>2023-08-03T10:00:17Z</time>
      </trkpt>
      <trkpt lat="44.89732" lon="5.63317">
        <ele>830.4</ele>
        <time>2023-08-03T10:00:22Z</time>
      </trkpt>
      <trkpt lat="44.89736" lon="5.63276">
        <ele>831.8</ele>
        <time>2023-08-03T10:00:29Z</time>
      </trkpt>
      <trkpt lat="44.89744" lon="5.6325">
        <ele>832.8</ele>
        <time>2023-08-03T10:00:35Z</time>
      </trkpt>
      <trkpt lat="44.89746" lon="5.63245">
        <ele>833</ele>
        <time>2023-08-03T10:00:36Z</time>
      </trkpt>
      <trkpt lat="44.89755" lon="5.63219">
        <ele>834.3</ele>
        <time>2023-08-03T10:00:42Z</time>
      </trkpt>
      <trkpt lat="44.89761" lon="5.63197">
        <ele>835.3</ele>
        <time>2023-08-03T10:00:47Z</time>
      </trkpt>
      <trkpt lat="44.89763" lon="5.63189">
        <ele>835.7</ele>
        <time>2023-08-03T10:00:49Z</time>
      </trkpt>
      <trkpt lat="44.89761" lon="5.6317">
        <ele>836.4</ele>
        <time>2023-08-03T10:00:53Z</time>
      </trkpt>
      <trkpt lat="44.89759" lon="5.63166">
        <ele>836.5</ele>
        <time>2023-08-03T10:00:54Z</time>
      </trkpt>
      <trkpt lat="44.89748" lon="5.6314">
        <ele>837.6</ele>
        <time>2023-08-03T10:01:00Z</time>
      </trkpt>
      <trkpt lat="44.89744" lon="5.63117">
        <ele>838.5</ele>
        <time>2023-08-03T10:01:05Z</time>
      </trkpt>
      <trkpt lat="44.89744" lon="5.63111">
        <ele>838.7</ele>
        <time>2023-08-03T10:01:06Z</time>
      </trkpt>
      <trkpt lat="44.89749" lon="5.63088">
        <ele>839.7</ele>
        <time>2023-08-03T10:01:11Z</time>
      </trkpt>
      <trkpt lat="44.89751" lon="5.63084">
        <ele>839.9</ele>
        <time>2023-08-03T10:01:12Z</time>
      </trkpt>
      <trkpt lat="44.89758" lon="5.63073">
        <ele>840.5</ele>
        <time>2023-08-03T10:01:15Z</time>
      </trkpt>
      <trkpt lat="44.89761" lon="5.6307">
        <ele>840.7</ele>
        <time>2023-08-03T10:01:16Z</time>
      </trkpt>
      <trkpt lat="44.89769" lon="5.63065">
        <ele>841.3</ele>
        <time>2023-08-03T10:01:19Z</time>
      </trkpt>
      <trkpt lat="44.89776" lon="5.63063">
        <ele>841.7</ele>
        <time>2023-08-03T10:01:21Z</time>
      </trkpt>
      <trkpt lat="44.89786" lon="5.6306">
        <ele>842.3</ele>
        <time>2023-08-03T10:01:24Z</time>
      </trkpt>
      <trkpt lat="44.89801" lon="5.63055">
        <ele>843.3</ele>
        <time>2023-08-03T10:01:29Z</time>
      </trkpt>
      <trkpt lat="44.89809" lon="5.63052">
        <ele>843.8</ele>
        <time>2023-08-03T10:01:31Z</time>
      </trkpt>
      <trkpt lat="44.89821" lon="5.63045">
        <ele>844.7</ele>
        <time>2023-08-03T10:01:35Z</time>
      </trkpt>
      <trkpt lat="44.89824" lon="5.63041">
        <ele>844.9</ele>
        <time>2023-08-03T10:01:36Z</time>
      </trkpt>
      <trkpt lat="44.89828" lon="5.63033">
        <ele>845.3</ele>
        <time>2023-08-03T10:01:38Z</time>
      </trkpt>
      <trkpt lat="44.89829" lon="5.63029">
        <ele>845.4</ele>
        <time>2023-08-03T10:01:39Z</time>
      </trkpt>
      <trkpt lat="44.89827" lon="5.63012">
        <ele>846</ele>
        <time>2023-08-03T10:01:42Z</time>
      </trkpt>
      <trkpt lat="44.89825" lon="5.63008">
        <ele>846.2</ele>
        <time>2023-08-03T10:01:43Z</time>
      </trkpt>
      <trkpt lat="44.89809" lon="5.62993">
        <ele>847</ele>
        <time>2023-08-03T10:01:48Z</time>
      </trkpt>
      <trkpt lat="44.89792" lon="5.62974">
        <ele>847.7</ele>
        <time>2023-08-03T10:01:53Z</time>
      </trkpt>
      <trkpt lat="44.89789" lon="5.62965">
        <ele>848</ele>
        <time>2023-08-03T10:01:55Z</time>
      </trkpt>
      <trkpt lat="44.89788" lon="5.62949">
        <ele>848.4</ele>
        <time>2023-08-03T10:01:58Z</time>
      </trkpt>
      <trkpt lat="44.89793" lon="5.62934">
        <ele>848.9</ele>
        <time>2023-08-03T10:02:01Z</time>
      </trkpt>
      <trkpt lat="44.89797" lon="5.62924">
        <ele>849.2</ele>
        <time>2023-08-03T10:02:03Z</time>
      </trkpt>
      <trkpt lat="44.89801" lon="5.62914">
        <ele>849.6</ele>
        <time>2023-08-03T10:02:05Z</time>
      </trkpt>
      <trkpt lat="44.89815" lon="5.62878">
        <ele>851.1</ele>
        <time>2023-08-03T10:02:12Z</time>
      </trkpt>
      <trkpt lat="44.89821" lon="5.62864">
        <ele>851.8</ele>
        <time>2023-08-03T10:02:15Z</time>
      </trkpt>
      <trkpt lat="44.89832" lon="5.62841">
        <ele>852.7</ele>
        <time>2023-08-03T10:02:20Z</time>
      </trkpt>
      <trkpt lat="44.89847" lon="5.62825">
        <ele>853.7</ele>
        <time>2023-08-03T10:02:25Z</time>
      </trkpt>
      <trkpt lat="44.89862" lon="5.62815">
        <ele>854.5</ele>
        <time>2023-08-03T10:02:30Z</time>
      </trkpt>
      <trkpt lat="44.89879" lon="5.62808">
        <ele>855.3</ele>
        <time>2023-08-03T10:02:35Z</time>
      </trkpt>
      <trkpt lat="44.89882" lon="5.62807">
        <ele>855.5</ele>
        <time>2023-08-03T10:02:36Z</time>
      </trkpt>
      <trkpt lat="44.89892" lon="5.62804">
        <ele>856</ele>
        <time>2023-08-03T10:02:39Z</time>
      </trkpt>
      <trkpt lat="44.89906" lon="5.628">
        <ele>856.7</ele>
        <time>2023-08-03T10:02:43Z</time>
      </trkpt>
      <trkpt lat="44.8991" lon="5.62799">
        <ele>856.9</ele>
        <time>2023-08-03T10:02:44Z</time>
      </trkpt>
      <trkpt lat="44.89936" lon="5.62791">
        <ele>858.2</ele>
        <time>2023-08-03T10:02:51Z</time>
      </trkpt>
      <trkpt lat="44.89968" lon="5.62784">
        <ele>859.9</ele>
        <time>2023-08-03T10:02:59Z</time>
      </trkpt>
      <trkpt lat="44.89972" lon="5.62784">
        <ele>860.1</ele>
        <time>2023-08-03T10:03:00Z</time>
      </trkpt>
      <trkpt lat="44.89993" lon="5.62785">
        <ele>861</ele>
        <time>2023-08-03T10:03:05Z</time>
      </trkpt>
      <trkpt lat="44.89997" lon="5.62786">
        <ele>861.3</ele>
        <time>2023-08-03T10:03:06Z</time>
      </trkpt>
      <trkpt lat="44.90034" lon="5.62803">
        <ele>863.2</ele>
        <time>2023-08-03T10:03:15Z</time>
      </trkpt>
      <trkpt lat="44.9005" lon="5.62811">
        <ele>864.1</ele>
        <time>2023-08-03T10:03:19Z</time>
      </trkpt>
      <trkpt lat="44.90064" lon="5.62823">
        <ele>865</ele>
        <time>2023-08-03T10:03:23Z</time>
      </trkpt>
      <trkpt lat="44.90068" lon="5.62826">
        <ele>865.3</ele>
        <time>2023-08-03T10:03:24Z</time>
      </trkpt>
      <trkpt lat="44.90083" lon="5.62844">
        <ele>866.6</ele>
        <time>2023-08-03T10:03:29Z</time>
      </trkpt>
      <trkpt lat="44.90086" lon="5.62847">
        <ele>866.9</ele>
        <time>2023-08-03T10:03:30Z</time>
      </trkpt>
      <trkpt lat="44.90094" lon="5.62853">
        <ele>867.4</ele>
        <time>2023-08-03T10:03:32Z</time>
      </trkpt>
      <trkpt lat="44.90102" lon="5.62856">
        <ele>867.9</ele>
        <time>2023-08-03T10:03:34Z</time>
      </trkpt>
      <trkpt lat="44.90106" lon="5.62856">
        <ele>868.1</ele>
        <time>2023-08-03T10:03:35Z</time>
      </trkpt>
      <trkpt lat="44.90118" lon="5.62853">
        <ele>868.9</ele>
        <time>2023-08-03T10:03:38Z</time>
      </trkpt>
      <trkpt lat="44.90125" lon="5.62848">
        <ele>869.3</ele>
        <time>2023-08-03T10:03:40Z</time>
      </trkpt>
      <trkpt lat="44.90133" lon="5.62843">
        <ele>869.8</ele>
        <time>2023-08-03T10:03:42Z</time>
      </trkpt>
      <trkpt lat="44.90144" lon="5.62838">
        <ele>870.4</ele>
        <time>2023-08-03T10:03:45Z</time>
      </trkpt>
      <trkpt lat="44.90152" lon="5.62835">
        <ele>870.8</ele>
        <time>2023-08-03T10:03:47Z</time>
      </trkpt>
      <trkpt lat="44.9016" lon="5.62835">
        <ele>871.3</ele>
        <time>2023-08-03T10:03:49Z</time>
      </trkpt>
      <trkpt lat="44.90164" lon="5.62837">
        <ele>871.5</ele>
        <time>2023-08-03T10:03:50Z</time>
      </trkpt>
      <trkpt lat="44.90168" lon="5.6284">
        <ele>871.7</ele>
        <time>2023-08-03T10:03:51Z</time>
      </trkpt>
      <trkpt lat="44.90183" lon="5.62851">
        <ele>872.8</ele>
        <time>2023-08-03T10:03:55Z</time>
      </trkpt>
      <trkpt lat="44.90186" lon="5.62854">
        <ele>873</ele>
        <time>2023-08-03T10:03:56Z</time>
      </trkpt>
      <trkpt lat="44.90204" lon="5.62867">
        <ele>874.4</ele>
        <time>2023-08-03T10:04:01Z</time>
      </trkpt>
      <trkpt lat="44.90206" lon="5.62869">
        <ele>874.5</ele>
        <time>2023-08-03T10:04:02Z</time>
      </trkpt>
      <trkpt lat="44.90209" lon="5.62869">
        <ele>874.7</ele>
        <time>2023-08-03T10:04:03Z</time>
      </trkpt>
      <trkpt lat="44.90215" lon="5.62871">
        <ele>875.1</ele>
        <time>2023-08-03T10:04:05Z</time>
      </trkpt>
      <trkpt lat="44.90219" lon="5.62872">
        <ele>875.3</ele>
        <time>2023-08-03T10:04:06Z</time>
      </trkpt>
      <trkpt lat="44.90224" lon="5.62872">
        <ele>875.6</ele>
        <time>2023-08-03T10:04:07Z</time>
      </trkpt>
      <trkpt lat="44.90228" lon="5.62872">
        <ele>875.8</ele>
        <time>2023-08-03T10:04:08Z</time>
      </trkpt>
      <trkpt lat="44.90236" lon="5.62872">
        <ele>876.3</ele>
        <time>2023-08-03T10:04:10Z</time>
      </trkpt>
      <trkpt lat="44.90246" lon="5.62868">
        <ele>876.8</ele>
        <time>2023-08-03T10:04:12Z</time>
      </trkpt>
      <trkpt lat="44.90259" lon="5.62864">
        <ele>877.6</ele>
        <time>2023-08-03T10:04:15Z</time>
      </trkpt>
      <trkpt lat="44.90267" lon="5.62864">
        <ele>878.1</ele>
        <time>2023-08-03T10:04:17Z</time>
      </trkpt>
      <trkpt lat="44.90271" lon="5.62866">
        <ele>878.4</ele>
        <time>2023-08-03T10:04:18Z</time>
      </trkpt>
      <trkpt lat="44.90278" lon="5.62872">
        <ele>878.9</ele>
        <time>2023-08-03T10:04:20Z</time>
      </trkpt>
      <trkpt lat="44.90285" lon="5.6288">
        <ele>879.5</ele>
        <time>2023-08-03T10:04:22Z</time>
      </trkpt>
      <trkpt lat="44.90288" lon="5.62884">
        <ele>879.8</ele>
        <time>2023-08-03T10:04:23Z</time>
      </trkpt>
      <trkpt lat="44.90293" lon="5.62885">
        <ele>880</ele>
        <time>2023-08-03T10:04:24Z</time>
      </trkpt>
      <trkpt lat="44.90302" lon="5.62886">
        <ele>880.6</ele>
        <time>2023-08-03T10:04:26Z</time>
      </trkpt>
      <trkpt lat="44.90314" lon="5.62884">
        <ele>881.2</ele>
        <time>2023-08-03T10:04:29Z</time>
      </trkpt>
      <trkpt lat="44.90323" lon="5.62882">
        <ele>881.7</ele>
        <time>2023-08-03T10:04:31Z</time>
      </trkpt>
      <trkpt lat="44.90327" lon="5.6288">
        <ele>881.9</ele>
        <time>2023-08-03T10:04:32Z</time>
      </trkpt>
      <trkpt lat="44.90331" lon="5.62876">
        <ele>882.1</ele>
        <time>2023-08-03T10:04:33Z</time>
      </trkpt>
      <trkpt lat="44.90335" lon="5.62871">
        <ele>882.4</ele>
        <time>2023-08-03T10:04:34Z</time>
      </trkpt>
      <trkpt lat="44.90342" lon="5.62861">
        <ele>882.9</ele>
        <time>2023-08-03T10:04:36Z</time>
      </trkpt>
      <trkpt lat="44.90346" lon="5.62856">
        <ele>883.2</ele>
        <time>2023-08-03T10:04:37Z</time>
      </trkpt>
      <trkpt lat="44.90349" lon="5.62853">
        <ele>883.4</ele>
        <time>2023-08-03T10:04:38Z</time>
      </trkpt>
      <trkpt lat="44.90356" lon="5.62849">
        <ele>883.8</ele>
        <time>2023-08-03T10:04:40Z</time>
      </trkpt>
      <trkpt lat="44.90359" lon="5.62846">
        <ele>884</ele>
        <time>2023-08-03T10:04:41Z</time>
      </trkpt>
      <trkpt lat="44.90361" lon="5.62842">
        <ele>884.2</ele>
        <time>2023-08-03T10:04:42Z</time>
      </trkpt>
      <trkpt lat="44.90364" lon="5.62836">
        <ele>884.4</ele>
        <time>2023-08-03T10:04:43Z</time>
      </trkpt>
      <trkpt lat="44.90367" lon="5.62831">
        <ele>884.6</ele>
        <time>2023-08-03T10:04:44Z</time>
      </trkpt>
      <trkpt lat="44.90374" lon="5.62817">
        <ele>885.3</ele>
        <time>2023-08-03T10:04:47Z</time>
      </trkpt>
      <trkpt lat="44.90377" lon="5.62812">
        <ele>885.5</ele>
        <time>2023-08-03T10:04:48Z</time>
      </trkpt>
      <trkpt lat="44.90384" lon="5.62798">
        <ele>886.2</ele>
        <time>2023-08-03T10:04:51Z</time>
      </trkpt>
      <trkpt lat="44.90387" lon="5.62793">
        <ele>886.4</ele>
        <time>2023-08-03T10:04:52Z</time>
      </trkpt>
      <trkpt lat="44.90389" lon="5.62788">
        <ele>886.6</ele>
        <time>2023-08-03T10:04:53Z</time>
      </trkpt>
      <trkpt lat="44.90394" lon="5.6278">
        <ele>887.1</ele>
        <time>2023-08-03T10:04:55Z</time>
      </trkpt>
      <trkpt lat="44.90397" lon="5.62776">
        <ele>887.3</ele>
        <time>2023-08-03T10:04:56Z</time>
      </trkpt>
      <trkpt lat="44.90403" lon="5.62767">
        <ele>887.8</ele>
        <time>2023-08-03T10:04:58Z</time>
      </trkpt>
      <trkpt lat="44.90407" lon="5.62764">
        <ele>888</ele>
        <time>2023-08-03T10:04:59Z</time>
      </trkpt>
      <trkpt lat="44.90421" lon="5.62751">
        <ele>889</ele>
        <time>2023-08-03T10:05:03Z</time>
      </trkpt>
      <trkpt lat="44.90437" lon="5.62741">
        <ele>889.9</ele>
        <time>2023-08-03T10:05:07Z</time>
      </trkpt>
      <trkpt lat="44.90455" lon="5.62729">
        <ele>891.1</ele>
        <time>2023-08-03T10:05:12Z</time>
      </trkpt>
      <trkpt lat="44.90462" lon="5.62722">
        <ele>891.5</ele>
        <time>2023-08-03T10:05:14Z</time>
      </trkpt>
      <trkpt lat="44.90469" lon="5.62715">
        <ele>892</ele>
        <time>2023-08-03T10:05:16Z</time>
      </trkpt>
      <trkpt lat="44.90472" lon="5.62711">
        <ele>892.2</ele>
        <time>2023-08-03T10:05:17Z</time>
      </trkpt>
      <trkpt lat="44.90487" lon="5.62689">
        <ele>893.2</ele>
        <time>2023-08-03T10:05:22Z</time>
      </trkpt>
      <trkpt lat="44.9049" lon="5.62685">
        <ele>893.5</ele>
        <time>2023-08-03T10:05:23Z</time>
      </trkpt>
      <trkpt lat="44.90504" lon="5.62664">
        <ele>894.6</ele>
        <time>2023-08-03T10:05:28Z</time>
      </trkpt>
      <trkpt lat="44.90509" lon="5.62656">
        <ele>895.1</ele>
        <time>2023-08-03T10:05:30Z</time>
      </trkpt>
      <trkpt lat="44.90519" lon="5.62646">
        <ele>895.5</ele>
        <time>2023-08-03T10:05:33Z</time>
      </trkpt>
      <trkpt lat="44.90532" lon="5.62632">
        <ele>896.6</ele>
        <time>2023-08-03T10:05:37Z</time>
      </trkpt>
      <trkpt lat="44.90536" lon="5.62629">
        <ele>896.9</ele>
        <time>2023-08-03T10:05:38Z</time>
      </trkpt>
      <trkpt lat="44.90546" lon="5.62623">
        <ele>897.6</ele>
        <time>2023-08-03T10:05:41Z</time>
      </trkpt>
      <trkpt lat="44.90557" lon="5.62621">
        <ele>898.2</ele>
        <time>2023-08-03T10:05:44Z</time>
      </trkpt>
      <trkpt lat="44.90568" lon="5.6262">
        <ele>898.5</ele>
        <time>2023-08-03T10:05:47Z</time>
      </trkpt>
      <trkpt lat="44.90577" lon="5.62618">
        <ele>898.7</ele>
        <time>2023-08-03T10:05:50Z</time>
      </trkpt>
      <trkpt lat="44.9058" lon="5.62614">
        <ele>898.8</ele>
        <time>2023-08-03T10:05:52Z</time>
      </trkpt>
      <trkpt lat="44.90579" lon="5.62612">
        <ele>898.8</ele>
        <time>2023-08-03T10:05:53Z</time>
      </trkpt>
      <trkpt lat="44.90571" lon="5.62604">
        <ele>899</ele>
        <time>2023-08-03T10:05:56Z</time>
      </trkpt>
      <trkpt lat="44.90568" lon="5.62602">
        <ele>899</ele>
        <time>2023-08-03T10:05:57Z</time>
      </trkpt>
      <trkpt lat="44.90566" lon="5.62603">
        <ele>899.1</ele>
        <time>2023-08-03T10:05:58Z</time>
      </trkpt>
      <trkpt lat="44.90564" lon="5.62604">
        <ele>899.1</ele>
        <time>2023-08-03T10:05:59Z</time>
      </trkpt>
      <trkpt lat="44.90562" lon="5.6261">
        <ele>899.1</ele>
        <time>2023-08-03T10:06:01Z</time>
      </trkpt>
      <trkpt lat="44.90566" lon="5.62621">
        <ele>899.2</ele>
        <time>2023-08-03T10:06:04Z</time>
      </trkpt>
      <trkpt lat="44.9057" lon="5.62622">
        <ele>899.2</ele>
        <time>2023-08-03T10:06:05Z</time>
      </trkpt>
      <trkpt lat="44.90581" lon="5.6262">
        <ele>899.3</ele>
        <time>2023-08-03T10:06:09Z</time>
      </trkpt>
      <trkpt lat="44.90598" lon="5.62629">
        <ele>899.1</ele>
        <time>2023-08-03T10:06:15Z</time>
      </trkpt>
      <trkpt lat="44.90614" lon="5.62636">
        <ele>898.8</ele>
        <time>2023-08-03T10:06:21Z</time>
      </trkpt>
      <trkpt lat="44.90638" lon="5.62649">
        <ele>897.9</ele>
        <time>2023-08-03T10:06:29Z</time>
      </trkpt>
      <trkpt lat="44.90642" lon="5.62651">
        <ele>897.8</ele>
        <time>2023-08-03T10:06:30Z</time>
      </trkpt>
      <trkpt lat="44.90658" lon="5.62661">
        <ele>896.9</ele>
        <time>2023-08-03T10:06:34Z</time>
      </trkpt>
      <trkpt lat="44.90663" lon="5.62664">
        <ele>896.7</ele>
        <time>2023-08-03T10:06:35Z</time>
      </trkpt>
      <trkpt lat="44.90684" lon="5.62684">
        <ele>895.3</ele>
        <time>2023-08-03T10:06:40Z</time>
      </trkpt>
      <trkpt lat="44.90698" lon="5.62702">
        <ele>894.1</ele>
        <time>2023-08-03T10:06:43Z</time>
      </trkpt>
      <trkpt lat="44.90708" lon="5.62716">
        <ele>893.2</ele>
        <time>2023-08-03T10:06:45Z</time>
      </trkpt>
      <trkpt lat="44.90713" lon="5.62724">
        <ele>892.8</ele>
        <time>2023-08-03T10:06:46Z</time>
      </trkpt>
      <trkpt lat="44.90725" lon="5.62753">
        <ele>891.3</ele>
        <time>2023-08-03T10:06:49Z</time>
      </trkpt>
      <trkpt lat="44.90739" lon="5.62781">
        <ele>890</ele>
        <time>2023-08-03T10:06:52Z</time>
      </trkpt>
      <trkpt lat="44.90752" lon="5.62795">
        <ele>889.1</ele>
        <time>2023-08-03T10:06:54Z</time>
      </trkpt>
      <trkpt lat="44.90768" lon="5.62805">
        <ele>888</ele>
        <time>2023-08-03T10:06:57Z</time>
      </trkpt>
      <trkpt lat="44.90771" lon="5.62812">
        <ele>886.9</ele>
        <time>2023-08-03T10:06:58Z</time>
      </trkpt>
      <trkpt lat="44.90773" lon="5.6282">
        <ele>886.3</ele>
        <time>2023-08-03T10:06:59Z</time>
      </trkpt>
      <trkpt lat="44.90775" lon="5.62839">
        <ele>885</ele>
        <time>2023-08-03T10:07:01Z</time>
      </trkpt>
      <trkpt lat="44.90776" lon="5.62849">
        <ele>884.4</ele>
        <time>2023-08-03T10:07:02Z</time>
      </trkpt>
      <trkpt lat="44.9079" lon="5.6289">
        <ele>881.4</ele>
        <time>2023-08-03T10:07:06Z</time>
      </trkpt>
      <trkpt lat="44.90815" lon="5.62944">
        <ele>877.3</ele>
        <time>2023-08-03T10:07:11Z</time>
      </trkpt>
      <trkpt lat="44.90828" lon="5.62966">
        <ele>876</ele>
        <time>2023-08-03T10:07:13Z</time>
      </trkpt>
      <trkpt lat="44.90843" lon="5.62987">
        <ele>874.9</ele>
        <time>2023-08-03T10:07:15Z</time>
      </trkpt>
      <trkpt lat="44.9087" lon="5.63016">
        <ele>872.8</ele>
        <time>2023-08-03T10:07:18Z</time>
      </trkpt>
      <trkpt lat="44.90879" lon="5.63025">
        <ele>871.8</ele>
        <time>2023-08-03T10:07:19Z</time>
      </trkpt>
      <trkpt lat="44.90932" lon="5.63062">
        <ele>866.6</ele>
        <time>2023-08-03T10:07:24Z</time>
      </trkpt>
      <trkpt lat="44.90981" lon="5.63089">
        <ele>861.6</ele>
        <time>2023-08-03T10:07:29Z</time>
      </trkpt>
      <trkpt lat="44.91" lon="5.63099">
        <ele>859.6</ele>
        <time>2023-08-03T10:07:31Z</time>
      </trkpt>
      <trkpt lat="44.91054" lon="5.63127">
        <ele>854.8</ele>
        <time>2023-08-03T10:07:36Z</time>
      </trkpt>
      <trkpt lat="44.91087" lon="5.63146">
        <ele>852.5</ele>
        <time>2023-08-03T10:07:39Z</time>
      </trkpt>
      <trkpt lat="44.91133" lon="5.63169">
        <ele>849.9</ele>
        <time>2023-08-03T10:07:43Z</time>
      </trkpt>
      <trkpt lat="44.91189" lon="5.63198">
        <ele>848.2</ele>
        <time>2023-08-03T10:07:48Z</time>
      </trkpt>
      <trkpt lat="44.9121" lon="5.63212">
        <ele>847.8</ele>
        <time>2023-08-03T10:07:50Z</time>
      </trkpt>
      <trkpt lat="44.91262" lon="5.63239">
        <ele>846.4</ele>
        <time>2023-08-03T10:07:55Z</time>
      </trkpt>
      <trkpt lat="44.91288" lon="5.63254">
        <ele>846.1</ele>
        <time>2023-08-03T10:07:58Z</time>
      </trkpt>
      <trkpt lat="44.91295" lon="5.6326">
        <ele>846.1</ele>
        <time>2023-08-03T10:07:59Z</time>
      </trkpt>
      <trkpt lat="44.91302" lon="5.63266">
        <ele>845.9</ele>
        <time>2023-08-03T10:08:00Z</time>
      </trkpt>
      <trkpt lat="44.91317" lon="5.63274">
        <ele>845.2</ele>
        <time>2023-08-03T10:08:02Z</time>
      </trkpt>
      <trkpt lat="44.91358" lon="5.63294">
        <ele>842.7</ele>
        <time>2023-08-03T10:08:07Z</time>
      </trkpt>
      <trkpt lat="44.91405" lon="5.63319">
        <ele>840.2</ele>
        <time>2023-08-03T10:08:13Z</time>
      </trkpt>
      <trkpt lat="44.91422" lon="5.63328">
        <ele>839.5</ele>
        <time>2023-08-03T10:08:15Z</time>
      </trkpt>
      <trkpt lat="44.91473" lon="5.63356">
        <ele>836.1</ele>
        <time>2023-08-03T10:08:21Z</time>
      </trkpt>
      <trkpt lat="44.91491" lon="5.63365">
        <ele>834.7</ele>
        <time>2023-08-03T10:08:23Z</time>
      </trkpt>
      <trkpt lat="44.91548" lon="5.63395">
        <ele>830.6</ele>
        <time>2023-08-03T10:08:29Z</time>
      </trkpt>
      <trkpt lat="44.91558" lon="5.634">
        <ele>830.4</ele>
        <time>2023-08-03T10:08:30Z</time>
      </trkpt>
      <trkpt lat="44.91587" lon="5.63413">
        <ele>828.3</ele>
        <time>2023-08-03T10:08:33Z</time>
      </trkpt>
      <trkpt lat="44.91602" lon="5.63416">
        <ele>827.6</ele>
        <time>2023-08-03T10:08:35Z</time>
      </trkpt>
      <trkpt lat="44.91619" lon="5.63408">
        <ele>827.6</ele>
        <time>2023-08-03T10:08:37Z</time>
      </trkpt>
      <trkpt lat="44.91627" lon="5.63401">
        <ele>827.1</ele>
        <time>2023-08-03T10:08:38Z</time>
      </trkpt>
      <trkpt lat="44.91634" lon="5.63394">
        <ele>826.7</ele>
        <time>2023-08-03T10:08:39Z</time>
      </trkpt>
      <trkpt lat="44.91653" lon="5.63369">
        <ele>825.9</ele>
        <time>2023-08-03T10:08:42Z</time>
      </trkpt>
      <trkpt lat="44.91695" lon="5.63317">
        <ele>824.9</ele>
        <time>2023-08-03T10:08:49Z</time>
      </trkpt>
      <trkpt lat="44.9171" lon="5.63308">
        <ele>824.6</ele>
        <time>2023-08-03T10:08:51Z</time>
      </trkpt>
      <trkpt lat="44.9172" lon="5.63305">
        <ele>824.3</ele>
        <time>2023-08-03T10:08:52Z</time>
      </trkpt>
      <trkpt lat="44.91745" lon="5.63304">
        <ele>823.7</ele>
        <time>2023-08-03T10:08:55Z</time>
      </trkpt>
      <trkpt lat="44.91754" lon="5.63306">
        <ele>823.4</ele>
        <time>2023-08-03T10:08:56Z</time>
      </trkpt>
      <trkpt lat="44.91771" lon="5.63314">
        <ele>822.9</ele>
        <time>2023-08-03T10:08:58Z</time>
      </trkpt>
      <trkpt lat="44.91779" lon="5.63319">
        <ele>822.6</ele>
        <time>2023-08-03T10:08:59Z</time>
      </trkpt>
      <trkpt lat="44.91786" lon="5.63325">
        <ele>822.2</ele>
        <time>2023-08-03T10:09:00Z</time>
      </trkpt>
      <trkpt lat="44.91836" lon="5.63377">
        <ele>818.9</ele>
        <time>2023-08-03T10:09:07Z</time>
      </trkpt>
      <trkpt lat="44.91883" lon="5.63425">
        <ele>814.5</ele>
        <time>2023-08-03T10:09:13Z</time>
      </trkpt>
      <trkpt lat="44.91909" lon="5.63451">
        <ele>812.3</ele>
        <time>2023-08-03T10:09:16Z</time>
      </trkpt>
      <trkpt lat="44.91929" lon="5.63463">
        <ele>810.9</ele>
        <time>2023-08-03T10:09:18Z</time>
      </trkpt>
      <trkpt lat="44.91949" lon="5.63469">
        <ele>809.8</ele>
        <time>2023-08-03T10:09:20Z</time>
      </trkpt>
      <trkpt lat="44.91973" lon="5.63471">
        <ele>808.7</ele>
        <time>2023-08-03T10:09:22Z</time>
      </trkpt>
      <trkpt lat="44.92027" lon="5.63482">
        <ele>806.6</ele>
        <time>2023-08-03T10:09:27Z</time>
      </trkpt>
      <trkpt lat="44.92056" lon="5.63501">
        <ele>805.6</ele>
        <time>2023-08-03T10:09:30Z</time>
      </trkpt>
      <trkpt lat="44.92064" lon="5.63509">
        <ele>805.3</ele>
        <time>2023-08-03T10:09:31Z</time>
      </trkpt>
      <trkpt lat="44.9208" lon="5.63528">
        <ele>804.8</ele>
        <time>2023-08-03T10:09:33Z</time>
      </trkpt>
      <trkpt lat="44.92093" lon="5.63552">
        <ele>804.4</ele>
        <time>2023-08-03T10:09:35Z</time>
      </trkpt>
      <trkpt lat="44.92108" lon="5.63602">
        <ele>804.4</ele>
        <time>2023-08-03T10:09:39Z</time>
      </trkpt>
      <trkpt lat="44.92107" lon="5.63635">
        <ele>805.2</ele>
        <time>2023-08-03T10:09:42Z</time>
      </trkpt>
      <trkpt lat="44.92115" lon="5.63648">
        <ele>805.3</ele>
        <time>2023-08-03T10:09:44Z</time>
      </trkpt>
      <trkpt lat="44.92138" lon="5.6366">
        <ele>805.2</ele>
        <time>2023-08-03T10:09:48Z</time>
      </trkpt>
      <trkpt lat="44.9218" lon="5.63673">
        <ele>805.2</ele>
        <time>2023-08-03T10:09:55Z</time>
      </trkpt>
      <trkpt lat="44.92222" lon="5.63686">
        <ele>805.1</ele>
        <time>2023-08-03T10:10:02Z</time>
      </trkpt>
      <trkpt lat="44.92259" lon="5.637">
        <ele>804.9</ele>
        <time>2023-08-03T10:10:08Z</time>
      </trkpt>
      <trkpt lat="44.92265" lon="5.63702">
        <ele>804.9</ele>
        <time>2023-08-03T10:10:09Z</time>
      </trkpt>
      <trkpt lat="44.92309" lon="5.63717">
        <ele>804.5</ele>
        <time>2023-08-03T10:10:16Z</time>
      </trkpt>
      <trkpt lat="44.92348" lon="5.6373">
        <ele>804</ele>
        <time>2023-08-03T10:10:22Z</time>
      </trkpt>
      <trkpt lat="44.92368" lon="5.63738">
        <ele>803.8</ele>
        <time>2023-08-03T10:10:25Z</time>
      </trkpt>
      <trkpt lat="44.92397" lon="5.63747">
        <ele>803.4</ele>
        <time>2023-08-03T10:10:29Z</time>
      </trkpt>
      <trkpt lat="44.92418" lon="5.63753">
        <ele>803</ele>
        <time>2023-08-03T10:10:32Z</time>
      </trkpt>
      <trkpt lat="44.92443" lon="5.63761">
        <ele>802.6</ele>
        <time>2023-08-03T10:10:35Z</time>
      </trkpt>
      <trkpt lat="44.92481" lon="5.63773">
        <ele>801.8</ele>
        <time>2023-08-03T10:10:40Z</time>
      </trkpt>
      <trkpt lat="44.92519" lon="5.63786">
        <ele>801</ele>
        <time>2023-08-03T10:10:45Z</time>
      </trkpt>
      <trkpt lat="44.92558" lon="5.63799">
        <ele>800.2</ele>
        <time>2023-08-03T10:10:50Z</time>
      </trkpt>
      <trkpt lat="44.92572" lon="5.63804">
        <ele>800.2</ele>
        <time>2023-08-03T10:10:52Z</time>
      </trkpt>
      <trkpt lat="44.92586" lon="5.63811">
        <ele>800</ele>
        <time>2023-08-03T10:10:54Z</time>
      </trkpt>
      <trkpt lat="44.92599" lon="5.63812">
        <ele>799.7</ele>
        <time>2023-08-03T10:10:56Z</time>
      </trkpt>
      <trkpt lat="44.92605" lon="5.6381">
        <ele>799.5</ele>
        <time>2023-08-03T10:10:57Z</time>
      </trkpt>
      <trkpt lat="44.92612" lon="5.6381">
        <ele>799.2</ele>
        <time>2023-08-03T10:10:58Z</time>
      </trkpt>
      <trkpt lat="44.92624" lon="5.63814">
        <ele>798.7</ele>
        <time>2023-08-03T10:11:00Z</time>
      </trkpt>
      <trkpt lat="44.92657" lon="5.6383">
        <ele>797.9</ele>
        <time>2023-08-03T10:11:05Z</time>
      </trkpt>
      <trkpt lat="44.92678" lon="5.63841">
        <ele>797.3</ele>
        <time>2023-08-03T10:11:08Z</time>
      </trkpt>
      <trkpt lat="44.92706" lon="5.63851">
        <ele>796.7</ele>
        <time>2023-08-03T10:11:12Z</time>
      </trkpt>
      <trkpt lat="44.92732" lon="5.63859">
        <ele>795.9</ele>
        <time>2023-08-03T10:11:16Z</time>
      </trkpt>
      <trkpt lat="44.92745" lon="5.63864">
        <ele>795.6</ele>
        <time>2023-08-03T10:11:18Z</time>
      </trkpt>
      <trkpt lat="44.92768" lon="5.63871">
        <ele>795</ele>
        <time>2023-08-03T10:11:22Z</time>
      </trkpt>
      <trkpt lat="44.92787" lon="5.63879">
        <ele>794.4</ele>
        <time>2023-08-03T10:11:25Z</time>
      </trkpt>
      <trkpt lat="44.92814" lon="5.63889">
        <ele>793.7</ele>
        <time>2023-08-03T10:11:29Z</time>
      </trkpt>
      <trkpt lat="44.9285" lon="5.63904">
        <ele>792.8</ele>
        <time>2023-08-03T10:11:34Z</time>
      </trkpt>
      <trkpt lat="44.92864" lon="5.63913">
        <ele>792.4</ele>
        <time>2023-08-03T10:11:36Z</time>
      </trkpt>
      <trkpt lat="44.92877" lon="5.63921">
        <ele>792.1</ele>
        <time>2023-08-03T10:11:38Z</time>
      </trkpt>
      <trkpt lat="44.92905" lon="5.63935">
        <ele>792.2</ele>
        <time>2023-08-03T10:11:42Z</time>
      </trkpt>
      <trkpt lat="44.92911" lon="5.6394">
        <ele>792.3</ele>
        <time>2023-08-03T10:11:43Z</time>
      </trkpt>
      <trkpt lat="44.92922" lon="5.63949">
        <ele>792.3</ele>
        <time>2023-08-03T10:11:45Z</time>
      </trkpt>
      <trkpt lat="44.92928" lon="5.63951">
        <ele>792.2</ele>
        <time>2023-08-03T10:11:46Z</time>
      </trkpt>
      <trkpt lat="44.92933" lon="5.63948">
        <ele>792.1</ele>
        <time>2023-08-03T10:11:47Z</time>
      </trkpt>
      <trkpt lat="44.92936" lon="5.63942">
        <ele>791.7</ele>
        <time>2023-08-03T10:11:48Z</time>
      </trkpt>
      <trkpt lat="44.92935" lon="5.63936">
        <ele>791.2</ele>
        <time>2023-08-03T10:11:49Z</time>
      </trkpt>
      <trkpt lat="44.92932" lon="5.63931">
        <ele>790.6</ele>
        <time>2023-08-03T10:11:50Z</time>
      </trkpt>
      <trkpt lat="44.92927" lon="5.63928">
        <ele>790.7</ele>
        <time>2023-08-03T10:11:51Z</time>
      </trkpt>
      <trkpt lat="44.92916" lon="5.63927">
        <ele>790.9</ele>
        <time>2023-08-03T10:11:53Z</time>
      </trkpt>
      <trkpt lat="44.92898" lon="5.63925">
        <ele>791.5</ele>
        <time>2023-08-03T10:11:56Z</time>
      </trkpt>
      <trkpt lat="44.92886" lon="5.6392">
        <ele>791.9</ele>
        <time>2023-08-03T10:11:58Z</time>
      </trkpt>
      <trkpt lat="44.92851" lon="5.63898">
        <ele>792.8</ele>
        <time>2023-08-03T10:12:04Z</time>
      </trkpt>
      <trkpt lat="44.92832" lon="5.63889">
        <ele>793.3</ele>
        <time>2023-08-03T10:12:07Z</time>
      </trkpt>
      <trkpt lat="44.9282" lon="5.63883">
        <ele>793.6</ele>
        <time>2023-08-03T10:12:09Z</time>
      </trkpt>
      <trkpt lat="44.92814" lon="5.63881">
        <ele>793.7</ele>
        <time>2023-08-03T10:12:10Z</time>
      </trkpt>
      <trkpt lat="44.92795" lon="5.63874">
        <ele>794.2</ele>
        <time>2023-08-03T10:12:13Z</time>
      </trkpt>
      <trkpt lat="44.9277" lon="5.63866">
        <ele>795</ele>
        <time>2023-08-03T10:12:17Z</time>
      </trkpt>
      <trkpt lat="44.92756" lon="5.63861">
        <ele>795.3</ele>
        <time>2023-08-03T10:12:19Z</time>
      </trkpt>
      <trkpt lat="44.92732" lon="5.63853">
        <ele>796</ele>
        <time>2023-08-03T10:12:23Z</time>
      </trkpt>
      <trkpt lat="44.92712" lon="5.63847">
        <ele>796.5</ele>
        <time>2023-08-03T10:12:26Z</time>
      </trkpt>
      <trkpt lat="44.92706" lon="5.63845">
        <ele>796.7</ele>
        <time>2023-08-03T10:12:27Z</time>
      </trkpt>
      <trkpt lat="44.92675" lon="5.63833">
        <ele>797.4</ele>
        <time>2023-08-03T10:12:32Z</time>
      </trkpt>
      <trkpt lat="44.92663" lon="5.63828">
        <ele>797.7</ele>
        <time>2023-08-03T10:12:34Z</time>
      </trkpt>
      <trkpt lat="44.92637" lon="5.63814">
        <ele>798.4</ele>
        <time>2023-08-03T10:12:38Z</time>
      </trkpt>
      <trkpt lat="44.92619" lon="5.63805">
        <ele>798.8</ele>
        <time>2023-08-03T10:12:41Z</time>
      </trkpt>
      <trkpt lat="44.92613" lon="5.63803">
        <ele>798.9</ele>
        <time>2023-08-03T10:12:42Z</time>
      </trkpt>
      <trkpt lat="44.92601" lon="5.63798">
        <ele>798.8</ele>
        <time>2023-08-03T10:12:44Z</time>
      </trkpt>
      <trkpt lat="44.92589" lon="5.63792">
        <ele>799.2</ele>
        <time>2023-08-03T10:12:46Z</time>
      </trkpt>
      <trkpt lat="44.9258" lon="5.63796">
        <ele>799.6</ele>
        <time>2023-08-03T10:12:48Z</time>
      </trkpt>
      <trkpt lat="44.9258" lon="5.63809">
        <ele>800.1</ele>
        <time>2023-08-03T10:12:50Z</time>
      </trkpt>
      <trkpt lat="44.92581" lon="5.63814">
        <ele>800.1</ele>
        <time>2023-08-03T10:12:51Z</time>
      </trkpt>
      <trkpt lat="44.92587" lon="5.63826">
        <ele>800</ele>
        <time>2023-08-03T10:12:53Z</time>
      </trkpt>
      <trkpt lat="44.92593" lon="5.6384">
        <ele>799.7</ele>
        <time>2023-08-03T10:12:54Z</time>
      </trkpt>
      <trkpt lat="44.92598" lon="5.63845">
        <ele>799.5</ele>
        <time>2023-08-03T10:12:55Z</time>
      </trkpt>
      <trkpt lat="44.92609" lon="5.63852">
        <ele>799.2</ele>
        <time>2023-08-03T10:12:57Z</time>
      </trkpt>
      <trkpt lat="44.92635" lon="5.63865">
        <ele>798.5</ele>
        <time>2023-08-03T10:13:01Z</time>
      </trkpt>
      <trkpt lat="44.92635" lon="5.63865">
        <ele>798.5</ele>
        <time>2023-08-03T10:13:02Z</time>
      </trkpt>
      <trkpt lat="44.92648" lon="5.63878">
        <ele>798.3</ele>
        <time>2023-08-03T10:13:03Z</time>
      </trkpt>
      <trkpt lat="44.92674" lon="5.63908">
        <ele>798.1</ele>
        <time>2023-08-03T10:13:08Z</time>
      </trkpt>
      <trkpt lat="44.9268" lon="5.63914">
        <ele>798</ele>
        <time>2023-08-03T10:13:09Z</time>
      </trkpt>
      <trkpt lat="44.92722" lon="5.63961">
        <ele>798.3</ele>
        <time>2023-08-03T10:13:17Z</time>
      </trkpt>
      <trkpt lat="44.92742" lon="5.63985">
        <ele>798.7</ele>
        <time>2023-08-03T10:13:21Z</time>
      </trkpt>
      <trkpt lat="44.9276" lon="5.64006">
        <ele>799.3</ele>
        <time>2023-08-03T10:13:25Z</time>
      </trkpt>
      <trkpt lat="44.92767" lon="5.64018">
        <ele>799.6</ele>
        <time>2023-08-03T10:13:27Z</time>
      </trkpt>
      <trkpt lat="44.92772" lon="5.64029">
        <ele>800</ele>
        <time>2023-08-03T10:13:29Z</time>
      </trkpt>
      <trkpt lat="44.92774" lon="5.64035">
        <ele>800.2</ele>
        <time>2023-08-03T10:13:30Z</time>
      </trkpt>
      <trkpt lat="44.92781" lon="5.64068">
        <ele>801.3</ele>
        <time>2023-08-03T10:13:36Z</time>
      </trkpt>
      <trkpt lat="44.92783" lon="5.64089">
        <ele>801.7</ele>
        <time>2023-08-03T10:13:40Z</time>
      </trkpt>
      <trkpt lat="44.92795" lon="5.64106">
        <ele>802.6</ele>
        <time>2023-08-03T10:13:45Z</time>
      </trkpt>
      <trkpt lat="44.92805" lon="5.64111">
        <ele>803.2</ele>
        <time>2023-08-03T10:13:48Z</time>
      </trkpt>
      <trkpt lat="44.92817" lon="5.64115">
        <ele>803.8</ele>
        <time>2023-08-03T10:13:51Z</time>
      </trkpt>
      <trkpt lat="44.92824" lon="5.64116">
        <ele>804</ele>
        <time>2023-08-03T10:13:53Z</time>
      </trkpt>
      <trkpt lat="44.92835" lon="5.64118">
        <ele>804.4</ele>
        <time>2023-08-03T10:13:56Z</time>
      </trkpt>
      <trkpt lat="44.92842" lon="5.6412">
        <ele>804.6</ele>
        <time>2023-08-03T10:13:58Z</time>
      </trkpt>
      <trkpt lat="44.92854" lon="5.64121">
        <ele>804.9</ele>
        <time>2023-08-03T10:14:01Z</time>
      </trkpt>
      <trkpt lat="44.92858" lon="5.64122">
        <ele>805</ele>
        <time>2023-08-03T10:14:02Z</time>
      </trkpt>
      <trkpt lat="44.92865" lon="5.64124">
        <ele>805.1</ele>
        <time>2023-08-03T10:14:04Z</time>
      </trkpt>
      <trkpt lat="44.92873" lon="5.64125">
        <ele>805.1</ele>
        <time>2023-08-03T10:14:06Z</time>
      </trkpt>
      <trkpt lat="44.92886" lon="5.64129">
        <ele>805</ele>
        <time>2023-08-03T10:14:09Z</time>
      </trkpt>
      <trkpt lat="44.92899" lon="5.64131">
        <ele>804.8</ele>
        <time>2023-08-03T10:14:12Z</time>
      </trkpt>
      <trkpt lat="44.92903" lon="5.64131">
        <ele>804.7</ele>
        <time>2023-08-03T10:14:13Z</time>
      </trkpt>
      <trkpt lat="44.92912" lon="5.64131">
        <ele>804.5</ele>
        <time>2023-08-03T10:14:15Z</time>
      </trkpt>
      <trkpt lat="44.92917" lon="5.64131">
        <ele>804.3</ele>
        <time>2023-08-03T10:14:16Z</time>
      </trkpt>
      <trkpt lat="44.9293" lon="5.64134">
        <ele>803.7</ele>
        <time>2023-08-03T10:14:19Z</time>
      </trkpt>
      <trkpt lat="44.92936" lon="5.64135">
        <ele>803.5</ele>
        <time>2023-08-03T10:14:20Z</time>
      </trkpt>
      <trkpt lat="44.9294" lon="5.64136">
        <ele>803.3</ele>
        <time>2023-08-03T10:14:21Z</time>
      </trkpt>
      <trkpt lat="44.92946" lon="5.64137">
        <ele>803</ele>
        <time>2023-08-03T10:14:22Z</time>
      </trkpt>
      <trkpt lat="44.92952" lon="5.64138">
        <ele>802.7</ele>
        <time>2023-08-03T10:14:23Z</time>
      </trkpt>
      <trkpt lat="44.92957" lon="5.64139">
        <ele>802.5</ele>
        <time>2023-08-03T10:14:24Z</time>
      </trkpt>
      <trkpt lat="44.92962" lon="5.64141">
        <ele>802.2</ele>
        <time>2023-08-03T10:14:25Z</time>
      </trkpt>
      <trkpt lat="44.92968" lon="5.64143">
        <ele>802</ele>
        <time>2023-08-03T10:14:26Z</time>
      </trkpt>
      <trkpt lat="44.92986" lon="5.64148">
        <ele>801.3</ele>
        <time>2023-08-03T10:14:29Z</time>
      </trkpt>
      <trkpt lat="44.92998" lon="5.64149">
        <ele>801.1</ele>
        <time>2023-08-03T10:14:31Z</time>
      </trkpt>
      <trkpt lat="44.93003" lon="5.6415">
        <ele>801.1</ele>
        <time>2023-08-03T10:14:32Z</time>
      </trkpt>
      <trkpt lat="44.93017" lon="5.64152">
        <ele>801.2</ele>
        <time>2023-08-03T10:14:35Z</time>
      </trkpt>
      <trkpt lat="44.93021" lon="5.64152">
        <ele>801.3</ele>
        <time>2023-08-03T10:14:36Z</time>
      </trkpt>
      <trkpt lat="44.93024" lon="5.64152">
        <ele>801.5</ele>
        <time>2023-08-03T10:14:37Z</time>
      </trkpt>
      <trkpt lat="44.93028" lon="5.64153">
        <ele>801.7</ele>
        <time>2023-08-03T10:14:38Z</time>
      </trkpt>
      <trkpt lat="44.93033" lon="5.64154">
        <ele>801.9</ele>
        <time>2023-08-03T10:14:39Z</time>
      </trkpt>
      <trkpt lat="44.93038" lon="5.64153">
        <ele>802.2</ele>
        <time>2023-08-03T10:14:40Z</time>
      </trkpt>
      <trkpt lat="44.93044" lon="5.64153">
        <ele>802.5</ele>
        <time>2023-08-03T10:14:41Z</time>
      </trkpt>
      <trkpt lat="44.93048" lon="5.64153">
        <ele>802.8</ele>
        <time>2023-08-03T10:14:42Z</time>
      </trkpt>
      <trkpt lat="44.93057" lon="5.64152">
        <ele>803.4</ele>
        <time>2023-08-03T10:14:44Z</time>
      </trkpt>
      <trkpt lat="44.93064" lon="5.64153">
        <ele>804</ele>
        <time>2023-08-03T10:14:46Z</time>
      </trkpt>
      <trkpt lat="44.93068" lon="5.64153">
        <ele>804.3</ele>
        <time>2023-08-03T10:14:47Z</time>
      </trkpt>
      <trkpt lat="44.93072" lon="5.64153">
        <ele>804.6</ele>
        <time>2023-08-03T10:14:48Z</time>
      </trkpt>
      <trkpt lat="44.93081" lon="5.64152">
        <ele>805.3</ele>
        <time>2023-08-03T10:14:50Z</time>
      </trkpt>
      <trkpt lat="44.9309" lon="5.64148">
        <ele>806.1</ele>
        <time>2023-08-03T10:14:52Z</time>
      </trkpt>
      <trkpt lat="44.93094" lon="5.64146">
        <ele>806.5</ele>
        <time>2023-08-03T10:14:53Z</time>
      </trkpt>
      <trkpt lat="44.93098" lon="5.64145">
        <ele>806.8</ele>
        <time>2023-08-03T10:14:54Z</time>
      </trkpt>
      <trkpt lat="44.93102" lon="5.64145">
        <ele>807.1</ele>
        <time>2023-08-03T10:14:55Z</time>
      </trkpt>
      <trkpt lat="44.9311" lon="5.64148">
        <ele>807.8</ele>
        <time>2023-08-03T10:14:57Z</time>
      </trkpt>
      <trkpt lat="44.93113" lon="5.64149">
        <ele>808.1</ele>
        <time>2023-08-03T10:14:58Z</time>
      </trkpt>
      <trkpt lat="44.93123" lon="5.64147">
        <ele>808.8</ele>
        <time>2023-08-03T10:15:00Z</time>
      </trkpt>
      <trkpt lat="44.93134" lon="5.6415">
        <ele>809.8</ele>
        <time>2023-08-03T10:15:03Z</time>
      </trkpt>
      <trkpt lat="44.93142" lon="5.64152">
        <ele>810.4</ele>
        <time>2023-08-03T10:15:05Z</time>
      </trkpt>
      <trkpt lat="44.93145" lon="5.64154">
        <ele>810.6</ele>
        <time>2023-08-03T10:15:06Z</time>
      </trkpt>
      <trkpt lat="44.93156" lon="5.64156">
        <ele>811.5</ele>
        <time>2023-08-03T10:15:09Z</time>
      </trkpt>
      <trkpt lat="44.93161" lon="5.6416">
        <ele>812</ele>
        <time>2023-08-03T10:15:11Z</time>
      </trkpt>
      <trkpt lat="44.93168" lon="5.64166">
        <ele>812.6</ele>
        <time>2023-08-03T10:15:13Z</time>
      </trkpt>
      <trkpt lat="44.93176" lon="5.64173">
        <ele>813.3</ele>
        <time>2023-08-03T10:15:16Z</time>
      </trkpt>
      <trkpt lat="44.93179" lon="5.64175">
        <ele>813.5</ele>
        <time>2023-08-03T10:15:17Z</time>
      </trkpt>
      <trkpt lat="44.93181" lon="5.64177">
        <ele>813.6</ele>
        <time>2023-08-03T10:15:18Z</time>
      </trkpt>
      <trkpt lat="44.93187" lon="5.64182">
        <ele>814.1</ele>
        <time>2023-08-03T10:15:20Z</time>
      </trkpt>
      <trkpt lat="44.93189" lon="5.64184">
        <ele>814.3</ele>
        <time>2023-08-03T10:15:21Z</time>
      </trkpt>
      <trkpt lat="44.93196" lon="5.64189">
        <ele>814.8</ele>
        <time>2023-08-03T10:15:23Z</time>
      </trkpt>
      <trkpt lat="44.93202" lon="5.64193">
        <ele>815.3</ele>
        <time>2023-08-03T10:15:25Z</time>
      </trkpt>
      <trkpt lat="44.93213" lon="5.64197">
        <ele>816</ele>
        <time>2023-08-03T10:15:28Z</time>
      </trkpt>
      <trkpt lat="44.93219" lon="5.64199">
        <ele>816.3</ele>
        <time>2023-08-03T10:15:30Z</time>
      </trkpt>
      <trkpt lat="44.93224" lon="5.642">
        <ele>816.6</ele>
        <time>2023-08-03T10:15:31Z</time>
      </trkpt>
      <trkpt lat="44.93227" lon="5.642">
        <ele>816.8</ele>
        <time>2023-08-03T10:15:32Z</time>
      </trkpt>
      <trkpt lat="44.93233" lon="5.64203">
        <ele>817.2</ele>
        <time>2023-08-03T10:15:34Z</time>
      </trkpt>
      <trkpt lat="44.93236" lon="5.64205">
        <ele>817.4</ele>
        <time>2023-08-03T10:15:35Z</time>
      </trkpt>
      <trkpt lat="44.9324" lon="5.64206">
        <ele>817.7</ele>
        <time>2023-08-03T10:15:36Z</time>
      </trkpt>
      <trkpt lat="44.9325" lon="5.64206">
        <ele>818.3</ele>
        <time>2023-08-03T10:15:39Z</time>
      </trkpt>
      <trkpt lat="44.93253" lon="5.64206">
        <ele>818.5</ele>
        <time>2023-08-03T10:15:40Z</time>
      </trkpt>
      <trkpt lat="44.93257" lon="5.64206">
        <ele>818.7</ele>
        <time>2023-08-03T10:15:41Z</time>
      </trkpt>
      <trkpt lat="44.93268" lon="5.64206">
        <ele>819.2</ele>
        <time>2023-08-03T10:15:44Z</time>
      </trkpt>
      <trkpt lat="44.93272" lon="5.64206">
        <ele>819.5</ele>
        <time>2023-08-03T10:15:45Z</time>
      </trkpt>
      <trkpt lat="44.93275" lon="5.64206">
        <ele>819.6</ele>
        <time>2023-08-03T10:15:46Z</time>
      </trkpt>
      <trkpt lat="44.93283" lon="5.64208">
        <ele>820</ele>
        <time>2023-08-03T10:15:48Z</time>
      </trkpt>
      <trkpt lat="44.93287" lon="5.64209">
        <ele>820.2</ele>
        <time>2023-08-03T10:15:49Z</time>
      </trkpt>
      <trkpt lat="44.9329" lon="5.64208">
        <ele>820.3</ele>
        <time>2023-08-03T10:15:50Z</time>
      </trkpt>
      <trkpt lat="44.93293" lon="5.64208">
        <ele>820.5</ele>
        <time>2023-08-03T10:15:51Z</time>
      </trkpt>
      <trkpt lat="44.933" lon="5.64209">
        <ele>820.8</ele>
        <time>2023-08-03T10:15:53Z</time>
      </trkpt>
      <trkpt lat="44.93303" lon="5.64211">
        <ele>821</ele>
        <time>2023-08-03T10:15:54Z</time>
      </trkpt>
      <trkpt lat="44.93306" lon="5.64213">
        <ele>821.3</ele>
        <time>2023-08-03T10:15:55Z</time>
      </trkpt>
      <trkpt lat="44.9331" lon="5.64212">
        <ele>821.5</ele>
        <time>2023-08-03T10:15:56Z</time>
      </trkpt>
      <trkpt lat="44.93317" lon="5.64211">
        <ele>821.9</ele>
        <time>2023-08-03T10:15:58Z</time>
      </trkpt>
      <trkpt lat="44.93327" lon="5.6421">
        <ele>822.6</ele>
        <time>2023-08-03T10:16:01Z</time>
      </trkpt>
      <trkpt lat="44.9333" lon="5.6421">
        <ele>822.8</ele>
        <time>2023-08-03T10:16:02Z</time>
      </trkpt>
      <trkpt lat="44.93338" lon="5.64211">
        <ele>823.3</ele>
        <time>2023-08-03T10:16:04Z</time>
      </trkpt>
      <trkpt lat="44.93349" lon="5.64213">
        <ele>824.3</ele>
        <time>2023-08-03T10:16:07Z</time>
      </trkpt>
      <trkpt lat="44.93356" lon="5.64216">
        <ele>824.9</ele>
        <time>2023-08-03T10:16:09Z</time>
      </trkpt>
      <trkpt lat="44.93374" lon="5.64218">
        <ele>826</ele>
        <time>2023-08-03T10:16:14Z</time>
      </trkpt>
      <trkpt lat="44.93377" lon="5.64216">
        <ele>826.2</ele>
        <time>2023-08-03T10:16:15Z</time>
      </trkpt>
      <trkpt lat="44.93383" lon="5.64215">
        <ele>826.4</ele>
        <time>2023-08-03T10:16:17Z</time>
      </trkpt>
      <trkpt lat="44.93386" lon="5.64213">
        <ele>826.5</ele>
        <time>2023-08-03T10:16:18Z</time>
      </trkpt>
      <trkpt lat="44.93387" lon="5.64211">
        <ele>826.5</ele>
        <time>2023-08-03T10:16:20Z</time>
      </trkpt>
      <trkpt lat="44.93392" lon="5.64212">
        <ele>826.7</ele>
        <time>2023-08-03T10:16:22Z</time>
      </trkpt>
      <trkpt lat="44.9341" lon="5.64209">
        <ele>827.1</ele>
        <time>2023-08-03T10:16:26Z</time>
      </trkpt>
      <trkpt lat="44.93437" lon="5.6421">
        <ele>828.4</ele>
        <time>2023-08-03T10:16:32Z</time>
      </trkpt>
      <trkpt lat="44.93477" lon="5.64214">
        <ele>830.8</ele>
        <time>2023-08-03T10:16:41Z</time>
      </trkpt>
      <trkpt lat="44.93486" lon="5.64217">
        <ele>831.3</ele>
        <time>2023-08-03T10:16:43Z</time>
      </trkpt>
      <trkpt lat="44.93499" lon="5.64218">
        <ele>832.1</ele>
        <time>2023-08-03T10:16:46Z</time>
      </trkpt>
      <trkpt lat="44.93511" lon="5.6422">
        <ele>832.9</ele>
        <time>2023-08-03T10:16:49Z</time>
      </trkpt>
      <trkpt lat="44.9355" lon="5.64224">
        <ele>835.1</ele>
        <time>2023-08-03T10:16:58Z</time>
      </trkpt>
      <trkpt lat="44.93554" lon="5.64224">
        <ele>835.4</ele>
        <time>2023-08-03T10:16:59Z</time>
      </trkpt>
      <trkpt lat="44.9356" lon="5.64227">
        <ele>835.7</ele>
        <time>2023-08-03T10:17:01Z</time>
      </trkpt>
      <trkpt lat="44.93565" lon="5.64228">
        <ele>836</ele>
        <time>2023-08-03T10:17:02Z</time>
      </trkpt>
      <trkpt lat="44.93568" lon="5.64228">
        <ele>836.2</ele>
        <time>2023-08-03T10:17:03Z</time>
      </trkpt>
      <trkpt lat="44.93588" lon="5.64228">
        <ele>837.2</ele>
        <time>2023-08-03T10:17:08Z</time>
      </trkpt>
      <trkpt lat="44.936" lon="5.64229">
        <ele>837.9</ele>
        <time>2023-08-03T10:17:11Z</time>
      </trkpt>
      <trkpt lat="44.93607" lon="5.64229">
        <ele>838.4</ele>
        <time>2023-08-03T10:17:13Z</time>
      </trkpt>
      <trkpt lat="44.93612" lon="5.64229">
        <ele>838.6</ele>
        <time>2023-08-03T10:17:14Z</time>
      </trkpt>
      <trkpt lat="44.93616" lon="5.6423">
        <ele>838.8</ele>
        <time>2023-08-03T10:17:15Z</time>
      </trkpt>
      <trkpt lat="44.93626" lon="5.6423">
        <ele>839.3</ele>
        <time>2023-08-03T10:17:17Z</time>
      </trkpt>
      <trkpt lat="44.93629" lon="5.64229">
        <ele>839.5</ele>
        <time>2023-08-03T10:17:18Z</time>
      </trkpt>
      <trkpt lat="44.93633" lon="5.64229">
        <ele>839.7</ele>
        <time>2023-08-03T10:17:19Z</time>
      </trkpt>
      <trkpt lat="44.93636" lon="5.64228">
        <ele>839.9</ele>
        <time>2023-08-03T10:17:20Z</time>
      </trkpt>
      <trkpt lat="44.93639" lon="5.64229">
        <ele>840</ele>
        <time>2023-08-03T10:17:21Z</time>
      </trkpt>
      <trkpt lat="44.93642" lon="5.64231">
        <ele>840.2</ele>
        <time>2023-08-03T10:17:22Z</time>
      </trkpt>
      <trkpt lat="44.93646" lon="5.64232">
        <ele>840.4</ele>
        <time>2023-08-03T10:17:23Z</time>
      </trkpt>
      <trkpt lat="44.93653" lon="5.6423">
        <ele>840.7</ele>
        <time>2023-08-03T10:17:25Z</time>
      </trkpt>
      <trkpt lat="44.9366" lon="5.64233">
        <ele>841.1</ele>
        <time>2023-08-03T10:17:27Z</time>
      </trkpt>
      <trkpt lat="44.93665" lon="5.64234">
        <ele>841.3</ele>
        <time>2023-08-03T10:17:28Z</time>
      </trkpt>
      <trkpt lat="44.93669" lon="5.64233">
        <ele>841.6</ele>
        <time>2023-08-03T10:17:29Z</time>
      </trkpt>
      <trkpt lat="44.93673" lon="5.64232">
        <ele>841.8</ele>
        <time>2023-08-03T10:17:30Z</time>
      </trkpt>
      <trkpt lat="44.93678" lon="5.64231">
        <ele>842</ele>
        <time>2023-08-03T10:17:31Z</time>
      </trkpt>
      <trkpt lat="44.93682" lon="5.64231">
        <ele>842.2</ele>
        <time>2023-08-03T10:17:32Z</time>
      </trkpt>
      <trkpt lat="44.93692" lon="5.64226">
        <ele>842.7</ele>
        <time>2023-08-03T10:17:34Z</time>
      </trkpt>
      <trkpt lat="44.93696" lon="5.64227">
        <ele>842.9</ele>
        <time>2023-08-03T10:17:35Z</time>
      </trkpt>
      <trkpt lat="44.93706" lon="5.64227">
        <ele>843.5</ele>
        <time>2023-08-03T10:17:37Z</time>
      </trkpt>
      <trkpt lat="44.9371" lon="5.64228">
        <ele>843.7</ele>
        <time>2023-08-03T10:17:38Z</time>
      </trkpt>
      <trkpt lat="44.93714" lon="5.64229">
        <ele>843.9</ele>
        <time>2023-08-03T10:17:39Z</time>
      </trkpt>
      <trkpt lat="44.93717" lon="5.64228">
        <ele>844.1</ele>
        <time>2023-08-03T10:17:40Z</time>
      </trkpt>
      <trkpt lat="44.93722" lon="5.64224">
        <ele>844.3</ele>
        <time>2023-08-03T10:17:41Z</time>
      </trkpt>
      <trkpt lat="44.93727" lon="5.64222">
        <ele>844.6</ele>
        <time>2023-08-03T10:17:42Z</time>
      </trkpt>
      <trkpt lat="44.93736" lon="5.64223">
        <ele>845</ele>
        <time>2023-08-03T10:17:44Z</time>
      </trkpt>
      <trkpt lat="44.9374" lon="5.64223">
        <ele>845.2</ele>
        <time>2023-08-03T10:17:45Z</time>
      </trkpt>
      <trkpt lat="44.93743" lon="5.64222">
        <ele>845.4</ele>
        <time>2023-08-03T10:17:46Z</time>
      </trkpt>
      <trkpt lat="44.9375" lon="5.6422">
        <ele>845.8</ele>
        <time>2023-08-03T10:17:48Z</time>
      </trkpt>
      <trkpt lat="44.93753" lon="5.64219">
        <ele>845.9</ele>
        <time>2023-08-03T10:17:49Z</time>
      </trkpt>
      <trkpt lat="44.93758" lon="5.64218">
        <ele>846.2</ele>
        <time>2023-08-03T10:17:50Z</time>
      </trkpt>
      <trkpt lat="44.93767" lon="5.64216">
        <ele>846.7</ele>
        <time>2023-08-03T10:17:52Z</time>
      </trkpt>
      <trkpt lat="44.93776" lon="5.64219">
        <ele>847.1</ele>
        <time>2023-08-03T10:17:54Z</time>
      </trkpt>
      <trkpt lat="44.93781" lon="5.64224">
        <ele>847.4</ele>
        <time>2023-08-03T10:17:55Z</time>
      </trkpt>
      <trkpt lat="44.93785" lon="5.64228">
        <ele>847.7</ele>
        <time>2023-08-03T10:17:56Z</time>
      </trkpt>
      <trkpt lat="44.93794" lon="5.6423">
        <ele>848.2</ele>
        <time>2023-08-03T10:17:58Z</time>
      </trkpt>
      <trkpt lat="44.93798" lon="5.64229">
        <ele>848.5</ele>
        <time>2023-08-03T10:17:59Z</time>
      </trkpt>
      <trkpt lat="44.93802" lon="5.64228">
        <ele>848.7</ele>
        <time>2023-08-03T10:18:00Z</time>
      </trkpt>
      <trkpt lat="44.93805" lon="5.64226">
        <ele>849</ele>
        <time>2023-08-03T10:18:01Z</time>
      </trkpt>
      <trkpt lat="44.93809" lon="5.64224">
        <ele>849.2</ele>
        <time>2023-08-03T10:18:02Z</time>
      </trkpt>
      <trkpt lat="44.93821" lon="5.64221">
        <ele>849.9</ele>
        <time>2023-08-03T10:18:05Z</time>
      </trkpt>
      <trkpt lat="44.93826" lon="5.64221">
        <ele>850.1</ele>
        <time>2023-08-03T10:18:06Z</time>
      </trkpt>
      <trkpt lat="44.9383" lon="5.64221">
        <ele>850.4</ele>
        <time>2023-08-03T10:18:07Z</time>
      </trkpt>
      <trkpt lat="44.93839" lon="5.64221">
        <ele>850.8</ele>
        <time>2023-08-03T10:18:09Z</time>
      </trkpt>
      <trkpt lat="44.93843" lon="5.64222">
        <ele>851.1</ele>
        <time>2023-08-03T10:18:10Z</time>
      </trkpt>
      <trkpt lat="44.93847" lon="5.64223">
        <ele>851.3</ele>
        <time>2023-08-03T10:18:11Z</time>
      </trkpt>
      <trkpt lat="44.93852" lon="5.64222">
        <ele>851.5</ele>
        <time>2023-08-03T10:18:12Z</time>
      </trkpt>
      <trkpt lat="44.93856" lon="5.64221">
        <ele>851.8</ele>
        <time>2023-08-03T10:18:13Z</time>
      </trkpt>
      <trkpt lat="44.9386" lon="5.64221">
        <ele>852</ele>
        <time>2023-08-03T10:18:14Z</time>
      </trkpt>
      <trkpt lat="44.93864" lon="5.6422">
        <ele>852.2</ele>
        <time>2023-08-03T10:18:15Z</time>
      </trkpt>
      <trkpt lat="44.93867" lon="5.64219">
        <ele>852.4</ele>
        <time>2023-08-03T10:18:16Z</time>
      </trkpt>
      <trkpt lat="44.9387" lon="5.64218">
        <ele>852.6</ele>
        <time>2023-08-03T10:18:17Z</time>
      </trkpt>
      <trkpt lat="44.93881" lon="5.64217">
        <ele>853.1</ele>
        <time>2023-08-03T10:18:20Z</time>
      </trkpt>
      <trkpt lat="44.93895" lon="5.64214">
        <ele>853.8</ele>
        <time>2023-08-03T10:18:23Z</time>
      </trkpt>
      <trkpt lat="44.93902" lon="5.64216">
        <ele>854.2</ele>
        <time>2023-08-03T10:18:25Z</time>
      </trkpt>
      <trkpt lat="44.9391" lon="5.64215">
        <ele>854.6</ele>
        <time>2023-08-03T10:18:27Z</time>
      </trkpt>
      <trkpt lat="44.93923" lon="5.64216">
        <ele>855.3</ele>
        <time>2023-08-03T10:18:30Z</time>
      </trkpt>
      <trkpt lat="44.93928" lon="5.64218">
        <ele>855.6</ele>
        <time>2023-08-03T10:18:31Z</time>
      </trkpt>
      <trkpt lat="44.93942" lon="5.6422">
        <ele>856.3</ele>
        <time>2023-08-03T10:18:34Z</time>
      </trkpt>
      <trkpt lat="44.93947" lon="5.64222">
        <ele>856.5</ele>
        <time>2023-08-03T10:18:35Z</time>
      </trkpt>
      <trkpt lat="44.93951" lon="5.64223">
        <ele>856.7</ele>
        <time>2023-08-03T10:18:36Z</time>
      </trkpt>
      <trkpt lat="44.93956" lon="5.64223">
        <ele>857</ele>
        <time>2023-08-03T10:18:37Z</time>
      </trkpt>
      <trkpt lat="44.93966" lon="5.64225">
        <ele>857.4</ele>
        <time>2023-08-03T10:18:39Z</time>
      </trkpt>
      <trkpt lat="44.93971" lon="5.64226">
        <ele>857.6</ele>
        <time>2023-08-03T10:18:40Z</time>
      </trkpt>
      <trkpt lat="44.9398" lon="5.6423">
        <ele>858</ele>
        <time>2023-08-03T10:18:42Z</time>
      </trkpt>
      <trkpt lat="44.93985" lon="5.64231">
        <ele>858.2</ele>
        <time>2023-08-03T10:18:43Z</time>
      </trkpt>
      <trkpt lat="44.9399" lon="5.64231">
        <ele>858.5</ele>
        <time>2023-08-03T10:18:44Z</time>
      </trkpt>
      <trkpt lat="44.93998" lon="5.64237">
        <ele>858.9</ele>
        <time>2023-08-03T10:18:46Z</time>
      </trkpt>
      <trkpt lat="44.9401" lon="5.64235">
        <ele>859.6</ele>
        <time>2023-08-03T10:18:49Z</time>
      </trkpt>
      <trkpt lat="44.94018" lon="5.64236">
        <ele>860</ele>
        <time>2023-08-03T10:18:51Z</time>
      </trkpt>
      <trkpt lat="44.94022" lon="5.64239">
        <ele>860.2</ele>
        <time>2023-08-03T10:18:52Z</time>
      </trkpt>
      <trkpt lat="44.94026" lon="5.64239">
        <ele>860.4</ele>
        <time>2023-08-03T10:18:53Z</time>
      </trkpt>
      <trkpt lat="44.94034" lon="5.64239">
        <ele>860.9</ele>
        <time>2023-08-03T10:18:55Z</time>
      </trkpt>
      <trkpt lat="44.94039" lon="5.64241">
        <ele>861.1</ele>
        <time>2023-08-03T10:18:56Z</time>
      </trkpt>
      <trkpt lat="44.94044" lon="5.64242">
        <ele>861.4</ele>
        <time>2023-08-03T10:18:57Z</time>
      </trkpt>
      <trkpt lat="44.94048" lon="5.64243">
        <ele>861.6</ele>
        <time>2023-08-03T10:18:58Z</time>
      </trkpt>
      <trkpt lat="44.94056" lon="5.64249">
        <ele>862</ele>
        <time>2023-08-03T10:19:00Z</time>
      </trkpt>
      <trkpt lat="44.94059" lon="5.64251">
        <ele>862.2</ele>
        <time>2023-08-03T10:19:01Z</time>
      </trkpt>
      <trkpt lat="44.94064" lon="5.64252">
        <ele>862.4</ele>
        <time>2023-08-03T10:19:02Z</time>
      </trkpt>
      <trkpt lat="44.94076" lon="5.64254">
        <ele>863</ele>
        <time>2023-08-03T10:19:05Z</time>
      </trkpt>
      <trkpt lat="44.94081" lon="5.64254">
        <ele>863.2</ele>
        <time>2023-08-03T10:19:06Z</time>
      </trkpt>
      <trkpt lat="44.94085" lon="5.64252">
        <ele>863.4</ele>
        <time>2023-08-03T10:19:07Z</time>
      </trkpt>
      <trkpt lat="44.94091" lon="5.64251">
        <ele>863.7</ele>
        <time>2023-08-03T10:19:09Z</time>
      </trkpt>
      <trkpt lat="44.94093" lon="5.64252">
        <ele>863.8</ele>
        <time>2023-08-03T10:19:11Z</time>
      </trkpt>
      <trkpt lat="44.94096" lon="5.64251">
        <ele>864</ele>
        <time>2023-08-03T10:19:12Z</time>
      </trkpt>
      <trkpt lat="44.94101" lon="5.64251">
        <ele>864.2</ele>
        <time>2023-08-03T10:19:13Z</time>
      </trkpt>
      <trkpt lat="44.94107" lon="5.64251">
        <ele>864.5</ele>
        <time>2023-08-03T10:19:14Z</time>
      </trkpt>
      <trkpt lat="44.94119" lon="5.64249">
        <ele>865.2</ele>
        <time>2023-08-03T10:19:16Z</time>
      </trkpt>
      <trkpt lat="44.94125" lon="5.6425">
        <ele>865.4</ele>
        <time>2023-08-03T10:19:17Z</time>
      </trkpt>
      <trkpt lat="44.94132" lon="5.64251">
        <ele>865.8</ele>
        <time>2023-08-03T10:19:18Z</time>
      </trkpt>
      <trkpt lat="44.94141" lon="5.64254">
        <ele>866.3</ele>
        <time>2023-08-03T10:19:20Z</time>
      </trkpt>
      <trkpt lat="44.94146" lon="5.64253">
        <ele>866.5</ele>
        <time>2023-08-03T10:19:21Z</time>
      </trkpt>
      <trkpt lat="44.9415" lon="5.64253">
        <ele>866.8</ele>
        <time>2023-08-03T10:19:22Z</time>
      </trkpt>
      <trkpt lat="44.94155" lon="5.64254">
        <ele>867</ele>
        <time>2023-08-03T10:19:23Z</time>
      </trkpt>
      <trkpt lat="44.94159" lon="5.64258">
        <ele>867.2</ele>
        <time>2023-08-03T10:19:24Z</time>
      </trkpt>
      <trkpt lat="44.94163" lon="5.64262">
        <ele>867.5</ele>
        <time>2023-08-03T10:19:25Z</time>
      </trkpt>
      <trkpt lat="44.94166" lon="5.64265">
        <ele>867.7</ele>
        <time>2023-08-03T10:19:26Z</time>
      </trkpt>
      <trkpt lat="44.9417" lon="5.64267">
        <ele>867.9</ele>
        <time>2023-08-03T10:19:27Z</time>
      </trkpt>
      <trkpt lat="44.94175" lon="5.64267">
        <ele>868.1</ele>
        <time>2023-08-03T10:19:28Z</time>
      </trkpt>
      <trkpt lat="44.94179" lon="5.64267">
        <ele>868.3</ele>
        <time>2023-08-03T10:19:29Z</time>
      </trkpt>
      <trkpt lat="44.94183" lon="5.64268">
        <ele>868.6</ele>
        <time>2023-08-03T10:19:30Z</time>
      </trkpt>
      <trkpt lat="44.94189" lon="5.6427">
        <ele>869</ele>
        <time>2023-08-03T10:19:32Z</time>
      </trkpt>
      <trkpt lat="44.94192" lon="5.64272">
        <ele>869.2</ele>
        <time>2023-08-03T10:19:33Z</time>
      </trkpt>
      <trkpt lat="44.94196" lon="5.64274">
        <ele>869.5</ele>
        <time>2023-08-03T10:19:35Z</time>
      </trkpt>
      <trkpt lat="44.94202" lon="5.64277">
        <ele>869.9</ele>
        <time>2023-08-03T10:19:37Z</time>
      </trkpt>
      <trkpt lat="44.94206" lon="5.64279">
        <ele>870.1</ele>
        <time>2023-08-03T10:19:38Z</time>
      </trkpt>
      <trkpt lat="44.94209" lon="5.64282">
        <ele>870.4</ele>
        <time>2023-08-03T10:19:39Z</time>
      </trkpt>
      <trkpt lat="44.94217" lon="5.64285">
        <ele>870.8</ele>
        <time>2023-08-03T10:19:41Z</time>
      </trkpt>
      <trkpt lat="44.94219" lon="5.64286">
        <ele>871</ele>
        <time>2023-08-03T10:19:42Z</time>
      </trkpt>
      <trkpt lat="44.94222" lon="5.64287">
        <ele>871.2</ele>
        <time>2023-08-03T10:19:43Z</time>
      </trkpt>
      <trkpt lat="44.94227" lon="5.64289">
        <ele>871.4</ele>
        <time>2023-08-03T10:19:44Z</time>
      </trkpt>
      <trkpt lat="44.94236" lon="5.64292">
        <ele>871.9</ele>
        <time>2023-08-03T10:19:46Z</time>
      </trkpt>
      <trkpt lat="44.94246" lon="5.64296">
        <ele>872.5</ele>
        <time>2023-08-03T10:19:48Z</time>
      </trkpt>
      <trkpt lat="44.9426" lon="5.64296">
        <ele>873.2</ele>
        <time>2023-08-03T10:19:51Z</time>
      </trkpt>
      <trkpt lat="44.94269" lon="5.64296">
        <ele>873.7</ele>
        <time>2023-08-03T10:19:53Z</time>
      </trkpt>
      <trkpt lat="44.94275" lon="5.64296">
        <ele>874</ele>
        <time>2023-08-03T10:19:54Z</time>
      </trkpt>
      <trkpt lat="44.94287" lon="5.64293">
        <ele>874.6</ele>
        <time>2023-08-03T10:19:57Z</time>
      </trkpt>
      <trkpt lat="44.94296" lon="5.64289">
        <ele>875</ele>
        <time>2023-08-03T10:19:59Z</time>
      </trkpt>
      <trkpt lat="44.94301" lon="5.64289">
        <ele>875.2</ele>
        <time>2023-08-03T10:20:00Z</time>
      </trkpt>
      <trkpt lat="44.9431" lon="5.64287">
        <ele>875.7</ele>
        <time>2023-08-03T10:20:02Z</time>
      </trkpt>
      <trkpt lat="44.94319" lon="5.64285">
        <ele>876.3</ele>
        <time>2023-08-03T10:20:04Z</time>
      </trkpt>
      <trkpt lat="44.94324" lon="5.64283">
        <ele>876.6</ele>
        <time>2023-08-03T10:20:05Z</time>
      </trkpt>
      <trkpt lat="44.94333" lon="5.6428">
        <ele>877.1</ele>
        <time>2023-08-03T10:20:07Z</time>
      </trkpt>
      <trkpt lat="44.94337" lon="5.6428">
        <ele>877.4</ele>
        <time>2023-08-03T10:20:08Z</time>
      </trkpt>
      <trkpt lat="44.9435" lon="5.64278">
        <ele>878.1</ele>
        <time>2023-08-03T10:20:11Z</time>
      </trkpt>
      <trkpt lat="44.94364" lon="5.64282">
        <ele>878.7</ele>
        <time>2023-08-03T10:20:14Z</time>
      </trkpt>
      <trkpt lat="44.94368" lon="5.64283">
        <ele>878.8</ele>
        <time>2023-08-03T10:20:15Z</time>
      </trkpt>
      <trkpt lat="44.94372" lon="5.64283">
        <ele>878.9</ele>
        <time>2023-08-03T10:20:16Z</time>
      </trkpt>
      <trkpt lat="44.94375" lon="5.64285">
        <ele>879</ele>
        <time>2023-08-03T10:20:17Z</time>
      </trkpt>
      <trkpt lat="44.94384" lon="5.64291">
        <ele>879.1</ele>
        <time>2023-08-03T10:20:19Z</time>
      </trkpt>
      <trkpt lat="44.94387" lon="5.64296">
        <ele>879.2</ele>
        <time>2023-08-03T10:20:20Z</time>
      </trkpt>
      <trkpt lat="44.94393" lon="5.64301">
        <ele>879.3</ele>
        <time>2023-08-03T10:20:21Z</time>
      </trkpt>
      <trkpt lat="44.94403" lon="5.6431">
        <ele>879.4</ele>
        <time>2023-08-03T10:20:23Z</time>
      </trkpt>
      <trkpt lat="44.94415" lon="5.64323">
        <ele>879.4</ele>
        <time>2023-08-03T10:20:26Z</time>
      </trkpt>
      <trkpt lat="44.94418" lon="5.64327">
        <ele>879.4</ele>
        <time>2023-08-03T10:20:27Z</time>
      </trkpt>
      <trkpt lat="44.94421" lon="5.64332">
        <ele>879.4</ele>
        <time>2023-08-03T10:20:28Z</time>
      </trkpt>
      <trkpt lat="44.94425" lon="5.64343">
        <ele>879.4</ele>
        <time>2023-08-03T10:20:30Z</time>
      </trkpt>
      <trkpt lat="44.94429" lon="5.64354">
        <ele>879.4</ele>
        <time>2023-08-03T10:20:32Z</time>
      </trkpt>
      <trkpt lat="44.94438" lon="5.64366">
        <ele>879.4</ele>
        <time>2023-08-03T10:20:34Z</time>
      </trkpt>
      <trkpt lat="44.94444" lon="5.64372">
        <ele>879.4</ele>
        <time>2023-08-03T10:20:35Z</time>
      </trkpt>
      <trkpt lat="44.94457" lon="5.64389">
        <ele>879.4</ele>
        <time>2023-08-03T10:20:38Z</time>
      </trkpt>
      <trkpt lat="44.94464" lon="5.6441">
        <ele>879.3</ele>
        <time>2023-08-03T10:20:41Z</time>
      </trkpt>
      <trkpt lat="44.94466" lon="5.64417">
        <ele>879.3</ele>
        <time>2023-08-03T10:20:42Z</time>
      </trkpt>
      <trkpt lat="44.94474" lon="5.64438">
        <ele>879.3</ele>
        <time>2023-08-03T10:20:45Z</time>
      </trkpt>
      <trkpt lat="44.94477" lon="5.64454">
        <ele>879.4</ele>
        <time>2023-08-03T10:20:47Z</time>
      </trkpt>
      <trkpt lat="44.94482" lon="5.64468">
        <ele>879.5</ele>
        <time>2023-08-03T10:20:49Z</time>
      </trkpt>
      <trkpt lat="44.9449" lon="5.64501">
        <ele>879.6</ele>
        <time>2023-08-03T10:20:53Z</time>
      </trkpt>
      <trkpt lat="44.94492" lon="5.64517">
        <ele>879.6</ele>
        <time>2023-08-03T10:20:55Z</time>
      </trkpt>
      <trkpt lat="44.94496" lon="5.64541">
        <ele>879.7</ele>
        <time>2023-08-03T10:20:58Z</time>
      </trkpt>
      <trkpt lat="44.94496" lon="5.64548">
        <ele>879.7</ele>
        <time>2023-08-03T10:20:59Z</time>
      </trkpt>
      <trkpt lat="44.94496" lon="5.64555">
        <ele>879.6</ele>
        <time>2023-08-03T10:21:00Z</time>
      </trkpt>
      <trkpt lat="44.94494" lon="5.64577">
        <ele>878.9</ele>
        <time>2023-08-03T10:21:03Z</time>
      </trkpt>
      <trkpt lat="44.94493" lon="5.64585">
        <ele>878.5</ele>
        <time>2023-08-03T10:21:04Z</time>
      </trkpt>
      <trkpt lat="44.94495" lon="5.64604">
        <ele>877.7</ele>
        <time>2023-08-03T10:21:06Z</time>
      </trkpt>
      <trkpt lat="44.945" lon="5.6462">
        <ele>877</ele>
        <time>2023-08-03T10:21:08Z</time>
      </trkpt>
      <trkpt lat="44.94509" lon="5.64637">
        <ele>876.2</ele>
        <time>2023-08-03T10:21:10Z</time>
      </trkpt>
      <trkpt lat="44.94534" lon="5.64685">
        <ele>874.2</ele>
        <time>2023-08-03T10:21:15Z</time>
      </trkpt>
      <trkpt lat="44.94543" lon="5.64705">
        <ele>873.5</ele>
        <time>2023-08-03T10:21:17Z</time>
      </trkpt>
      <trkpt lat="44.94567" lon="5.64766">
        <ele>871.3</ele>
        <time>2023-08-03T10:21:23Z</time>
      </trkpt>
      <trkpt lat="44.94578" lon="5.64811">
        <ele>869.8</ele>
        <time>2023-08-03T10:21:27Z</time>
      </trkpt>
      <trkpt lat="44.94579" lon="5.64823">
        <ele>869.4</ele>
        <time>2023-08-03T10:21:28Z</time>
      </trkpt>
      <trkpt lat="44.9458" lon="5.64834">
        <ele>869.1</ele>
        <time>2023-08-03T10:21:29Z</time>
      </trkpt>
      <trkpt lat="44.94583" lon="5.64864">
        <ele>868.2</ele>
        <time>2023-08-03T10:21:32Z</time>
      </trkpt>
      <trkpt lat="44.94585" lon="5.64873">
        <ele>868</ele>
        <time>2023-08-03T10:21:33Z</time>
      </trkpt>
      <trkpt lat="44.9459" lon="5.64889">
        <ele>867.4</ele>
        <time>2023-08-03T10:21:35Z</time>
      </trkpt>
      <trkpt lat="44.94599" lon="5.64906">
        <ele>866.8</ele>
        <time>2023-08-03T10:21:37Z</time>
      </trkpt>
      <trkpt lat="44.94612" lon="5.64937">
        <ele>865.9</ele>
        <time>2023-08-03T10:21:40Z</time>
      </trkpt>
      <trkpt lat="44.94615" lon="5.64948">
        <ele>865.6</ele>
        <time>2023-08-03T10:21:41Z</time>
      </trkpt>
      <trkpt lat="44.94621" lon="5.64967">
        <ele>865</ele>
        <time>2023-08-03T10:21:43Z</time>
      </trkpt>
      <trkpt lat="44.94626" lon="5.6498">
        <ele>864.5</ele>
        <time>2023-08-03T10:21:45Z</time>
      </trkpt>
      <trkpt lat="44.94628" lon="5.64985">
        <ele>864.4</ele>
        <time>2023-08-03T10:21:46Z</time>
      </trkpt>
      <trkpt lat="44.94633" lon="5.64994">
        <ele>864</ele>
        <time>2023-08-03T10:21:49Z</time>
      </trkpt>
      <trkpt lat="44.94635" lon="5.64997">
        <ele>863.9</ele>
        <time>2023-08-03T10:21:52Z</time>
      </trkpt>
      <trkpt lat="44.94638" lon="5.64998">
        <ele>863.8</ele>
        <time>2023-08-03T10:22:30Z</time>
      </trkpt>
      <trkpt lat="44.94641" lon="5.65001">
        <ele>863.6</ele>
        <time>2023-08-03T10:22:32Z</time>
      </trkpt>
      <trkpt lat="44.94645" lon="5.65006">
        <ele>863.4</ele>
        <time>2023-08-03T10:22:34Z</time>
      </trkpt>
      <trkpt lat="44.94647" lon="5.65008">
        <ele>863.3</ele>
        <time>2023-08-03T10:22:35Z</time>
      </trkpt>
      <trkpt lat="44.9465" lon="5.6501">
        <ele>863.2</ele>
        <time>2023-08-03T10:22:36Z</time>
      </trkpt>
      <trkpt lat="44.94656" lon="5.65015">
        <ele>862.9</ele>
        <time>2023-08-03T10:22:38Z</time>
      </trkpt>
      <trkpt lat="44.94663" lon="5.65021">
        <ele>862.6</ele>
        <time>2023-08-03T10:22:40Z</time>
      </trkpt>
      <trkpt lat="44.94667" lon="5.65023">
        <ele>862.4</ele>
        <time>2023-08-03T10:22:41Z</time>
      </trkpt>
      <trkpt lat="44.94671" lon="5.65026">
        <ele>862.3</ele>
        <time>2023-08-03T10:22:42Z</time>
      </trkpt>
      <trkpt lat="44.94679" lon="5.65031">
        <ele>861.9</ele>
        <time>2023-08-03T10:22:44Z</time>
      </trkpt>
      <trkpt lat="44.94683" lon="5.65034">
        <ele>861.7</ele>
        <time>2023-08-03T10:22:45Z</time>
      </trkpt>
      <trkpt lat="44.94693" lon="5.65039">
        <ele>861.2</ele>
        <time>2023-08-03T10:22:47Z</time>
      </trkpt>
      <trkpt lat="44.94703" lon="5.65045">
        <ele>860.8</ele>
        <time>2023-08-03T10:22:49Z</time>
      </trkpt>
      <trkpt lat="44.94713" lon="5.65053">
        <ele>860.3</ele>
        <time>2023-08-03T10:22:51Z</time>
      </trkpt>
      <trkpt lat="44.94727" lon="5.65065">
        <ele>859.6</ele>
        <time>2023-08-03T10:22:54Z</time>
      </trkpt>
      <trkpt lat="44.9474" lon="5.65079">
        <ele>858.8</ele>
        <time>2023-08-03T10:22:58Z</time>
      </trkpt>
      <trkpt lat="44.94742" lon="5.6508">
        <ele>858.8</ele>
        <time>2023-08-03T10:22:59Z</time>
      </trkpt>
      <trkpt lat="44.94744" lon="5.65083">
        <ele>858.6</ele>
        <time>2023-08-03T10:23:01Z</time>
      </trkpt>
      <trkpt lat="44.94744" lon="5.65083">
        <ele>858.6</ele>
        <time>2023-08-03T10:23:02Z</time>
      </trkpt>
      <trkpt lat="44.94748" lon="5.65085">
        <ele>858.5</ele>
        <time>2023-08-03T10:27:26Z</time>
      </trkpt>
      <trkpt lat="44.9475" lon="5.65086">
        <ele>858.4</ele>
        <time>2023-08-03T10:27:27Z</time>
      </trkpt>
      <trkpt lat="44.94756" lon="5.65094">
        <ele>858.1</ele>
        <time>2023-08-03T10:27:30Z</time>
      </trkpt>
      <trkpt lat="44.94762" lon="5.65099">
        <ele>857.8</ele>
        <time>2023-08-03T10:27:32Z</time>
      </trkpt>
      <trkpt lat="44.94766" lon="5.65102">
        <ele>857.7</ele>
        <time>2023-08-03T10:27:33Z</time>
      </trkpt>
      <trkpt lat="44.94783" lon="5.65115">
        <ele>856.9</ele>
        <time>2023-08-03T10:27:37Z</time>
      </trkpt>
      <trkpt lat="44.94788" lon="5.65118">
        <ele>856.7</ele>
        <time>2023-08-03T10:27:38Z</time>
      </trkpt>
      <trkpt lat="44.94799" lon="5.65125">
        <ele>856.3</ele>
        <time>2023-08-03T10:27:40Z</time>
      </trkpt>
      <trkpt lat="44.94823" lon="5.6514">
        <ele>855.4</ele>
        <time>2023-08-03T10:27:44Z</time>
      </trkpt>
      <trkpt lat="44.94829" lon="5.65143">
        <ele>855.1</ele>
        <time>2023-08-03T10:27:45Z</time>
      </trkpt>
      <trkpt lat="44.94847" lon="5.65155">
        <ele>854.4</ele>
        <time>2023-08-03T10:27:48Z</time>
      </trkpt>
      <trkpt lat="44.94868" lon="5.65163">
        <ele>853.8</ele>
        <time>2023-08-03T10:27:51Z</time>
      </trkpt>
      <trkpt lat="44.94903" lon="5.65174">
        <ele>852.5</ele>
        <time>2023-08-03T10:27:56Z</time>
      </trkpt>
      <trkpt lat="44.94909" lon="5.65179">
        <ele>852.2</ele>
        <time>2023-08-03T10:27:57Z</time>
      </trkpt>
      <trkpt lat="44.94933" lon="5.65199">
        <ele>851</ele>
        <time>2023-08-03T10:28:01Z</time>
      </trkpt>
      <trkpt lat="44.9495" lon="5.6522">
        <ele>850.1</ele>
        <time>2023-08-03T10:28:04Z</time>
      </trkpt>
      <trkpt lat="44.94961" lon="5.65235">
        <ele>849.6</ele>
        <time>2023-08-03T10:28:06Z</time>
      </trkpt>
      <trkpt lat="44.94967" lon="5.6524">
        <ele>849.4</ele>
        <time>2023-08-03T10:28:07Z</time>
      </trkpt>
      <trkpt lat="44.94974" lon="5.65245">
        <ele>849.2</ele>
        <time>2023-08-03T10:28:08Z</time>
      </trkpt>
      <trkpt lat="44.94989" lon="5.65249">
        <ele>849</ele>
        <time>2023-08-03T10:28:10Z</time>
      </trkpt>
      <trkpt lat="44.95004" lon="5.65252">
        <ele>848.7</ele>
        <time>2023-08-03T10:28:12Z</time>
      </trkpt>
      <trkpt lat="44.95015" lon="5.65265">
        <ele>848.5</ele>
        <time>2023-08-03T10:28:14Z</time>
      </trkpt>
      <trkpt lat="44.95015" lon="5.65281">
        <ele>848.3</ele>
        <time>2023-08-03T10:28:16Z</time>
      </trkpt>
      <trkpt lat="44.95008" lon="5.65292">
        <ele>848</ele>
        <time>2023-08-03T10:28:18Z</time>
      </trkpt>
      <trkpt lat="44.95003" lon="5.65295">
        <ele>848.1</ele>
        <time>2023-08-03T10:28:19Z</time>
      </trkpt>
      <trkpt lat="44.94999" lon="5.65304">
        <ele>848.5</ele>
        <time>2023-08-03T10:28:21Z</time>
      </trkpt>
      <trkpt lat="44.95" lon="5.6532">
        <ele>848.2</ele>
        <time>2023-08-03T10:28:24Z</time>
      </trkpt>
      <trkpt lat="44.95" lon="5.65326">
        <ele>847.9</ele>
        <time>2023-08-03T10:28:25Z</time>
      </trkpt>
      <trkpt lat="44.95" lon="5.65332">
        <ele>847.7</ele>
        <time>2023-08-03T10:28:26Z</time>
      </trkpt>
      <trkpt lat="44.94995" lon="5.65351">
        <ele>847.2</ele>
        <time>2023-08-03T10:28:29Z</time>
      </trkpt>
      <trkpt lat="44.94984" lon="5.65387">
        <ele>845.9</ele>
        <time>2023-08-03T10:28:34Z</time>
      </trkpt>
      <trkpt lat="44.94979" lon="5.65405">
        <ele>844.8</ele>
        <time>2023-08-03T10:28:36Z</time>
      </trkpt>
      <trkpt lat="44.9497" lon="5.65436">
        <ele>842.8</ele>
        <time>2023-08-03T10:28:39Z</time>
      </trkpt>
      <trkpt lat="44.94957" lon="5.65484">
        <ele>840.3</ele>
        <time>2023-08-03T10:28:43Z</time>
      </trkpt>
      <trkpt lat="44.94951" lon="5.65505">
        <ele>839.4</ele>
        <time>2023-08-03T10:28:45Z</time>
      </trkpt>
      <trkpt lat="44.94943" lon="5.65533">
        <ele>838.6</ele>
        <time>2023-08-03T10:28:48Z</time>
      </trkpt>
      <trkpt lat="44.94939" lon="5.65539">
        <ele>838.6</ele>
        <time>2023-08-03T10:28:49Z</time>
      </trkpt>
      <trkpt lat="44.94935" lon="5.65544">
        <ele>838.4</ele>
        <time>2023-08-03T10:28:50Z</time>
      </trkpt>
      <trkpt lat="44.94923" lon="5.6555">
        <ele>837.9</ele>
        <time>2023-08-03T10:28:52Z</time>
      </trkpt>
      <trkpt lat="44.94917" lon="5.6555">
        <ele>837.6</ele>
        <time>2023-08-03T10:28:53Z</time>
      </trkpt>
      <trkpt lat="44.94899" lon="5.65549">
        <ele>836.8</ele>
        <time>2023-08-03T10:28:56Z</time>
      </trkpt>
      <trkpt lat="44.94894" lon="5.65548">
        <ele>836.6</ele>
        <time>2023-08-03T10:28:57Z</time>
      </trkpt>
      <trkpt lat="44.94862" lon="5.65546">
        <ele>834.8</ele>
        <time>2023-08-03T10:29:03Z</time>
      </trkpt>
      <trkpt lat="44.94856" lon="5.65546">
        <ele>834.5</ele>
        <time>2023-08-03T10:29:04Z</time>
      </trkpt>
      <trkpt lat="44.94834" lon="5.65544">
        <ele>833.2</ele>
        <time>2023-08-03T10:29:09Z</time>
      </trkpt>
      <trkpt lat="44.94828" lon="5.65543">
        <ele>832.9</ele>
        <time>2023-08-03T10:29:13Z</time>
      </trkpt>
      <trkpt lat="44.94828" lon="5.65547">
        <ele>832.7</ele>
        <time>2023-08-03T10:29:37Z</time>
      </trkpt>
      <trkpt lat="44.94829" lon="5.65549">
        <ele>832.6</ele>
        <time>2023-08-03T10:29:39Z</time>
      </trkpt>
      <trkpt lat="44.94829" lon="5.65549">
        <ele>832.6</ele>
        <time>2023-08-03T10:29:40Z</time>
      </trkpt>
      <trkpt lat="44.94829" lon="5.65545">
        <ele>832.5</ele>
        <time>2023-08-03T10:29:45Z</time>
      </trkpt>
      <trkpt lat="44.94825" lon="5.65543">
        <ele>832.2</ele>
        <time>2023-08-03T10:29:47Z</time>
      </trkpt>
      <trkpt lat="44.94823" lon="5.65544">
        <ele>832.1</ele>
        <time>2023-08-03T10:29:48Z</time>
      </trkpt>
      <trkpt lat="44.94824" lon="5.65547">
        <ele>831.9</ele>
        <time>2023-08-03T10:29:50Z</time>
      </trkpt>
      <trkpt lat="44.94825" lon="5.65548">
        <ele>831.8</ele>
        <time>2023-08-03T10:29:51Z</time>
      </trkpt>
      <trkpt lat="44.94833" lon="5.65549">
        <ele>832.4</ele>
        <time>2023-08-03T10:29:55Z</time>
      </trkpt>
      <trkpt lat="44.9484" lon="5.65549">
        <ele>832.8</ele>
        <time>2023-08-03T10:29:58Z</time>
      </trkpt>
      <trkpt lat="44.94846" lon="5.6555">
        <ele>833.2</ele>
        <time>2023-08-03T10:30:00Z</time>
      </trkpt>
      <trkpt lat="44.94859" lon="5.65549">
        <ele>834</ele>
        <time>2023-08-03T10:30:04Z</time>
      </trkpt>
      <trkpt lat="44.9489" lon="5.6555">
        <ele>835.8</ele>
        <time>2023-08-03T10:30:14Z</time>
      </trkpt>
      <trkpt lat="44.94915" lon="5.6555">
        <ele>837.2</ele>
        <time>2023-08-03T10:30:21Z</time>
      </trkpt>
      <trkpt lat="44.94918" lon="5.6555">
        <ele>837.4</ele>
        <time>2023-08-03T10:30:22Z</time>
      </trkpt>
      <trkpt lat="44.9493" lon="5.65549">
        <ele>837.8</ele>
        <time>2023-08-03T10:30:25Z</time>
      </trkpt>
      <trkpt lat="44.94941" lon="5.6555">
        <ele>838.3</ele>
        <time>2023-08-03T10:30:28Z</time>
      </trkpt>
      <trkpt lat="44.94944" lon="5.65549">
        <ele>838.6</ele>
        <time>2023-08-03T10:30:29Z</time>
      </trkpt>
      <trkpt lat="44.94948" lon="5.65541">
        <ele>838.6</ele>
        <time>2023-08-03T10:30:31Z</time>
      </trkpt>
      <trkpt lat="44.94949" lon="5.65527">
        <ele>838.7</ele>
        <time>2023-08-03T10:30:34Z</time>
      </trkpt>
      <trkpt lat="44.94953" lon="5.65508">
        <ele>839.3</ele>
        <time>2023-08-03T10:30:38Z</time>
      </trkpt>
      <trkpt lat="44.9496" lon="5.65482">
        <ele>840.5</ele>
        <time>2023-08-03T10:30:44Z</time>
      </trkpt>
      <trkpt lat="44.94961" lon="5.65477">
        <ele>840.7</ele>
        <time>2023-08-03T10:30:45Z</time>
      </trkpt>
      <trkpt lat="44.94966" lon="5.65466">
        <ele>841.2</ele>
        <time>2023-08-03T10:30:48Z</time>
      </trkpt>
      <trkpt lat="44.94969" lon="5.65453">
        <ele>841.9</ele>
        <time>2023-08-03T10:30:51Z</time>
      </trkpt>
      <trkpt lat="44.9497" lon="5.65448">
        <ele>842.2</ele>
        <time>2023-08-03T10:30:52Z</time>
      </trkpt>
      <trkpt lat="44.94973" lon="5.65439">
        <ele>842.7</ele>
        <time>2023-08-03T10:30:54Z</time>
      </trkpt>
      <trkpt lat="44.94976" lon="5.65426">
        <ele>843.5</ele>
        <time>2023-08-03T10:30:57Z</time>
      </trkpt>
      <trkpt lat="44.94979" lon="5.65414">
        <ele>844.3</ele>
        <time>2023-08-03T10:31:00Z</time>
      </trkpt>
      <trkpt lat="44.94981" lon="5.65406">
        <ele>844.8</ele>
        <time>2023-08-03T10:31:02Z</time>
      </trkpt>
      <trkpt lat="44.94982" lon="5.65402">
        <ele>845</ele>
        <time>2023-08-03T10:31:03Z</time>
      </trkpt>
      <trkpt lat="44.94984" lon="5.65393">
        <ele>845.6</ele>
        <time>2023-08-03T10:31:05Z</time>
      </trkpt>
      <trkpt lat="44.94988" lon="5.6538">
        <ele>846.4</ele>
        <time>2023-08-03T10:31:08Z</time>
      </trkpt>
      <trkpt lat="44.94991" lon="5.65372">
        <ele>846.6</ele>
        <time>2023-08-03T10:31:10Z</time>
      </trkpt>
      <trkpt lat="44.94992" lon="5.65368">
        <ele>846.8</ele>
        <time>2023-08-03T10:31:11Z</time>
      </trkpt>
      <trkpt lat="44.94998" lon="5.65349">
        <ele>847.2</ele>
        <time>2023-08-03T10:31:15Z</time>
      </trkpt>
      <trkpt lat="44.95001" lon="5.65339">
        <ele>847.5</ele>
        <time>2023-08-03T10:31:17Z</time>
      </trkpt>
      <trkpt lat="44.95008" lon="5.65327">
        <ele>848</ele>
        <time>2023-08-03T10:31:20Z</time>
      </trkpt>
      <trkpt lat="44.95011" lon="5.65325">
        <ele>848</ele>
        <time>2023-08-03T10:31:21Z</time>
      </trkpt>
      <trkpt lat="44.95015" lon="5.65323">
        <ele>848</ele>
        <time>2023-08-03T10:31:22Z</time>
      </trkpt>
      <trkpt lat="44.95023" lon="5.65322">
        <ele>847.6</ele>
        <time>2023-08-03T10:31:24Z</time>
      </trkpt>
      <trkpt lat="44.95032" lon="5.65325">
        <ele>847.3</ele>
        <time>2023-08-03T10:31:26Z</time>
      </trkpt>
      <trkpt lat="44.95036" lon="5.65328">
        <ele>847.2</ele>
        <time>2023-08-03T10:31:27Z</time>
      </trkpt>
      <trkpt lat="44.9505" lon="5.65336">
        <ele>846.5</ele>
        <time>2023-08-03T10:31:30Z</time>
      </trkpt>
      <trkpt lat="44.95067" lon="5.65345">
        <ele>845.8</ele>
        <time>2023-08-03T10:31:33Z</time>
      </trkpt>
      <trkpt lat="44.95073" lon="5.65348">
        <ele>845.7</ele>
        <time>2023-08-03T10:31:34Z</time>
      </trkpt>
      <trkpt lat="44.95091" lon="5.65355">
        <ele>845.3</ele>
        <time>2023-08-03T10:31:37Z</time>
      </trkpt>
      <trkpt lat="44.95111" lon="5.65362">
        <ele>845</ele>
        <time>2023-08-03T10:31:40Z</time>
      </trkpt>
      <trkpt lat="44.95131" lon="5.65368">
        <ele>844.7</ele>
        <time>2023-08-03T10:31:43Z</time>
      </trkpt>
      <trkpt lat="44.95157" lon="5.65375">
        <ele>844.3</ele>
        <time>2023-08-03T10:31:47Z</time>
      </trkpt>
      <trkpt lat="44.95177" lon="5.65381">
        <ele>844</ele>
        <time>2023-08-03T10:31:50Z</time>
      </trkpt>
      <trkpt lat="44.95184" lon="5.65383">
        <ele>843.9</ele>
        <time>2023-08-03T10:31:51Z</time>
      </trkpt>
      <trkpt lat="44.95204" lon="5.65388">
        <ele>843.5</ele>
        <time>2023-08-03T10:31:54Z</time>
      </trkpt>
      <trkpt lat="44.95224" lon="5.65393">
        <ele>843.2</ele>
        <time>2023-08-03T10:31:57Z</time>
      </trkpt>
      <trkpt lat="44.95252" lon="5.65401">
        <ele>842.9</ele>
        <time>2023-08-03T10:32:01Z</time>
      </trkpt>
      <trkpt lat="44.95272" lon="5.65407">
        <ele>842.6</ele>
        <time>2023-08-03T10:32:04Z</time>
      </trkpt>
      <trkpt lat="44.95286" lon="5.65411">
        <ele>842.4</ele>
        <time>2023-08-03T10:32:06Z</time>
      </trkpt>
      <trkpt lat="44.95314" lon="5.65419">
        <ele>841.5</ele>
        <time>2023-08-03T10:32:10Z</time>
      </trkpt>
      <trkpt lat="44.95335" lon="5.65424">
        <ele>841.1</ele>
        <time>2023-08-03T10:32:13Z</time>
      </trkpt>
      <trkpt lat="44.95357" lon="5.6543">
        <ele>840.5</ele>
        <time>2023-08-03T10:32:16Z</time>
      </trkpt>
      <trkpt lat="44.9538" lon="5.65437">
        <ele>839.8</ele>
        <time>2023-08-03T10:32:19Z</time>
      </trkpt>
      <trkpt lat="44.95402" lon="5.65443">
        <ele>839.1</ele>
        <time>2023-08-03T10:32:22Z</time>
      </trkpt>
      <trkpt lat="44.95424" lon="5.6545">
        <ele>838.2</ele>
        <time>2023-08-03T10:32:25Z</time>
      </trkpt>
      <trkpt lat="44.95455" lon="5.65458">
        <ele>836.9</ele>
        <time>2023-08-03T10:32:29Z</time>
      </trkpt>
      <trkpt lat="44.95479" lon="5.65465">
        <ele>835.9</ele>
        <time>2023-08-03T10:32:32Z</time>
      </trkpt>
      <trkpt lat="44.95505" lon="5.65473">
        <ele>834.9</ele>
        <time>2023-08-03T10:32:35Z</time>
      </trkpt>
      <trkpt lat="44.95541" lon="5.65484">
        <ele>833.9</ele>
        <time>2023-08-03T10:32:39Z</time>
      </trkpt>
      <trkpt lat="44.95559" lon="5.65489">
        <ele>833.3</ele>
        <time>2023-08-03T10:32:41Z</time>
      </trkpt>
      <trkpt lat="44.95578" lon="5.65495">
        <ele>832.6</ele>
        <time>2023-08-03T10:32:43Z</time>
      </trkpt>
      <trkpt lat="44.95588" lon="5.65497">
        <ele>832.3</ele>
        <time>2023-08-03T10:32:44Z</time>
      </trkpt>
      <trkpt lat="44.95616" lon="5.65499">
        <ele>831.4</ele>
        <time>2023-08-03T10:32:47Z</time>
      </trkpt>
      <trkpt lat="44.95626" lon="5.65499">
        <ele>831.1</ele>
        <time>2023-08-03T10:32:48Z</time>
      </trkpt>
      <trkpt lat="44.95646" lon="5.65496">
        <ele>830.5</ele>
        <time>2023-08-03T10:32:50Z</time>
      </trkpt>
      <trkpt lat="44.95673" lon="5.65489">
        <ele>829.7</ele>
        <time>2023-08-03T10:32:53Z</time>
      </trkpt>
      <trkpt lat="44.95702" lon="5.65475">
        <ele>828.9</ele>
        <time>2023-08-03T10:32:56Z</time>
      </trkpt>
      <trkpt lat="44.95721" lon="5.65462">
        <ele>828.3</ele>
        <time>2023-08-03T10:32:58Z</time>
      </trkpt>
      <trkpt lat="44.95733" lon="5.65455">
        <ele>828</ele>
        <time>2023-08-03T10:32:59Z</time>
      </trkpt>
      <trkpt lat="44.95758" lon="5.65434">
        <ele>827</ele>
        <time>2023-08-03T10:33:02Z</time>
      </trkpt>
      <trkpt lat="44.95768" lon="5.65425">
        <ele>826.6</ele>
        <time>2023-08-03T10:33:03Z</time>
      </trkpt>
      <trkpt lat="44.95784" lon="5.65411">
        <ele>825.9</ele>
        <time>2023-08-03T10:33:05Z</time>
      </trkpt>
      <trkpt lat="44.958" lon="5.65394">
        <ele>825.3</ele>
        <time>2023-08-03T10:33:07Z</time>
      </trkpt>
      <trkpt lat="44.95824" lon="5.65368">
        <ele>824.5</ele>
        <time>2023-08-03T10:33:10Z</time>
      </trkpt>
      <trkpt lat="44.95832" lon="5.65358">
        <ele>824.3</ele>
        <time>2023-08-03T10:33:11Z</time>
      </trkpt>
      <trkpt lat="44.95847" lon="5.65339">
        <ele>823.7</ele>
        <time>2023-08-03T10:33:13Z</time>
      </trkpt>
      <trkpt lat="44.95862" lon="5.65318">
        <ele>823.1</ele>
        <time>2023-08-03T10:33:15Z</time>
      </trkpt>
      <trkpt lat="44.95869" lon="5.65307">
        <ele>822.8</ele>
        <time>2023-08-03T10:33:16Z</time>
      </trkpt>
      <trkpt lat="44.95876" lon="5.65296">
        <ele>822.6</ele>
        <time>2023-08-03T10:33:17Z</time>
      </trkpt>
      <trkpt lat="44.95883" lon="5.65285">
        <ele>822.3</ele>
        <time>2023-08-03T10:33:18Z</time>
      </trkpt>
      <trkpt lat="44.95904" lon="5.65249">
        <ele>821.4</ele>
        <time>2023-08-03T10:33:21Z</time>
      </trkpt>
      <trkpt lat="44.95916" lon="5.65224">
        <ele>820.7</ele>
        <time>2023-08-03T10:33:23Z</time>
      </trkpt>
      <trkpt lat="44.95922" lon="5.65211">
        <ele>820.4</ele>
        <time>2023-08-03T10:33:24Z</time>
      </trkpt>
      <trkpt lat="44.95927" lon="5.65199">
        <ele>820.1</ele>
        <time>2023-08-03T10:33:25Z</time>
      </trkpt>
      <trkpt lat="44.95944" lon="5.6516">
        <ele>819.3</ele>
        <time>2023-08-03T10:33:28Z</time>
      </trkpt>
      <trkpt lat="44.95954" lon="5.65134">
        <ele>818.8</ele>
        <time>2023-08-03T10:33:30Z</time>
      </trkpt>
      <trkpt lat="44.95964" lon="5.65108">
        <ele>818.4</ele>
        <time>2023-08-03T10:33:32Z</time>
      </trkpt>
      <trkpt lat="44.95979" lon="5.6507">
        <ele>818.3</ele>
        <time>2023-08-03T10:33:35Z</time>
      </trkpt>
      <trkpt lat="44.95989" lon="5.65048">
        <ele>818.4</ele>
        <time>2023-08-03T10:33:37Z</time>
      </trkpt>
      <trkpt lat="44.95994" lon="5.65039">
        <ele>818.6</ele>
        <time>2023-08-03T10:33:38Z</time>
      </trkpt>
      <trkpt lat="44.96001" lon="5.65031">
        <ele>818.7</ele>
        <time>2023-08-03T10:33:39Z</time>
      </trkpt>
      <trkpt lat="44.96015" lon="5.65021">
        <ele>818.8</ele>
        <time>2023-08-03T10:33:41Z</time>
      </trkpt>
      <trkpt lat="44.96021" lon="5.65015">
        <ele>818.4</ele>
        <time>2023-08-03T10:33:42Z</time>
      </trkpt>
      <trkpt lat="44.96026" lon="5.65007">
        <ele>818</ele>
        <time>2023-08-03T10:33:43Z</time>
      </trkpt>
      <trkpt lat="44.96029" lon="5.64998">
        <ele>817.8</ele>
        <time>2023-08-03T10:33:44Z</time>
      </trkpt>
      <trkpt lat="44.96028" lon="5.64978">
        <ele>817.8</ele>
        <time>2023-08-03T10:33:46Z</time>
      </trkpt>
      <trkpt lat="44.96026" lon="5.64969">
        <ele>817.8</ele>
        <time>2023-08-03T10:33:47Z</time>
      </trkpt>
      <trkpt lat="44.96019" lon="5.64951">
        <ele>817.4</ele>
        <time>2023-08-03T10:33:49Z</time>
      </trkpt>
      <trkpt lat="44.96016" lon="5.6494">
        <ele>816.9</ele>
        <time>2023-08-03T10:33:50Z</time>
      </trkpt>
      <trkpt lat="44.96015" lon="5.64928">
        <ele>816.3</ele>
        <time>2023-08-03T10:33:51Z</time>
      </trkpt>
      <trkpt lat="44.96016" lon="5.64905">
        <ele>815.4</ele>
        <time>2023-08-03T10:33:53Z</time>
      </trkpt>
      <trkpt lat="44.96019" lon="5.64883">
        <ele>814.8</ele>
        <time>2023-08-03T10:33:55Z</time>
      </trkpt>
      <trkpt lat="44.96024" lon="5.6486">
        <ele>814.2</ele>
        <time>2023-08-03T10:33:57Z</time>
      </trkpt>
      <trkpt lat="44.96033" lon="5.64838">
        <ele>813.4</ele>
        <time>2023-08-03T10:33:59Z</time>
      </trkpt>
      <trkpt lat="44.96052" lon="5.64806">
        <ele>811.9</ele>
        <time>2023-08-03T10:34:02Z</time>
      </trkpt>
      <trkpt lat="44.9606" lon="5.64798">
        <ele>811.3</ele>
        <time>2023-08-03T10:34:03Z</time>
      </trkpt>
      <trkpt lat="44.96068" lon="5.64789">
        <ele>810.8</ele>
        <time>2023-08-03T10:34:04Z</time>
      </trkpt>
      <trkpt lat="44.96103" lon="5.64756">
        <ele>808.7</ele>
        <time>2023-08-03T10:34:08Z</time>
      </trkpt>
      <trkpt lat="44.96112" lon="5.64748">
        <ele>808.2</ele>
        <time>2023-08-03T10:34:09Z</time>
      </trkpt>
      <trkpt lat="44.96133" lon="5.64729">
        <ele>807</ele>
        <time>2023-08-03T10:34:11Z</time>
      </trkpt>
      <trkpt lat="44.96161" lon="5.64703">
        <ele>805.2</ele>
        <time>2023-08-03T10:34:14Z</time>
      </trkpt>
      <trkpt lat="44.9618" lon="5.64685">
        <ele>803.9</ele>
        <time>2023-08-03T10:34:16Z</time>
      </trkpt>
      <trkpt lat="44.96188" lon="5.64678">
        <ele>803.4</ele>
        <time>2023-08-03T10:34:17Z</time>
      </trkpt>
      <trkpt lat="44.96199" lon="5.64668">
        <ele>802.6</ele>
        <time>2023-08-03T10:34:18Z</time>
      </trkpt>
      <trkpt lat="44.96228" lon="5.64641">
        <ele>800.7</ele>
        <time>2023-08-03T10:34:21Z</time>
      </trkpt>
      <trkpt lat="44.96256" lon="5.64615">
        <ele>798.9</ele>
        <time>2023-08-03T10:34:24Z</time>
      </trkpt>
      <trkpt lat="44.96273" lon="5.64599">
        <ele>797.9</ele>
        <time>2023-08-03T10:34:26Z</time>
      </trkpt>
      <trkpt lat="44.96292" lon="5.64582">
        <ele>796.6</ele>
        <time>2023-08-03T10:34:28Z</time>
      </trkpt>
      <trkpt lat="44.9632" lon="5.64556">
        <ele>794.8</ele>
        <time>2023-08-03T10:34:31Z</time>
      </trkpt>
      <trkpt lat="44.96349" lon="5.64529">
        <ele>793.1</ele>
        <time>2023-08-03T10:34:34Z</time>
      </trkpt>
      <trkpt lat="44.96369" lon="5.64511">
        <ele>791.8</ele>
        <time>2023-08-03T10:34:36Z</time>
      </trkpt>
      <trkpt lat="44.96378" lon="5.64502">
        <ele>791.2</ele>
        <time>2023-08-03T10:34:37Z</time>
      </trkpt>
      <trkpt lat="44.96398" lon="5.64484">
        <ele>790.1</ele>
        <time>2023-08-03T10:34:39Z</time>
      </trkpt>
      <trkpt lat="44.96418" lon="5.64468">
        <ele>789</ele>
        <time>2023-08-03T10:34:41Z</time>
      </trkpt>
      <trkpt lat="44.96439" lon="5.64452">
        <ele>788.1</ele>
        <time>2023-08-03T10:34:43Z</time>
      </trkpt>
      <trkpt lat="44.96449" lon="5.64445">
        <ele>787.8</ele>
        <time>2023-08-03T10:34:44Z</time>
      </trkpt>
      <trkpt lat="44.96479" lon="5.64424">
        <ele>786.6</ele>
        <time>2023-08-03T10:34:47Z</time>
      </trkpt>
      <trkpt lat="44.96498" lon="5.64412">
        <ele>786</ele>
        <time>2023-08-03T10:34:49Z</time>
      </trkpt>
      <trkpt lat="44.96508" lon="5.64406">
        <ele>785.6</ele>
        <time>2023-08-03T10:34:50Z</time>
      </trkpt>
      <trkpt lat="44.96528" lon="5.64395">
        <ele>785</ele>
        <time>2023-08-03T10:34:52Z</time>
      </trkpt>
      <trkpt lat="44.96558" lon="5.6438">
        <ele>784</ele>
        <time>2023-08-03T10:34:55Z</time>
      </trkpt>
      <trkpt lat="44.96578" lon="5.64371">
        <ele>783.4</ele>
        <time>2023-08-03T10:34:57Z</time>
      </trkpt>
      <trkpt lat="44.96608" lon="5.64358">
        <ele>782.7</ele>
        <time>2023-08-03T10:35:00Z</time>
      </trkpt>
      <trkpt lat="44.96647" lon="5.64345">
        <ele>781.9</ele>
        <time>2023-08-03T10:35:04Z</time>
      </trkpt>
      <trkpt lat="44.96658" lon="5.64342">
        <ele>781.8</ele>
        <time>2023-08-03T10:35:05Z</time>
      </trkpt>
      <trkpt lat="44.96677" lon="5.64337">
        <ele>781.3</ele>
        <time>2023-08-03T10:35:07Z</time>
      </trkpt>
      <trkpt lat="44.96733" lon="5.64324">
        <ele>779.4</ele>
        <time>2023-08-03T10:35:13Z</time>
      </trkpt>
      <trkpt lat="44.96771" lon="5.64316">
        <ele>777.4</ele>
        <time>2023-08-03T10:35:17Z</time>
      </trkpt>
      <trkpt lat="44.96791" lon="5.64312">
        <ele>776</ele>
        <time>2023-08-03T10:35:19Z</time>
      </trkpt>
      <trkpt lat="44.96832" lon="5.64306">
        <ele>773.1</ele>
        <time>2023-08-03T10:35:23Z</time>
      </trkpt>
      <trkpt lat="44.96888" lon="5.64304">
        <ele>768.9</ele>
        <time>2023-08-03T10:35:28Z</time>
      </trkpt>
      <trkpt lat="44.96948" lon="5.64312">
        <ele>764.6</ele>
        <time>2023-08-03T10:35:33Z</time>
      </trkpt>
      <trkpt lat="44.9696" lon="5.64315">
        <ele>763.6</ele>
        <time>2023-08-03T10:35:34Z</time>
      </trkpt>
      <trkpt lat="44.97021" lon="5.64334">
        <ele>758.8</ele>
        <time>2023-08-03T10:35:39Z</time>
      </trkpt>
      <trkpt lat="44.97046" lon="5.64342">
        <ele>756.8</ele>
        <time>2023-08-03T10:35:41Z</time>
      </trkpt>
      <trkpt lat="44.97113" lon="5.64366">
        <ele>752.7</ele>
        <time>2023-08-03T10:35:46Z</time>
      </trkpt>
      <trkpt lat="44.97176" lon="5.64389">
        <ele>750</ele>
        <time>2023-08-03T10:35:51Z</time>
      </trkpt>
      <trkpt lat="44.97236" lon="5.64411">
        <ele>747.6</ele>
        <time>2023-08-03T10:35:56Z</time>
      </trkpt>
      <trkpt lat="44.97284" lon="5.64428">
        <ele>745.2</ele>
        <time>2023-08-03T10:36:00Z</time>
      </trkpt>
      <trkpt lat="44.97345" lon="5.6445">
        <ele>741</ele>
        <time>2023-08-03T10:36:05Z</time>
      </trkpt>
      <trkpt lat="44.97396" lon="5.64467">
        <ele>737.4</ele>
        <time>2023-08-03T10:36:09Z</time>
      </trkpt>
      <trkpt lat="44.9741" lon="5.64471">
        <ele>736.5</ele>
        <time>2023-08-03T10:36:10Z</time>
      </trkpt>
      <trkpt lat="44.97464" lon="5.64483">
        <ele>732.4</ele>
        <time>2023-08-03T10:36:14Z</time>
      </trkpt>
      <trkpt lat="44.97506" lon="5.6449">
        <ele>729.4</ele>
        <time>2023-08-03T10:36:17Z</time>
      </trkpt>
      <trkpt lat="44.97534" lon="5.64493">
        <ele>727.3</ele>
        <time>2023-08-03T10:36:19Z</time>
      </trkpt>
      <trkpt lat="44.97548" lon="5.64495">
        <ele>726.3</ele>
        <time>2023-08-03T10:36:20Z</time>
      </trkpt>
      <trkpt lat="44.97605" lon="5.64502">
        <ele>722.2</ele>
        <time>2023-08-03T10:36:24Z</time>
      </trkpt>
      <trkpt lat="44.97619" lon="5.64503">
        <ele>721.2</ele>
        <time>2023-08-03T10:36:25Z</time>
      </trkpt>
      <trkpt lat="44.9766" lon="5.64505">
        <ele>718.5</ele>
        <time>2023-08-03T10:36:28Z</time>
      </trkpt>
      <trkpt lat="44.977" lon="5.64508">
        <ele>715.9</ele>
        <time>2023-08-03T10:36:31Z</time>
      </trkpt>
      <trkpt lat="44.97726" lon="5.64512">
        <ele>714.2</ele>
        <time>2023-08-03T10:36:33Z</time>
      </trkpt>
      <trkpt lat="44.9775" lon="5.64521">
        <ele>712.5</ele>
        <time>2023-08-03T10:36:35Z</time>
      </trkpt>
      <trkpt lat="44.97811" lon="5.64554">
        <ele>708.5</ele>
        <time>2023-08-03T10:36:40Z</time>
      </trkpt>
      <trkpt lat="44.9787" lon="5.6459">
        <ele>704.5</ele>
        <time>2023-08-03T10:36:45Z</time>
      </trkpt>
      <trkpt lat="44.97881" lon="5.64595">
        <ele>703.8</ele>
        <time>2023-08-03T10:36:46Z</time>
      </trkpt>
      <trkpt lat="44.97946" lon="5.64613">
        <ele>699.9</ele>
        <time>2023-08-03T10:36:51Z</time>
      </trkpt>
      <trkpt lat="44.97959" lon="5.64616">
        <ele>699.1</ele>
        <time>2023-08-03T10:36:52Z</time>
      </trkpt>
      <trkpt lat="44.98025" lon="5.64631">
        <ele>695.3</ele>
        <time>2023-08-03T10:36:57Z</time>
      </trkpt>
      <trkpt lat="44.98051" lon="5.64637">
        <ele>693.9</ele>
        <time>2023-08-03T10:36:59Z</time>
      </trkpt>
      <trkpt lat="44.98115" lon="5.64652">
        <ele>690.5</ele>
        <time>2023-08-03T10:37:04Z</time>
      </trkpt>
      <trkpt lat="44.98143" lon="5.64653">
        <ele>688.8</ele>
        <time>2023-08-03T10:37:06Z</time>
      </trkpt>
      <trkpt lat="44.98206" lon="5.64647">
        <ele>684.4</ele>
        <time>2023-08-03T10:37:11Z</time>
      </trkpt>
      <trkpt lat="44.98218" lon="5.64648">
        <ele>683.6</ele>
        <time>2023-08-03T10:37:12Z</time>
      </trkpt>
      <trkpt lat="44.98244" lon="5.64655">
        <ele>681.8</ele>
        <time>2023-08-03T10:37:14Z</time>
      </trkpt>
      <trkpt lat="44.98294" lon="5.64675">
        <ele>677.7</ele>
        <time>2023-08-03T10:37:18Z</time>
      </trkpt>
      <trkpt lat="44.98334" lon="5.64683">
        <ele>674.3</ele>
        <time>2023-08-03T10:37:21Z</time>
      </trkpt>
      <trkpt lat="44.98347" lon="5.64687">
        <ele>673.2</ele>
        <time>2023-08-03T10:37:22Z</time>
      </trkpt>
      <trkpt lat="44.98374" lon="5.647">
        <ele>671</ele>
        <time>2023-08-03T10:37:24Z</time>
      </trkpt>
      <trkpt lat="44.98398" lon="5.64716">
        <ele>668.9</ele>
        <time>2023-08-03T10:37:26Z</time>
      </trkpt>
      <trkpt lat="44.98461" lon="5.6475">
        <ele>663.5</ele>
        <time>2023-08-03T10:37:31Z</time>
      </trkpt>
      <trkpt lat="44.98488" lon="5.64759">
        <ele>661.4</ele>
        <time>2023-08-03T10:37:33Z</time>
      </trkpt>
      <trkpt lat="44.98514" lon="5.64763">
        <ele>659.3</ele>
        <time>2023-08-03T10:37:35Z</time>
      </trkpt>
      <trkpt lat="44.98568" lon="5.64772">
        <ele>655</ele>
        <time>2023-08-03T10:37:39Z</time>
      </trkpt>
      <trkpt lat="44.98581" lon="5.64777">
        <ele>653.8</ele>
        <time>2023-08-03T10:37:40Z</time>
      </trkpt>
      <trkpt lat="44.98607" lon="5.64789">
        <ele>651.7</ele>
        <time>2023-08-03T10:37:42Z</time>
      </trkpt>
      <trkpt lat="44.98658" lon="5.64817">
        <ele>647.9</ele>
        <time>2023-08-03T10:37:46Z</time>
      </trkpt>
      <trkpt lat="44.98694" lon="5.64839">
        <ele>645.5</ele>
        <time>2023-08-03T10:37:49Z</time>
      </trkpt>
      <trkpt lat="44.98707" lon="5.64843">
        <ele>644.8</ele>
        <time>2023-08-03T10:37:50Z</time>
      </trkpt>
      <trkpt lat="44.98719" lon="5.64849">
        <ele>644.1</ele>
        <time>2023-08-03T10:37:51Z</time>
      </trkpt>
      <trkpt lat="44.98732" lon="5.64856">
        <ele>643.5</ele>
        <time>2023-08-03T10:37:52Z</time>
      </trkpt>
      <trkpt lat="44.98755" lon="5.64872">
        <ele>642.2</ele>
        <time>2023-08-03T10:37:54Z</time>
      </trkpt>
      <trkpt lat="44.98777" lon="5.64886">
        <ele>641.1</ele>
        <time>2023-08-03T10:37:56Z</time>
      </trkpt>
      <trkpt lat="44.98789" lon="5.6489">
        <ele>640.9</ele>
        <time>2023-08-03T10:37:57Z</time>
      </trkpt>
      <trkpt lat="44.98801" lon="5.64891">
        <ele>640.9</ele>
        <time>2023-08-03T10:37:58Z</time>
      </trkpt>
      <trkpt lat="44.98812" lon="5.64891">
        <ele>641</ele>
        <time>2023-08-03T10:37:59Z</time>
      </trkpt>
      <trkpt lat="44.98822" lon="5.64889">
        <ele>641.2</ele>
        <time>2023-08-03T10:38:00Z</time>
      </trkpt>
      <trkpt lat="44.98852" lon="5.64885">
        <ele>639.4</ele>
        <time>2023-08-03T10:38:03Z</time>
      </trkpt>
      <trkpt lat="44.98861" lon="5.64887">
        <ele>638</ele>
        <time>2023-08-03T10:38:04Z</time>
      </trkpt>
      <trkpt lat="44.9887" lon="5.64893">
        <ele>636.4</ele>
        <time>2023-08-03T10:38:05Z</time>
      </trkpt>
      <trkpt lat="44.98889" lon="5.64906">
        <ele>634.8</ele>
        <time>2023-08-03T10:38:07Z</time>
      </trkpt>
      <trkpt lat="44.98899" lon="5.64912">
        <ele>634</ele>
        <time>2023-08-03T10:38:08Z</time>
      </trkpt>
      <trkpt lat="44.9893" lon="5.64927">
        <ele>631.7</ele>
        <time>2023-08-03T10:38:11Z</time>
      </trkpt>
      <trkpt lat="44.98953" lon="5.64936">
        <ele>630</ele>
        <time>2023-08-03T10:38:13Z</time>
      </trkpt>
      <trkpt lat="44.98988" lon="5.6495">
        <ele>627.5</ele>
        <time>2023-08-03T10:38:16Z</time>
      </trkpt>
      <trkpt lat="44.99037" lon="5.64965">
        <ele>624.2</ele>
        <time>2023-08-03T10:38:20Z</time>
      </trkpt>
      <trkpt lat="44.99087" lon="5.64969">
        <ele>621.4</ele>
        <time>2023-08-03T10:38:24Z</time>
      </trkpt>
      <trkpt lat="44.991" lon="5.64968">
        <ele>621.1</ele>
        <time>2023-08-03T10:38:25Z</time>
      </trkpt>
      <trkpt lat="44.99157" lon="5.64977">
        <ele>620.7</ele>
        <time>2023-08-03T10:38:30Z</time>
      </trkpt>
      <trkpt lat="44.99199" lon="5.64993">
        <ele>619.6</ele>
        <time>2023-08-03T10:38:34Z</time>
      </trkpt>
      <trkpt lat="44.99209" lon="5.64997">
        <ele>619.2</ele>
        <time>2023-08-03T10:38:35Z</time>
      </trkpt>
      <trkpt lat="44.99229" lon="5.65005">
        <ele>618.4</ele>
        <time>2023-08-03T10:38:37Z</time>
      </trkpt>
      <trkpt lat="44.99289" lon="5.65029">
        <ele>614.8</ele>
        <time>2023-08-03T10:38:43Z</time>
      </trkpt>
      <trkpt lat="44.9932" lon="5.65042">
        <ele>612.5</ele>
        <time>2023-08-03T10:38:46Z</time>
      </trkpt>
      <trkpt lat="44.99356" lon="5.65057">
        <ele>609.5</ele>
        <time>2023-08-03T10:38:49Z</time>
      </trkpt>
      <trkpt lat="44.99405" lon="5.65076">
        <ele>606.8</ele>
        <time>2023-08-03T10:38:53Z</time>
      </trkpt>
      <trkpt lat="44.9943" lon="5.65086">
        <ele>605.6</ele>
        <time>2023-08-03T10:38:55Z</time>
      </trkpt>
      <trkpt lat="44.99442" lon="5.6509">
        <ele>605.1</ele>
        <time>2023-08-03T10:38:56Z</time>
      </trkpt>
      <trkpt lat="44.99454" lon="5.65095">
        <ele>604.7</ele>
        <time>2023-08-03T10:38:57Z</time>
      </trkpt>
      <trkpt lat="44.99478" lon="5.65105">
        <ele>604</ele>
        <time>2023-08-03T10:38:59Z</time>
      </trkpt>
      <trkpt lat="44.99502" lon="5.65114">
        <ele>603.4</ele>
        <time>2023-08-03T10:39:01Z</time>
      </trkpt>
      <trkpt lat="44.99547" lon="5.65132">
        <ele>602.2</ele>
        <time>2023-08-03T10:39:05Z</time>
      </trkpt>
      <trkpt lat="44.9957" lon="5.65141">
        <ele>601.6</ele>
        <time>2023-08-03T10:39:07Z</time>
      </trkpt>
      <trkpt lat="44.99603" lon="5.65153">
        <ele>601</ele>
        <time>2023-08-03T10:39:10Z</time>
      </trkpt>
      <trkpt lat="44.99613" lon="5.65157">
        <ele>600.8</ele>
        <time>2023-08-03T10:39:11Z</time>
      </trkpt>
      <trkpt lat="44.99634" lon="5.65166">
        <ele>600</ele>
        <time>2023-08-03T10:39:13Z</time>
      </trkpt>
      <trkpt lat="44.99675" lon="5.65184">
        <ele>599</ele>
        <time>2023-08-03T10:39:17Z</time>
      </trkpt>
      <trkpt lat="44.99685" lon="5.65189">
        <ele>598.8</ele>
        <time>2023-08-03T10:39:18Z</time>
      </trkpt>
      <trkpt lat="44.99745" lon="5.65217">
        <ele>597.6</ele>
        <time>2023-08-03T10:39:24Z</time>
      </trkpt>
      <trkpt lat="44.99765" lon="5.65227">
        <ele>597.4</ele>
        <time>2023-08-03T10:39:26Z</time>
      </trkpt>
      <trkpt lat="44.99793" lon="5.65243">
        <ele>597.1</ele>
        <time>2023-08-03T10:39:29Z</time>
      </trkpt>
      <trkpt lat="44.99838" lon="5.65267">
        <ele>596.4</ele>
        <time>2023-08-03T10:39:34Z</time>
      </trkpt>
      <trkpt lat="44.99879" lon="5.6529">
        <ele>596</ele>
        <time>2023-08-03T10:39:39Z</time>
      </trkpt>
      <trkpt lat="44.99895" lon="5.65299">
        <ele>595.8</ele>
        <time>2023-08-03T10:39:41Z</time>
      </trkpt>
      <trkpt lat="44.9991" lon="5.65308">
        <ele>595.6</ele>
        <time>2023-08-03T10:39:43Z</time>
      </trkpt>
      <trkpt lat="44.99933" lon="5.65321">
        <ele>595.1</ele>
        <time>2023-08-03T10:39:46Z</time>
      </trkpt>
      <trkpt lat="44.99966" lon="5.65339">
        <ele>594.3</ele>
        <time>2023-08-03T10:39:50Z</time>
      </trkpt>
      <trkpt lat="44.99984" lon="5.65349">
        <ele>593.6</ele>
        <time>2023-08-03T10:39:52Z</time>
      </trkpt>
      <trkpt lat="45.0001" lon="5.65361">
        <ele>592.8</ele>
        <time>2023-08-03T10:39:55Z</time>
      </trkpt>
      <trkpt lat="45.00035" lon="5.65373">
        <ele>591.9</ele>
        <time>2023-08-03T10:39:58Z</time>
      </trkpt>
      <trkpt lat="45.00055" lon="5.65382">
        <ele>591.3</ele>
        <time>2023-08-03T10:40:00Z</time>
      </trkpt>
      <trkpt lat="45.00062" lon="5.65385">
        <ele>591</ele>
        <time>2023-08-03T10:40:01Z</time>
      </trkpt>
      <trkpt lat="45.00091" lon="5.65397">
        <ele>589.9</ele>
        <time>2023-08-03T10:40:04Z</time>
      </trkpt>
      <trkpt lat="45.00126" lon="5.65414">
        <ele>588.6</ele>
        <time>2023-08-03T10:40:08Z</time>
      </trkpt>
      <trkpt lat="45.00146" lon="5.65424">
        <ele>587.9</ele>
        <time>2023-08-03T10:40:10Z</time>
      </trkpt>
      <trkpt lat="45.00155" lon="5.65429">
        <ele>587.5</ele>
        <time>2023-08-03T10:40:11Z</time>
      </trkpt>
      <trkpt lat="45.00194" lon="5.65447">
        <ele>586.5</ele>
        <time>2023-08-03T10:40:15Z</time>
      </trkpt>
      <trkpt lat="45.00214" lon="5.65455">
        <ele>586</ele>
        <time>2023-08-03T10:40:17Z</time>
      </trkpt>
      <trkpt lat="45.00223" lon="5.65458">
        <ele>585.8</ele>
        <time>2023-08-03T10:40:18Z</time>
      </trkpt>
      <trkpt lat="45.00268" lon="5.65475">
        <ele>585</ele>
        <time>2023-08-03T10:40:23Z</time>
      </trkpt>
      <trkpt lat="45.00286" lon="5.6548">
        <ele>584.6</ele>
        <time>2023-08-03T10:40:25Z</time>
      </trkpt>
      <trkpt lat="45.00305" lon="5.65484">
        <ele>584.2</ele>
        <time>2023-08-03T10:40:27Z</time>
      </trkpt>
      <trkpt lat="45.00341" lon="5.65489">
        <ele>583</ele>
        <time>2023-08-03T10:40:31Z</time>
      </trkpt>
      <trkpt lat="45.0035" lon="5.65489">
        <ele>582.7</ele>
        <time>2023-08-03T10:40:32Z</time>
      </trkpt>
      <trkpt lat="45.00384" lon="5.65492">
        <ele>581.6</ele>
        <time>2023-08-03T10:40:36Z</time>
      </trkpt>
      <trkpt lat="45.00412" lon="5.65493">
        <ele>581.1</ele>
        <time>2023-08-03T10:40:39Z</time>
      </trkpt>
      <trkpt lat="45.00422" lon="5.65494">
        <ele>580.9</ele>
        <time>2023-08-03T10:40:40Z</time>
      </trkpt>
      <trkpt lat="45.00448" lon="5.65496">
        <ele>580.2</ele>
        <time>2023-08-03T10:40:43Z</time>
      </trkpt>
      <trkpt lat="45.00487" lon="5.655">
        <ele>579.2</ele>
        <time>2023-08-03T10:40:47Z</time>
      </trkpt>
      <trkpt lat="45.00495" lon="5.65501">
        <ele>579</ele>
        <time>2023-08-03T10:40:48Z</time>
      </trkpt>
      <trkpt lat="45.00523" lon="5.65503">
        <ele>578.1</ele>
        <time>2023-08-03T10:40:51Z</time>
      </trkpt>
      <trkpt lat="45.00561" lon="5.65507">
        <ele>576.7</ele>
        <time>2023-08-03T10:40:55Z</time>
      </trkpt>
      <trkpt lat="45.00573" lon="5.6551">
        <ele>576.2</ele>
        <time>2023-08-03T10:40:56Z</time>
      </trkpt>
      <trkpt lat="45.00583" lon="5.65512">
        <ele>575.7</ele>
        <time>2023-08-03T10:40:57Z</time>
      </trkpt>
      <trkpt lat="45.00591" lon="5.65515">
        <ele>575.3</ele>
        <time>2023-08-03T10:40:58Z</time>
      </trkpt>
      <trkpt lat="45.00612" lon="5.65524">
        <ele>574.2</ele>
        <time>2023-08-03T10:41:00Z</time>
      </trkpt>
      <trkpt lat="45.0063" lon="5.65533">
        <ele>573.2</ele>
        <time>2023-08-03T10:41:02Z</time>
      </trkpt>
      <trkpt lat="45.00641" lon="5.6554">
        <ele>572.5</ele>
        <time>2023-08-03T10:41:03Z</time>
      </trkpt>
      <trkpt lat="45.00676" lon="5.65564">
        <ele>570.7</ele>
        <time>2023-08-03T10:41:07Z</time>
      </trkpt>
      <trkpt lat="45.00688" lon="5.65571">
        <ele>570.1</ele>
        <time>2023-08-03T10:41:08Z</time>
      </trkpt>
      <trkpt lat="45.00706" lon="5.6558">
        <ele>569.3</ele>
        <time>2023-08-03T10:41:10Z</time>
      </trkpt>
      <trkpt lat="45.00749" lon="5.65601">
        <ele>567.3</ele>
        <time>2023-08-03T10:41:14Z</time>
      </trkpt>
      <trkpt lat="45.00757" lon="5.65604">
        <ele>566.9</ele>
        <time>2023-08-03T10:41:15Z</time>
      </trkpt>
      <trkpt lat="45.00768" lon="5.65608">
        <ele>566.4</ele>
        <time>2023-08-03T10:41:16Z</time>
      </trkpt>
      <trkpt lat="45.00801" lon="5.6562">
        <ele>564.8</ele>
        <time>2023-08-03T10:41:19Z</time>
      </trkpt>
      <trkpt lat="45.00847" lon="5.65637">
        <ele>562.2</ele>
        <time>2023-08-03T10:41:23Z</time>
      </trkpt>
      <trkpt lat="45.00856" lon="5.6564">
        <ele>561.8</ele>
        <time>2023-08-03T10:41:24Z</time>
      </trkpt>
      <trkpt lat="45.00878" lon="5.65649">
        <ele>560.7</ele>
        <time>2023-08-03T10:41:26Z</time>
      </trkpt>
      <trkpt lat="45.009" lon="5.65658">
        <ele>559.5</ele>
        <time>2023-08-03T10:41:28Z</time>
      </trkpt>
      <trkpt lat="45.00933" lon="5.65675">
        <ele>557.3</ele>
        <time>2023-08-03T10:41:31Z</time>
      </trkpt>
      <trkpt lat="45.00945" lon="5.65681">
        <ele>556.6</ele>
        <time>2023-08-03T10:41:32Z</time>
      </trkpt>
      <trkpt lat="45.0098" lon="5.657">
        <ele>554.4</ele>
        <time>2023-08-03T10:41:35Z</time>
      </trkpt>
      <trkpt lat="45.01014" lon="5.65718">
        <ele>553</ele>
        <time>2023-08-03T10:41:38Z</time>
      </trkpt>
      <trkpt lat="45.01047" lon="5.65736">
        <ele>551.9</ele>
        <time>2023-08-03T10:41:41Z</time>
      </trkpt>
      <trkpt lat="45.01057" lon="5.65741">
        <ele>551.6</ele>
        <time>2023-08-03T10:41:42Z</time>
      </trkpt>
      <trkpt lat="45.01068" lon="5.65747">
        <ele>551.3</ele>
        <time>2023-08-03T10:41:43Z</time>
      </trkpt>
      <trkpt lat="45.01079" lon="5.65752">
        <ele>551</ele>
        <time>2023-08-03T10:41:44Z</time>
      </trkpt>
      <trkpt lat="45.01122" lon="5.65768">
        <ele>549.3</ele>
        <time>2023-08-03T10:41:48Z</time>
      </trkpt>
      <trkpt lat="45.01142" lon="5.65775">
        <ele>548.6</ele>
        <time>2023-08-03T10:41:50Z</time>
      </trkpt>
      <trkpt lat="45.01163" lon="5.65782">
        <ele>547.7</ele>
        <time>2023-08-03T10:41:52Z</time>
      </trkpt>
      <trkpt lat="45.01192" lon="5.65788">
        <ele>546.4</ele>
        <time>2023-08-03T10:41:55Z</time>
      </trkpt>
      <trkpt lat="45.01216" lon="5.65792">
        <ele>545.4</ele>
        <time>2023-08-03T10:41:57Z</time>
      </trkpt>
      <trkpt lat="45.01226" lon="5.65793">
        <ele>544.9</ele>
        <time>2023-08-03T10:41:58Z</time>
      </trkpt>
      <trkpt lat="45.01259" lon="5.65795">
        <ele>543.3</ele>
        <time>2023-08-03T10:42:01Z</time>
      </trkpt>
      <trkpt lat="45.01292" lon="5.65795">
        <ele>541.8</ele>
        <time>2023-08-03T10:42:04Z</time>
      </trkpt>
      <trkpt lat="45.01314" lon="5.65795">
        <ele>541</ele>
        <time>2023-08-03T10:42:06Z</time>
      </trkpt>
      <trkpt lat="45.01335" lon="5.65795">
        <ele>540.1</ele>
        <time>2023-08-03T10:42:08Z</time>
      </trkpt>
      <trkpt lat="45.01378" lon="5.65796">
        <ele>538.2</ele>
        <time>2023-08-03T10:42:12Z</time>
      </trkpt>
      <trkpt lat="45.01388" lon="5.65797">
        <ele>537.8</ele>
        <time>2023-08-03T10:42:13Z</time>
      </trkpt>
      <trkpt lat="45.0143" lon="5.65805">
        <ele>535.8</ele>
        <time>2023-08-03T10:42:17Z</time>
      </trkpt>
      <trkpt lat="45.01441" lon="5.65808">
        <ele>535.4</ele>
        <time>2023-08-03T10:42:18Z</time>
      </trkpt>
      <trkpt lat="45.01451" lon="5.65812">
        <ele>534.9</ele>
        <time>2023-08-03T10:42:19Z</time>
      </trkpt>
      <trkpt lat="45.01483" lon="5.65825">
        <ele>533.5</ele>
        <time>2023-08-03T10:42:22Z</time>
      </trkpt>
      <trkpt lat="45.01504" lon="5.65833">
        <ele>532.5</ele>
        <time>2023-08-03T10:42:24Z</time>
      </trkpt>
      <trkpt lat="45.01536" lon="5.65845">
        <ele>531.1</ele>
        <time>2023-08-03T10:42:27Z</time>
      </trkpt>
      <trkpt lat="45.01558" lon="5.65853">
        <ele>530.1</ele>
        <time>2023-08-03T10:42:29Z</time>
      </trkpt>
      <trkpt lat="45.01578" lon="5.65862">
        <ele>529.1</ele>
        <time>2023-08-03T10:42:31Z</time>
      </trkpt>
      <trkpt lat="45.0162" lon="5.65877">
        <ele>527.2</ele>
        <time>2023-08-03T10:42:35Z</time>
      </trkpt>
      <trkpt lat="45.0164" lon="5.65886">
        <ele>526.3</ele>
        <time>2023-08-03T10:42:37Z</time>
      </trkpt>
      <trkpt lat="45.0165" lon="5.6589">
        <ele>525.8</ele>
        <time>2023-08-03T10:42:38Z</time>
      </trkpt>
      <trkpt lat="45.0167" lon="5.65899">
        <ele>525</ele>
        <time>2023-08-03T10:42:40Z</time>
      </trkpt>
      <trkpt lat="45.01709" lon="5.65919">
        <ele>523.2</ele>
        <time>2023-08-03T10:42:44Z</time>
      </trkpt>
      <trkpt lat="45.01719" lon="5.65925">
        <ele>522.8</ele>
        <time>2023-08-03T10:42:45Z</time>
      </trkpt>
      <trkpt lat="45.01748" lon="5.65944">
        <ele>521.2</ele>
        <time>2023-08-03T10:42:48Z</time>
      </trkpt>
      <trkpt lat="45.01787" lon="5.65976">
        <ele>519.4</ele>
        <time>2023-08-03T10:42:52Z</time>
      </trkpt>
      <trkpt lat="45.01835" lon="5.66014">
        <ele>517.4</ele>
        <time>2023-08-03T10:42:57Z</time>
      </trkpt>
      <trkpt lat="45.01845" lon="5.6602">
        <ele>516.9</ele>
        <time>2023-08-03T10:42:58Z</time>
      </trkpt>
      <trkpt lat="45.01866" lon="5.66032">
        <ele>515.9</ele>
        <time>2023-08-03T10:43:00Z</time>
      </trkpt>
      <trkpt lat="45.01888" lon="5.66042">
        <ele>514.7</ele>
        <time>2023-08-03T10:43:02Z</time>
      </trkpt>
      <trkpt lat="45.01911" lon="5.66051">
        <ele>513.5</ele>
        <time>2023-08-03T10:43:04Z</time>
      </trkpt>
      <trkpt lat="45.01923" lon="5.66054">
        <ele>512.9</ele>
        <time>2023-08-03T10:43:05Z</time>
      </trkpt>
      <trkpt lat="45.01959" lon="5.6606">
        <ele>510.9</ele>
        <time>2023-08-03T10:43:08Z</time>
      </trkpt>
      <trkpt lat="45.01984" lon="5.66064">
        <ele>509.4</ele>
        <time>2023-08-03T10:43:10Z</time>
      </trkpt>
      <trkpt lat="45.02009" lon="5.66066">
        <ele>507.9</ele>
        <time>2023-08-03T10:43:12Z</time>
      </trkpt>
      <trkpt lat="45.02047" lon="5.66071">
        <ele>505.9</ele>
        <time>2023-08-03T10:43:15Z</time>
      </trkpt>
      <trkpt lat="45.02083" lon="5.66077">
        <ele>504.3</ele>
        <time>2023-08-03T10:43:18Z</time>
      </trkpt>
      <trkpt lat="45.02095" lon="5.6608">
        <ele>503.8</ele>
        <time>2023-08-03T10:43:19Z</time>
      </trkpt>
      <trkpt lat="45.0214" lon="5.66097">
        <ele>501.9</ele>
        <time>2023-08-03T10:43:23Z</time>
      </trkpt>
      <trkpt lat="45.02181" lon="5.66111">
        <ele>500.1</ele>
        <time>2023-08-03T10:43:27Z</time>
      </trkpt>
      <trkpt lat="45.02194" lon="5.66114">
        <ele>499.5</ele>
        <time>2023-08-03T10:43:28Z</time>
      </trkpt>
      <trkpt lat="45.02214" lon="5.66118">
        <ele>498.8</ele>
        <time>2023-08-03T10:43:30Z</time>
      </trkpt>
      <trkpt lat="45.02273" lon="5.66129">
        <ele>496.4</ele>
        <time>2023-08-03T10:43:35Z</time>
      </trkpt>
      <trkpt lat="45.02285" lon="5.66131">
        <ele>495.9</ele>
        <time>2023-08-03T10:43:36Z</time>
      </trkpt>
      <trkpt lat="45.02319" lon="5.66142">
        <ele>494.4</ele>
        <time>2023-08-03T10:43:39Z</time>
      </trkpt>
      <trkpt lat="45.02341" lon="5.6615">
        <ele>493.4</ele>
        <time>2023-08-03T10:43:41Z</time>
      </trkpt>
      <trkpt lat="45.02364" lon="5.66158">
        <ele>492.3</ele>
        <time>2023-08-03T10:43:43Z</time>
      </trkpt>
      <trkpt lat="45.02397" lon="5.6617">
        <ele>490.7</ele>
        <time>2023-08-03T10:43:46Z</time>
      </trkpt>
      <trkpt lat="45.0244" lon="5.66186">
        <ele>488.9</ele>
        <time>2023-08-03T10:43:50Z</time>
      </trkpt>
      <trkpt lat="45.02472" lon="5.66198">
        <ele>487.5</ele>
        <time>2023-08-03T10:43:53Z</time>
      </trkpt>
      <trkpt lat="45.02482" lon="5.66201">
        <ele>487.1</ele>
        <time>2023-08-03T10:43:54Z</time>
      </trkpt>
      <trkpt lat="45.02514" lon="5.6621">
        <ele>485.7</ele>
        <time>2023-08-03T10:43:57Z</time>
      </trkpt>
      <trkpt lat="45.02537" lon="5.66212">
        <ele>484.8</ele>
        <time>2023-08-03T10:43:59Z</time>
      </trkpt>
      <trkpt lat="45.02559" lon="5.66211">
        <ele>483.9</ele>
        <time>2023-08-03T10:44:01Z</time>
      </trkpt>
      <trkpt lat="45.02605" lon="5.66212">
        <ele>482.2</ele>
        <time>2023-08-03T10:44:05Z</time>
      </trkpt>
      <trkpt lat="45.02628" lon="5.66213">
        <ele>481.2</ele>
        <time>2023-08-03T10:44:07Z</time>
      </trkpt>
      <trkpt lat="45.02639" lon="5.66213">
        <ele>480.8</ele>
        <time>2023-08-03T10:44:08Z</time>
      </trkpt>
      <trkpt lat="45.02684" lon="5.66221">
        <ele>479</ele>
        <time>2023-08-03T10:44:12Z</time>
      </trkpt>
      <trkpt lat="45.02696" lon="5.66225">
        <ele>478.5</ele>
        <time>2023-08-03T10:44:13Z</time>
      </trkpt>
      <trkpt lat="45.02728" lon="5.66239">
        <ele>477.1</ele>
        <time>2023-08-03T10:44:16Z</time>
      </trkpt>
      <trkpt lat="45.02749" lon="5.66252">
        <ele>475.8</ele>
        <time>2023-08-03T10:44:18Z</time>
      </trkpt>
      <trkpt lat="45.0277" lon="5.66265">
        <ele>474.4</ele>
        <time>2023-08-03T10:44:20Z</time>
      </trkpt>
      <trkpt lat="45.02813" lon="5.66295">
        <ele>471.3</ele>
        <time>2023-08-03T10:44:24Z</time>
      </trkpt>
      <trkpt lat="45.02835" lon="5.66312">
        <ele>469.8</ele>
        <time>2023-08-03T10:44:26Z</time>
      </trkpt>
      <trkpt lat="45.02846" lon="5.66321">
        <ele>469</ele>
        <time>2023-08-03T10:44:27Z</time>
      </trkpt>
      <trkpt lat="45.02868" lon="5.66339">
        <ele>467.6</ele>
        <time>2023-08-03T10:44:29Z</time>
      </trkpt>
      <trkpt lat="45.02919" lon="5.66385">
        <ele>464.3</ele>
        <time>2023-08-03T10:44:34Z</time>
      </trkpt>
      <trkpt lat="45.02977" lon="5.66427">
        <ele>460.9</ele>
        <time>2023-08-03T10:44:39Z</time>
      </trkpt>
      <trkpt lat="45.03025" lon="5.6644">
        <ele>458.5</ele>
        <time>2023-08-03T10:44:43Z</time>
      </trkpt>
      <trkpt lat="45.0305" lon="5.6644">
        <ele>458.1</ele>
        <time>2023-08-03T10:44:45Z</time>
      </trkpt>
      <trkpt lat="45.03062" lon="5.66438">
        <ele>457.3</ele>
        <time>2023-08-03T10:44:46Z</time>
      </trkpt>
      <trkpt lat="45.03074" lon="5.66434">
        <ele>456.4</ele>
        <time>2023-08-03T10:44:47Z</time>
      </trkpt>
      <trkpt lat="45.03121" lon="5.66411">
        <ele>453.3</ele>
        <time>2023-08-03T10:44:51Z</time>
      </trkpt>
      <trkpt lat="45.03133" lon="5.66404">
        <ele>452.6</ele>
        <time>2023-08-03T10:44:52Z</time>
      </trkpt>
      <trkpt lat="45.03167" lon="5.66382">
        <ele>451.4</ele>
        <time>2023-08-03T10:44:55Z</time>
      </trkpt>
      <trkpt lat="45.03177" lon="5.66373">
        <ele>450.5</ele>
        <time>2023-08-03T10:44:56Z</time>
      </trkpt>
      <trkpt lat="45.03187" lon="5.66361">
        <ele>449.5</ele>
        <time>2023-08-03T10:44:57Z</time>
      </trkpt>
      <trkpt lat="45.03204" lon="5.66334">
        <ele>447.8</ele>
        <time>2023-08-03T10:44:59Z</time>
      </trkpt>
      <trkpt lat="45.03211" lon="5.66319">
        <ele>447</ele>
        <time>2023-08-03T10:45:00Z</time>
      </trkpt>
      <trkpt lat="45.03237" lon="5.66257">
        <ele>444.4</ele>
        <time>2023-08-03T10:45:04Z</time>
      </trkpt>
      <trkpt lat="45.03255" lon="5.66212">
        <ele>443.3</ele>
        <time>2023-08-03T10:45:07Z</time>
      </trkpt>
      <trkpt lat="45.03274" lon="5.6617">
        <ele>441.4</ele>
        <time>2023-08-03T10:45:10Z</time>
      </trkpt>
      <trkpt lat="45.03282" lon="5.66157">
        <ele>440.8</ele>
        <time>2023-08-03T10:45:11Z</time>
      </trkpt>
      <trkpt lat="45.03291" lon="5.66146">
        <ele>440.2</ele>
        <time>2023-08-03T10:45:12Z</time>
      </trkpt>
      <trkpt lat="45.03301" lon="5.66136">
        <ele>439.6</ele>
        <time>2023-08-03T10:45:13Z</time>
      </trkpt>
      <trkpt lat="45.03312" lon="5.66129">
        <ele>439.1</ele>
        <time>2023-08-03T10:45:14Z</time>
      </trkpt>
      <trkpt lat="45.03332" lon="5.66121">
        <ele>438.3</ele>
        <time>2023-08-03T10:45:16Z</time>
      </trkpt>
      <trkpt lat="45.03357" lon="5.66122">
        <ele>437.4</ele>
        <time>2023-08-03T10:45:18Z</time>
      </trkpt>
      <trkpt lat="45.03366" lon="5.66125">
        <ele>437.1</ele>
        <time>2023-08-03T10:45:19Z</time>
      </trkpt>
      <trkpt lat="45.0338" lon="5.66132">
        <ele>436.5</ele>
        <time>2023-08-03T10:45:20Z</time>
      </trkpt>
      <trkpt lat="45.034" lon="5.6615">
        <ele>435.7</ele>
        <time>2023-08-03T10:45:22Z</time>
      </trkpt>
      <trkpt lat="45.03416" lon="5.66174">
        <ele>435</ele>
        <time>2023-08-03T10:45:24Z</time>
      </trkpt>
      <trkpt lat="45.03421" lon="5.66189">
        <ele>434.7</ele>
        <time>2023-08-03T10:45:25Z</time>
      </trkpt>
      <trkpt lat="45.03426" lon="5.66204">
        <ele>434.3</ele>
        <time>2023-08-03T10:45:26Z</time>
      </trkpt>
      <trkpt lat="45.0343" lon="5.66236">
        <ele>433.8</ele>
        <time>2023-08-03T10:45:28Z</time>
      </trkpt>
      <trkpt lat="45.03429" lon="5.66268">
        <ele>433.4</ele>
        <time>2023-08-03T10:45:30Z</time>
      </trkpt>
      <trkpt lat="45.03426" lon="5.66283">
        <ele>433.2</ele>
        <time>2023-08-03T10:45:31Z</time>
      </trkpt>
      <trkpt lat="45.03416" lon="5.66312">
        <ele>432.4</ele>
        <time>2023-08-03T10:45:33Z</time>
      </trkpt>
      <trkpt lat="45.03405" lon="5.66339">
        <ele>431.4</ele>
        <time>2023-08-03T10:45:35Z</time>
      </trkpt>
      <trkpt lat="45.03399" lon="5.66353">
        <ele>430.9</ele>
        <time>2023-08-03T10:45:36Z</time>
      </trkpt>
      <trkpt lat="45.03377" lon="5.66411">
        <ele>428.5</ele>
        <time>2023-08-03T10:45:40Z</time>
      </trkpt>
      <trkpt lat="45.03373" lon="5.66426">
        <ele>427.9</ele>
        <time>2023-08-03T10:45:41Z</time>
      </trkpt>
      <trkpt lat="45.0337" lon="5.66443">
        <ele>427</ele>
        <time>2023-08-03T10:45:42Z</time>
      </trkpt>
      <trkpt lat="45.03369" lon="5.6646">
        <ele>425.9</ele>
        <time>2023-08-03T10:45:43Z</time>
      </trkpt>
      <trkpt lat="45.0337" lon="5.66477">
        <ele>424.9</ele>
        <time>2023-08-03T10:45:44Z</time>
      </trkpt>
      <trkpt lat="45.03372" lon="5.66494">
        <ele>424</ele>
        <time>2023-08-03T10:45:45Z</time>
      </trkpt>
      <trkpt lat="45.03376" lon="5.6651">
        <ele>423.3</ele>
        <time>2023-08-03T10:45:46Z</time>
      </trkpt>
      <trkpt lat="45.0338" lon="5.66523">
        <ele>422.7</ele>
        <time>2023-08-03T10:45:47Z</time>
      </trkpt>
      <trkpt lat="45.03388" lon="5.66541">
        <ele>421.8</ele>
        <time>2023-08-03T10:45:48Z</time>
      </trkpt>
      <trkpt lat="45.03396" lon="5.66556">
        <ele>421</ele>
        <time>2023-08-03T10:45:49Z</time>
      </trkpt>
      <trkpt lat="45.03405" lon="5.66567">
        <ele>419.9</ele>
        <time>2023-08-03T10:45:50Z</time>
      </trkpt>
      <trkpt lat="45.03414" lon="5.66575">
        <ele>418.9</ele>
        <time>2023-08-03T10:45:51Z</time>
      </trkpt>
      <trkpt lat="45.0345" lon="5.66605">
        <ele>415.9</ele>
        <time>2023-08-03T10:45:54Z</time>
      </trkpt>
      <trkpt lat="45.03495" lon="5.66645">
        <ele>412.8</ele>
        <time>2023-08-03T10:45:58Z</time>
      </trkpt>
      <trkpt lat="45.03504" lon="5.66658">
        <ele>412</ele>
        <time>2023-08-03T10:45:59Z</time>
      </trkpt>
      <trkpt lat="45.03512" lon="5.66671">
        <ele>411.2</ele>
        <time>2023-08-03T10:46:00Z</time>
      </trkpt>
      <trkpt lat="45.03526" lon="5.66703">
        <ele>409.7</ele>
        <time>2023-08-03T10:46:02Z</time>
      </trkpt>
      <trkpt lat="45.03557" lon="5.66776">
        <ele>406.3</ele>
        <time>2023-08-03T10:46:07Z</time>
      </trkpt>
      <trkpt lat="45.03565" lon="5.66795">
        <ele>405.4</ele>
        <time>2023-08-03T10:46:08Z</time>
      </trkpt>
      <trkpt lat="45.03585" lon="5.66836">
        <ele>403.6</ele>
        <time>2023-08-03T10:46:11Z</time>
      </trkpt>
      <trkpt lat="45.03611" lon="5.66878">
        <ele>402.1</ele>
        <time>2023-08-03T10:46:14Z</time>
      </trkpt>
      <trkpt lat="45.03636" lon="5.66913">
        <ele>400.5</ele>
        <time>2023-08-03T10:46:17Z</time>
      </trkpt>
      <trkpt lat="45.03646" lon="5.66928">
        <ele>399.5</ele>
        <time>2023-08-03T10:46:18Z</time>
      </trkpt>
      <trkpt lat="45.03673" lon="5.66957">
        <ele>397.3</ele>
        <time>2023-08-03T10:46:21Z</time>
      </trkpt>
      <trkpt lat="45.03694" lon="5.66977">
        <ele>395.7</ele>
        <time>2023-08-03T10:46:23Z</time>
      </trkpt>
      <trkpt lat="45.03745" lon="5.6703">
        <ele>393.2</ele>
        <time>2023-08-03T10:46:28Z</time>
      </trkpt>
      <trkpt lat="45.03775" lon="5.67087">
        <ele>390.4</ele>
        <time>2023-08-03T10:46:32Z</time>
      </trkpt>
      <trkpt lat="45.03792" lon="5.67114">
        <ele>388.8</ele>
        <time>2023-08-03T10:46:34Z</time>
      </trkpt>
      <trkpt lat="45.03802" lon="5.67126">
        <ele>387.9</ele>
        <time>2023-08-03T10:46:35Z</time>
      </trkpt>
      <trkpt lat="45.03845" lon="5.67159">
        <ele>384.3</ele>
        <time>2023-08-03T10:46:39Z</time>
      </trkpt>
      <trkpt lat="45.0388" lon="5.67172">
        <ele>382.1</ele>
        <time>2023-08-03T10:46:42Z</time>
      </trkpt>
      <trkpt lat="45.03892" lon="5.67174">
        <ele>381.3</ele>
        <time>2023-08-03T10:46:43Z</time>
      </trkpt>
      <trkpt lat="45.0393" lon="5.67172">
        <ele>379</ele>
        <time>2023-08-03T10:46:46Z</time>
      </trkpt>
      <trkpt lat="45.03942" lon="5.67169">
        <ele>378.3</ele>
        <time>2023-08-03T10:46:47Z</time>
      </trkpt>
      <trkpt lat="45.03966" lon="5.67161">
        <ele>376.7</ele>
        <time>2023-08-03T10:46:49Z</time>
      </trkpt>
      <trkpt lat="45.0399" lon="5.67149">
        <ele>375.5</ele>
        <time>2023-08-03T10:46:51Z</time>
      </trkpt>
      <trkpt lat="45.04001" lon="5.6714">
        <ele>375</ele>
        <time>2023-08-03T10:46:52Z</time>
      </trkpt>
      <trkpt lat="45.04012" lon="5.6713">
        <ele>373.9</ele>
        <time>2023-08-03T10:46:53Z</time>
      </trkpt>
      <trkpt lat="45.04032" lon="5.67104">
        <ele>371.7</ele>
        <time>2023-08-03T10:46:55Z</time>
      </trkpt>
      <trkpt lat="45.04052" lon="5.67074">
        <ele>370</ele>
        <time>2023-08-03T10:46:57Z</time>
      </trkpt>
      <trkpt lat="45.04065" lon="5.67047">
        <ele>368.8</ele>
        <time>2023-08-03T10:46:59Z</time>
      </trkpt>
      <trkpt lat="45.04071" lon="5.67031">
        <ele>368.1</ele>
        <time>2023-08-03T10:47:00Z</time>
      </trkpt>
      <trkpt lat="45.04093" lon="5.66958">
        <ele>365</ele>
        <time>2023-08-03T10:47:04Z</time>
      </trkpt>
      <trkpt lat="45.04097" lon="5.66943">
        <ele>364.5</ele>
        <time>2023-08-03T10:47:05Z</time>
      </trkpt>
      <trkpt lat="45.0412" lon="5.66891">
        <ele>362.4</ele>
        <time>2023-08-03T10:47:08Z</time>
      </trkpt>
      <trkpt lat="45.04129" lon="5.66876">
        <ele>361.4</ele>
        <time>2023-08-03T10:47:09Z</time>
      </trkpt>
      <trkpt lat="45.04158" lon="5.66838">
        <ele>358.5</ele>
        <time>2023-08-03T10:47:12Z</time>
      </trkpt>
      <trkpt lat="45.04169" lon="5.66828">
        <ele>357.5</ele>
        <time>2023-08-03T10:47:13Z</time>
      </trkpt>
      <trkpt lat="45.04197" lon="5.66802">
        <ele>354.9</ele>
        <time>2023-08-03T10:47:16Z</time>
      </trkpt>
      <trkpt lat="45.0425" lon="5.66758">
        <ele>350.8</ele>
        <time>2023-08-03T10:47:21Z</time>
      </trkpt>
      <trkpt lat="45.04282" lon="5.6673">
        <ele>348.7</ele>
        <time>2023-08-03T10:47:24Z</time>
      </trkpt>
      <trkpt lat="45.04314" lon="5.66705">
        <ele>347.1</ele>
        <time>2023-08-03T10:47:27Z</time>
      </trkpt>
      <trkpt lat="45.04324" lon="5.667">
        <ele>346.6</ele>
        <time>2023-08-03T10:47:28Z</time>
      </trkpt>
      <trkpt lat="45.04351" lon="5.66693">
        <ele>345.3</ele>
        <time>2023-08-03T10:47:30Z</time>
      </trkpt>
      <trkpt lat="45.04363" lon="5.66693">
        <ele>344.6</ele>
        <time>2023-08-03T10:47:31Z</time>
      </trkpt>
      <trkpt lat="45.04388" lon="5.66698">
        <ele>343.3</ele>
        <time>2023-08-03T10:47:33Z</time>
      </trkpt>
      <trkpt lat="45.04447" lon="5.6672">
        <ele>340.8</ele>
        <time>2023-08-03T10:47:38Z</time>
      </trkpt>
      <trkpt lat="45.04471" lon="5.66729">
        <ele>339.7</ele>
        <time>2023-08-03T10:47:40Z</time>
      </trkpt>
      <trkpt lat="45.04482" lon="5.66734">
        <ele>339.1</ele>
        <time>2023-08-03T10:47:41Z</time>
      </trkpt>
      <trkpt lat="45.04542" lon="5.66755">
        <ele>336.4</ele>
        <time>2023-08-03T10:47:46Z</time>
      </trkpt>
      <trkpt lat="45.04565" lon="5.66764">
        <ele>335.1</ele>
        <time>2023-08-03T10:47:48Z</time>
      </trkpt>
      <trkpt lat="45.0459" lon="5.66773">
        <ele>333.7</ele>
        <time>2023-08-03T10:47:50Z</time>
      </trkpt>
      <trkpt lat="45.0465" lon="5.66796">
        <ele>330.2</ele>
        <time>2023-08-03T10:47:55Z</time>
      </trkpt>
      <trkpt lat="45.04698" lon="5.66814">
        <ele>327.7</ele>
        <time>2023-08-03T10:47:59Z</time>
      </trkpt>
      <trkpt lat="45.0476" lon="5.6683">
        <ele>324.8</ele>
        <time>2023-08-03T10:48:04Z</time>
      </trkpt>
      <trkpt lat="45.04773" lon="5.66831">
        <ele>324.4</ele>
        <time>2023-08-03T10:48:05Z</time>
      </trkpt>
      <trkpt lat="45.04829" lon="5.66838">
        <ele>322.4</ele>
        <time>2023-08-03T10:48:10Z</time>
      </trkpt>
      <trkpt lat="45.04839" lon="5.66842">
        <ele>322.3</ele>
        <time>2023-08-03T10:48:11Z</time>
      </trkpt>
      <trkpt lat="45.04848" lon="5.66848">
        <ele>322.2</ele>
        <time>2023-08-03T10:48:12Z</time>
      </trkpt>
      <trkpt lat="45.04865" lon="5.66863">
        <ele>322.1</ele>
        <time>2023-08-03T10:48:14Z</time>
      </trkpt>
      <trkpt lat="45.04885" lon="5.66888">
        <ele>322.1</ele>
        <time>2023-08-03T10:48:17Z</time>
      </trkpt>
      <trkpt lat="45.04897" lon="5.66906">
        <ele>321.7</ele>
        <time>2023-08-03T10:48:19Z</time>
      </trkpt>
      <trkpt lat="45.04902" lon="5.66913">
        <ele>321.6</ele>
        <time>2023-08-03T10:48:20Z</time>
      </trkpt>
      <trkpt lat="45.0492" lon="5.66942">
        <ele>321.3</ele>
        <time>2023-08-03T10:48:23Z</time>
      </trkpt>
      <trkpt lat="45.0493" lon="5.66959">
        <ele>321.1</ele>
        <time>2023-08-03T10:48:25Z</time>
      </trkpt>
      <trkpt lat="45.04935" lon="5.66969">
        <ele>320.9</ele>
        <time>2023-08-03T10:48:26Z</time>
      </trkpt>
      <trkpt lat="45.0495" lon="5.66996">
        <ele>320.6</ele>
        <time>2023-08-03T10:48:29Z</time>
      </trkpt>
      <trkpt lat="45.04966" lon="5.67023">
        <ele>320.2</ele>
        <time>2023-08-03T10:48:32Z</time>
      </trkpt>
      <trkpt lat="45.0497" lon="5.67032">
        <ele>320.1</ele>
        <time>2023-08-03T10:48:33Z</time>
      </trkpt>
      <trkpt lat="45.04991" lon="5.6707">
        <ele>319.6</ele>
        <time>2023-08-03T10:48:37Z</time>
      </trkpt>
      <trkpt lat="45.05006" lon="5.67098">
        <ele>319.2</ele>
        <time>2023-08-03T10:48:40Z</time>
      </trkpt>
      <trkpt lat="45.05021" lon="5.67126">
        <ele>319.1</ele>
        <time>2023-08-03T10:48:43Z</time>
      </trkpt>
      <trkpt lat="45.05031" lon="5.67143">
        <ele>319</ele>
        <time>2023-08-03T10:48:45Z</time>
      </trkpt>
      <trkpt lat="45.05036" lon="5.67152">
        <ele>318.9</ele>
        <time>2023-08-03T10:48:46Z</time>
      </trkpt>
      <trkpt lat="45.05052" lon="5.67182">
        <ele>318.5</ele>
        <time>2023-08-03T10:48:49Z</time>
      </trkpt>
      <trkpt lat="45.05062" lon="5.67199">
        <ele>318.2</ele>
        <time>2023-08-03T10:48:51Z</time>
      </trkpt>
      <trkpt lat="45.05078" lon="5.67228">
        <ele>317.9</ele>
        <time>2023-08-03T10:48:54Z</time>
      </trkpt>
      <trkpt lat="45.05088" lon="5.67247">
        <ele>317.6</ele>
        <time>2023-08-03T10:48:56Z</time>
      </trkpt>
      <trkpt lat="45.05093" lon="5.67257">
        <ele>317.5</ele>
        <time>2023-08-03T10:48:57Z</time>
      </trkpt>
      <trkpt lat="45.05109" lon="5.67287">
        <ele>317.2</ele>
        <time>2023-08-03T10:49:00Z</time>
      </trkpt>
      <trkpt lat="45.05125" lon="5.67316">
        <ele>316.9</ele>
        <time>2023-08-03T10:49:03Z</time>
      </trkpt>
      <trkpt lat="45.05136" lon="5.67338">
        <ele>316.7</ele>
        <time>2023-08-03T10:49:05Z</time>
      </trkpt>
      <trkpt lat="45.05146" lon="5.67357">
        <ele>316.5</ele>
        <time>2023-08-03T10:49:07Z</time>
      </trkpt>
      <trkpt lat="45.0515" lon="5.67368">
        <ele>316.5</ele>
        <time>2023-08-03T10:49:08Z</time>
      </trkpt>
      <trkpt lat="45.05155" lon="5.67378">
        <ele>316.4</ele>
        <time>2023-08-03T10:49:09Z</time>
      </trkpt>
      <trkpt lat="45.05169" lon="5.67408">
        <ele>316.2</ele>
        <time>2023-08-03T10:49:12Z</time>
      </trkpt>
      <trkpt lat="45.05182" lon="5.67439">
        <ele>315.8</ele>
        <time>2023-08-03T10:49:15Z</time>
      </trkpt>
      <trkpt lat="45.05191" lon="5.67461">
        <ele>315.6</ele>
        <time>2023-08-03T10:49:17Z</time>
      </trkpt>
      <trkpt lat="45.05207" lon="5.67504">
        <ele>315.2</ele>
        <time>2023-08-03T10:49:21Z</time>
      </trkpt>
      <trkpt lat="45.05215" lon="5.67526">
        <ele>314.9</ele>
        <time>2023-08-03T10:49:23Z</time>
      </trkpt>
      <trkpt lat="45.05221" lon="5.67547">
        <ele>314.6</ele>
        <time>2023-08-03T10:49:25Z</time>
      </trkpt>
      <trkpt lat="45.05227" lon="5.67574">
        <ele>314.2</ele>
        <time>2023-08-03T10:49:27Z</time>
      </trkpt>
      <trkpt lat="45.05231" lon="5.67595">
        <ele>314</ele>
        <time>2023-08-03T10:49:29Z</time>
      </trkpt>
      <trkpt lat="45.05235" lon="5.6761">
        <ele>313.8</ele>
        <time>2023-08-03T10:49:30Z</time>
      </trkpt>
      <trkpt lat="45.05244" lon="5.67646">
        <ele>313.3</ele>
        <time>2023-08-03T10:49:33Z</time>
      </trkpt>
      <trkpt lat="45.05247" lon="5.67656">
        <ele>313.2</ele>
        <time>2023-08-03T10:49:34Z</time>
      </trkpt>
      <trkpt lat="45.05255" lon="5.67679">
        <ele>312.9</ele>
        <time>2023-08-03T10:49:36Z</time>
      </trkpt>
      <trkpt lat="45.05259" lon="5.6769">
        <ele>312.8</ele>
        <time>2023-08-03T10:49:37Z</time>
      </trkpt>
      <trkpt lat="45.0526" lon="5.67701">
        <ele>312.7</ele>
        <time>2023-08-03T10:49:38Z</time>
      </trkpt>
      <trkpt lat="45.0526" lon="5.67712">
        <ele>312.7</ele>
        <time>2023-08-03T10:49:39Z</time>
      </trkpt>
      <trkpt lat="45.05257" lon="5.67721">
        <ele>312.7</ele>
        <time>2023-08-03T10:49:40Z</time>
      </trkpt>
      <trkpt lat="45.05252" lon="5.67727">
        <ele>312.7</ele>
        <time>2023-08-03T10:49:41Z</time>
      </trkpt>
      <trkpt lat="45.05246" lon="5.67734">
        <ele>312.6</ele>
        <time>2023-08-03T10:49:42Z</time>
      </trkpt>
      <trkpt lat="45.05242" lon="5.6774">
        <ele>312.4</ele>
        <time>2023-08-03T10:49:43Z</time>
      </trkpt>
      <trkpt lat="45.05241" lon="5.67747">
        <ele>312.3</ele>
        <time>2023-08-03T10:49:44Z</time>
      </trkpt>
      <trkpt lat="45.05244" lon="5.67763">
        <ele>312.2</ele>
        <time>2023-08-03T10:49:46Z</time>
      </trkpt>
      <trkpt lat="45.05245" lon="5.67773">
        <ele>312.1</ele>
        <time>2023-08-03T10:49:47Z</time>
      </trkpt>
      <trkpt lat="45.05243" lon="5.67785">
        <ele>312</ele>
        <time>2023-08-03T10:49:48Z</time>
      </trkpt>
      <trkpt lat="45.05241" lon="5.67791">
        <ele>312</ele>
        <time>2023-08-03T10:49:49Z</time>
      </trkpt>
      <trkpt lat="45.05237" lon="5.67799">
        <ele>312</ele>
        <time>2023-08-03T10:49:50Z</time>
      </trkpt>
      <trkpt lat="45.05232" lon="5.67809">
        <ele>311.9</ele>
        <time>2023-08-03T10:49:51Z</time>
      </trkpt>
      <trkpt lat="45.05228" lon="5.67816">
        <ele>311.8</ele>
        <time>2023-08-03T10:49:52Z</time>
      </trkpt>
      <trkpt lat="45.05215" lon="5.67844">
        <ele>311.3</ele>
        <time>2023-08-03T10:49:55Z</time>
      </trkpt>
      <trkpt lat="45.05206" lon="5.67862">
        <ele>311</ele>
        <time>2023-08-03T10:49:57Z</time>
      </trkpt>
      <trkpt lat="45.05202" lon="5.67872">
        <ele>310.9</ele>
        <time>2023-08-03T10:49:58Z</time>
      </trkpt>
      <trkpt lat="45.05192" lon="5.67893">
        <ele>310.6</ele>
        <time>2023-08-03T10:50:00Z</time>
      </trkpt>
      <trkpt lat="45.05184" lon="5.6791">
        <ele>310.4</ele>
        <time>2023-08-03T10:50:02Z</time>
      </trkpt>
      <trkpt lat="45.05175" lon="5.67929">
        <ele>310.2</ele>
        <time>2023-08-03T10:50:04Z</time>
      </trkpt>
      <trkpt lat="45.05162" lon="5.67959">
        <ele>310</ele>
        <time>2023-08-03T10:50:07Z</time>
      </trkpt>
      <trkpt lat="45.05142" lon="5.68">
        <ele>309.8</ele>
        <time>2023-08-03T10:50:11Z</time>
      </trkpt>
      <trkpt lat="45.05138" lon="5.6801">
        <ele>309.8</ele>
        <time>2023-08-03T10:50:12Z</time>
      </trkpt>
      <trkpt lat="45.05123" lon="5.68043">
        <ele>309.7</ele>
        <time>2023-08-03T10:50:15Z</time>
      </trkpt>
      <trkpt lat="45.05109" lon="5.68072">
        <ele>309.6</ele>
        <time>2023-08-03T10:50:18Z</time>
      </trkpt>
      <trkpt lat="45.0509" lon="5.68112">
        <ele>309.5</ele>
        <time>2023-08-03T10:50:22Z</time>
      </trkpt>
      <trkpt lat="45.05076" lon="5.68142">
        <ele>309.5</ele>
        <time>2023-08-03T10:50:25Z</time>
      </trkpt>
      <trkpt lat="45.05071" lon="5.68152">
        <ele>309.5</ele>
        <time>2023-08-03T10:50:26Z</time>
      </trkpt>
      <trkpt lat="45.05067" lon="5.68162">
        <ele>309.5</ele>
        <time>2023-08-03T10:50:27Z</time>
      </trkpt>
      <trkpt lat="45.05051" lon="5.68199">
        <ele>309.6</ele>
        <time>2023-08-03T10:50:31Z</time>
      </trkpt>
      <trkpt lat="45.05047" lon="5.68207">
        <ele>309.6</ele>
        <time>2023-08-03T10:50:32Z</time>
      </trkpt>
      <trkpt lat="45.05044" lon="5.68214">
        <ele>309.6</ele>
        <time>2023-08-03T10:50:33Z</time>
      </trkpt>
      <trkpt lat="45.05039" lon="5.68225">
        <ele>309.6</ele>
        <time>2023-08-03T10:50:35Z</time>
      </trkpt>
      <trkpt lat="45.05036" lon="5.6823">
        <ele>309.7</ele>
        <time>2023-08-03T10:50:36Z</time>
      </trkpt>
      <trkpt lat="45.05029" lon="5.68242">
        <ele>309.7</ele>
        <time>2023-08-03T10:50:38Z</time>
      </trkpt>
      <trkpt lat="45.05021" lon="5.68259">
        <ele>309.8</ele>
        <time>2023-08-03T10:50:41Z</time>
      </trkpt>
      <trkpt lat="45.05019" lon="5.68266">
        <ele>309.9</ele>
        <time>2023-08-03T10:50:42Z</time>
      </trkpt>
      <trkpt lat="45.05016" lon="5.68273">
        <ele>309.9</ele>
        <time>2023-08-03T10:50:43Z</time>
      </trkpt>
      <trkpt lat="45.05009" lon="5.68292">
        <ele>310</ele>
        <time>2023-08-03T10:50:46Z</time>
      </trkpt>
      <trkpt lat="45.05004" lon="5.68305">
        <ele>310</ele>
        <time>2023-08-03T10:50:48Z</time>
      </trkpt>
      <trkpt lat="45.05002" lon="5.68311">
        <ele>310</ele>
        <time>2023-08-03T10:50:50Z</time>
      </trkpt>
      <trkpt lat="45.05" lon="5.68312">
        <ele>310</ele>
        <time>2023-08-03T10:50:51Z</time>
      </trkpt>
      <trkpt lat="45.04999" lon="5.68313">
        <ele>310</ele>
        <time>2023-08-03T10:50:52Z</time>
      </trkpt>
      <trkpt lat="45.04994" lon="5.68325">
        <ele>310</ele>
        <time>2023-08-03T10:50:56Z</time>
      </trkpt>
      <trkpt lat="45.04989" lon="5.68339">
        <ele>310.1</ele>
        <time>2023-08-03T10:50:59Z</time>
      </trkpt>
      <trkpt lat="45.04987" lon="5.68344">
        <ele>310.1</ele>
        <time>2023-08-03T10:51:00Z</time>
      </trkpt>
      <trkpt lat="45.04985" lon="5.68349">
        <ele>310.1</ele>
        <time>2023-08-03T10:51:01Z</time>
      </trkpt>
      <trkpt lat="45.04982" lon="5.68354">
        <ele>310.1</ele>
        <time>2023-08-03T10:51:02Z</time>
      </trkpt>
      <trkpt lat="45.04978" lon="5.68362">
        <ele>310.1</ele>
        <time>2023-08-03T10:51:04Z</time>
      </trkpt>
      <trkpt lat="45.04975" lon="5.68367">
        <ele>310.2</ele>
        <time>2023-08-03T10:51:05Z</time>
      </trkpt>
      <trkpt lat="45.04972" lon="5.68372">
        <ele>310.2</ele>
        <time>2023-08-03T10:51:06Z</time>
      </trkpt>
      <trkpt lat="45.04968" lon="5.68376">
        <ele>310.3</ele>
        <time>2023-08-03T10:51:07Z</time>
      </trkpt>
      <trkpt lat="45.04961" lon="5.68388">
        <ele>310.4</ele>
        <time>2023-08-03T10:51:09Z</time>
      </trkpt>
      <trkpt lat="45.04955" lon="5.68397">
        <ele>310.5</ele>
        <time>2023-08-03T10:51:11Z</time>
      </trkpt>
      <trkpt lat="45.0495" lon="5.68403">
        <ele>310.6</ele>
        <time>2023-08-03T10:51:12Z</time>
      </trkpt>
      <trkpt lat="45.04939" lon="5.68418">
        <ele>311.1</ele>
        <time>2023-08-03T10:51:15Z</time>
      </trkpt>
      <trkpt lat="45.04928" lon="5.68432">
        <ele>311.6</ele>
        <time>2023-08-03T10:51:18Z</time>
      </trkpt>
      <trkpt lat="45.04925" lon="5.68437">
        <ele>311.7</ele>
        <time>2023-08-03T10:51:19Z</time>
      </trkpt>
      <trkpt lat="45.04922" lon="5.68441">
        <ele>311.9</ele>
        <time>2023-08-03T10:51:20Z</time>
      </trkpt>
      <trkpt lat="45.04906" lon="5.68461">
        <ele>312.7</ele>
        <time>2023-08-03T10:51:24Z</time>
      </trkpt>
      <trkpt lat="45.04884" lon="5.68489">
        <ele>313.9</ele>
        <time>2023-08-03T10:51:30Z</time>
      </trkpt>
      <trkpt lat="45.04876" lon="5.68499">
        <ele>314.3</ele>
        <time>2023-08-03T10:51:32Z</time>
      </trkpt>
      <trkpt lat="45.04865" lon="5.68514">
        <ele>315</ele>
        <time>2023-08-03T10:51:35Z</time>
      </trkpt>
      <trkpt lat="45.04845" lon="5.68536">
        <ele>315.9</ele>
        <time>2023-08-03T10:51:40Z</time>
      </trkpt>
      <trkpt lat="45.04842" lon="5.68542">
        <ele>316</ele>
        <time>2023-08-03T10:51:41Z</time>
      </trkpt>
      <trkpt lat="45.04835" lon="5.68552">
        <ele>316.4</ele>
        <time>2023-08-03T10:51:43Z</time>
      </trkpt>
      <trkpt lat="45.04826" lon="5.68567">
        <ele>316.9</ele>
        <time>2023-08-03T10:51:46Z</time>
      </trkpt>
      <trkpt lat="45.04817" lon="5.68583">
        <ele>317.5</ele>
        <time>2023-08-03T10:51:49Z</time>
      </trkpt>
      <trkpt lat="45.04814" lon="5.68588">
        <ele>317.6</ele>
        <time>2023-08-03T10:51:50Z</time>
      </trkpt>
      <trkpt lat="45.04811" lon="5.68593">
        <ele>317.7</ele>
        <time>2023-08-03T10:51:51Z</time>
      </trkpt>
      <trkpt lat="45.04796" lon="5.6862">
        <ele>318.5</ele>
        <time>2023-08-03T10:51:56Z</time>
      </trkpt>
      <trkpt lat="45.0479" lon="5.68631">
        <ele>318.9</ele>
        <time>2023-08-03T10:51:58Z</time>
      </trkpt>
      <trkpt lat="45.04776" lon="5.68655">
        <ele>319.6</ele>
        <time>2023-08-03T10:52:02Z</time>
      </trkpt>
      <trkpt lat="45.04767" lon="5.68673">
        <ele>320</ele>
        <time>2023-08-03T10:52:05Z</time>
      </trkpt>
      <trkpt lat="45.0476" lon="5.68686">
        <ele>320.2</ele>
        <time>2023-08-03T10:52:07Z</time>
      </trkpt>
      <trkpt lat="45.04756" lon="5.68692">
        <ele>320.3</ele>
        <time>2023-08-03T10:52:08Z</time>
      </trkpt>
      <trkpt lat="45.04745" lon="5.6871">
        <ele>320.6</ele>
        <time>2023-08-03T10:52:11Z</time>
      </trkpt>
      <trkpt lat="45.04738" lon="5.68723">
        <ele>320.6</ele>
        <time>2023-08-03T10:52:13Z</time>
      </trkpt>
      <trkpt lat="45.04727" lon="5.68743">
        <ele>320.8</ele>
        <time>2023-08-03T10:52:16Z</time>
      </trkpt>
      <trkpt lat="45.04716" lon="5.68764">
        <ele>320.8</ele>
        <time>2023-08-03T10:52:19Z</time>
      </trkpt>
      <trkpt lat="45.04709" lon="5.68779">
        <ele>320.8</ele>
        <time>2023-08-03T10:52:21Z</time>
      </trkpt>
      <trkpt lat="45.04699" lon="5.68803">
        <ele>320.9</ele>
        <time>2023-08-03T10:52:24Z</time>
      </trkpt>
      <trkpt lat="45.04688" lon="5.68828">
        <ele>320.8</ele>
        <time>2023-08-03T10:52:27Z</time>
      </trkpt>
      <trkpt lat="45.04685" lon="5.68836">
        <ele>320.8</ele>
        <time>2023-08-03T10:52:28Z</time>
      </trkpt>
      <trkpt lat="45.04681" lon="5.68845">
        <ele>320.8</ele>
        <time>2023-08-03T10:52:29Z</time>
      </trkpt>
      <trkpt lat="45.0467" lon="5.6887">
        <ele>320.8</ele>
        <time>2023-08-03T10:52:32Z</time>
      </trkpt>
      <trkpt lat="45.04662" lon="5.68888">
        <ele>320.9</ele>
        <time>2023-08-03T10:52:34Z</time>
      </trkpt>
      <trkpt lat="45.04655" lon="5.68906">
        <ele>320.9</ele>
        <time>2023-08-03T10:52:36Z</time>
      </trkpt>
      <trkpt lat="45.04651" lon="5.68916">
        <ele>320.8</ele>
        <time>2023-08-03T10:52:37Z</time>
      </trkpt>
      <trkpt lat="45.04643" lon="5.68935">
        <ele>320.7</ele>
        <time>2023-08-03T10:52:39Z</time>
      </trkpt>
      <trkpt lat="45.0463" lon="5.68963">
        <ele>320.6</ele>
        <time>2023-08-03T10:52:42Z</time>
      </trkpt>
      <trkpt lat="45.0462" lon="5.68981">
        <ele>320.5</ele>
        <time>2023-08-03T10:52:44Z</time>
      </trkpt>
      <trkpt lat="45.04615" lon="5.68989">
        <ele>320.4</ele>
        <time>2023-08-03T10:52:45Z</time>
      </trkpt>
      <trkpt lat="45.04603" lon="5.69006">
        <ele>320.1</ele>
        <time>2023-08-03T10:52:47Z</time>
      </trkpt>
      <trkpt lat="45.04584" lon="5.6903">
        <ele>319.2</ele>
        <time>2023-08-03T10:52:50Z</time>
      </trkpt>
      <trkpt lat="45.04565" lon="5.69054">
        <ele>318</ele>
        <time>2023-08-03T10:52:53Z</time>
      </trkpt>
      <trkpt lat="45.04552" lon="5.69072">
        <ele>317.1</ele>
        <time>2023-08-03T10:52:55Z</time>
      </trkpt>
      <trkpt lat="45.04545" lon="5.69081">
        <ele>316.7</ele>
        <time>2023-08-03T10:52:56Z</time>
      </trkpt>
      <trkpt lat="45.0454" lon="5.69089">
        <ele>316.4</ele>
        <time>2023-08-03T10:52:57Z</time>
      </trkpt>
      <trkpt lat="45.04534" lon="5.69098">
        <ele>316</ele>
        <time>2023-08-03T10:52:58Z</time>
      </trkpt>
      <trkpt lat="45.0453" lon="5.69108">
        <ele>315.6</ele>
        <time>2023-08-03T10:52:59Z</time>
      </trkpt>
      <trkpt lat="45.04526" lon="5.69117">
        <ele>315.3</ele>
        <time>2023-08-03T10:53:00Z</time>
      </trkpt>
      <trkpt lat="45.04517" lon="5.69145">
        <ele>314.4</ele>
        <time>2023-08-03T10:53:03Z</time>
      </trkpt>
      <trkpt lat="45.04509" lon="5.69173">
        <ele>313.8</ele>
        <time>2023-08-03T10:53:06Z</time>
      </trkpt>
      <trkpt lat="45.04499" lon="5.69211">
        <ele>313.2</ele>
        <time>2023-08-03T10:53:10Z</time>
      </trkpt>
      <trkpt lat="45.04496" lon="5.69228">
        <ele>312.9</ele>
        <time>2023-08-03T10:53:12Z</time>
      </trkpt>
      <trkpt lat="45.04494" lon="5.69237">
        <ele>312.8</ele>
        <time>2023-08-03T10:53:13Z</time>
      </trkpt>
      <trkpt lat="45.0449" lon="5.69262">
        <ele>312.4</ele>
        <time>2023-08-03T10:53:16Z</time>
      </trkpt>
      <trkpt lat="45.04489" lon="5.6927">
        <ele>312.3</ele>
        <time>2023-08-03T10:53:17Z</time>
      </trkpt>
      <trkpt lat="45.04488" lon="5.69278">
        <ele>312.1</ele>
        <time>2023-08-03T10:53:18Z</time>
      </trkpt>
      <trkpt lat="45.04489" lon="5.69294">
        <ele>311.9</ele>
        <time>2023-08-03T10:53:20Z</time>
      </trkpt>
      <trkpt lat="45.0449" lon="5.69302">
        <ele>311.7</ele>
        <time>2023-08-03T10:53:21Z</time>
      </trkpt>
      <trkpt lat="45.04495" lon="5.69317">
        <ele>311.4</ele>
        <time>2023-08-03T10:53:23Z</time>
      </trkpt>
      <trkpt lat="45.04499" lon="5.69333">
        <ele>311.1</ele>
        <time>2023-08-03T10:53:25Z</time>
      </trkpt>
      <trkpt lat="45.04502" lon="5.69349">
        <ele>310.8</ele>
        <time>2023-08-03T10:53:27Z</time>
      </trkpt>
      <trkpt lat="45.04502" lon="5.69358">
        <ele>310.6</ele>
        <time>2023-08-03T10:53:28Z</time>
      </trkpt>
      <trkpt lat="45.045" lon="5.69377">
        <ele>310.2</ele>
        <time>2023-08-03T10:53:30Z</time>
      </trkpt>
      <trkpt lat="45.04488" lon="5.69388">
        <ele>309.6</ele>
        <time>2023-08-03T10:53:32Z</time>
      </trkpt>
      <trkpt lat="45.04473" lon="5.69387">
        <ele>309.2</ele>
        <time>2023-08-03T10:53:34Z</time>
      </trkpt>
      <trkpt lat="45.04466" lon="5.69386">
        <ele>309.1</ele>
        <time>2023-08-03T10:53:35Z</time>
      </trkpt>
      <trkpt lat="45.04452" lon="5.69386">
        <ele>309</ele>
        <time>2023-08-03T10:53:37Z</time>
      </trkpt>
      <trkpt lat="45.04437" lon="5.69387">
        <ele>309.1</ele>
        <time>2023-08-03T10:53:39Z</time>
      </trkpt>
      <trkpt lat="45.0443" lon="5.69387">
        <ele>309.2</ele>
        <time>2023-08-03T10:53:40Z</time>
      </trkpt>
      <trkpt lat="45.04423" lon="5.69389">
        <ele>309.3</ele>
        <time>2023-08-03T10:53:41Z</time>
      </trkpt>
      <trkpt lat="45.04417" lon="5.69393">
        <ele>309.4</ele>
        <time>2023-08-03T10:53:42Z</time>
      </trkpt>
      <trkpt lat="45.04413" lon="5.69398">
        <ele>309.5</ele>
        <time>2023-08-03T10:53:43Z</time>
      </trkpt>
      <trkpt lat="45.04406" lon="5.69411">
        <ele>309.5</ele>
        <time>2023-08-03T10:53:45Z</time>
      </trkpt>
      <trkpt lat="45.04405" lon="5.69418">
        <ele>309.5</ele>
        <time>2023-08-03T10:53:46Z</time>
      </trkpt>
      <trkpt lat="45.04399" lon="5.69456">
        <ele>309.7</ele>
        <time>2023-08-03T10:53:51Z</time>
      </trkpt>
      <trkpt lat="45.04397" lon="5.69464">
        <ele>309.8</ele>
        <time>2023-08-03T10:53:52Z</time>
      </trkpt>
      <trkpt lat="45.04391" lon="5.69504">
        <ele>309.8</ele>
        <time>2023-08-03T10:53:57Z</time>
      </trkpt>
      <trkpt lat="45.04383" lon="5.69547">
        <ele>309.5</ele>
        <time>2023-08-03T10:54:02Z</time>
      </trkpt>
      <trkpt lat="45.04381" lon="5.69559">
        <ele>309.4</ele>
        <time>2023-08-03T10:54:03Z</time>
      </trkpt>
      <trkpt lat="45.04376" lon="5.69588">
        <ele>309</ele>
        <time>2023-08-03T10:54:06Z</time>
      </trkpt>
      <trkpt lat="45.04374" lon="5.69601">
        <ele>308.8</ele>
        <time>2023-08-03T10:54:07Z</time>
      </trkpt>
      <trkpt lat="45.04371" lon="5.69622">
        <ele>308.5</ele>
        <time>2023-08-03T10:54:09Z</time>
      </trkpt>
      <trkpt lat="45.04366" lon="5.69657">
        <ele>308</ele>
        <time>2023-08-03T10:54:12Z</time>
      </trkpt>
      <trkpt lat="45.04358" lon="5.69719">
        <ele>307.1</ele>
        <time>2023-08-03T10:54:17Z</time>
      </trkpt>
      <trkpt lat="45.04347" lon="5.69797">
        <ele>306.4</ele>
        <time>2023-08-03T10:54:24Z</time>
      </trkpt>
      <trkpt lat="45.04343" lon="5.69831">
        <ele>306.4</ele>
        <time>2023-08-03T10:54:27Z</time>
      </trkpt>
      <trkpt lat="45.04336" lon="5.69902">
        <ele>307.4</ele>
        <time>2023-08-03T10:54:34Z</time>
      </trkpt>
      <trkpt lat="45.04336" lon="5.69941">
        <ele>308.6</ele>
        <time>2023-08-03T10:54:39Z</time>
      </trkpt>
      <trkpt lat="45.04339" lon="5.69981">
        <ele>309.8</ele>
        <time>2023-08-03T10:54:45Z</time>
      </trkpt>
      <trkpt lat="45.0434" lon="5.69993">
        <ele>310.1</ele>
        <time>2023-08-03T10:54:47Z</time>
      </trkpt>
      <trkpt lat="45.04341" lon="5.70012">
        <ele>310.7</ele>
        <time>2023-08-03T10:54:50Z</time>
      </trkpt>
      <trkpt lat="45.04342" lon="5.70017">
        <ele>310.9</ele>
        <time>2023-08-03T10:54:51Z</time>
      </trkpt>
      <trkpt lat="45.04344" lon="5.70032">
        <ele>311.7</ele>
        <time>2023-08-03T10:54:54Z</time>
      </trkpt>
      <trkpt lat="45.04346" lon="5.70042">
        <ele>312.3</ele>
        <time>2023-08-03T10:54:56Z</time>
      </trkpt>
      <trkpt lat="45.04352" lon="5.70067">
        <ele>313.8</ele>
        <time>2023-08-03T10:55:01Z</time>
      </trkpt>
      <trkpt lat="45.04363" lon="5.70106">
        <ele>315.9</ele>
        <time>2023-08-03T10:55:08Z</time>
      </trkpt>
      <trkpt lat="45.04358" lon="5.70138">
        <ele>317.6</ele>
        <time>2023-08-03T10:55:14Z</time>
      </trkpt>
      <trkpt lat="45.04349" lon="5.70153">
        <ele>318.4</ele>
        <time>2023-08-03T10:55:18Z</time>
      </trkpt>
      <trkpt lat="45.04335" lon="5.70173">
        <ele>318.9</ele>
        <time>2023-08-03T10:55:24Z</time>
      </trkpt>
      <trkpt lat="45.0433" lon="5.7018">
        <ele>319.2</ele>
        <time>2023-08-03T10:55:26Z</time>
      </trkpt>
      <trkpt lat="45.04327" lon="5.70184">
        <ele>319.4</ele>
        <time>2023-08-03T10:55:27Z</time>
      </trkpt>
      <trkpt lat="45.04316" lon="5.70204">
        <ele>320.2</ele>
        <time>2023-08-03T10:55:32Z</time>
      </trkpt>
      <trkpt lat="45.04312" lon="5.70212">
        <ele>320.6</ele>
        <time>2023-08-03T10:55:34Z</time>
      </trkpt>
      <trkpt lat="45.04307" lon="5.70224">
        <ele>321.3</ele>
        <time>2023-08-03T10:55:37Z</time>
      </trkpt>
      <trkpt lat="45.043" lon="5.70241">
        <ele>322.1</ele>
        <time>2023-08-03T10:55:41Z</time>
      </trkpt>
      <trkpt lat="45.04296" lon="5.7025">
        <ele>322.4</ele>
        <time>2023-08-03T10:55:43Z</time>
      </trkpt>
      <trkpt lat="45.04294" lon="5.70254">
        <ele>322.6</ele>
        <time>2023-08-03T10:55:44Z</time>
      </trkpt>
      <trkpt lat="45.04289" lon="5.70267">
        <ele>323</ele>
        <time>2023-08-03T10:55:47Z</time>
      </trkpt>
      <trkpt lat="45.04281" lon="5.70285">
        <ele>323.8</ele>
        <time>2023-08-03T10:55:51Z</time>
      </trkpt>
      <trkpt lat="45.04279" lon="5.70297">
        <ele>324.4</ele>
        <time>2023-08-03T10:55:54Z</time>
      </trkpt>
      <trkpt lat="45.04278" lon="5.70302">
        <ele>324.7</ele>
        <time>2023-08-03T10:55:55Z</time>
      </trkpt>
      <trkpt lat="45.04278" lon="5.70322">
        <ele>325.3</ele>
        <time>2023-08-03T10:55:59Z</time>
      </trkpt>
      <trkpt lat="45.04279" lon="5.70331">
        <ele>325.5</ele>
        <time>2023-08-03T10:56:01Z</time>
      </trkpt>
      <trkpt lat="45.04279" lon="5.70336">
        <ele>325.6</ele>
        <time>2023-08-03T10:56:02Z</time>
      </trkpt>
      <trkpt lat="45.0428" lon="5.70356">
        <ele>326.4</ele>
        <time>2023-08-03T10:56:06Z</time>
      </trkpt>
      <trkpt lat="45.04281" lon="5.70372">
        <ele>327.1</ele>
        <time>2023-08-03T10:56:09Z</time>
      </trkpt>
      <trkpt lat="45.04282" lon="5.70392">
        <ele>328.1</ele>
        <time>2023-08-03T10:56:13Z</time>
      </trkpt>
      <trkpt lat="45.04286" lon="5.70407">
        <ele>328.9</ele>
        <time>2023-08-03T10:56:16Z</time>
      </trkpt>
      <trkpt lat="45.04287" lon="5.70411">
        <ele>329.1</ele>
        <time>2023-08-03T10:56:17Z</time>
      </trkpt>
      <trkpt lat="45.04298" lon="5.70426">
        <ele>330.1</ele>
        <time>2023-08-03T10:56:21Z</time>
      </trkpt>
      <trkpt lat="45.04304" lon="5.70431">
        <ele>330.5</ele>
        <time>2023-08-03T10:56:23Z</time>
      </trkpt>
      <trkpt lat="45.04311" lon="5.70435">
        <ele>330.9</ele>
        <time>2023-08-03T10:56:25Z</time>
      </trkpt>
      <trkpt lat="45.04325" lon="5.70442">
        <ele>331.7</ele>
        <time>2023-08-03T10:56:29Z</time>
      </trkpt>
      <trkpt lat="45.04337" lon="5.70445">
        <ele>332.4</ele>
        <time>2023-08-03T10:56:32Z</time>
      </trkpt>
      <trkpt lat="45.04347" lon="5.70449">
        <ele>333</ele>
        <time>2023-08-03T10:56:35Z</time>
      </trkpt>
      <trkpt lat="45.04356" lon="5.70455">
        <ele>333.6</ele>
        <time>2023-08-03T10:56:38Z</time>
      </trkpt>
      <trkpt lat="45.04359" lon="5.70458">
        <ele>333.8</ele>
        <time>2023-08-03T10:56:39Z</time>
      </trkpt>
      <trkpt lat="45.04367" lon="5.70469">
        <ele>334.3</ele>
        <time>2023-08-03T10:56:42Z</time>
      </trkpt>
      <trkpt lat="45.04371" lon="5.70476">
        <ele>334.6</ele>
        <time>2023-08-03T10:56:44Z</time>
      </trkpt>
      <trkpt lat="45.04374" lon="5.7048">
        <ele>334.8</ele>
        <time>2023-08-03T10:56:45Z</time>
      </trkpt>
      <trkpt lat="45.04376" lon="5.70484">
        <ele>335</ele>
        <time>2023-08-03T10:56:46Z</time>
      </trkpt>
      <trkpt lat="45.04387" lon="5.70504">
        <ele>336.4</ele>
        <time>2023-08-03T10:56:51Z</time>
      </trkpt>
      <trkpt lat="45.04392" lon="5.70519">
        <ele>337.2</ele>
        <time>2023-08-03T10:56:54Z</time>
      </trkpt>
      <trkpt lat="45.04396" lon="5.70529">
        <ele>337.3</ele>
        <time>2023-08-03T10:56:56Z</time>
      </trkpt>
      <trkpt lat="45.04408" lon="5.70557">
        <ele>337.7</ele>
        <time>2023-08-03T10:57:02Z</time>
      </trkpt>
      <trkpt lat="45.0441" lon="5.70561">
        <ele>337.8</ele>
        <time>2023-08-03T10:57:03Z</time>
      </trkpt>
      <trkpt lat="45.04423" lon="5.70592">
        <ele>339.2</ele>
        <time>2023-08-03T10:57:10Z</time>
      </trkpt>
      <trkpt lat="45.0443" lon="5.7061">
        <ele>340.1</ele>
        <time>2023-08-03T10:57:14Z</time>
      </trkpt>
      <trkpt lat="45.04442" lon="5.70635">
        <ele>341.6</ele>
        <time>2023-08-03T10:57:20Z</time>
      </trkpt>
      <trkpt lat="45.04444" lon="5.7064">
        <ele>341.8</ele>
        <time>2023-08-03T10:57:21Z</time>
      </trkpt>
      <trkpt lat="45.04452" lon="5.70658">
        <ele>342.9</ele>
        <time>2023-08-03T10:57:25Z</time>
      </trkpt>
      <trkpt lat="45.04459" lon="5.70677">
        <ele>343.8</ele>
        <time>2023-08-03T10:57:29Z</time>
      </trkpt>
      <trkpt lat="45.04456" lon="5.70695">
        <ele>344.5</ele>
        <time>2023-08-03T10:57:33Z</time>
      </trkpt>
      <trkpt lat="45.04453" lon="5.70698">
        <ele>344.7</ele>
        <time>2023-08-03T10:57:34Z</time>
      </trkpt>
      <trkpt lat="45.04445" lon="5.707">
        <ele>345.5</ele>
        <time>2023-08-03T10:57:36Z</time>
      </trkpt>
      <trkpt lat="45.04439" lon="5.70696">
        <ele>345.8</ele>
        <time>2023-08-03T10:57:38Z</time>
      </trkpt>
      <trkpt lat="45.04428" lon="5.70688">
        <ele>346.3</ele>
        <time>2023-08-03T10:57:41Z</time>
      </trkpt>
      <trkpt lat="45.04415" lon="5.70678">
        <ele>347.1</ele>
        <time>2023-08-03T10:57:45Z</time>
      </trkpt>
      <trkpt lat="45.04402" lon="5.70669">
        <ele>348</ele>
        <time>2023-08-03T10:57:49Z</time>
      </trkpt>
      <trkpt lat="45.0439" lon="5.7066">
        <ele>348.8</ele>
        <time>2023-08-03T10:57:53Z</time>
      </trkpt>
      <trkpt lat="45.04384" lon="5.70655">
        <ele>349.2</ele>
        <time>2023-08-03T10:57:55Z</time>
      </trkpt>
      <trkpt lat="45.04378" lon="5.70651">
        <ele>349.6</ele>
        <time>2023-08-03T10:57:57Z</time>
      </trkpt>
      <trkpt lat="45.04369" lon="5.70644">
        <ele>350.3</ele>
        <time>2023-08-03T10:58:00Z</time>
      </trkpt>
      <trkpt lat="45.04366" lon="5.70642">
        <ele>350.5</ele>
        <time>2023-08-03T10:58:01Z</time>
      </trkpt>
      <trkpt lat="45.04357" lon="5.70634">
        <ele>351.3</ele>
        <time>2023-08-03T10:58:04Z</time>
      </trkpt>
      <trkpt lat="45.04344" lon="5.70626">
        <ele>352.2</ele>
        <time>2023-08-03T10:58:08Z</time>
      </trkpt>
      <trkpt lat="45.04338" lon="5.70622">
        <ele>352.6</ele>
        <time>2023-08-03T10:58:10Z</time>
      </trkpt>
      <trkpt lat="45.0433" lon="5.70617">
        <ele>353.1</ele>
        <time>2023-08-03T10:58:13Z</time>
      </trkpt>
      <trkpt lat="45.04317" lon="5.70609">
        <ele>353.9</ele>
        <time>2023-08-03T10:58:17Z</time>
      </trkpt>
      <trkpt lat="45.04304" lon="5.70601">
        <ele>354.7</ele>
        <time>2023-08-03T10:58:21Z</time>
      </trkpt>
      <trkpt lat="45.04287" lon="5.70592">
        <ele>355.7</ele>
        <time>2023-08-03T10:58:26Z</time>
      </trkpt>
      <trkpt lat="45.04277" lon="5.70587">
        <ele>356.3</ele>
        <time>2023-08-03T10:58:29Z</time>
      </trkpt>
      <trkpt lat="45.04273" lon="5.70585">
        <ele>356.5</ele>
        <time>2023-08-03T10:58:30Z</time>
      </trkpt>
      <trkpt lat="45.04262" lon="5.70581">
        <ele>357.2</ele>
        <time>2023-08-03T10:58:33Z</time>
      </trkpt>
      <trkpt lat="45.04252" lon="5.70576">
        <ele>357.8</ele>
        <time>2023-08-03T10:58:36Z</time>
      </trkpt>
      <trkpt lat="45.04249" lon="5.70574">
        <ele>358</ele>
        <time>2023-08-03T10:58:37Z</time>
      </trkpt>
      <trkpt lat="45.04238" lon="5.70569">
        <ele>358.6</ele>
        <time>2023-08-03T10:58:40Z</time>
      </trkpt>
      <trkpt lat="45.04225" lon="5.70563">
        <ele>359.5</ele>
        <time>2023-08-03T10:58:44Z</time>
      </trkpt>
      <trkpt lat="45.04214" lon="5.70558">
        <ele>360.2</ele>
        <time>2023-08-03T10:58:47Z</time>
      </trkpt>
      <trkpt lat="45.04211" lon="5.70556">
        <ele>360.4</ele>
        <time>2023-08-03T10:58:48Z</time>
      </trkpt>
      <trkpt lat="45.04201" lon="5.70551">
        <ele>361</ele>
        <time>2023-08-03T10:58:51Z</time>
      </trkpt>
      <trkpt lat="45.04192" lon="5.70546">
        <ele>361.6</ele>
        <time>2023-08-03T10:58:54Z</time>
      </trkpt>
      <trkpt lat="45.04178" lon="5.7054">
        <ele>362.4</ele>
        <time>2023-08-03T10:58:58Z</time>
      </trkpt>
      <trkpt lat="45.04164" lon="5.70536">
        <ele>363.2</ele>
        <time>2023-08-03T10:59:02Z</time>
      </trkpt>
      <trkpt lat="45.0415" lon="5.70533">
        <ele>364.1</ele>
        <time>2023-08-03T10:59:06Z</time>
      </trkpt>
      <trkpt lat="45.04143" lon="5.70532">
        <ele>364.5</ele>
        <time>2023-08-03T10:59:08Z</time>
      </trkpt>
      <trkpt lat="45.04139" lon="5.70532">
        <ele>364.8</ele>
        <time>2023-08-03T10:59:09Z</time>
      </trkpt>
      <trkpt lat="45.04124" lon="5.70534">
        <ele>365.7</ele>
        <time>2023-08-03T10:59:13Z</time>
      </trkpt>
      <trkpt lat="45.04117" lon="5.70537">
        <ele>366.1</ele>
        <time>2023-08-03T10:59:15Z</time>
      </trkpt>
      <trkpt lat="45.04109" lon="5.70542">
        <ele>366.6</ele>
        <time>2023-08-03T10:59:17Z</time>
      </trkpt>
      <trkpt lat="45.04091" lon="5.70553">
        <ele>367.8</ele>
        <time>2023-08-03T10:59:22Z</time>
      </trkpt>
      <trkpt lat="45.04083" lon="5.70555">
        <ele>368.2</ele>
        <time>2023-08-03T10:59:24Z</time>
      </trkpt>
      <trkpt lat="45.04076" lon="5.70556">
        <ele>368.6</ele>
        <time>2023-08-03T10:59:26Z</time>
      </trkpt>
      <trkpt lat="45.0406" lon="5.70554">
        <ele>369.6</ele>
        <time>2023-08-03T10:59:30Z</time>
      </trkpt>
      <trkpt lat="45.04053" lon="5.70552">
        <ele>370.1</ele>
        <time>2023-08-03T10:59:32Z</time>
      </trkpt>
      <trkpt lat="45.04049" lon="5.70551">
        <ele>370.3</ele>
        <time>2023-08-03T10:59:33Z</time>
      </trkpt>
      <trkpt lat="45.04024" lon="5.70545">
        <ele>371.9</ele>
        <time>2023-08-03T10:59:40Z</time>
      </trkpt>
      <trkpt lat="45.0399" lon="5.70534">
        <ele>374</ele>
        <time>2023-08-03T10:59:49Z</time>
      </trkpt>
      <trkpt lat="45.03982" lon="5.70532">
        <ele>374.5</ele>
        <time>2023-08-03T10:59:51Z</time>
      </trkpt>
      <trkpt lat="45.03978" lon="5.70531">
        <ele>374.7</ele>
        <time>2023-08-03T10:59:52Z</time>
      </trkpt>
      <trkpt lat="45.0396" lon="5.70526">
        <ele>375.8</ele>
        <time>2023-08-03T10:59:57Z</time>
      </trkpt>
      <trkpt lat="45.03956" lon="5.70525">
        <ele>376</ele>
        <time>2023-08-03T10:59:58Z</time>
      </trkpt>
      <trkpt lat="45.03942" lon="5.70524">
        <ele>377</ele>
        <time>2023-08-03T11:00:02Z</time>
      </trkpt>
      <trkpt lat="45.03931" lon="5.70525">
        <ele>377.7</ele>
        <time>2023-08-03T11:00:05Z</time>
      </trkpt>
      <trkpt lat="45.03924" lon="5.7053">
        <ele>378.3</ele>
        <time>2023-08-03T11:00:07Z</time>
      </trkpt>
      <trkpt lat="45.0391" lon="5.70541">
        <ele>379.2</ele>
        <time>2023-08-03T11:00:11Z</time>
      </trkpt>
      <trkpt lat="45.03907" lon="5.70544">
        <ele>379.5</ele>
        <time>2023-08-03T11:00:12Z</time>
      </trkpt>
      <trkpt lat="45.03893" lon="5.70556">
        <ele>380.5</ele>
        <time>2023-08-03T11:00:16Z</time>
      </trkpt>
      <trkpt lat="45.03887" lon="5.7056">
        <ele>380.9</ele>
        <time>2023-08-03T11:00:18Z</time>
      </trkpt>
      <trkpt lat="45.0387" lon="5.70567">
        <ele>382</ele>
        <time>2023-08-03T11:00:23Z</time>
      </trkpt>
      <trkpt lat="45.03866" lon="5.70568">
        <ele>382.2</ele>
        <time>2023-08-03T11:00:24Z</time>
      </trkpt>
      <trkpt lat="45.03848" lon="5.70573">
        <ele>383.2</ele>
        <time>2023-08-03T11:00:29Z</time>
      </trkpt>
      <trkpt lat="45.03845" lon="5.70575">
        <ele>383.4</ele>
        <time>2023-08-03T11:00:30Z</time>
      </trkpt>
      <trkpt lat="45.03822" lon="5.7059">
        <ele>384.8</ele>
        <time>2023-08-03T11:00:37Z</time>
      </trkpt>
      <trkpt lat="45.03819" lon="5.70588">
        <ele>384.9</ele>
        <time>2023-08-03T11:00:38Z</time>
      </trkpt>
      <trkpt lat="45.03815" lon="5.7058">
        <ele>385.3</ele>
        <time>2023-08-03T11:00:40Z</time>
      </trkpt>
      <trkpt lat="45.03815" lon="5.70569">
        <ele>385.5</ele>
        <time>2023-08-03T11:00:42Z</time>
      </trkpt>
      <trkpt lat="45.03817" lon="5.70559">
        <ele>385.8</ele>
        <time>2023-08-03T11:00:44Z</time>
      </trkpt>
      <trkpt lat="45.03821" lon="5.70532">
        <ele>386.5</ele>
        <time>2023-08-03T11:00:49Z</time>
      </trkpt>
      <trkpt lat="45.03822" lon="5.70516">
        <ele>387</ele>
        <time>2023-08-03T11:00:52Z</time>
      </trkpt>
      <trkpt lat="45.03823" lon="5.7051">
        <ele>387.2</ele>
        <time>2023-08-03T11:00:53Z</time>
      </trkpt>
      <trkpt lat="45.03824" lon="5.7047">
        <ele>388.5</ele>
        <time>2023-08-03T11:01:01Z</time>
      </trkpt>
      <trkpt lat="45.03829" lon="5.70434">
        <ele>389.7</ele>
        <time>2023-08-03T11:01:08Z</time>
      </trkpt>
      <trkpt lat="45.03825" lon="5.70409">
        <ele>390.4</ele>
        <time>2023-08-03T11:01:13Z</time>
      </trkpt>
      <trkpt lat="45.03813" lon="5.70398">
        <ele>390.4</ele>
        <time>2023-08-03T11:01:17Z</time>
      </trkpt>
      <trkpt lat="45.03805" lon="5.70394">
        <ele>390.5</ele>
        <time>2023-08-03T11:01:21Z</time>
      </trkpt>
      <trkpt lat="45.0381" lon="5.70397">
        <ele>390.5</ele>
        <time>2023-08-03T11:01:23Z</time>
      </trkpt>
      <trkpt lat="45.03812" lon="5.704">
        <ele>390.5</ele>
        <time>2023-08-03T11:01:24Z</time>
      </trkpt>
      <trkpt lat="45.03814" lon="5.70406">
        <ele>390.6</ele>
        <time>2023-08-03T11:01:26Z</time>
      </trkpt>
      <trkpt lat="45.03814" lon="5.70409">
        <ele>390.6</ele>
        <time>2023-08-03T11:01:27Z</time>
      </trkpt>
      <trkpt lat="45.03812" lon="5.70416">
        <ele>390.7</ele>
        <time>2023-08-03T11:01:30Z</time>
      </trkpt>
      <trkpt lat="45.03812" lon="5.70416">
        <ele>390.7</ele>
        <time>2023-08-03T11:03:16Z</time>
      </trkpt>
      <trkpt lat="45.03812" lon="5.70406">
        <ele>390.7</ele>
        <time>2023-08-03T11:03:19Z</time>
      </trkpt>
      <trkpt lat="45.03811" lon="5.70403">
        <ele>390.8</ele>
        <time>2023-08-03T11:03:20Z</time>
      </trkpt>
      <trkpt lat="45.0381" lon="5.704">
        <ele>390.6</ele>
        <time>2023-08-03T11:03:22Z</time>
      </trkpt>
      <trkpt lat="45.0381" lon="5.70398">
        <ele>390.4</ele>
        <time>2023-08-03T11:03:23Z</time>
      </trkpt>
      <trkpt lat="45.0381" lon="5.70395">
        <ele>390.4</ele>
        <time>2023-08-03T11:03:24Z</time>
      </trkpt>
      <trkpt lat="45.03808" lon="5.70393">
        <ele>390.5</ele>
        <time>2023-08-03T11:03:25Z</time>
      </trkpt>
      <trkpt lat="45.03801" lon="5.70391">
        <ele>390.5</ele>
        <time>2023-08-03T11:03:28Z</time>
      </trkpt>
      <trkpt lat="45.03798" lon="5.7039">
        <ele>390.6</ele>
        <time>2023-08-03T11:03:29Z</time>
      </trkpt>
      <trkpt lat="45.03792" lon="5.70387">
        <ele>390.7</ele>
        <time>2023-08-03T11:03:31Z</time>
      </trkpt>
      <trkpt lat="45.03782" lon="5.70382">
        <ele>390.7</ele>
        <time>2023-08-03T11:03:34Z</time>
      </trkpt>
      <trkpt lat="45.03779" lon="5.7038">
        <ele>390.8</ele>
        <time>2023-08-03T11:03:35Z</time>
      </trkpt>
      <trkpt lat="45.03772" lon="5.70377">
        <ele>390.8</ele>
        <time>2023-08-03T11:03:37Z</time>
      </trkpt>
      <trkpt lat="45.0376" lon="5.70371">
        <ele>390.9</ele>
        <time>2023-08-03T11:03:40Z</time>
      </trkpt>
      <trkpt lat="45.03756" lon="5.70369">
        <ele>390.9</ele>
        <time>2023-08-03T11:03:41Z</time>
      </trkpt>
      <trkpt lat="45.03752" lon="5.70366">
        <ele>390.9</ele>
        <time>2023-08-03T11:03:42Z</time>
      </trkpt>
      <trkpt lat="45.03749" lon="5.70363">
        <ele>390.9</ele>
        <time>2023-08-03T11:03:43Z</time>
      </trkpt>
      <trkpt lat="45.03733" lon="5.70349">
        <ele>391</ele>
        <time>2023-08-03T11:03:47Z</time>
      </trkpt>
      <trkpt lat="45.03722" lon="5.70337">
        <ele>391.2</ele>
        <time>2023-08-03T11:03:50Z</time>
      </trkpt>
      <trkpt lat="45.03719" lon="5.70333">
        <ele>391.3</ele>
        <time>2023-08-03T11:03:51Z</time>
      </trkpt>
      <trkpt lat="45.03716" lon="5.70329">
        <ele>391.4</ele>
        <time>2023-08-03T11:03:52Z</time>
      </trkpt>
      <trkpt lat="45.03705" lon="5.70311">
        <ele>391.9</ele>
        <time>2023-08-03T11:03:56Z</time>
      </trkpt>
      <trkpt lat="45.03685" lon="5.70281">
        <ele>393.3</ele>
        <time>2023-08-03T11:04:03Z</time>
      </trkpt>
      <trkpt lat="45.03665" lon="5.70259">
        <ele>394.9</ele>
        <time>2023-08-03T11:04:10Z</time>
      </trkpt>
      <trkpt lat="45.03659" lon="5.70255">
        <ele>395.4</ele>
        <time>2023-08-03T11:04:12Z</time>
      </trkpt>
      <trkpt lat="45.03641" lon="5.7025">
        <ele>396.6</ele>
        <time>2023-08-03T11:04:17Z</time>
      </trkpt>
      <trkpt lat="45.03621" lon="5.70252">
        <ele>397.9</ele>
        <time>2023-08-03T11:04:23Z</time>
      </trkpt>
      <trkpt lat="45.03618" lon="5.70254">
        <ele>398.1</ele>
        <time>2023-08-03T11:04:24Z</time>
      </trkpt>
      <trkpt lat="45.03608" lon="5.70268">
        <ele>398.9</ele>
        <time>2023-08-03T11:04:28Z</time>
      </trkpt>
      <trkpt lat="45.03608" lon="5.70289">
        <ele>399.5</ele>
        <time>2023-08-03T11:04:32Z</time>
      </trkpt>
      <trkpt lat="45.03609" lon="5.70294">
        <ele>399.7</ele>
        <time>2023-08-03T11:04:33Z</time>
      </trkpt>
      <trkpt lat="45.03614" lon="5.70319">
        <ele>400.6</ele>
        <time>2023-08-03T11:04:38Z</time>
      </trkpt>
      <trkpt lat="45.03615" lon="5.70323">
        <ele>400.8</ele>
        <time>2023-08-03T11:04:39Z</time>
      </trkpt>
      <trkpt lat="45.03612" lon="5.70343">
        <ele>401.6</ele>
        <time>2023-08-03T11:04:43Z</time>
      </trkpt>
      <trkpt lat="45.03605" lon="5.70354">
        <ele>402.2</ele>
        <time>2023-08-03T11:04:46Z</time>
      </trkpt>
      <trkpt lat="45.036" lon="5.7036">
        <ele>402.6</ele>
        <time>2023-08-03T11:04:48Z</time>
      </trkpt>
      <trkpt lat="45.03584" lon="5.70368">
        <ele>403.5</ele>
        <time>2023-08-03T11:04:53Z</time>
      </trkpt>
      <trkpt lat="45.03577" lon="5.7037">
        <ele>403.9</ele>
        <time>2023-08-03T11:04:55Z</time>
      </trkpt>
      <trkpt lat="45.0357" lon="5.70372">
        <ele>404.2</ele>
        <time>2023-08-03T11:04:57Z</time>
      </trkpt>
      <trkpt lat="45.03551" lon="5.70384">
        <ele>405.1</ele>
        <time>2023-08-03T11:05:03Z</time>
      </trkpt>
      <trkpt lat="45.03533" lon="5.70408">
        <ele>405.8</ele>
        <time>2023-08-03T11:05:10Z</time>
      </trkpt>
      <trkpt lat="45.03515" lon="5.70439">
        <ele>406.5</ele>
        <time>2023-08-03T11:05:17Z</time>
      </trkpt>
      <trkpt lat="45.03494" lon="5.70473">
        <ele>407.2</ele>
        <time>2023-08-03T11:05:24Z</time>
      </trkpt>
      <trkpt lat="45.03491" lon="5.70478">
        <ele>407.4</ele>
        <time>2023-08-03T11:05:25Z</time>
      </trkpt>
      <trkpt lat="45.03483" lon="5.70486">
        <ele>407.6</ele>
        <time>2023-08-03T11:05:27Z</time>
      </trkpt>
      <trkpt lat="45.03472" lon="5.70497">
        <ele>408</ele>
        <time>2023-08-03T11:05:30Z</time>
      </trkpt>
      <trkpt lat="45.03464" lon="5.70503">
        <ele>408.2</ele>
        <time>2023-08-03T11:05:32Z</time>
      </trkpt>
      <trkpt lat="45.03451" lon="5.7051">
        <ele>408.6</ele>
        <time>2023-08-03T11:05:35Z</time>
      </trkpt>
      <trkpt lat="45.03434" lon="5.70514">
        <ele>409.2</ele>
        <time>2023-08-03T11:05:39Z</time>
      </trkpt>
      <trkpt lat="45.0343" lon="5.70514">
        <ele>409.4</ele>
        <time>2023-08-03T11:05:40Z</time>
      </trkpt>
      <trkpt lat="45.03412" lon="5.70511">
        <ele>410.2</ele>
        <time>2023-08-03T11:05:44Z</time>
      </trkpt>
      <trkpt lat="45.03404" lon="5.70509">
        <ele>410.7</ele>
        <time>2023-08-03T11:05:46Z</time>
      </trkpt>
      <trkpt lat="45.03399" lon="5.70507">
        <ele>410.9</ele>
        <time>2023-08-03T11:05:47Z</time>
      </trkpt>
      <trkpt lat="45.03392" lon="5.70503">
        <ele>411.3</ele>
        <time>2023-08-03T11:05:49Z</time>
      </trkpt>
      <trkpt lat="45.03376" lon="5.70493">
        <ele>412.2</ele>
        <time>2023-08-03T11:05:53Z</time>
      </trkpt>
      <trkpt lat="45.03373" lon="5.70491">
        <ele>412.4</ele>
        <time>2023-08-03T11:05:54Z</time>
      </trkpt>
      <trkpt lat="45.03361" lon="5.70485">
        <ele>413</ele>
        <time>2023-08-03T11:05:57Z</time>
      </trkpt>
      <trkpt lat="45.03353" lon="5.70483">
        <ele>413.4</ele>
        <time>2023-08-03T11:05:59Z</time>
      </trkpt>
      <trkpt lat="45.03344" lon="5.70483">
        <ele>413.9</ele>
        <time>2023-08-03T11:06:01Z</time>
      </trkpt>
      <trkpt lat="45.03315" lon="5.70489">
        <ele>415.3</ele>
        <time>2023-08-03T11:06:08Z</time>
      </trkpt>
      <trkpt lat="45.03307" lon="5.70492">
        <ele>415.8</ele>
        <time>2023-08-03T11:06:10Z</time>
      </trkpt>
      <trkpt lat="45.03281" lon="5.705">
        <ele>417.2</ele>
        <time>2023-08-03T11:06:16Z</time>
      </trkpt>
      <trkpt lat="45.0326" lon="5.70505">
        <ele>418.4</ele>
        <time>2023-08-03T11:06:21Z</time>
      </trkpt>
      <trkpt lat="45.0324" lon="5.70504">
        <ele>419.7</ele>
        <time>2023-08-03T11:06:26Z</time>
      </trkpt>
      <trkpt lat="45.03232" lon="5.70501">
        <ele>420.2</ele>
        <time>2023-08-03T11:06:28Z</time>
      </trkpt>
      <trkpt lat="45.03205" lon="5.70487">
        <ele>422.1</ele>
        <time>2023-08-03T11:06:35Z</time>
      </trkpt>
      <trkpt lat="45.03188" lon="5.70473">
        <ele>423.4</ele>
        <time>2023-08-03T11:06:40Z</time>
      </trkpt>
      <trkpt lat="45.0317" lon="5.70459">
        <ele>424.9</ele>
        <time>2023-08-03T11:06:45Z</time>
      </trkpt>
      <trkpt lat="45.03147" lon="5.70449">
        <ele>425.6</ele>
        <time>2023-08-03T11:06:51Z</time>
      </trkpt>
      <trkpt lat="45.03133" lon="5.70454">
        <ele>426.6</ele>
        <time>2023-08-03T11:06:55Z</time>
      </trkpt>
      <trkpt lat="45.0313" lon="5.70457">
        <ele>426.9</ele>
        <time>2023-08-03T11:06:56Z</time>
      </trkpt>
      <trkpt lat="45.03117" lon="5.7048">
        <ele>428.9</ele>
        <time>2023-08-03T11:07:02Z</time>
      </trkpt>
      <trkpt lat="45.03109" lon="5.70497">
        <ele>430.1</ele>
        <time>2023-08-03T11:07:06Z</time>
      </trkpt>
      <trkpt lat="45.03103" lon="5.70511">
        <ele>430.5</ele>
        <time>2023-08-03T11:07:09Z</time>
      </trkpt>
      <trkpt lat="45.03094" lon="5.70528">
        <ele>431.1</ele>
        <time>2023-08-03T11:07:13Z</time>
      </trkpt>
      <trkpt lat="45.03089" lon="5.70536">
        <ele>431.4</ele>
        <time>2023-08-03T11:07:15Z</time>
      </trkpt>
      <trkpt lat="45.03078" lon="5.7055">
        <ele>432</ele>
        <time>2023-08-03T11:07:19Z</time>
      </trkpt>
      <trkpt lat="45.03068" lon="5.70559">
        <ele>432.6</ele>
        <time>2023-08-03T11:07:22Z</time>
      </trkpt>
      <trkpt lat="45.03061" lon="5.70564">
        <ele>433.1</ele>
        <time>2023-08-03T11:07:24Z</time>
      </trkpt>
      <trkpt lat="45.0304" lon="5.70571">
        <ele>434.2</ele>
        <time>2023-08-03T11:07:29Z</time>
      </trkpt>
      <trkpt lat="45.03033" lon="5.70573">
        <ele>434.6</ele>
        <time>2023-08-03T11:07:31Z</time>
      </trkpt>
      <trkpt lat="45.03012" lon="5.70576">
        <ele>435.7</ele>
        <time>2023-08-03T11:07:36Z</time>
      </trkpt>
      <trkpt lat="45.02993" lon="5.70577">
        <ele>436.8</ele>
        <time>2023-08-03T11:07:41Z</time>
      </trkpt>
      <trkpt lat="45.02983" lon="5.70575">
        <ele>437.5</ele>
        <time>2023-08-03T11:07:44Z</time>
      </trkpt>
      <trkpt lat="45.02953" lon="5.70573">
        <ele>439.2</ele>
        <time>2023-08-03T11:07:52Z</time>
      </trkpt>
      <trkpt lat="45.02945" lon="5.70571">
        <ele>439.6</ele>
        <time>2023-08-03T11:07:54Z</time>
      </trkpt>
      <trkpt lat="45.02908" lon="5.70572">
        <ele>441.3</ele>
        <time>2023-08-03T11:08:03Z</time>
      </trkpt>
      <trkpt lat="45.02868" lon="5.70583">
        <ele>443.1</ele>
        <time>2023-08-03T11:08:13Z</time>
      </trkpt>
      <trkpt lat="45.02831" lon="5.70594">
        <ele>443.9</ele>
        <time>2023-08-03T11:08:22Z</time>
      </trkpt>
      <trkpt lat="45.02806" lon="5.70597">
        <ele>444.2</ele>
        <time>2023-08-03T11:08:27Z</time>
      </trkpt>
      <trkpt lat="45.02796" lon="5.70595">
        <ele>444.2</ele>
        <time>2023-08-03T11:08:29Z</time>
      </trkpt>
      <trkpt lat="45.02764" lon="5.70582">
        <ele>444.2</ele>
        <time>2023-08-03T11:08:35Z</time>
      </trkpt>
      <trkpt lat="45.02758" lon="5.7058">
        <ele>444.1</ele>
        <time>2023-08-03T11:08:36Z</time>
      </trkpt>
      <trkpt lat="45.02741" lon="5.70578">
        <ele>444</ele>
        <time>2023-08-03T11:08:39Z</time>
      </trkpt>
      <trkpt lat="45.02728" lon="5.70582">
        <ele>443.9</ele>
        <time>2023-08-03T11:08:41Z</time>
      </trkpt>
      <trkpt lat="45.02718" lon="5.70594">
        <ele>443.8</ele>
        <time>2023-08-03T11:08:43Z</time>
      </trkpt>
      <trkpt lat="45.02714" lon="5.70602">
        <ele>443.7</ele>
        <time>2023-08-03T11:08:44Z</time>
      </trkpt>
      <trkpt lat="45.02691" lon="5.70642">
        <ele>443.3</ele>
        <time>2023-08-03T11:08:49Z</time>
      </trkpt>
      <trkpt lat="45.02685" lon="5.70649">
        <ele>443.3</ele>
        <time>2023-08-03T11:08:50Z</time>
      </trkpt>
      <trkpt lat="45.02675" lon="5.70657">
        <ele>443.4</ele>
        <time>2023-08-03T11:08:52Z</time>
      </trkpt>
      <trkpt lat="45.02644" lon="5.70673">
        <ele>443.6</ele>
        <time>2023-08-03T11:08:57Z</time>
      </trkpt>
      <trkpt lat="45.02638" lon="5.70675">
        <ele>443.6</ele>
        <time>2023-08-03T11:08:58Z</time>
      </trkpt>
      <trkpt lat="45.02603" lon="5.70684">
        <ele>444.2</ele>
        <time>2023-08-03T11:09:04Z</time>
      </trkpt>
      <trkpt lat="45.02598" lon="5.70684">
        <ele>444.3</ele>
        <time>2023-08-03T11:09:05Z</time>
      </trkpt>
      <trkpt lat="45.02592" lon="5.70683">
        <ele>444.5</ele>
        <time>2023-08-03T11:09:06Z</time>
      </trkpt>
      <trkpt lat="45.02575" lon="5.70678">
        <ele>445.2</ele>
        <time>2023-08-03T11:09:09Z</time>
      </trkpt>
      <trkpt lat="45.0256" lon="5.70672">
        <ele>445.8</ele>
        <time>2023-08-03T11:09:12Z</time>
      </trkpt>
      <trkpt lat="45.02534" lon="5.70664">
        <ele>447</ele>
        <time>2023-08-03T11:09:17Z</time>
      </trkpt>
      <trkpt lat="45.02524" lon="5.70661">
        <ele>447.4</ele>
        <time>2023-08-03T11:09:19Z</time>
      </trkpt>
      <trkpt lat="45.02519" lon="5.70659">
        <ele>447.6</ele>
        <time>2023-08-03T11:09:20Z</time>
      </trkpt>
      <trkpt lat="45.02494" lon="5.70652">
        <ele>448.8</ele>
        <time>2023-08-03T11:09:25Z</time>
      </trkpt>
      <trkpt lat="45.02484" lon="5.7065">
        <ele>449.1</ele>
        <time>2023-08-03T11:09:27Z</time>
      </trkpt>
      <trkpt lat="45.02464" lon="5.70648">
        <ele>449.6</ele>
        <time>2023-08-03T11:09:31Z</time>
      </trkpt>
      <trkpt lat="45.02453" lon="5.70649">
        <ele>449.8</ele>
        <time>2023-08-03T11:09:33Z</time>
      </trkpt>
      <trkpt lat="45.02431" lon="5.70649">
        <ele>450.3</ele>
        <time>2023-08-03T11:09:37Z</time>
      </trkpt>
      <trkpt lat="45.0242" lon="5.70648">
        <ele>450.6</ele>
        <time>2023-08-03T11:09:39Z</time>
      </trkpt>
      <trkpt lat="45.02393" lon="5.70642">
        <ele>451.5</ele>
        <time>2023-08-03T11:09:44Z</time>
      </trkpt>
      <trkpt lat="45.02368" lon="5.70634">
        <ele>452.5</ele>
        <time>2023-08-03T11:09:49Z</time>
      </trkpt>
      <trkpt lat="45.02362" lon="5.70632">
        <ele>452.8</ele>
        <time>2023-08-03T11:09:50Z</time>
      </trkpt>
      <trkpt lat="45.02337" lon="5.70622">
        <ele>454.1</ele>
        <time>2023-08-03T11:09:55Z</time>
      </trkpt>
      <trkpt lat="45.0232" lon="5.70615">
        <ele>454.9</ele>
        <time>2023-08-03T11:09:59Z</time>
      </trkpt>
      <trkpt lat="45.02315" lon="5.70613">
        <ele>455.1</ele>
        <time>2023-08-03T11:10:00Z</time>
      </trkpt>
      <trkpt lat="45.02311" lon="5.70612">
        <ele>455.3</ele>
        <time>2023-08-03T11:10:01Z</time>
      </trkpt>
      <trkpt lat="45.02296" lon="5.70606">
        <ele>456</ele>
        <time>2023-08-03T11:10:05Z</time>
      </trkpt>
      <trkpt lat="45.02292" lon="5.70605">
        <ele>456.2</ele>
        <time>2023-08-03T11:10:06Z</time>
      </trkpt>
      <trkpt lat="45.02272" lon="5.706">
        <ele>457.7</ele>
        <time>2023-08-03T11:10:11Z</time>
      </trkpt>
      <trkpt lat="45.02268" lon="5.706">
        <ele>458.1</ele>
        <time>2023-08-03T11:10:12Z</time>
      </trkpt>
      <trkpt lat="45.02249" lon="5.70592">
        <ele>459.7</ele>
        <time>2023-08-03T11:10:17Z</time>
      </trkpt>
      <trkpt lat="45.02223" lon="5.70583">
        <ele>461.4</ele>
        <time>2023-08-03T11:10:24Z</time>
      </trkpt>
      <trkpt lat="45.02219" lon="5.70581">
        <ele>461.7</ele>
        <time>2023-08-03T11:10:25Z</time>
      </trkpt>
      <trkpt lat="45.02189" lon="5.7057">
        <ele>463.8</ele>
        <time>2023-08-03T11:10:33Z</time>
      </trkpt>
      <trkpt lat="45.0217" lon="5.70563">
        <ele>465.5</ele>
        <time>2023-08-03T11:10:38Z</time>
      </trkpt>
      <trkpt lat="45.02151" lon="5.70555">
        <ele>467.2</ele>
        <time>2023-08-03T11:10:43Z</time>
      </trkpt>
      <trkpt lat="45.02121" lon="5.70542">
        <ele>468.5</ele>
        <time>2023-08-03T11:10:51Z</time>
      </trkpt>
      <trkpt lat="45.02098" lon="5.70548">
        <ele>469.3</ele>
        <time>2023-08-03T11:10:56Z</time>
      </trkpt>
      <trkpt lat="45.02088" lon="5.70551">
        <ele>469.6</ele>
        <time>2023-08-03T11:10:58Z</time>
      </trkpt>
      <trkpt lat="45.02063" lon="5.70555">
        <ele>470.5</ele>
        <time>2023-08-03T11:11:03Z</time>
      </trkpt>
      <trkpt lat="45.02053" lon="5.70555">
        <ele>470.8</ele>
        <time>2023-08-03T11:11:05Z</time>
      </trkpt>
      <trkpt lat="45.02028" lon="5.70551">
        <ele>471.7</ele>
        <time>2023-08-03T11:11:10Z</time>
      </trkpt>
      <trkpt lat="45.02004" lon="5.70546">
        <ele>472.6</ele>
        <time>2023-08-03T11:11:15Z</time>
      </trkpt>
      <trkpt lat="45.01979" lon="5.70543">
        <ele>473.5</ele>
        <time>2023-08-03T11:11:20Z</time>
      </trkpt>
      <trkpt lat="45.01974" lon="5.70543">
        <ele>473.7</ele>
        <time>2023-08-03T11:11:21Z</time>
      </trkpt>
      <trkpt lat="45.01949" lon="5.70541">
        <ele>474.5</ele>
        <time>2023-08-03T11:11:26Z</time>
      </trkpt>
      <trkpt lat="45.01934" lon="5.7054">
        <ele>475.1</ele>
        <time>2023-08-03T11:11:29Z</time>
      </trkpt>
      <trkpt lat="45.01929" lon="5.70539">
        <ele>475.2</ele>
        <time>2023-08-03T11:11:30Z</time>
      </trkpt>
      <trkpt lat="45.01895" lon="5.7053">
        <ele>476.2</ele>
        <time>2023-08-03T11:11:37Z</time>
      </trkpt>
      <trkpt lat="45.01886" lon="5.70524">
        <ele>476.5</ele>
        <time>2023-08-03T11:11:39Z</time>
      </trkpt>
      <trkpt lat="45.01882" lon="5.7052">
        <ele>476.6</ele>
        <time>2023-08-03T11:11:40Z</time>
      </trkpt>
      <trkpt lat="45.01874" lon="5.70511">
        <ele>476.9</ele>
        <time>2023-08-03T11:11:42Z</time>
      </trkpt>
      <trkpt lat="45.01867" lon="5.70501">
        <ele>477.2</ele>
        <time>2023-08-03T11:11:44Z</time>
      </trkpt>
      <trkpt lat="45.01845" lon="5.70472">
        <ele>478.1</ele>
        <time>2023-08-03T11:11:50Z</time>
      </trkpt>
      <trkpt lat="45.01836" lon="5.70464">
        <ele>478.4</ele>
        <time>2023-08-03T11:11:52Z</time>
      </trkpt>
      <trkpt lat="45.01818" lon="5.70449">
        <ele>478.9</ele>
        <time>2023-08-03T11:11:56Z</time>
      </trkpt>
      <trkpt lat="45.01813" lon="5.70447">
        <ele>479</ele>
        <time>2023-08-03T11:11:57Z</time>
      </trkpt>
      <trkpt lat="45.01808" lon="5.70444">
        <ele>479.1</ele>
        <time>2023-08-03T11:11:58Z</time>
      </trkpt>
      <trkpt lat="45.01773" lon="5.7042">
        <ele>480</ele>
        <time>2023-08-03T11:12:05Z</time>
      </trkpt>
      <trkpt lat="45.01768" lon="5.70417">
        <ele>480.2</ele>
        <time>2023-08-03T11:12:06Z</time>
      </trkpt>
      <trkpt lat="45.01743" lon="5.704">
        <ele>480.9</ele>
        <time>2023-08-03T11:12:11Z</time>
      </trkpt>
      <trkpt lat="45.01737" lon="5.70397">
        <ele>481.1</ele>
        <time>2023-08-03T11:12:12Z</time>
      </trkpt>
      <trkpt lat="45.01726" lon="5.70392">
        <ele>481.4</ele>
        <time>2023-08-03T11:12:14Z</time>
      </trkpt>
      <trkpt lat="45.01704" lon="5.70384">
        <ele>482</ele>
        <time>2023-08-03T11:12:18Z</time>
      </trkpt>
      <trkpt lat="45.01681" lon="5.70383">
        <ele>482.5</ele>
        <time>2023-08-03T11:12:22Z</time>
      </trkpt>
      <trkpt lat="45.01675" lon="5.70383">
        <ele>482.7</ele>
        <time>2023-08-03T11:12:23Z</time>
      </trkpt>
      <trkpt lat="45.01652" lon="5.70385">
        <ele>483.3</ele>
        <time>2023-08-03T11:12:27Z</time>
      </trkpt>
      <trkpt lat="45.01634" lon="5.70389">
        <ele>483.7</ele>
        <time>2023-08-03T11:12:30Z</time>
      </trkpt>
      <trkpt lat="45.01622" lon="5.70394">
        <ele>483.9</ele>
        <time>2023-08-03T11:12:32Z</time>
      </trkpt>
      <trkpt lat="45.01593" lon="5.70409">
        <ele>484.5</ele>
        <time>2023-08-03T11:12:37Z</time>
      </trkpt>
      <trkpt lat="45.01587" lon="5.70412">
        <ele>484.6</ele>
        <time>2023-08-03T11:12:38Z</time>
      </trkpt>
      <trkpt lat="45.01558" lon="5.70427">
        <ele>485.2</ele>
        <time>2023-08-03T11:12:43Z</time>
      </trkpt>
      <trkpt lat="45.01536" lon="5.70437">
        <ele>485.7</ele>
        <time>2023-08-03T11:12:47Z</time>
      </trkpt>
      <trkpt lat="45.01531" lon="5.70438">
        <ele>485.8</ele>
        <time>2023-08-03T11:12:48Z</time>
      </trkpt>
      <trkpt lat="45.01525" lon="5.70438">
        <ele>485.9</ele>
        <time>2023-08-03T11:12:49Z</time>
      </trkpt>
      <trkpt lat="45.01513" lon="5.70436">
        <ele>486</ele>
        <time>2023-08-03T11:12:51Z</time>
      </trkpt>
      <trkpt lat="45.01507" lon="5.70433">
        <ele>486.1</ele>
        <time>2023-08-03T11:12:52Z</time>
      </trkpt>
      <trkpt lat="45.01501" lon="5.70429">
        <ele>486.2</ele>
        <time>2023-08-03T11:12:53Z</time>
      </trkpt>
      <trkpt lat="45.01491" lon="5.70419">
        <ele>486.4</ele>
        <time>2023-08-03T11:12:55Z</time>
      </trkpt>
      <trkpt lat="45.01487" lon="5.70412">
        <ele>486.5</ele>
        <time>2023-08-03T11:12:56Z</time>
      </trkpt>
      <trkpt lat="45.01475" lon="5.70394">
        <ele>486.6</ele>
        <time>2023-08-03T11:12:59Z</time>
      </trkpt>
      <trkpt lat="45.01471" lon="5.70388">
        <ele>486.7</ele>
        <time>2023-08-03T11:13:00Z</time>
      </trkpt>
      <trkpt lat="45.01461" lon="5.70378">
        <ele>487</ele>
        <time>2023-08-03T11:13:02Z</time>
      </trkpt>
      <trkpt lat="45.01451" lon="5.70368">
        <ele>487.2</ele>
        <time>2023-08-03T11:13:04Z</time>
      </trkpt>
      <trkpt lat="45.0143" lon="5.7035">
        <ele>487.6</ele>
        <time>2023-08-03T11:13:08Z</time>
      </trkpt>
      <trkpt lat="45.0141" lon="5.7033">
        <ele>488</ele>
        <time>2023-08-03T11:13:12Z</time>
      </trkpt>
      <trkpt lat="45.01406" lon="5.70325">
        <ele>488.2</ele>
        <time>2023-08-03T11:13:13Z</time>
      </trkpt>
      <trkpt lat="45.01398" lon="5.70313">
        <ele>488.5</ele>
        <time>2023-08-03T11:13:15Z</time>
      </trkpt>
      <trkpt lat="45.01391" lon="5.70299">
        <ele>488.8</ele>
        <time>2023-08-03T11:13:17Z</time>
      </trkpt>
      <trkpt lat="45.01389" lon="5.70292">
        <ele>489</ele>
        <time>2023-08-03T11:13:18Z</time>
      </trkpt>
      <trkpt lat="45.01385" lon="5.70269">
        <ele>489.6</ele>
        <time>2023-08-03T11:13:21Z</time>
      </trkpt>
      <trkpt lat="45.01384" lon="5.70261">
        <ele>489.8</ele>
        <time>2023-08-03T11:13:22Z</time>
      </trkpt>
      <trkpt lat="45.01384" lon="5.70253">
        <ele>490</ele>
        <time>2023-08-03T11:13:23Z</time>
      </trkpt>
      <trkpt lat="45.01383" lon="5.70229">
        <ele>490.7</ele>
        <time>2023-08-03T11:13:26Z</time>
      </trkpt>
      <trkpt lat="45.01383" lon="5.70221">
        <ele>491</ele>
        <time>2023-08-03T11:13:27Z</time>
      </trkpt>
      <trkpt lat="45.01383" lon="5.70213">
        <ele>491.2</ele>
        <time>2023-08-03T11:13:28Z</time>
      </trkpt>
      <trkpt lat="45.01381" lon="5.70199">
        <ele>491.7</ele>
        <time>2023-08-03T11:13:30Z</time>
      </trkpt>
      <trkpt lat="45.01379" lon="5.70192">
        <ele>491.8</ele>
        <time>2023-08-03T11:13:31Z</time>
      </trkpt>
      <trkpt lat="45.01375" lon="5.70186">
        <ele>492.1</ele>
        <time>2023-08-03T11:13:32Z</time>
      </trkpt>
      <trkpt lat="45.01367" lon="5.70177">
        <ele>492.7</ele>
        <time>2023-08-03T11:13:34Z</time>
      </trkpt>
      <trkpt lat="45.01363" lon="5.70174">
        <ele>493</ele>
        <time>2023-08-03T11:13:35Z</time>
      </trkpt>
      <trkpt lat="45.01358" lon="5.70174">
        <ele>493.3</ele>
        <time>2023-08-03T11:13:36Z</time>
      </trkpt>
      <trkpt lat="45.01343" lon="5.70177">
        <ele>494.1</ele>
        <time>2023-08-03T11:13:39Z</time>
      </trkpt>
      <trkpt lat="45.01337" lon="5.70179">
        <ele>494.3</ele>
        <time>2023-08-03T11:13:40Z</time>
      </trkpt>
      <trkpt lat="45.01314" lon="5.70186">
        <ele>495.4</ele>
        <time>2023-08-03T11:13:45Z</time>
      </trkpt>
      <trkpt lat="45.01305" lon="5.7019">
        <ele>495.9</ele>
        <time>2023-08-03T11:13:47Z</time>
      </trkpt>
      <trkpt lat="45.013" lon="5.70191">
        <ele>496.1</ele>
        <time>2023-08-03T11:13:48Z</time>
      </trkpt>
      <trkpt lat="45.01292" lon="5.70194">
        <ele>496.5</ele>
        <time>2023-08-03T11:13:50Z</time>
      </trkpt>
      <trkpt lat="45.01283" lon="5.70199">
        <ele>496.9</ele>
        <time>2023-08-03T11:13:52Z</time>
      </trkpt>
      <trkpt lat="45.01278" lon="5.70202">
        <ele>497.2</ele>
        <time>2023-08-03T11:13:53Z</time>
      </trkpt>
      <trkpt lat="45.0127" lon="5.70206">
        <ele>497.6</ele>
        <time>2023-08-03T11:13:55Z</time>
      </trkpt>
      <trkpt lat="45.01266" lon="5.70208">
        <ele>497.8</ele>
        <time>2023-08-03T11:13:56Z</time>
      </trkpt>
      <trkpt lat="45.01257" lon="5.70214">
        <ele>498.2</ele>
        <time>2023-08-03T11:13:58Z</time>
      </trkpt>
      <trkpt lat="45.01248" lon="5.70216">
        <ele>498.7</ele>
        <time>2023-08-03T11:14:00Z</time>
      </trkpt>
      <trkpt lat="45.01235" lon="5.70219">
        <ele>499.3</ele>
        <time>2023-08-03T11:14:03Z</time>
      </trkpt>
      <trkpt lat="45.0123" lon="5.70217">
        <ele>499.5</ele>
        <time>2023-08-03T11:14:04Z</time>
      </trkpt>
      <trkpt lat="45.01222" lon="5.70213">
        <ele>500</ele>
        <time>2023-08-03T11:14:06Z</time>
      </trkpt>
      <trkpt lat="45.01203" lon="5.70201">
        <ele>501.1</ele>
        <time>2023-08-03T11:14:11Z</time>
      </trkpt>
      <trkpt lat="45.01199" lon="5.70198">
        <ele>501.4</ele>
        <time>2023-08-03T11:14:12Z</time>
      </trkpt>
      <trkpt lat="45.01181" lon="5.70181">
        <ele>502.6</ele>
        <time>2023-08-03T11:14:17Z</time>
      </trkpt>
      <trkpt lat="45.01177" lon="5.70177">
        <ele>502.9</ele>
        <time>2023-08-03T11:14:18Z</time>
      </trkpt>
      <trkpt lat="45.01169" lon="5.70169">
        <ele>503.4</ele>
        <time>2023-08-03T11:14:20Z</time>
      </trkpt>
      <trkpt lat="45.01165" lon="5.70166">
        <ele>503.6</ele>
        <time>2023-08-03T11:14:21Z</time>
      </trkpt>
      <trkpt lat="45.01152" lon="5.70154">
        <ele>504.3</ele>
        <time>2023-08-03T11:14:24Z</time>
      </trkpt>
      <trkpt lat="45.0114" lon="5.7014">
        <ele>504.6</ele>
        <time>2023-08-03T11:14:27Z</time>
      </trkpt>
      <trkpt lat="45.01127" lon="5.70125">
        <ele>505.2</ele>
        <time>2023-08-03T11:14:30Z</time>
      </trkpt>
      <trkpt lat="45.01123" lon="5.7012">
        <ele>505.4</ele>
        <time>2023-08-03T11:14:31Z</time>
      </trkpt>
      <trkpt lat="45.01097" lon="5.70084">
        <ele>506.8</ele>
        <time>2023-08-03T11:14:38Z</time>
      </trkpt>
      <trkpt lat="45.01085" lon="5.7007">
        <ele>506.9</ele>
        <time>2023-08-03T11:14:41Z</time>
      </trkpt>
      <trkpt lat="45.01075" lon="5.70056">
        <ele>507.4</ele>
        <time>2023-08-03T11:14:44Z</time>
      </trkpt>
      <trkpt lat="45.01071" lon="5.70052">
        <ele>507.6</ele>
        <time>2023-08-03T11:14:45Z</time>
      </trkpt>
      <trkpt lat="45.01068" lon="5.70049">
        <ele>507.8</ele>
        <time>2023-08-03T11:14:46Z</time>
      </trkpt>
      <trkpt lat="45.01064" lon="5.70045">
        <ele>508</ele>
        <time>2023-08-03T11:14:47Z</time>
      </trkpt>
      <trkpt lat="45.0106" lon="5.70042">
        <ele>508.2</ele>
        <time>2023-08-03T11:14:48Z</time>
      </trkpt>
      <trkpt lat="45.01051" lon="5.70037">
        <ele>508.8</ele>
        <time>2023-08-03T11:14:50Z</time>
      </trkpt>
      <trkpt lat="45.01043" lon="5.70033">
        <ele>509.5</ele>
        <time>2023-08-03T11:14:52Z</time>
      </trkpt>
      <trkpt lat="45.01036" lon="5.70029">
        <ele>510.2</ele>
        <time>2023-08-03T11:14:54Z</time>
      </trkpt>
      <trkpt lat="45.01024" lon="5.70022">
        <ele>511.5</ele>
        <time>2023-08-03T11:14:58Z</time>
      </trkpt>
      <trkpt lat="45.01002" lon="5.70016">
        <ele>513.5</ele>
        <time>2023-08-03T11:15:03Z</time>
      </trkpt>
      <trkpt lat="45.00993" lon="5.70016">
        <ele>514.3</ele>
        <time>2023-08-03T11:15:05Z</time>
      </trkpt>
      <trkpt lat="45.00954" lon="5.7002">
        <ele>515.7</ele>
        <time>2023-08-03T11:15:14Z</time>
      </trkpt>
      <trkpt lat="45.00934" lon="5.70022">
        <ele>516.3</ele>
        <time>2023-08-03T11:15:19Z</time>
      </trkpt>
      <trkpt lat="45.00906" lon="5.70026">
        <ele>517.9</ele>
        <time>2023-08-03T11:15:26Z</time>
      </trkpt>
      <trkpt lat="45.0087" lon="5.70029">
        <ele>519.9</ele>
        <time>2023-08-03T11:15:35Z</time>
      </trkpt>
      <trkpt lat="45.00866" lon="5.70029">
        <ele>520.1</ele>
        <time>2023-08-03T11:15:36Z</time>
      </trkpt>
      <trkpt lat="45.0085" lon="5.70031">
        <ele>521.1</ele>
        <time>2023-08-03T11:15:40Z</time>
      </trkpt>
      <trkpt lat="45.00826" lon="5.70033">
        <ele>522.7</ele>
        <time>2023-08-03T11:15:46Z</time>
      </trkpt>
      <trkpt lat="45.00792" lon="5.70036">
        <ele>524.2</ele>
        <time>2023-08-03T11:15:55Z</time>
      </trkpt>
      <trkpt lat="45.00788" lon="5.70036">
        <ele>524.4</ele>
        <time>2023-08-03T11:15:56Z</time>
      </trkpt>
      <trkpt lat="45.00758" lon="5.70036">
        <ele>526.6</ele>
        <time>2023-08-03T11:16:04Z</time>
      </trkpt>
      <trkpt lat="45.00748" lon="5.70038">
        <ele>527.4</ele>
        <time>2023-08-03T11:16:07Z</time>
      </trkpt>
      <trkpt lat="45.00735" lon="5.70041">
        <ele>528.4</ele>
        <time>2023-08-03T11:16:11Z</time>
      </trkpt>
      <trkpt lat="45.00711" lon="5.70052">
        <ele>530.3</ele>
        <time>2023-08-03T11:16:19Z</time>
      </trkpt>
      <trkpt lat="45.0068" lon="5.70066">
        <ele>532.4</ele>
        <time>2023-08-03T11:16:29Z</time>
      </trkpt>
      <trkpt lat="45.00656" lon="5.70072">
        <ele>534.1</ele>
        <time>2023-08-03T11:16:37Z</time>
      </trkpt>
      <trkpt lat="45.00625" lon="5.70075">
        <ele>536.2</ele>
        <time>2023-08-03T11:16:47Z</time>
      </trkpt>
      <trkpt lat="45.00598" lon="5.70075">
        <ele>538.1</ele>
        <time>2023-08-03T11:16:55Z</time>
      </trkpt>
      <trkpt lat="45.00572" lon="5.70073">
        <ele>539.7</ele>
        <time>2023-08-03T11:17:02Z</time>
      </trkpt>
      <trkpt lat="45.00545" lon="5.70072">
        <ele>541.3</ele>
        <time>2023-08-03T11:17:10Z</time>
      </trkpt>
      <trkpt lat="45.00537" lon="5.70072">
        <ele>541.8</ele>
        <time>2023-08-03T11:17:15Z</time>
      </trkpt>
      <trkpt lat="45.00534" lon="5.70073">
        <ele>542</ele>
        <time>2023-08-03T11:17:53Z</time>
      </trkpt>
      <trkpt lat="45.00529" lon="5.70074">
        <ele>542.3</ele>
        <time>2023-08-03T11:17:56Z</time>
      </trkpt>
      <trkpt lat="45.00523" lon="5.70076">
        <ele>542.6</ele>
        <time>2023-08-03T11:17:58Z</time>
      </trkpt>
      <trkpt lat="45.00514" lon="5.70081">
        <ele>543.2</ele>
        <time>2023-08-03T11:18:01Z</time>
      </trkpt>
      <trkpt lat="45.00504" lon="5.70088">
        <ele>543.9</ele>
        <time>2023-08-03T11:18:04Z</time>
      </trkpt>
      <trkpt lat="45.00491" lon="5.70097">
        <ele>544.6</ele>
        <time>2023-08-03T11:18:08Z</time>
      </trkpt>
      <trkpt lat="45.00488" lon="5.70099">
        <ele>544.8</ele>
        <time>2023-08-03T11:18:09Z</time>
      </trkpt>
      <trkpt lat="45.00469" lon="5.70114">
        <ele>545.7</ele>
        <time>2023-08-03T11:18:15Z</time>
      </trkpt>
      <trkpt lat="45.00453" lon="5.70125">
        <ele>546.2</ele>
        <time>2023-08-03T11:18:19Z</time>
      </trkpt>
      <trkpt lat="45.00449" lon="5.70128">
        <ele>546.2</ele>
        <time>2023-08-03T11:18:20Z</time>
      </trkpt>
      <trkpt lat="45.00433" lon="5.70137">
        <ele>546.6</ele>
        <time>2023-08-03T11:18:24Z</time>
      </trkpt>
      <trkpt lat="45.00424" lon="5.70139">
        <ele>546.7</ele>
        <time>2023-08-03T11:18:26Z</time>
      </trkpt>
      <trkpt lat="45.00415" lon="5.70141">
        <ele>546.8</ele>
        <time>2023-08-03T11:18:28Z</time>
      </trkpt>
      <trkpt lat="45.0039" lon="5.70141">
        <ele>547.2</ele>
        <time>2023-08-03T11:18:33Z</time>
      </trkpt>
      <trkpt lat="45.00367" lon="5.70133">
        <ele>547.7</ele>
        <time>2023-08-03T11:18:38Z</time>
      </trkpt>
      <trkpt lat="45.00363" lon="5.7013">
        <ele>547.9</ele>
        <time>2023-08-03T11:18:39Z</time>
      </trkpt>
      <trkpt lat="45.00359" lon="5.70126">
        <ele>548.1</ele>
        <time>2023-08-03T11:18:40Z</time>
      </trkpt>
      <trkpt lat="45.00353" lon="5.70117">
        <ele>548.4</ele>
        <time>2023-08-03T11:18:42Z</time>
      </trkpt>
      <trkpt lat="45.00351" lon="5.70111">
        <ele>548.7</ele>
        <time>2023-08-03T11:18:43Z</time>
      </trkpt>
      <trkpt lat="45.00346" lon="5.70091">
        <ele>549.5</ele>
        <time>2023-08-03T11:18:47Z</time>
      </trkpt>
      <trkpt lat="45.00343" lon="5.70081">
        <ele>550</ele>
        <time>2023-08-03T11:18:49Z</time>
      </trkpt>
      <trkpt lat="45.00342" lon="5.70075">
        <ele>550.2</ele>
        <time>2023-08-03T11:18:50Z</time>
      </trkpt>
      <trkpt lat="45.00334" lon="5.70054">
        <ele>551.3</ele>
        <time>2023-08-03T11:18:54Z</time>
      </trkpt>
      <trkpt lat="45.00331" lon="5.70045">
        <ele>551.8</ele>
        <time>2023-08-03T11:18:56Z</time>
      </trkpt>
      <trkpt lat="45.00322" lon="5.70026">
        <ele>552.7</ele>
        <time>2023-08-03T11:19:00Z</time>
      </trkpt>
      <trkpt lat="45.00315" lon="5.70008">
        <ele>553.6</ele>
        <time>2023-08-03T11:19:04Z</time>
      </trkpt>
      <trkpt lat="45.0031" lon="5.69995">
        <ele>554.2</ele>
        <time>2023-08-03T11:19:07Z</time>
      </trkpt>
      <trkpt lat="45.00301" lon="5.69978">
        <ele>555.2</ele>
        <time>2023-08-03T11:19:11Z</time>
      </trkpt>
      <trkpt lat="45.00296" lon="5.69968">
        <ele>555.8</ele>
        <time>2023-08-03T11:19:14Z</time>
      </trkpt>
      <trkpt lat="45.00281" lon="5.69953">
        <ele>557.1</ele>
        <time>2023-08-03T11:19:19Z</time>
      </trkpt>
      <trkpt lat="45.00272" lon="5.69946">
        <ele>557.9</ele>
        <time>2023-08-03T11:19:22Z</time>
      </trkpt>
      <trkpt lat="45.00263" lon="5.69942">
        <ele>558.5</ele>
        <time>2023-08-03T11:19:25Z</time>
      </trkpt>
      <trkpt lat="45.00251" lon="5.69933">
        <ele>559.5</ele>
        <time>2023-08-03T11:19:29Z</time>
      </trkpt>
      <trkpt lat="45.00241" lon="5.6993">
        <ele>560.2</ele>
        <time>2023-08-03T11:19:32Z</time>
      </trkpt>
      <trkpt lat="45.00227" lon="5.69925">
        <ele>561.2</ele>
        <time>2023-08-03T11:19:36Z</time>
      </trkpt>
      <trkpt lat="45.00203" lon="5.69918">
        <ele>563</ele>
        <time>2023-08-03T11:19:43Z</time>
      </trkpt>
      <trkpt lat="45.00199" lon="5.69917">
        <ele>563.3</ele>
        <time>2023-08-03T11:19:44Z</time>
      </trkpt>
      <trkpt lat="45.00177" lon="5.69915">
        <ele>564.8</ele>
        <time>2023-08-03T11:19:50Z</time>
      </trkpt>
      <trkpt lat="45.0017" lon="5.69916">
        <ele>565.3</ele>
        <time>2023-08-03T11:19:52Z</time>
      </trkpt>
      <trkpt lat="45.00156" lon="5.69917">
        <ele>566.3</ele>
        <time>2023-08-03T11:19:56Z</time>
      </trkpt>
      <trkpt lat="45.00135" lon="5.6992">
        <ele>567.8</ele>
        <time>2023-08-03T11:20:02Z</time>
      </trkpt>
      <trkpt lat="45.00132" lon="5.69921">
        <ele>568.1</ele>
        <time>2023-08-03T11:20:03Z</time>
      </trkpt>
      <trkpt lat="45.00118" lon="5.69921">
        <ele>569.1</ele>
        <time>2023-08-03T11:20:07Z</time>
      </trkpt>
      <trkpt lat="45.00101" lon="5.69919">
        <ele>570.3</ele>
        <time>2023-08-03T11:20:12Z</time>
      </trkpt>
      <trkpt lat="45.00097" lon="5.69919">
        <ele>570.6</ele>
        <time>2023-08-03T11:20:13Z</time>
      </trkpt>
      <trkpt lat="45.00087" lon="5.69916">
        <ele>571.4</ele>
        <time>2023-08-03T11:20:16Z</time>
      </trkpt>
      <trkpt lat="45.00067" lon="5.69912">
        <ele>572.9</ele>
        <time>2023-08-03T11:20:22Z</time>
      </trkpt>
      <trkpt lat="45.00049" lon="5.69909">
        <ele>574.1</ele>
        <time>2023-08-03T11:20:27Z</time>
      </trkpt>
      <trkpt lat="45.00032" lon="5.69907">
        <ele>575.3</ele>
        <time>2023-08-03T11:20:32Z</time>
      </trkpt>
      <trkpt lat="45.00002" lon="5.69914">
        <ele>577.5</ele>
        <time>2023-08-03T11:20:41Z</time>
      </trkpt>
      <trkpt lat="44.99996" lon="5.69917">
        <ele>577.9</ele>
        <time>2023-08-03T11:20:43Z</time>
      </trkpt>
      <trkpt lat="44.99981" lon="5.69928">
        <ele>579</ele>
        <time>2023-08-03T11:20:48Z</time>
      </trkpt>
      <trkpt lat="44.99974" lon="5.69933">
        <ele>579.3</ele>
        <time>2023-08-03T11:20:50Z</time>
      </trkpt>
      <trkpt lat="44.99956" lon="5.6994">
        <ele>580.2</ele>
        <time>2023-08-03T11:20:55Z</time>
      </trkpt>
      <trkpt lat="44.99949" lon="5.69942">
        <ele>580.5</ele>
        <time>2023-08-03T11:20:57Z</time>
      </trkpt>
      <trkpt lat="44.99938" lon="5.69944">
        <ele>581.2</ele>
        <time>2023-08-03T11:21:00Z</time>
      </trkpt>
      <trkpt lat="44.99918" lon="5.69948">
        <ele>582.7</ele>
        <time>2023-08-03T11:21:06Z</time>
      </trkpt>
      <trkpt lat="44.99915" lon="5.69949">
        <ele>583</ele>
        <time>2023-08-03T11:21:07Z</time>
      </trkpt>
      <trkpt lat="44.99894" lon="5.69951">
        <ele>584.5</ele>
        <time>2023-08-03T11:21:13Z</time>
      </trkpt>
      <trkpt lat="44.99891" lon="5.69951">
        <ele>584.7</ele>
        <time>2023-08-03T11:21:14Z</time>
      </trkpt>
      <trkpt lat="44.9987" lon="5.69947">
        <ele>586.2</ele>
        <time>2023-08-03T11:21:20Z</time>
      </trkpt>
      <trkpt lat="44.99855" lon="5.69939">
        <ele>587.6</ele>
        <time>2023-08-03T11:21:25Z</time>
      </trkpt>
      <trkpt lat="44.99846" lon="5.69935">
        <ele>588.3</ele>
        <time>2023-08-03T11:21:28Z</time>
      </trkpt>
      <trkpt lat="44.99835" lon="5.69926">
        <ele>589.5</ele>
        <time>2023-08-03T11:21:32Z</time>
      </trkpt>
      <trkpt lat="44.99831" lon="5.69924">
        <ele>589.8</ele>
        <time>2023-08-03T11:21:33Z</time>
      </trkpt>
      <trkpt lat="44.99828" lon="5.69923">
        <ele>590.1</ele>
        <time>2023-08-03T11:21:34Z</time>
      </trkpt>
      <trkpt lat="44.9982" lon="5.69916">
        <ele>590.9</ele>
        <time>2023-08-03T11:21:37Z</time>
      </trkpt>
      <trkpt lat="44.99818" lon="5.69914">
        <ele>591.2</ele>
        <time>2023-08-03T11:21:38Z</time>
      </trkpt>
      <trkpt lat="44.99804" lon="5.69904">
        <ele>592.4</ele>
        <time>2023-08-03T11:21:43Z</time>
      </trkpt>
      <trkpt lat="44.99802" lon="5.69902">
        <ele>592.6</ele>
        <time>2023-08-03T11:21:44Z</time>
      </trkpt>
      <trkpt lat="44.99794" lon="5.69895">
        <ele>593.3</ele>
        <time>2023-08-03T11:21:47Z</time>
      </trkpt>
      <trkpt lat="44.99785" lon="5.69887">
        <ele>594.1</ele>
        <time>2023-08-03T11:21:50Z</time>
      </trkpt>
      <trkpt lat="44.99779" lon="5.69882">
        <ele>594.7</ele>
        <time>2023-08-03T11:21:52Z</time>
      </trkpt>
      <trkpt lat="44.99774" lon="5.69878">
        <ele>595.2</ele>
        <time>2023-08-03T11:21:54Z</time>
      </trkpt>
      <trkpt lat="44.99766" lon="5.69871">
        <ele>595.9</ele>
        <time>2023-08-03T11:21:57Z</time>
      </trkpt>
      <trkpt lat="44.99755" lon="5.69861">
        <ele>597</ele>
        <time>2023-08-03T11:22:01Z</time>
      </trkpt>
      <trkpt lat="44.99752" lon="5.69858">
        <ele>597.3</ele>
        <time>2023-08-03T11:22:02Z</time>
      </trkpt>
      <trkpt lat="44.99746" lon="5.69854">
        <ele>597.7</ele>
        <time>2023-08-03T11:22:04Z</time>
      </trkpt>
      <trkpt lat="44.99737" lon="5.69848">
        <ele>598.5</ele>
        <time>2023-08-03T11:22:07Z</time>
      </trkpt>
      <trkpt lat="44.99728" lon="5.69842">
        <ele>599.3</ele>
        <time>2023-08-03T11:22:10Z</time>
      </trkpt>
      <trkpt lat="44.9972" lon="5.69837">
        <ele>599.9</ele>
        <time>2023-08-03T11:22:13Z</time>
      </trkpt>
      <trkpt lat="44.99712" lon="5.6983">
        <ele>600.7</ele>
        <time>2023-08-03T11:22:16Z</time>
      </trkpt>
      <trkpt lat="44.99709" lon="5.69829">
        <ele>600.9</ele>
        <time>2023-08-03T11:22:17Z</time>
      </trkpt>
      <trkpt lat="44.99703" lon="5.69825">
        <ele>601.4</ele>
        <time>2023-08-03T11:22:19Z</time>
      </trkpt>
      <trkpt lat="44.99688" lon="5.69816">
        <ele>602.7</ele>
        <time>2023-08-03T11:22:24Z</time>
      </trkpt>
      <trkpt lat="44.99681" lon="5.69812">
        <ele>603.3</ele>
        <time>2023-08-03T11:22:26Z</time>
      </trkpt>
      <trkpt lat="44.99673" lon="5.69808">
        <ele>603.9</ele>
        <time>2023-08-03T11:22:28Z</time>
      </trkpt>
      <trkpt lat="44.9966" lon="5.69804">
        <ele>605.1</ele>
        <time>2023-08-03T11:22:32Z</time>
      </trkpt>
      <trkpt lat="44.99656" lon="5.69802">
        <ele>605.4</ele>
        <time>2023-08-03T11:22:33Z</time>
      </trkpt>
      <trkpt lat="44.9965" lon="5.69801">
        <ele>605.9</ele>
        <time>2023-08-03T11:22:35Z</time>
      </trkpt>
      <trkpt lat="44.99631" lon="5.69797">
        <ele>607.4</ele>
        <time>2023-08-03T11:22:41Z</time>
      </trkpt>
      <trkpt lat="44.99622" lon="5.69797">
        <ele>608.1</ele>
        <time>2023-08-03T11:22:44Z</time>
      </trkpt>
      <trkpt lat="44.99611" lon="5.69792">
        <ele>609</ele>
        <time>2023-08-03T11:22:48Z</time>
      </trkpt>
      <trkpt lat="44.99605" lon="5.69791">
        <ele>609.5</ele>
        <time>2023-08-03T11:22:50Z</time>
      </trkpt>
      <trkpt lat="44.99591" lon="5.69787">
        <ele>610.7</ele>
        <time>2023-08-03T11:22:54Z</time>
      </trkpt>
      <trkpt lat="44.99579" lon="5.69782">
        <ele>611.8</ele>
        <time>2023-08-03T11:22:58Z</time>
      </trkpt>
      <trkpt lat="44.99575" lon="5.6978">
        <ele>612.1</ele>
        <time>2023-08-03T11:22:59Z</time>
      </trkpt>
      <trkpt lat="44.99562" lon="5.69773">
        <ele>613.4</ele>
        <time>2023-08-03T11:23:03Z</time>
      </trkpt>
      <trkpt lat="44.9955" lon="5.69767">
        <ele>614.5</ele>
        <time>2023-08-03T11:23:07Z</time>
      </trkpt>
      <trkpt lat="44.99544" lon="5.69764">
        <ele>615.1</ele>
        <time>2023-08-03T11:23:09Z</time>
      </trkpt>
      <trkpt lat="44.9954" lon="5.69763">
        <ele>615.4</ele>
        <time>2023-08-03T11:23:10Z</time>
      </trkpt>
      <trkpt lat="44.99531" lon="5.69762">
        <ele>616.1</ele>
        <time>2023-08-03T11:23:13Z</time>
      </trkpt>
      <trkpt lat="44.99521" lon="5.69761">
        <ele>616.8</ele>
        <time>2023-08-03T11:23:16Z</time>
      </trkpt>
      <trkpt lat="44.99515" lon="5.69761">
        <ele>617.3</ele>
        <time>2023-08-03T11:23:18Z</time>
      </trkpt>
      <trkpt lat="44.99507" lon="5.6976">
        <ele>617.9</ele>
        <time>2023-08-03T11:23:21Z</time>
      </trkpt>
      <trkpt lat="44.99494" lon="5.6976">
        <ele>619</ele>
        <time>2023-08-03T11:23:25Z</time>
      </trkpt>
      <trkpt lat="44.99491" lon="5.69759">
        <ele>619.2</ele>
        <time>2023-08-03T11:23:26Z</time>
      </trkpt>
      <trkpt lat="44.99483" lon="5.6976">
        <ele>619.9</ele>
        <time>2023-08-03T11:23:29Z</time>
      </trkpt>
      <trkpt lat="44.99475" lon="5.69759">
        <ele>620.5</ele>
        <time>2023-08-03T11:23:32Z</time>
      </trkpt>
      <trkpt lat="44.99467" lon="5.69758">
        <ele>621.2</ele>
        <time>2023-08-03T11:23:35Z</time>
      </trkpt>
      <trkpt lat="44.99465" lon="5.69757">
        <ele>621.4</ele>
        <time>2023-08-03T11:23:36Z</time>
      </trkpt>
      <trkpt lat="44.99456" lon="5.69755">
        <ele>622.2</ele>
        <time>2023-08-03T11:23:39Z</time>
      </trkpt>
      <trkpt lat="44.9945" lon="5.69753">
        <ele>622.7</ele>
        <time>2023-08-03T11:23:41Z</time>
      </trkpt>
      <trkpt lat="44.99447" lon="5.69753">
        <ele>622.9</ele>
        <time>2023-08-03T11:23:42Z</time>
      </trkpt>
      <trkpt lat="44.99435" lon="5.69754">
        <ele>624</ele>
        <time>2023-08-03T11:23:46Z</time>
      </trkpt>
      <trkpt lat="44.99427" lon="5.69754">
        <ele>624.7</ele>
        <time>2023-08-03T11:23:49Z</time>
      </trkpt>
      <trkpt lat="44.99411" lon="5.69751">
        <ele>626.1</ele>
        <time>2023-08-03T11:23:55Z</time>
      </trkpt>
      <trkpt lat="44.99397" lon="5.69751">
        <ele>627.2</ele>
        <time>2023-08-03T11:24:00Z</time>
      </trkpt>
      <trkpt lat="44.99386" lon="5.69752">
        <ele>628.1</ele>
        <time>2023-08-03T11:24:04Z</time>
      </trkpt>
      <trkpt lat="44.99379" lon="5.69752">
        <ele>628.7</ele>
        <time>2023-08-03T11:24:07Z</time>
      </trkpt>
      <trkpt lat="44.99357" lon="5.69753">
        <ele>630.4</ele>
        <time>2023-08-03T11:24:14Z</time>
      </trkpt>
      <trkpt lat="44.99353" lon="5.69753">
        <ele>630.7</ele>
        <time>2023-08-03T11:24:15Z</time>
      </trkpt>
      <trkpt lat="44.99337" lon="5.69753">
        <ele>631.9</ele>
        <time>2023-08-03T11:24:20Z</time>
      </trkpt>
      <trkpt lat="44.9933" lon="5.69752">
        <ele>632.4</ele>
        <time>2023-08-03T11:24:22Z</time>
      </trkpt>
      <trkpt lat="44.99317" lon="5.6975">
        <ele>633.5</ele>
        <time>2023-08-03T11:24:26Z</time>
      </trkpt>
      <trkpt lat="44.99304" lon="5.69746">
        <ele>634.6</ele>
        <time>2023-08-03T11:24:30Z</time>
      </trkpt>
      <trkpt lat="44.99295" lon="5.69744">
        <ele>635.5</ele>
        <time>2023-08-03T11:24:33Z</time>
      </trkpt>
      <trkpt lat="44.99286" lon="5.69742">
        <ele>636.2</ele>
        <time>2023-08-03T11:24:36Z</time>
      </trkpt>
      <trkpt lat="44.99279" lon="5.69741">
        <ele>636.8</ele>
        <time>2023-08-03T11:24:38Z</time>
      </trkpt>
      <trkpt lat="44.99262" lon="5.6974">
        <ele>638</ele>
        <time>2023-08-03T11:24:43Z</time>
      </trkpt>
      <trkpt lat="44.99255" lon="5.69741">
        <ele>638.5</ele>
        <time>2023-08-03T11:24:45Z</time>
      </trkpt>
      <trkpt lat="44.99241" lon="5.69742">
        <ele>639.5</ele>
        <time>2023-08-03T11:24:49Z</time>
      </trkpt>
      <trkpt lat="44.99224" lon="5.69743">
        <ele>640.8</ele>
        <time>2023-08-03T11:24:54Z</time>
      </trkpt>
      <trkpt lat="44.99221" lon="5.69743">
        <ele>641.1</ele>
        <time>2023-08-03T11:24:55Z</time>
      </trkpt>
      <trkpt lat="44.99204" lon="5.69745">
        <ele>642.5</ele>
        <time>2023-08-03T11:25:00Z</time>
      </trkpt>
      <trkpt lat="44.99195" lon="5.69746">
        <ele>643.2</ele>
        <time>2023-08-03T11:25:03Z</time>
      </trkpt>
      <trkpt lat="44.99189" lon="5.69748">
        <ele>643.8</ele>
        <time>2023-08-03T11:25:05Z</time>
      </trkpt>
      <trkpt lat="44.99174" lon="5.69756">
        <ele>645</ele>
        <time>2023-08-03T11:25:10Z</time>
      </trkpt>
      <trkpt lat="44.99171" lon="5.69759">
        <ele>645.2</ele>
        <time>2023-08-03T11:25:11Z</time>
      </trkpt>
      <trkpt lat="44.99161" lon="5.69776">
        <ele>646.3</ele>
        <time>2023-08-03T11:25:16Z</time>
      </trkpt>
      <trkpt lat="44.99152" lon="5.69794">
        <ele>647.3</ele>
        <time>2023-08-03T11:25:21Z</time>
      </trkpt>
      <trkpt lat="44.99148" lon="5.69801">
        <ele>647.8</ele>
        <time>2023-08-03T11:25:23Z</time>
      </trkpt>
      <trkpt lat="44.99133" lon="5.69815">
        <ele>649.1</ele>
        <time>2023-08-03T11:25:29Z</time>
      </trkpt>
      <trkpt lat="44.99131" lon="5.69817">
        <ele>649.3</ele>
        <time>2023-08-03T11:25:30Z</time>
      </trkpt>
      <trkpt lat="44.99125" lon="5.69825">
        <ele>650</ele>
        <time>2023-08-03T11:25:33Z</time>
      </trkpt>
      <trkpt lat="44.99114" lon="5.69847">
        <ele>651.6</ele>
        <time>2023-08-03T11:25:39Z</time>
      </trkpt>
      <trkpt lat="44.99104" lon="5.69865">
        <ele>652.9</ele>
        <time>2023-08-03T11:25:44Z</time>
      </trkpt>
      <trkpt lat="44.99091" lon="5.69892">
        <ele>654.7</ele>
        <time>2023-08-03T11:25:51Z</time>
      </trkpt>
      <trkpt lat="44.99072" lon="5.69915">
        <ele>656.7</ele>
        <time>2023-08-03T11:25:59Z</time>
      </trkpt>
      <trkpt lat="44.9907" lon="5.69917">
        <ele>657</ele>
        <time>2023-08-03T11:26:00Z</time>
      </trkpt>
      <trkpt lat="44.99045" lon="5.69944">
        <ele>659.6</ele>
        <time>2023-08-03T11:26:10Z</time>
      </trkpt>
      <trkpt lat="44.99034" lon="5.69954">
        <ele>660.7</ele>
        <time>2023-08-03T11:26:14Z</time>
      </trkpt>
      <trkpt lat="44.99028" lon="5.69957">
        <ele>661.3</ele>
        <time>2023-08-03T11:26:16Z</time>
      </trkpt>
      <trkpt lat="44.99009" lon="5.6996">
        <ele>663</ele>
        <time>2023-08-03T11:26:22Z</time>
      </trkpt>
      <trkpt lat="44.98995" lon="5.69952">
        <ele>664.2</ele>
        <time>2023-08-03T11:26:27Z</time>
      </trkpt>
      <trkpt lat="44.98993" lon="5.69948">
        <ele>664.5</ele>
        <time>2023-08-03T11:26:28Z</time>
      </trkpt>
      <trkpt lat="44.98985" lon="5.69927">
        <ele>665.6</ele>
        <time>2023-08-03T11:26:33Z</time>
      </trkpt>
      <trkpt lat="44.98984" lon="5.69923">
        <ele>665.9</ele>
        <time>2023-08-03T11:26:34Z</time>
      </trkpt>
      <trkpt lat="44.98979" lon="5.69894">
        <ele>667.5</ele>
        <time>2023-08-03T11:26:40Z</time>
      </trkpt>
      <trkpt lat="44.98975" lon="5.69877">
        <ele>668.5</ele>
        <time>2023-08-03T11:26:44Z</time>
      </trkpt>
      <trkpt lat="44.98961" lon="5.69855">
        <ele>669.9</ele>
        <time>2023-08-03T11:26:50Z</time>
      </trkpt>
      <trkpt lat="44.98958" lon="5.69853">
        <ele>670.2</ele>
        <time>2023-08-03T11:26:51Z</time>
      </trkpt>
      <trkpt lat="44.98942" lon="5.69845">
        <ele>671.1</ele>
        <time>2023-08-03T11:26:56Z</time>
      </trkpt>
      <trkpt lat="44.98921" lon="5.69846">
        <ele>672.3</ele>
        <time>2023-08-03T11:27:02Z</time>
      </trkpt>
      <trkpt lat="44.98898" lon="5.69849">
        <ele>673.8</ele>
        <time>2023-08-03T11:27:09Z</time>
      </trkpt>
      <trkpt lat="44.98876" lon="5.69853">
        <ele>675.3</ele>
        <time>2023-08-03T11:27:16Z</time>
      </trkpt>
      <trkpt lat="44.98869" lon="5.69855">
        <ele>675.8</ele>
        <time>2023-08-03T11:27:18Z</time>
      </trkpt>
      <trkpt lat="44.98853" lon="5.69862">
        <ele>677.1</ele>
        <time>2023-08-03T11:27:23Z</time>
      </trkpt>
      <trkpt lat="44.98828" lon="5.69875">
        <ele>679.2</ele>
        <time>2023-08-03T11:27:31Z</time>
      </trkpt>
      <trkpt lat="44.98804" lon="5.69896">
        <ele>681.4</ele>
        <time>2023-08-03T11:27:40Z</time>
      </trkpt>
      <trkpt lat="44.98788" lon="5.69931">
        <ele>683.7</ele>
        <time>2023-08-03T11:27:49Z</time>
      </trkpt>
      <trkpt lat="44.98771" lon="5.69968">
        <ele>686.1</ele>
        <time>2023-08-03T11:27:58Z</time>
      </trkpt>
      <trkpt lat="44.9876" lon="5.69979">
        <ele>687.3</ele>
        <time>2023-08-03T11:28:02Z</time>
      </trkpt>
      <trkpt lat="44.98753" lon="5.69982">
        <ele>687.9</ele>
        <time>2023-08-03T11:28:04Z</time>
      </trkpt>
      <trkpt lat="44.9873" lon="5.69978">
        <ele>690</ele>
        <time>2023-08-03T11:28:11Z</time>
      </trkpt>
      <trkpt lat="44.9872" lon="5.69975">
        <ele>690.9</ele>
        <time>2023-08-03T11:28:14Z</time>
      </trkpt>
      <trkpt lat="44.98704" lon="5.69975">
        <ele>692.4</ele>
        <time>2023-08-03T11:28:19Z</time>
      </trkpt>
      <trkpt lat="44.98687" lon="5.69987">
        <ele>694.1</ele>
        <time>2023-08-03T11:28:25Z</time>
      </trkpt>
      <trkpt lat="44.98669" lon="5.70022">
        <ele>696.2</ele>
        <time>2023-08-03T11:28:34Z</time>
      </trkpt>
      <trkpt lat="44.98663" lon="5.70033">
        <ele>696.9</ele>
        <time>2023-08-03T11:28:37Z</time>
      </trkpt>
      <trkpt lat="44.98651" lon="5.70054">
        <ele>698.3</ele>
        <time>2023-08-03T11:28:43Z</time>
      </trkpt>
      <trkpt lat="44.9863" lon="5.70089">
        <ele>700.8</ele>
        <time>2023-08-03T11:28:53Z</time>
      </trkpt>
      <trkpt lat="44.9861" lon="5.70111">
        <ele>702.7</ele>
        <time>2023-08-03T11:29:01Z</time>
      </trkpt>
      <trkpt lat="44.98589" lon="5.7013">
        <ele>704.6</ele>
        <time>2023-08-03T11:29:09Z</time>
      </trkpt>
      <trkpt lat="44.9857" lon="5.7014">
        <ele>706.3</ele>
        <time>2023-08-03T11:29:15Z</time>
      </trkpt>
      <trkpt lat="44.98538" lon="5.70153">
        <ele>708.7</ele>
        <time>2023-08-03T11:29:25Z</time>
      </trkpt>
      <trkpt lat="44.98504" lon="5.70168">
        <ele>711.6</ele>
        <time>2023-08-03T11:29:36Z</time>
      </trkpt>
      <trkpt lat="44.98469" lon="5.70185">
        <ele>714.9</ele>
        <time>2023-08-03T11:29:47Z</time>
      </trkpt>
      <trkpt lat="44.9844" lon="5.70193">
        <ele>717.4</ele>
        <time>2023-08-03T11:29:56Z</time>
      </trkpt>
      <trkpt lat="44.98418" lon="5.70203">
        <ele>719.5</ele>
        <time>2023-08-03T11:30:03Z</time>
      </trkpt>
      <trkpt lat="44.98414" lon="5.70205">
        <ele>719.8</ele>
        <time>2023-08-03T11:30:04Z</time>
      </trkpt>
      <trkpt lat="44.98393" lon="5.70229">
        <ele>721.9</ele>
        <time>2023-08-03T11:30:12Z</time>
      </trkpt>
      <trkpt lat="44.98388" lon="5.70235">
        <ele>722.5</ele>
        <time>2023-08-03T11:30:14Z</time>
      </trkpt>
      <trkpt lat="44.9837" lon="5.70255">
        <ele>724.5</ele>
        <time>2023-08-03T11:30:21Z</time>
      </trkpt>
      <trkpt lat="44.98365" lon="5.70259">
        <ele>724.9</ele>
        <time>2023-08-03T11:30:23Z</time>
      </trkpt>
      <trkpt lat="44.98359" lon="5.70264">
        <ele>725.6</ele>
        <time>2023-08-03T11:30:26Z</time>
      </trkpt>
      <trkpt lat="44.98341" lon="5.70274">
        <ele>727.2</ele>
        <time>2023-08-03T11:30:32Z</time>
      </trkpt>
      <trkpt lat="44.98338" lon="5.70275">
        <ele>727.4</ele>
        <time>2023-08-03T11:30:33Z</time>
      </trkpt>
      <trkpt lat="44.98317" lon="5.70287">
        <ele>729.2</ele>
        <time>2023-08-03T11:30:40Z</time>
      </trkpt>
      <trkpt lat="44.98311" lon="5.70289">
        <ele>729.7</ele>
        <time>2023-08-03T11:30:42Z</time>
      </trkpt>
      <trkpt lat="44.98298" lon="5.70292">
        <ele>730.7</ele>
        <time>2023-08-03T11:30:46Z</time>
      </trkpt>
      <trkpt lat="44.98284" lon="5.70292">
        <ele>731.7</ele>
        <time>2023-08-03T11:30:50Z</time>
      </trkpt>
      <trkpt lat="44.98278" lon="5.70291">
        <ele>732.1</ele>
        <time>2023-08-03T11:30:52Z</time>
      </trkpt>
      <trkpt lat="44.98262" lon="5.70286">
        <ele>733.3</ele>
        <time>2023-08-03T11:30:57Z</time>
      </trkpt>
      <trkpt lat="44.98252" lon="5.70284">
        <ele>734</ele>
        <time>2023-08-03T11:31:00Z</time>
      </trkpt>
      <trkpt lat="44.98248" lon="5.70283">
        <ele>734.3</ele>
        <time>2023-08-03T11:31:01Z</time>
      </trkpt>
      <trkpt lat="44.98234" lon="5.70283">
        <ele>735.2</ele>
        <time>2023-08-03T11:31:05Z</time>
      </trkpt>
      <trkpt lat="44.98227" lon="5.70284">
        <ele>735.7</ele>
        <time>2023-08-03T11:31:07Z</time>
      </trkpt>
      <trkpt lat="44.98217" lon="5.70288">
        <ele>736.2</ele>
        <time>2023-08-03T11:31:10Z</time>
      </trkpt>
      <trkpt lat="44.98206" lon="5.70294">
        <ele>736.9</ele>
        <time>2023-08-03T11:31:13Z</time>
      </trkpt>
      <trkpt lat="44.98202" lon="5.70296">
        <ele>737.1</ele>
        <time>2023-08-03T11:31:14Z</time>
      </trkpt>
      <trkpt lat="44.98187" lon="5.70302">
        <ele>738</ele>
        <time>2023-08-03T11:31:18Z</time>
      </trkpt>
      <trkpt lat="44.98173" lon="5.70307">
        <ele>738.8</ele>
        <time>2023-08-03T11:31:22Z</time>
      </trkpt>
      <trkpt lat="44.98169" lon="5.70308">
        <ele>739</ele>
        <time>2023-08-03T11:31:23Z</time>
      </trkpt>
      <trkpt lat="44.98158" lon="5.70312">
        <ele>739.6</ele>
        <time>2023-08-03T11:31:26Z</time>
      </trkpt>
      <trkpt lat="44.98148" lon="5.70317">
        <ele>740.1</ele>
        <time>2023-08-03T11:31:29Z</time>
      </trkpt>
      <trkpt lat="44.98145" lon="5.70319">
        <ele>740.3</ele>
        <time>2023-08-03T11:31:30Z</time>
      </trkpt>
      <trkpt lat="44.98131" lon="5.70326">
        <ele>741.2</ele>
        <time>2023-08-03T11:31:34Z</time>
      </trkpt>
      <trkpt lat="44.98119" lon="5.7033">
        <ele>741.9</ele>
        <time>2023-08-03T11:31:37Z</time>
      </trkpt>
      <trkpt lat="44.98104" lon="5.70336">
        <ele>742.9</ele>
        <time>2023-08-03T11:31:41Z</time>
      </trkpt>
      <trkpt lat="44.98091" lon="5.70342">
        <ele>743.6</ele>
        <time>2023-08-03T11:31:44Z</time>
      </trkpt>
      <trkpt lat="44.98088" lon="5.70344">
        <ele>743.8</ele>
        <time>2023-08-03T11:31:45Z</time>
      </trkpt>
      <trkpt lat="44.98078" lon="5.70348">
        <ele>744.4</ele>
        <time>2023-08-03T11:31:48Z</time>
      </trkpt>
      <trkpt lat="44.98074" lon="5.70348">
        <ele>744.6</ele>
        <time>2023-08-03T11:31:49Z</time>
      </trkpt>
      <trkpt lat="44.98069" lon="5.70348">
        <ele>744.9</ele>
        <time>2023-08-03T11:31:50Z</time>
      </trkpt>
      <trkpt lat="44.98055" lon="5.70346">
        <ele>745.3</ele>
        <time>2023-08-03T11:31:53Z</time>
      </trkpt>
      <trkpt lat="44.9804" lon="5.70346">
        <ele>745.6</ele>
        <time>2023-08-03T11:31:56Z</time>
      </trkpt>
      <trkpt lat="44.9802" lon="5.70345">
        <ele>746.1</ele>
        <time>2023-08-03T11:32:01Z</time>
      </trkpt>
      <trkpt lat="44.98017" lon="5.70345">
        <ele>746.1</ele>
        <time>2023-08-03T11:32:02Z</time>
      </trkpt>
      <trkpt lat="44.98005" lon="5.70346">
        <ele>746.5</ele>
        <time>2023-08-03T11:32:05Z</time>
      </trkpt>
      <trkpt lat="44.98001" lon="5.70346">
        <ele>746.8</ele>
        <time>2023-08-03T11:32:06Z</time>
      </trkpt>
      <trkpt lat="44.97992" lon="5.70348">
        <ele>747.3</ele>
        <time>2023-08-03T11:32:08Z</time>
      </trkpt>
      <trkpt lat="44.97988" lon="5.70349">
        <ele>747.5</ele>
        <time>2023-08-03T11:32:09Z</time>
      </trkpt>
      <trkpt lat="44.9798" lon="5.70353">
        <ele>748.1</ele>
        <time>2023-08-03T11:32:11Z</time>
      </trkpt>
      <trkpt lat="44.97971" lon="5.70356">
        <ele>748.7</ele>
        <time>2023-08-03T11:32:13Z</time>
      </trkpt>
      <trkpt lat="44.97966" lon="5.70357">
        <ele>749</ele>
        <time>2023-08-03T11:32:14Z</time>
      </trkpt>
      <trkpt lat="44.97952" lon="5.70362">
        <ele>749.8</ele>
        <time>2023-08-03T11:32:17Z</time>
      </trkpt>
      <trkpt lat="44.97944" lon="5.70366">
        <ele>750.4</ele>
        <time>2023-08-03T11:32:19Z</time>
      </trkpt>
      <trkpt lat="44.97939" lon="5.70368">
        <ele>750.7</ele>
        <time>2023-08-03T11:32:20Z</time>
      </trkpt>
      <trkpt lat="44.97935" lon="5.70369">
        <ele>751</ele>
        <time>2023-08-03T11:32:21Z</time>
      </trkpt>
      <trkpt lat="44.97922" lon="5.70372">
        <ele>752</ele>
        <time>2023-08-03T11:32:24Z</time>
      </trkpt>
      <trkpt lat="44.97908" lon="5.70374">
        <ele>752.9</ele>
        <time>2023-08-03T11:32:27Z</time>
      </trkpt>
      <trkpt lat="44.97904" lon="5.70374">
        <ele>753.2</ele>
        <time>2023-08-03T11:32:28Z</time>
      </trkpt>
      <trkpt lat="44.97888" lon="5.70372">
        <ele>754.4</ele>
        <time>2023-08-03T11:32:32Z</time>
      </trkpt>
      <trkpt lat="44.9788" lon="5.7037">
        <ele>754.9</ele>
        <time>2023-08-03T11:32:34Z</time>
      </trkpt>
      <trkpt lat="44.97877" lon="5.70369">
        <ele>755.2</ele>
        <time>2023-08-03T11:32:35Z</time>
      </trkpt>
      <trkpt lat="44.97866" lon="5.70368">
        <ele>756.1</ele>
        <time>2023-08-03T11:32:38Z</time>
      </trkpt>
      <trkpt lat="44.97858" lon="5.70368">
        <ele>756.8</ele>
        <time>2023-08-03T11:32:40Z</time>
      </trkpt>
      <trkpt lat="44.97854" lon="5.70368">
        <ele>757.1</ele>
        <time>2023-08-03T11:32:41Z</time>
      </trkpt>
      <trkpt lat="44.97841" lon="5.70369">
        <ele>757</ele>
        <time>2023-08-03T11:32:44Z</time>
      </trkpt>
      <trkpt lat="44.97829" lon="5.70372">
        <ele>757</ele>
        <time>2023-08-03T11:32:47Z</time>
      </trkpt>
      <trkpt lat="44.97817" lon="5.70373">
        <ele>757.1</ele>
        <time>2023-08-03T11:32:50Z</time>
      </trkpt>
      <trkpt lat="44.97805" lon="5.70374">
        <ele>757.5</ele>
        <time>2023-08-03T11:32:53Z</time>
      </trkpt>
      <trkpt lat="44.97792" lon="5.70375">
        <ele>758.5</ele>
        <time>2023-08-03T11:32:56Z</time>
      </trkpt>
      <trkpt lat="44.9778" lon="5.70376">
        <ele>759.5</ele>
        <time>2023-08-03T11:32:59Z</time>
      </trkpt>
      <trkpt lat="44.97768" lon="5.70378">
        <ele>760.5</ele>
        <time>2023-08-03T11:33:02Z</time>
      </trkpt>
      <trkpt lat="44.9776" lon="5.70378">
        <ele>761.2</ele>
        <time>2023-08-03T11:33:04Z</time>
      </trkpt>
      <trkpt lat="44.97752" lon="5.70379">
        <ele>761.9</ele>
        <time>2023-08-03T11:33:06Z</time>
      </trkpt>
      <trkpt lat="44.97739" lon="5.7038">
        <ele>762.9</ele>
        <time>2023-08-03T11:33:09Z</time>
      </trkpt>
      <trkpt lat="44.97727" lon="5.70382">
        <ele>763.9</ele>
        <time>2023-08-03T11:33:12Z</time>
      </trkpt>
      <trkpt lat="44.97716" lon="5.70383">
        <ele>764.8</ele>
        <time>2023-08-03T11:33:15Z</time>
      </trkpt>
      <trkpt lat="44.97699" lon="5.70384">
        <ele>766.1</ele>
        <time>2023-08-03T11:33:19Z</time>
      </trkpt>
      <trkpt lat="44.97692" lon="5.70385">
        <ele>766.6</ele>
        <time>2023-08-03T11:33:21Z</time>
      </trkpt>
      <trkpt lat="44.97683" lon="5.70386">
        <ele>767.1</ele>
        <time>2023-08-03T11:33:23Z</time>
      </trkpt>
      <trkpt lat="44.97679" lon="5.70387">
        <ele>767.3</ele>
        <time>2023-08-03T11:33:24Z</time>
      </trkpt>
      <trkpt lat="44.97662" lon="5.70389">
        <ele>767.3</ele>
        <time>2023-08-03T11:33:28Z</time>
      </trkpt>
      <trkpt lat="44.9765" lon="5.7039">
        <ele>767.6</ele>
        <time>2023-08-03T11:33:31Z</time>
      </trkpt>
      <trkpt lat="44.97642" lon="5.70391">
        <ele>767.8</ele>
        <time>2023-08-03T11:33:33Z</time>
      </trkpt>
      <trkpt lat="44.97633" lon="5.70392">
        <ele>768</ele>
        <time>2023-08-03T11:33:35Z</time>
      </trkpt>
      <trkpt lat="44.97621" lon="5.70393">
        <ele>768.4</ele>
        <time>2023-08-03T11:33:38Z</time>
      </trkpt>
      <trkpt lat="44.97609" lon="5.70393">
        <ele>769.2</ele>
        <time>2023-08-03T11:33:41Z</time>
      </trkpt>
      <trkpt lat="44.97605" lon="5.70394">
        <ele>769.4</ele>
        <time>2023-08-03T11:33:42Z</time>
      </trkpt>
      <trkpt lat="44.97597" lon="5.70393">
        <ele>770</ele>
        <time>2023-08-03T11:33:44Z</time>
      </trkpt>
      <trkpt lat="44.97581" lon="5.70394">
        <ele>771</ele>
        <time>2023-08-03T11:33:48Z</time>
      </trkpt>
      <trkpt lat="44.97574" lon="5.70393">
        <ele>771.5</ele>
        <time>2023-08-03T11:33:50Z</time>
      </trkpt>
      <trkpt lat="44.97566" lon="5.70393">
        <ele>772</ele>
        <time>2023-08-03T11:33:52Z</time>
      </trkpt>
      <trkpt lat="44.97552" lon="5.70392">
        <ele>773.1</ele>
        <time>2023-08-03T11:33:56Z</time>
      </trkpt>
      <trkpt lat="44.97546" lon="5.70392">
        <ele>773.6</ele>
        <time>2023-08-03T11:33:58Z</time>
      </trkpt>
      <trkpt lat="44.97542" lon="5.70392">
        <ele>773.9</ele>
        <time>2023-08-03T11:33:59Z</time>
      </trkpt>
      <trkpt lat="44.97536" lon="5.70393">
        <ele>774.4</ele>
        <time>2023-08-03T11:34:01Z</time>
      </trkpt>
      <trkpt lat="44.97531" lon="5.70393">
        <ele>774.8</ele>
        <time>2023-08-03T11:34:03Z</time>
      </trkpt>
      <trkpt lat="44.97525" lon="5.70393">
        <ele>775.3</ele>
        <time>2023-08-03T11:34:05Z</time>
      </trkpt>
      <trkpt lat="44.97519" lon="5.70392">
        <ele>775.8</ele>
        <time>2023-08-03T11:34:07Z</time>
      </trkpt>
      <trkpt lat="44.97506" lon="5.70392">
        <ele>776.9</ele>
        <time>2023-08-03T11:34:11Z</time>
      </trkpt>
      <trkpt lat="44.97494" lon="5.7039">
        <ele>777.9</ele>
        <time>2023-08-03T11:34:15Z</time>
      </trkpt>
      <trkpt lat="44.97488" lon="5.70389">
        <ele>778.4</ele>
        <time>2023-08-03T11:34:17Z</time>
      </trkpt>
      <trkpt lat="44.97472" lon="5.70388">
        <ele>779.6</ele>
        <time>2023-08-03T11:34:22Z</time>
      </trkpt>
      <trkpt lat="44.97461" lon="5.70388">
        <ele>780.5</ele>
        <time>2023-08-03T11:34:26Z</time>
      </trkpt>
      <trkpt lat="44.97453" lon="5.70389">
        <ele>781.1</ele>
        <time>2023-08-03T11:34:28Z</time>
      </trkpt>
      <trkpt lat="44.97436" lon="5.70389">
        <ele>782.3</ele>
        <time>2023-08-03T11:34:33Z</time>
      </trkpt>
      <trkpt lat="44.97428" lon="5.70389">
        <ele>782.9</ele>
        <time>2023-08-03T11:34:35Z</time>
      </trkpt>
      <trkpt lat="44.97418" lon="5.70389">
        <ele>782.8</ele>
        <time>2023-08-03T11:34:38Z</time>
      </trkpt>
      <trkpt lat="44.97408" lon="5.70388">
        <ele>783</ele>
        <time>2023-08-03T11:34:41Z</time>
      </trkpt>
      <trkpt lat="44.97395" lon="5.70388">
        <ele>783.6</ele>
        <time>2023-08-03T11:34:44Z</time>
      </trkpt>
      <trkpt lat="44.97379" lon="5.70387">
        <ele>784.5</ele>
        <time>2023-08-03T11:34:48Z</time>
      </trkpt>
      <trkpt lat="44.97371" lon="5.70386">
        <ele>784.9</ele>
        <time>2023-08-03T11:34:50Z</time>
      </trkpt>
      <trkpt lat="44.97349" lon="5.70387">
        <ele>786.1</ele>
        <time>2023-08-03T11:34:56Z</time>
      </trkpt>
      <trkpt lat="44.97345" lon="5.70386">
        <ele>786.3</ele>
        <time>2023-08-03T11:34:57Z</time>
      </trkpt>
      <trkpt lat="44.9733" lon="5.70385">
        <ele>787.1</ele>
        <time>2023-08-03T11:35:01Z</time>
      </trkpt>
      <trkpt lat="44.97305" lon="5.70385">
        <ele>788.7</ele>
        <time>2023-08-03T11:35:08Z</time>
      </trkpt>
      <trkpt lat="44.97275" lon="5.70385">
        <ele>790.5</ele>
        <time>2023-08-03T11:35:16Z</time>
      </trkpt>
      <trkpt lat="44.97271" lon="5.70385">
        <ele>790.7</ele>
        <time>2023-08-03T11:35:17Z</time>
      </trkpt>
      <trkpt lat="44.97252" lon="5.70384">
        <ele>792.2</ele>
        <time>2023-08-03T11:35:22Z</time>
      </trkpt>
      <trkpt lat="44.97236" lon="5.70383">
        <ele>793.5</ele>
        <time>2023-08-03T11:35:26Z</time>
      </trkpt>
      <trkpt lat="44.97228" lon="5.70384">
        <ele>794.2</ele>
        <time>2023-08-03T11:35:28Z</time>
      </trkpt>
      <trkpt lat="44.97202" lon="5.70384">
        <ele>796.7</ele>
        <time>2023-08-03T11:35:35Z</time>
      </trkpt>
      <trkpt lat="44.97193" lon="5.70384">
        <ele>797.5</ele>
        <time>2023-08-03T11:35:37Z</time>
      </trkpt>
      <trkpt lat="44.97178" lon="5.70383">
        <ele>798.8</ele>
        <time>2023-08-03T11:35:41Z</time>
      </trkpt>
      <trkpt lat="44.97155" lon="5.70382">
        <ele>801</ele>
        <time>2023-08-03T11:35:47Z</time>
      </trkpt>
      <trkpt lat="44.97147" lon="5.70382">
        <ele>801.8</ele>
        <time>2023-08-03T11:35:49Z</time>
      </trkpt>
      <trkpt lat="44.97116" lon="5.70381">
        <ele>802.5</ele>
        <time>2023-08-03T11:35:57Z</time>
      </trkpt>
      <trkpt lat="44.97104" lon="5.70381">
        <ele>803.3</ele>
        <time>2023-08-03T11:36:00Z</time>
      </trkpt>
      <trkpt lat="44.97078" lon="5.70381">
        <ele>805.2</ele>
        <time>2023-08-03T11:36:07Z</time>
      </trkpt>
      <trkpt lat="44.97065" lon="5.7038">
        <ele>806.1</ele>
        <time>2023-08-03T11:36:10Z</time>
      </trkpt>
      <trkpt lat="44.97038" lon="5.70379">
        <ele>808</ele>
        <time>2023-08-03T11:36:17Z</time>
      </trkpt>
      <trkpt lat="44.97018" lon="5.7038">
        <ele>809.4</ele>
        <time>2023-08-03T11:36:22Z</time>
      </trkpt>
      <trkpt lat="44.96992" lon="5.70379">
        <ele>811.3</ele>
        <time>2023-08-03T11:36:29Z</time>
      </trkpt>
      <trkpt lat="44.96984" lon="5.70379">
        <ele>811.9</ele>
        <time>2023-08-03T11:36:31Z</time>
      </trkpt>
      <trkpt lat="44.96962" lon="5.70373">
        <ele>813.6</ele>
        <time>2023-08-03T11:36:37Z</time>
      </trkpt>
      <trkpt lat="44.9694" lon="5.70359">
        <ele>815.3</ele>
        <time>2023-08-03T11:36:44Z</time>
      </trkpt>
      <trkpt lat="44.9692" lon="5.70344">
        <ele>816.7</ele>
        <time>2023-08-03T11:36:50Z</time>
      </trkpt>
      <trkpt lat="44.96908" lon="5.70332">
        <ele>817.5</ele>
        <time>2023-08-03T11:36:54Z</time>
      </trkpt>
      <trkpt lat="44.96899" lon="5.70324">
        <ele>818.3</ele>
        <time>2023-08-03T11:36:57Z</time>
      </trkpt>
      <trkpt lat="44.96876" lon="5.70304">
        <ele>820.4</ele>
        <time>2023-08-03T11:37:04Z</time>
      </trkpt>
      <trkpt lat="44.96873" lon="5.70302">
        <ele>820.7</ele>
        <time>2023-08-03T11:37:05Z</time>
      </trkpt>
      <trkpt lat="44.96854" lon="5.70284">
        <ele>822.4</ele>
        <time>2023-08-03T11:37:11Z</time>
      </trkpt>
      <trkpt lat="44.9685" lon="5.70281">
        <ele>822.6</ele>
        <time>2023-08-03T11:37:12Z</time>
      </trkpt>
      <trkpt lat="44.9684" lon="5.70272">
        <ele>823.5</ele>
        <time>2023-08-03T11:37:15Z</time>
      </trkpt>
      <trkpt lat="44.96823" lon="5.70257">
        <ele>825</ele>
        <time>2023-08-03T11:37:20Z</time>
      </trkpt>
      <trkpt lat="44.96811" lon="5.70246">
        <ele>826</ele>
        <time>2023-08-03T11:37:24Z</time>
      </trkpt>
      <trkpt lat="44.96798" lon="5.70234">
        <ele>826.4</ele>
        <time>2023-08-03T11:37:28Z</time>
      </trkpt>
      <trkpt lat="44.96788" lon="5.70225">
        <ele>826.8</ele>
        <time>2023-08-03T11:37:31Z</time>
      </trkpt>
      <trkpt lat="44.9678" lon="5.70218">
        <ele>827.2</ele>
        <time>2023-08-03T11:37:33Z</time>
      </trkpt>
      <trkpt lat="44.96764" lon="5.70204">
        <ele>827.9</ele>
        <time>2023-08-03T11:37:38Z</time>
      </trkpt>
      <trkpt lat="44.9675" lon="5.70191">
        <ele>828.6</ele>
        <time>2023-08-03T11:37:42Z</time>
      </trkpt>
      <trkpt lat="44.96734" lon="5.70176">
        <ele>829.4</ele>
        <time>2023-08-03T11:37:47Z</time>
      </trkpt>
      <trkpt lat="44.96723" lon="5.70166">
        <ele>830.1</ele>
        <time>2023-08-03T11:37:50Z</time>
      </trkpt>
      <trkpt lat="44.96719" lon="5.70163">
        <ele>830.3</ele>
        <time>2023-08-03T11:37:51Z</time>
      </trkpt>
      <trkpt lat="44.96709" lon="5.70155">
        <ele>830.9</ele>
        <time>2023-08-03T11:37:54Z</time>
      </trkpt>
      <trkpt lat="44.96692" lon="5.70139">
        <ele>832</ele>
        <time>2023-08-03T11:37:59Z</time>
      </trkpt>
      <trkpt lat="44.96675" lon="5.70125">
        <ele>833</ele>
        <time>2023-08-03T11:38:04Z</time>
      </trkpt>
      <trkpt lat="44.96661" lon="5.70113">
        <ele>833.9</ele>
        <time>2023-08-03T11:38:08Z</time>
      </trkpt>
      <trkpt lat="44.9664" lon="5.70093">
        <ele>835.3</ele>
        <time>2023-08-03T11:38:14Z</time>
      </trkpt>
      <trkpt lat="44.96636" lon="5.7009">
        <ele>835.5</ele>
        <time>2023-08-03T11:38:15Z</time>
      </trkpt>
      <trkpt lat="44.96619" lon="5.70075">
        <ele>836.5</ele>
        <time>2023-08-03T11:38:20Z</time>
      </trkpt>
      <trkpt lat="44.96603" lon="5.70064">
        <ele>837.5</ele>
        <time>2023-08-03T11:38:24Z</time>
      </trkpt>
      <trkpt lat="44.96599" lon="5.70062">
        <ele>837.6</ele>
        <time>2023-08-03T11:38:25Z</time>
      </trkpt>
      <trkpt lat="44.96584" lon="5.70055">
        <ele>838</ele>
        <time>2023-08-03T11:38:29Z</time>
      </trkpt>
      <trkpt lat="44.96573" lon="5.70051">
        <ele>838.3</ele>
        <time>2023-08-03T11:38:32Z</time>
      </trkpt>
      <trkpt lat="44.96557" lon="5.70047">
        <ele>839</ele>
        <time>2023-08-03T11:38:36Z</time>
      </trkpt>
      <trkpt lat="44.96545" lon="5.70046">
        <ele>839.5</ele>
        <time>2023-08-03T11:38:39Z</time>
      </trkpt>
      <trkpt lat="44.96542" lon="5.70046">
        <ele>839.6</ele>
        <time>2023-08-03T11:38:40Z</time>
      </trkpt>
      <trkpt lat="44.96529" lon="5.70048">
        <ele>840</ele>
        <time>2023-08-03T11:38:44Z</time>
      </trkpt>
      <trkpt lat="44.96526" lon="5.70048">
        <ele>840</ele>
        <time>2023-08-03T11:38:45Z</time>
      </trkpt>
      <trkpt lat="44.96524" lon="5.70047">
        <ele>839.9</ele>
        <time>2023-08-03T11:38:46Z</time>
      </trkpt>
      <trkpt lat="44.96523" lon="5.70048">
        <ele>839.9</ele>
        <time>2023-08-03T11:38:47Z</time>
      </trkpt>
      <trkpt lat="44.96523" lon="5.70053">
        <ele>839.8</ele>
        <time>2023-08-03T11:38:49Z</time>
      </trkpt>
      <trkpt lat="44.96525" lon="5.70054">
        <ele>839.8</ele>
        <time>2023-08-03T11:38:50Z</time>
      </trkpt>
      <trkpt lat="44.96531" lon="5.70054">
        <ele>839.6</ele>
        <time>2023-08-03T11:38:52Z</time>
      </trkpt>
      <trkpt lat="44.96544" lon="5.70051">
        <ele>839.3</ele>
        <time>2023-08-03T11:38:55Z</time>
      </trkpt>
      <trkpt lat="44.96552" lon="5.70052">
        <ele>839</ele>
        <time>2023-08-03T11:38:57Z</time>
      </trkpt>
      <trkpt lat="44.96557" lon="5.70052">
        <ele>838.9</ele>
        <time>2023-08-03T11:38:58Z</time>
      </trkpt>
      <trkpt lat="44.96572" lon="5.70056">
        <ele>838.3</ele>
        <time>2023-08-03T11:39:01Z</time>
      </trkpt>
      <trkpt lat="44.96576" lon="5.70058">
        <ele>838.2</ele>
        <time>2023-08-03T11:39:02Z</time>
      </trkpt>
      <trkpt lat="44.96589" lon="5.70063">
        <ele>837.9</ele>
        <time>2023-08-03T11:39:04Z</time>
      </trkpt>
      <trkpt lat="44.966" lon="5.70067">
        <ele>837.4</ele>
        <time>2023-08-03T11:39:06Z</time>
      </trkpt>
      <trkpt lat="44.96605" lon="5.70069">
        <ele>837.4</ele>
        <time>2023-08-03T11:39:07Z</time>
      </trkpt>
      <trkpt lat="44.96613" lon="5.70073">
        <ele>837.3</ele>
        <time>2023-08-03T11:39:09Z</time>
      </trkpt>
      <trkpt lat="44.96616" lon="5.70072">
        <ele>837.3</ele>
        <time>2023-08-03T11:39:10Z</time>
      </trkpt>
      <trkpt lat="44.96618" lon="5.7007">
        <ele>837.3</ele>
        <time>2023-08-03T11:39:12Z</time>
      </trkpt>
      <trkpt lat="44.96608" lon="5.70069">
        <ele>837.3</ele>
        <time>2023-08-03T11:44:43Z</time>
      </trkpt>
      <trkpt lat="44.96598" lon="5.70065">
        <ele>837.6</ele>
        <time>2023-08-03T11:44:49Z</time>
      </trkpt>
      <trkpt lat="44.96588" lon="5.70059">
        <ele>837.9</ele>
        <time>2023-08-03T11:44:54Z</time>
      </trkpt>
      <trkpt lat="44.96581" lon="5.70057">
        <ele>838.1</ele>
        <time>2023-08-03T11:44:56Z</time>
      </trkpt>
      <trkpt lat="44.96556" lon="5.70051">
        <ele>839</ele>
        <time>2023-08-03T11:45:03Z</time>
      </trkpt>
      <trkpt lat="44.9653" lon="5.7005">
        <ele>840.1</ele>
        <time>2023-08-03T11:45:10Z</time>
      </trkpt>
      <trkpt lat="44.96523" lon="5.70053">
        <ele>840.4</ele>
        <time>2023-08-03T11:45:12Z</time>
      </trkpt>
      <trkpt lat="44.96512" lon="5.70065">
        <ele>840.9</ele>
        <time>2023-08-03T11:45:15Z</time>
      </trkpt>
      <trkpt lat="44.96506" lon="5.70073">
        <ele>841.1</ele>
        <time>2023-08-03T11:45:17Z</time>
      </trkpt>
      <trkpt lat="44.96502" lon="5.70085">
        <ele>841.4</ele>
        <time>2023-08-03T11:45:19Z</time>
      </trkpt>
      <trkpt lat="44.965" lon="5.70091">
        <ele>841.5</ele>
        <time>2023-08-03T11:45:20Z</time>
      </trkpt>
      <trkpt lat="44.96492" lon="5.70121">
        <ele>842</ele>
        <time>2023-08-03T11:45:25Z</time>
      </trkpt>
      <trkpt lat="44.96489" lon="5.70133">
        <ele>842.2</ele>
        <time>2023-08-03T11:45:27Z</time>
      </trkpt>
      <trkpt lat="44.96486" lon="5.70146">
        <ele>842.3</ele>
        <time>2023-08-03T11:45:29Z</time>
      </trkpt>
      <trkpt lat="44.96479" lon="5.70164">
        <ele>842.6</ele>
        <time>2023-08-03T11:45:32Z</time>
      </trkpt>
      <trkpt lat="44.9647" lon="5.70195">
        <ele>843</ele>
        <time>2023-08-03T11:45:37Z</time>
      </trkpt>
      <trkpt lat="44.96467" lon="5.70208">
        <ele>843</ele>
        <time>2023-08-03T11:45:39Z</time>
      </trkpt>
      <trkpt lat="44.96459" lon="5.70234">
        <ele>843.3</ele>
        <time>2023-08-03T11:45:43Z</time>
      </trkpt>
      <trkpt lat="44.96452" lon="5.7026">
        <ele>843.6</ele>
        <time>2023-08-03T11:45:47Z</time>
      </trkpt>
      <trkpt lat="44.9645" lon="5.70266">
        <ele>843.7</ele>
        <time>2023-08-03T11:45:48Z</time>
      </trkpt>
      <trkpt lat="44.96435" lon="5.70301">
        <ele>844.4</ele>
        <time>2023-08-03T11:45:54Z</time>
      </trkpt>
      <trkpt lat="44.96433" lon="5.70307">
        <ele>844.6</ele>
        <time>2023-08-03T11:45:55Z</time>
      </trkpt>
      <trkpt lat="44.96424" lon="5.70323">
        <ele>845</ele>
        <time>2023-08-03T11:45:58Z</time>
      </trkpt>
      <trkpt lat="44.9641" lon="5.70342">
        <ele>845.3</ele>
        <time>2023-08-03T11:46:02Z</time>
      </trkpt>
      <trkpt lat="44.96391" lon="5.70362">
        <ele>845.8</ele>
        <time>2023-08-03T11:46:07Z</time>
      </trkpt>
      <trkpt lat="44.96378" lon="5.70373">
        <ele>846.1</ele>
        <time>2023-08-03T11:46:10Z</time>
      </trkpt>
      <trkpt lat="44.96373" lon="5.70377">
        <ele>846.2</ele>
        <time>2023-08-03T11:46:11Z</time>
      </trkpt>
      <trkpt lat="44.96364" lon="5.70383">
        <ele>846.3</ele>
        <time>2023-08-03T11:46:13Z</time>
      </trkpt>
      <trkpt lat="44.96354" lon="5.70389">
        <ele>846.5</ele>
        <time>2023-08-03T11:46:15Z</time>
      </trkpt>
      <trkpt lat="44.96344" lon="5.70394">
        <ele>846.7</ele>
        <time>2023-08-03T11:46:17Z</time>
      </trkpt>
      <trkpt lat="44.96325" lon="5.70403">
        <ele>847</ele>
        <time>2023-08-03T11:46:21Z</time>
      </trkpt>
      <trkpt lat="44.9632" lon="5.70405">
        <ele>847.1</ele>
        <time>2023-08-03T11:46:22Z</time>
      </trkpt>
      <trkpt lat="44.96309" lon="5.70409">
        <ele>847.2</ele>
        <time>2023-08-03T11:46:24Z</time>
      </trkpt>
      <trkpt lat="44.96299" lon="5.70413">
        <ele>847.3</ele>
        <time>2023-08-03T11:46:26Z</time>
      </trkpt>
      <trkpt lat="44.96283" lon="5.70417">
        <ele>847.5</ele>
        <time>2023-08-03T11:46:29Z</time>
      </trkpt>
      <trkpt lat="44.96273" lon="5.7042">
        <ele>847.6</ele>
        <time>2023-08-03T11:46:31Z</time>
      </trkpt>
      <trkpt lat="44.96262" lon="5.70423">
        <ele>847.7</ele>
        <time>2023-08-03T11:46:33Z</time>
      </trkpt>
      <trkpt lat="44.96252" lon="5.70425">
        <ele>847.9</ele>
        <time>2023-08-03T11:46:35Z</time>
      </trkpt>
      <trkpt lat="44.96236" lon="5.70427">
        <ele>848.1</ele>
        <time>2023-08-03T11:46:38Z</time>
      </trkpt>
      <trkpt lat="44.96231" lon="5.70428">
        <ele>848.2</ele>
        <time>2023-08-03T11:46:39Z</time>
      </trkpt>
      <trkpt lat="44.96226" lon="5.70428">
        <ele>848.3</ele>
        <time>2023-08-03T11:46:40Z</time>
      </trkpt>
      <trkpt lat="44.96211" lon="5.70429">
        <ele>848.5</ele>
        <time>2023-08-03T11:46:43Z</time>
      </trkpt>
      <trkpt lat="44.96201" lon="5.7043">
        <ele>848.6</ele>
        <time>2023-08-03T11:46:45Z</time>
      </trkpt>
      <trkpt lat="44.96196" lon="5.7043">
        <ele>848.7</ele>
        <time>2023-08-03T11:46:46Z</time>
      </trkpt>
      <trkpt lat="44.96186" lon="5.7043">
        <ele>848.8</ele>
        <time>2023-08-03T11:46:48Z</time>
      </trkpt>
      <trkpt lat="44.96172" lon="5.70431">
        <ele>849</ele>
        <time>2023-08-03T11:46:51Z</time>
      </trkpt>
      <trkpt lat="44.96162" lon="5.70431">
        <ele>848.8</ele>
        <time>2023-08-03T11:46:53Z</time>
      </trkpt>
      <trkpt lat="44.96153" lon="5.70432">
        <ele>848.3</ele>
        <time>2023-08-03T11:46:55Z</time>
      </trkpt>
      <trkpt lat="44.96145" lon="5.70435">
        <ele>847.9</ele>
        <time>2023-08-03T11:46:57Z</time>
      </trkpt>
      <trkpt lat="44.96142" lon="5.70436">
        <ele>847.8</ele>
        <time>2023-08-03T11:46:58Z</time>
      </trkpt>
      <trkpt lat="44.9614" lon="5.70438">
        <ele>847.6</ele>
        <time>2023-08-03T11:46:59Z</time>
      </trkpt>
      <trkpt lat="44.96141" lon="5.7044">
        <ele>847.6</ele>
        <time>2023-08-03T11:47:00Z</time>
      </trkpt>
      <trkpt lat="44.96149" lon="5.70439">
        <ele>847.1</ele>
        <time>2023-08-03T11:47:03Z</time>
      </trkpt>
      <trkpt lat="44.96158" lon="5.70431">
        <ele>846.6</ele>
        <time>2023-08-03T11:47:06Z</time>
      </trkpt>
      <trkpt lat="44.96159" lon="5.70427">
        <ele>846.4</ele>
        <time>2023-08-03T11:47:07Z</time>
      </trkpt>
      <trkpt lat="44.96157" lon="5.70422">
        <ele>846.2</ele>
        <time>2023-08-03T11:47:09Z</time>
      </trkpt>
      <trkpt lat="44.96154" lon="5.70421">
        <ele>846.1</ele>
        <time>2023-08-03T11:47:10Z</time>
      </trkpt>
      <trkpt lat="44.96149" lon="5.7042">
        <ele>845.8</ele>
        <time>2023-08-03T11:47:12Z</time>
      </trkpt>
      <trkpt lat="44.96143" lon="5.7042">
        <ele>845.5</ele>
        <time>2023-08-03T11:47:15Z</time>
      </trkpt>
      <trkpt lat="44.96136" lon="5.70421">
        <ele>845.1</ele>
        <time>2023-08-03T11:47:18Z</time>
      </trkpt>
      <trkpt lat="44.96128" lon="5.70422">
        <ele>844.6</ele>
        <time>2023-08-03T11:47:22Z</time>
      </trkpt>
      <trkpt lat="44.96124" lon="5.70422">
        <ele>844.4</ele>
        <time>2023-08-03T11:47:24Z</time>
      </trkpt>
      <trkpt lat="44.96122" lon="5.70423">
        <ele>844.3</ele>
        <time>2023-08-03T11:47:25Z</time>
      </trkpt>
      <trkpt lat="44.96119" lon="5.70425">
        <ele>844.1</ele>
        <time>2023-08-03T11:47:27Z</time>
      </trkpt>
      <trkpt lat="44.96115" lon="5.7043">
        <ele>843.8</ele>
        <time>2023-08-03T11:47:29Z</time>
      </trkpt>
      <trkpt lat="44.96113" lon="5.70433">
        <ele>843.6</ele>
        <time>2023-08-03T11:47:30Z</time>
      </trkpt>
      <trkpt lat="44.96108" lon="5.70443">
        <ele>843</ele>
        <time>2023-08-03T11:47:32Z</time>
      </trkpt>
      <trkpt lat="44.96105" lon="5.70458">
        <ele>842.4</ele>
        <time>2023-08-03T11:47:34Z</time>
      </trkpt>
      <trkpt lat="44.96104" lon="5.70477">
        <ele>841.7</ele>
        <time>2023-08-03T11:47:36Z</time>
      </trkpt>
      <trkpt lat="44.96102" lon="5.70536">
        <ele>839.5</ele>
        <time>2023-08-03T11:47:41Z</time>
      </trkpt>
      <trkpt lat="44.96101" lon="5.7055">
        <ele>839.1</ele>
        <time>2023-08-03T11:47:42Z</time>
      </trkpt>
      <trkpt lat="44.96096" lon="5.70591">
        <ele>836.9</ele>
        <time>2023-08-03T11:47:45Z</time>
      </trkpt>
      <trkpt lat="44.96094" lon="5.70621">
        <ele>835</ele>
        <time>2023-08-03T11:47:47Z</time>
      </trkpt>
      <trkpt lat="44.96092" lon="5.7067">
        <ele>832.1</ele>
        <time>2023-08-03T11:47:50Z</time>
      </trkpt>
      <trkpt lat="44.96093" lon="5.70704">
        <ele>830.1</ele>
        <time>2023-08-03T11:47:52Z</time>
      </trkpt>
      <trkpt lat="44.96095" lon="5.70758">
        <ele>827</ele>
        <time>2023-08-03T11:47:55Z</time>
      </trkpt>
      <trkpt lat="44.96095" lon="5.70777">
        <ele>826</ele>
        <time>2023-08-03T11:47:56Z</time>
      </trkpt>
      <trkpt lat="44.96098" lon="5.70833">
        <ele>822.7</ele>
        <time>2023-08-03T11:47:59Z</time>
      </trkpt>
      <trkpt lat="44.96101" lon="5.70871">
        <ele>820.4</ele>
        <time>2023-08-03T11:48:01Z</time>
      </trkpt>
      <trkpt lat="44.96104" lon="5.7089">
        <ele>819.3</ele>
        <time>2023-08-03T11:48:02Z</time>
      </trkpt>
      <trkpt lat="44.96113" lon="5.70943">
        <ele>816.4</ele>
        <time>2023-08-03T11:48:05Z</time>
      </trkpt>
      <trkpt lat="44.96115" lon="5.70963">
        <ele>815.4</ele>
        <time>2023-08-03T11:48:06Z</time>
      </trkpt>
      <trkpt lat="44.96117" lon="5.70982">
        <ele>814.4</ele>
        <time>2023-08-03T11:48:07Z</time>
      </trkpt>
      <trkpt lat="44.96118" lon="5.71002">
        <ele>813.2</ele>
        <time>2023-08-03T11:48:08Z</time>
      </trkpt>
      <trkpt lat="44.96118" lon="5.71022">
        <ele>812</ele>
        <time>2023-08-03T11:48:09Z</time>
      </trkpt>
      <trkpt lat="44.96116" lon="5.71042">
        <ele>810.8</ele>
        <time>2023-08-03T11:48:10Z</time>
      </trkpt>
      <trkpt lat="44.96115" lon="5.71083">
        <ele>808.5</ele>
        <time>2023-08-03T11:48:12Z</time>
      </trkpt>
      <trkpt lat="44.96113" lon="5.71124">
        <ele>806.3</ele>
        <time>2023-08-03T11:48:14Z</time>
      </trkpt>
      <trkpt lat="44.9611" lon="5.71144">
        <ele>805.2</ele>
        <time>2023-08-03T11:48:15Z</time>
      </trkpt>
      <trkpt lat="44.96107" lon="5.71164">
        <ele>804</ele>
        <time>2023-08-03T11:48:16Z</time>
      </trkpt>
      <trkpt lat="44.96097" lon="5.71208">
        <ele>801.4</ele>
        <time>2023-08-03T11:48:18Z</time>
      </trkpt>
      <trkpt lat="44.96093" lon="5.71228">
        <ele>800.1</ele>
        <time>2023-08-03T11:48:19Z</time>
      </trkpt>
      <trkpt lat="44.96081" lon="5.7129">
        <ele>796.6</ele>
        <time>2023-08-03T11:48:22Z</time>
      </trkpt>
      <trkpt lat="44.96079" lon="5.71311">
        <ele>795.5</ele>
        <time>2023-08-03T11:48:23Z</time>
      </trkpt>
      <trkpt lat="44.96078" lon="5.71333">
        <ele>794.3</ele>
        <time>2023-08-03T11:48:24Z</time>
      </trkpt>
      <trkpt lat="44.96076" lon="5.71377">
        <ele>792</ele>
        <time>2023-08-03T11:48:26Z</time>
      </trkpt>
      <trkpt lat="44.96071" lon="5.71417">
        <ele>789.8</ele>
        <time>2023-08-03T11:48:28Z</time>
      </trkpt>
      <trkpt lat="44.96065" lon="5.71435">
        <ele>788.8</ele>
        <time>2023-08-03T11:48:29Z</time>
      </trkpt>
      <trkpt lat="44.9606" lon="5.7145">
        <ele>788</ele>
        <time>2023-08-03T11:48:30Z</time>
      </trkpt>
      <trkpt lat="44.9605" lon="5.71469">
        <ele>786.8</ele>
        <time>2023-08-03T11:48:31Z</time>
      </trkpt>
      <trkpt lat="44.96039" lon="5.71484">
        <ele>785.7</ele>
        <time>2023-08-03T11:48:32Z</time>
      </trkpt>
      <trkpt lat="44.96017" lon="5.71512">
        <ele>783.3</ele>
        <time>2023-08-03T11:48:34Z</time>
      </trkpt>
      <trkpt lat="44.95997" lon="5.7154">
        <ele>780.9</ele>
        <time>2023-08-03T11:48:36Z</time>
      </trkpt>
      <trkpt lat="44.95986" lon="5.71565">
        <ele>779.3</ele>
        <time>2023-08-03T11:48:38Z</time>
      </trkpt>
      <trkpt lat="44.95984" lon="5.71582">
        <ele>778.4</ele>
        <time>2023-08-03T11:48:39Z</time>
      </trkpt>
      <trkpt lat="44.95985" lon="5.71596">
        <ele>777.7</ele>
        <time>2023-08-03T11:48:40Z</time>
      </trkpt>
      <trkpt lat="44.95989" lon="5.7161">
        <ele>776.9</ele>
        <time>2023-08-03T11:48:41Z</time>
      </trkpt>
      <trkpt lat="44.95993" lon="5.71625">
        <ele>776.1</ele>
        <time>2023-08-03T11:48:42Z</time>
      </trkpt>
      <trkpt lat="44.95996" lon="5.71641">
        <ele>775.3</ele>
        <time>2023-08-03T11:48:43Z</time>
      </trkpt>
      <trkpt lat="44.96003" lon="5.71673">
        <ele>773.6</ele>
        <time>2023-08-03T11:48:45Z</time>
      </trkpt>
      <trkpt lat="44.96008" lon="5.71688">
        <ele>772.9</ele>
        <time>2023-08-03T11:48:46Z</time>
      </trkpt>
      <trkpt lat="44.96021" lon="5.71712">
        <ele>772.2</ele>
        <time>2023-08-03T11:48:48Z</time>
      </trkpt>
      <trkpt lat="44.96024" lon="5.7172">
        <ele>772.2</ele>
        <time>2023-08-03T11:48:49Z</time>
      </trkpt>
      <trkpt lat="44.96024" lon="5.71725">
        <ele>772.1</ele>
        <time>2023-08-03T11:48:50Z</time>
      </trkpt>
      <trkpt lat="44.96022" lon="5.71729">
        <ele>772.1</ele>
        <time>2023-08-03T11:48:51Z</time>
      </trkpt>
      <trkpt lat="44.96018" lon="5.71728">
        <ele>772</ele>
        <time>2023-08-03T11:48:52Z</time>
      </trkpt>
      <trkpt lat="44.96014" lon="5.71721">
        <ele>771.8</ele>
        <time>2023-08-03T11:48:53Z</time>
      </trkpt>
      <trkpt lat="44.9601" lon="5.71712">
        <ele>771.1</ele>
        <time>2023-08-03T11:48:54Z</time>
      </trkpt>
      <trkpt lat="44.96007" lon="5.71703">
        <ele>770.3</ele>
        <time>2023-08-03T11:48:55Z</time>
      </trkpt>
      <trkpt lat="44.96002" lon="5.71692">
        <ele>769.5</ele>
        <time>2023-08-03T11:48:56Z</time>
      </trkpt>
      <trkpt lat="44.95996" lon="5.71679">
        <ele>768.5</ele>
        <time>2023-08-03T11:48:57Z</time>
      </trkpt>
      <trkpt lat="44.95992" lon="5.71669">
        <ele>767.8</ele>
        <time>2023-08-03T11:48:58Z</time>
      </trkpt>
      <trkpt lat="44.95987" lon="5.71653">
        <ele>766.7</ele>
        <time>2023-08-03T11:48:59Z</time>
      </trkpt>
      <trkpt lat="44.95981" lon="5.71641">
        <ele>765.7</ele>
        <time>2023-08-03T11:49:00Z</time>
      </trkpt>
      <trkpt lat="44.95971" lon="5.71633">
        <ele>764.6</ele>
        <time>2023-08-03T11:49:01Z</time>
      </trkpt>
      <trkpt lat="44.9596" lon="5.71626">
        <ele>763.4</ele>
        <time>2023-08-03T11:49:02Z</time>
      </trkpt>
      <trkpt lat="44.95939" lon="5.71611">
        <ele>761.1</ele>
        <time>2023-08-03T11:49:04Z</time>
      </trkpt>
      <trkpt lat="44.95932" lon="5.71598">
        <ele>760.1</ele>
        <time>2023-08-03T11:49:05Z</time>
      </trkpt>
      <trkpt lat="44.95927" lon="5.71584">
        <ele>759</ele>
        <time>2023-08-03T11:49:06Z</time>
      </trkpt>
      <trkpt lat="44.95929" lon="5.71571">
        <ele>758.1</ele>
        <time>2023-08-03T11:49:07Z</time>
      </trkpt>
      <trkpt lat="44.95935" lon="5.71557">
        <ele>756.9</ele>
        <time>2023-08-03T11:49:08Z</time>
      </trkpt>
      <trkpt lat="44.9594" lon="5.71543">
        <ele>755.6</ele>
        <time>2023-08-03T11:49:09Z</time>
      </trkpt>
      <trkpt lat="44.95943" lon="5.71528">
        <ele>754.6</ele>
        <time>2023-08-03T11:49:10Z</time>
      </trkpt>
      <trkpt lat="44.95944" lon="5.71512">
        <ele>753.6</ele>
        <time>2023-08-03T11:49:11Z</time>
      </trkpt>
      <trkpt lat="44.95939" lon="5.71482">
        <ele>751.8</ele>
        <time>2023-08-03T11:49:13Z</time>
      </trkpt>
      <trkpt lat="44.95922" lon="5.71436">
        <ele>748.7</ele>
        <time>2023-08-03T11:49:16Z</time>
      </trkpt>
      <trkpt lat="44.95915" lon="5.71421">
        <ele>747.6</ele>
        <time>2023-08-03T11:49:17Z</time>
      </trkpt>
      <trkpt lat="44.95899" lon="5.71392">
        <ele>745.3</ele>
        <time>2023-08-03T11:49:19Z</time>
      </trkpt>
      <trkpt lat="44.95881" lon="5.71365">
        <ele>743</ele>
        <time>2023-08-03T11:49:21Z</time>
      </trkpt>
      <trkpt lat="44.95871" lon="5.71352">
        <ele>741.9</ele>
        <time>2023-08-03T11:49:22Z</time>
      </trkpt>
      <trkpt lat="44.9586" lon="5.71341">
        <ele>740.8</ele>
        <time>2023-08-03T11:49:23Z</time>
      </trkpt>
      <trkpt lat="44.9583" lon="5.71307">
        <ele>737.8</ele>
        <time>2023-08-03T11:49:26Z</time>
      </trkpt>
      <trkpt lat="44.95822" lon="5.71294">
        <ele>736.7</ele>
        <time>2023-08-03T11:49:27Z</time>
      </trkpt>
      <trkpt lat="44.95816" lon="5.71279">
        <ele>735.6</ele>
        <time>2023-08-03T11:49:28Z</time>
      </trkpt>
      <trkpt lat="44.95812" lon="5.71263">
        <ele>734.6</ele>
        <time>2023-08-03T11:49:29Z</time>
      </trkpt>
      <trkpt lat="44.95808" lon="5.71247">
        <ele>733.5</ele>
        <time>2023-08-03T11:49:30Z</time>
      </trkpt>
      <trkpt lat="44.95805" lon="5.71212">
        <ele>731.5</ele>
        <time>2023-08-03T11:49:32Z</time>
      </trkpt>
      <trkpt lat="44.95805" lon="5.7118">
        <ele>729.7</ele>
        <time>2023-08-03T11:49:34Z</time>
      </trkpt>
      <trkpt lat="44.95805" lon="5.7114">
        <ele>727.3</ele>
        <time>2023-08-03T11:49:36Z</time>
      </trkpt>
      <trkpt lat="44.95803" lon="5.71123">
        <ele>726.3</ele>
        <time>2023-08-03T11:49:37Z</time>
      </trkpt>
      <trkpt lat="44.95798" lon="5.71105">
        <ele>725.3</ele>
        <time>2023-08-03T11:49:38Z</time>
      </trkpt>
      <trkpt lat="44.95793" lon="5.71092">
        <ele>724.5</ele>
        <time>2023-08-03T11:49:39Z</time>
      </trkpt>
      <trkpt lat="44.95785" lon="5.71072">
        <ele>723.3</ele>
        <time>2023-08-03T11:49:40Z</time>
      </trkpt>
      <trkpt lat="44.95776" lon="5.71058">
        <ele>722.4</ele>
        <time>2023-08-03T11:49:41Z</time>
      </trkpt>
      <trkpt lat="44.95766" lon="5.71047">
        <ele>721.4</ele>
        <time>2023-08-03T11:49:42Z</time>
      </trkpt>
      <trkpt lat="44.95756" lon="5.71037">
        <ele>720.3</ele>
        <time>2023-08-03T11:49:43Z</time>
      </trkpt>
      <trkpt lat="44.95736" lon="5.71017">
        <ele>718.2</ele>
        <time>2023-08-03T11:49:45Z</time>
      </trkpt>
      <trkpt lat="44.95728" lon="5.71004">
        <ele>717.2</ele>
        <time>2023-08-03T11:49:46Z</time>
      </trkpt>
      <trkpt lat="44.9571" lon="5.7096">
        <ele>715</ele>
        <time>2023-08-03T11:49:49Z</time>
      </trkpt>
      <trkpt lat="44.95706" lon="5.70947">
        <ele>714.6</ele>
        <time>2023-08-03T11:49:50Z</time>
      </trkpt>
      <trkpt lat="44.957" lon="5.70926">
        <ele>713.8</ele>
        <time>2023-08-03T11:49:52Z</time>
      </trkpt>
      <trkpt lat="44.95696" lon="5.70918">
        <ele>713.3</ele>
        <time>2023-08-03T11:49:53Z</time>
      </trkpt>
      <trkpt lat="44.95692" lon="5.7092">
        <ele>712.9</ele>
        <time>2023-08-03T11:49:54Z</time>
      </trkpt>
      <trkpt lat="44.9569" lon="5.70924">
        <ele>712.6</ele>
        <time>2023-08-03T11:49:55Z</time>
      </trkpt>
      <trkpt lat="44.95689" lon="5.70932">
        <ele>712</ele>
        <time>2023-08-03T11:49:56Z</time>
      </trkpt>
      <trkpt lat="44.95689" lon="5.70944">
        <ele>711.3</ele>
        <time>2023-08-03T11:49:57Z</time>
      </trkpt>
      <trkpt lat="44.9569" lon="5.70985">
        <ele>709.4</ele>
        <time>2023-08-03T11:50:00Z</time>
      </trkpt>
      <trkpt lat="44.95691" lon="5.70999">
        <ele>708.8</ele>
        <time>2023-08-03T11:50:01Z</time>
      </trkpt>
      <trkpt lat="44.95695" lon="5.71026">
        <ele>707.7</ele>
        <time>2023-08-03T11:50:03Z</time>
      </trkpt>
      <trkpt lat="44.95698" lon="5.71037">
        <ele>707.2</ele>
        <time>2023-08-03T11:50:04Z</time>
      </trkpt>
      <trkpt lat="44.95705" lon="5.71065">
        <ele>706.3</ele>
        <time>2023-08-03T11:50:06Z</time>
      </trkpt>
      <trkpt lat="44.95706" lon="5.71076">
        <ele>706.2</ele>
        <time>2023-08-03T11:50:07Z</time>
      </trkpt>
      <trkpt lat="44.95706" lon="5.71089">
        <ele>706</ele>
        <time>2023-08-03T11:50:08Z</time>
      </trkpt>
      <trkpt lat="44.95707" lon="5.71101">
        <ele>705.4</ele>
        <time>2023-08-03T11:50:09Z</time>
      </trkpt>
      <trkpt lat="44.95711" lon="5.71128">
        <ele>703.6</ele>
        <time>2023-08-03T11:50:11Z</time>
      </trkpt>
      <trkpt lat="44.95711" lon="5.71158">
        <ele>701.6</ele>
        <time>2023-08-03T11:50:13Z</time>
      </trkpt>
      <trkpt lat="44.95709" lon="5.71174">
        <ele>700.5</ele>
        <time>2023-08-03T11:50:14Z</time>
      </trkpt>
      <trkpt lat="44.95705" lon="5.71189">
        <ele>699.5</ele>
        <time>2023-08-03T11:50:15Z</time>
      </trkpt>
      <trkpt lat="44.95698" lon="5.71219">
        <ele>697.4</ele>
        <time>2023-08-03T11:50:17Z</time>
      </trkpt>
      <trkpt lat="44.95691" lon="5.71274">
        <ele>693.9</ele>
        <time>2023-08-03T11:50:20Z</time>
      </trkpt>
      <trkpt lat="44.95693" lon="5.71327">
        <ele>691.4</ele>
        <time>2023-08-03T11:50:23Z</time>
      </trkpt>
      <trkpt lat="44.95694" lon="5.7136">
        <ele>689.7</ele>
        <time>2023-08-03T11:50:25Z</time>
      </trkpt>
      <trkpt lat="44.95696" lon="5.71375">
        <ele>688.9</ele>
        <time>2023-08-03T11:50:26Z</time>
      </trkpt>
      <trkpt lat="44.957" lon="5.71389">
        <ele>688.3</ele>
        <time>2023-08-03T11:50:27Z</time>
      </trkpt>
      <trkpt lat="44.95708" lon="5.71411">
        <ele>687.2</ele>
        <time>2023-08-03T11:50:29Z</time>
      </trkpt>
      <trkpt lat="44.95708" lon="5.71419">
        <ele>686.7</ele>
        <time>2023-08-03T11:50:30Z</time>
      </trkpt>
      <trkpt lat="44.95706" lon="5.71425">
        <ele>686.3</ele>
        <time>2023-08-03T11:50:31Z</time>
      </trkpt>
      <trkpt lat="44.95703" lon="5.71427">
        <ele>686</ele>
        <time>2023-08-03T11:50:32Z</time>
      </trkpt>
      <trkpt lat="44.957" lon="5.71411">
        <ele>685.1</ele>
        <time>2023-08-03T11:50:34Z</time>
      </trkpt>
      <trkpt lat="44.95698" lon="5.71401">
        <ele>684.5</ele>
        <time>2023-08-03T11:50:35Z</time>
      </trkpt>
      <trkpt lat="44.9569" lon="5.7138">
        <ele>683.3</ele>
        <time>2023-08-03T11:50:37Z</time>
      </trkpt>
      <trkpt lat="44.95688" lon="5.71372">
        <ele>682.9</ele>
        <time>2023-08-03T11:50:38Z</time>
      </trkpt>
      <trkpt lat="44.95679" lon="5.71335">
        <ele>680.9</ele>
        <time>2023-08-03T11:50:41Z</time>
      </trkpt>
      <trkpt lat="44.95668" lon="5.71297">
        <ele>678.7</ele>
        <time>2023-08-03T11:50:44Z</time>
      </trkpt>
      <trkpt lat="44.95663" lon="5.71285">
        <ele>677.9</ele>
        <time>2023-08-03T11:50:45Z</time>
      </trkpt>
      <trkpt lat="44.95652" lon="5.7126">
        <ele>676</ele>
        <time>2023-08-03T11:50:47Z</time>
      </trkpt>
      <trkpt lat="44.95635" lon="5.71223">
        <ele>673.2</ele>
        <time>2023-08-03T11:50:50Z</time>
      </trkpt>
      <trkpt lat="44.95618" lon="5.712">
        <ele>671.1</ele>
        <time>2023-08-03T11:50:52Z</time>
      </trkpt>
      <trkpt lat="44.9561" lon="5.71191">
        <ele>670.3</ele>
        <time>2023-08-03T11:50:53Z</time>
      </trkpt>
      <trkpt lat="44.95603" lon="5.71182">
        <ele>669.6</ele>
        <time>2023-08-03T11:50:54Z</time>
      </trkpt>
      <trkpt lat="44.95592" lon="5.71169">
        <ele>668.4</ele>
        <time>2023-08-03T11:50:56Z</time>
      </trkpt>
      <trkpt lat="44.95583" lon="5.71173">
        <ele>667.4</ele>
        <time>2023-08-03T11:50:58Z</time>
      </trkpt>
      <trkpt lat="44.95581" lon="5.71186">
        <ele>666.4</ele>
        <time>2023-08-03T11:51:00Z</time>
      </trkpt>
      <trkpt lat="44.95583" lon="5.71196">
        <ele>665.7</ele>
        <time>2023-08-03T11:51:01Z</time>
      </trkpt>
      <trkpt lat="44.9559" lon="5.71213">
        <ele>664.5</ele>
        <time>2023-08-03T11:51:03Z</time>
      </trkpt>
      <trkpt lat="44.95594" lon="5.71224">
        <ele>663.8</ele>
        <time>2023-08-03T11:51:04Z</time>
      </trkpt>
      <trkpt lat="44.95601" lon="5.7125">
        <ele>662.3</ele>
        <time>2023-08-03T11:51:06Z</time>
      </trkpt>
      <trkpt lat="44.95607" lon="5.71265">
        <ele>661.5</ele>
        <time>2023-08-03T11:51:07Z</time>
      </trkpt>
      <trkpt lat="44.9562" lon="5.7129">
        <ele>659.9</ele>
        <time>2023-08-03T11:51:09Z</time>
      </trkpt>
      <trkpt lat="44.9563" lon="5.71319">
        <ele>658.3</ele>
        <time>2023-08-03T11:51:11Z</time>
      </trkpt>
      <trkpt lat="44.95634" lon="5.71335">
        <ele>657.6</ele>
        <time>2023-08-03T11:51:12Z</time>
      </trkpt>
      <trkpt lat="44.9564" lon="5.71365">
        <ele>656.2</ele>
        <time>2023-08-03T11:51:14Z</time>
      </trkpt>
      <trkpt lat="44.95641" lon="5.7138">
        <ele>655.6</ele>
        <time>2023-08-03T11:51:15Z</time>
      </trkpt>
      <trkpt lat="44.9564" lon="5.71394">
        <ele>654.9</ele>
        <time>2023-08-03T11:51:16Z</time>
      </trkpt>
      <trkpt lat="44.95636" lon="5.71407">
        <ele>654.2</ele>
        <time>2023-08-03T11:51:17Z</time>
      </trkpt>
      <trkpt lat="44.95632" lon="5.7142">
        <ele>653.4</ele>
        <time>2023-08-03T11:51:18Z</time>
      </trkpt>
      <trkpt lat="44.9563" lon="5.71434">
        <ele>652.4</ele>
        <time>2023-08-03T11:51:19Z</time>
      </trkpt>
      <trkpt lat="44.95629" lon="5.71449">
        <ele>651.5</ele>
        <time>2023-08-03T11:51:20Z</time>
      </trkpt>
      <trkpt lat="44.95632" lon="5.7148">
        <ele>649.8</ele>
        <time>2023-08-03T11:51:22Z</time>
      </trkpt>
      <trkpt lat="44.95634" lon="5.71494">
        <ele>649.1</ele>
        <time>2023-08-03T11:51:23Z</time>
      </trkpt>
      <trkpt lat="44.95635" lon="5.71509">
        <ele>648.3</ele>
        <time>2023-08-03T11:51:24Z</time>
      </trkpt>
      <trkpt lat="44.95633" lon="5.71537">
        <ele>647.1</ele>
        <time>2023-08-03T11:51:26Z</time>
      </trkpt>
      <trkpt lat="44.95634" lon="5.71551">
        <ele>646.6</ele>
        <time>2023-08-03T11:51:27Z</time>
      </trkpt>
      <trkpt lat="44.95635" lon="5.71576">
        <ele>645.7</ele>
        <time>2023-08-03T11:51:29Z</time>
      </trkpt>
      <trkpt lat="44.95636" lon="5.71589">
        <ele>645.3</ele>
        <time>2023-08-03T11:51:30Z</time>
      </trkpt>
      <trkpt lat="44.95633" lon="5.71615">
        <ele>643.2</ele>
        <time>2023-08-03T11:51:32Z</time>
      </trkpt>
      <trkpt lat="44.95628" lon="5.71627">
        <ele>642.3</ele>
        <time>2023-08-03T11:51:33Z</time>
      </trkpt>
      <trkpt lat="44.95622" lon="5.71648">
        <ele>640.9</ele>
        <time>2023-08-03T11:51:35Z</time>
      </trkpt>
      <trkpt lat="44.95613" lon="5.71665">
        <ele>639.7</ele>
        <time>2023-08-03T11:51:37Z</time>
      </trkpt>
      <trkpt lat="44.956" lon="5.71681">
        <ele>638.1</ele>
        <time>2023-08-03T11:51:39Z</time>
      </trkpt>
      <trkpt lat="44.95594" lon="5.71691">
        <ele>637.3</ele>
        <time>2023-08-03T11:51:40Z</time>
      </trkpt>
      <trkpt lat="44.95578" lon="5.71725">
        <ele>636</ele>
        <time>2023-08-03T11:51:43Z</time>
      </trkpt>
      <trkpt lat="44.95573" lon="5.71734">
        <ele>635.8</ele>
        <time>2023-08-03T11:51:44Z</time>
      </trkpt>
      <trkpt lat="44.95566" lon="5.7174">
        <ele>635.7</ele>
        <time>2023-08-03T11:51:45Z</time>
      </trkpt>
      <trkpt lat="44.95553" lon="5.71748">
        <ele>635.5</ele>
        <time>2023-08-03T11:51:47Z</time>
      </trkpt>
      <trkpt lat="44.95541" lon="5.71739">
        <ele>635.4</ele>
        <time>2023-08-03T11:51:49Z</time>
      </trkpt>
      <trkpt lat="44.95536" lon="5.7173">
        <ele>635.2</ele>
        <time>2023-08-03T11:51:50Z</time>
      </trkpt>
      <trkpt lat="44.95528" lon="5.7171">
        <ele>635</ele>
        <time>2023-08-03T11:51:52Z</time>
      </trkpt>
      <trkpt lat="44.95524" lon="5.717">
        <ele>635</ele>
        <time>2023-08-03T11:51:53Z</time>
      </trkpt>
      <trkpt lat="44.95521" lon="5.7169">
        <ele>635</ele>
        <time>2023-08-03T11:51:54Z</time>
      </trkpt>
      <trkpt lat="44.95513" lon="5.71657">
        <ele>636</ele>
        <time>2023-08-03T11:51:58Z</time>
      </trkpt>
      <trkpt lat="44.95512" lon="5.71652">
        <ele>636.2</ele>
        <time>2023-08-03T11:51:59Z</time>
      </trkpt>
      <trkpt lat="44.95509" lon="5.71637">
        <ele>637</ele>
        <time>2023-08-03T11:52:02Z</time>
      </trkpt>
      <trkpt lat="44.95508" lon="5.71624">
        <ele>637.8</ele>
        <time>2023-08-03T11:52:05Z</time>
      </trkpt>
      <trkpt lat="44.95509" lon="5.7162">
        <ele>638</ele>
        <time>2023-08-03T11:52:06Z</time>
      </trkpt>
      <trkpt lat="44.95506" lon="5.71605">
        <ele>639</ele>
        <time>2023-08-03T11:52:10Z</time>
      </trkpt>
      <trkpt lat="44.95505" lon="5.71594">
        <ele>639.8</ele>
        <time>2023-08-03T11:52:13Z</time>
      </trkpt>
      <trkpt lat="44.95501" lon="5.71586">
        <ele>640.5</ele>
        <time>2023-08-03T11:52:15Z</time>
      </trkpt>
      <trkpt lat="44.95495" lon="5.71571">
        <ele>641.7</ele>
        <time>2023-08-03T11:52:19Z</time>
      </trkpt>
      <trkpt lat="44.95493" lon="5.71565">
        <ele>642.3</ele>
        <time>2023-08-03T11:52:21Z</time>
      </trkpt>
      <trkpt lat="44.95485" lon="5.71537">
        <ele>644.8</ele>
        <time>2023-08-03T11:52:29Z</time>
      </trkpt>
      <trkpt lat="44.95474" lon="5.71512">
        <ele>647.2</ele>
        <time>2023-08-03T11:52:37Z</time>
      </trkpt>
      <trkpt lat="44.95466" lon="5.71497">
        <ele>648.6</ele>
        <time>2023-08-03T11:52:44Z</time>
      </trkpt>
      <trkpt lat="44.95463" lon="5.71494">
        <ele>649</ele>
        <time>2023-08-03T11:52:46Z</time>
      </trkpt>
      <trkpt lat="44.95457" lon="5.7149">
        <ele>649.7</ele>
        <time>2023-08-03T11:52:49Z</time>
      </trkpt>
      <trkpt lat="44.95453" lon="5.71488">
        <ele>650.2</ele>
        <time>2023-08-03T11:52:51Z</time>
      </trkpt>
      <trkpt lat="44.9544" lon="5.71482">
        <ele>651.6</ele>
        <time>2023-08-03T11:52:57Z</time>
      </trkpt>
      <trkpt lat="44.95438" lon="5.71481">
        <ele>651.9</ele>
        <time>2023-08-03T11:52:58Z</time>
      </trkpt>
      <trkpt lat="44.95425" lon="5.71478">
        <ele>653.1</ele>
        <time>2023-08-03T11:53:04Z</time>
      </trkpt>
      <trkpt lat="44.95414" lon="5.71478">
        <ele>654.2</ele>
        <time>2023-08-03T11:53:09Z</time>
      </trkpt>
      <trkpt lat="44.95412" lon="5.71478">
        <ele>654.4</ele>
        <time>2023-08-03T11:53:10Z</time>
      </trkpt>
      <trkpt lat="44.95401" lon="5.7148">
        <ele>655.4</ele>
        <time>2023-08-03T11:53:15Z</time>
      </trkpt>
      <trkpt lat="44.95391" lon="5.71483">
        <ele>656.5</ele>
        <time>2023-08-03T11:53:20Z</time>
      </trkpt>
      <trkpt lat="44.95389" lon="5.71484">
        <ele>656.7</ele>
        <time>2023-08-03T11:53:21Z</time>
      </trkpt>
      <trkpt lat="44.95379" lon="5.71483">
        <ele>657.7</ele>
        <time>2023-08-03T11:53:25Z</time>
      </trkpt>
      <trkpt lat="44.95369" lon="5.71483">
        <ele>658.7</ele>
        <time>2023-08-03T11:53:29Z</time>
      </trkpt>
      <trkpt lat="44.95361" lon="5.71481">
        <ele>659.5</ele>
        <time>2023-08-03T11:53:32Z</time>
      </trkpt>
      <trkpt lat="44.95345" lon="5.71476">
        <ele>661.2</ele>
        <time>2023-08-03T11:53:38Z</time>
      </trkpt>
      <trkpt lat="44.95333" lon="5.7147">
        <ele>662.6</ele>
        <time>2023-08-03T11:53:43Z</time>
      </trkpt>
      <trkpt lat="44.95324" lon="5.71465">
        <ele>663.8</ele>
        <time>2023-08-03T11:53:47Z</time>
      </trkpt>
      <trkpt lat="44.95319" lon="5.71461">
        <ele>664.4</ele>
        <time>2023-08-03T11:53:49Z</time>
      </trkpt>
      <trkpt lat="44.95315" lon="5.71459">
        <ele>665</ele>
        <time>2023-08-03T11:53:51Z</time>
      </trkpt>
      <trkpt lat="44.95305" lon="5.71454">
        <ele>666.2</ele>
        <time>2023-08-03T11:53:55Z</time>
      </trkpt>
      <trkpt lat="44.95301" lon="5.71452">
        <ele>666.7</ele>
        <time>2023-08-03T11:53:57Z</time>
      </trkpt>
      <trkpt lat="44.95287" lon="5.71453">
        <ele>668.2</ele>
        <time>2023-08-03T11:54:03Z</time>
      </trkpt>
      <trkpt lat="44.95272" lon="5.71459">
        <ele>669.7</ele>
        <time>2023-08-03T11:54:09Z</time>
      </trkpt>
      <trkpt lat="44.95269" lon="5.7146">
        <ele>669.9</ele>
        <time>2023-08-03T11:54:10Z</time>
      </trkpt>
      <trkpt lat="44.95259" lon="5.7147">
        <ele>671</ele>
        <time>2023-08-03T11:54:15Z</time>
      </trkpt>
      <trkpt lat="44.95257" lon="5.71472">
        <ele>671.2</ele>
        <time>2023-08-03T11:54:16Z</time>
      </trkpt>
      <trkpt lat="44.95246" lon="5.71482">
        <ele>672.3</ele>
        <time>2023-08-03T11:54:21Z</time>
      </trkpt>
      <trkpt lat="44.95239" lon="5.71488">
        <ele>672.9</ele>
        <time>2023-08-03T11:54:24Z</time>
      </trkpt>
      <trkpt lat="44.95236" lon="5.71489">
        <ele>673.1</ele>
        <time>2023-08-03T11:54:25Z</time>
      </trkpt>
      <trkpt lat="44.95224" lon="5.71492">
        <ele>674</ele>
        <time>2023-08-03T11:54:29Z</time>
      </trkpt>
      <trkpt lat="44.95218" lon="5.71494">
        <ele>674.4</ele>
        <time>2023-08-03T11:54:31Z</time>
      </trkpt>
      <trkpt lat="44.95213" lon="5.71496">
        <ele>674.8</ele>
        <time>2023-08-03T11:54:33Z</time>
      </trkpt>
      <trkpt lat="44.95201" lon="5.71502">
        <ele>675.7</ele>
        <time>2023-08-03T11:54:38Z</time>
      </trkpt>
      <trkpt lat="44.95197" lon="5.71506">
        <ele>676</ele>
        <time>2023-08-03T11:54:40Z</time>
      </trkpt>
      <trkpt lat="44.95192" lon="5.71511">
        <ele>676.3</ele>
        <time>2023-08-03T11:54:42Z</time>
      </trkpt>
      <trkpt lat="44.95183" lon="5.71521">
        <ele>677</ele>
        <time>2023-08-03T11:54:46Z</time>
      </trkpt>
      <trkpt lat="44.95177" lon="5.71529">
        <ele>677.5</ele>
        <time>2023-08-03T11:54:49Z</time>
      </trkpt>
      <trkpt lat="44.95173" lon="5.71534">
        <ele>677.9</ele>
        <time>2023-08-03T11:54:51Z</time>
      </trkpt>
      <trkpt lat="44.9516" lon="5.71552">
        <ele>679.1</ele>
        <time>2023-08-03T11:54:57Z</time>
      </trkpt>
      <trkpt lat="44.95158" lon="5.71555">
        <ele>679.3</ele>
        <time>2023-08-03T11:54:58Z</time>
      </trkpt>
      <trkpt lat="44.95148" lon="5.71577">
        <ele>680.6</ele>
        <time>2023-08-03T11:55:04Z</time>
      </trkpt>
      <trkpt lat="44.95141" lon="5.71599">
        <ele>681.8</ele>
        <time>2023-08-03T11:55:10Z</time>
      </trkpt>
      <trkpt lat="44.95135" lon="5.71632">
        <ele>683.5</ele>
        <time>2023-08-03T11:55:18Z</time>
      </trkpt>
      <trkpt lat="44.95134" lon="5.7164">
        <ele>683.9</ele>
        <time>2023-08-03T11:55:20Z</time>
      </trkpt>
      <trkpt lat="44.95129" lon="5.71651">
        <ele>684.6</ele>
        <time>2023-08-03T11:55:23Z</time>
      </trkpt>
      <trkpt lat="44.95125" lon="5.71658">
        <ele>685</ele>
        <time>2023-08-03T11:55:25Z</time>
      </trkpt>
      <trkpt lat="44.9512" lon="5.71673">
        <ele>685.9</ele>
        <time>2023-08-03T11:55:29Z</time>
      </trkpt>
      <trkpt lat="44.95117" lon="5.71684">
        <ele>686.5</ele>
        <time>2023-08-03T11:55:32Z</time>
      </trkpt>
      <trkpt lat="44.95113" lon="5.71699">
        <ele>687.4</ele>
        <time>2023-08-03T11:55:36Z</time>
      </trkpt>
      <trkpt lat="44.95105" lon="5.71721">
        <ele>688.7</ele>
        <time>2023-08-03T11:55:42Z</time>
      </trkpt>
      <trkpt lat="44.95103" lon="5.71729">
        <ele>689.1</ele>
        <time>2023-08-03T11:55:44Z</time>
      </trkpt>
      <trkpt lat="44.95093" lon="5.7174">
        <ele>690</ele>
        <time>2023-08-03T11:55:48Z</time>
      </trkpt>
      <trkpt lat="44.95078" lon="5.71742">
        <ele>691.1</ele>
        <time>2023-08-03T11:55:53Z</time>
      </trkpt>
      <trkpt lat="44.95059" lon="5.71736">
        <ele>692.8</ele>
        <time>2023-08-03T11:56:00Z</time>
      </trkpt>
      <trkpt lat="44.95042" lon="5.7173">
        <ele>694.4</ele>
        <time>2023-08-03T11:56:06Z</time>
      </trkpt>
      <trkpt lat="44.95016" lon="5.71721">
        <ele>696.9</ele>
        <time>2023-08-03T11:56:15Z</time>
      </trkpt>
      <trkpt lat="44.95" lon="5.71727">
        <ele>698.1</ele>
        <time>2023-08-03T11:56:21Z</time>
      </trkpt>
      <trkpt lat="44.94986" lon="5.71742">
        <ele>699</ele>
        <time>2023-08-03T11:56:26Z</time>
      </trkpt>
      <trkpt lat="44.94969" lon="5.71757">
        <ele>699.3</ele>
        <time>2023-08-03T11:56:32Z</time>
      </trkpt>
      <trkpt lat="44.94949" lon="5.71772">
        <ele>699</ele>
        <time>2023-08-03T11:56:37Z</time>
      </trkpt>
      <trkpt lat="44.94924" lon="5.718">
        <ele>698.9</ele>
        <time>2023-08-03T11:56:43Z</time>
      </trkpt>
      <trkpt lat="44.94909" lon="5.71813">
        <ele>698.7</ele>
        <time>2023-08-03T11:56:46Z</time>
      </trkpt>
      <trkpt lat="44.94898" lon="5.71819">
        <ele>698.6</ele>
        <time>2023-08-03T11:56:48Z</time>
      </trkpt>
      <trkpt lat="44.94874" lon="5.71823">
        <ele>698.7</ele>
        <time>2023-08-03T11:56:52Z</time>
      </trkpt>
      <trkpt lat="44.94856" lon="5.71826">
        <ele>699</ele>
        <time>2023-08-03T11:56:55Z</time>
      </trkpt>
      <trkpt lat="44.94846" lon="5.7183">
        <ele>699.3</ele>
        <time>2023-08-03T11:56:57Z</time>
      </trkpt>
      <trkpt lat="44.94841" lon="5.71833">
        <ele>699.5</ele>
        <time>2023-08-03T11:56:58Z</time>
      </trkpt>
      <trkpt lat="44.94834" lon="5.7184">
        <ele>699.8</ele>
        <time>2023-08-03T11:57:00Z</time>
      </trkpt>
      <trkpt lat="44.94819" lon="5.71849">
        <ele>700.7</ele>
        <time>2023-08-03T11:57:04Z</time>
      </trkpt>
      <trkpt lat="44.94809" lon="5.71856">
        <ele>701.3</ele>
        <time>2023-08-03T11:57:07Z</time>
      </trkpt>
      <trkpt lat="44.94803" lon="5.71864">
        <ele>701.4</ele>
        <time>2023-08-03T11:57:09Z</time>
      </trkpt>
      <trkpt lat="44.94794" lon="5.71878">
        <ele>701.8</ele>
        <time>2023-08-03T11:57:13Z</time>
      </trkpt>
      <trkpt lat="44.94787" lon="5.71886">
        <ele>702.3</ele>
        <time>2023-08-03T11:57:15Z</time>
      </trkpt>
      <trkpt lat="44.94784" lon="5.7189">
        <ele>702.5</ele>
        <time>2023-08-03T11:57:16Z</time>
      </trkpt>
      <trkpt lat="44.94776" lon="5.71895">
        <ele>703</ele>
        <time>2023-08-03T11:57:18Z</time>
      </trkpt>
      <trkpt lat="44.94767" lon="5.71896">
        <ele>703.4</ele>
        <time>2023-08-03T11:57:20Z</time>
      </trkpt>
      <trkpt lat="44.94749" lon="5.71894">
        <ele>704.5</ele>
        <time>2023-08-03T11:57:24Z</time>
      </trkpt>
      <trkpt lat="44.94736" lon="5.71893">
        <ele>705.2</ele>
        <time>2023-08-03T11:57:27Z</time>
      </trkpt>
      <trkpt lat="44.94723" lon="5.71892">
        <ele>706</ele>
        <time>2023-08-03T11:57:30Z</time>
      </trkpt>
      <trkpt lat="44.94706" lon="5.71885">
        <ele>707.1</ele>
        <time>2023-08-03T11:57:34Z</time>
      </trkpt>
      <trkpt lat="44.94692" lon="5.71878">
        <ele>707.9</ele>
        <time>2023-08-03T11:57:37Z</time>
      </trkpt>
      <trkpt lat="44.94679" lon="5.7187">
        <ele>708.8</ele>
        <time>2023-08-03T11:57:40Z</time>
      </trkpt>
      <trkpt lat="44.94675" lon="5.71866">
        <ele>709.1</ele>
        <time>2023-08-03T11:57:41Z</time>
      </trkpt>
      <trkpt lat="44.94657" lon="5.71844">
        <ele>710.8</ele>
        <time>2023-08-03T11:57:47Z</time>
      </trkpt>
      <trkpt lat="44.94643" lon="5.7183">
        <ele>712</ele>
        <time>2023-08-03T11:57:52Z</time>
      </trkpt>
      <trkpt lat="44.94641" lon="5.71828">
        <ele>712.1</ele>
        <time>2023-08-03T11:57:53Z</time>
      </trkpt>
      <trkpt lat="44.94639" lon="5.71819">
        <ele>712.4</ele>
        <time>2023-08-03T11:57:55Z</time>
      </trkpt>
      <trkpt lat="44.94638" lon="5.71813">
        <ele>712.5</ele>
        <time>2023-08-03T11:57:56Z</time>
      </trkpt>
      <trkpt lat="44.94637" lon="5.71807">
        <ele>712.5</ele>
        <time>2023-08-03T11:57:57Z</time>
      </trkpt>
      <trkpt lat="44.94635" lon="5.71802">
        <ele>712.6</ele>
        <time>2023-08-03T11:57:58Z</time>
      </trkpt>
      <trkpt lat="44.94631" lon="5.71797">
        <ele>712.7</ele>
        <time>2023-08-03T11:57:59Z</time>
      </trkpt>
      <trkpt lat="44.94627" lon="5.71793">
        <ele>712.7</ele>
        <time>2023-08-03T11:58:00Z</time>
      </trkpt>
      <trkpt lat="44.94623" lon="5.71791">
        <ele>712.7</ele>
        <time>2023-08-03T11:58:01Z</time>
      </trkpt>
      <trkpt lat="44.94612" lon="5.71789">
        <ele>712.7</ele>
        <time>2023-08-03T11:58:03Z</time>
      </trkpt>
      <trkpt lat="44.94608" lon="5.7179">
        <ele>712.7</ele>
        <time>2023-08-03T11:58:04Z</time>
      </trkpt>
      <trkpt lat="44.94603" lon="5.71793">
        <ele>712.7</ele>
        <time>2023-08-03T11:58:05Z</time>
      </trkpt>
      <trkpt lat="44.94589" lon="5.71802">
        <ele>712.7</ele>
        <time>2023-08-03T11:58:08Z</time>
      </trkpt>
      <trkpt lat="44.94585" lon="5.71806">
        <ele>712.7</ele>
        <time>2023-08-03T11:58:09Z</time>
      </trkpt>
      <trkpt lat="44.94558" lon="5.71829">
        <ele>712.9</ele>
        <time>2023-08-03T11:58:15Z</time>
      </trkpt>
      <trkpt lat="44.94553" lon="5.7183">
        <ele>713.1</ele>
        <time>2023-08-03T11:58:16Z</time>
      </trkpt>
      <trkpt lat="44.94547" lon="5.71831">
        <ele>713.2</ele>
        <time>2023-08-03T11:58:17Z</time>
      </trkpt>
      <trkpt lat="44.94539" lon="5.71827">
        <ele>713.4</ele>
        <time>2023-08-03T11:58:19Z</time>
      </trkpt>
      <trkpt lat="44.94526" lon="5.71806">
        <ele>713.5</ele>
        <time>2023-08-03T11:58:23Z</time>
      </trkpt>
      <trkpt lat="44.94524" lon="5.71793">
        <ele>713.6</ele>
        <time>2023-08-03T11:58:25Z</time>
      </trkpt>
      <trkpt lat="44.94524" lon="5.71786">
        <ele>713.7</ele>
        <time>2023-08-03T11:58:26Z</time>
      </trkpt>
      <trkpt lat="44.94528" lon="5.71774">
        <ele>713.9</ele>
        <time>2023-08-03T11:58:28Z</time>
      </trkpt>
      <trkpt lat="44.94533" lon="5.71763">
        <ele>714.1</ele>
        <time>2023-08-03T11:58:30Z</time>
      </trkpt>
      <trkpt lat="44.94542" lon="5.71748">
        <ele>714.6</ele>
        <time>2023-08-03T11:58:33Z</time>
      </trkpt>
      <trkpt lat="44.94545" lon="5.71743">
        <ele>714.7</ele>
        <time>2023-08-03T11:58:34Z</time>
      </trkpt>
      <trkpt lat="44.94552" lon="5.71733">
        <ele>715.1</ele>
        <time>2023-08-03T11:58:36Z</time>
      </trkpt>
      <trkpt lat="44.94561" lon="5.71717">
        <ele>715.8</ele>
        <time>2023-08-03T11:58:39Z</time>
      </trkpt>
      <trkpt lat="44.94574" lon="5.71688">
        <ele>716.8</ele>
        <time>2023-08-03T11:58:44Z</time>
      </trkpt>
      <trkpt lat="44.94585" lon="5.71672">
        <ele>717.5</ele>
        <time>2023-08-03T11:58:47Z</time>
      </trkpt>
      <trkpt lat="44.94587" lon="5.71667">
        <ele>717.6</ele>
        <time>2023-08-03T11:58:48Z</time>
      </trkpt>
      <trkpt lat="44.9459" lon="5.71661">
        <ele>717.9</ele>
        <time>2023-08-03T11:58:49Z</time>
      </trkpt>
      <trkpt lat="44.94595" lon="5.71649">
        <ele>718.3</ele>
        <time>2023-08-03T11:58:51Z</time>
      </trkpt>
      <trkpt lat="44.94597" lon="5.71644">
        <ele>718.6</ele>
        <time>2023-08-03T11:58:52Z</time>
      </trkpt>
      <trkpt lat="44.94599" lon="5.71635">
        <ele>719</ele>
        <time>2023-08-03T11:58:53Z</time>
      </trkpt>
      <trkpt lat="44.946" lon="5.71629">
        <ele>719.2</ele>
        <time>2023-08-03T11:58:54Z</time>
      </trkpt>
      <trkpt lat="44.94601" lon="5.71625">
        <ele>719.5</ele>
        <time>2023-08-03T11:58:55Z</time>
      </trkpt>
      <trkpt lat="44.94601" lon="5.71613">
        <ele>720</ele>
        <time>2023-08-03T11:58:57Z</time>
      </trkpt>
      <trkpt lat="44.94598" lon="5.71607">
        <ele>720.3</ele>
        <time>2023-08-03T11:58:58Z</time>
      </trkpt>
      <trkpt lat="44.94597" lon="5.716">
        <ele>720.6</ele>
        <time>2023-08-03T11:58:59Z</time>
      </trkpt>
      <trkpt lat="44.94597" lon="5.71595">
        <ele>720.9</ele>
        <time>2023-08-03T11:59:00Z</time>
      </trkpt>
      <trkpt lat="44.94596" lon="5.71591">
        <ele>721</ele>
        <time>2023-08-03T11:59:01Z</time>
      </trkpt>
      <trkpt lat="44.94596" lon="5.71578">
        <ele>721.5</ele>
        <time>2023-08-03T11:59:03Z</time>
      </trkpt>
      <trkpt lat="44.94597" lon="5.71573">
        <ele>721.8</ele>
        <time>2023-08-03T11:59:04Z</time>
      </trkpt>
      <trkpt lat="44.94594" lon="5.71567">
        <ele>722</ele>
        <time>2023-08-03T11:59:05Z</time>
      </trkpt>
      <trkpt lat="44.94591" lon="5.71557">
        <ele>722.5</ele>
        <time>2023-08-03T11:59:07Z</time>
      </trkpt>
      <trkpt lat="44.94582" lon="5.7154">
        <ele>723.4</ele>
        <time>2023-08-03T11:59:10Z</time>
      </trkpt>
      <trkpt lat="44.94577" lon="5.71527">
        <ele>724</ele>
        <time>2023-08-03T11:59:12Z</time>
      </trkpt>
      <trkpt lat="44.94577" lon="5.71522">
        <ele>724.2</ele>
        <time>2023-08-03T11:59:13Z</time>
      </trkpt>
      <trkpt lat="44.9458" lon="5.71517">
        <ele>724.5</ele>
        <time>2023-08-03T11:59:14Z</time>
      </trkpt>
      <trkpt lat="44.94583" lon="5.71514">
        <ele>724.7</ele>
        <time>2023-08-03T11:59:15Z</time>
      </trkpt>
      <trkpt lat="44.94579" lon="5.71502">
        <ele>725.3</ele>
        <time>2023-08-03T11:59:17Z</time>
      </trkpt>
      <trkpt lat="44.94577" lon="5.71497">
        <ele>725.7</ele>
        <time>2023-08-03T11:59:18Z</time>
      </trkpt>
      <trkpt lat="44.94575" lon="5.71487">
        <ele>726.2</ele>
        <time>2023-08-03T11:59:20Z</time>
      </trkpt>
      <trkpt lat="44.94576" lon="5.71471">
        <ele>727.2</ele>
        <time>2023-08-03T11:59:23Z</time>
      </trkpt>
      <trkpt lat="44.94574" lon="5.71466">
        <ele>727.7</ele>
        <time>2023-08-03T11:59:26Z</time>
      </trkpt>
      <trkpt lat="44.94573" lon="5.71462">
        <ele>728</ele>
        <time>2023-08-03T11:59:28Z</time>
      </trkpt>
      <trkpt lat="44.94572" lon="5.71459">
        <ele>728.3</ele>
        <time>2023-08-03T11:59:29Z</time>
      </trkpt>
      <trkpt lat="44.94568" lon="5.7145">
        <ele>729.1</ele>
        <time>2023-08-03T11:59:31Z</time>
      </trkpt>
      <trkpt lat="44.94565" lon="5.71439">
        <ele>730</ele>
        <time>2023-08-03T11:59:33Z</time>
      </trkpt>
      <trkpt lat="44.94565" lon="5.71431">
        <ele>730.6</ele>
        <time>2023-08-03T11:59:34Z</time>
      </trkpt>
      <trkpt lat="44.94567" lon="5.71424">
        <ele>731.1</ele>
        <time>2023-08-03T11:59:36Z</time>
      </trkpt>
      <trkpt lat="44.9457" lon="5.71413">
        <ele>731.8</ele>
        <time>2023-08-03T11:59:39Z</time>
      </trkpt>
      <trkpt lat="44.94572" lon="5.71408">
        <ele>732.2</ele>
        <time>2023-08-03T11:59:41Z</time>
      </trkpt>
      <trkpt lat="44.94574" lon="5.71402">
        <ele>732.6</ele>
        <time>2023-08-03T11:59:43Z</time>
      </trkpt>
      <trkpt lat="44.94574" lon="5.714">
        <ele>732.7</ele>
        <time>2023-08-03T11:59:44Z</time>
      </trkpt>
      <trkpt lat="44.94574" lon="5.71392">
        <ele>733.2</ele>
        <time>2023-08-03T11:59:46Z</time>
      </trkpt>
      <trkpt lat="44.94578" lon="5.7138">
        <ele>733.8</ele>
        <time>2023-08-03T11:59:48Z</time>
      </trkpt>
      <trkpt lat="44.94581" lon="5.71368">
        <ele>734.4</ele>
        <time>2023-08-03T11:59:50Z</time>
      </trkpt>
      <trkpt lat="44.94583" lon="5.71362">
        <ele>734.7</ele>
        <time>2023-08-03T11:59:51Z</time>
      </trkpt>
      <trkpt lat="44.94584" lon="5.71358">
        <ele>734.9</ele>
        <time>2023-08-03T11:59:52Z</time>
      </trkpt>
      <trkpt lat="44.9459" lon="5.71351">
        <ele>735.4</ele>
        <time>2023-08-03T11:59:54Z</time>
      </trkpt>
      <trkpt lat="44.94597" lon="5.71345">
        <ele>735.8</ele>
        <time>2023-08-03T11:59:56Z</time>
      </trkpt>
      <trkpt lat="44.946" lon="5.71342">
        <ele>736</ele>
        <time>2023-08-03T11:59:57Z</time>
      </trkpt>
      <trkpt lat="44.94602" lon="5.71338">
        <ele>736.2</ele>
        <time>2023-08-03T11:59:58Z</time>
      </trkpt>
      <trkpt lat="44.94606" lon="5.7133">
        <ele>736.6</ele>
        <time>2023-08-03T12:00:00Z</time>
      </trkpt>
      <trkpt lat="44.94608" lon="5.71326">
        <ele>736.8</ele>
        <time>2023-08-03T12:00:01Z</time>
      </trkpt>
      <trkpt lat="44.9461" lon="5.71323">
        <ele>737</ele>
        <time>2023-08-03T12:00:02Z</time>
      </trkpt>
      <trkpt lat="44.94615" lon="5.71316">
        <ele>737.3</ele>
        <time>2023-08-03T12:00:04Z</time>
      </trkpt>
      <trkpt lat="44.94618" lon="5.71307">
        <ele>737.6</ele>
        <time>2023-08-03T12:00:06Z</time>
      </trkpt>
      <trkpt lat="44.9462" lon="5.71303">
        <ele>737.8</ele>
        <time>2023-08-03T12:00:07Z</time>
      </trkpt>
      <trkpt lat="44.94622" lon="5.71298">
        <ele>737.9</ele>
        <time>2023-08-03T12:00:08Z</time>
      </trkpt>
      <trkpt lat="44.94624" lon="5.71293">
        <ele>738.1</ele>
        <time>2023-08-03T12:00:09Z</time>
      </trkpt>
      <trkpt lat="44.94628" lon="5.71283">
        <ele>738.4</ele>
        <time>2023-08-03T12:00:11Z</time>
      </trkpt>
      <trkpt lat="44.94632" lon="5.71274">
        <ele>738.8</ele>
        <time>2023-08-03T12:00:13Z</time>
      </trkpt>
      <trkpt lat="44.94634" lon="5.7127">
        <ele>738.9</ele>
        <time>2023-08-03T12:00:14Z</time>
      </trkpt>
      <trkpt lat="44.9464" lon="5.71255">
        <ele>739.4</ele>
        <time>2023-08-03T12:00:17Z</time>
      </trkpt>
      <trkpt lat="44.94645" lon="5.7124">
        <ele>740</ele>
        <time>2023-08-03T12:00:20Z</time>
      </trkpt>
      <trkpt lat="44.94647" lon="5.71235">
        <ele>740.1</ele>
        <time>2023-08-03T12:00:21Z</time>
      </trkpt>
      <trkpt lat="44.94649" lon="5.7123">
        <ele>740.3</ele>
        <time>2023-08-03T12:00:22Z</time>
      </trkpt>
      <trkpt lat="44.94655" lon="5.71215">
        <ele>740.8</ele>
        <time>2023-08-03T12:00:25Z</time>
      </trkpt>
      <trkpt lat="44.94663" lon="5.71197">
        <ele>741.4</ele>
        <time>2023-08-03T12:00:29Z</time>
      </trkpt>
      <trkpt lat="44.94666" lon="5.71192">
        <ele>741.6</ele>
        <time>2023-08-03T12:00:30Z</time>
      </trkpt>
      <trkpt lat="44.9468" lon="5.71157">
        <ele>742.8</ele>
        <time>2023-08-03T12:00:37Z</time>
      </trkpt>
      <trkpt lat="44.94681" lon="5.71151">
        <ele>742.9</ele>
        <time>2023-08-03T12:00:38Z</time>
      </trkpt>
      <trkpt lat="44.94684" lon="5.71129">
        <ele>743.2</ele>
        <time>2023-08-03T12:00:42Z</time>
      </trkpt>
      <trkpt lat="44.94684" lon="5.71123">
        <ele>743.2</ele>
        <time>2023-08-03T12:00:43Z</time>
      </trkpt>
      <trkpt lat="44.94685" lon="5.71102">
        <ele>743.3</ele>
        <time>2023-08-03T12:00:46Z</time>
      </trkpt>
      <trkpt lat="44.94689" lon="5.7108">
        <ele>743.3</ele>
        <time>2023-08-03T12:00:49Z</time>
      </trkpt>
      <trkpt lat="44.94705" lon="5.71044">
        <ele>742.8</ele>
        <time>2023-08-03T12:00:54Z</time>
      </trkpt>
      <trkpt lat="44.94728" lon="5.7099">
        <ele>742</ele>
        <time>2023-08-03T12:01:01Z</time>
      </trkpt>
      <trkpt lat="44.94755" lon="5.70933">
        <ele>741.9</ele>
        <time>2023-08-03T12:01:08Z</time>
      </trkpt>
      <trkpt lat="44.94771" lon="5.70897">
        <ele>742.6</ele>
        <time>2023-08-03T12:01:12Z</time>
      </trkpt>
      <trkpt lat="44.94778" lon="5.70885">
        <ele>743.1</ele>
        <time>2023-08-03T12:01:14Z</time>
      </trkpt>
      <trkpt lat="44.94794" lon="5.70871">
        <ele>743.6</ele>
        <time>2023-08-03T12:01:17Z</time>
      </trkpt>
      <trkpt lat="44.94799" lon="5.70868">
        <ele>743.8</ele>
        <time>2023-08-03T12:01:18Z</time>
      </trkpt>
      <trkpt lat="44.94805" lon="5.70866">
        <ele>744</ele>
        <time>2023-08-03T12:01:19Z</time>
      </trkpt>
      <trkpt lat="44.94826" lon="5.70857">
        <ele>744.6</ele>
        <time>2023-08-03T12:01:23Z</time>
      </trkpt>
      <trkpt lat="44.94831" lon="5.70854">
        <ele>744.6</ele>
        <time>2023-08-03T12:01:24Z</time>
      </trkpt>
      <trkpt lat="44.94835" lon="5.70849">
        <ele>744.7</ele>
        <time>2023-08-03T12:01:25Z</time>
      </trkpt>
      <trkpt lat="44.94839" lon="5.70845">
        <ele>744.8</ele>
        <time>2023-08-03T12:01:26Z</time>
      </trkpt>
      <trkpt lat="44.9486" lon="5.70825">
        <ele>745</ele>
        <time>2023-08-03T12:01:30Z</time>
      </trkpt>
      <trkpt lat="44.94865" lon="5.7082">
        <ele>745.1</ele>
        <time>2023-08-03T12:01:31Z</time>
      </trkpt>
      <trkpt lat="44.94882" lon="5.70803">
        <ele>745.3</ele>
        <time>2023-08-03T12:01:34Z</time>
      </trkpt>
      <trkpt lat="44.94898" lon="5.70787">
        <ele>745.5</ele>
        <time>2023-08-03T12:01:37Z</time>
      </trkpt>
      <trkpt lat="44.94903" lon="5.70781">
        <ele>745.6</ele>
        <time>2023-08-03T12:01:38Z</time>
      </trkpt>
      <trkpt lat="44.94913" lon="5.70769">
        <ele>745.8</ele>
        <time>2023-08-03T12:01:40Z</time>
      </trkpt>
      <trkpt lat="44.94918" lon="5.70764">
        <ele>745.9</ele>
        <time>2023-08-03T12:01:41Z</time>
      </trkpt>
      <trkpt lat="44.94928" lon="5.70752">
        <ele>746.1</ele>
        <time>2023-08-03T12:01:43Z</time>
      </trkpt>
      <trkpt lat="44.94937" lon="5.70741">
        <ele>746.4</ele>
        <time>2023-08-03T12:01:45Z</time>
      </trkpt>
      <trkpt lat="44.94948" lon="5.7072">
        <ele>746.8</ele>
        <time>2023-08-03T12:01:48Z</time>
      </trkpt>
      <trkpt lat="44.9495" lon="5.70713">
        <ele>746.9</ele>
        <time>2023-08-03T12:01:49Z</time>
      </trkpt>
      <trkpt lat="44.94955" lon="5.70699">
        <ele>747.2</ele>
        <time>2023-08-03T12:01:51Z</time>
      </trkpt>
      <trkpt lat="44.94957" lon="5.70693">
        <ele>747.3</ele>
        <time>2023-08-03T12:01:52Z</time>
      </trkpt>
      <trkpt lat="44.94965" lon="5.70674">
        <ele>747.7</ele>
        <time>2023-08-03T12:01:55Z</time>
      </trkpt>
      <trkpt lat="44.9497" lon="5.70654">
        <ele>748.2</ele>
        <time>2023-08-03T12:01:58Z</time>
      </trkpt>
      <trkpt lat="44.94972" lon="5.70648">
        <ele>748.3</ele>
        <time>2023-08-03T12:01:59Z</time>
      </trkpt>
      <trkpt lat="44.94974" lon="5.70635">
        <ele>748.6</ele>
        <time>2023-08-03T12:02:01Z</time>
      </trkpt>
      <trkpt lat="44.94977" lon="5.70629">
        <ele>748.7</ele>
        <time>2023-08-03T12:02:02Z</time>
      </trkpt>
      <trkpt lat="44.9498" lon="5.70622">
        <ele>748.8</ele>
        <time>2023-08-03T12:02:03Z</time>
      </trkpt>
      <trkpt lat="44.94981" lon="5.70608">
        <ele>749</ele>
        <time>2023-08-03T12:02:05Z</time>
      </trkpt>
      <trkpt lat="44.94984" lon="5.70593">
        <ele>749.3</ele>
        <time>2023-08-03T12:02:07Z</time>
      </trkpt>
      <trkpt lat="44.94983" lon="5.70584">
        <ele>749.5</ele>
        <time>2023-08-03T12:02:08Z</time>
      </trkpt>
      <trkpt lat="44.94984" lon="5.70577">
        <ele>749.6</ele>
        <time>2023-08-03T12:02:09Z</time>
      </trkpt>
      <trkpt lat="44.94986" lon="5.7057">
        <ele>749.7</ele>
        <time>2023-08-03T12:02:10Z</time>
      </trkpt>
      <trkpt lat="44.94985" lon="5.70556">
        <ele>749.8</ele>
        <time>2023-08-03T12:02:12Z</time>
      </trkpt>
      <trkpt lat="44.94986" lon="5.70549">
        <ele>749.9</ele>
        <time>2023-08-03T12:02:13Z</time>
      </trkpt>
      <trkpt lat="44.94987" lon="5.70542">
        <ele>750</ele>
        <time>2023-08-03T12:02:14Z</time>
      </trkpt>
      <trkpt lat="44.9499" lon="5.70524">
        <ele>750.2</ele>
        <time>2023-08-03T12:02:16Z</time>
      </trkpt>
      <trkpt lat="44.9499" lon="5.70516">
        <ele>750.2</ele>
        <time>2023-08-03T12:02:17Z</time>
      </trkpt>
      <trkpt lat="44.94995" lon="5.70499">
        <ele>750.4</ele>
        <time>2023-08-03T12:02:19Z</time>
      </trkpt>
      <trkpt lat="44.94994" lon="5.7049">
        <ele>750.5</ele>
        <time>2023-08-03T12:02:20Z</time>
      </trkpt>
      <trkpt lat="44.94993" lon="5.70482">
        <ele>750.6</ele>
        <time>2023-08-03T12:02:21Z</time>
      </trkpt>
      <trkpt lat="44.94992" lon="5.70475">
        <ele>750.7</ele>
        <time>2023-08-03T12:02:22Z</time>
      </trkpt>
      <trkpt lat="44.94992" lon="5.70467">
        <ele>750.8</ele>
        <time>2023-08-03T12:02:23Z</time>
      </trkpt>
      <trkpt lat="44.94991" lon="5.70453">
        <ele>751</ele>
        <time>2023-08-03T12:02:25Z</time>
      </trkpt>
      <trkpt lat="44.94986" lon="5.70442">
        <ele>751.2</ele>
        <time>2023-08-03T12:02:27Z</time>
      </trkpt>
      <trkpt lat="44.94984" lon="5.70436">
        <ele>751.3</ele>
        <time>2023-08-03T12:02:28Z</time>
      </trkpt>
      <trkpt lat="44.94979" lon="5.70424">
        <ele>751.5</ele>
        <time>2023-08-03T12:02:30Z</time>
      </trkpt>
      <trkpt lat="44.94975" lon="5.70411">
        <ele>751.8</ele>
        <time>2023-08-03T12:02:32Z</time>
      </trkpt>
      <trkpt lat="44.94974" lon="5.70403">
        <ele>751.9</ele>
        <time>2023-08-03T12:02:33Z</time>
      </trkpt>
      <trkpt lat="44.94971" lon="5.70384">
        <ele>752.1</ele>
        <time>2023-08-03T12:02:35Z</time>
      </trkpt>
      <trkpt lat="44.94967" lon="5.7037">
        <ele>752.3</ele>
        <time>2023-08-03T12:02:37Z</time>
      </trkpt>
      <trkpt lat="44.94965" lon="5.70363">
        <ele>752.4</ele>
        <time>2023-08-03T12:02:38Z</time>
      </trkpt>
      <trkpt lat="44.94963" lon="5.70356">
        <ele>752.5</ele>
        <time>2023-08-03T12:02:39Z</time>
      </trkpt>
      <trkpt lat="44.94958" lon="5.70347">
        <ele>752.7</ele>
        <time>2023-08-03T12:02:40Z</time>
      </trkpt>
      <trkpt lat="44.94953" lon="5.70325">
        <ele>753</ele>
        <time>2023-08-03T12:02:42Z</time>
      </trkpt>
      <trkpt lat="44.94955" lon="5.70316">
        <ele>753.1</ele>
        <time>2023-08-03T12:02:43Z</time>
      </trkpt>
      <trkpt lat="44.94955" lon="5.70307">
        <ele>753.2</ele>
        <time>2023-08-03T12:02:44Z</time>
      </trkpt>
      <trkpt lat="44.94954" lon="5.70287">
        <ele>753.5</ele>
        <time>2023-08-03T12:02:46Z</time>
      </trkpt>
      <trkpt lat="44.94952" lon="5.70277">
        <ele>753.6</ele>
        <time>2023-08-03T12:02:47Z</time>
      </trkpt>
      <trkpt lat="44.94959" lon="5.70261">
        <ele>753.8</ele>
        <time>2023-08-03T12:02:49Z</time>
      </trkpt>
      <trkpt lat="44.94958" lon="5.70252">
        <ele>753.9</ele>
        <time>2023-08-03T12:02:50Z</time>
      </trkpt>
      <trkpt lat="44.94956" lon="5.70244">
        <ele>754</ele>
        <time>2023-08-03T12:02:51Z</time>
      </trkpt>
      <trkpt lat="44.94953" lon="5.70235">
        <ele>754.1</ele>
        <time>2023-08-03T12:02:52Z</time>
      </trkpt>
      <trkpt lat="44.9495" lon="5.7022">
        <ele>754.3</ele>
        <time>2023-08-03T12:02:54Z</time>
      </trkpt>
      <trkpt lat="44.9495" lon="5.70212">
        <ele>754.4</ele>
        <time>2023-08-03T12:02:55Z</time>
      </trkpt>
      <trkpt lat="44.94955" lon="5.70194">
        <ele>754.6</ele>
        <time>2023-08-03T12:02:57Z</time>
      </trkpt>
      <trkpt lat="44.94952" lon="5.70175">
        <ele>754.9</ele>
        <time>2023-08-03T12:02:59Z</time>
      </trkpt>
      <trkpt lat="44.94952" lon="5.70167">
        <ele>755</ele>
        <time>2023-08-03T12:03:00Z</time>
      </trkpt>
      <trkpt lat="44.9495" lon="5.70159">
        <ele>755.1</ele>
        <time>2023-08-03T12:03:01Z</time>
      </trkpt>
      <trkpt lat="44.94946" lon="5.7015">
        <ele>755.3</ele>
        <time>2023-08-03T12:03:02Z</time>
      </trkpt>
      <trkpt lat="44.94939" lon="5.70139">
        <ele>755.5</ele>
        <time>2023-08-03T12:03:04Z</time>
      </trkpt>
      <trkpt lat="44.94937" lon="5.70136">
        <ele>755.5</ele>
        <time>2023-08-03T12:03:05Z</time>
      </trkpt>
      <trkpt lat="44.94932" lon="5.70128">
        <ele>755.7</ele>
        <time>2023-08-03T12:03:07Z</time>
      </trkpt>
      <trkpt lat="44.94926" lon="5.70122">
        <ele>755.9</ele>
        <time>2023-08-03T12:03:09Z</time>
      </trkpt>
      <trkpt lat="44.94925" lon="5.70118">
        <ele>756</ele>
        <time>2023-08-03T12:03:10Z</time>
      </trkpt>
      <trkpt lat="44.94922" lon="5.70113">
        <ele>756.1</ele>
        <time>2023-08-03T12:03:11Z</time>
      </trkpt>
      <trkpt lat="44.94914" lon="5.70091">
        <ele>756.5</ele>
        <time>2023-08-03T12:03:14Z</time>
      </trkpt>
      <trkpt lat="44.9491" lon="5.70082">
        <ele>756.7</ele>
        <time>2023-08-03T12:03:15Z</time>
      </trkpt>
      <trkpt lat="44.94906" lon="5.70074">
        <ele>756.9</ele>
        <time>2023-08-03T12:03:16Z</time>
      </trkpt>
      <trkpt lat="44.94905" lon="5.70067">
        <ele>757</ele>
        <time>2023-08-03T12:03:17Z</time>
      </trkpt>
      <trkpt lat="44.94906" lon="5.7006">
        <ele>757.1</ele>
        <time>2023-08-03T12:03:18Z</time>
      </trkpt>
      <trkpt lat="44.94906" lon="5.70055">
        <ele>757.2</ele>
        <time>2023-08-03T12:03:19Z</time>
      </trkpt>
      <trkpt lat="44.94905" lon="5.7005">
        <ele>757.3</ele>
        <time>2023-08-03T12:03:20Z</time>
      </trkpt>
      <trkpt lat="44.94904" lon="5.70044">
        <ele>757.4</ele>
        <time>2023-08-03T12:03:21Z</time>
      </trkpt>
      <trkpt lat="44.949" lon="5.70031">
        <ele>757.5</ele>
        <time>2023-08-03T12:03:23Z</time>
      </trkpt>
      <trkpt lat="44.94899" lon="5.70021">
        <ele>757.5</ele>
        <time>2023-08-03T12:03:24Z</time>
      </trkpt>
      <trkpt lat="44.94894" lon="5.70007">
        <ele>757.6</ele>
        <time>2023-08-03T12:03:26Z</time>
      </trkpt>
      <trkpt lat="44.9489" lon="5.69993">
        <ele>757.8</ele>
        <time>2023-08-03T12:03:28Z</time>
      </trkpt>
      <trkpt lat="44.94889" lon="5.69984">
        <ele>757.9</ele>
        <time>2023-08-03T12:03:29Z</time>
      </trkpt>
      <trkpt lat="44.94887" lon="5.69976">
        <ele>758</ele>
        <time>2023-08-03T12:03:30Z</time>
      </trkpt>
      <trkpt lat="44.94879" lon="5.6996">
        <ele>758.3</ele>
        <time>2023-08-03T12:03:32Z</time>
      </trkpt>
      <trkpt lat="44.94875" lon="5.69953">
        <ele>758.5</ele>
        <time>2023-08-03T12:03:33Z</time>
      </trkpt>
      <trkpt lat="44.94871" lon="5.69945">
        <ele>758.6</ele>
        <time>2023-08-03T12:03:34Z</time>
      </trkpt>
      <trkpt lat="44.94863" lon="5.69929">
        <ele>759</ele>
        <time>2023-08-03T12:03:36Z</time>
      </trkpt>
      <trkpt lat="44.94858" lon="5.69924">
        <ele>759.2</ele>
        <time>2023-08-03T12:03:37Z</time>
      </trkpt>
      <trkpt lat="44.94849" lon="5.69907">
        <ele>759.5</ele>
        <time>2023-08-03T12:03:39Z</time>
      </trkpt>
      <trkpt lat="44.94847" lon="5.69899">
        <ele>759.7</ele>
        <time>2023-08-03T12:03:40Z</time>
      </trkpt>
      <trkpt lat="44.94846" lon="5.69888">
        <ele>759.8</ele>
        <time>2023-08-03T12:03:41Z</time>
      </trkpt>
      <trkpt lat="44.94845" lon="5.69877">
        <ele>760</ele>
        <time>2023-08-03T12:03:42Z</time>
      </trkpt>
      <trkpt lat="44.94844" lon="5.69864">
        <ele>760.1</ele>
        <time>2023-08-03T12:03:43Z</time>
      </trkpt>
      <trkpt lat="44.94844" lon="5.6985">
        <ele>760.3</ele>
        <time>2023-08-03T12:03:44Z</time>
      </trkpt>
      <trkpt lat="44.94845" lon="5.69836">
        <ele>760.4</ele>
        <time>2023-08-03T12:03:45Z</time>
      </trkpt>
      <trkpt lat="44.94845" lon="5.69823">
        <ele>760.6</ele>
        <time>2023-08-03T12:03:46Z</time>
      </trkpt>
      <trkpt lat="44.94855" lon="5.69805">
        <ele>761</ele>
        <time>2023-08-03T12:03:48Z</time>
      </trkpt>
      <trkpt lat="44.94855" lon="5.69789">
        <ele>761.2</ele>
        <time>2023-08-03T12:03:50Z</time>
      </trkpt>
      <trkpt lat="44.94855" lon="5.69781">
        <ele>761.4</ele>
        <time>2023-08-03T12:03:51Z</time>
      </trkpt>
      <trkpt lat="44.9486" lon="5.6977">
        <ele>761.6</ele>
        <time>2023-08-03T12:03:53Z</time>
      </trkpt>
      <trkpt lat="44.94864" lon="5.69765">
        <ele>761.7</ele>
        <time>2023-08-03T12:03:54Z</time>
      </trkpt>
      <trkpt lat="44.94864" lon="5.69757">
        <ele>761.8</ele>
        <time>2023-08-03T12:03:55Z</time>
      </trkpt>
      <trkpt lat="44.94863" lon="5.69749">
        <ele>762</ele>
        <time>2023-08-03T12:03:56Z</time>
      </trkpt>
      <trkpt lat="44.94861" lon="5.69739">
        <ele>762.2</ele>
        <time>2023-08-03T12:03:57Z</time>
      </trkpt>
      <trkpt lat="44.94859" lon="5.69731">
        <ele>762.3</ele>
        <time>2023-08-03T12:03:58Z</time>
      </trkpt>
      <trkpt lat="44.94854" lon="5.69702">
        <ele>762.6</ele>
        <time>2023-08-03T12:04:01Z</time>
      </trkpt>
      <trkpt lat="44.94861" lon="5.69695">
        <ele>762.8</ele>
        <time>2023-08-03T12:04:02Z</time>
      </trkpt>
      <trkpt lat="44.94859" lon="5.69675">
        <ele>763.1</ele>
        <time>2023-08-03T12:04:04Z</time>
      </trkpt>
      <trkpt lat="44.94857" lon="5.69653">
        <ele>763.4</ele>
        <time>2023-08-03T12:04:06Z</time>
      </trkpt>
      <trkpt lat="44.94862" lon="5.69633">
        <ele>763.8</ele>
        <time>2023-08-03T12:04:08Z</time>
      </trkpt>
      <trkpt lat="44.94863" lon="5.69624">
        <ele>763.9</ele>
        <time>2023-08-03T12:04:09Z</time>
      </trkpt>
      <trkpt lat="44.94867" lon="5.69597">
        <ele>764.2</ele>
        <time>2023-08-03T12:04:12Z</time>
      </trkpt>
      <trkpt lat="44.94862" lon="5.69586">
        <ele>764.4</ele>
        <time>2023-08-03T12:04:13Z</time>
      </trkpt>
      <trkpt lat="44.94862" lon="5.69578">
        <ele>764.6</ele>
        <time>2023-08-03T12:04:14Z</time>
      </trkpt>
      <trkpt lat="44.94864" lon="5.69572">
        <ele>764.7</ele>
        <time>2023-08-03T12:04:15Z</time>
      </trkpt>
      <trkpt lat="44.94865" lon="5.69566">
        <ele>764.8</ele>
        <time>2023-08-03T12:04:16Z</time>
      </trkpt>
      <trkpt lat="44.94878" lon="5.69557">
        <ele>765</ele>
        <time>2023-08-03T12:04:17Z</time>
      </trkpt>
      <trkpt lat="44.94882" lon="5.69548">
        <ele>765.2</ele>
        <time>2023-08-03T12:04:18Z</time>
      </trkpt>
      <trkpt lat="44.94885" lon="5.6954">
        <ele>765.3</ele>
        <time>2023-08-03T12:04:19Z</time>
      </trkpt>
      <trkpt lat="44.94887" lon="5.69533">
        <ele>765.4</ele>
        <time>2023-08-03T12:04:20Z</time>
      </trkpt>
      <trkpt lat="44.94893" lon="5.69527">
        <ele>765.6</ele>
        <time>2023-08-03T12:04:22Z</time>
      </trkpt>
      <trkpt lat="44.94898" lon="5.69514">
        <ele>765.8</ele>
        <time>2023-08-03T12:04:23Z</time>
      </trkpt>
      <trkpt lat="44.94901" lon="5.69506">
        <ele>765.9</ele>
        <time>2023-08-03T12:04:24Z</time>
      </trkpt>
      <trkpt lat="44.94905" lon="5.69486">
        <ele>766.2</ele>
        <time>2023-08-03T12:04:26Z</time>
      </trkpt>
      <trkpt lat="44.94906" lon="5.69475">
        <ele>766.3</ele>
        <time>2023-08-03T12:04:27Z</time>
      </trkpt>
      <trkpt lat="44.94906" lon="5.69467">
        <ele>766.4</ele>
        <time>2023-08-03T12:04:28Z</time>
      </trkpt>
      <trkpt lat="44.94904" lon="5.6945">
        <ele>766.6</ele>
        <time>2023-08-03T12:04:30Z</time>
      </trkpt>
      <trkpt lat="44.94896" lon="5.69437">
        <ele>766.8</ele>
        <time>2023-08-03T12:04:32Z</time>
      </trkpt>
      <trkpt lat="44.94886" lon="5.69429">
        <ele>767</ele>
        <time>2023-08-03T12:04:34Z</time>
      </trkpt>
      <trkpt lat="44.94874" lon="5.69422">
        <ele>767.3</ele>
        <time>2023-08-03T12:04:36Z</time>
      </trkpt>
      <trkpt lat="44.94849" lon="5.69408">
        <ele>767.6</ele>
        <time>2023-08-03T12:04:41Z</time>
      </trkpt>
      <trkpt lat="44.94839" lon="5.69403">
        <ele>767.7</ele>
        <time>2023-08-03T12:04:43Z</time>
      </trkpt>
      <trkpt lat="44.94821" lon="5.69398">
        <ele>767.7</ele>
        <time>2023-08-03T12:04:46Z</time>
      </trkpt>
      <trkpt lat="44.94802" lon="5.69398">
        <ele>767.6</ele>
        <time>2023-08-03T12:04:49Z</time>
      </trkpt>
      <trkpt lat="44.94778" lon="5.69397">
        <ele>767.5</ele>
        <time>2023-08-03T12:04:53Z</time>
      </trkpt>
      <trkpt lat="44.94772" lon="5.69398">
        <ele>767.5</ele>
        <time>2023-08-03T12:04:54Z</time>
      </trkpt>
      <trkpt lat="44.94722" lon="5.69411">
        <ele>766.4</ele>
        <time>2023-08-03T12:05:02Z</time>
      </trkpt>
      <trkpt lat="44.94716" lon="5.69412">
        <ele>766.2</ele>
        <time>2023-08-03T12:05:03Z</time>
      </trkpt>
      <trkpt lat="44.94694" lon="5.69415">
        <ele>765.5</ele>
        <time>2023-08-03T12:05:06Z</time>
      </trkpt>
      <trkpt lat="44.94679" lon="5.69414">
        <ele>765</ele>
        <time>2023-08-03T12:05:08Z</time>
      </trkpt>
      <trkpt lat="44.94666" lon="5.69407">
        <ele>764.3</ele>
        <time>2023-08-03T12:05:10Z</time>
      </trkpt>
      <trkpt lat="44.94651" lon="5.69397">
        <ele>763.6</ele>
        <time>2023-08-03T12:05:12Z</time>
      </trkpt>
      <trkpt lat="44.94637" lon="5.69385">
        <ele>762.9</ele>
        <time>2023-08-03T12:05:14Z</time>
      </trkpt>
      <trkpt lat="44.94612" lon="5.69369">
        <ele>761.5</ele>
        <time>2023-08-03T12:05:17Z</time>
      </trkpt>
      <trkpt lat="44.94591" lon="5.69363">
        <ele>760.6</ele>
        <time>2023-08-03T12:05:19Z</time>
      </trkpt>
      <trkpt lat="44.94573" lon="5.69361">
        <ele>759.9</ele>
        <time>2023-08-03T12:05:21Z</time>
      </trkpt>
      <trkpt lat="44.94533" lon="5.69361">
        <ele>758.2</ele>
        <time>2023-08-03T12:05:25Z</time>
      </trkpt>
      <trkpt lat="44.94492" lon="5.69364">
        <ele>756.2</ele>
        <time>2023-08-03T12:05:29Z</time>
      </trkpt>
      <trkpt lat="44.94471" lon="5.69368">
        <ele>755.4</ele>
        <time>2023-08-03T12:05:31Z</time>
      </trkpt>
      <trkpt lat="44.94453" lon="5.6938">
        <ele>754.6</ele>
        <time>2023-08-03T12:05:33Z</time>
      </trkpt>
      <trkpt lat="44.94444" lon="5.69388">
        <ele>754.2</ele>
        <time>2023-08-03T12:05:34Z</time>
      </trkpt>
      <trkpt lat="44.94411" lon="5.6942">
        <ele>752.5</ele>
        <time>2023-08-03T12:05:38Z</time>
      </trkpt>
      <trkpt lat="44.94403" lon="5.69424">
        <ele>752.2</ele>
        <time>2023-08-03T12:05:39Z</time>
      </trkpt>
      <trkpt lat="44.94395" lon="5.69425">
        <ele>751.8</ele>
        <time>2023-08-03T12:05:40Z</time>
      </trkpt>
      <trkpt lat="44.94385" lon="5.69422">
        <ele>751.4</ele>
        <time>2023-08-03T12:05:41Z</time>
      </trkpt>
      <trkpt lat="44.9437" lon="5.69415">
        <ele>750.8</ele>
        <time>2023-08-03T12:05:43Z</time>
      </trkpt>
      <trkpt lat="44.94356" lon="5.69418">
        <ele>750.3</ele>
        <time>2023-08-03T12:05:45Z</time>
      </trkpt>
      <trkpt lat="44.94343" lon="5.69433">
        <ele>749.7</ele>
        <time>2023-08-03T12:05:47Z</time>
      </trkpt>
      <trkpt lat="44.94337" lon="5.69442">
        <ele>749.4</ele>
        <time>2023-08-03T12:05:48Z</time>
      </trkpt>
      <trkpt lat="44.94326" lon="5.69464">
        <ele>748.5</ele>
        <time>2023-08-03T12:05:50Z</time>
      </trkpt>
      <trkpt lat="44.9432" lon="5.69471">
        <ele>748.1</ele>
        <time>2023-08-03T12:05:51Z</time>
      </trkpt>
      <trkpt lat="44.94314" lon="5.69474">
        <ele>747.9</ele>
        <time>2023-08-03T12:05:52Z</time>
      </trkpt>
      <trkpt lat="44.94305" lon="5.69473">
        <ele>747.4</ele>
        <time>2023-08-03T12:05:53Z</time>
      </trkpt>
      <trkpt lat="44.943" lon="5.69468">
        <ele>747.1</ele>
        <time>2023-08-03T12:05:54Z</time>
      </trkpt>
      <trkpt lat="44.94294" lon="5.69463">
        <ele>746.8</ele>
        <time>2023-08-03T12:05:55Z</time>
      </trkpt>
      <trkpt lat="44.94287" lon="5.69457">
        <ele>746.4</ele>
        <time>2023-08-03T12:05:56Z</time>
      </trkpt>
      <trkpt lat="44.94279" lon="5.69453">
        <ele>746</ele>
        <time>2023-08-03T12:05:57Z</time>
      </trkpt>
      <trkpt lat="44.9427" lon="5.69448">
        <ele>745.6</ele>
        <time>2023-08-03T12:05:58Z</time>
      </trkpt>
      <trkpt lat="44.94253" lon="5.69438">
        <ele>744.8</ele>
        <time>2023-08-03T12:06:00Z</time>
      </trkpt>
      <trkpt lat="44.94245" lon="5.69433">
        <ele>744.4</ele>
        <time>2023-08-03T12:06:01Z</time>
      </trkpt>
      <trkpt lat="44.94234" lon="5.69428">
        <ele>743.8</ele>
        <time>2023-08-03T12:06:02Z</time>
      </trkpt>
      <trkpt lat="44.94227" lon="5.69424">
        <ele>743.4</ele>
        <time>2023-08-03T12:06:03Z</time>
      </trkpt>
      <trkpt lat="44.94219" lon="5.69418">
        <ele>742.9</ele>
        <time>2023-08-03T12:06:04Z</time>
      </trkpt>
      <trkpt lat="44.94209" lon="5.6941">
        <ele>742.4</ele>
        <time>2023-08-03T12:06:05Z</time>
      </trkpt>
      <trkpt lat="44.94202" lon="5.69405">
        <ele>742</ele>
        <time>2023-08-03T12:06:06Z</time>
      </trkpt>
      <trkpt lat="44.94184" lon="5.69397">
        <ele>741.2</ele>
        <time>2023-08-03T12:06:08Z</time>
      </trkpt>
      <trkpt lat="44.94144" lon="5.69387">
        <ele>739.5</ele>
        <time>2023-08-03T12:06:12Z</time>
      </trkpt>
      <trkpt lat="44.94134" lon="5.69384">
        <ele>739</ele>
        <time>2023-08-03T12:06:13Z</time>
      </trkpt>
      <trkpt lat="44.9408" lon="5.69373">
        <ele>736.8</ele>
        <time>2023-08-03T12:06:18Z</time>
      </trkpt>
      <trkpt lat="44.9407" lon="5.69375">
        <ele>736.4</ele>
        <time>2023-08-03T12:06:19Z</time>
      </trkpt>
      <trkpt lat="44.94058" lon="5.69381">
        <ele>736</ele>
        <time>2023-08-03T12:06:20Z</time>
      </trkpt>
      <trkpt lat="44.94051" lon="5.69387">
        <ele>735.7</ele>
        <time>2023-08-03T12:06:21Z</time>
      </trkpt>
      <trkpt lat="44.94043" lon="5.69393">
        <ele>735.3</ele>
        <time>2023-08-03T12:06:22Z</time>
      </trkpt>
      <trkpt lat="44.94032" lon="5.69396">
        <ele>735</ele>
        <time>2023-08-03T12:06:23Z</time>
      </trkpt>
      <trkpt lat="44.94026" lon="5.69396">
        <ele>734.7</ele>
        <time>2023-08-03T12:06:24Z</time>
      </trkpt>
      <trkpt lat="44.94018" lon="5.69392">
        <ele>734.4</ele>
        <time>2023-08-03T12:06:25Z</time>
      </trkpt>
      <trkpt lat="44.94009" lon="5.69384">
        <ele>734</ele>
        <time>2023-08-03T12:06:26Z</time>
      </trkpt>
      <trkpt lat="44.94003" lon="5.69379">
        <ele>733.7</ele>
        <time>2023-08-03T12:06:27Z</time>
      </trkpt>
      <trkpt lat="44.93994" lon="5.69373">
        <ele>733.3</ele>
        <time>2023-08-03T12:06:28Z</time>
      </trkpt>
      <trkpt lat="44.93967" lon="5.69358">
        <ele>731.9</ele>
        <time>2023-08-03T12:06:31Z</time>
      </trkpt>
      <trkpt lat="44.93938" lon="5.69345">
        <ele>730.7</ele>
        <time>2023-08-03T12:06:34Z</time>
      </trkpt>
      <trkpt lat="44.93928" lon="5.69341">
        <ele>730.3</ele>
        <time>2023-08-03T12:06:35Z</time>
      </trkpt>
      <trkpt lat="44.93918" lon="5.69338">
        <ele>729.8</ele>
        <time>2023-08-03T12:06:36Z</time>
      </trkpt>
      <trkpt lat="44.93896" lon="5.6933">
        <ele>728.8</ele>
        <time>2023-08-03T12:06:38Z</time>
      </trkpt>
      <trkpt lat="44.93877" lon="5.69324">
        <ele>728</ele>
        <time>2023-08-03T12:06:40Z</time>
      </trkpt>
      <trkpt lat="44.93867" lon="5.69323">
        <ele>727.5</ele>
        <time>2023-08-03T12:06:41Z</time>
      </trkpt>
      <trkpt lat="44.93855" lon="5.6932">
        <ele>727</ele>
        <time>2023-08-03T12:06:42Z</time>
      </trkpt>
      <trkpt lat="44.93847" lon="5.69314">
        <ele>726.6</ele>
        <time>2023-08-03T12:06:43Z</time>
      </trkpt>
      <trkpt lat="44.93839" lon="5.69306">
        <ele>726.1</ele>
        <time>2023-08-03T12:06:44Z</time>
      </trkpt>
      <trkpt lat="44.93831" lon="5.69298">
        <ele>725.7</ele>
        <time>2023-08-03T12:06:45Z</time>
      </trkpt>
      <trkpt lat="44.93822" lon="5.69291">
        <ele>725.3</ele>
        <time>2023-08-03T12:06:46Z</time>
      </trkpt>
      <trkpt lat="44.93804" lon="5.69279">
        <ele>724.4</ele>
        <time>2023-08-03T12:06:48Z</time>
      </trkpt>
      <trkpt lat="44.93794" lon="5.69274">
        <ele>724</ele>
        <time>2023-08-03T12:06:49Z</time>
      </trkpt>
      <trkpt lat="44.93773" lon="5.69269">
        <ele>723.2</ele>
        <time>2023-08-03T12:06:51Z</time>
      </trkpt>
      <trkpt lat="44.93764" lon="5.6927">
        <ele>722.8</ele>
        <time>2023-08-03T12:06:52Z</time>
      </trkpt>
      <trkpt lat="44.93754" lon="5.69275">
        <ele>722.4</ele>
        <time>2023-08-03T12:06:53Z</time>
      </trkpt>
      <trkpt lat="44.93745" lon="5.69281">
        <ele>722</ele>
        <time>2023-08-03T12:06:54Z</time>
      </trkpt>
      <trkpt lat="44.93735" lon="5.69287">
        <ele>721.6</ele>
        <time>2023-08-03T12:06:55Z</time>
      </trkpt>
      <trkpt lat="44.93723" lon="5.69294">
        <ele>721.1</ele>
        <time>2023-08-03T12:06:56Z</time>
      </trkpt>
      <trkpt lat="44.93713" lon="5.69297">
        <ele>720.7</ele>
        <time>2023-08-03T12:06:57Z</time>
      </trkpt>
      <trkpt lat="44.93704" lon="5.69298">
        <ele>720.4</ele>
        <time>2023-08-03T12:06:58Z</time>
      </trkpt>
      <trkpt lat="44.93689" lon="5.69293">
        <ele>719.8</ele>
        <time>2023-08-03T12:07:00Z</time>
      </trkpt>
      <trkpt lat="44.93684" lon="5.69287">
        <ele>719.5</ele>
        <time>2023-08-03T12:07:01Z</time>
      </trkpt>
      <trkpt lat="44.93681" lon="5.6928">
        <ele>719.2</ele>
        <time>2023-08-03T12:07:02Z</time>
      </trkpt>
      <trkpt lat="44.93677" lon="5.69271">
        <ele>718.8</ele>
        <time>2023-08-03T12:07:03Z</time>
      </trkpt>
      <trkpt lat="44.93673" lon="5.69261">
        <ele>718.5</ele>
        <time>2023-08-03T12:07:04Z</time>
      </trkpt>
      <trkpt lat="44.93664" lon="5.69237">
        <ele>717.6</ele>
        <time>2023-08-03T12:07:06Z</time>
      </trkpt>
      <trkpt lat="44.93651" lon="5.69221">
        <ele>716.8</ele>
        <time>2023-08-03T12:07:08Z</time>
      </trkpt>
      <trkpt lat="44.93633" lon="5.69211">
        <ele>716</ele>
        <time>2023-08-03T12:07:10Z</time>
      </trkpt>
      <trkpt lat="44.93624" lon="5.69208">
        <ele>715.6</ele>
        <time>2023-08-03T12:07:11Z</time>
      </trkpt>
      <trkpt lat="44.93584" lon="5.69197">
        <ele>713.9</ele>
        <time>2023-08-03T12:07:15Z</time>
      </trkpt>
      <trkpt lat="44.93573" lon="5.69193">
        <ele>713.5</ele>
        <time>2023-08-03T12:07:16Z</time>
      </trkpt>
      <trkpt lat="44.93532" lon="5.69177">
        <ele>711.9</ele>
        <time>2023-08-03T12:07:20Z</time>
      </trkpt>
      <trkpt lat="44.935" lon="5.69164">
        <ele>710.5</ele>
        <time>2023-08-03T12:07:23Z</time>
      </trkpt>
      <trkpt lat="44.93489" lon="5.69159">
        <ele>710</ele>
        <time>2023-08-03T12:07:24Z</time>
      </trkpt>
      <trkpt lat="44.93467" lon="5.6915">
        <ele>709</ele>
        <time>2023-08-03T12:07:26Z</time>
      </trkpt>
      <trkpt lat="44.93423" lon="5.69131">
        <ele>707.2</ele>
        <time>2023-08-03T12:07:30Z</time>
      </trkpt>
      <trkpt lat="44.93412" lon="5.69126">
        <ele>706.8</ele>
        <time>2023-08-03T12:07:31Z</time>
      </trkpt>
      <trkpt lat="44.93368" lon="5.69106">
        <ele>705.2</ele>
        <time>2023-08-03T12:07:35Z</time>
      </trkpt>
      <trkpt lat="44.93348" lon="5.69108">
        <ele>704.6</ele>
        <time>2023-08-03T12:07:37Z</time>
      </trkpt>
      <trkpt lat="44.93337" lon="5.69115">
        <ele>704.2</ele>
        <time>2023-08-03T12:07:38Z</time>
      </trkpt>
      <trkpt lat="44.93332" lon="5.69123">
        <ele>703.9</ele>
        <time>2023-08-03T12:07:39Z</time>
      </trkpt>
      <trkpt lat="44.93317" lon="5.6914">
        <ele>703</ele>
        <time>2023-08-03T12:07:41Z</time>
      </trkpt>
      <trkpt lat="44.93308" lon="5.69144">
        <ele>702.5</ele>
        <time>2023-08-03T12:07:42Z</time>
      </trkpt>
      <trkpt lat="44.93292" lon="5.69136">
        <ele>701.6</ele>
        <time>2023-08-03T12:07:44Z</time>
      </trkpt>
      <trkpt lat="44.93282" lon="5.6912">
        <ele>700.8</ele>
        <time>2023-08-03T12:07:46Z</time>
      </trkpt>
      <trkpt lat="44.93274" lon="5.69112">
        <ele>700.4</ele>
        <time>2023-08-03T12:07:47Z</time>
      </trkpt>
      <trkpt lat="44.93267" lon="5.6911">
        <ele>700</ele>
        <time>2023-08-03T12:07:48Z</time>
      </trkpt>
      <trkpt lat="44.93256" lon="5.69109">
        <ele>699.6</ele>
        <time>2023-08-03T12:07:49Z</time>
      </trkpt>
      <trkpt lat="44.93247" lon="5.69108">
        <ele>699.2</ele>
        <time>2023-08-03T12:07:50Z</time>
      </trkpt>
      <trkpt lat="44.93239" lon="5.69108">
        <ele>698.9</ele>
        <time>2023-08-03T12:07:51Z</time>
      </trkpt>
      <trkpt lat="44.93218" lon="5.69114">
        <ele>697.8</ele>
        <time>2023-08-03T12:07:53Z</time>
      </trkpt>
      <trkpt lat="44.93211" lon="5.69118">
        <ele>697.4</ele>
        <time>2023-08-03T12:07:54Z</time>
      </trkpt>
      <trkpt lat="44.93191" lon="5.69128">
        <ele>696.5</ele>
        <time>2023-08-03T12:07:56Z</time>
      </trkpt>
      <trkpt lat="44.93181" lon="5.69131">
        <ele>696</ele>
        <time>2023-08-03T12:07:57Z</time>
      </trkpt>
      <trkpt lat="44.93171" lon="5.69132">
        <ele>695.6</ele>
        <time>2023-08-03T12:07:58Z</time>
      </trkpt>
      <trkpt lat="44.93151" lon="5.69127">
        <ele>694.7</ele>
        <time>2023-08-03T12:08:00Z</time>
      </trkpt>
      <trkpt lat="44.93141" lon="5.69124">
        <ele>694.3</ele>
        <time>2023-08-03T12:08:01Z</time>
      </trkpt>
      <trkpt lat="44.93119" lon="5.69126">
        <ele>693.4</ele>
        <time>2023-08-03T12:08:03Z</time>
      </trkpt>
      <trkpt lat="44.93109" lon="5.6913">
        <ele>693.1</ele>
        <time>2023-08-03T12:08:04Z</time>
      </trkpt>
      <trkpt lat="44.93099" lon="5.69131">
        <ele>692.7</ele>
        <time>2023-08-03T12:08:05Z</time>
      </trkpt>
      <trkpt lat="44.93088" lon="5.69128">
        <ele>692.2</ele>
        <time>2023-08-03T12:08:06Z</time>
      </trkpt>
      <trkpt lat="44.93081" lon="5.69125">
        <ele>691.9</ele>
        <time>2023-08-03T12:08:07Z</time>
      </trkpt>
      <trkpt lat="44.93071" lon="5.69121">
        <ele>691.4</ele>
        <time>2023-08-03T12:08:08Z</time>
      </trkpt>
      <trkpt lat="44.93063" lon="5.69121">
        <ele>691.1</ele>
        <time>2023-08-03T12:08:09Z</time>
      </trkpt>
      <trkpt lat="44.93054" lon="5.69122">
        <ele>690.7</ele>
        <time>2023-08-03T12:08:10Z</time>
      </trkpt>
      <trkpt lat="44.93044" lon="5.69125">
        <ele>690.3</ele>
        <time>2023-08-03T12:08:11Z</time>
      </trkpt>
      <trkpt lat="44.93022" lon="5.69134">
        <ele>689.3</ele>
        <time>2023-08-03T12:08:13Z</time>
      </trkpt>
      <trkpt lat="44.93003" lon="5.69144">
        <ele>688.5</ele>
        <time>2023-08-03T12:08:15Z</time>
      </trkpt>
      <trkpt lat="44.92982" lon="5.69153">
        <ele>687.7</ele>
        <time>2023-08-03T12:08:17Z</time>
      </trkpt>
      <trkpt lat="44.92974" lon="5.69156">
        <ele>687.4</ele>
        <time>2023-08-03T12:08:18Z</time>
      </trkpt>
      <trkpt lat="44.92964" lon="5.69157">
        <ele>687</ele>
        <time>2023-08-03T12:08:19Z</time>
      </trkpt>
      <trkpt lat="44.92943" lon="5.69155">
        <ele>686.1</ele>
        <time>2023-08-03T12:08:21Z</time>
      </trkpt>
      <trkpt lat="44.92932" lon="5.69156">
        <ele>685.7</ele>
        <time>2023-08-03T12:08:22Z</time>
      </trkpt>
      <trkpt lat="44.92912" lon="5.69166">
        <ele>684.8</ele>
        <time>2023-08-03T12:08:24Z</time>
      </trkpt>
      <trkpt lat="44.92906" lon="5.69174">
        <ele>684.5</ele>
        <time>2023-08-03T12:08:25Z</time>
      </trkpt>
      <trkpt lat="44.92899" lon="5.69184">
        <ele>684.1</ele>
        <time>2023-08-03T12:08:26Z</time>
      </trkpt>
      <trkpt lat="44.9289" lon="5.69196">
        <ele>683.7</ele>
        <time>2023-08-03T12:08:27Z</time>
      </trkpt>
      <trkpt lat="44.92884" lon="5.69201">
        <ele>683.4</ele>
        <time>2023-08-03T12:08:28Z</time>
      </trkpt>
      <trkpt lat="44.92875" lon="5.69205">
        <ele>683</ele>
        <time>2023-08-03T12:08:29Z</time>
      </trkpt>
      <trkpt lat="44.92857" lon="5.69199">
        <ele>682.3</ele>
        <time>2023-08-03T12:08:31Z</time>
      </trkpt>
      <trkpt lat="44.92847" lon="5.69181">
        <ele>681.6</ele>
        <time>2023-08-03T12:08:33Z</time>
      </trkpt>
      <trkpt lat="44.9284" lon="5.69172">
        <ele>681.2</ele>
        <time>2023-08-03T12:08:34Z</time>
      </trkpt>
      <trkpt lat="44.92831" lon="5.69165">
        <ele>680.8</ele>
        <time>2023-08-03T12:08:35Z</time>
      </trkpt>
      <trkpt lat="44.92822" lon="5.69162">
        <ele>680.4</ele>
        <time>2023-08-03T12:08:36Z</time>
      </trkpt>
      <trkpt lat="44.92805" lon="5.69161">
        <ele>679.6</ele>
        <time>2023-08-03T12:08:38Z</time>
      </trkpt>
      <trkpt lat="44.92774" lon="5.69157">
        <ele>678.4</ele>
        <time>2023-08-03T12:08:41Z</time>
      </trkpt>
      <trkpt lat="44.92764" lon="5.69157">
        <ele>678</ele>
        <time>2023-08-03T12:08:42Z</time>
      </trkpt>
      <trkpt lat="44.92744" lon="5.69163">
        <ele>677</ele>
        <time>2023-08-03T12:08:44Z</time>
      </trkpt>
      <trkpt lat="44.92734" lon="5.69166">
        <ele>676.6</ele>
        <time>2023-08-03T12:08:45Z</time>
      </trkpt>
      <trkpt lat="44.92723" lon="5.69168">
        <ele>676.2</ele>
        <time>2023-08-03T12:08:46Z</time>
      </trkpt>
      <trkpt lat="44.92711" lon="5.69166">
        <ele>675.6</ele>
        <time>2023-08-03T12:08:47Z</time>
      </trkpt>
      <trkpt lat="44.927" lon="5.69162">
        <ele>675.2</ele>
        <time>2023-08-03T12:08:48Z</time>
      </trkpt>
      <trkpt lat="44.9267" lon="5.69151">
        <ele>673.9</ele>
        <time>2023-08-03T12:08:51Z</time>
      </trkpt>
      <trkpt lat="44.92662" lon="5.69147">
        <ele>673.6</ele>
        <time>2023-08-03T12:08:52Z</time>
      </trkpt>
      <trkpt lat="44.9265" lon="5.69142">
        <ele>673</ele>
        <time>2023-08-03T12:08:53Z</time>
      </trkpt>
      <trkpt lat="44.92628" lon="5.69131">
        <ele>672.1</ele>
        <time>2023-08-03T12:08:55Z</time>
      </trkpt>
      <trkpt lat="44.92618" lon="5.69125">
        <ele>671.6</ele>
        <time>2023-08-03T12:08:56Z</time>
      </trkpt>
      <trkpt lat="44.92607" lon="5.6912">
        <ele>671.1</ele>
        <time>2023-08-03T12:08:57Z</time>
      </trkpt>
      <trkpt lat="44.92599" lon="5.69116">
        <ele>670.7</ele>
        <time>2023-08-03T12:08:58Z</time>
      </trkpt>
      <trkpt lat="44.92585" lon="5.69109">
        <ele>670.1</ele>
        <time>2023-08-03T12:08:59Z</time>
      </trkpt>
      <trkpt lat="44.92565" lon="5.69101">
        <ele>669.3</ele>
        <time>2023-08-03T12:09:01Z</time>
      </trkpt>
      <trkpt lat="44.92552" lon="5.69099">
        <ele>668.7</ele>
        <time>2023-08-03T12:09:02Z</time>
      </trkpt>
      <trkpt lat="44.9254" lon="5.69098">
        <ele>668.2</ele>
        <time>2023-08-03T12:09:03Z</time>
      </trkpt>
      <trkpt lat="44.92505" lon="5.69101">
        <ele>666.7</ele>
        <time>2023-08-03T12:09:06Z</time>
      </trkpt>
      <trkpt lat="44.92497" lon="5.691">
        <ele>666.3</ele>
        <time>2023-08-03T12:09:07Z</time>
      </trkpt>
      <trkpt lat="44.92486" lon="5.69096">
        <ele>665.8</ele>
        <time>2023-08-03T12:09:08Z</time>
      </trkpt>
      <trkpt lat="44.92463" lon="5.69082">
        <ele>664.7</ele>
        <time>2023-08-03T12:09:10Z</time>
      </trkpt>
      <trkpt lat="44.92421" lon="5.69065">
        <ele>662.8</ele>
        <time>2023-08-03T12:09:14Z</time>
      </trkpt>
      <trkpt lat="44.92408" lon="5.69059">
        <ele>662.1</ele>
        <time>2023-08-03T12:09:15Z</time>
      </trkpt>
      <trkpt lat="44.9239" lon="5.69045">
        <ele>661.1</ele>
        <time>2023-08-03T12:09:17Z</time>
      </trkpt>
      <trkpt lat="44.92371" lon="5.6903">
        <ele>660.1</ele>
        <time>2023-08-03T12:09:19Z</time>
      </trkpt>
      <trkpt lat="44.92361" lon="5.69024">
        <ele>659.7</ele>
        <time>2023-08-03T12:09:20Z</time>
      </trkpt>
      <trkpt lat="44.92349" lon="5.6902">
        <ele>659.2</ele>
        <time>2023-08-03T12:09:21Z</time>
      </trkpt>
      <trkpt lat="44.92329" lon="5.69011">
        <ele>658.8</ele>
        <time>2023-08-03T12:09:23Z</time>
      </trkpt>
      <trkpt lat="44.92317" lon="5.69008">
        <ele>658.7</ele>
        <time>2023-08-03T12:09:24Z</time>
      </trkpt>
      <trkpt lat="44.92309" lon="5.69007">
        <ele>658.6</ele>
        <time>2023-08-03T12:09:25Z</time>
      </trkpt>
      <trkpt lat="44.92299" lon="5.69004">
        <ele>658.6</ele>
        <time>2023-08-03T12:09:26Z</time>
      </trkpt>
      <trkpt lat="44.9229" lon="5.69">
        <ele>658.6</ele>
        <time>2023-08-03T12:09:27Z</time>
      </trkpt>
      <trkpt lat="44.92282" lon="5.68993">
        <ele>658.5</ele>
        <time>2023-08-03T12:09:28Z</time>
      </trkpt>
      <trkpt lat="44.92266" lon="5.68963">
        <ele>658</ele>
        <time>2023-08-03T12:09:31Z</time>
      </trkpt>
      <trkpt lat="44.92259" lon="5.68954">
        <ele>658.1</ele>
        <time>2023-08-03T12:09:32Z</time>
      </trkpt>
      <trkpt lat="44.92252" lon="5.68947">
        <ele>658.1</ele>
        <time>2023-08-03T12:09:33Z</time>
      </trkpt>
      <trkpt lat="44.92244" lon="5.6894">
        <ele>658.3</ele>
        <time>2023-08-03T12:09:34Z</time>
      </trkpt>
      <trkpt lat="44.92238" lon="5.68935">
        <ele>658.5</ele>
        <time>2023-08-03T12:09:35Z</time>
      </trkpt>
      <trkpt lat="44.92211" lon="5.68915">
        <ele>659.8</ele>
        <time>2023-08-03T12:09:39Z</time>
      </trkpt>
      <trkpt lat="44.92187" lon="5.689">
        <ele>661.1</ele>
        <time>2023-08-03T12:09:43Z</time>
      </trkpt>
      <trkpt lat="44.92181" lon="5.68898">
        <ele>661.4</ele>
        <time>2023-08-03T12:09:44Z</time>
      </trkpt>
      <trkpt lat="44.92174" lon="5.68897">
        <ele>661.8</ele>
        <time>2023-08-03T12:09:45Z</time>
      </trkpt>
      <trkpt lat="44.92169" lon="5.68897">
        <ele>662</ele>
        <time>2023-08-03T12:09:46Z</time>
      </trkpt>
      <trkpt lat="44.92164" lon="5.68899">
        <ele>662.1</ele>
        <time>2023-08-03T12:09:47Z</time>
      </trkpt>
      <trkpt lat="44.92158" lon="5.68902">
        <ele>662.2</ele>
        <time>2023-08-03T12:09:48Z</time>
      </trkpt>
      <trkpt lat="44.92122" lon="5.68927">
        <ele>661.8</ele>
        <time>2023-08-03T12:09:54Z</time>
      </trkpt>
      <trkpt lat="44.92116" lon="5.68931">
        <ele>661.7</ele>
        <time>2023-08-03T12:09:55Z</time>
      </trkpt>
      <trkpt lat="44.92075" lon="5.68958">
        <ele>661.8</ele>
        <time>2023-08-03T12:10:00Z</time>
      </trkpt>
      <trkpt lat="44.92053" lon="5.68967">
        <ele>661.4</ele>
        <time>2023-08-03T12:10:03Z</time>
      </trkpt>
      <trkpt lat="44.92036" lon="5.6897">
        <ele>660.9</ele>
        <time>2023-08-03T12:10:05Z</time>
      </trkpt>
      <trkpt lat="44.92027" lon="5.68971">
        <ele>660.6</ele>
        <time>2023-08-03T12:10:06Z</time>
      </trkpt>
      <trkpt lat="44.91993" lon="5.68968">
        <ele>659.6</ele>
        <time>2023-08-03T12:10:10Z</time>
      </trkpt>
      <trkpt lat="44.91984" lon="5.68966">
        <ele>659.3</ele>
        <time>2023-08-03T12:10:11Z</time>
      </trkpt>
      <trkpt lat="44.91958" lon="5.68951">
        <ele>658.4</ele>
        <time>2023-08-03T12:10:14Z</time>
      </trkpt>
      <trkpt lat="44.91912" lon="5.68924">
        <ele>656.6</ele>
        <time>2023-08-03T12:10:19Z</time>
      </trkpt>
      <trkpt lat="44.9189" lon="5.68919">
        <ele>655.9</ele>
        <time>2023-08-03T12:10:21Z</time>
      </trkpt>
      <trkpt lat="44.91869" lon="5.68917">
        <ele>655.2</ele>
        <time>2023-08-03T12:10:23Z</time>
      </trkpt>
      <trkpt lat="44.91858" lon="5.68915">
        <ele>654.9</ele>
        <time>2023-08-03T12:10:24Z</time>
      </trkpt>
      <trkpt lat="44.91825" lon="5.6891">
        <ele>654.2</ele>
        <time>2023-08-03T12:10:27Z</time>
      </trkpt>
      <trkpt lat="44.91814" lon="5.68906">
        <ele>653.8</ele>
        <time>2023-08-03T12:10:28Z</time>
      </trkpt>
      <trkpt lat="44.91772" lon="5.68887">
        <ele>652.2</ele>
        <time>2023-08-03T12:10:32Z</time>
      </trkpt>
      <trkpt lat="44.91738" lon="5.68875">
        <ele>651</ele>
        <time>2023-08-03T12:10:35Z</time>
      </trkpt>
      <trkpt lat="44.91727" lon="5.68873">
        <ele>650.6</ele>
        <time>2023-08-03T12:10:36Z</time>
      </trkpt>
      <trkpt lat="44.91693" lon="5.68874">
        <ele>649.4</ele>
        <time>2023-08-03T12:10:39Z</time>
      </trkpt>
      <trkpt lat="44.91645" lon="5.68878">
        <ele>647.5</ele>
        <time>2023-08-03T12:10:43Z</time>
      </trkpt>
      <trkpt lat="44.91621" lon="5.6888">
        <ele>646.4</ele>
        <time>2023-08-03T12:10:45Z</time>
      </trkpt>
      <trkpt lat="44.91596" lon="5.68882">
        <ele>645.2</ele>
        <time>2023-08-03T12:10:47Z</time>
      </trkpt>
      <trkpt lat="44.91583" lon="5.68883">
        <ele>644.5</ele>
        <time>2023-08-03T12:10:48Z</time>
      </trkpt>
      <trkpt lat="44.91547" lon="5.68887">
        <ele>642.7</ele>
        <time>2023-08-03T12:10:50Z</time>
      </trkpt>
      <trkpt lat="44.91516" lon="5.6889">
        <ele>641.2</ele>
        <time>2023-08-03T12:10:53Z</time>
      </trkpt>
      <trkpt lat="44.91506" lon="5.68891">
        <ele>640.8</ele>
        <time>2023-08-03T12:10:54Z</time>
      </trkpt>
      <trkpt lat="44.91465" lon="5.68896">
        <ele>639.2</ele>
        <time>2023-08-03T12:10:58Z</time>
      </trkpt>
      <trkpt lat="44.91443" lon="5.68897">
        <ele>638.4</ele>
        <time>2023-08-03T12:11:00Z</time>
      </trkpt>
      <trkpt lat="44.91421" lon="5.68896">
        <ele>637.6</ele>
        <time>2023-08-03T12:11:02Z</time>
      </trkpt>
      <trkpt lat="44.91399" lon="5.68894">
        <ele>637</ele>
        <time>2023-08-03T12:11:04Z</time>
      </trkpt>
      <trkpt lat="44.91375" lon="5.68893">
        <ele>636.5</ele>
        <time>2023-08-03T12:11:06Z</time>
      </trkpt>
      <trkpt lat="44.91327" lon="5.6889">
        <ele>635.8</ele>
        <time>2023-08-03T12:11:10Z</time>
      </trkpt>
      <trkpt lat="44.91294" lon="5.68891">
        <ele>636.2</ele>
        <time>2023-08-03T12:11:13Z</time>
      </trkpt>
      <trkpt lat="44.91255" lon="5.68898">
        <ele>637.1</ele>
        <time>2023-08-03T12:11:17Z</time>
      </trkpt>
      <trkpt lat="44.91245" lon="5.68901">
        <ele>637.3</ele>
        <time>2023-08-03T12:11:18Z</time>
      </trkpt>
      <trkpt lat="44.91228" lon="5.68907">
        <ele>637.7</ele>
        <time>2023-08-03T12:11:20Z</time>
      </trkpt>
      <trkpt lat="44.91194" lon="5.6892">
        <ele>638.3</ele>
        <time>2023-08-03T12:11:24Z</time>
      </trkpt>
      <trkpt lat="44.91186" lon="5.68924">
        <ele>638.4</ele>
        <time>2023-08-03T12:11:25Z</time>
      </trkpt>
      <trkpt lat="44.91163" lon="5.68935">
        <ele>639</ele>
        <time>2023-08-03T12:11:28Z</time>
      </trkpt>
      <trkpt lat="44.91142" lon="5.68945">
        <ele>639.6</ele>
        <time>2023-08-03T12:11:31Z</time>
      </trkpt>
      <trkpt lat="44.91128" lon="5.68951">
        <ele>640</ele>
        <time>2023-08-03T12:11:33Z</time>
      </trkpt>
      <trkpt lat="44.91093" lon="5.68968">
        <ele>641</ele>
        <time>2023-08-03T12:11:38Z</time>
      </trkpt>
      <trkpt lat="44.91086" lon="5.68971">
        <ele>641.1</ele>
        <time>2023-08-03T12:11:39Z</time>
      </trkpt>
      <trkpt lat="44.91059" lon="5.68985">
        <ele>641.9</ele>
        <time>2023-08-03T12:11:43Z</time>
      </trkpt>
      <trkpt lat="44.91026" lon="5.69001">
        <ele>643.1</ele>
        <time>2023-08-03T12:11:48Z</time>
      </trkpt>
      <trkpt lat="44.9099" lon="5.69018">
        <ele>644.4</ele>
        <time>2023-08-03T12:11:54Z</time>
      </trkpt>
      <trkpt lat="44.90984" lon="5.69021">
        <ele>644.6</ele>
        <time>2023-08-03T12:11:55Z</time>
      </trkpt>
      <trkpt lat="44.90956" lon="5.69035">
        <ele>645.8</ele>
        <time>2023-08-03T12:12:00Z</time>
      </trkpt>
      <trkpt lat="44.90938" lon="5.69044">
        <ele>646.5</ele>
        <time>2023-08-03T12:12:03Z</time>
      </trkpt>
      <trkpt lat="44.90933" lon="5.69046">
        <ele>646.7</ele>
        <time>2023-08-03T12:12:04Z</time>
      </trkpt>
      <trkpt lat="44.90904" lon="5.6906">
        <ele>647.8</ele>
        <time>2023-08-03T12:12:09Z</time>
      </trkpt>
      <trkpt lat="44.90899" lon="5.69063">
        <ele>648</ele>
        <time>2023-08-03T12:12:10Z</time>
      </trkpt>
      <trkpt lat="44.90876" lon="5.69074">
        <ele>648.9</ele>
        <time>2023-08-03T12:12:14Z</time>
      </trkpt>
      <trkpt lat="44.90864" lon="5.69078">
        <ele>649.4</ele>
        <time>2023-08-03T12:12:16Z</time>
      </trkpt>
      <trkpt lat="44.90864" lon="5.69078">
        <ele>649.4</ele>
        <time>2023-08-03T12:12:17Z</time>
      </trkpt>
      <trkpt lat="44.90835" lon="5.69084">
        <ele>650.7</ele>
        <time>2023-08-03T12:12:21Z</time>
      </trkpt>
      <trkpt lat="44.90824" lon="5.69086">
        <ele>651.2</ele>
        <time>2023-08-03T12:12:24Z</time>
      </trkpt>
      <trkpt lat="44.90813" lon="5.69089">
        <ele>651.8</ele>
        <time>2023-08-03T12:12:25Z</time>
      </trkpt>
      <trkpt lat="44.90807" lon="5.6909">
        <ele>652</ele>
        <time>2023-08-03T12:12:26Z</time>
      </trkpt>
      <trkpt lat="44.90796" lon="5.69091">
        <ele>652.5</ele>
        <time>2023-08-03T12:12:28Z</time>
      </trkpt>
      <trkpt lat="44.90775" lon="5.69093">
        <ele>653.3</ele>
        <time>2023-08-03T12:12:32Z</time>
      </trkpt>
      <trkpt lat="44.9075" lon="5.69095">
        <ele>654.4</ele>
        <time>2023-08-03T12:12:37Z</time>
      </trkpt>
      <trkpt lat="44.90735" lon="5.69095">
        <ele>655.1</ele>
        <time>2023-08-03T12:12:40Z</time>
      </trkpt>
      <trkpt lat="44.90714" lon="5.69094">
        <ele>656</ele>
        <time>2023-08-03T12:12:44Z</time>
      </trkpt>
      <trkpt lat="44.90698" lon="5.69094">
        <ele>656.7</ele>
        <time>2023-08-03T12:12:47Z</time>
      </trkpt>
      <trkpt lat="44.90688" lon="5.69094">
        <ele>657.1</ele>
        <time>2023-08-03T12:12:49Z</time>
      </trkpt>
      <trkpt lat="44.90676" lon="5.69092">
        <ele>657.6</ele>
        <time>2023-08-03T12:12:51Z</time>
      </trkpt>
      <trkpt lat="44.90651" lon="5.69091">
        <ele>658.7</ele>
        <time>2023-08-03T12:12:56Z</time>
      </trkpt>
      <trkpt lat="44.90636" lon="5.6909">
        <ele>659.4</ele>
        <time>2023-08-03T12:12:59Z</time>
      </trkpt>
      <trkpt lat="44.90625" lon="5.6909">
        <ele>659.8</ele>
        <time>2023-08-03T12:13:01Z</time>
      </trkpt>
      <trkpt lat="44.90604" lon="5.69088">
        <ele>660.7</ele>
        <time>2023-08-03T12:13:05Z</time>
      </trkpt>
      <trkpt lat="44.90577" lon="5.69087">
        <ele>661.7</ele>
        <time>2023-08-03T12:13:10Z</time>
      </trkpt>
      <trkpt lat="44.90556" lon="5.69088">
        <ele>662.6</ele>
        <time>2023-08-03T12:13:14Z</time>
      </trkpt>
      <trkpt lat="44.90546" lon="5.69089">
        <ele>663.1</ele>
        <time>2023-08-03T12:13:16Z</time>
      </trkpt>
      <trkpt lat="44.90541" lon="5.69089">
        <ele>663.3</ele>
        <time>2023-08-03T12:13:17Z</time>
      </trkpt>
      <trkpt lat="44.90536" lon="5.6909">
        <ele>663.5</ele>
        <time>2023-08-03T12:13:18Z</time>
      </trkpt>
      <trkpt lat="44.90509" lon="5.69094">
        <ele>664.5</ele>
        <time>2023-08-03T12:13:23Z</time>
      </trkpt>
      <trkpt lat="44.90494" lon="5.69096">
        <ele>665.2</ele>
        <time>2023-08-03T12:13:26Z</time>
      </trkpt>
      <trkpt lat="44.90483" lon="5.69099">
        <ele>665.6</ele>
        <time>2023-08-03T12:13:28Z</time>
      </trkpt>
      <trkpt lat="44.90461" lon="5.69102">
        <ele>666.5</ele>
        <time>2023-08-03T12:13:32Z</time>
      </trkpt>
      <trkpt lat="44.90434" lon="5.69108">
        <ele>667.3</ele>
        <time>2023-08-03T12:13:37Z</time>
      </trkpt>
      <trkpt lat="44.90412" lon="5.69112">
        <ele>668</ele>
        <time>2023-08-03T12:13:41Z</time>
      </trkpt>
      <trkpt lat="44.90389" lon="5.69117">
        <ele>668.8</ele>
        <time>2023-08-03T12:13:45Z</time>
      </trkpt>
      <trkpt lat="44.90371" lon="5.69122">
        <ele>669.4</ele>
        <time>2023-08-03T12:13:48Z</time>
      </trkpt>
      <trkpt lat="44.90354" lon="5.69129">
        <ele>669.9</ele>
        <time>2023-08-03T12:13:51Z</time>
      </trkpt>
      <trkpt lat="44.90332" lon="5.6914">
        <ele>670.7</ele>
        <time>2023-08-03T12:13:55Z</time>
      </trkpt>
      <trkpt lat="44.9031" lon="5.69151">
        <ele>671.5</ele>
        <time>2023-08-03T12:13:59Z</time>
      </trkpt>
      <trkpt lat="44.90293" lon="5.69159">
        <ele>672.1</ele>
        <time>2023-08-03T12:14:02Z</time>
      </trkpt>
      <trkpt lat="44.90277" lon="5.69167">
        <ele>672.6</ele>
        <time>2023-08-03T12:14:05Z</time>
      </trkpt>
      <trkpt lat="44.9026" lon="5.69176">
        <ele>673.1</ele>
        <time>2023-08-03T12:14:08Z</time>
      </trkpt>
      <trkpt lat="44.90244" lon="5.69185">
        <ele>673.7</ele>
        <time>2023-08-03T12:14:11Z</time>
      </trkpt>
      <trkpt lat="44.90211" lon="5.69203">
        <ele>674.8</ele>
        <time>2023-08-03T12:14:17Z</time>
      </trkpt>
      <trkpt lat="44.90172" lon="5.69222">
        <ele>676.2</ele>
        <time>2023-08-03T12:14:24Z</time>
      </trkpt>
      <trkpt lat="44.9015" lon="5.69231">
        <ele>677</ele>
        <time>2023-08-03T12:14:28Z</time>
      </trkpt>
      <trkpt lat="44.90145" lon="5.69233">
        <ele>677.3</ele>
        <time>2023-08-03T12:14:29Z</time>
      </trkpt>
      <trkpt lat="44.90113" lon="5.69242">
        <ele>678.6</ele>
        <time>2023-08-03T12:14:35Z</time>
      </trkpt>
      <trkpt lat="44.90107" lon="5.69243">
        <ele>678.8</ele>
        <time>2023-08-03T12:14:36Z</time>
      </trkpt>
      <trkpt lat="44.90079" lon="5.69251">
        <ele>679.8</ele>
        <time>2023-08-03T12:14:41Z</time>
      </trkpt>
      <trkpt lat="44.90044" lon="5.69258">
        <ele>680.2</ele>
        <time>2023-08-03T12:14:47Z</time>
      </trkpt>
      <trkpt lat="44.90038" lon="5.6926">
        <ele>680.2</ele>
        <time>2023-08-03T12:14:48Z</time>
      </trkpt>
      <trkpt lat="44.89998" lon="5.6927">
        <ele>680.4</ele>
        <time>2023-08-03T12:14:54Z</time>
      </trkpt>
      <trkpt lat="44.89973" lon="5.69275">
        <ele>680.8</ele>
        <time>2023-08-03T12:14:58Z</time>
      </trkpt>
      <trkpt lat="44.89954" lon="5.6928">
        <ele>681.1</ele>
        <time>2023-08-03T12:15:01Z</time>
      </trkpt>
      <trkpt lat="44.89929" lon="5.69287">
        <ele>681.7</ele>
        <time>2023-08-03T12:15:05Z</time>
      </trkpt>
      <trkpt lat="44.89912" lon="5.69294">
        <ele>682.5</ele>
        <time>2023-08-03T12:15:08Z</time>
      </trkpt>
      <trkpt lat="44.8986" lon="5.69316">
        <ele>685.1</ele>
        <time>2023-08-03T12:15:18Z</time>
      </trkpt>
      <trkpt lat="44.89856" lon="5.69319">
        <ele>685.4</ele>
        <time>2023-08-03T12:15:19Z</time>
      </trkpt>
      <trkpt lat="44.89835" lon="5.69334">
        <ele>686.7</ele>
        <time>2023-08-03T12:15:24Z</time>
      </trkpt>
      <trkpt lat="44.8982" lon="5.69347">
        <ele>687.7</ele>
        <time>2023-08-03T12:15:28Z</time>
      </trkpt>
      <trkpt lat="44.89812" lon="5.69354">
        <ele>688.1</ele>
        <time>2023-08-03T12:15:30Z</time>
      </trkpt>
      <trkpt lat="44.89805" lon="5.69363">
        <ele>688.6</ele>
        <time>2023-08-03T12:15:32Z</time>
      </trkpt>
      <trkpt lat="44.89801" lon="5.69367">
        <ele>688.8</ele>
        <time>2023-08-03T12:15:33Z</time>
      </trkpt>
      <trkpt lat="44.89797" lon="5.69371">
        <ele>689</ele>
        <time>2023-08-03T12:15:34Z</time>
      </trkpt>
      <trkpt lat="44.8978" lon="5.69388">
        <ele>689.9</ele>
        <time>2023-08-03T12:15:38Z</time>
      </trkpt>
      <trkpt lat="44.89769" lon="5.69402">
        <ele>690.5</ele>
        <time>2023-08-03T12:15:41Z</time>
      </trkpt>
      <trkpt lat="44.89748" lon="5.69424">
        <ele>691.3</ele>
        <time>2023-08-03T12:15:46Z</time>
      </trkpt>
      <trkpt lat="44.89744" lon="5.69428">
        <ele>691.4</ele>
        <time>2023-08-03T12:15:47Z</time>
      </trkpt>
      <trkpt lat="44.89722" lon="5.69447">
        <ele>692.1</ele>
        <time>2023-08-03T12:15:52Z</time>
      </trkpt>
      <trkpt lat="44.89712" lon="5.69453">
        <ele>692.4</ele>
        <time>2023-08-03T12:15:54Z</time>
      </trkpt>
      <trkpt lat="44.89693" lon="5.69465">
        <ele>693.2</ele>
        <time>2023-08-03T12:15:58Z</time>
      </trkpt>
      <trkpt lat="44.89673" lon="5.69477">
        <ele>694</ele>
        <time>2023-08-03T12:16:02Z</time>
      </trkpt>
      <trkpt lat="44.89658" lon="5.69485">
        <ele>694.6</ele>
        <time>2023-08-03T12:16:05Z</time>
      </trkpt>
      <trkpt lat="44.89632" lon="5.69499">
        <ele>695.7</ele>
        <time>2023-08-03T12:16:10Z</time>
      </trkpt>
      <trkpt lat="44.89611" lon="5.69517">
        <ele>696.6</ele>
        <time>2023-08-03T12:16:15Z</time>
      </trkpt>
      <trkpt lat="44.89606" lon="5.6952">
        <ele>696.8</ele>
        <time>2023-08-03T12:16:16Z</time>
      </trkpt>
      <trkpt lat="44.89575" lon="5.6955">
        <ele>698.1</ele>
        <time>2023-08-03T12:16:23Z</time>
      </trkpt>
      <trkpt lat="44.89546" lon="5.6957">
        <ele>699.1</ele>
        <time>2023-08-03T12:16:29Z</time>
      </trkpt>
      <trkpt lat="44.89541" lon="5.69573">
        <ele>699.3</ele>
        <time>2023-08-03T12:16:30Z</time>
      </trkpt>
      <trkpt lat="44.8953" lon="5.69579">
        <ele>699.7</ele>
        <time>2023-08-03T12:16:32Z</time>
      </trkpt>
      <trkpt lat="44.89506" lon="5.69588">
        <ele>700.6</ele>
        <time>2023-08-03T12:16:37Z</time>
      </trkpt>
      <trkpt lat="44.89495" lon="5.69592">
        <ele>700.9</ele>
        <time>2023-08-03T12:16:39Z</time>
      </trkpt>
      <trkpt lat="44.89483" lon="5.69592">
        <ele>701.1</ele>
        <time>2023-08-03T12:16:41Z</time>
      </trkpt>
      <trkpt lat="44.89479" lon="5.69591">
        <ele>701.2</ele>
        <time>2023-08-03T12:16:42Z</time>
      </trkpt>
      <trkpt lat="44.89473" lon="5.69589">
        <ele>701.4</ele>
        <time>2023-08-03T12:16:43Z</time>
      </trkpt>
      <trkpt lat="44.89444" lon="5.69582">
        <ele>702.2</ele>
        <time>2023-08-03T12:16:48Z</time>
      </trkpt>
      <trkpt lat="44.89439" lon="5.69582">
        <ele>702.4</ele>
        <time>2023-08-03T12:16:49Z</time>
      </trkpt>
      <trkpt lat="44.89432" lon="5.69583">
        <ele>702.6</ele>
        <time>2023-08-03T12:16:50Z</time>
      </trkpt>
      <trkpt lat="44.89411" lon="5.69589">
        <ele>703.4</ele>
        <time>2023-08-03T12:16:54Z</time>
      </trkpt>
      <trkpt lat="44.89401" lon="5.69594">
        <ele>703.8</ele>
        <time>2023-08-03T12:16:56Z</time>
      </trkpt>
      <trkpt lat="44.8939" lon="5.69599">
        <ele>704.2</ele>
        <time>2023-08-03T12:16:58Z</time>
      </trkpt>
      <trkpt lat="44.89368" lon="5.69608">
        <ele>705.1</ele>
        <time>2023-08-03T12:17:02Z</time>
      </trkpt>
      <trkpt lat="44.89358" lon="5.69611">
        <ele>705.5</ele>
        <time>2023-08-03T12:17:04Z</time>
      </trkpt>
      <trkpt lat="44.89353" lon="5.69614">
        <ele>705.7</ele>
        <time>2023-08-03T12:17:05Z</time>
      </trkpt>
      <trkpt lat="44.89331" lon="5.69623">
        <ele>706.5</ele>
        <time>2023-08-03T12:17:09Z</time>
      </trkpt>
      <trkpt lat="44.89314" lon="5.69629">
        <ele>707.2</ele>
        <time>2023-08-03T12:17:12Z</time>
      </trkpt>
      <trkpt lat="44.89297" lon="5.69631">
        <ele>707.9</ele>
        <time>2023-08-03T12:17:15Z</time>
      </trkpt>
      <trkpt lat="44.89281" lon="5.69631">
        <ele>708.6</ele>
        <time>2023-08-03T12:17:18Z</time>
      </trkpt>
      <trkpt lat="44.8927" lon="5.69631">
        <ele>709</ele>
        <time>2023-08-03T12:17:20Z</time>
      </trkpt>
      <trkpt lat="44.89264" lon="5.69631">
        <ele>709.1</ele>
        <time>2023-08-03T12:17:21Z</time>
      </trkpt>
      <trkpt lat="44.89248" lon="5.69628">
        <ele>709.7</ele>
        <time>2023-08-03T12:17:24Z</time>
      </trkpt>
      <trkpt lat="44.89237" lon="5.69627">
        <ele>710</ele>
        <time>2023-08-03T12:17:26Z</time>
      </trkpt>
      <trkpt lat="44.8922" lon="5.69625">
        <ele>710.7</ele>
        <time>2023-08-03T12:17:29Z</time>
      </trkpt>
      <trkpt lat="44.8921" lon="5.69624">
        <ele>711.1</ele>
        <time>2023-08-03T12:17:31Z</time>
      </trkpt>
      <trkpt lat="44.892" lon="5.69624">
        <ele>711.6</ele>
        <time>2023-08-03T12:17:33Z</time>
      </trkpt>
      <trkpt lat="44.89189" lon="5.69625">
        <ele>712.1</ele>
        <time>2023-08-03T12:17:35Z</time>
      </trkpt>
      <trkpt lat="44.89175" lon="5.69625">
        <ele>712.9</ele>
        <time>2023-08-03T12:17:38Z</time>
      </trkpt>
      <trkpt lat="44.89171" lon="5.69626">
        <ele>713.2</ele>
        <time>2023-08-03T12:17:39Z</time>
      </trkpt>
      <trkpt lat="44.89167" lon="5.69627">
        <ele>713.4</ele>
        <time>2023-08-03T12:17:40Z</time>
      </trkpt>
      <trkpt lat="44.89155" lon="5.69632">
        <ele>714.1</ele>
        <time>2023-08-03T12:17:43Z</time>
      </trkpt>
      <trkpt lat="44.89148" lon="5.69637">
        <ele>714.6</ele>
        <time>2023-08-03T12:17:45Z</time>
      </trkpt>
      <trkpt lat="44.89143" lon="5.6964">
        <ele>714.8</ele>
        <time>2023-08-03T12:17:46Z</time>
      </trkpt>
      <trkpt lat="44.89135" lon="5.69644">
        <ele>715.3</ele>
        <time>2023-08-03T12:17:48Z</time>
      </trkpt>
      <trkpt lat="44.89121" lon="5.69652">
        <ele>715.9</ele>
        <time>2023-08-03T12:17:51Z</time>
      </trkpt>
      <trkpt lat="44.89116" lon="5.69653">
        <ele>716.1</ele>
        <time>2023-08-03T12:17:52Z</time>
      </trkpt>
      <trkpt lat="44.8911" lon="5.69653">
        <ele>716.4</ele>
        <time>2023-08-03T12:17:53Z</time>
      </trkpt>
      <trkpt lat="44.89106" lon="5.69653">
        <ele>716.5</ele>
        <time>2023-08-03T12:17:54Z</time>
      </trkpt>
      <trkpt lat="44.89101" lon="5.69651">
        <ele>716.7</ele>
        <time>2023-08-03T12:17:55Z</time>
      </trkpt>
      <trkpt lat="44.89096" lon="5.69649">
        <ele>716.9</ele>
        <time>2023-08-03T12:17:56Z</time>
      </trkpt>
      <trkpt lat="44.89086" lon="5.69643">
        <ele>717.4</ele>
        <time>2023-08-03T12:17:58Z</time>
      </trkpt>
      <trkpt lat="44.89074" lon="5.69636">
        <ele>718.1</ele>
        <time>2023-08-03T12:18:01Z</time>
      </trkpt>
      <trkpt lat="44.89061" lon="5.69628">
        <ele>719</ele>
        <time>2023-08-03T12:18:04Z</time>
      </trkpt>
      <trkpt lat="44.89049" lon="5.69622">
        <ele>719.8</ele>
        <time>2023-08-03T12:18:07Z</time>
      </trkpt>
      <trkpt lat="44.89046" lon="5.69621">
        <ele>720</ele>
        <time>2023-08-03T12:18:08Z</time>
      </trkpt>
      <trkpt lat="44.89037" lon="5.6962">
        <ele>720.7</ele>
        <time>2023-08-03T12:18:10Z</time>
      </trkpt>
      <trkpt lat="44.8903" lon="5.69619">
        <ele>721.2</ele>
        <time>2023-08-03T12:18:12Z</time>
      </trkpt>
      <trkpt lat="44.89022" lon="5.6962">
        <ele>721.7</ele>
        <time>2023-08-03T12:18:14Z</time>
      </trkpt>
      <trkpt lat="44.89014" lon="5.69622">
        <ele>722.3</ele>
        <time>2023-08-03T12:18:16Z</time>
      </trkpt>
      <trkpt lat="44.8901" lon="5.69623">
        <ele>722.6</ele>
        <time>2023-08-03T12:18:17Z</time>
      </trkpt>
      <trkpt lat="44.89006" lon="5.69625">
        <ele>722.9</ele>
        <time>2023-08-03T12:18:18Z</time>
      </trkpt>
      <trkpt lat="44.88998" lon="5.6963">
        <ele>723.4</ele>
        <time>2023-08-03T12:18:20Z</time>
      </trkpt>
      <trkpt lat="44.88995" lon="5.69632">
        <ele>723.5</ele>
        <time>2023-08-03T12:18:21Z</time>
      </trkpt>
      <trkpt lat="44.88992" lon="5.69636">
        <ele>723.7</ele>
        <time>2023-08-03T12:18:22Z</time>
      </trkpt>
      <trkpt lat="44.88986" lon="5.69643">
        <ele>724.1</ele>
        <time>2023-08-03T12:18:24Z</time>
      </trkpt>
      <trkpt lat="44.88983" lon="5.69646">
        <ele>724.3</ele>
        <time>2023-08-03T12:18:25Z</time>
      </trkpt>
      <trkpt lat="44.88977" lon="5.69654">
        <ele>724.7</ele>
        <time>2023-08-03T12:18:27Z</time>
      </trkpt>
      <trkpt lat="44.88971" lon="5.69664">
        <ele>725.1</ele>
        <time>2023-08-03T12:18:30Z</time>
      </trkpt>
      <trkpt lat="44.88968" lon="5.69668">
        <ele>725.3</ele>
        <time>2023-08-03T12:18:32Z</time>
      </trkpt>
      <trkpt lat="44.88967" lon="5.69668">
        <ele>725.3</ele>
        <time>2023-08-03T12:18:34Z</time>
      </trkpt>
      <trkpt lat="44.88967" lon="5.69671">
        <ele>725.4</ele>
        <time>2023-08-03T12:19:16Z</time>
      </trkpt>
      <trkpt lat="44.88959" lon="5.69687">
        <ele>725.7</ele>
        <time>2023-08-03T12:19:22Z</time>
      </trkpt>
      <trkpt lat="44.88957" lon="5.69692">
        <ele>725.8</ele>
        <time>2023-08-03T12:19:23Z</time>
      </trkpt>
      <trkpt lat="44.88949" lon="5.69714">
        <ele>726.1</ele>
        <time>2023-08-03T12:19:27Z</time>
      </trkpt>
      <trkpt lat="44.88938" lon="5.69744">
        <ele>726.4</ele>
        <time>2023-08-03T12:19:32Z</time>
      </trkpt>
      <trkpt lat="44.88936" lon="5.69751">
        <ele>726.5</ele>
        <time>2023-08-03T12:19:33Z</time>
      </trkpt>
      <trkpt lat="44.88926" lon="5.69777">
        <ele>726.9</ele>
        <time>2023-08-03T12:19:37Z</time>
      </trkpt>
      <trkpt lat="44.88922" lon="5.6979">
        <ele>727.1</ele>
        <time>2023-08-03T12:19:39Z</time>
      </trkpt>
      <trkpt lat="44.88916" lon="5.69804">
        <ele>727.3</ele>
        <time>2023-08-03T12:19:41Z</time>
      </trkpt>
      <trkpt lat="44.88907" lon="5.69831">
        <ele>727.8</ele>
        <time>2023-08-03T12:19:45Z</time>
      </trkpt>
      <trkpt lat="44.88905" lon="5.69838">
        <ele>728</ele>
        <time>2023-08-03T12:19:46Z</time>
      </trkpt>
      <trkpt lat="44.88886" lon="5.69883">
        <ele>728.8</ele>
        <time>2023-08-03T12:19:53Z</time>
      </trkpt>
      <trkpt lat="44.88876" lon="5.69902">
        <ele>729.1</ele>
        <time>2023-08-03T12:19:56Z</time>
      </trkpt>
      <trkpt lat="44.88865" lon="5.69918">
        <ele>729.3</ele>
        <time>2023-08-03T12:19:59Z</time>
      </trkpt>
      <trkpt lat="44.8886" lon="5.69922">
        <ele>729.3</ele>
        <time>2023-08-03T12:20:00Z</time>
      </trkpt>
      <trkpt lat="44.88851" lon="5.69932">
        <ele>729.4</ele>
        <time>2023-08-03T12:20:02Z</time>
      </trkpt>
      <trkpt lat="44.88812" lon="5.69958">
        <ele>729.3</ele>
        <time>2023-08-03T12:20:09Z</time>
      </trkpt>
      <trkpt lat="44.88774" lon="5.69984">
        <ele>729</ele>
        <time>2023-08-03T12:20:15Z</time>
      </trkpt>
      <trkpt lat="44.88738" lon="5.7">
        <ele>728.5</ele>
        <time>2023-08-03T12:20:20Z</time>
      </trkpt>
      <trkpt lat="44.88697" lon="5.7">
        <ele>727</ele>
        <time>2023-08-03T12:20:25Z</time>
      </trkpt>
      <trkpt lat="44.88642" lon="5.69997">
        <ele>724.6</ele>
        <time>2023-08-03T12:20:31Z</time>
      </trkpt>
      <trkpt lat="44.88609" lon="5.69995">
        <ele>723</ele>
        <time>2023-08-03T12:20:34Z</time>
      </trkpt>
      <trkpt lat="44.88579" lon="5.69994">
        <ele>721.6</ele>
        <time>2023-08-03T12:20:37Z</time>
      </trkpt>
      <trkpt lat="44.88544" lon="5.69994">
        <ele>720</ele>
        <time>2023-08-03T12:20:40Z</time>
      </trkpt>
      <trkpt lat="44.88533" lon="5.69998">
        <ele>719.4</ele>
        <time>2023-08-03T12:20:41Z</time>
      </trkpt>
      <trkpt lat="44.88522" lon="5.70004">
        <ele>718.7</ele>
        <time>2023-08-03T12:20:42Z</time>
      </trkpt>
      <trkpt lat="44.88503" lon="5.70023">
        <ele>717.2</ele>
        <time>2023-08-03T12:20:44Z</time>
      </trkpt>
      <trkpt lat="44.8848" lon="5.70064">
        <ele>715.1</ele>
        <time>2023-08-03T12:20:47Z</time>
      </trkpt>
      <trkpt lat="44.88468" lon="5.70095">
        <ele>714</ele>
        <time>2023-08-03T12:20:49Z</time>
      </trkpt>
      <trkpt lat="44.88451" lon="5.70143">
        <ele>713</ele>
        <time>2023-08-03T12:20:52Z</time>
      </trkpt>
      <trkpt lat="44.88438" lon="5.70172">
        <ele>712.9</ele>
        <time>2023-08-03T12:20:54Z</time>
      </trkpt>
      <trkpt lat="44.88429" lon="5.70184">
        <ele>712.8</ele>
        <time>2023-08-03T12:20:55Z</time>
      </trkpt>
      <trkpt lat="44.88418" lon="5.70192">
        <ele>712.7</ele>
        <time>2023-08-03T12:20:56Z</time>
      </trkpt>
      <trkpt lat="44.88397" lon="5.70204">
        <ele>712.1</ele>
        <time>2023-08-03T12:20:58Z</time>
      </trkpt>
      <trkpt lat="44.88344" lon="5.70233">
        <ele>709.5</ele>
        <time>2023-08-03T12:21:03Z</time>
      </trkpt>
      <trkpt lat="44.88333" lon="5.70241">
        <ele>709</ele>
        <time>2023-08-03T12:21:04Z</time>
      </trkpt>
      <trkpt lat="44.88295" lon="5.7028">
        <ele>706.8</ele>
        <time>2023-08-03T12:21:08Z</time>
      </trkpt>
      <trkpt lat="44.88287" lon="5.70292">
        <ele>706.2</ele>
        <time>2023-08-03T12:21:09Z</time>
      </trkpt>
      <trkpt lat="44.88282" lon="5.70306">
        <ele>705.5</ele>
        <time>2023-08-03T12:21:10Z</time>
      </trkpt>
      <trkpt lat="44.88279" lon="5.70322">
        <ele>704.8</ele>
        <time>2023-08-03T12:21:11Z</time>
      </trkpt>
      <trkpt lat="44.8828" lon="5.70339">
        <ele>704.1</ele>
        <time>2023-08-03T12:21:12Z</time>
      </trkpt>
      <trkpt lat="44.88282" lon="5.70355">
        <ele>703.4</ele>
        <time>2023-08-03T12:21:13Z</time>
      </trkpt>
      <trkpt lat="44.88285" lon="5.70384">
        <ele>702.1</ele>
        <time>2023-08-03T12:21:15Z</time>
      </trkpt>
      <trkpt lat="44.88283" lon="5.70402">
        <ele>701.4</ele>
        <time>2023-08-03T12:21:16Z</time>
      </trkpt>
      <trkpt lat="44.88277" lon="5.70416">
        <ele>700.8</ele>
        <time>2023-08-03T12:21:17Z</time>
      </trkpt>
      <trkpt lat="44.88269" lon="5.70427">
        <ele>700.4</ele>
        <time>2023-08-03T12:21:18Z</time>
      </trkpt>
      <trkpt lat="44.8826" lon="5.70437">
        <ele>699.9</ele>
        <time>2023-08-03T12:21:19Z</time>
      </trkpt>
      <trkpt lat="44.8824" lon="5.70453">
        <ele>699.2</ele>
        <time>2023-08-03T12:21:21Z</time>
      </trkpt>
      <trkpt lat="44.88229" lon="5.70458">
        <ele>699</ele>
        <time>2023-08-03T12:21:22Z</time>
      </trkpt>
      <trkpt lat="44.88208" lon="5.70463">
        <ele>698.5</ele>
        <time>2023-08-03T12:21:24Z</time>
      </trkpt>
      <trkpt lat="44.88197" lon="5.70463">
        <ele>698.3</ele>
        <time>2023-08-03T12:21:25Z</time>
      </trkpt>
      <trkpt lat="44.88155" lon="5.7046">
        <ele>697.8</ele>
        <time>2023-08-03T12:21:29Z</time>
      </trkpt>
      <trkpt lat="44.88135" lon="5.7045">
        <ele>697.5</ele>
        <time>2023-08-03T12:21:31Z</time>
      </trkpt>
      <trkpt lat="44.88126" lon="5.70442">
        <ele>697.5</ele>
        <time>2023-08-03T12:21:32Z</time>
      </trkpt>
      <trkpt lat="44.88079" lon="5.70407">
        <ele>697.3</ele>
        <time>2023-08-03T12:21:37Z</time>
      </trkpt>
      <trkpt lat="44.88031" lon="5.70384">
        <ele>695.8</ele>
        <time>2023-08-03T12:21:42Z</time>
      </trkpt>
      <trkpt lat="44.8801" lon="5.70377">
        <ele>695</ele>
        <time>2023-08-03T12:21:44Z</time>
      </trkpt>
      <trkpt lat="44.87988" lon="5.70376">
        <ele>694.3</ele>
        <time>2023-08-03T12:21:46Z</time>
      </trkpt>
      <trkpt lat="44.87943" lon="5.70387">
        <ele>692.5</ele>
        <time>2023-08-03T12:21:50Z</time>
      </trkpt>
      <trkpt lat="44.87887" lon="5.70407">
        <ele>690.1</ele>
        <time>2023-08-03T12:21:55Z</time>
      </trkpt>
      <trkpt lat="44.87875" lon="5.70411">
        <ele>689.6</ele>
        <time>2023-08-03T12:21:56Z</time>
      </trkpt>
      <trkpt lat="44.87838" lon="5.70424">
        <ele>688.3</ele>
        <time>2023-08-03T12:21:59Z</time>
      </trkpt>
      <trkpt lat="44.87777" lon="5.70445">
        <ele>685.6</ele>
        <time>2023-08-03T12:22:04Z</time>
      </trkpt>
      <trkpt lat="44.87765" lon="5.70451">
        <ele>685</ele>
        <time>2023-08-03T12:22:05Z</time>
      </trkpt>
      <trkpt lat="44.87718" lon="5.70479">
        <ele>682.4</ele>
        <time>2023-08-03T12:22:09Z</time>
      </trkpt>
      <trkpt lat="44.87699" lon="5.705">
        <ele>681.1</ele>
        <time>2023-08-03T12:22:11Z</time>
      </trkpt>
      <trkpt lat="44.87689" lon="5.70529">
        <ele>680</ele>
        <time>2023-08-03T12:22:13Z</time>
      </trkpt>
      <trkpt lat="44.87688" lon="5.70545">
        <ele>679.4</ele>
        <time>2023-08-03T12:22:14Z</time>
      </trkpt>
      <trkpt lat="44.87689" lon="5.70561">
        <ele>678.9</ele>
        <time>2023-08-03T12:22:15Z</time>
      </trkpt>
      <trkpt lat="44.87699" lon="5.70592">
        <ele>677.6</ele>
        <time>2023-08-03T12:22:17Z</time>
      </trkpt>
      <trkpt lat="44.87704" lon="5.70607">
        <ele>677</ele>
        <time>2023-08-03T12:22:18Z</time>
      </trkpt>
      <trkpt lat="44.87708" lon="5.70623">
        <ele>676.3</ele>
        <time>2023-08-03T12:22:19Z</time>
      </trkpt>
      <trkpt lat="44.87709" lon="5.70639">
        <ele>675.7</ele>
        <time>2023-08-03T12:22:20Z</time>
      </trkpt>
      <trkpt lat="44.87706" lon="5.70655">
        <ele>675.1</ele>
        <time>2023-08-03T12:22:21Z</time>
      </trkpt>
      <trkpt lat="44.87701" lon="5.7067">
        <ele>674.4</ele>
        <time>2023-08-03T12:22:22Z</time>
      </trkpt>
      <trkpt lat="44.87693" lon="5.70687">
        <ele>673.7</ele>
        <time>2023-08-03T12:22:23Z</time>
      </trkpt>
      <trkpt lat="44.87686" lon="5.707">
        <ele>673.1</ele>
        <time>2023-08-03T12:22:24Z</time>
      </trkpt>
      <trkpt lat="44.87681" lon="5.7071">
        <ele>672.7</ele>
        <time>2023-08-03T12:22:25Z</time>
      </trkpt>
      <trkpt lat="44.87678" lon="5.70728">
        <ele>672</ele>
        <time>2023-08-03T12:22:26Z</time>
      </trkpt>
      <trkpt lat="44.87677" lon="5.70744">
        <ele>671.4</ele>
        <time>2023-08-03T12:22:27Z</time>
      </trkpt>
      <trkpt lat="44.87678" lon="5.70777">
        <ele>670.2</ele>
        <time>2023-08-03T12:22:29Z</time>
      </trkpt>
      <trkpt lat="44.87677" lon="5.70795">
        <ele>669.6</ele>
        <time>2023-08-03T12:22:30Z</time>
      </trkpt>
      <trkpt lat="44.87675" lon="5.70811">
        <ele>669</ele>
        <time>2023-08-03T12:22:31Z</time>
      </trkpt>
      <trkpt lat="44.87671" lon="5.70824">
        <ele>668.5</ele>
        <time>2023-08-03T12:22:32Z</time>
      </trkpt>
      <trkpt lat="44.87657" lon="5.70857">
        <ele>667</ele>
        <time>2023-08-03T12:22:34Z</time>
      </trkpt>
      <trkpt lat="44.87649" lon="5.7087">
        <ele>666.4</ele>
        <time>2023-08-03T12:22:35Z</time>
      </trkpt>
      <trkpt lat="44.87621" lon="5.70907">
        <ele>664.5</ele>
        <time>2023-08-03T12:22:38Z</time>
      </trkpt>
      <trkpt lat="44.87612" lon="5.70915">
        <ele>664</ele>
        <time>2023-08-03T12:22:39Z</time>
      </trkpt>
      <trkpt lat="44.87599" lon="5.70923">
        <ele>663.3</ele>
        <time>2023-08-03T12:22:40Z</time>
      </trkpt>
      <trkpt lat="44.87584" lon="5.70931">
        <ele>662.5</ele>
        <time>2023-08-03T12:22:41Z</time>
      </trkpt>
      <trkpt lat="44.87559" lon="5.70945">
        <ele>661.1</ele>
        <time>2023-08-03T12:22:43Z</time>
      </trkpt>
      <trkpt lat="44.87511" lon="5.70971">
        <ele>658.6</ele>
        <time>2023-08-03T12:22:47Z</time>
      </trkpt>
      <trkpt lat="44.87498" lon="5.70977">
        <ele>658</ele>
        <time>2023-08-03T12:22:48Z</time>
      </trkpt>
      <trkpt lat="44.87464" lon="5.70997">
        <ele>656.6</ele>
        <time>2023-08-03T12:22:51Z</time>
      </trkpt>
      <trkpt lat="44.87429" lon="5.71017">
        <ele>655.7</ele>
        <time>2023-08-03T12:22:55Z</time>
      </trkpt>
      <trkpt lat="44.87422" lon="5.71021">
        <ele>655.6</ele>
        <time>2023-08-03T12:22:56Z</time>
      </trkpt>
      <trkpt lat="44.87414" lon="5.71029">
        <ele>655.6</ele>
        <time>2023-08-03T12:22:58Z</time>
      </trkpt>
      <trkpt lat="44.87409" lon="5.71036">
        <ele>655.4</ele>
        <time>2023-08-03T12:23:00Z</time>
      </trkpt>
      <trkpt lat="44.87408" lon="5.71038">
        <ele>655.3</ele>
        <time>2023-08-03T12:23:01Z</time>
      </trkpt>
      <trkpt lat="44.87406" lon="5.71041">
        <ele>655.2</ele>
        <time>2023-08-03T12:23:04Z</time>
      </trkpt>
      <trkpt lat="44.87407" lon="5.71043">
        <ele>655.2</ele>
        <time>2023-08-03T12:23:26Z</time>
      </trkpt>
      <trkpt lat="44.87406" lon="5.71049">
        <ele>655.1</ele>
        <time>2023-08-03T12:23:28Z</time>
      </trkpt>
      <trkpt lat="44.87405" lon="5.71058">
        <ele>654.8</ele>
        <time>2023-08-03T12:23:31Z</time>
      </trkpt>
      <trkpt lat="44.87404" lon="5.71061">
        <ele>654.8</ele>
        <time>2023-08-03T12:23:32Z</time>
      </trkpt>
      <trkpt lat="44.87403" lon="5.71072">
        <ele>654.5</ele>
        <time>2023-08-03T12:23:34Z</time>
      </trkpt>
      <trkpt lat="44.87402" lon="5.71085">
        <ele>654.2</ele>
        <time>2023-08-03T12:23:36Z</time>
      </trkpt>
      <trkpt lat="44.87402" lon="5.71092">
        <ele>654</ele>
        <time>2023-08-03T12:23:37Z</time>
      </trkpt>
      <trkpt lat="44.87402" lon="5.71108">
        <ele>653.8</ele>
        <time>2023-08-03T12:23:39Z</time>
      </trkpt>
      <trkpt lat="44.87402" lon="5.71116">
        <ele>653.6</ele>
        <time>2023-08-03T12:23:40Z</time>
      </trkpt>
      <trkpt lat="44.87401" lon="5.71125">
        <ele>653.5</ele>
        <time>2023-08-03T12:23:41Z</time>
      </trkpt>
      <trkpt lat="44.87399" lon="5.71134">
        <ele>653.4</ele>
        <time>2023-08-03T12:23:42Z</time>
      </trkpt>
      <trkpt lat="44.87395" lon="5.71154">
        <ele>653.1</ele>
        <time>2023-08-03T12:23:44Z</time>
      </trkpt>
      <trkpt lat="44.87391" lon="5.71172">
        <ele>652.8</ele>
        <time>2023-08-03T12:23:46Z</time>
      </trkpt>
      <trkpt lat="44.87387" lon="5.71184">
        <ele>652.7</ele>
        <time>2023-08-03T12:23:47Z</time>
      </trkpt>
      <trkpt lat="44.8738" lon="5.71204">
        <ele>652.6</ele>
        <time>2023-08-03T12:23:49Z</time>
      </trkpt>
      <trkpt lat="44.87373" lon="5.71224">
        <ele>652.4</ele>
        <time>2023-08-03T12:23:51Z</time>
      </trkpt>
      <trkpt lat="44.8737" lon="5.71233">
        <ele>652.4</ele>
        <time>2023-08-03T12:23:52Z</time>
      </trkpt>
      <trkpt lat="44.87367" lon="5.71244">
        <ele>652.4</ele>
        <time>2023-08-03T12:23:53Z</time>
      </trkpt>
      <trkpt lat="44.87365" lon="5.71254">
        <ele>652.4</ele>
        <time>2023-08-03T12:23:54Z</time>
      </trkpt>
      <trkpt lat="44.87361" lon="5.71276">
        <ele>652.6</ele>
        <time>2023-08-03T12:23:56Z</time>
      </trkpt>
      <trkpt lat="44.87359" lon="5.71286">
        <ele>652.7</ele>
        <time>2023-08-03T12:23:57Z</time>
      </trkpt>
      <trkpt lat="44.8735" lon="5.71317">
        <ele>653.2</ele>
        <time>2023-08-03T12:24:00Z</time>
      </trkpt>
      <trkpt lat="44.87346" lon="5.71326">
        <ele>653.4</ele>
        <time>2023-08-03T12:24:01Z</time>
      </trkpt>
      <trkpt lat="44.87339" lon="5.71344">
        <ele>653.9</ele>
        <time>2023-08-03T12:24:03Z</time>
      </trkpt>
      <trkpt lat="44.87326" lon="5.71379">
        <ele>654.2</ele>
        <time>2023-08-03T12:24:07Z</time>
      </trkpt>
      <trkpt lat="44.87324" lon="5.71386">
        <ele>654.2</ele>
        <time>2023-08-03T12:24:08Z</time>
      </trkpt>
      <trkpt lat="44.8732" lon="5.71406">
        <ele>654.5</ele>
        <time>2023-08-03T12:24:10Z</time>
      </trkpt>
      <trkpt lat="44.87318" lon="5.71423">
        <ele>654.9</ele>
        <time>2023-08-03T12:24:12Z</time>
      </trkpt>
      <trkpt lat="44.87318" lon="5.71433">
        <ele>655.1</ele>
        <time>2023-08-03T12:24:13Z</time>
      </trkpt>
      <trkpt lat="44.8732" lon="5.71489">
        <ele>656.8</ele>
        <time>2023-08-03T12:24:19Z</time>
      </trkpt>
      <trkpt lat="44.87322" lon="5.71497">
        <ele>657.1</ele>
        <time>2023-08-03T12:24:20Z</time>
      </trkpt>
      <trkpt lat="44.87327" lon="5.7152">
        <ele>657.9</ele>
        <time>2023-08-03T12:24:23Z</time>
      </trkpt>
      <trkpt lat="44.87329" lon="5.71527">
        <ele>658.1</ele>
        <time>2023-08-03T12:24:24Z</time>
      </trkpt>
      <trkpt lat="44.87333" lon="5.71541">
        <ele>658.6</ele>
        <time>2023-08-03T12:24:26Z</time>
      </trkpt>
      <trkpt lat="44.8734" lon="5.71565">
        <ele>659.3</ele>
        <time>2023-08-03T12:24:30Z</time>
      </trkpt>
      <trkpt lat="44.87342" lon="5.71572">
        <ele>659.4</ele>
        <time>2023-08-03T12:24:31Z</time>
      </trkpt>
      <trkpt lat="44.87349" lon="5.71598">
        <ele>660.5</ele>
        <time>2023-08-03T12:24:35Z</time>
      </trkpt>
      <trkpt lat="44.87355" lon="5.71623">
        <ele>661.5</ele>
        <time>2023-08-03T12:24:39Z</time>
      </trkpt>
      <trkpt lat="44.87357" lon="5.71636">
        <ele>662</ele>
        <time>2023-08-03T12:24:41Z</time>
      </trkpt>
      <trkpt lat="44.87357" lon="5.71642">
        <ele>662.2</ele>
        <time>2023-08-03T12:24:42Z</time>
      </trkpt>
      <trkpt lat="44.87357" lon="5.71649">
        <ele>662.4</ele>
        <time>2023-08-03T12:24:43Z</time>
      </trkpt>
      <trkpt lat="44.87356" lon="5.71662">
        <ele>662.9</ele>
        <time>2023-08-03T12:24:45Z</time>
      </trkpt>
      <trkpt lat="44.87352" lon="5.71681">
        <ele>663.6</ele>
        <time>2023-08-03T12:24:48Z</time>
      </trkpt>
      <trkpt lat="44.87345" lon="5.71706">
        <ele>664.6</ele>
        <time>2023-08-03T12:24:52Z</time>
      </trkpt>
      <trkpt lat="44.87343" lon="5.71712">
        <ele>664.8</ele>
        <time>2023-08-03T12:24:53Z</time>
      </trkpt>
      <trkpt lat="44.87334" lon="5.7175">
        <ele>666.2</ele>
        <time>2023-08-03T12:24:59Z</time>
      </trkpt>
      <trkpt lat="44.87332" lon="5.71764">
        <ele>666.7</ele>
        <time>2023-08-03T12:25:01Z</time>
      </trkpt>
      <trkpt lat="44.87329" lon="5.71777">
        <ele>667.2</ele>
        <time>2023-08-03T12:25:03Z</time>
      </trkpt>
      <trkpt lat="44.87328" lon="5.71783">
        <ele>667.4</ele>
        <time>2023-08-03T12:25:04Z</time>
      </trkpt>
      <trkpt lat="44.87327" lon="5.71796">
        <ele>667.9</ele>
        <time>2023-08-03T12:25:06Z</time>
      </trkpt>
      <trkpt lat="44.87327" lon="5.71807">
        <ele>668.3</ele>
        <time>2023-08-03T12:25:08Z</time>
      </trkpt>
      <trkpt lat="44.87332" lon="5.71832">
        <ele>669.2</ele>
        <time>2023-08-03T12:25:12Z</time>
      </trkpt>
      <trkpt lat="44.87337" lon="5.71849">
        <ele>669.8</ele>
        <time>2023-08-03T12:25:15Z</time>
      </trkpt>
      <trkpt lat="44.87339" lon="5.71855">
        <ele>670.1</ele>
        <time>2023-08-03T12:25:16Z</time>
      </trkpt>
      <trkpt lat="44.87348" lon="5.71879">
        <ele>670.9</ele>
        <time>2023-08-03T12:25:20Z</time>
      </trkpt>
      <trkpt lat="44.87356" lon="5.71897">
        <ele>671.6</ele>
        <time>2023-08-03T12:25:23Z</time>
      </trkpt>
      <trkpt lat="44.87358" lon="5.71903">
        <ele>671.8</ele>
        <time>2023-08-03T12:25:24Z</time>
      </trkpt>
      <trkpt lat="44.87366" lon="5.7192">
        <ele>672.4</ele>
        <time>2023-08-03T12:25:27Z</time>
      </trkpt>
      <trkpt lat="44.87373" lon="5.71935">
        <ele>673</ele>
        <time>2023-08-03T12:25:30Z</time>
      </trkpt>
      <trkpt lat="44.87381" lon="5.71953">
        <ele>673.4</ele>
        <time>2023-08-03T12:25:33Z</time>
      </trkpt>
      <trkpt lat="44.87388" lon="5.7197">
        <ele>673.8</ele>
        <time>2023-08-03T12:25:36Z</time>
      </trkpt>
      <trkpt lat="44.87399" lon="5.71999">
        <ele>674.5</ele>
        <time>2023-08-03T12:25:41Z</time>
      </trkpt>
      <trkpt lat="44.87401" lon="5.72005">
        <ele>674.8</ele>
        <time>2023-08-03T12:25:42Z</time>
      </trkpt>
      <trkpt lat="44.87406" lon="5.72025">
        <ele>675.7</ele>
        <time>2023-08-03T12:25:45Z</time>
      </trkpt>
      <trkpt lat="44.8741" lon="5.72053">
        <ele>676.9</ele>
        <time>2023-08-03T12:25:49Z</time>
      </trkpt>
      <trkpt lat="44.87411" lon="5.7206">
        <ele>677.2</ele>
        <time>2023-08-03T12:25:50Z</time>
      </trkpt>
      <trkpt lat="44.87416" lon="5.72087">
        <ele>678.3</ele>
        <time>2023-08-03T12:25:54Z</time>
      </trkpt>
      <trkpt lat="44.87421" lon="5.72113">
        <ele>679.2</ele>
        <time>2023-08-03T12:25:58Z</time>
      </trkpt>
      <trkpt lat="44.87423" lon="5.72125">
        <ele>679.7</ele>
        <time>2023-08-03T12:26:00Z</time>
      </trkpt>
      <trkpt lat="44.87425" lon="5.72157">
        <ele>680.4</ele>
        <time>2023-08-03T12:26:04Z</time>
      </trkpt>
      <trkpt lat="44.87425" lon="5.72164">
        <ele>680.6</ele>
        <time>2023-08-03T12:26:05Z</time>
      </trkpt>
      <trkpt lat="44.87424" lon="5.72171">
        <ele>680.8</ele>
        <time>2023-08-03T12:26:06Z</time>
      </trkpt>
      <trkpt lat="44.87423" lon="5.72177">
        <ele>681</ele>
        <time>2023-08-03T12:26:07Z</time>
      </trkpt>
      <trkpt lat="44.87422" lon="5.72184">
        <ele>681.2</ele>
        <time>2023-08-03T12:26:08Z</time>
      </trkpt>
      <trkpt lat="44.87419" lon="5.72203">
        <ele>681.8</ele>
        <time>2023-08-03T12:26:11Z</time>
      </trkpt>
      <trkpt lat="44.87419" lon="5.72208">
        <ele>682</ele>
        <time>2023-08-03T12:26:12Z</time>
      </trkpt>
      <trkpt lat="44.87415" lon="5.7223">
        <ele>682.6</ele>
        <time>2023-08-03T12:26:16Z</time>
      </trkpt>
      <trkpt lat="44.87412" lon="5.72247">
        <ele>683.2</ele>
        <time>2023-08-03T12:26:19Z</time>
      </trkpt>
      <trkpt lat="44.87407" lon="5.72263">
        <ele>683.7</ele>
        <time>2023-08-03T12:26:22Z</time>
      </trkpt>
      <trkpt lat="44.87405" lon="5.72268">
        <ele>683.9</ele>
        <time>2023-08-03T12:26:23Z</time>
      </trkpt>
      <trkpt lat="44.87399" lon="5.72277">
        <ele>684.2</ele>
        <time>2023-08-03T12:26:25Z</time>
      </trkpt>
      <trkpt lat="44.87393" lon="5.72288">
        <ele>684.7</ele>
        <time>2023-08-03T12:26:27Z</time>
      </trkpt>
      <trkpt lat="44.87387" lon="5.72298">
        <ele>685.1</ele>
        <time>2023-08-03T12:26:29Z</time>
      </trkpt>
      <trkpt lat="44.87378" lon="5.72313">
        <ele>685.8</ele>
        <time>2023-08-03T12:26:32Z</time>
      </trkpt>
      <trkpt lat="44.87374" lon="5.72318">
        <ele>686.1</ele>
        <time>2023-08-03T12:26:33Z</time>
      </trkpt>
      <trkpt lat="44.87356" lon="5.72347">
        <ele>687.5</ele>
        <time>2023-08-03T12:26:39Z</time>
      </trkpt>
      <trkpt lat="44.87354" lon="5.72353">
        <ele>687.7</ele>
        <time>2023-08-03T12:26:40Z</time>
      </trkpt>
      <trkpt lat="44.87353" lon="5.72359">
        <ele>687.9</ele>
        <time>2023-08-03T12:26:41Z</time>
      </trkpt>
      <trkpt lat="44.87351" lon="5.72371">
        <ele>688.3</ele>
        <time>2023-08-03T12:26:43Z</time>
      </trkpt>
      <trkpt lat="44.87351" lon="5.72385">
        <ele>688.7</ele>
        <time>2023-08-03T12:26:45Z</time>
      </trkpt>
      <trkpt lat="44.87355" lon="5.72426">
        <ele>689.9</ele>
        <time>2023-08-03T12:26:51Z</time>
      </trkpt>
      <trkpt lat="44.87356" lon="5.72432">
        <ele>690.1</ele>
        <time>2023-08-03T12:26:52Z</time>
      </trkpt>
      <trkpt lat="44.87358" lon="5.72438">
        <ele>690.2</ele>
        <time>2023-08-03T12:26:53Z</time>
      </trkpt>
      <trkpt lat="44.87361" lon="5.72444">
        <ele>690.4</ele>
        <time>2023-08-03T12:26:54Z</time>
      </trkpt>
      <trkpt lat="44.87368" lon="5.72454">
        <ele>690.8</ele>
        <time>2023-08-03T12:26:56Z</time>
      </trkpt>
      <trkpt lat="44.87372" lon="5.72458">
        <ele>690.9</ele>
        <time>2023-08-03T12:26:57Z</time>
      </trkpt>
      <trkpt lat="44.87376" lon="5.72461">
        <ele>691.1</ele>
        <time>2023-08-03T12:26:58Z</time>
      </trkpt>
      <trkpt lat="44.87381" lon="5.72463">
        <ele>691.3</ele>
        <time>2023-08-03T12:26:59Z</time>
      </trkpt>
      <trkpt lat="44.87385" lon="5.72464">
        <ele>691.4</ele>
        <time>2023-08-03T12:27:00Z</time>
      </trkpt>
      <trkpt lat="44.87391" lon="5.72465">
        <ele>691.5</ele>
        <time>2023-08-03T12:27:01Z</time>
      </trkpt>
      <trkpt lat="44.87411" lon="5.72469">
        <ele>691.7</ele>
        <time>2023-08-03T12:27:05Z</time>
      </trkpt>
      <trkpt lat="44.87422" lon="5.72475">
        <ele>691.9</ele>
        <time>2023-08-03T12:27:07Z</time>
      </trkpt>
      <trkpt lat="44.8743" lon="5.72485">
        <ele>692.1</ele>
        <time>2023-08-03T12:27:09Z</time>
      </trkpt>
      <trkpt lat="44.87436" lon="5.72498">
        <ele>692.4</ele>
        <time>2023-08-03T12:27:11Z</time>
      </trkpt>
      <trkpt lat="44.87467" lon="5.72568">
        <ele>693.4</ele>
        <time>2023-08-03T12:27:22Z</time>
      </trkpt>
      <trkpt lat="44.87474" lon="5.72581">
        <ele>693.7</ele>
        <time>2023-08-03T12:27:24Z</time>
      </trkpt>
      <trkpt lat="44.875" lon="5.72636">
        <ele>694.4</ele>
        <time>2023-08-03T12:27:32Z</time>
      </trkpt>
      <trkpt lat="44.87522" lon="5.72685">
        <ele>694</ele>
        <time>2023-08-03T12:27:38Z</time>
      </trkpt>
      <trkpt lat="44.87525" lon="5.72694">
        <ele>694</ele>
        <time>2023-08-03T12:27:39Z</time>
      </trkpt>
      <trkpt lat="44.87529" lon="5.72714">
        <ele>694.2</ele>
        <time>2023-08-03T12:27:41Z</time>
      </trkpt>
      <trkpt lat="44.8753" lon="5.72725">
        <ele>694.3</ele>
        <time>2023-08-03T12:27:42Z</time>
      </trkpt>
      <trkpt lat="44.87529" lon="5.72735">
        <ele>694.5</ele>
        <time>2023-08-03T12:27:43Z</time>
      </trkpt>
      <trkpt lat="44.87524" lon="5.72754">
        <ele>694.7</ele>
        <time>2023-08-03T12:27:45Z</time>
      </trkpt>
      <trkpt lat="44.87516" lon="5.7277">
        <ele>694.7</ele>
        <time>2023-08-03T12:27:47Z</time>
      </trkpt>
      <trkpt lat="44.87506" lon="5.72785">
        <ele>694.6</ele>
        <time>2023-08-03T12:27:49Z</time>
      </trkpt>
      <trkpt lat="44.87465" lon="5.72843">
        <ele>693.9</ele>
        <time>2023-08-03T12:27:57Z</time>
      </trkpt>
      <trkpt lat="44.87455" lon="5.72859">
        <ele>693.8</ele>
        <time>2023-08-03T12:27:59Z</time>
      </trkpt>
      <trkpt lat="44.87421" lon="5.72916">
        <ele>693.4</ele>
        <time>2023-08-03T12:28:06Z</time>
      </trkpt>
      <trkpt lat="44.87418" lon="5.72934">
        <ele>693.3</ele>
        <time>2023-08-03T12:28:08Z</time>
      </trkpt>
      <trkpt lat="44.87421" lon="5.72944">
        <ele>693.1</ele>
        <time>2023-08-03T12:28:09Z</time>
      </trkpt>
      <trkpt lat="44.87425" lon="5.72951">
        <ele>692.9</ele>
        <time>2023-08-03T12:28:10Z</time>
      </trkpt>
      <trkpt lat="44.87436" lon="5.72963">
        <ele>692.6</ele>
        <time>2023-08-03T12:28:12Z</time>
      </trkpt>
      <trkpt lat="44.87478" lon="5.72989">
        <ele>691.9</ele>
        <time>2023-08-03T12:28:18Z</time>
      </trkpt>
      <trkpt lat="44.87492" lon="5.72996">
        <ele>691.6</ele>
        <time>2023-08-03T12:28:20Z</time>
      </trkpt>
      <trkpt lat="44.87508" lon="5.72999">
        <ele>691.2</ele>
        <time>2023-08-03T12:28:22Z</time>
      </trkpt>
      <trkpt lat="44.87516" lon="5.72999">
        <ele>691.1</ele>
        <time>2023-08-03T12:28:23Z</time>
      </trkpt>
      <trkpt lat="44.87572" lon="5.72986">
        <ele>690.2</ele>
        <time>2023-08-03T12:28:30Z</time>
      </trkpt>
      <trkpt lat="44.87605" lon="5.72978">
        <ele>689.6</ele>
        <time>2023-08-03T12:28:34Z</time>
      </trkpt>
      <trkpt lat="44.87645" lon="5.72967">
        <ele>688.9</ele>
        <time>2023-08-03T12:28:39Z</time>
      </trkpt>
      <trkpt lat="44.87653" lon="5.72965">
        <ele>688.7</ele>
        <time>2023-08-03T12:28:40Z</time>
      </trkpt>
      <trkpt lat="44.8767" lon="5.72964">
        <ele>688.4</ele>
        <time>2023-08-03T12:28:42Z</time>
      </trkpt>
      <trkpt lat="44.87678" lon="5.72966">
        <ele>688.3</ele>
        <time>2023-08-03T12:28:43Z</time>
      </trkpt>
      <trkpt lat="44.87687" lon="5.72966">
        <ele>688.2</ele>
        <time>2023-08-03T12:28:44Z</time>
      </trkpt>
      <trkpt lat="44.87712" lon="5.72964">
        <ele>687.7</ele>
        <time>2023-08-03T12:28:47Z</time>
      </trkpt>
      <trkpt lat="44.87763" lon="5.72967">
        <ele>686.9</ele>
        <time>2023-08-03T12:28:53Z</time>
      </trkpt>
      <trkpt lat="44.87812" lon="5.72979">
        <ele>686.3</ele>
        <time>2023-08-03T12:28:59Z</time>
      </trkpt>
      <trkpt lat="44.8782" lon="5.72981">
        <ele>686.2</ele>
        <time>2023-08-03T12:29:00Z</time>
      </trkpt>
      <trkpt lat="44.87844" lon="5.72989">
        <ele>686.3</ele>
        <time>2023-08-03T12:29:03Z</time>
      </trkpt>
      <trkpt lat="44.87858" lon="5.73">
        <ele>686.5</ele>
        <time>2023-08-03T12:29:05Z</time>
      </trkpt>
      <trkpt lat="44.87866" lon="5.73015">
        <ele>686.7</ele>
        <time>2023-08-03T12:29:07Z</time>
      </trkpt>
      <trkpt lat="44.87865" lon="5.73023">
        <ele>686.6</ele>
        <time>2023-08-03T12:29:08Z</time>
      </trkpt>
      <trkpt lat="44.87861" lon="5.73031">
        <ele>686.6</ele>
        <time>2023-08-03T12:29:09Z</time>
      </trkpt>
      <trkpt lat="44.87856" lon="5.73039">
        <ele>686.6</ele>
        <time>2023-08-03T12:29:10Z</time>
      </trkpt>
      <trkpt lat="44.87843" lon="5.73052">
        <ele>686.6</ele>
        <time>2023-08-03T12:29:12Z</time>
      </trkpt>
      <trkpt lat="44.87829" lon="5.7306">
        <ele>686.6</ele>
        <time>2023-08-03T12:29:14Z</time>
      </trkpt>
      <trkpt lat="44.878" lon="5.73064">
        <ele>686.6</ele>
        <time>2023-08-03T12:29:18Z</time>
      </trkpt>
      <trkpt lat="44.87783" lon="5.73065">
        <ele>686.7</ele>
        <time>2023-08-03T12:29:20Z</time>
      </trkpt>
      <trkpt lat="44.87776" lon="5.73067">
        <ele>686.7</ele>
        <time>2023-08-03T12:29:21Z</time>
      </trkpt>
      <trkpt lat="44.87762" lon="5.73074">
        <ele>686.8</ele>
        <time>2023-08-03T12:29:23Z</time>
      </trkpt>
      <trkpt lat="44.87756" lon="5.73079">
        <ele>686.8</ele>
        <time>2023-08-03T12:29:24Z</time>
      </trkpt>
      <trkpt lat="44.87751" lon="5.73086">
        <ele>686.8</ele>
        <time>2023-08-03T12:29:25Z</time>
      </trkpt>
      <trkpt lat="44.87736" lon="5.73108">
        <ele>686.9</ele>
        <time>2023-08-03T12:29:28Z</time>
      </trkpt>
      <trkpt lat="44.87727" lon="5.73124">
        <ele>687</ele>
        <time>2023-08-03T12:29:30Z</time>
      </trkpt>
      <trkpt lat="44.877" lon="5.73168">
        <ele>687.4</ele>
        <time>2023-08-03T12:29:36Z</time>
      </trkpt>
      <trkpt lat="44.87696" lon="5.73187">
        <ele>687.5</ele>
        <time>2023-08-03T12:29:38Z</time>
      </trkpt>
      <trkpt lat="44.87696" lon="5.73194">
        <ele>687.5</ele>
        <time>2023-08-03T12:29:39Z</time>
      </trkpt>
      <trkpt lat="44.87697" lon="5.73224">
        <ele>687.6</ele>
        <time>2023-08-03T12:29:42Z</time>
      </trkpt>
      <trkpt lat="44.87695" lon="5.73266">
        <ele>687.7</ele>
        <time>2023-08-03T12:29:46Z</time>
      </trkpt>
      <trkpt lat="44.8769" lon="5.73286">
        <ele>687.8</ele>
        <time>2023-08-03T12:29:48Z</time>
      </trkpt>
      <trkpt lat="44.87683" lon="5.73304">
        <ele>687.8</ele>
        <time>2023-08-03T12:29:50Z</time>
      </trkpt>
      <trkpt lat="44.8768" lon="5.73321">
        <ele>687.8</ele>
        <time>2023-08-03T12:29:52Z</time>
      </trkpt>
      <trkpt lat="44.8768" lon="5.73341">
        <ele>687.8</ele>
        <time>2023-08-03T12:29:54Z</time>
      </trkpt>
      <trkpt lat="44.8768" lon="5.73361">
        <ele>687.8</ele>
        <time>2023-08-03T12:29:56Z</time>
      </trkpt>
      <trkpt lat="44.87674" lon="5.73382">
        <ele>687.8</ele>
        <time>2023-08-03T12:29:58Z</time>
      </trkpt>
      <trkpt lat="44.87664" lon="5.73395">
        <ele>687.8</ele>
        <time>2023-08-03T12:30:00Z</time>
      </trkpt>
      <trkpt lat="44.87657" lon="5.734">
        <ele>687.8</ele>
        <time>2023-08-03T12:30:01Z</time>
      </trkpt>
      <trkpt lat="44.87644" lon="5.73411">
        <ele>687.9</ele>
        <time>2023-08-03T12:30:03Z</time>
      </trkpt>
      <trkpt lat="44.87635" lon="5.73427">
        <ele>687.9</ele>
        <time>2023-08-03T12:30:05Z</time>
      </trkpt>
      <trkpt lat="44.87627" lon="5.73465">
        <ele>688.2</ele>
        <time>2023-08-03T12:30:09Z</time>
      </trkpt>
      <trkpt lat="44.87622" lon="5.73486">
        <ele>688.6</ele>
        <time>2023-08-03T12:30:11Z</time>
      </trkpt>
      <trkpt lat="44.87614" lon="5.73503">
        <ele>689</ele>
        <time>2023-08-03T12:30:13Z</time>
      </trkpt>
      <trkpt lat="44.87603" lon="5.73513">
        <ele>689.5</ele>
        <time>2023-08-03T12:30:15Z</time>
      </trkpt>
      <trkpt lat="44.87598" lon="5.73515">
        <ele>689.7</ele>
        <time>2023-08-03T12:30:16Z</time>
      </trkpt>
      <trkpt lat="44.87592" lon="5.73515">
        <ele>689.9</ele>
        <time>2023-08-03T12:30:17Z</time>
      </trkpt>
      <trkpt lat="44.87579" lon="5.73508">
        <ele>690.4</ele>
        <time>2023-08-03T12:30:19Z</time>
      </trkpt>
      <trkpt lat="44.87571" lon="5.73498">
        <ele>690.8</ele>
        <time>2023-08-03T12:30:21Z</time>
      </trkpt>
      <trkpt lat="44.87564" lon="5.73487">
        <ele>691.2</ele>
        <time>2023-08-03T12:30:23Z</time>
      </trkpt>
      <trkpt lat="44.87553" lon="5.73464">
        <ele>692.1</ele>
        <time>2023-08-03T12:30:27Z</time>
      </trkpt>
      <trkpt lat="44.8755" lon="5.73461">
        <ele>692.2</ele>
        <time>2023-08-03T12:30:28Z</time>
      </trkpt>
      <trkpt lat="44.87546" lon="5.73456">
        <ele>692.4</ele>
        <time>2023-08-03T12:30:29Z</time>
      </trkpt>
      <trkpt lat="44.87532" lon="5.73445">
        <ele>692.9</ele>
        <time>2023-08-03T12:30:32Z</time>
      </trkpt>
      <trkpt lat="44.87516" lon="5.73441">
        <ele>693.3</ele>
        <time>2023-08-03T12:30:35Z</time>
      </trkpt>
      <trkpt lat="44.87509" lon="5.73443">
        <ele>693.4</ele>
        <time>2023-08-03T12:30:36Z</time>
      </trkpt>
      <trkpt lat="44.87497" lon="5.73446">
        <ele>693.6</ele>
        <time>2023-08-03T12:30:38Z</time>
      </trkpt>
      <trkpt lat="44.87486" lon="5.73451">
        <ele>693.8</ele>
        <time>2023-08-03T12:30:40Z</time>
      </trkpt>
      <trkpt lat="44.87479" lon="5.73456">
        <ele>693.8</ele>
        <time>2023-08-03T12:30:41Z</time>
      </trkpt>
      <trkpt lat="44.87442" lon="5.73491">
        <ele>694.7</ele>
        <time>2023-08-03T12:30:48Z</time>
      </trkpt>
      <trkpt lat="44.87404" lon="5.73532">
        <ele>695.6</ele>
        <time>2023-08-03T12:30:56Z</time>
      </trkpt>
      <trkpt lat="44.87358" lon="5.73581">
        <ele>696.8</ele>
        <time>2023-08-03T12:31:05Z</time>
      </trkpt>
      <trkpt lat="44.87346" lon="5.73597">
        <ele>697.3</ele>
        <time>2023-08-03T12:31:08Z</time>
      </trkpt>
      <trkpt lat="44.87337" lon="5.73607">
        <ele>697.7</ele>
        <time>2023-08-03T12:31:10Z</time>
      </trkpt>
      <trkpt lat="44.87311" lon="5.73646">
        <ele>698.3</ele>
        <time>2023-08-03T12:31:17Z</time>
      </trkpt>
      <trkpt lat="44.873" lon="5.73681">
        <ele>699.4</ele>
        <time>2023-08-03T12:31:23Z</time>
      </trkpt>
      <trkpt lat="44.87296" lon="5.73699">
        <ele>700</ele>
        <time>2023-08-03T12:31:26Z</time>
      </trkpt>
      <trkpt lat="44.87293" lon="5.73724">
        <ele>700.9</ele>
        <time>2023-08-03T12:31:30Z</time>
      </trkpt>
      <trkpt lat="44.87286" lon="5.7379">
        <ele>703.3</ele>
        <time>2023-08-03T12:31:40Z</time>
      </trkpt>
      <trkpt lat="44.87284" lon="5.73804">
        <ele>703.7</ele>
        <time>2023-08-03T12:31:42Z</time>
      </trkpt>
      <trkpt lat="44.87282" lon="5.73823">
        <ele>704.4</ele>
        <time>2023-08-03T12:31:45Z</time>
      </trkpt>
      <trkpt lat="44.87279" lon="5.73849">
        <ele>705.4</ele>
        <time>2023-08-03T12:31:49Z</time>
      </trkpt>
      <trkpt lat="44.87275" lon="5.73887">
        <ele>706.9</ele>
        <time>2023-08-03T12:31:55Z</time>
      </trkpt>
      <trkpt lat="44.87274" lon="5.73893">
        <ele>707.1</ele>
        <time>2023-08-03T12:31:56Z</time>
      </trkpt>
      <trkpt lat="44.87274" lon="5.73899">
        <ele>707.4</ele>
        <time>2023-08-03T12:31:57Z</time>
      </trkpt>
      <trkpt lat="44.87274" lon="5.73905">
        <ele>707.6</ele>
        <time>2023-08-03T12:31:58Z</time>
      </trkpt>
      <trkpt lat="44.87272" lon="5.73923">
        <ele>708.3</ele>
        <time>2023-08-03T12:32:01Z</time>
      </trkpt>
      <trkpt lat="44.8727" lon="5.73942">
        <ele>709</ele>
        <time>2023-08-03T12:32:04Z</time>
      </trkpt>
      <trkpt lat="44.8727" lon="5.73953">
        <ele>709.5</ele>
        <time>2023-08-03T12:32:06Z</time>
      </trkpt>
      <trkpt lat="44.87269" lon="5.73959">
        <ele>709.7</ele>
        <time>2023-08-03T12:32:07Z</time>
      </trkpt>
      <trkpt lat="44.87269" lon="5.73964">
        <ele>709.9</ele>
        <time>2023-08-03T12:32:08Z</time>
      </trkpt>
      <trkpt lat="44.87269" lon="5.73993">
        <ele>711</ele>
        <time>2023-08-03T12:32:13Z</time>
      </trkpt>
      <trkpt lat="44.87271" lon="5.74016">
        <ele>711.9</ele>
        <time>2023-08-03T12:32:17Z</time>
      </trkpt>
      <trkpt lat="44.87271" lon="5.74028">
        <ele>712.3</ele>
        <time>2023-08-03T12:32:19Z</time>
      </trkpt>
      <trkpt lat="44.87273" lon="5.74045">
        <ele>713</ele>
        <time>2023-08-03T12:32:22Z</time>
      </trkpt>
      <trkpt lat="44.87274" lon="5.74067">
        <ele>713.8</ele>
        <time>2023-08-03T12:32:26Z</time>
      </trkpt>
      <trkpt lat="44.87278" lon="5.74127">
        <ele>715.8</ele>
        <time>2023-08-03T12:32:35Z</time>
      </trkpt>
      <trkpt lat="44.8728" lon="5.74164">
        <ele>717.4</ele>
        <time>2023-08-03T12:32:41Z</time>
      </trkpt>
      <trkpt lat="44.8728" lon="5.7417">
        <ele>717.7</ele>
        <time>2023-08-03T12:32:42Z</time>
      </trkpt>
      <trkpt lat="44.87281" lon="5.74176">
        <ele>717.9</ele>
        <time>2023-08-03T12:32:43Z</time>
      </trkpt>
      <trkpt lat="44.87286" lon="5.74197">
        <ele>718.9</ele>
        <time>2023-08-03T12:32:47Z</time>
      </trkpt>
      <trkpt lat="44.87288" lon="5.74202">
        <ele>719.1</ele>
        <time>2023-08-03T12:32:48Z</time>
      </trkpt>
      <trkpt lat="44.87296" lon="5.74216">
        <ele>719.8</ele>
        <time>2023-08-03T12:32:51Z</time>
      </trkpt>
      <trkpt lat="44.87305" lon="5.74228">
        <ele>720.5</ele>
        <time>2023-08-03T12:32:54Z</time>
      </trkpt>
      <trkpt lat="44.87315" lon="5.7424">
        <ele>721.2</ele>
        <time>2023-08-03T12:32:57Z</time>
      </trkpt>
      <trkpt lat="44.87319" lon="5.74244">
        <ele>721.4</ele>
        <time>2023-08-03T12:32:58Z</time>
      </trkpt>
      <trkpt lat="44.87323" lon="5.74248">
        <ele>721.7</ele>
        <time>2023-08-03T12:32:59Z</time>
      </trkpt>
      <trkpt lat="44.8733" lon="5.74256">
        <ele>722.2</ele>
        <time>2023-08-03T12:33:01Z</time>
      </trkpt>
      <trkpt lat="44.87341" lon="5.74268">
        <ele>722.9</ele>
        <time>2023-08-03T12:33:04Z</time>
      </trkpt>
      <trkpt lat="44.87347" lon="5.74274">
        <ele>723.3</ele>
        <time>2023-08-03T12:33:06Z</time>
      </trkpt>
      <trkpt lat="44.87355" lon="5.74281">
        <ele>723.9</ele>
        <time>2023-08-03T12:33:08Z</time>
      </trkpt>
      <trkpt lat="44.87366" lon="5.74287">
        <ele>724.6</ele>
        <time>2023-08-03T12:33:11Z</time>
      </trkpt>
      <trkpt lat="44.87373" lon="5.74289">
        <ele>725.1</ele>
        <time>2023-08-03T12:33:13Z</time>
      </trkpt>
      <trkpt lat="44.87384" lon="5.7429">
        <ele>725.8</ele>
        <time>2023-08-03T12:33:16Z</time>
      </trkpt>
      <trkpt lat="44.87388" lon="5.74291">
        <ele>726.1</ele>
        <time>2023-08-03T12:33:17Z</time>
      </trkpt>
      <trkpt lat="44.87395" lon="5.74292">
        <ele>726.5</ele>
        <time>2023-08-03T12:33:19Z</time>
      </trkpt>
      <trkpt lat="44.87399" lon="5.74294">
        <ele>726.8</ele>
        <time>2023-08-03T12:33:20Z</time>
      </trkpt>
      <trkpt lat="44.87409" lon="5.74303">
        <ele>727.5</ele>
        <time>2023-08-03T12:33:23Z</time>
      </trkpt>
      <trkpt lat="44.87422" lon="5.74335">
        <ele>728.8</ele>
        <time>2023-08-03T12:33:30Z</time>
      </trkpt>
      <trkpt lat="44.87415" lon="5.74367">
        <ele>730</ele>
        <time>2023-08-03T12:33:36Z</time>
      </trkpt>
      <trkpt lat="44.87399" lon="5.74401">
        <ele>731.5</ele>
        <time>2023-08-03T12:33:43Z</time>
      </trkpt>
      <trkpt lat="44.87396" lon="5.74405">
        <ele>731.7</ele>
        <time>2023-08-03T12:33:44Z</time>
      </trkpt>
      <trkpt lat="44.87373" lon="5.74448">
        <ele>733.7</ele>
        <time>2023-08-03T12:33:53Z</time>
      </trkpt>
      <trkpt lat="44.87366" lon="5.7447">
        <ele>734.5</ele>
        <time>2023-08-03T12:33:57Z</time>
      </trkpt>
      <trkpt lat="44.87366" lon="5.74481">
        <ele>734.9</ele>
        <time>2023-08-03T12:33:59Z</time>
      </trkpt>
      <trkpt lat="44.87366" lon="5.74487">
        <ele>735.2</ele>
        <time>2023-08-03T12:34:00Z</time>
      </trkpt>
      <trkpt lat="44.87368" lon="5.74524">
        <ele>736.4</ele>
        <time>2023-08-03T12:34:06Z</time>
      </trkpt>
      <trkpt lat="44.8737" lon="5.74547">
        <ele>737.3</ele>
        <time>2023-08-03T12:34:10Z</time>
      </trkpt>
      <trkpt lat="44.87376" lon="5.74577">
        <ele>738.3</ele>
        <time>2023-08-03T12:34:15Z</time>
      </trkpt>
      <trkpt lat="44.87377" lon="5.74583">
        <ele>738.5</ele>
        <time>2023-08-03T12:34:16Z</time>
      </trkpt>
      <trkpt lat="44.87387" lon="5.74619">
        <ele>739.8</ele>
        <time>2023-08-03T12:34:22Z</time>
      </trkpt>
      <trkpt lat="44.87393" lon="5.74649">
        <ele>740.9</ele>
        <time>2023-08-03T12:34:27Z</time>
      </trkpt>
      <trkpt lat="44.87402" lon="5.74676">
        <ele>741.9</ele>
        <time>2023-08-03T12:34:32Z</time>
      </trkpt>
      <trkpt lat="44.87407" lon="5.74693">
        <ele>742.5</ele>
        <time>2023-08-03T12:34:35Z</time>
      </trkpt>
      <trkpt lat="44.87411" lon="5.74711">
        <ele>743.2</ele>
        <time>2023-08-03T12:34:38Z</time>
      </trkpt>
      <trkpt lat="44.87413" lon="5.74722">
        <ele>743.7</ele>
        <time>2023-08-03T12:34:40Z</time>
      </trkpt>
      <trkpt lat="44.87413" lon="5.74733">
        <ele>744.2</ele>
        <time>2023-08-03T12:34:42Z</time>
      </trkpt>
      <trkpt lat="44.8741" lon="5.74757">
        <ele>745.3</ele>
        <time>2023-08-03T12:34:47Z</time>
      </trkpt>
      <trkpt lat="44.87406" lon="5.74786">
        <ele>746.6</ele>
        <time>2023-08-03T12:34:53Z</time>
      </trkpt>
      <trkpt lat="44.87404" lon="5.74791">
        <ele>746.8</ele>
        <time>2023-08-03T12:34:54Z</time>
      </trkpt>
      <trkpt lat="44.87401" lon="5.74808">
        <ele>747.6</ele>
        <time>2023-08-03T12:34:57Z</time>
      </trkpt>
      <trkpt lat="44.874" lon="5.74813">
        <ele>747.8</ele>
        <time>2023-08-03T12:34:58Z</time>
      </trkpt>
      <trkpt lat="44.87395" lon="5.74853">
        <ele>749.4</ele>
        <time>2023-08-03T12:35:05Z</time>
      </trkpt>
      <trkpt lat="44.87396" lon="5.74859">
        <ele>749.6</ele>
        <time>2023-08-03T12:35:06Z</time>
      </trkpt>
      <trkpt lat="44.87396" lon="5.74865">
        <ele>749.8</ele>
        <time>2023-08-03T12:35:07Z</time>
      </trkpt>
      <trkpt lat="44.87402" lon="5.74887">
        <ele>750.7</ele>
        <time>2023-08-03T12:35:11Z</time>
      </trkpt>
      <trkpt lat="44.87404" lon="5.74892">
        <ele>750.9</ele>
        <time>2023-08-03T12:35:12Z</time>
      </trkpt>
      <trkpt lat="44.87406" lon="5.74897">
        <ele>751.1</ele>
        <time>2023-08-03T12:35:13Z</time>
      </trkpt>
      <trkpt lat="44.87412" lon="5.74906">
        <ele>751.5</ele>
        <time>2023-08-03T12:35:15Z</time>
      </trkpt>
      <trkpt lat="44.87421" lon="5.74918">
        <ele>752.1</ele>
        <time>2023-08-03T12:35:18Z</time>
      </trkpt>
      <trkpt lat="44.87424" lon="5.74922">
        <ele>752.3</ele>
        <time>2023-08-03T12:35:19Z</time>
      </trkpt>
      <trkpt lat="44.87431" lon="5.7493">
        <ele>752.6</ele>
        <time>2023-08-03T12:35:21Z</time>
      </trkpt>
      <trkpt lat="44.87444" lon="5.74945">
        <ele>753.4</ele>
        <time>2023-08-03T12:35:25Z</time>
      </trkpt>
      <trkpt lat="44.87447" lon="5.74949">
        <ele>753.6</ele>
        <time>2023-08-03T12:35:26Z</time>
      </trkpt>
      <trkpt lat="44.87451" lon="5.74953">
        <ele>753.8</ele>
        <time>2023-08-03T12:35:27Z</time>
      </trkpt>
      <trkpt lat="44.87469" lon="5.74974">
        <ele>755</ele>
        <time>2023-08-03T12:35:33Z</time>
      </trkpt>
      <trkpt lat="44.87503" lon="5.74998">
        <ele>757.1</ele>
        <time>2023-08-03T12:35:42Z</time>
      </trkpt>
      <trkpt lat="44.87511" lon="5.75003">
        <ele>757.5</ele>
        <time>2023-08-03T12:35:44Z</time>
      </trkpt>
      <trkpt lat="44.87526" lon="5.75012">
        <ele>758.4</ele>
        <time>2023-08-03T12:35:48Z</time>
      </trkpt>
      <trkpt lat="44.87534" lon="5.75017">
        <ele>758.8</ele>
        <time>2023-08-03T12:35:50Z</time>
      </trkpt>
      <trkpt lat="44.87545" lon="5.75025">
        <ele>759.4</ele>
        <time>2023-08-03T12:35:53Z</time>
      </trkpt>
      <trkpt lat="44.8756" lon="5.75036">
        <ele>760.3</ele>
        <time>2023-08-03T12:35:57Z</time>
      </trkpt>
      <trkpt lat="44.87572" lon="5.75046">
        <ele>760.9</ele>
        <time>2023-08-03T12:36:00Z</time>
      </trkpt>
      <trkpt lat="44.87591" lon="5.75061">
        <ele>761.9</ele>
        <time>2023-08-03T12:36:05Z</time>
      </trkpt>
      <trkpt lat="44.87601" lon="5.75072">
        <ele>762.5</ele>
        <time>2023-08-03T12:36:08Z</time>
      </trkpt>
      <trkpt lat="44.87604" lon="5.75076">
        <ele>762.7</ele>
        <time>2023-08-03T12:36:09Z</time>
      </trkpt>
      <trkpt lat="44.87615" lon="5.75093">
        <ele>763.4</ele>
        <time>2023-08-03T12:36:13Z</time>
      </trkpt>
      <trkpt lat="44.87621" lon="5.75099">
        <ele>763.8</ele>
        <time>2023-08-03T12:36:15Z</time>
      </trkpt>
      <trkpt lat="44.87633" lon="5.75114">
        <ele>764.5</ele>
        <time>2023-08-03T12:36:19Z</time>
      </trkpt>
      <trkpt lat="44.87642" lon="5.75127">
        <ele>765.1</ele>
        <time>2023-08-03T12:36:22Z</time>
      </trkpt>
      <trkpt lat="44.87645" lon="5.75131">
        <ele>765.2</ele>
        <time>2023-08-03T12:36:23Z</time>
      </trkpt>
      <trkpt lat="44.87654" lon="5.75143">
        <ele>765.8</ele>
        <time>2023-08-03T12:36:26Z</time>
      </trkpt>
      <trkpt lat="44.8766" lon="5.7515">
        <ele>766.1</ele>
        <time>2023-08-03T12:36:28Z</time>
      </trkpt>
      <trkpt lat="44.8767" lon="5.75161">
        <ele>766.7</ele>
        <time>2023-08-03T12:36:31Z</time>
      </trkpt>
      <trkpt lat="44.87676" lon="5.75168">
        <ele>767.1</ele>
        <time>2023-08-03T12:36:33Z</time>
      </trkpt>
      <trkpt lat="44.87683" lon="5.75175">
        <ele>767.4</ele>
        <time>2023-08-03T12:36:35Z</time>
      </trkpt>
      <trkpt lat="44.87693" lon="5.75185">
        <ele>768</ele>
        <time>2023-08-03T12:36:38Z</time>
      </trkpt>
      <trkpt lat="44.87697" lon="5.75189">
        <ele>768.2</ele>
        <time>2023-08-03T12:36:39Z</time>
      </trkpt>
      <trkpt lat="44.87711" lon="5.75202">
        <ele>769.1</ele>
        <time>2023-08-03T12:36:43Z</time>
      </trkpt>
      <trkpt lat="44.87718" lon="5.75208">
        <ele>769.5</ele>
        <time>2023-08-03T12:36:45Z</time>
      </trkpt>
      <trkpt lat="44.87743" lon="5.75229">
        <ele>770.9</ele>
        <time>2023-08-03T12:36:52Z</time>
      </trkpt>
      <trkpt lat="44.87751" lon="5.75235">
        <ele>771.3</ele>
        <time>2023-08-03T12:36:54Z</time>
      </trkpt>
      <trkpt lat="44.87766" lon="5.75246">
        <ele>772.1</ele>
        <time>2023-08-03T12:36:58Z</time>
      </trkpt>
      <trkpt lat="44.8778" lon="5.75257">
        <ele>772.9</ele>
        <time>2023-08-03T12:37:02Z</time>
      </trkpt>
      <trkpt lat="44.87784" lon="5.75261">
        <ele>773.1</ele>
        <time>2023-08-03T12:37:03Z</time>
      </trkpt>
      <trkpt lat="44.87793" lon="5.75272">
        <ele>773.7</ele>
        <time>2023-08-03T12:37:06Z</time>
      </trkpt>
      <trkpt lat="44.87802" lon="5.75284">
        <ele>774.3</ele>
        <time>2023-08-03T12:37:09Z</time>
      </trkpt>
      <trkpt lat="44.87806" lon="5.75287">
        <ele>774.5</ele>
        <time>2023-08-03T12:37:10Z</time>
      </trkpt>
      <trkpt lat="44.8782" lon="5.75299">
        <ele>775.5</ele>
        <time>2023-08-03T12:37:14Z</time>
      </trkpt>
      <trkpt lat="44.87831" lon="5.75309">
        <ele>776.2</ele>
        <time>2023-08-03T12:37:17Z</time>
      </trkpt>
      <trkpt lat="44.87834" lon="5.75311">
        <ele>776.4</ele>
        <time>2023-08-03T12:37:18Z</time>
      </trkpt>
      <trkpt lat="44.87847" lon="5.75319">
        <ele>777.1</ele>
        <time>2023-08-03T12:37:21Z</time>
      </trkpt>
      <trkpt lat="44.87858" lon="5.75326">
        <ele>777.9</ele>
        <time>2023-08-03T12:37:24Z</time>
      </trkpt>
      <trkpt lat="44.87862" lon="5.75329">
        <ele>778.1</ele>
        <time>2023-08-03T12:37:25Z</time>
      </trkpt>
      <trkpt lat="44.87869" lon="5.75337">
        <ele>778.7</ele>
        <time>2023-08-03T12:37:27Z</time>
      </trkpt>
      <trkpt lat="44.87871" lon="5.75341">
        <ele>778.9</ele>
        <time>2023-08-03T12:37:28Z</time>
      </trkpt>
      <trkpt lat="44.87873" lon="5.75346">
        <ele>779.1</ele>
        <time>2023-08-03T12:37:29Z</time>
      </trkpt>
      <trkpt lat="44.87873" lon="5.75357">
        <ele>779.6</ele>
        <time>2023-08-03T12:37:31Z</time>
      </trkpt>
      <trkpt lat="44.87872" lon="5.75362">
        <ele>779.8</ele>
        <time>2023-08-03T12:37:32Z</time>
      </trkpt>
      <trkpt lat="44.87869" lon="5.75372">
        <ele>780.3</ele>
        <time>2023-08-03T12:37:34Z</time>
      </trkpt>
      <trkpt lat="44.87863" lon="5.75378">
        <ele>780.7</ele>
        <time>2023-08-03T12:37:36Z</time>
      </trkpt>
      <trkpt lat="44.87853" lon="5.75384">
        <ele>781.2</ele>
        <time>2023-08-03T12:37:39Z</time>
      </trkpt>
      <trkpt lat="44.87845" lon="5.75384">
        <ele>781.6</ele>
        <time>2023-08-03T12:37:41Z</time>
      </trkpt>
      <trkpt lat="44.8782" lon="5.75386">
        <ele>782.6</ele>
        <time>2023-08-03T12:37:47Z</time>
      </trkpt>
      <trkpt lat="44.87809" lon="5.75388">
        <ele>783</ele>
        <time>2023-08-03T12:37:50Z</time>
      </trkpt>
      <trkpt lat="44.87788" lon="5.75391">
        <ele>784</ele>
        <time>2023-08-03T12:37:55Z</time>
      </trkpt>
      <trkpt lat="44.87777" lon="5.75392">
        <ele>784.5</ele>
        <time>2023-08-03T12:37:58Z</time>
      </trkpt>
      <trkpt lat="44.87756" lon="5.754">
        <ele>785.4</ele>
        <time>2023-08-03T12:38:03Z</time>
      </trkpt>
      <trkpt lat="44.8774" lon="5.75409">
        <ele>786.2</ele>
        <time>2023-08-03T12:38:07Z</time>
      </trkpt>
      <trkpt lat="44.87736" lon="5.75411">
        <ele>786.4</ele>
        <time>2023-08-03T12:38:08Z</time>
      </trkpt>
      <trkpt lat="44.87712" lon="5.75423">
        <ele>787.5</ele>
        <time>2023-08-03T12:38:14Z</time>
      </trkpt>
      <trkpt lat="44.87696" lon="5.7543">
        <ele>788.3</ele>
        <time>2023-08-03T12:38:18Z</time>
      </trkpt>
      <trkpt lat="44.87693" lon="5.75431">
        <ele>788.5</ele>
        <time>2023-08-03T12:38:19Z</time>
      </trkpt>
      <trkpt lat="44.87671" lon="5.75436">
        <ele>789.5</ele>
        <time>2023-08-03T12:38:24Z</time>
      </trkpt>
      <trkpt lat="44.87658" lon="5.75437">
        <ele>790</ele>
        <time>2023-08-03T12:38:27Z</time>
      </trkpt>
      <trkpt lat="44.87633" lon="5.75437">
        <ele>791.2</ele>
        <time>2023-08-03T12:38:33Z</time>
      </trkpt>
      <trkpt lat="44.87628" lon="5.75438">
        <ele>791.5</ele>
        <time>2023-08-03T12:38:34Z</time>
      </trkpt>
      <trkpt lat="44.87615" lon="5.7544">
        <ele>792.1</ele>
        <time>2023-08-03T12:38:37Z</time>
      </trkpt>
      <trkpt lat="44.87607" lon="5.75442">
        <ele>792.4</ele>
        <time>2023-08-03T12:38:39Z</time>
      </trkpt>
      <trkpt lat="44.87582" lon="5.75457">
        <ele>793.6</ele>
        <time>2023-08-03T12:38:45Z</time>
      </trkpt>
      <trkpt lat="44.87551" lon="5.75479">
        <ele>795.5</ele>
        <time>2023-08-03T12:38:53Z</time>
      </trkpt>
      <trkpt lat="44.87545" lon="5.75487">
        <ele>795.8</ele>
        <time>2023-08-03T12:38:55Z</time>
      </trkpt>
      <trkpt lat="44.87543" lon="5.75498">
        <ele>796.2</ele>
        <time>2023-08-03T12:38:57Z</time>
      </trkpt>
      <trkpt lat="44.87543" lon="5.75504">
        <ele>796.3</ele>
        <time>2023-08-03T12:38:58Z</time>
      </trkpt>
      <trkpt lat="44.87544" lon="5.75511">
        <ele>796.5</ele>
        <time>2023-08-03T12:38:59Z</time>
      </trkpt>
      <trkpt lat="44.87552" lon="5.75534">
        <ele>797.2</ele>
        <time>2023-08-03T12:39:03Z</time>
      </trkpt>
      <trkpt lat="44.87555" lon="5.75544">
        <ele>797.6</ele>
        <time>2023-08-03T12:39:05Z</time>
      </trkpt>
      <trkpt lat="44.87557" lon="5.75556">
        <ele>797.9</ele>
        <time>2023-08-03T12:39:07Z</time>
      </trkpt>
      <trkpt lat="44.87557" lon="5.75562">
        <ele>798.1</ele>
        <time>2023-08-03T12:39:08Z</time>
      </trkpt>
      <trkpt lat="44.87557" lon="5.75594">
        <ele>799.1</ele>
        <time>2023-08-03T12:39:13Z</time>
      </trkpt>
      <trkpt lat="44.87559" lon="5.75606">
        <ele>799.5</ele>
        <time>2023-08-03T12:39:15Z</time>
      </trkpt>
      <trkpt lat="44.87566" lon="5.75629">
        <ele>800.3</ele>
        <time>2023-08-03T12:39:19Z</time>
      </trkpt>
      <trkpt lat="44.87571" lon="5.75645">
        <ele>800.9</ele>
        <time>2023-08-03T12:39:22Z</time>
      </trkpt>
      <trkpt lat="44.87582" lon="5.75678">
        <ele>802.2</ele>
        <time>2023-08-03T12:39:28Z</time>
      </trkpt>
      <trkpt lat="44.87588" lon="5.75694">
        <ele>802.8</ele>
        <time>2023-08-03T12:39:31Z</time>
      </trkpt>
      <trkpt lat="44.87591" lon="5.75706">
        <ele>803.2</ele>
        <time>2023-08-03T12:39:33Z</time>
      </trkpt>
      <trkpt lat="44.87596" lon="5.75723">
        <ele>803.8</ele>
        <time>2023-08-03T12:39:36Z</time>
      </trkpt>
      <trkpt lat="44.87606" lon="5.75757">
        <ele>804.9</ele>
        <time>2023-08-03T12:39:42Z</time>
      </trkpt>
      <trkpt lat="44.87607" lon="5.75762">
        <ele>805.1</ele>
        <time>2023-08-03T12:39:43Z</time>
      </trkpt>
      <trkpt lat="44.87611" lon="5.75779">
        <ele>805.7</ele>
        <time>2023-08-03T12:39:46Z</time>
      </trkpt>
      <trkpt lat="44.87614" lon="5.7579">
        <ele>806</ele>
        <time>2023-08-03T12:39:48Z</time>
      </trkpt>
      <trkpt lat="44.87618" lon="5.75801">
        <ele>806.5</ele>
        <time>2023-08-03T12:39:50Z</time>
      </trkpt>
      <trkpt lat="44.87628" lon="5.75829">
        <ele>807.5</ele>
        <time>2023-08-03T12:39:55Z</time>
      </trkpt>
      <trkpt lat="44.87638" lon="5.75848">
        <ele>808.3</ele>
        <time>2023-08-03T12:39:59Z</time>
      </trkpt>
      <trkpt lat="44.87651" lon="5.75863">
        <ele>809.1</ele>
        <time>2023-08-03T12:40:03Z</time>
      </trkpt>
      <trkpt lat="44.87655" lon="5.75866">
        <ele>809.3</ele>
        <time>2023-08-03T12:40:04Z</time>
      </trkpt>
      <trkpt lat="44.87663" lon="5.75872">
        <ele>809.7</ele>
        <time>2023-08-03T12:40:06Z</time>
      </trkpt>
      <trkpt lat="44.87671" lon="5.75878">
        <ele>810.1</ele>
        <time>2023-08-03T12:40:08Z</time>
      </trkpt>
      <trkpt lat="44.87675" lon="5.75881">
        <ele>810.3</ele>
        <time>2023-08-03T12:40:09Z</time>
      </trkpt>
      <trkpt lat="44.87678" lon="5.75884">
        <ele>810.5</ele>
        <time>2023-08-03T12:40:10Z</time>
      </trkpt>
      <trkpt lat="44.87685" lon="5.7589">
        <ele>810.9</ele>
        <time>2023-08-03T12:40:12Z</time>
      </trkpt>
      <trkpt lat="44.87706" lon="5.75917">
        <ele>812.3</ele>
        <time>2023-08-03T12:40:19Z</time>
      </trkpt>
      <trkpt lat="44.8771" lon="5.75921">
        <ele>812.6</ele>
        <time>2023-08-03T12:40:20Z</time>
      </trkpt>
      <trkpt lat="44.87716" lon="5.75928">
        <ele>813</ele>
        <time>2023-08-03T12:40:22Z</time>
      </trkpt>
      <trkpt lat="44.87719" lon="5.75932">
        <ele>813.2</ele>
        <time>2023-08-03T12:40:23Z</time>
      </trkpt>
      <trkpt lat="44.87725" lon="5.7594">
        <ele>813.7</ele>
        <time>2023-08-03T12:40:25Z</time>
      </trkpt>
      <trkpt lat="44.87728" lon="5.75944">
        <ele>813.9</ele>
        <time>2023-08-03T12:40:26Z</time>
      </trkpt>
      <trkpt lat="44.87745" lon="5.75964">
        <ele>815</ele>
        <time>2023-08-03T12:40:31Z</time>
      </trkpt>
      <trkpt lat="44.87747" lon="5.75968">
        <ele>815.2</ele>
        <time>2023-08-03T12:40:32Z</time>
      </trkpt>
      <trkpt lat="44.87749" lon="5.75973">
        <ele>815.3</ele>
        <time>2023-08-03T12:40:33Z</time>
      </trkpt>
      <trkpt lat="44.87753" lon="5.75991">
        <ele>815.9</ele>
        <time>2023-08-03T12:40:36Z</time>
      </trkpt>
      <trkpt lat="44.87754" lon="5.75997">
        <ele>816.1</ele>
        <time>2023-08-03T12:40:37Z</time>
      </trkpt>
      <trkpt lat="44.87754" lon="5.76004">
        <ele>816.3</ele>
        <time>2023-08-03T12:40:38Z</time>
      </trkpt>
      <trkpt lat="44.87757" lon="5.76041">
        <ele>817.6</ele>
        <time>2023-08-03T12:40:44Z</time>
      </trkpt>
      <trkpt lat="44.87758" lon="5.76053">
        <ele>818.1</ele>
        <time>2023-08-03T12:40:46Z</time>
      </trkpt>
      <trkpt lat="44.87761" lon="5.76072">
        <ele>818.8</ele>
        <time>2023-08-03T12:40:49Z</time>
      </trkpt>
      <trkpt lat="44.87765" lon="5.7609">
        <ele>819.4</ele>
        <time>2023-08-03T12:40:52Z</time>
      </trkpt>
      <trkpt lat="44.87767" lon="5.76102">
        <ele>819.8</ele>
        <time>2023-08-03T12:40:54Z</time>
      </trkpt>
      <trkpt lat="44.87774" lon="5.76126">
        <ele>820.6</ele>
        <time>2023-08-03T12:40:58Z</time>
      </trkpt>
      <trkpt lat="44.87776" lon="5.76139">
        <ele>821.1</ele>
        <time>2023-08-03T12:41:00Z</time>
      </trkpt>
      <trkpt lat="44.87781" lon="5.76168">
        <ele>822.1</ele>
        <time>2023-08-03T12:41:05Z</time>
      </trkpt>
      <trkpt lat="44.87782" lon="5.76174">
        <ele>822.3</ele>
        <time>2023-08-03T12:41:06Z</time>
      </trkpt>
      <trkpt lat="44.87783" lon="5.76186">
        <ele>822.8</ele>
        <time>2023-08-03T12:41:08Z</time>
      </trkpt>
      <trkpt lat="44.87783" lon="5.76192">
        <ele>823</ele>
        <time>2023-08-03T12:41:09Z</time>
      </trkpt>
      <trkpt lat="44.87784" lon="5.76203">
        <ele>823.4</ele>
        <time>2023-08-03T12:41:11Z</time>
      </trkpt>
      <trkpt lat="44.87784" lon="5.76221">
        <ele>824</ele>
        <time>2023-08-03T12:41:14Z</time>
      </trkpt>
      <trkpt lat="44.87785" lon="5.76264">
        <ele>825.4</ele>
        <time>2023-08-03T12:41:21Z</time>
      </trkpt>
      <trkpt lat="44.87788" lon="5.76283">
        <ele>826.1</ele>
        <time>2023-08-03T12:41:24Z</time>
      </trkpt>
      <trkpt lat="44.87792" lon="5.76295">
        <ele>826.5</ele>
        <time>2023-08-03T12:41:26Z</time>
      </trkpt>
      <trkpt lat="44.87796" lon="5.76307">
        <ele>827</ele>
        <time>2023-08-03T12:41:28Z</time>
      </trkpt>
      <trkpt lat="44.87799" lon="5.76318">
        <ele>827.4</ele>
        <time>2023-08-03T12:41:30Z</time>
      </trkpt>
      <trkpt lat="44.87807" lon="5.76333">
        <ele>828.1</ele>
        <time>2023-08-03T12:41:33Z</time>
      </trkpt>
      <trkpt lat="44.87813" lon="5.76342">
        <ele>828.5</ele>
        <time>2023-08-03T12:41:35Z</time>
      </trkpt>
      <trkpt lat="44.87821" lon="5.76355">
        <ele>829</ele>
        <time>2023-08-03T12:41:38Z</time>
      </trkpt>
      <trkpt lat="44.8783" lon="5.76369">
        <ele>829.7</ele>
        <time>2023-08-03T12:41:41Z</time>
      </trkpt>
      <trkpt lat="44.87839" lon="5.76382">
        <ele>830.3</ele>
        <time>2023-08-03T12:41:44Z</time>
      </trkpt>
      <trkpt lat="44.87867" lon="5.76419">
        <ele>832.3</ele>
        <time>2023-08-03T12:41:53Z</time>
      </trkpt>
      <trkpt lat="44.87909" lon="5.7647">
        <ele>834.7</ele>
        <time>2023-08-03T12:42:06Z</time>
      </trkpt>
      <trkpt lat="44.87913" lon="5.76473">
        <ele>834.9</ele>
        <time>2023-08-03T12:42:07Z</time>
      </trkpt>
      <trkpt lat="44.87937" lon="5.76499">
        <ele>836.4</ele>
        <time>2023-08-03T12:42:14Z</time>
      </trkpt>
      <trkpt lat="44.87946" lon="5.7651">
        <ele>837</ele>
        <time>2023-08-03T12:42:17Z</time>
      </trkpt>
      <trkpt lat="44.87953" lon="5.76518">
        <ele>837.4</ele>
        <time>2023-08-03T12:42:19Z</time>
      </trkpt>
      <trkpt lat="44.87966" lon="5.76533">
        <ele>838</ele>
        <time>2023-08-03T12:42:23Z</time>
      </trkpt>
      <trkpt lat="44.87987" lon="5.76554">
        <ele>839.1</ele>
        <time>2023-08-03T12:42:29Z</time>
      </trkpt>
      <trkpt lat="44.87995" lon="5.7656">
        <ele>839.4</ele>
        <time>2023-08-03T12:42:31Z</time>
      </trkpt>
      <trkpt lat="44.88012" lon="5.76572">
        <ele>840.1</ele>
        <time>2023-08-03T12:42:35Z</time>
      </trkpt>
      <trkpt lat="44.8802" lon="5.76577">
        <ele>840.3</ele>
        <time>2023-08-03T12:42:37Z</time>
      </trkpt>
      <trkpt lat="44.88025" lon="5.7658">
        <ele>840.5</ele>
        <time>2023-08-03T12:42:38Z</time>
      </trkpt>
      <trkpt lat="44.88037" lon="5.76587">
        <ele>840.9</ele>
        <time>2023-08-03T12:42:41Z</time>
      </trkpt>
      <trkpt lat="44.88055" lon="5.76597">
        <ele>841.5</ele>
        <time>2023-08-03T12:42:45Z</time>
      </trkpt>
      <trkpt lat="44.88071" lon="5.76607">
        <ele>842</ele>
        <time>2023-08-03T12:42:49Z</time>
      </trkpt>
      <trkpt lat="44.88085" lon="5.76616">
        <ele>842.5</ele>
        <time>2023-08-03T12:42:52Z</time>
      </trkpt>
      <trkpt lat="44.88089" lon="5.76618">
        <ele>842.7</ele>
        <time>2023-08-03T12:42:53Z</time>
      </trkpt>
      <trkpt lat="44.88094" lon="5.76621">
        <ele>842.9</ele>
        <time>2023-08-03T12:42:54Z</time>
      </trkpt>
      <trkpt lat="44.88107" lon="5.76629">
        <ele>843.4</ele>
        <time>2023-08-03T12:42:57Z</time>
      </trkpt>
      <trkpt lat="44.88115" lon="5.76633">
        <ele>843.7</ele>
        <time>2023-08-03T12:42:59Z</time>
      </trkpt>
      <trkpt lat="44.88125" lon="5.76639">
        <ele>844.1</ele>
        <time>2023-08-03T12:43:01Z</time>
      </trkpt>
      <trkpt lat="44.88133" lon="5.76643">
        <ele>844.4</ele>
        <time>2023-08-03T12:43:03Z</time>
      </trkpt>
      <trkpt lat="44.88147" lon="5.76648">
        <ele>845</ele>
        <time>2023-08-03T12:43:06Z</time>
      </trkpt>
      <trkpt lat="44.88156" lon="5.7665">
        <ele>845.4</ele>
        <time>2023-08-03T12:43:08Z</time>
      </trkpt>
      <trkpt lat="44.88164" lon="5.76651">
        <ele>845.7</ele>
        <time>2023-08-03T12:43:10Z</time>
      </trkpt>
      <trkpt lat="44.88174" lon="5.76651">
        <ele>846.1</ele>
        <time>2023-08-03T12:43:12Z</time>
      </trkpt>
      <trkpt lat="44.88183" lon="5.7665">
        <ele>846.4</ele>
        <time>2023-08-03T12:43:14Z</time>
      </trkpt>
      <trkpt lat="44.88187" lon="5.76649">
        <ele>846.6</ele>
        <time>2023-08-03T12:43:15Z</time>
      </trkpt>
      <trkpt lat="44.88194" lon="5.76644">
        <ele>846.8</ele>
        <time>2023-08-03T12:43:17Z</time>
      </trkpt>
      <trkpt lat="44.88202" lon="5.76636">
        <ele>847.1</ele>
        <time>2023-08-03T12:43:19Z</time>
      </trkpt>
      <trkpt lat="44.88204" lon="5.76632">
        <ele>847.2</ele>
        <time>2023-08-03T12:43:20Z</time>
      </trkpt>
      <trkpt lat="44.88207" lon="5.76627">
        <ele>847.4</ele>
        <time>2023-08-03T12:43:21Z</time>
      </trkpt>
      <trkpt lat="44.88216" lon="5.76607">
        <ele>847.9</ele>
        <time>2023-08-03T12:43:25Z</time>
      </trkpt>
      <trkpt lat="44.88227" lon="5.76588">
        <ele>848.3</ele>
        <time>2023-08-03T12:43:29Z</time>
      </trkpt>
      <trkpt lat="44.8823" lon="5.76583">
        <ele>848.4</ele>
        <time>2023-08-03T12:43:30Z</time>
      </trkpt>
      <trkpt lat="44.88238" lon="5.76574">
        <ele>848.6</ele>
        <time>2023-08-03T12:43:32Z</time>
      </trkpt>
      <trkpt lat="44.88249" lon="5.76565">
        <ele>848.7</ele>
        <time>2023-08-03T12:43:35Z</time>
      </trkpt>
      <trkpt lat="44.88266" lon="5.7655">
        <ele>848.9</ele>
        <time>2023-08-03T12:43:39Z</time>
      </trkpt>
      <trkpt lat="44.88284" lon="5.76537">
        <ele>849</ele>
        <time>2023-08-03T12:43:43Z</time>
      </trkpt>
      <trkpt lat="44.88302" lon="5.76523">
        <ele>849.1</ele>
        <time>2023-08-03T12:43:47Z</time>
      </trkpt>
      <trkpt lat="44.88307" lon="5.76519">
        <ele>849.2</ele>
        <time>2023-08-03T12:43:48Z</time>
      </trkpt>
      <trkpt lat="44.88321" lon="5.76507">
        <ele>849.4</ele>
        <time>2023-08-03T12:43:51Z</time>
      </trkpt>
      <trkpt lat="44.88324" lon="5.76504">
        <ele>849.4</ele>
        <time>2023-08-03T12:43:52Z</time>
      </trkpt>
      <trkpt lat="44.88328" lon="5.76498">
        <ele>849.4</ele>
        <time>2023-08-03T12:43:53Z</time>
      </trkpt>
      <trkpt lat="44.88336" lon="5.76487">
        <ele>849.5</ele>
        <time>2023-08-03T12:43:55Z</time>
      </trkpt>
      <trkpt lat="44.88345" lon="5.76478">
        <ele>849.5</ele>
        <time>2023-08-03T12:43:57Z</time>
      </trkpt>
      <trkpt lat="44.88363" lon="5.7646">
        <ele>849.7</ele>
        <time>2023-08-03T12:44:01Z</time>
      </trkpt>
      <trkpt lat="44.88378" lon="5.76439">
        <ele>849.9</ele>
        <time>2023-08-03T12:44:05Z</time>
      </trkpt>
      <trkpt lat="44.88382" lon="5.76433">
        <ele>849.9</ele>
        <time>2023-08-03T12:44:06Z</time>
      </trkpt>
      <trkpt lat="44.88391" lon="5.76424">
        <ele>850</ele>
        <time>2023-08-03T12:44:08Z</time>
      </trkpt>
      <trkpt lat="44.88396" lon="5.76422">
        <ele>850.1</ele>
        <time>2023-08-03T12:44:09Z</time>
      </trkpt>
      <trkpt lat="44.88407" lon="5.76419">
        <ele>850.3</ele>
        <time>2023-08-03T12:44:11Z</time>
      </trkpt>
      <trkpt lat="44.88412" lon="5.76417">
        <ele>850.3</ele>
        <time>2023-08-03T12:44:12Z</time>
      </trkpt>
      <trkpt lat="44.88421" lon="5.7641">
        <ele>850.4</ele>
        <time>2023-08-03T12:44:14Z</time>
      </trkpt>
      <trkpt lat="44.88438" lon="5.76398">
        <ele>850.4</ele>
        <time>2023-08-03T12:44:17Z</time>
      </trkpt>
      <trkpt lat="44.88443" lon="5.76397">
        <ele>850.4</ele>
        <time>2023-08-03T12:44:18Z</time>
      </trkpt>
      <trkpt lat="44.88449" lon="5.76396">
        <ele>850.4</ele>
        <time>2023-08-03T12:44:19Z</time>
      </trkpt>
      <trkpt lat="44.88454" lon="5.76395">
        <ele>850.4</ele>
        <time>2023-08-03T12:44:20Z</time>
      </trkpt>
      <trkpt lat="44.8846" lon="5.76392">
        <ele>850.5</ele>
        <time>2023-08-03T12:44:21Z</time>
      </trkpt>
      <trkpt lat="44.88472" lon="5.76386">
        <ele>850.5</ele>
        <time>2023-08-03T12:44:23Z</time>
      </trkpt>
      <trkpt lat="44.88481" lon="5.76379">
        <ele>850.5</ele>
        <time>2023-08-03T12:44:25Z</time>
      </trkpt>
      <trkpt lat="44.88493" lon="5.76366">
        <ele>850.6</ele>
        <time>2023-08-03T12:44:28Z</time>
      </trkpt>
      <trkpt lat="44.88499" lon="5.76356">
        <ele>850.6</ele>
        <time>2023-08-03T12:44:32Z</time>
      </trkpt>
      <trkpt lat="44.885" lon="5.76355">
        <ele>850.6</ele>
        <time>2023-08-03T12:44:34Z</time>
      </trkpt>
      <trkpt lat="44.88497" lon="5.76361">
        <ele>850.6</ele>
        <time>2023-08-03T12:49:29Z</time>
      </trkpt>
      <trkpt lat="44.88497" lon="5.76361">
        <ele>850.6</ele>
        <time>2023-08-03T12:49:30Z</time>
      </trkpt>
      <trkpt lat="44.88497" lon="5.76361">
        <ele>850.6</ele>
        <time>2023-08-03T12:49:32Z</time>
      </trkpt>
      <trkpt lat="44.88495" lon="5.76361">
        <ele>850.6</ele>
        <time>2023-08-03T12:49:38Z</time>
      </trkpt>
      <trkpt lat="44.88489" lon="5.76365">
        <ele>850.5</ele>
        <time>2023-08-03T12:49:41Z</time>
      </trkpt>
      <trkpt lat="44.88484" lon="5.76372">
        <ele>850.5</ele>
        <time>2023-08-03T12:49:43Z</time>
      </trkpt>
      <trkpt lat="44.88481" lon="5.76375">
        <ele>850.5</ele>
        <time>2023-08-03T12:49:44Z</time>
      </trkpt>
      <trkpt lat="44.88476" lon="5.76379">
        <ele>850.5</ele>
        <time>2023-08-03T12:49:45Z</time>
      </trkpt>
      <trkpt lat="44.88468" lon="5.76384">
        <ele>850.5</ele>
        <time>2023-08-03T12:49:47Z</time>
      </trkpt>
      <trkpt lat="44.88456" lon="5.76389">
        <ele>850.5</ele>
        <time>2023-08-03T12:49:50Z</time>
      </trkpt>
      <trkpt lat="44.88446" lon="5.76392">
        <ele>850.4</ele>
        <time>2023-08-03T12:49:52Z</time>
      </trkpt>
      <trkpt lat="44.88431" lon="5.76396">
        <ele>850.4</ele>
        <time>2023-08-03T12:49:55Z</time>
      </trkpt>
      <trkpt lat="44.88422" lon="5.76401">
        <ele>850.4</ele>
        <time>2023-08-03T12:49:57Z</time>
      </trkpt>
      <trkpt lat="44.88412" lon="5.76407">
        <ele>850.3</ele>
        <time>2023-08-03T12:49:59Z</time>
      </trkpt>
      <trkpt lat="44.88401" lon="5.76411">
        <ele>850.2</ele>
        <time>2023-08-03T12:50:01Z</time>
      </trkpt>
      <trkpt lat="44.8839" lon="5.76416">
        <ele>850</ele>
        <time>2023-08-03T12:50:03Z</time>
      </trkpt>
      <trkpt lat="44.8838" lon="5.76426">
        <ele>849.9</ele>
        <time>2023-08-03T12:50:05Z</time>
      </trkpt>
      <trkpt lat="44.88375" lon="5.76432">
        <ele>849.9</ele>
        <time>2023-08-03T12:50:06Z</time>
      </trkpt>
      <trkpt lat="44.88356" lon="5.76456">
        <ele>849.7</ele>
        <time>2023-08-03T12:50:10Z</time>
      </trkpt>
      <trkpt lat="44.88351" lon="5.76462">
        <ele>849.6</ele>
        <time>2023-08-03T12:50:11Z</time>
      </trkpt>
      <trkpt lat="44.8833" lon="5.76484">
        <ele>849.5</ele>
        <time>2023-08-03T12:50:15Z</time>
      </trkpt>
      <trkpt lat="44.88326" lon="5.76491">
        <ele>849.4</ele>
        <time>2023-08-03T12:50:16Z</time>
      </trkpt>
      <trkpt lat="44.88315" lon="5.76503">
        <ele>849.4</ele>
        <time>2023-08-03T12:50:18Z</time>
      </trkpt>
      <trkpt lat="44.8831" lon="5.76508">
        <ele>849.3</ele>
        <time>2023-08-03T12:50:19Z</time>
      </trkpt>
      <trkpt lat="44.88297" lon="5.76517">
        <ele>849.1</ele>
        <time>2023-08-03T12:50:21Z</time>
      </trkpt>
      <trkpt lat="44.88274" lon="5.76537">
        <ele>848.9</ele>
        <time>2023-08-03T12:50:25Z</time>
      </trkpt>
      <trkpt lat="44.88255" lon="5.76552">
        <ele>848.8</ele>
        <time>2023-08-03T12:50:28Z</time>
      </trkpt>
      <trkpt lat="44.88249" lon="5.76557">
        <ele>848.7</ele>
        <time>2023-08-03T12:50:29Z</time>
      </trkpt>
      <trkpt lat="44.88231" lon="5.76572">
        <ele>848.5</ele>
        <time>2023-08-03T12:50:32Z</time>
      </trkpt>
      <trkpt lat="44.88226" lon="5.76579">
        <ele>848.3</ele>
        <time>2023-08-03T12:50:33Z</time>
      </trkpt>
      <trkpt lat="44.8822" lon="5.76586">
        <ele>848.2</ele>
        <time>2023-08-03T12:50:34Z</time>
      </trkpt>
      <trkpt lat="44.88217" lon="5.76593">
        <ele>848</ele>
        <time>2023-08-03T12:50:35Z</time>
      </trkpt>
      <trkpt lat="44.88207" lon="5.76612">
        <ele>847.5</ele>
        <time>2023-08-03T12:50:37Z</time>
      </trkpt>
      <trkpt lat="44.88196" lon="5.76629">
        <ele>847.1</ele>
        <time>2023-08-03T12:50:39Z</time>
      </trkpt>
      <trkpt lat="44.8819" lon="5.76637">
        <ele>846.8</ele>
        <time>2023-08-03T12:50:40Z</time>
      </trkpt>
      <trkpt lat="44.88182" lon="5.76642">
        <ele>846.5</ele>
        <time>2023-08-03T12:50:41Z</time>
      </trkpt>
      <trkpt lat="44.88167" lon="5.76645">
        <ele>845.9</ele>
        <time>2023-08-03T12:50:43Z</time>
      </trkpt>
      <trkpt lat="44.88132" lon="5.76638">
        <ele>844.5</ele>
        <time>2023-08-03T12:50:47Z</time>
      </trkpt>
      <trkpt lat="44.88105" lon="5.76624">
        <ele>843.5</ele>
        <time>2023-08-03T12:50:50Z</time>
      </trkpt>
      <trkpt lat="44.88088" lon="5.76614">
        <ele>842.8</ele>
        <time>2023-08-03T12:50:52Z</time>
      </trkpt>
      <trkpt lat="44.8808" lon="5.76608">
        <ele>842.4</ele>
        <time>2023-08-03T12:50:53Z</time>
      </trkpt>
      <trkpt lat="44.88071" lon="5.76603">
        <ele>842.1</ele>
        <time>2023-08-03T12:50:54Z</time>
      </trkpt>
      <trkpt lat="44.88048" lon="5.76589">
        <ele>841.3</ele>
        <time>2023-08-03T12:50:57Z</time>
      </trkpt>
      <trkpt lat="44.88012" lon="5.76567">
        <ele>840.1</ele>
        <time>2023-08-03T12:51:01Z</time>
      </trkpt>
      <trkpt lat="44.88003" lon="5.76562">
        <ele>839.8</ele>
        <time>2023-08-03T12:51:02Z</time>
      </trkpt>
      <trkpt lat="44.87995" lon="5.76556">
        <ele>839.5</ele>
        <time>2023-08-03T12:51:03Z</time>
      </trkpt>
      <trkpt lat="44.8797" lon="5.76535">
        <ele>838.3</ele>
        <time>2023-08-03T12:51:06Z</time>
      </trkpt>
      <trkpt lat="44.87962" lon="5.76527">
        <ele>837.9</ele>
        <time>2023-08-03T12:51:07Z</time>
      </trkpt>
      <trkpt lat="44.87956" lon="5.7652">
        <ele>837.6</ele>
        <time>2023-08-03T12:51:08Z</time>
      </trkpt>
      <trkpt lat="44.87924" lon="5.76484">
        <ele>835.7</ele>
        <time>2023-08-03T12:51:12Z</time>
      </trkpt>
      <trkpt lat="44.87908" lon="5.76467">
        <ele>834.7</ele>
        <time>2023-08-03T12:51:14Z</time>
      </trkpt>
      <trkpt lat="44.87893" lon="5.76451">
        <ele>833.9</ele>
        <time>2023-08-03T12:51:16Z</time>
      </trkpt>
      <trkpt lat="44.87861" lon="5.76412">
        <ele>832</ele>
        <time>2023-08-03T12:51:20Z</time>
      </trkpt>
      <trkpt lat="44.87838" lon="5.76381">
        <ele>830.4</ele>
        <time>2023-08-03T12:51:23Z</time>
      </trkpt>
      <trkpt lat="44.87831" lon="5.7637">
        <ele>829.8</ele>
        <time>2023-08-03T12:51:24Z</time>
      </trkpt>
      <trkpt lat="44.87817" lon="5.76348">
        <ele>828.8</ele>
        <time>2023-08-03T12:51:26Z</time>
      </trkpt>
      <trkpt lat="44.878" lon="5.76317">
        <ele>827.5</ele>
        <time>2023-08-03T12:51:29Z</time>
      </trkpt>
      <trkpt lat="44.87796" lon="5.76305">
        <ele>827</ele>
        <time>2023-08-03T12:51:30Z</time>
      </trkpt>
      <trkpt lat="44.87789" lon="5.76281">
        <ele>826.1</ele>
        <time>2023-08-03T12:51:32Z</time>
      </trkpt>
      <trkpt lat="44.87787" lon="5.76268">
        <ele>825.6</ele>
        <time>2023-08-03T12:51:33Z</time>
      </trkpt>
      <trkpt lat="44.87784" lon="5.76242">
        <ele>824.7</ele>
        <time>2023-08-03T12:51:35Z</time>
      </trkpt>
      <trkpt lat="44.87783" lon="5.76217">
        <ele>824</ele>
        <time>2023-08-03T12:51:37Z</time>
      </trkpt>
      <trkpt lat="44.87783" lon="5.76201">
        <ele>823.4</ele>
        <time>2023-08-03T12:51:38Z</time>
      </trkpt>
      <trkpt lat="44.87782" lon="5.76175">
        <ele>822.5</ele>
        <time>2023-08-03T12:51:40Z</time>
      </trkpt>
      <trkpt lat="44.87781" lon="5.76159">
        <ele>821.9</ele>
        <time>2023-08-03T12:51:41Z</time>
      </trkpt>
      <trkpt lat="44.87776" lon="5.7613">
        <ele>820.9</ele>
        <time>2023-08-03T12:51:43Z</time>
      </trkpt>
      <trkpt lat="44.87772" lon="5.76117">
        <ele>820.3</ele>
        <time>2023-08-03T12:51:44Z</time>
      </trkpt>
      <trkpt lat="44.87769" lon="5.76103">
        <ele>819.9</ele>
        <time>2023-08-03T12:51:45Z</time>
      </trkpt>
      <trkpt lat="44.87762" lon="5.76075">
        <ele>818.9</ele>
        <time>2023-08-03T12:51:47Z</time>
      </trkpt>
      <trkpt lat="44.8776" lon="5.76061">
        <ele>818.4</ele>
        <time>2023-08-03T12:51:48Z</time>
      </trkpt>
      <trkpt lat="44.87754" lon="5.76">
        <ele>816.2</ele>
        <time>2023-08-03T12:51:52Z</time>
      </trkpt>
      <trkpt lat="44.87752" lon="5.75986">
        <ele>815.7</ele>
        <time>2023-08-03T12:51:53Z</time>
      </trkpt>
      <trkpt lat="44.87742" lon="5.75962">
        <ele>814.8</ele>
        <time>2023-08-03T12:51:55Z</time>
      </trkpt>
      <trkpt lat="44.87728" lon="5.75943">
        <ele>813.8</ele>
        <time>2023-08-03T12:51:57Z</time>
      </trkpt>
      <trkpt lat="44.8772" lon="5.75934">
        <ele>813.3</ele>
        <time>2023-08-03T12:51:58Z</time>
      </trkpt>
      <trkpt lat="44.87712" lon="5.75925">
        <ele>812.7</ele>
        <time>2023-08-03T12:51:59Z</time>
      </trkpt>
      <trkpt lat="44.87689" lon="5.75896">
        <ele>811.2</ele>
        <time>2023-08-03T12:52:02Z</time>
      </trkpt>
      <trkpt lat="44.87673" lon="5.75878">
        <ele>810.2</ele>
        <time>2023-08-03T12:52:04Z</time>
      </trkpt>
      <trkpt lat="44.87664" lon="5.7587">
        <ele>809.6</ele>
        <time>2023-08-03T12:52:05Z</time>
      </trkpt>
      <trkpt lat="44.87655" lon="5.75864">
        <ele>809.1</ele>
        <time>2023-08-03T12:52:06Z</time>
      </trkpt>
      <trkpt lat="44.87638" lon="5.75849">
        <ele>808.3</ele>
        <time>2023-08-03T12:52:08Z</time>
      </trkpt>
      <trkpt lat="44.87632" lon="5.75839">
        <ele>807.8</ele>
        <time>2023-08-03T12:52:09Z</time>
      </trkpt>
      <trkpt lat="44.87626" lon="5.75827">
        <ele>807.3</ele>
        <time>2023-08-03T12:52:10Z</time>
      </trkpt>
      <trkpt lat="44.87616" lon="5.75802">
        <ele>806.3</ele>
        <time>2023-08-03T12:52:12Z</time>
      </trkpt>
      <trkpt lat="44.87597" lon="5.75733">
        <ele>803.9</ele>
        <time>2023-08-03T12:52:17Z</time>
      </trkpt>
      <trkpt lat="44.87589" lon="5.75705">
        <ele>803</ele>
        <time>2023-08-03T12:52:19Z</time>
      </trkpt>
      <trkpt lat="44.87569" lon="5.75637">
        <ele>800.4</ele>
        <time>2023-08-03T12:52:24Z</time>
      </trkpt>
      <trkpt lat="44.87561" lon="5.7561">
        <ele>799.5</ele>
        <time>2023-08-03T12:52:26Z</time>
      </trkpt>
      <trkpt lat="44.87558" lon="5.75582">
        <ele>798.6</ele>
        <time>2023-08-03T12:52:28Z</time>
      </trkpt>
      <trkpt lat="44.87557" lon="5.75568">
        <ele>798.2</ele>
        <time>2023-08-03T12:52:29Z</time>
      </trkpt>
      <trkpt lat="44.87557" lon="5.75554">
        <ele>797.7</ele>
        <time>2023-08-03T12:52:30Z</time>
      </trkpt>
      <trkpt lat="44.87553" lon="5.75527">
        <ele>796.9</ele>
        <time>2023-08-03T12:52:32Z</time>
      </trkpt>
      <trkpt lat="44.87546" lon="5.75504">
        <ele>796.2</ele>
        <time>2023-08-03T12:52:34Z</time>
      </trkpt>
      <trkpt lat="44.87546" lon="5.75494">
        <ele>795.9</ele>
        <time>2023-08-03T12:52:35Z</time>
      </trkpt>
      <trkpt lat="44.87548" lon="5.75485">
        <ele>795.7</ele>
        <time>2023-08-03T12:52:36Z</time>
      </trkpt>
      <trkpt lat="44.87551" lon="5.75479">
        <ele>795.4</ele>
        <time>2023-08-03T12:52:37Z</time>
      </trkpt>
      <trkpt lat="44.87557" lon="5.75474">
        <ele>795.1</ele>
        <time>2023-08-03T12:52:38Z</time>
      </trkpt>
      <trkpt lat="44.8757" lon="5.75466">
        <ele>794.4</ele>
        <time>2023-08-03T12:52:40Z</time>
      </trkpt>
      <trkpt lat="44.87592" lon="5.75454">
        <ele>793.2</ele>
        <time>2023-08-03T12:52:43Z</time>
      </trkpt>
      <trkpt lat="44.87607" lon="5.75447">
        <ele>792.5</ele>
        <time>2023-08-03T12:52:45Z</time>
      </trkpt>
      <trkpt lat="44.87615" lon="5.75444">
        <ele>792.1</ele>
        <time>2023-08-03T12:52:46Z</time>
      </trkpt>
      <trkpt lat="44.87624" lon="5.75443">
        <ele>791.8</ele>
        <time>2023-08-03T12:52:47Z</time>
      </trkpt>
      <trkpt lat="44.87642" lon="5.75443">
        <ele>790.9</ele>
        <time>2023-08-03T12:52:49Z</time>
      </trkpt>
      <trkpt lat="44.8765" lon="5.75441">
        <ele>790.5</ele>
        <time>2023-08-03T12:52:50Z</time>
      </trkpt>
      <trkpt lat="44.87677" lon="5.75438">
        <ele>789.3</ele>
        <time>2023-08-03T12:52:53Z</time>
      </trkpt>
      <trkpt lat="44.87695" lon="5.75433">
        <ele>788.5</ele>
        <time>2023-08-03T12:52:55Z</time>
      </trkpt>
      <trkpt lat="44.87714" lon="5.75425">
        <ele>787.6</ele>
        <time>2023-08-03T12:52:57Z</time>
      </trkpt>
      <trkpt lat="44.87731" lon="5.75415">
        <ele>786.7</ele>
        <time>2023-08-03T12:52:59Z</time>
      </trkpt>
      <trkpt lat="44.87774" lon="5.75397">
        <ele>784.7</ele>
        <time>2023-08-03T12:53:04Z</time>
      </trkpt>
      <trkpt lat="44.87783" lon="5.75395">
        <ele>784.3</ele>
        <time>2023-08-03T12:53:05Z</time>
      </trkpt>
      <trkpt lat="44.87844" lon="5.75385">
        <ele>781.7</ele>
        <time>2023-08-03T12:53:11Z</time>
      </trkpt>
      <trkpt lat="44.87854" lon="5.75383">
        <ele>781.3</ele>
        <time>2023-08-03T12:53:12Z</time>
      </trkpt>
      <trkpt lat="44.87868" lon="5.75372">
        <ele>780.5</ele>
        <time>2023-08-03T12:53:14Z</time>
      </trkpt>
      <trkpt lat="44.87873" lon="5.75362">
        <ele>780</ele>
        <time>2023-08-03T12:53:15Z</time>
      </trkpt>
      <trkpt lat="44.87875" lon="5.75354">
        <ele>779.6</ele>
        <time>2023-08-03T12:53:16Z</time>
      </trkpt>
      <trkpt lat="44.87875" lon="5.75345">
        <ele>779.2</ele>
        <time>2023-08-03T12:53:17Z</time>
      </trkpt>
      <trkpt lat="44.87872" lon="5.75336">
        <ele>778.8</ele>
        <time>2023-08-03T12:53:18Z</time>
      </trkpt>
      <trkpt lat="44.87864" lon="5.75325">
        <ele>778.1</ele>
        <time>2023-08-03T12:53:20Z</time>
      </trkpt>
      <trkpt lat="44.8785" lon="5.75318">
        <ele>777.3</ele>
        <time>2023-08-03T12:53:22Z</time>
      </trkpt>
      <trkpt lat="44.87835" lon="5.75309">
        <ele>776.4</ele>
        <time>2023-08-03T12:53:24Z</time>
      </trkpt>
      <trkpt lat="44.87828" lon="5.75305">
        <ele>775.9</ele>
        <time>2023-08-03T12:53:25Z</time>
      </trkpt>
      <trkpt lat="44.87812" lon="5.75294">
        <ele>775</ele>
        <time>2023-08-03T12:53:27Z</time>
      </trkpt>
      <trkpt lat="44.87796" lon="5.75279">
        <ele>774</ele>
        <time>2023-08-03T12:53:29Z</time>
      </trkpt>
      <trkpt lat="44.87766" lon="5.75252">
        <ele>772.3</ele>
        <time>2023-08-03T12:53:33Z</time>
      </trkpt>
      <trkpt lat="44.87758" lon="5.75245">
        <ele>771.8</ele>
        <time>2023-08-03T12:53:34Z</time>
      </trkpt>
      <trkpt lat="44.87702" lon="5.752">
        <ele>768.7</ele>
        <time>2023-08-03T12:53:40Z</time>
      </trkpt>
      <trkpt lat="44.87668" lon="5.75164">
        <ele>766.7</ele>
        <time>2023-08-03T12:53:44Z</time>
      </trkpt>
      <trkpt lat="44.87653" lon="5.75144">
        <ele>765.8</ele>
        <time>2023-08-03T12:53:46Z</time>
      </trkpt>
      <trkpt lat="44.87608" lon="5.75082">
        <ele>762.9</ele>
        <time>2023-08-03T12:53:52Z</time>
      </trkpt>
      <trkpt lat="44.87594" lon="5.75064">
        <ele>762.1</ele>
        <time>2023-08-03T12:53:54Z</time>
      </trkpt>
      <trkpt lat="44.87586" lon="5.75054">
        <ele>761.7</ele>
        <time>2023-08-03T12:53:55Z</time>
      </trkpt>
      <trkpt lat="44.87568" lon="5.75038">
        <ele>760.6</ele>
        <time>2023-08-03T12:53:57Z</time>
      </trkpt>
      <trkpt lat="44.87559" lon="5.75031">
        <ele>760.1</ele>
        <time>2023-08-03T12:53:58Z</time>
      </trkpt>
      <trkpt lat="44.87534" lon="5.75014">
        <ele>758.8</ele>
        <time>2023-08-03T12:54:01Z</time>
      </trkpt>
      <trkpt lat="44.87514" lon="5.75001">
        <ele>757.6</ele>
        <time>2023-08-03T12:54:03Z</time>
      </trkpt>
      <trkpt lat="44.87507" lon="5.74996">
        <ele>757.2</ele>
        <time>2023-08-03T12:54:04Z</time>
      </trkpt>
      <trkpt lat="44.87477" lon="5.74977">
        <ele>755.4</ele>
        <time>2023-08-03T12:54:07Z</time>
      </trkpt>
      <trkpt lat="44.8747" lon="5.74971">
        <ele>754.9</ele>
        <time>2023-08-03T12:54:08Z</time>
      </trkpt>
      <trkpt lat="44.87453" lon="5.74954">
        <ele>753.8</ele>
        <time>2023-08-03T12:54:10Z</time>
      </trkpt>
      <trkpt lat="44.87421" lon="5.74914">
        <ele>752</ele>
        <time>2023-08-03T12:54:14Z</time>
      </trkpt>
      <trkpt lat="44.87407" lon="5.74892">
        <ele>751</ele>
        <time>2023-08-03T12:54:16Z</time>
      </trkpt>
      <trkpt lat="44.87399" lon="5.74867">
        <ele>750</ele>
        <time>2023-08-03T12:54:18Z</time>
      </trkpt>
      <trkpt lat="44.87397" lon="5.74854">
        <ele>749.5</ele>
        <time>2023-08-03T12:54:19Z</time>
      </trkpt>
      <trkpt lat="44.87397" lon="5.7484">
        <ele>749</ele>
        <time>2023-08-03T12:54:20Z</time>
      </trkpt>
      <trkpt lat="44.87401" lon="5.74812">
        <ele>747.8</ele>
        <time>2023-08-03T12:54:22Z</time>
      </trkpt>
      <trkpt lat="44.87411" lon="5.74746">
        <ele>744.8</ele>
        <time>2023-08-03T12:54:27Z</time>
      </trkpt>
      <trkpt lat="44.87412" lon="5.74731">
        <ele>744.1</ele>
        <time>2023-08-03T12:54:28Z</time>
      </trkpt>
      <trkpt lat="44.87412" lon="5.74716">
        <ele>743.4</ele>
        <time>2023-08-03T12:54:29Z</time>
      </trkpt>
      <trkpt lat="44.87407" lon="5.74687">
        <ele>742.3</ele>
        <time>2023-08-03T12:54:31Z</time>
      </trkpt>
      <trkpt lat="44.87401" lon="5.7467">
        <ele>741.7</ele>
        <time>2023-08-03T12:54:32Z</time>
      </trkpt>
      <trkpt lat="44.87387" lon="5.74612">
        <ele>739.5</ele>
        <time>2023-08-03T12:54:36Z</time>
      </trkpt>
      <trkpt lat="44.87383" lon="5.74597">
        <ele>739</ele>
        <time>2023-08-03T12:54:37Z</time>
      </trkpt>
      <trkpt lat="44.8737" lon="5.74524">
        <ele>736.4</ele>
        <time>2023-08-03T12:54:42Z</time>
      </trkpt>
      <trkpt lat="44.87369" lon="5.74479">
        <ele>734.9</ele>
        <time>2023-08-03T12:54:45Z</time>
      </trkpt>
      <trkpt lat="44.8737" lon="5.74465">
        <ele>734.3</ele>
        <time>2023-08-03T12:54:46Z</time>
      </trkpt>
      <trkpt lat="44.87374" lon="5.74451">
        <ele>733.8</ele>
        <time>2023-08-03T12:54:47Z</time>
      </trkpt>
      <trkpt lat="44.87385" lon="5.74427">
        <ele>732.8</ele>
        <time>2023-08-03T12:54:49Z</time>
      </trkpt>
      <trkpt lat="44.87416" lon="5.74369">
        <ele>730.1</ele>
        <time>2023-08-03T12:54:54Z</time>
      </trkpt>
      <trkpt lat="44.8742" lon="5.74355">
        <ele>729.6</ele>
        <time>2023-08-03T12:54:55Z</time>
      </trkpt>
      <trkpt lat="44.87423" lon="5.74341">
        <ele>729</ele>
        <time>2023-08-03T12:54:56Z</time>
      </trkpt>
      <trkpt lat="44.8742" lon="5.74314">
        <ele>728.1</ele>
        <time>2023-08-03T12:54:58Z</time>
      </trkpt>
      <trkpt lat="44.87412" lon="5.74292">
        <ele>727.1</ele>
        <time>2023-08-03T12:55:00Z</time>
      </trkpt>
      <trkpt lat="44.87405" lon="5.74284">
        <ele>726.5</ele>
        <time>2023-08-03T12:55:01Z</time>
      </trkpt>
      <trkpt lat="44.87396" lon="5.74279">
        <ele>725.9</ele>
        <time>2023-08-03T12:55:02Z</time>
      </trkpt>
      <trkpt lat="44.87377" lon="5.74275">
        <ele>724.6</ele>
        <time>2023-08-03T12:55:04Z</time>
      </trkpt>
      <trkpt lat="44.87367" lon="5.74272">
        <ele>724</ele>
        <time>2023-08-03T12:55:05Z</time>
      </trkpt>
      <trkpt lat="44.87349" lon="5.74262">
        <ele>722.8</ele>
        <time>2023-08-03T12:55:07Z</time>
      </trkpt>
      <trkpt lat="44.87315" lon="5.74229">
        <ele>720.7</ele>
        <time>2023-08-03T12:55:11Z</time>
      </trkpt>
      <trkpt lat="44.873" lon="5.74208">
        <ele>719.5</ele>
        <time>2023-08-03T12:55:13Z</time>
      </trkpt>
      <trkpt lat="44.87289" lon="5.74184">
        <ele>718.3</ele>
        <time>2023-08-03T12:55:15Z</time>
      </trkpt>
      <trkpt lat="44.87286" lon="5.7417">
        <ele>717.7</ele>
        <time>2023-08-03T12:55:16Z</time>
      </trkpt>
      <trkpt lat="44.87284" lon="5.74155">
        <ele>717.1</ele>
        <time>2023-08-03T12:55:17Z</time>
      </trkpt>
      <trkpt lat="44.87283" lon="5.74141">
        <ele>716.4</ele>
        <time>2023-08-03T12:55:18Z</time>
      </trkpt>
      <trkpt lat="44.87282" lon="5.74126">
        <ele>715.8</ele>
        <time>2023-08-03T12:55:19Z</time>
      </trkpt>
      <trkpt lat="44.87277" lon="5.74053">
        <ele>713.3</ele>
        <time>2023-08-03T12:55:24Z</time>
      </trkpt>
      <trkpt lat="44.87276" lon="5.74025">
        <ele>712.2</ele>
        <time>2023-08-03T12:55:26Z</time>
      </trkpt>
      <trkpt lat="44.87273" lon="5.73965">
        <ele>709.9</ele>
        <time>2023-08-03T12:55:30Z</time>
      </trkpt>
      <trkpt lat="44.87275" lon="5.73934">
        <ele>708.7</ele>
        <time>2023-08-03T12:55:32Z</time>
      </trkpt>
      <trkpt lat="44.87283" lon="5.73857">
        <ele>705.6</ele>
        <time>2023-08-03T12:55:37Z</time>
      </trkpt>
      <trkpt lat="44.87287" lon="5.73826">
        <ele>704.4</ele>
        <time>2023-08-03T12:55:39Z</time>
      </trkpt>
      <trkpt lat="44.87292" lon="5.7378">
        <ele>702.8</ele>
        <time>2023-08-03T12:55:42Z</time>
      </trkpt>
      <trkpt lat="44.873" lon="5.73702">
        <ele>700</ele>
        <time>2023-08-03T12:55:47Z</time>
      </trkpt>
      <trkpt lat="44.87303" lon="5.73687">
        <ele>699.5</ele>
        <time>2023-08-03T12:55:48Z</time>
      </trkpt>
      <trkpt lat="44.87312" lon="5.73658">
        <ele>698.5</ele>
        <time>2023-08-03T12:55:50Z</time>
      </trkpt>
      <trkpt lat="44.87319" lon="5.73645">
        <ele>698.1</ele>
        <time>2023-08-03T12:55:51Z</time>
      </trkpt>
      <trkpt lat="44.87325" lon="5.73632">
        <ele>698.1</ele>
        <time>2023-08-03T12:55:52Z</time>
      </trkpt>
      <trkpt lat="44.87347" lon="5.73598">
        <ele>697.3</ele>
        <time>2023-08-03T12:55:55Z</time>
      </trkpt>
      <trkpt lat="44.87389" lon="5.73551">
        <ele>695.9</ele>
        <time>2023-08-03T12:56:00Z</time>
      </trkpt>
      <trkpt lat="44.87436" lon="5.735">
        <ele>694.9</ele>
        <time>2023-08-03T12:56:06Z</time>
      </trkpt>
      <trkpt lat="44.8745" lon="5.73484">
        <ele>694.5</ele>
        <time>2023-08-03T12:56:08Z</time>
      </trkpt>
      <trkpt lat="44.87491" lon="5.73448">
        <ele>693.7</ele>
        <time>2023-08-03T12:56:13Z</time>
      </trkpt>
      <trkpt lat="44.875" lon="5.73443">
        <ele>693.6</ele>
        <time>2023-08-03T12:56:14Z</time>
      </trkpt>
      <trkpt lat="44.87517" lon="5.73439">
        <ele>693.3</ele>
        <time>2023-08-03T12:56:16Z</time>
      </trkpt>
      <trkpt lat="44.87537" lon="5.73442">
        <ele>692.8</ele>
        <time>2023-08-03T12:56:18Z</time>
      </trkpt>
      <trkpt lat="44.87544" lon="5.73446">
        <ele>692.6</ele>
        <time>2023-08-03T12:56:19Z</time>
      </trkpt>
      <trkpt lat="44.87554" lon="5.73454">
        <ele>692.1</ele>
        <time>2023-08-03T12:56:20Z</time>
      </trkpt>
      <trkpt lat="44.87568" lon="5.73474">
        <ele>691.3</ele>
        <time>2023-08-03T12:56:22Z</time>
      </trkpt>
      <trkpt lat="44.87573" lon="5.73483">
        <ele>691</ele>
        <time>2023-08-03T12:56:23Z</time>
      </trkpt>
      <trkpt lat="44.87586" lon="5.73507">
        <ele>690.2</ele>
        <time>2023-08-03T12:56:25Z</time>
      </trkpt>
      <trkpt lat="44.87593" lon="5.73512">
        <ele>689.9</ele>
        <time>2023-08-03T12:56:26Z</time>
      </trkpt>
      <trkpt lat="44.87598" lon="5.73513">
        <ele>689.7</ele>
        <time>2023-08-03T12:56:27Z</time>
      </trkpt>
      <trkpt lat="44.87607" lon="5.73511">
        <ele>689.4</ele>
        <time>2023-08-03T12:56:28Z</time>
      </trkpt>
      <trkpt lat="44.87614" lon="5.73506">
        <ele>689.1</ele>
        <time>2023-08-03T12:56:29Z</time>
      </trkpt>
      <trkpt lat="44.87624" lon="5.73493">
        <ele>688.7</ele>
        <time>2023-08-03T12:56:31Z</time>
      </trkpt>
      <trkpt lat="44.87631" lon="5.73473">
        <ele>688.3</ele>
        <time>2023-08-03T12:56:33Z</time>
      </trkpt>
      <trkpt lat="44.87636" lon="5.7345">
        <ele>688</ele>
        <time>2023-08-03T12:56:35Z</time>
      </trkpt>
      <trkpt lat="44.87638" lon="5.73439">
        <ele>687.9</ele>
        <time>2023-08-03T12:56:36Z</time>
      </trkpt>
      <trkpt lat="44.87644" lon="5.73419">
        <ele>687.9</ele>
        <time>2023-08-03T12:56:38Z</time>
      </trkpt>
      <trkpt lat="44.87649" lon="5.73412">
        <ele>687.9</ele>
        <time>2023-08-03T12:56:39Z</time>
      </trkpt>
      <trkpt lat="44.87655" lon="5.73406">
        <ele>687.9</ele>
        <time>2023-08-03T12:56:40Z</time>
      </trkpt>
      <trkpt lat="44.87672" lon="5.7339">
        <ele>687.8</ele>
        <time>2023-08-03T12:56:43Z</time>
      </trkpt>
      <trkpt lat="44.8768" lon="5.73376">
        <ele>687.8</ele>
        <time>2023-08-03T12:56:45Z</time>
      </trkpt>
      <trkpt lat="44.87683" lon="5.73364">
        <ele>687.8</ele>
        <time>2023-08-03T12:56:46Z</time>
      </trkpt>
      <trkpt lat="44.87684" lon="5.73354">
        <ele>687.8</ele>
        <time>2023-08-03T12:56:47Z</time>
      </trkpt>
      <trkpt lat="44.87684" lon="5.73343">
        <ele>687.8</ele>
        <time>2023-08-03T12:56:48Z</time>
      </trkpt>
      <trkpt lat="44.87683" lon="5.73323">
        <ele>687.8</ele>
        <time>2023-08-03T12:56:50Z</time>
      </trkpt>
      <trkpt lat="44.87689" lon="5.73297">
        <ele>687.8</ele>
        <time>2023-08-03T12:56:53Z</time>
      </trkpt>
      <trkpt lat="44.87692" lon="5.73288">
        <ele>687.8</ele>
        <time>2023-08-03T12:56:54Z</time>
      </trkpt>
      <trkpt lat="44.87699" lon="5.73271">
        <ele>687.7</ele>
        <time>2023-08-03T12:56:56Z</time>
      </trkpt>
      <trkpt lat="44.87702" lon="5.7325">
        <ele>687.7</ele>
        <time>2023-08-03T12:56:58Z</time>
      </trkpt>
      <trkpt lat="44.87701" lon="5.73197">
        <ele>687.5</ele>
        <time>2023-08-03T12:57:03Z</time>
      </trkpt>
      <trkpt lat="44.87702" lon="5.73186">
        <ele>687.5</ele>
        <time>2023-08-03T12:57:04Z</time>
      </trkpt>
      <trkpt lat="44.87707" lon="5.73166">
        <ele>687.4</ele>
        <time>2023-08-03T12:57:06Z</time>
      </trkpt>
      <trkpt lat="44.87711" lon="5.73156">
        <ele>687.3</ele>
        <time>2023-08-03T12:57:07Z</time>
      </trkpt>
      <trkpt lat="44.87747" lon="5.73096">
        <ele>686.8</ele>
        <time>2023-08-03T12:57:14Z</time>
      </trkpt>
      <trkpt lat="44.87753" lon="5.73088">
        <ele>686.8</ele>
        <time>2023-08-03T12:57:15Z</time>
      </trkpt>
      <trkpt lat="44.87766" lon="5.73076">
        <ele>686.7</ele>
        <time>2023-08-03T12:57:17Z</time>
      </trkpt>
      <trkpt lat="44.87774" lon="5.73072">
        <ele>686.7</ele>
        <time>2023-08-03T12:57:18Z</time>
      </trkpt>
      <trkpt lat="44.87781" lon="5.7307">
        <ele>686.7</ele>
        <time>2023-08-03T12:57:19Z</time>
      </trkpt>
      <trkpt lat="44.87806" lon="5.73067">
        <ele>686.6</ele>
        <time>2023-08-03T12:57:22Z</time>
      </trkpt>
      <trkpt lat="44.8783" lon="5.73062">
        <ele>686.6</ele>
        <time>2023-08-03T12:57:25Z</time>
      </trkpt>
      <trkpt lat="44.87845" lon="5.73053">
        <ele>686.6</ele>
        <time>2023-08-03T12:57:27Z</time>
      </trkpt>
      <trkpt lat="44.87857" lon="5.73038">
        <ele>686.6</ele>
        <time>2023-08-03T12:57:29Z</time>
      </trkpt>
      <trkpt lat="44.87864" lon="5.7302">
        <ele>686.7</ele>
        <time>2023-08-03T12:57:31Z</time>
      </trkpt>
      <trkpt lat="44.8786" lon="5.73001">
        <ele>686.6</ele>
        <time>2023-08-03T12:57:33Z</time>
      </trkpt>
      <trkpt lat="44.87851" lon="5.72987">
        <ele>686.4</ele>
        <time>2023-08-03T12:57:35Z</time>
      </trkpt>
      <trkpt lat="44.87845" lon="5.72982">
        <ele>686.3</ele>
        <time>2023-08-03T12:57:36Z</time>
      </trkpt>
      <trkpt lat="44.87838" lon="5.72979">
        <ele>686.2</ele>
        <time>2023-08-03T12:57:37Z</time>
      </trkpt>
      <trkpt lat="44.87818" lon="5.72973">
        <ele>686.2</ele>
        <time>2023-08-03T12:57:40Z</time>
      </trkpt>
      <trkpt lat="44.8776" lon="5.72961">
        <ele>687</ele>
        <time>2023-08-03T12:57:48Z</time>
      </trkpt>
      <trkpt lat="44.87754" lon="5.7296">
        <ele>687.1</ele>
        <time>2023-08-03T12:57:49Z</time>
      </trkpt>
      <trkpt lat="44.87707" lon="5.72958">
        <ele>687.9</ele>
        <time>2023-08-03T12:57:56Z</time>
      </trkpt>
      <trkpt lat="44.87655" lon="5.72958">
        <ele>688.7</ele>
        <time>2023-08-03T12:58:04Z</time>
      </trkpt>
      <trkpt lat="44.87649" lon="5.72958">
        <ele>688.8</ele>
        <time>2023-08-03T12:58:05Z</time>
      </trkpt>
      <trkpt lat="44.87644" lon="5.72959">
        <ele>689</ele>
        <time>2023-08-03T12:58:06Z</time>
      </trkpt>
      <trkpt lat="44.87631" lon="5.72963">
        <ele>689.2</ele>
        <time>2023-08-03T12:58:08Z</time>
      </trkpt>
      <trkpt lat="44.8762" lon="5.72967">
        <ele>689.4</ele>
        <time>2023-08-03T12:58:10Z</time>
      </trkpt>
      <trkpt lat="44.87608" lon="5.7297">
        <ele>689.6</ele>
        <time>2023-08-03T12:58:12Z</time>
      </trkpt>
      <trkpt lat="44.87595" lon="5.72973">
        <ele>689.9</ele>
        <time>2023-08-03T12:58:14Z</time>
      </trkpt>
      <trkpt lat="44.87549" lon="5.72982">
        <ele>690.6</ele>
        <time>2023-08-03T12:58:21Z</time>
      </trkpt>
      <trkpt lat="44.87503" lon="5.72989">
        <ele>691.4</ele>
        <time>2023-08-03T12:58:28Z</time>
      </trkpt>
      <trkpt lat="44.87493" lon="5.72988">
        <ele>691.7</ele>
        <time>2023-08-03T12:58:30Z</time>
      </trkpt>
      <trkpt lat="44.87477" lon="5.72981">
        <ele>692</ele>
        <time>2023-08-03T12:58:33Z</time>
      </trkpt>
      <trkpt lat="44.87439" lon="5.72956">
        <ele>692.6</ele>
        <time>2023-08-03T12:58:40Z</time>
      </trkpt>
      <trkpt lat="44.87429" lon="5.72947">
        <ele>692.9</ele>
        <time>2023-08-03T12:58:42Z</time>
      </trkpt>
      <trkpt lat="44.87423" lon="5.72934">
        <ele>693.2</ele>
        <time>2023-08-03T12:58:44Z</time>
      </trkpt>
      <trkpt lat="44.87422" lon="5.72918">
        <ele>693.4</ele>
        <time>2023-08-03T12:58:46Z</time>
      </trkpt>
      <trkpt lat="44.87424" lon="5.72911">
        <ele>693.4</ele>
        <time>2023-08-03T12:58:47Z</time>
      </trkpt>
      <trkpt lat="44.87427" lon="5.72905">
        <ele>693.4</ele>
        <time>2023-08-03T12:58:48Z</time>
      </trkpt>
      <trkpt lat="44.87438" lon="5.72887">
        <ele>693.5</ele>
        <time>2023-08-03T12:58:51Z</time>
      </trkpt>
      <trkpt lat="44.87454" lon="5.72862">
        <ele>693.7</ele>
        <time>2023-08-03T12:58:55Z</time>
      </trkpt>
      <trkpt lat="44.87461" lon="5.7285">
        <ele>693.8</ele>
        <time>2023-08-03T12:58:57Z</time>
      </trkpt>
      <trkpt lat="44.87478" lon="5.72826">
        <ele>694.1</ele>
        <time>2023-08-03T12:59:01Z</time>
      </trkpt>
      <trkpt lat="44.87498" lon="5.72797">
        <ele>694.4</ele>
        <time>2023-08-03T12:59:06Z</time>
      </trkpt>
      <trkpt lat="44.87517" lon="5.72768">
        <ele>694.7</ele>
        <time>2023-08-03T12:59:11Z</time>
      </trkpt>
      <trkpt lat="44.87524" lon="5.72756">
        <ele>694.7</ele>
        <time>2023-08-03T12:59:13Z</time>
      </trkpt>
      <trkpt lat="44.87528" lon="5.72749">
        <ele>694.7</ele>
        <time>2023-08-03T12:59:14Z</time>
      </trkpt>
      <trkpt lat="44.8753" lon="5.72742">
        <ele>694.6</ele>
        <time>2023-08-03T12:59:15Z</time>
      </trkpt>
      <trkpt lat="44.87532" lon="5.72723">
        <ele>694.3</ele>
        <time>2023-08-03T12:59:17Z</time>
      </trkpt>
      <trkpt lat="44.87531" lon="5.72713">
        <ele>694.2</ele>
        <time>2023-08-03T12:59:18Z</time>
      </trkpt>
      <trkpt lat="44.87529" lon="5.72703">
        <ele>694.1</ele>
        <time>2023-08-03T12:59:19Z</time>
      </trkpt>
      <trkpt lat="44.87517" lon="5.72663">
        <ele>694.2</ele>
        <time>2023-08-03T12:59:23Z</time>
      </trkpt>
      <trkpt lat="44.87486" lon="5.72595">
        <ele>694</ele>
        <time>2023-08-03T12:59:31Z</time>
      </trkpt>
      <trkpt lat="44.87456" lon="5.72531">
        <ele>693</ele>
        <time>2023-08-03T12:59:38Z</time>
      </trkpt>
      <trkpt lat="44.87443" lon="5.72504">
        <ele>692.5</ele>
        <time>2023-08-03T12:59:41Z</time>
      </trkpt>
      <trkpt lat="44.8743" lon="5.72477">
        <ele>692</ele>
        <time>2023-08-03T12:59:44Z</time>
      </trkpt>
      <trkpt lat="44.87417" lon="5.72464">
        <ele>691.7</ele>
        <time>2023-08-03T12:59:46Z</time>
      </trkpt>
      <trkpt lat="44.87387" lon="5.72458">
        <ele>691.3</ele>
        <time>2023-08-03T12:59:50Z</time>
      </trkpt>
      <trkpt lat="44.87373" lon="5.72451">
        <ele>690.8</ele>
        <time>2023-08-03T12:59:52Z</time>
      </trkpt>
      <trkpt lat="44.87366" lon="5.72445">
        <ele>690.5</ele>
        <time>2023-08-03T12:59:53Z</time>
      </trkpt>
      <trkpt lat="44.87361" lon="5.72437">
        <ele>690.2</ele>
        <time>2023-08-03T12:59:54Z</time>
      </trkpt>
      <trkpt lat="44.87356" lon="5.72418">
        <ele>689.7</ele>
        <time>2023-08-03T12:59:56Z</time>
      </trkpt>
      <trkpt lat="44.87352" lon="5.72371">
        <ele>688.3</ele>
        <time>2023-08-03T13:00:00Z</time>
      </trkpt>
      <trkpt lat="44.87354" lon="5.7236">
        <ele>687.9</ele>
        <time>2023-08-03T13:00:01Z</time>
      </trkpt>
      <trkpt lat="44.87356" lon="5.72349">
        <ele>687.6</ele>
        <time>2023-08-03T13:00:02Z</time>
      </trkpt>
      <trkpt lat="44.87366" lon="5.72329">
        <ele>686.7</ele>
        <time>2023-08-03T13:00:04Z</time>
      </trkpt>
      <trkpt lat="44.87383" lon="5.72305">
        <ele>685.4</ele>
        <time>2023-08-03T13:00:07Z</time>
      </trkpt>
      <trkpt lat="44.87396" lon="5.72286">
        <ele>684.6</ele>
        <time>2023-08-03T13:00:09Z</time>
      </trkpt>
      <trkpt lat="44.87401" lon="5.72276">
        <ele>684.2</ele>
        <time>2023-08-03T13:00:10Z</time>
      </trkpt>
      <trkpt lat="44.8741" lon="5.72256">
        <ele>683.4</ele>
        <time>2023-08-03T13:00:12Z</time>
      </trkpt>
      <trkpt lat="44.87415" lon="5.72233">
        <ele>682.7</ele>
        <time>2023-08-03T13:00:14Z</time>
      </trkpt>
      <trkpt lat="44.87426" lon="5.72156">
        <ele>680.4</ele>
        <time>2023-08-03T13:00:20Z</time>
      </trkpt>
      <trkpt lat="44.87426" lon="5.72143">
        <ele>680.2</ele>
        <time>2023-08-03T13:00:21Z</time>
      </trkpt>
      <trkpt lat="44.87424" lon="5.72117">
        <ele>679.4</ele>
        <time>2023-08-03T13:00:23Z</time>
      </trkpt>
      <trkpt lat="44.87418" lon="5.7208">
        <ele>678</ele>
        <time>2023-08-03T13:00:26Z</time>
      </trkpt>
      <trkpt lat="44.87411" lon="5.72039">
        <ele>676.4</ele>
        <time>2023-08-03T13:00:29Z</time>
      </trkpt>
      <trkpt lat="44.87406" lon="5.72011">
        <ele>675.2</ele>
        <time>2023-08-03T13:00:31Z</time>
      </trkpt>
      <trkpt lat="44.87396" lon="5.71982">
        <ele>674.1</ele>
        <time>2023-08-03T13:00:33Z</time>
      </trkpt>
      <trkpt lat="44.87391" lon="5.71969">
        <ele>673.8</ele>
        <time>2023-08-03T13:00:34Z</time>
      </trkpt>
      <trkpt lat="44.8737" lon="5.71919">
        <ele>672.5</ele>
        <time>2023-08-03T13:00:38Z</time>
      </trkpt>
      <trkpt lat="44.87357" lon="5.7189">
        <ele>671.4</ele>
        <time>2023-08-03T13:00:40Z</time>
      </trkpt>
      <trkpt lat="44.87332" lon="5.71821">
        <ele>668.9</ele>
        <time>2023-08-03T13:00:45Z</time>
      </trkpt>
      <trkpt lat="44.87329" lon="5.71795">
        <ele>667.9</ele>
        <time>2023-08-03T13:00:47Z</time>
      </trkpt>
      <trkpt lat="44.87329" lon="5.71777">
        <ele>667.3</ele>
        <time>2023-08-03T13:00:48Z</time>
      </trkpt>
      <trkpt lat="44.87331" lon="5.71766">
        <ele>666.9</ele>
        <time>2023-08-03T13:00:49Z</time>
      </trkpt>
      <trkpt lat="44.87337" lon="5.71739">
        <ele>665.9</ele>
        <time>2023-08-03T13:00:51Z</time>
      </trkpt>
      <trkpt lat="44.87356" lon="5.71658">
        <ele>662.8</ele>
        <time>2023-08-03T13:00:57Z</time>
      </trkpt>
      <trkpt lat="44.87358" lon="5.71642">
        <ele>662.2</ele>
        <time>2023-08-03T13:00:58Z</time>
      </trkpt>
      <trkpt lat="44.87358" lon="5.71632">
        <ele>661.9</ele>
        <time>2023-08-03T13:00:59Z</time>
      </trkpt>
      <trkpt lat="44.87354" lon="5.71603">
        <ele>660.8</ele>
        <time>2023-08-03T13:01:01Z</time>
      </trkpt>
      <trkpt lat="44.87336" lon="5.7154">
        <ele>658.6</ele>
        <time>2023-08-03T13:01:06Z</time>
      </trkpt>
      <trkpt lat="44.87319" lon="5.71459">
        <ele>655.9</ele>
        <time>2023-08-03T13:01:12Z</time>
      </trkpt>
      <trkpt lat="44.87318" lon="5.71445">
        <ele>655.5</ele>
        <time>2023-08-03T13:01:13Z</time>
      </trkpt>
      <trkpt lat="44.87318" lon="5.71427">
        <ele>655</ele>
        <time>2023-08-03T13:01:14Z</time>
      </trkpt>
      <trkpt lat="44.87321" lon="5.71399">
        <ele>654.4</ele>
        <time>2023-08-03T13:01:16Z</time>
      </trkpt>
      <trkpt lat="44.87333" lon="5.7136">
        <ele>654.1</ele>
        <time>2023-08-03T13:01:19Z</time>
      </trkpt>
      <trkpt lat="44.87338" lon="5.71348">
        <ele>653.9</ele>
        <time>2023-08-03T13:01:20Z</time>
      </trkpt>
      <trkpt lat="44.87361" lon="5.71286">
        <ele>652.7</ele>
        <time>2023-08-03T13:01:25Z</time>
      </trkpt>
      <trkpt lat="44.87363" lon="5.71276">
        <ele>652.6</ele>
        <time>2023-08-03T13:01:26Z</time>
      </trkpt>
      <trkpt lat="44.87373" lon="5.71236">
        <ele>652.4</ele>
        <time>2023-08-03T13:01:29Z</time>
      </trkpt>
      <trkpt lat="44.87377" lon="5.71225">
        <ele>652.5</ele>
        <time>2023-08-03T13:01:30Z</time>
      </trkpt>
      <trkpt lat="44.87398" lon="5.7116">
        <ele>653</ele>
        <time>2023-08-03T13:01:36Z</time>
      </trkpt>
      <trkpt lat="44.87403" lon="5.7114">
        <ele>653.3</ele>
        <time>2023-08-03T13:01:38Z</time>
      </trkpt>
      <trkpt lat="44.87405" lon="5.7113">
        <ele>653.5</ele>
        <time>2023-08-03T13:01:39Z</time>
      </trkpt>
      <trkpt lat="44.87407" lon="5.7111">
        <ele>653.8</ele>
        <time>2023-08-03T13:01:41Z</time>
      </trkpt>
      <trkpt lat="44.8741" lon="5.71064">
        <ele>654.8</ele>
        <time>2023-08-03T13:01:46Z</time>
      </trkpt>
      <trkpt lat="44.87413" lon="5.7105">
        <ele>655.2</ele>
        <time>2023-08-03T13:01:48Z</time>
      </trkpt>
      <trkpt lat="44.8742" lon="5.71035">
        <ele>655.6</ele>
        <time>2023-08-03T13:01:50Z</time>
      </trkpt>
      <trkpt lat="44.87428" lon="5.71025">
        <ele>655.7</ele>
        <time>2023-08-03T13:01:52Z</time>
      </trkpt>
      <trkpt lat="44.87435" lon="5.71017">
        <ele>655.5</ele>
        <time>2023-08-03T13:01:54Z</time>
      </trkpt>
      <trkpt lat="44.87439" lon="5.71012">
        <ele>655.3</ele>
        <time>2023-08-03T13:01:55Z</time>
      </trkpt>
      <trkpt lat="44.87446" lon="5.71">
        <ele>654.6</ele>
        <time>2023-08-03T13:01:57Z</time>
      </trkpt>
      <trkpt lat="44.87456" lon="5.7099">
        <ele>653.8</ele>
        <time>2023-08-03T13:01:59Z</time>
      </trkpt>
      <trkpt lat="44.87462" lon="5.70985">
        <ele>653.3</ele>
        <time>2023-08-03T13:02:00Z</time>
      </trkpt>
      <trkpt lat="44.87495" lon="5.70958">
        <ele>650.3</ele>
        <time>2023-08-03T13:02:05Z</time>
      </trkpt>
      <trkpt lat="44.87516" lon="5.70939">
        <ele>648.3</ele>
        <time>2023-08-03T13:02:08Z</time>
      </trkpt>
      <trkpt lat="44.87523" lon="5.70928">
        <ele>647.5</ele>
        <time>2023-08-03T13:02:09Z</time>
      </trkpt>
      <trkpt lat="44.87531" lon="5.70903">
        <ele>646</ele>
        <time>2023-08-03T13:02:11Z</time>
      </trkpt>
      <trkpt lat="44.87532" lon="5.70889">
        <ele>645.3</ele>
        <time>2023-08-03T13:02:12Z</time>
      </trkpt>
      <trkpt lat="44.87534" lon="5.70844">
        <ele>643.1</ele>
        <time>2023-08-03T13:02:15Z</time>
      </trkpt>
      <trkpt lat="44.87534" lon="5.70816">
        <ele>641.9</ele>
        <time>2023-08-03T13:02:17Z</time>
      </trkpt>
      <trkpt lat="44.87537" lon="5.70781">
        <ele>640.3</ele>
        <time>2023-08-03T13:02:19Z</time>
      </trkpt>
      <trkpt lat="44.87544" lon="5.7075">
        <ele>638.4</ele>
        <time>2023-08-03T13:02:21Z</time>
      </trkpt>
      <trkpt lat="44.87565" lon="5.70692">
        <ele>635.2</ele>
        <time>2023-08-03T13:02:25Z</time>
      </trkpt>
      <trkpt lat="44.87572" lon="5.70673">
        <ele>634.3</ele>
        <time>2023-08-03T13:02:26Z</time>
      </trkpt>
      <trkpt lat="44.87578" lon="5.70641">
        <ele>632.7</ele>
        <time>2023-08-03T13:02:28Z</time>
      </trkpt>
      <trkpt lat="44.87574" lon="5.7061">
        <ele>631</ele>
        <time>2023-08-03T13:02:30Z</time>
      </trkpt>
      <trkpt lat="44.87569" lon="5.70595">
        <ele>630.1</ele>
        <time>2023-08-03T13:02:31Z</time>
      </trkpt>
      <trkpt lat="44.87543" lon="5.70513">
        <ele>625.8</ele>
        <time>2023-08-03T13:02:36Z</time>
      </trkpt>
      <trkpt lat="44.87526" lon="5.70463">
        <ele>623.1</ele>
        <time>2023-08-03T13:02:39Z</time>
      </trkpt>
      <trkpt lat="44.8752" lon="5.70451">
        <ele>622.3</ele>
        <time>2023-08-03T13:02:40Z</time>
      </trkpt>
      <trkpt lat="44.87513" lon="5.70437">
        <ele>621.4</ele>
        <time>2023-08-03T13:02:41Z</time>
      </trkpt>
      <trkpt lat="44.87486" lon="5.70392">
        <ele>618.6</ele>
        <time>2023-08-03T13:02:44Z</time>
      </trkpt>
      <trkpt lat="44.87459" lon="5.70348">
        <ele>615.9</ele>
        <time>2023-08-03T13:02:47Z</time>
      </trkpt>
      <trkpt lat="44.87407" lon="5.70282">
        <ele>611.5</ele>
        <time>2023-08-03T13:02:52Z</time>
      </trkpt>
      <trkpt lat="44.87399" lon="5.7027">
        <ele>610.5</ele>
        <time>2023-08-03T13:02:53Z</time>
      </trkpt>
      <trkpt lat="44.87392" lon="5.70256">
        <ele>609.6</ele>
        <time>2023-08-03T13:02:54Z</time>
      </trkpt>
      <trkpt lat="44.87387" lon="5.7024">
        <ele>608.7</ele>
        <time>2023-08-03T13:02:55Z</time>
      </trkpt>
      <trkpt lat="44.87382" lon="5.70191">
        <ele>606.8</ele>
        <time>2023-08-03T13:02:58Z</time>
      </trkpt>
      <trkpt lat="44.87382" lon="5.70176">
        <ele>606</ele>
        <time>2023-08-03T13:02:59Z</time>
      </trkpt>
      <trkpt lat="44.87388" lon="5.70149">
        <ele>604.4</ele>
        <time>2023-08-03T13:03:01Z</time>
      </trkpt>
      <trkpt lat="44.87406" lon="5.70131">
        <ele>602.7</ele>
        <time>2023-08-03T13:03:03Z</time>
      </trkpt>
      <trkpt lat="44.87427" lon="5.70125">
        <ele>601</ele>
        <time>2023-08-03T13:03:05Z</time>
      </trkpt>
      <trkpt lat="44.87449" lon="5.7012">
        <ele>599.1</ele>
        <time>2023-08-03T13:03:07Z</time>
      </trkpt>
      <trkpt lat="44.87461" lon="5.70117">
        <ele>598.2</ele>
        <time>2023-08-03T13:03:08Z</time>
      </trkpt>
      <trkpt lat="44.87506" lon="5.70107">
        <ele>594.8</ele>
        <time>2023-08-03T13:03:12Z</time>
      </trkpt>
      <trkpt lat="44.8752" lon="5.70105">
        <ele>593.8</ele>
        <time>2023-08-03T13:03:13Z</time>
      </trkpt>
      <trkpt lat="44.87554" lon="5.70104">
        <ele>592</ele>
        <time>2023-08-03T13:03:16Z</time>
      </trkpt>
      <trkpt lat="44.87563" lon="5.70101">
        <ele>591.5</ele>
        <time>2023-08-03T13:03:17Z</time>
      </trkpt>
      <trkpt lat="44.87568" lon="5.70095">
        <ele>591.1</ele>
        <time>2023-08-03T13:03:18Z</time>
      </trkpt>
      <trkpt lat="44.87569" lon="5.70087">
        <ele>590.7</ele>
        <time>2023-08-03T13:03:19Z</time>
      </trkpt>
      <trkpt lat="44.87568" lon="5.70078">
        <ele>590.2</ele>
        <time>2023-08-03T13:03:20Z</time>
      </trkpt>
      <trkpt lat="44.87562" lon="5.70073">
        <ele>589.7</ele>
        <time>2023-08-03T13:03:21Z</time>
      </trkpt>
      <trkpt lat="44.87547" lon="5.70074">
        <ele>588.5</ele>
        <time>2023-08-03T13:03:23Z</time>
      </trkpt>
      <trkpt lat="44.8753" lon="5.70078">
        <ele>587.1</ele>
        <time>2023-08-03T13:03:25Z</time>
      </trkpt>
      <trkpt lat="44.87519" lon="5.70079">
        <ele>586.2</ele>
        <time>2023-08-03T13:03:26Z</time>
      </trkpt>
      <trkpt lat="44.87511" lon="5.70079">
        <ele>585.6</ele>
        <time>2023-08-03T13:03:27Z</time>
      </trkpt>
      <trkpt lat="44.87456" lon="5.70078">
        <ele>581.3</ele>
        <time>2023-08-03T13:03:32Z</time>
      </trkpt>
      <trkpt lat="44.87396" lon="5.70076">
        <ele>576.4</ele>
        <time>2023-08-03T13:03:37Z</time>
      </trkpt>
      <trkpt lat="44.87383" lon="5.70075">
        <ele>575.4</ele>
        <time>2023-08-03T13:03:38Z</time>
      </trkpt>
      <trkpt lat="44.87347" lon="5.70074">
        <ele>572.6</ele>
        <time>2023-08-03T13:03:41Z</time>
      </trkpt>
      <trkpt lat="44.87322" lon="5.70077">
        <ele>570.9</ele>
        <time>2023-08-03T13:03:43Z</time>
      </trkpt>
      <trkpt lat="44.87311" lon="5.7008">
        <ele>570.2</ele>
        <time>2023-08-03T13:03:44Z</time>
      </trkpt>
      <trkpt lat="44.87293" lon="5.7009">
        <ele>569.5</ele>
        <time>2023-08-03T13:03:46Z</time>
      </trkpt>
      <trkpt lat="44.87284" lon="5.70092">
        <ele>569.1</ele>
        <time>2023-08-03T13:03:47Z</time>
      </trkpt>
      <trkpt lat="44.87279" lon="5.70089">
        <ele>568.8</ele>
        <time>2023-08-03T13:03:48Z</time>
      </trkpt>
      <trkpt lat="44.87275" lon="5.70082">
        <ele>568.4</ele>
        <time>2023-08-03T13:03:49Z</time>
      </trkpt>
      <trkpt lat="44.87276" lon="5.70075">
        <ele>568</ele>
        <time>2023-08-03T13:03:50Z</time>
      </trkpt>
      <trkpt lat="44.87286" lon="5.70065">
        <ele>567</ele>
        <time>2023-08-03T13:03:52Z</time>
      </trkpt>
      <trkpt lat="44.87304" lon="5.7006">
        <ele>565.4</ele>
        <time>2023-08-03T13:03:54Z</time>
      </trkpt>
      <trkpt lat="44.87311" lon="5.70058">
        <ele>564.8</ele>
        <time>2023-08-03T13:03:55Z</time>
      </trkpt>
      <trkpt lat="44.87351" lon="5.70048">
        <ele>561.4</ele>
        <time>2023-08-03T13:03:59Z</time>
      </trkpt>
      <trkpt lat="44.87361" lon="5.70045">
        <ele>560.6</ele>
        <time>2023-08-03T13:04:00Z</time>
      </trkpt>
      <trkpt lat="44.87373" lon="5.70041">
        <ele>559.7</ele>
        <time>2023-08-03T13:04:01Z</time>
      </trkpt>
      <trkpt lat="44.87405" lon="5.70025">
        <ele>557.1</ele>
        <time>2023-08-03T13:04:04Z</time>
      </trkpt>
      <trkpt lat="44.87415" lon="5.70018">
        <ele>556.2</ele>
        <time>2023-08-03T13:04:05Z</time>
      </trkpt>
      <trkpt lat="44.87432" lon="5.70003">
        <ele>554.6</ele>
        <time>2023-08-03T13:04:07Z</time>
      </trkpt>
      <trkpt lat="44.87443" lon="5.69991">
        <ele>553.5</ele>
        <time>2023-08-03T13:04:08Z</time>
      </trkpt>
      <trkpt lat="44.87451" lon="5.6998">
        <ele>552.6</ele>
        <time>2023-08-03T13:04:09Z</time>
      </trkpt>
      <trkpt lat="44.87458" lon="5.6997">
        <ele>551.9</ele>
        <time>2023-08-03T13:04:10Z</time>
      </trkpt>
      <trkpt lat="44.87472" lon="5.69944">
        <ele>550.5</ele>
        <time>2023-08-03T13:04:12Z</time>
      </trkpt>
      <trkpt lat="44.87484" lon="5.69917">
        <ele>549</ele>
        <time>2023-08-03T13:04:14Z</time>
      </trkpt>
      <trkpt lat="44.87496" lon="5.6989">
        <ele>547.6</ele>
        <time>2023-08-03T13:04:16Z</time>
      </trkpt>
      <trkpt lat="44.87504" lon="5.69878">
        <ele>546.7</ele>
        <time>2023-08-03T13:04:17Z</time>
      </trkpt>
      <trkpt lat="44.87513" lon="5.69872">
        <ele>545.9</ele>
        <time>2023-08-03T13:04:18Z</time>
      </trkpt>
      <trkpt lat="44.87533" lon="5.69871">
        <ele>544.1</ele>
        <time>2023-08-03T13:04:20Z</time>
      </trkpt>
      <trkpt lat="44.87552" lon="5.69886">
        <ele>542.1</ele>
        <time>2023-08-03T13:04:22Z</time>
      </trkpt>
      <trkpt lat="44.87558" lon="5.69893">
        <ele>541.4</ele>
        <time>2023-08-03T13:04:23Z</time>
      </trkpt>
      <trkpt lat="44.87567" lon="5.69903">
        <ele>540.6</ele>
        <time>2023-08-03T13:04:24Z</time>
      </trkpt>
      <trkpt lat="44.87587" lon="5.69917">
        <ele>539</ele>
        <time>2023-08-03T13:04:26Z</time>
      </trkpt>
      <trkpt lat="44.87608" lon="5.69923">
        <ele>537.4</ele>
        <time>2023-08-03T13:04:28Z</time>
      </trkpt>
      <trkpt lat="44.87622" lon="5.69909">
        <ele>536.3</ele>
        <time>2023-08-03T13:04:30Z</time>
      </trkpt>
      <trkpt lat="44.87622" lon="5.6989">
        <ele>535.3</ele>
        <time>2023-08-03T13:04:32Z</time>
      </trkpt>
      <trkpt lat="44.87615" lon="5.69865">
        <ele>533.8</ele>
        <time>2023-08-03T13:04:34Z</time>
      </trkpt>
      <trkpt lat="44.87614" lon="5.69854">
        <ele>533.1</ele>
        <time>2023-08-03T13:04:35Z</time>
      </trkpt>
      <trkpt lat="44.87615" lon="5.69838">
        <ele>531.9</ele>
        <time>2023-08-03T13:04:36Z</time>
      </trkpt>
      <trkpt lat="44.87616" lon="5.69811">
        <ele>530.4</ele>
        <time>2023-08-03T13:04:38Z</time>
      </trkpt>
      <trkpt lat="44.87615" lon="5.69796">
        <ele>529.6</ele>
        <time>2023-08-03T13:04:39Z</time>
      </trkpt>
      <trkpt lat="44.87614" lon="5.69764">
        <ele>528</ele>
        <time>2023-08-03T13:04:41Z</time>
      </trkpt>
      <trkpt lat="44.87616" lon="5.69746">
        <ele>527</ele>
        <time>2023-08-03T13:04:42Z</time>
      </trkpt>
      <trkpt lat="44.87619" lon="5.69735">
        <ele>526.4</ele>
        <time>2023-08-03T13:04:43Z</time>
      </trkpt>
      <trkpt lat="44.87627" lon="5.69724">
        <ele>525.6</ele>
        <time>2023-08-03T13:04:44Z</time>
      </trkpt>
      <trkpt lat="44.87635" lon="5.69715">
        <ele>524.8</ele>
        <time>2023-08-03T13:04:45Z</time>
      </trkpt>
      <trkpt lat="44.87648" lon="5.69694">
        <ele>523.2</ele>
        <time>2023-08-03T13:04:47Z</time>
      </trkpt>
      <trkpt lat="44.87647" lon="5.69666">
        <ele>521.6</ele>
        <time>2023-08-03T13:04:49Z</time>
      </trkpt>
      <trkpt lat="44.87638" lon="5.69643">
        <ele>519.9</ele>
        <time>2023-08-03T13:04:51Z</time>
      </trkpt>
      <trkpt lat="44.87636" lon="5.69628">
        <ele>519</ele>
        <time>2023-08-03T13:04:52Z</time>
      </trkpt>
      <trkpt lat="44.87638" lon="5.69616">
        <ele>518.3</ele>
        <time>2023-08-03T13:04:53Z</time>
      </trkpt>
      <trkpt lat="44.87642" lon="5.69599">
        <ele>516.1</ele>
        <time>2023-08-03T13:04:54Z</time>
      </trkpt>
      <trkpt lat="44.87647" lon="5.69584">
        <ele>514.4</ele>
        <time>2023-08-03T13:04:55Z</time>
      </trkpt>
      <trkpt lat="44.8766" lon="5.69563">
        <ele>511.3</ele>
        <time>2023-08-03T13:04:57Z</time>
      </trkpt>
      <trkpt lat="44.87682" lon="5.69551">
        <ele>509.8</ele>
        <time>2023-08-03T13:04:59Z</time>
      </trkpt>
      <trkpt lat="44.87694" lon="5.69551">
        <ele>509.5</ele>
        <time>2023-08-03T13:05:00Z</time>
      </trkpt>
      <trkpt lat="44.87727" lon="5.69549">
        <ele>508.8</ele>
        <time>2023-08-03T13:05:03Z</time>
      </trkpt>
      <trkpt lat="44.87743" lon="5.69536">
        <ele>508.8</ele>
        <time>2023-08-03T13:05:05Z</time>
      </trkpt>
      <trkpt lat="44.8775" lon="5.69514">
        <ele>508.5</ele>
        <time>2023-08-03T13:05:07Z</time>
      </trkpt>
      <trkpt lat="44.87746" lon="5.69492">
        <ele>507.8</ele>
        <time>2023-08-03T13:05:09Z</time>
      </trkpt>
      <trkpt lat="44.87729" lon="5.69463">
        <ele>506.8</ele>
        <time>2023-08-03T13:05:12Z</time>
      </trkpt>
      <trkpt lat="44.87703" lon="5.6941">
        <ele>505.3</ele>
        <time>2023-08-03T13:05:17Z</time>
      </trkpt>
      <trkpt lat="44.877" lon="5.694">
        <ele>505</ele>
        <time>2023-08-03T13:05:18Z</time>
      </trkpt>
      <trkpt lat="44.87698" lon="5.6937">
        <ele>504.3</ele>
        <time>2023-08-03T13:05:20Z</time>
      </trkpt>
      <trkpt lat="44.87707" lon="5.69321">
        <ele>503.4</ele>
        <time>2023-08-03T13:05:24Z</time>
      </trkpt>
      <trkpt lat="44.87721" lon="5.69249">
        <ele>504.2</ele>
        <time>2023-08-03T13:05:30Z</time>
      </trkpt>
      <trkpt lat="44.87731" lon="5.69207">
        <ele>504.8</ele>
        <time>2023-08-03T13:05:34Z</time>
      </trkpt>
      <trkpt lat="44.87734" lon="5.69198">
        <ele>504.9</ele>
        <time>2023-08-03T13:05:35Z</time>
      </trkpt>
      <trkpt lat="44.87737" lon="5.69191">
        <ele>504.9</ele>
        <time>2023-08-03T13:05:36Z</time>
      </trkpt>
      <trkpt lat="44.87747" lon="5.69175">
        <ele>504.8</ele>
        <time>2023-08-03T13:05:38Z</time>
      </trkpt>
      <trkpt lat="44.87751" lon="5.6917">
        <ele>504.8</ele>
        <time>2023-08-03T13:05:39Z</time>
      </trkpt>
      <trkpt lat="44.87764" lon="5.69157">
        <ele>504.7</ele>
        <time>2023-08-03T13:05:41Z</time>
      </trkpt>
      <trkpt lat="44.87775" lon="5.69149">
        <ele>504.6</ele>
        <time>2023-08-03T13:05:43Z</time>
      </trkpt>
      <trkpt lat="44.87795" lon="5.69138">
        <ele>504.6</ele>
        <time>2023-08-03T13:05:46Z</time>
      </trkpt>
      <trkpt lat="44.87833" lon="5.69113">
        <ele>504.7</ele>
        <time>2023-08-03T13:05:52Z</time>
      </trkpt>
      <trkpt lat="44.87839" lon="5.6911">
        <ele>504.7</ele>
        <time>2023-08-03T13:05:53Z</time>
      </trkpt>
      <trkpt lat="44.87857" lon="5.69098">
        <ele>504.7</ele>
        <time>2023-08-03T13:05:56Z</time>
      </trkpt>
      <trkpt lat="44.87887" lon="5.69078">
        <ele>504.6</ele>
        <time>2023-08-03T13:06:01Z</time>
      </trkpt>
      <trkpt lat="44.87917" lon="5.69058">
        <ele>504.3</ele>
        <time>2023-08-03T13:06:06Z</time>
      </trkpt>
      <trkpt lat="44.87934" lon="5.69046">
        <ele>504.3</ele>
        <time>2023-08-03T13:06:09Z</time>
      </trkpt>
      <trkpt lat="44.8794" lon="5.69042">
        <ele>504.2</ele>
        <time>2023-08-03T13:06:10Z</time>
      </trkpt>
      <trkpt lat="44.87959" lon="5.69031">
        <ele>504.3</ele>
        <time>2023-08-03T13:06:13Z</time>
      </trkpt>
      <trkpt lat="44.87979" lon="5.6902">
        <ele>504.4</ele>
        <time>2023-08-03T13:06:16Z</time>
      </trkpt>
      <trkpt lat="44.87985" lon="5.69018">
        <ele>504.4</ele>
        <time>2023-08-03T13:06:17Z</time>
      </trkpt>
      <trkpt lat="44.87998" lon="5.69012">
        <ele>504.5</ele>
        <time>2023-08-03T13:06:19Z</time>
      </trkpt>
      <trkpt lat="44.88025" lon="5.69003">
        <ele>504.6</ele>
        <time>2023-08-03T13:06:23Z</time>
      </trkpt>
      <trkpt lat="44.88038" lon="5.69">
        <ele>504.8</ele>
        <time>2023-08-03T13:06:25Z</time>
      </trkpt>
      <trkpt lat="44.88045" lon="5.68999">
        <ele>504.9</ele>
        <time>2023-08-03T13:06:26Z</time>
      </trkpt>
      <trkpt lat="44.88074" lon="5.68995">
        <ele>505.1</ele>
        <time>2023-08-03T13:06:31Z</time>
      </trkpt>
      <trkpt lat="44.88094" lon="5.68994">
        <ele>505.2</ele>
        <time>2023-08-03T13:06:34Z</time>
      </trkpt>
      <trkpt lat="44.88099" lon="5.68993">
        <ele>505.2</ele>
        <time>2023-08-03T13:06:35Z</time>
      </trkpt>
      <trkpt lat="44.88124" lon="5.68991">
        <ele>505.2</ele>
        <time>2023-08-03T13:06:39Z</time>
      </trkpt>
      <trkpt lat="44.88151" lon="5.6899">
        <ele>505.1</ele>
        <time>2023-08-03T13:06:43Z</time>
      </trkpt>
      <trkpt lat="44.88157" lon="5.6899">
        <ele>505</ele>
        <time>2023-08-03T13:06:44Z</time>
      </trkpt>
      <trkpt lat="44.88164" lon="5.68989">
        <ele>505</ele>
        <time>2023-08-03T13:06:45Z</time>
      </trkpt>
      <trkpt lat="44.88176" lon="5.68981">
        <ele>505.1</ele>
        <time>2023-08-03T13:06:47Z</time>
      </trkpt>
      <trkpt lat="44.8818" lon="5.68976">
        <ele>505.1</ele>
        <time>2023-08-03T13:06:48Z</time>
      </trkpt>
      <trkpt lat="44.88184" lon="5.68968">
        <ele>505.1</ele>
        <time>2023-08-03T13:06:49Z</time>
      </trkpt>
      <trkpt lat="44.88188" lon="5.68956">
        <ele>505.1</ele>
        <time>2023-08-03T13:06:50Z</time>
      </trkpt>
      <trkpt lat="44.88189" lon="5.68946">
        <ele>505.1</ele>
        <time>2023-08-03T13:06:51Z</time>
      </trkpt>
      <trkpt lat="44.88191" lon="5.68929">
        <ele>505.2</ele>
        <time>2023-08-03T13:06:53Z</time>
      </trkpt>
      <trkpt lat="44.88192" lon="5.68919">
        <ele>505.2</ele>
        <time>2023-08-03T13:06:54Z</time>
      </trkpt>
      <trkpt lat="44.88196" lon="5.68895">
        <ele>505.5</ele>
        <time>2023-08-03T13:06:57Z</time>
      </trkpt>
      <trkpt lat="44.88203" lon="5.68869">
        <ele>504.7</ele>
        <time>2023-08-03T13:07:00Z</time>
      </trkpt>
      <trkpt lat="44.88205" lon="5.68862">
        <ele>503.8</ele>
        <time>2023-08-03T13:07:01Z</time>
      </trkpt>
      <trkpt lat="44.88217" lon="5.68827">
        <ele>500.1</ele>
        <time>2023-08-03T13:07:06Z</time>
      </trkpt>
      <trkpt lat="44.88224" lon="5.68816">
        <ele>498.5</ele>
        <time>2023-08-03T13:07:08Z</time>
      </trkpt>
      <trkpt lat="44.88233" lon="5.68804">
        <ele>496.7</ele>
        <time>2023-08-03T13:07:11Z</time>
      </trkpt>
      <trkpt lat="44.88241" lon="5.68794">
        <ele>495.3</ele>
        <time>2023-08-03T13:07:13Z</time>
      </trkpt>
      <trkpt lat="44.88261" lon="5.6877">
        <ele>493.7</ele>
        <time>2023-08-03T13:07:18Z</time>
      </trkpt>
      <trkpt lat="44.88274" lon="5.68754">
        <ele>496.3</ele>
        <time>2023-08-03T13:07:21Z</time>
      </trkpt>
      <trkpt lat="44.88285" lon="5.68741">
        <ele>498.8</ele>
        <time>2023-08-03T13:07:24Z</time>
      </trkpt>
      <trkpt lat="44.88294" lon="5.68732">
        <ele>500.7</ele>
        <time>2023-08-03T13:07:26Z</time>
      </trkpt>
      <trkpt lat="44.88304" lon="5.68728">
        <ele>502.5</ele>
        <time>2023-08-03T13:07:28Z</time>
      </trkpt>
      <trkpt lat="44.88309" lon="5.68727">
        <ele>503.3</ele>
        <time>2023-08-03T13:07:29Z</time>
      </trkpt>
      <trkpt lat="44.88318" lon="5.68727">
        <ele>504.5</ele>
        <time>2023-08-03T13:07:31Z</time>
      </trkpt>
      <trkpt lat="44.88322" lon="5.68726">
        <ele>504.7</ele>
        <time>2023-08-03T13:07:32Z</time>
      </trkpt>
      <trkpt lat="44.88326" lon="5.68722">
        <ele>504.9</ele>
        <time>2023-08-03T13:07:33Z</time>
      </trkpt>
      <trkpt lat="44.88332" lon="5.68713">
        <ele>505.3</ele>
        <time>2023-08-03T13:07:35Z</time>
      </trkpt>
    </trkseg>
  </trk>
</gpx>